﻿<?xml version="1.0" encoding="utf-8"?><gpx creator="Garmin Desktop App" version="1.1" xsi:schemaLocation="http://www.topografix.com/GPX/1/1 http://www.topografix.com/GPX/1/1/gpx.xsd http://www.garmin.com/xmlschemas/WaypointExtension/v1 http://www8.garmin.com/xmlschemas/WaypointExtensionv1.xsd http://www.garmin.com/xmlschemas/TrackPointExtension/v1 http://www.garmin.com/xmlschemas/TrackPointExtensionv1.xsd http://www.garmin.com/xmlschemas/GpxExtensions/v3 http://www8.garmin.com/xmlschemas/GpxExtensionsv3.xsd http://www.garmin.com/xmlschemas/ActivityExtension/v1 http://www8.garmin.com/xmlschemas/ActivityExtensionv1.xsd http://www.garmin.com/xmlschemas/AdventuresExtensions/v1 http://www8.garmin.com/xmlschemas/AdventuresExtensionv1.xsd http://www.garmin.com/xmlschemas/PressureExtension/v1 http://www.garmin.com/xmlschemas/PressureExtensionv1.xsd http://www.garmin.com/xmlschemas/TripExtensions/v1 http://www.garmin.com/xmlschemas/TripExtensionsv1.xsd http://www.garmin.com/xmlschemas/TripMetaDataExtensions/v1 http://www.garmin.com/xmlschemas/TripMetaDataExtensionsv1.xsd http://www.garmin.com/xmlschemas/ViaPointTransportationModeExtensions/v1 http://www.garmin.com/xmlschemas/ViaPointTransportationModeExtensionsv1.xsd http://www.garmin.com/xmlschemas/CreationTimeExtension/v1 http://www.garmin.com/xmlschemas/CreationTimeExtensionsv1.xsd http://www.garmin.com/xmlschemas/AccelerationExtension/v1 http://www.garmin.com/xmlschemas/AccelerationExtensionv1.xsd http://www.garmin.com/xmlschemas/PowerExtension/v1 http://www.garmin.com/xmlschemas/PowerExtensionv1.xsd http://www.garmin.com/xmlschemas/VideoExtension/v1 http://www.garmin.com/xmlschemas/VideoExtensionv1.xsd" xmlns="http://www.topografix.com/GPX/1/1" xmlns:xsi="http://www.w3.org/2001/XMLSchema-instance" xmlns:wptx1="http://www.garmin.com/xmlschemas/WaypointExtension/v1" xmlns:gpxtrx="http://www.garmin.com/xmlschemas/GpxExtensions/v3" xmlns:gpxtpx="http://www.garmin.com/xmlschemas/TrackPointExtension/v1" xmlns:gpxx="http://www.garmin.com/xmlschemas/GpxExtensions/v3" xmlns:trp="http://www.garmin.com/xmlschemas/TripExtensions/v1" xmlns:adv="http://www.garmin.com/xmlschemas/AdventuresExtensions/v1" xmlns:prs="http://www.garmin.com/xmlschemas/PressureExtension/v1" xmlns:tmd="http://www.garmin.com/xmlschemas/TripMetaDataExtensions/v1" xmlns:vptm="http://www.garmin.com/xmlschemas/ViaPointTransportationModeExtensions/v1" xmlns:ctx="http://www.garmin.com/xmlschemas/CreationTimeExtension/v1" xmlns:gpxacc="http://www.garmin.com/xmlschemas/AccelerationExtension/v1" xmlns:gpxpx="http://www.garmin.com/xmlschemas/PowerExtension/v1" xmlns:vidx1="http://www.garmin.com/xmlschemas/VideoExtension/v1">

  <metadata>
    <link href="http://www.garmin.com">
      <text>Garmin International</text>
    </link>
    <time>2018-07-05T17:10:36Z</time>
    <bounds maxlat="48.836418036371469" maxlon="-1.349858986213803" minlat="48.479233039543033" minlon="-3.989152992144227" />
  </metadata>

  <trk>
    <name>Track vom: 2018-07-05 08:11</name>
    <extensions>
      <gpxx:TrackExtension>
        <gpxx:DisplayColor>DarkGray</gpxx:DisplayColor>
      </gpxx:TrackExtension>
    </extensions>
    <trkseg>
      <trkpt lat="48.783706007525325" lon="-1.558603998273611">
        <ele>30.420000000000002</ele>
        <time>2018-07-05T06:11:02Z</time>
      </trkpt>
      <trkpt lat="48.783490005880594" lon="-1.558377016335726">
        <ele>29.460000000000001</ele>
        <time>2018-07-05T06:11:13Z</time>
      </trkpt>
      <trkpt lat="48.783438038080931" lon="-1.558322031050921">
        <ele>28.98</ele>
        <time>2018-07-05T06:11:16Z</time>
      </trkpt>
      <trkpt lat="48.78341599367559" lon="-1.558241983875632">
        <ele>28.5</ele>
        <time>2018-07-05T06:11:17Z</time>
      </trkpt>
      <trkpt lat="48.783465027809143" lon="-1.558159003034234">
        <ele>28.5</ele>
        <time>2018-07-05T06:11:19Z</time>
      </trkpt>
      <trkpt lat="48.783496040850878" lon="-1.558104017749429">
        <ele>27.530000000000001</ele>
        <time>2018-07-05T06:11:21Z</time>
      </trkpt>
      <trkpt lat="48.783811032772064" lon="-1.557561038061976">
        <ele>27.050000000000001</ele>
        <time>2018-07-05T06:11:28Z</time>
      </trkpt>
      <trkpt lat="48.783852020278573" lon="-1.557490965351462">
        <ele>27.530000000000001</ele>
        <time>2018-07-05T06:11:29Z</time>
      </trkpt>
      <trkpt lat="48.784013958647847" lon="-1.557212015613914">
        <ele>28.02</ele>
        <time>2018-07-05T06:11:33Z</time>
      </trkpt>
      <trkpt lat="48.784054024145007" lon="-1.557142026722431">
        <ele>28.5</ele>
        <time>2018-07-05T06:11:34Z</time>
      </trkpt>
      <trkpt lat="48.784675961360335" lon="-1.55606696382165">
        <ele>31.859999999999999</ele>
        <time>2018-07-05T06:11:47Z</time>
      </trkpt>
      <trkpt lat="48.784830020740628" lon="-1.555802011862397">
        <ele>32.82</ele>
        <time>2018-07-05T06:11:50Z</time>
      </trkpt>
      <trkpt lat="48.785381969064474" lon="-1.554681016132236">
        <ele>33.780000000000001</ele>
        <time>2018-07-05T06:12:02Z</time>
      </trkpt>
      <trkpt lat="48.785687992349267" lon="-1.553997974842787">
        <ele>32.340000000000003</ele>
        <time>2018-07-05T06:12:10Z</time>
      </trkpt>
      <trkpt lat="48.785721017047763" lon="-1.553929997608066">
        <ele>31.859999999999999</ele>
        <time>2018-07-05T06:12:11Z</time>
      </trkpt>
      <trkpt lat="48.785754963755608" lon="-1.553869983181357">
        <ele>31.859999999999999</ele>
        <time>2018-07-05T06:12:12Z</time>
      </trkpt>
      <trkpt lat="48.785784970968962" lon="-1.553819021210074">
        <ele>31.379999999999999</ele>
        <time>2018-07-05T06:12:13Z</time>
      </trkpt>
      <trkpt lat="48.785798968747258" lon="-1.553793037310243">
        <ele>30.899999999999999</ele>
        <time>2018-07-05T06:12:14Z</time>
      </trkpt>
      <trkpt lat="48.785848002880812" lon="-1.553774010390043">
        <ele>30.420000000000002</ele>
        <time>2018-07-05T06:12:15Z</time>
      </trkpt>
      <trkpt lat="48.785912040621042" lon="-1.553739979863167">
        <ele>29.940000000000001</ele>
        <time>2018-07-05T06:12:16Z</time>
      </trkpt>
      <trkpt lat="48.785943975672126" lon="-1.553683988749981">
        <ele>29.460000000000001</ele>
        <time>2018-07-05T06:12:17Z</time>
      </trkpt>
      <trkpt lat="48.78601698204875" lon="-1.55355398543179">
        <ele>28.5</ele>
        <time>2018-07-05T06:12:19Z</time>
      </trkpt>
      <trkpt lat="48.786056041717529" lon="-1.553483996540308">
        <ele>28.02</ele>
        <time>2018-07-05T06:12:20Z</time>
      </trkpt>
      <trkpt lat="48.786093005910516" lon="-1.553418030962348">
        <ele>27.530000000000001</ele>
        <time>2018-07-05T06:12:21Z</time>
      </trkpt>
      <trkpt lat="48.786142040044069" lon="-1.553389029577375">
        <ele>27.050000000000001</ele>
        <time>2018-07-05T06:12:22Z</time>
      </trkpt>
      <trkpt lat="48.786191996186972" lon="-1.553368996828795">
        <ele>26.57</ele>
        <time>2018-07-05T06:12:23Z</time>
      </trkpt>
      <trkpt lat="48.786240024492145" lon="-1.553347958251834">
        <ele>26.09</ele>
        <time>2018-07-05T06:12:24Z</time>
      </trkpt>
      <trkpt lat="48.786289980635047" lon="-1.553328009322286">
        <ele>25.609999999999999</ele>
        <time>2018-07-05T06:12:25Z</time>
      </trkpt>
      <trkpt lat="48.786400035023689" lon="-1.553281992673874">
        <ele>24.170000000000002</ele>
        <time>2018-07-05T06:12:27Z</time>
      </trkpt>
      <trkpt lat="48.786458959802985" lon="-1.553257014602423">
        <ele>23.690000000000001</ele>
        <time>2018-07-05T06:12:28Z</time>
      </trkpt>
      <trkpt lat="48.786520985886455" lon="-1.553231030702591">
        <ele>23.210000000000001</ele>
        <time>2018-07-05T06:12:29Z</time>
      </trkpt>
      <trkpt lat="48.78657697699964" lon="-1.553207980468869">
        <ele>22.25</ele>
        <time>2018-07-05T06:12:30Z</time>
      </trkpt>
      <trkpt lat="48.786626011133194" lon="-1.55318601988256">
        <ele>21.77</ele>
        <time>2018-07-05T06:12:31Z</time>
      </trkpt>
      <trkpt lat="48.78679096698761" lon="-1.5531010273844">
        <ele>21.289999999999999</ele>
        <time>2018-07-05T06:12:34Z</time>
      </trkpt>
      <trkpt lat="48.787294970825315" lon="-1.55284303240478">
        <ele>19.84</ele>
        <time>2018-07-05T06:12:43Z</time>
      </trkpt>
      <trkpt lat="48.787352973595262" lon="-1.552815958857536">
        <ele>19.84</ele>
        <time>2018-07-05T06:12:44Z</time>
      </trkpt>
      <trkpt lat="48.787571992725134" lon="-1.55271302908659">
        <ele>20.809999999999999</ele>
        <time>2018-07-05T06:12:48Z</time>
      </trkpt>
      <trkpt lat="48.78775798715651" lon="-1.55260800383985">
        <ele>22.25</ele>
        <time>2018-07-05T06:12:51Z</time>
      </trkpt>
      <trkpt lat="48.788073984906077" lon="-1.552248001098633">
        <ele>24.170000000000002</ele>
        <time>2018-07-05T06:12:56Z</time>
      </trkpt>
      <trkpt lat="48.788112960755825" lon="-1.552139036357403">
        <ele>24.170000000000002</ele>
        <time>2018-07-05T06:12:57Z</time>
      </trkpt>
      <trkpt lat="48.788607995957136" lon="-1.550666000694037">
        <ele>26.57</ele>
        <time>2018-07-05T06:13:08Z</time>
      </trkpt>
      <trkpt lat="48.789171008393168" lon="-1.548930024728179">
        <ele>28.5</ele>
        <time>2018-07-05T06:13:21Z</time>
      </trkpt>
      <trkpt lat="48.78921995870769" lon="-1.548794992268086">
        <ele>28.98</ele>
        <time>2018-07-05T06:13:22Z</time>
      </trkpt>
      <trkpt lat="48.789278967306018" lon="-1.548661971464753">
        <ele>28.98</ele>
        <time>2018-07-05T06:13:23Z</time>
      </trkpt>
      <trkpt lat="48.789350967854261" lon="-1.548557030037046">
        <ele>29.460000000000001</ele>
        <time>2018-07-05T06:13:24Z</time>
      </trkpt>
      <trkpt lat="48.78943202085793" lon="-1.5484609734267">
        <ele>29.460000000000001</ele>
        <time>2018-07-05T06:13:25Z</time>
      </trkpt>
      <trkpt lat="48.789513995870948" lon="-1.548363994807005">
        <ele>29.940000000000001</ele>
        <time>2018-07-05T06:13:26Z</time>
      </trkpt>
      <trkpt lat="48.790444973856211" lon="-1.547308964654803">
        <ele>35.710000000000001</ele>
        <time>2018-07-05T06:13:37Z</time>
      </trkpt>
      <trkpt lat="48.791426997631788" lon="-1.545997029170394">
        <ele>34.259999999999998</ele>
        <time>2018-07-05T06:13:48Z</time>
      </trkpt>
      <trkpt lat="48.792484039440751" lon="-1.544688027352095">
        <ele>33.299999999999997</ele>
        <time>2018-07-05T06:13:59Z</time>
      </trkpt>
      <trkpt lat="48.792803976684809" lon="-1.544260969385505">
        <ele>30.899999999999999</ele>
        <time>2018-07-05T06:14:03Z</time>
      </trkpt>
      <trkpt lat="48.792866002768278" lon="-1.544119985774159">
        <ele>30.420000000000002</ele>
        <time>2018-07-05T06:14:04Z</time>
      </trkpt>
      <trkpt lat="48.793246960267425" lon="-1.543264025822282">
        <ele>26.57</ele>
        <time>2018-07-05T06:14:10Z</time>
      </trkpt>
      <trkpt lat="48.793309992179275" lon="-1.543122036382556">
        <ele>26.57</ele>
        <time>2018-07-05T06:14:11Z</time>
      </trkpt>
      <trkpt lat="48.794100992381573" lon="-1.541523020714521">
        <ele>28.98</ele>
        <time>2018-07-05T06:14:23Z</time>
      </trkpt>
      <trkpt lat="48.794173998758197" lon="-1.54139100573957">
        <ele>29.940000000000001</ele>
        <time>2018-07-05T06:14:24Z</time>
      </trkpt>
      <trkpt lat="48.794473987072706" lon="-1.540824975818396">
        <ele>31.859999999999999</ele>
        <time>2018-07-05T06:14:28Z</time>
      </trkpt>
      <trkpt lat="48.794538024812937" lon="-1.540676029399037">
        <ele>32.340000000000003</ele>
        <time>2018-07-05T06:14:29Z</time>
      </trkpt>
      <trkpt lat="48.794860979542136" lon="-1.539529971778393">
        <ele>38.109999999999999</ele>
        <time>2018-07-05T06:14:37Z</time>
      </trkpt>
      <trkpt lat="48.794871959835291" lon="-1.539445985108614">
        <ele>39.07</ele>
        <time>2018-07-05T06:14:38Z</time>
      </trkpt>
      <trkpt lat="48.794883023947477" lon="-1.539359986782074">
        <ele>39.549999999999997</ele>
        <time>2018-07-05T06:14:40Z</time>
      </trkpt>
      <trkpt lat="48.794860979542136" lon="-1.539244987070561">
        <ele>40.990000000000002</ele>
        <time>2018-07-05T06:14:45Z</time>
      </trkpt>
      <trkpt lat="48.794822003692389" lon="-1.539244987070561">
        <ele>40.990000000000002</ele>
        <time>2018-07-05T06:14:46Z</time>
      </trkpt>
      <trkpt lat="48.794556967914104" lon="-1.539206011220813">
        <ele>41.950000000000003</ele>
        <time>2018-07-05T06:14:50Z</time>
      </trkpt>
      <trkpt lat="48.794275000691414" lon="-1.539158988744021">
        <ele>42.439999999999998</ele>
        <time>2018-07-05T06:14:53Z</time>
      </trkpt>
      <trkpt lat="48.794101998209953" lon="-1.539051029831171">
        <ele>41.469999999999999</ele>
        <time>2018-07-05T06:14:56Z</time>
      </trkpt>
      <trkpt lat="48.794037038460374" lon="-1.539009958505631">
        <ele>40.990000000000002</ele>
        <time>2018-07-05T06:14:57Z</time>
      </trkpt>
      <trkpt lat="48.793614003807306" lon="-1.538647022098303">
        <ele>41.469999999999999</ele>
        <time>2018-07-05T06:15:04Z</time>
      </trkpt>
      <trkpt lat="48.793353997170925" lon="-1.538402019068599">
        <ele>42.439999999999998</ele>
        <time>2018-07-05T06:15:08Z</time>
      </trkpt>
      <trkpt lat="48.792571965605021" lon="-1.537538012489677">
        <ele>44.359999999999999</ele>
        <time>2018-07-05T06:15:18Z</time>
      </trkpt>
      <trkpt lat="48.792402986437082" lon="-1.537343971431255">
        <ele>43.399999999999999</ele>
        <time>2018-07-05T06:15:20Z</time>
      </trkpt>
      <trkpt lat="48.791268998757005" lon="-1.53631903231144">
        <ele>35.229999999999997</ele>
        <time>2018-07-05T06:15:31Z</time>
      </trkpt>
      <trkpt lat="48.790019005537033" lon="-1.535665998235345">
        <ele>31.859999999999999</ele>
        <time>2018-07-05T06:15:42Z</time>
      </trkpt>
      <trkpt lat="48.788610007613897" lon="-1.535131987184286">
        <ele>34.740000000000002</ele>
        <time>2018-07-05T06:15:53Z</time>
      </trkpt>
      <trkpt lat="48.787117023020983" lon="-1.534391026943922">
        <ele>30.420000000000002</ele>
        <time>2018-07-05T06:16:04Z</time>
      </trkpt>
      <trkpt lat="48.785792011767626" lon="-1.533489972352982">
        <ele>22.25</ele>
        <time>2018-07-05T06:16:15Z</time>
      </trkpt>
      <trkpt lat="48.785534016788006" lon="-1.53337799012661">
        <ele>21.289999999999999</ele>
        <time>2018-07-05T06:16:17Z</time>
      </trkpt>
      <trkpt lat="48.785402001813054" lon="-1.533352006226778">
        <ele>20.809999999999999</ele>
        <time>2018-07-05T06:16:18Z</time>
      </trkpt>
      <trkpt lat="48.785268981009722" lon="-1.53333499096334">
        <ele>20.32</ele>
        <time>2018-07-05T06:16:19Z</time>
      </trkpt>
      <trkpt lat="48.784741004928946" lon="-1.533275982365012">
        <ele>17.920000000000002</ele>
        <time>2018-07-05T06:16:23Z</time>
      </trkpt>
      <trkpt lat="48.784619970247149" lon="-1.533215967938304">
        <ele>16.960000000000001</ele>
        <time>2018-07-05T06:16:24Z</time>
      </trkpt>
      <trkpt lat="48.784500025212765" lon="-1.533156037330627">
        <ele>16.48</ele>
        <time>2018-07-05T06:16:25Z</time>
      </trkpt>
      <trkpt lat="48.784397011622787" lon="-1.533050006255508">
        <ele>16</ele>
        <time>2018-07-05T06:16:26Z</time>
      </trkpt>
      <trkpt lat="48.784290980547667" lon="-1.532937018200755">
        <ele>16</ele>
        <time>2018-07-05T06:16:27Z</time>
      </trkpt>
      <trkpt lat="48.784195007756352" lon="-1.532822018489242">
        <ele>15.52</ele>
        <time>2018-07-05T06:16:28Z</time>
      </trkpt>
      <trkpt lat="48.784114038571715" lon="-1.532680029049516">
        <ele>15.52</ele>
        <time>2018-07-05T06:16:29Z</time>
      </trkpt>
      <trkpt lat="48.783582039177418" lon="-1.531442021951079">
        <ele>15.039999999999999</ele>
        <time>2018-07-05T06:16:38Z</time>
      </trkpt>
      <trkpt lat="48.783519007265568" lon="-1.531306989490986">
        <ele>15.039999999999999</ele>
        <time>2018-07-05T06:16:39Z</time>
      </trkpt>
      <trkpt lat="48.78343996591866" lon="-1.531184026971459">
        <ele>15.52</ele>
        <time>2018-07-05T06:16:40Z</time>
      </trkpt>
      <trkpt lat="48.783360002562404" lon="-1.531060980632901">
        <ele>15.52</ele>
        <time>2018-07-05T06:16:41Z</time>
      </trkpt>
      <trkpt lat="48.783277021721005" lon="-1.530956039205194">
        <ele>15.52</ele>
        <time>2018-07-05T06:16:42Z</time>
      </trkpt>
      <trkpt lat="48.783182976767421" lon="-1.530878003686667">
        <ele>15.52</ele>
        <time>2018-07-05T06:16:43Z</time>
      </trkpt>
      <trkpt lat="48.78309203311801" lon="-1.530801979824901">
        <ele>15.52</ele>
        <time>2018-07-05T06:16:44Z</time>
      </trkpt>
      <trkpt lat="48.782605966553092" lon="-1.530486987903714">
        <ele>16</ele>
        <time>2018-07-05T06:16:49Z</time>
      </trkpt>
      <trkpt lat="48.782405974343419" lon="-1.530432002618909">
        <ele>16.48</ele>
        <time>2018-07-05T06:16:51Z</time>
      </trkpt>
      <trkpt lat="48.782304972410202" lon="-1.530439965426922">
        <ele>16.960000000000001</ele>
        <time>2018-07-05T06:16:52Z</time>
      </trkpt>
      <trkpt lat="48.782304972410202" lon="-1.530439965426922">
        <ele>16.960000000000001</ele>
        <time>2018-07-05T06:16:53Z</time>
      </trkpt>
      <trkpt lat="48.782064998522401" lon="-1.530565023422241">
        <ele>17.920000000000002</ele>
        <time>2018-07-05T06:16:55Z</time>
      </trkpt>
      <trkpt lat="48.782017976045609" lon="-1.530602993443608">
        <ele>18.399999999999999</ele>
        <time>2018-07-05T06:16:56Z</time>
      </trkpt>
      <trkpt lat="48.781986963003874" lon="-1.530625959858298">
        <ele>18.879999999999999</ele>
        <time>2018-07-05T06:16:57Z</time>
      </trkpt>
      <trkpt lat="48.781971037387848" lon="-1.530639035627246">
        <ele>19.359999999999999</ele>
        <time>2018-07-05T06:16:58Z</time>
      </trkpt>
      <trkpt lat="48.78195502795279" lon="-1.530652027577162">
        <ele>19.84</ele>
        <time>2018-07-05T06:16:59Z</time>
      </trkpt>
      <trkpt lat="48.781936001032591" lon="-1.530667031183839">
        <ele>20.32</ele>
        <time>2018-07-05T06:17:00Z</time>
      </trkpt>
      <trkpt lat="48.78191496245563" lon="-1.530683040618897">
        <ele>20.32</ele>
        <time>2018-07-05T06:17:01Z</time>
      </trkpt>
      <trkpt lat="48.781883027404547" lon="-1.530634006485343">
        <ele>20.809999999999999</ele>
        <time>2018-07-05T06:17:02Z</time>
      </trkpt>
      <trkpt lat="48.781839022412896" lon="-1.530567035079002">
        <ele>20.809999999999999</ele>
        <time>2018-07-05T06:17:03Z</time>
      </trkpt>
      <trkpt lat="48.781788982450962" lon="-1.530491011217237">
        <ele>21.289999999999999</ele>
        <time>2018-07-05T06:17:04Z</time>
      </trkpt>
      <trkpt lat="48.781535010784864" lon="-1.530103012919426">
        <ele>22.73</ele>
        <time>2018-07-05T06:17:08Z</time>
      </trkpt>
      <trkpt lat="48.781493017449975" lon="-1.529991030693054">
        <ele>22.73</ele>
        <time>2018-07-05T06:17:09Z</time>
      </trkpt>
      <trkpt lat="48.781464016065001" lon="-1.52985499240458">
        <ele>23.210000000000001</ele>
        <time>2018-07-05T06:17:10Z</time>
      </trkpt>
      <trkpt lat="48.781436020508409" lon="-1.529722977429628">
        <ele>23.690000000000001</ele>
        <time>2018-07-05T06:17:11Z</time>
      </trkpt>
      <trkpt lat="48.781409030780196" lon="-1.529593979939818">
        <ele>24.170000000000002</ele>
        <time>2018-07-05T06:17:12Z</time>
      </trkpt>
      <trkpt lat="48.781382041051984" lon="-1.529469005763531">
        <ele>24.649999999999999</ele>
        <time>2018-07-05T06:17:13Z</time>
      </trkpt>
      <trkpt lat="48.781356979161501" lon="-1.529353000223637">
        <ele>24.649999999999999</ele>
        <time>2018-07-05T06:17:14Z</time>
      </trkpt>
      <trkpt lat="48.78131297416985" lon="-1.529256021603942">
        <ele>24.649999999999999</ele>
        <time>2018-07-05T06:17:15Z</time>
      </trkpt>
      <trkpt lat="48.78126603551209" lon="-1.529149990528822">
        <ele>24.649999999999999</ele>
        <time>2018-07-05T06:17:16Z</time>
      </trkpt>
      <trkpt lat="48.781217001378536" lon="-1.529042031615973">
        <ele>24.649999999999999</ele>
        <time>2018-07-05T06:17:17Z</time>
      </trkpt>
      <trkpt lat="48.781168973073363" lon="-1.528934994712472">
        <ele>25.129999999999999</ele>
        <time>2018-07-05T06:17:18Z</time>
      </trkpt>
      <trkpt lat="48.781121028587222" lon="-1.528828041628003">
        <ele>25.129999999999999</ele>
        <time>2018-07-05T06:17:19Z</time>
      </trkpt>
      <trkpt lat="48.781071994453669" lon="-1.528719998896122">
        <ele>25.609999999999999</ele>
        <time>2018-07-05T06:17:20Z</time>
      </trkpt>
      <trkpt lat="48.781060008332133" lon="-1.528585972264409">
        <ele>26.09</ele>
        <time>2018-07-05T06:17:21Z</time>
      </trkpt>
      <trkpt lat="48.781065037474036" lon="-1.528452029451728">
        <ele>27.050000000000001</ele>
        <time>2018-07-05T06:17:22Z</time>
      </trkpt>
      <trkpt lat="48.781068976968527" lon="-1.528312973678112">
        <ele>28.02</ele>
        <time>2018-07-05T06:17:23Z</time>
      </trkpt>
      <trkpt lat="48.781076017767191" lon="-1.52800896205008">
        <ele>29.460000000000001</ele>
        <time>2018-07-05T06:17:25Z</time>
      </trkpt>
      <trkpt lat="48.781064031645656" lon="-1.527844006195664">
        <ele>29.940000000000001</ele>
        <time>2018-07-05T06:17:26Z</time>
      </trkpt>
      <trkpt lat="48.781048022210598" lon="-1.527680978178978">
        <ele>29.940000000000001</ele>
        <time>2018-07-05T06:17:27Z</time>
      </trkpt>
      <trkpt lat="48.781022960320115" lon="-1.527510993182659">
        <ele>30.420000000000002</ele>
        <time>2018-07-05T06:17:28Z</time>
      </trkpt>
      <trkpt lat="48.780996976420283" lon="-1.527333967387676">
        <ele>30.420000000000002</ele>
        <time>2018-07-05T06:17:29Z</time>
      </trkpt>
      <trkpt lat="48.780969986692071" lon="-1.527154007926583">
        <ele>30.420000000000002</ele>
        <time>2018-07-05T06:17:30Z</time>
      </trkpt>
      <trkpt lat="48.780952971428633" lon="-1.526964996010065">
        <ele>30.420000000000002</ele>
        <time>2018-07-05T06:17:31Z</time>
      </trkpt>
      <trkpt lat="48.78096797503531" lon="-1.526775984093547">
        <ele>30.420000000000002</ele>
        <time>2018-07-05T06:17:32Z</time>
      </trkpt>
      <trkpt lat="48.781292019411922" lon="-1.524832975119352">
        <ele>28.02</ele>
        <time>2018-07-05T06:17:41Z</time>
      </trkpt>
      <trkpt lat="48.781399978324771" lon="-1.523994030430913">
        <ele>27.050000000000001</ele>
        <time>2018-07-05T06:17:45Z</time>
      </trkpt>
      <trkpt lat="48.781393021345139" lon="-1.523800995200872">
        <ele>27.050000000000001</ele>
        <time>2018-07-05T06:17:46Z</time>
      </trkpt>
      <trkpt lat="48.78135597333312" lon="-1.523618018254638">
        <ele>27.050000000000001</ele>
        <time>2018-07-05T06:17:47Z</time>
      </trkpt>
      <trkpt lat="48.781281961128116" lon="-1.523247035220265">
        <ele>27.050000000000001</ele>
        <time>2018-07-05T06:17:49Z</time>
      </trkpt>
      <trkpt lat="48.781262012198567" lon="-1.523053999990225">
        <ele>27.050000000000001</ele>
        <time>2018-07-05T06:17:50Z</time>
      </trkpt>
      <trkpt lat="48.781174002215266" lon="-1.521835019811988">
        <ele>27.050000000000001</ele>
        <time>2018-07-05T06:17:56Z</time>
      </trkpt>
      <trkpt lat="48.781149024143815" lon="-1.521658999845386">
        <ele>27.050000000000001</ele>
        <time>2018-07-05T06:17:57Z</time>
      </trkpt>
      <trkpt lat="48.781081968918443" lon="-1.52151701040566">
        <ele>27.050000000000001</ele>
        <time>2018-07-05T06:17:58Z</time>
      </trkpt>
      <trkpt lat="48.781022960320115" lon="-1.521391030400991">
        <ele>26.57</ele>
        <time>2018-07-05T06:17:59Z</time>
      </trkpt>
      <trkpt lat="48.780977027490735" lon="-1.521294973790646">
        <ele>26.57</ele>
        <time>2018-07-05T06:18:00Z</time>
      </trkpt>
      <trkpt lat="48.780877031385899" lon="-1.521080983802676">
        <ele>27.050000000000001</ele>
        <time>2018-07-05T06:18:06Z</time>
      </trkpt>
      <trkpt lat="48.780867978930473" lon="-1.521063968539238">
        <ele>27.050000000000001</ele>
        <time>2018-07-05T06:18:07Z</time>
      </trkpt>
      <trkpt lat="48.78086001612246" lon="-1.521046031266451">
        <ele>27.050000000000001</ele>
        <time>2018-07-05T06:18:08Z</time>
      </trkpt>
      <trkpt lat="48.780821040272713" lon="-1.520962966606021">
        <ele>27.050000000000001</ele>
        <time>2018-07-05T06:18:09Z</time>
      </trkpt>
      <trkpt lat="48.780694976449013" lon="-1.520261988043785">
        <ele>25.129999999999999</ele>
        <time>2018-07-05T06:18:16Z</time>
      </trkpt>
      <trkpt lat="48.780669998377562" lon="-1.520125027745962">
        <ele>25.129999999999999</ele>
        <time>2018-07-05T06:18:17Z</time>
      </trkpt>
      <trkpt lat="48.78064502030611" lon="-1.519984966143966">
        <ele>24.649999999999999</ele>
        <time>2018-07-05T06:18:18Z</time>
      </trkpt>
      <trkpt lat="48.780617024749517" lon="-1.519862003624439">
        <ele>24.170000000000002</ele>
        <time>2018-07-05T06:18:19Z</time>
      </trkpt>
      <trkpt lat="48.780563967302442" lon="-1.519725965335965">
        <ele>24.170000000000002</ele>
        <time>2018-07-05T06:18:20Z</time>
      </trkpt>
      <trkpt lat="48.780511999502778" lon="-1.519592022523284">
        <ele>23.690000000000001</ele>
        <time>2018-07-05T06:18:21Z</time>
      </trkpt>
      <trkpt lat="48.780461959540844" lon="-1.519463025033474">
        <ele>23.210000000000001</ele>
        <time>2018-07-05T06:18:22Z</time>
      </trkpt>
      <trkpt lat="48.780311001464725" lon="-1.519042002037168">
        <ele>22.73</ele>
        <time>2018-07-05T06:18:25Z</time>
      </trkpt>
      <trkpt lat="48.780275965109468" lon="-1.518884003162384">
        <ele>22.73</ele>
        <time>2018-07-05T06:18:26Z</time>
      </trkpt>
      <trkpt lat="48.780240006744862" lon="-1.518723992630839">
        <ele>23.210000000000001</ele>
        <time>2018-07-05T06:18:27Z</time>
      </trkpt>
      <trkpt lat="48.780148979276419" lon="-1.517711039632559">
        <ele>23.690000000000001</ele>
        <time>2018-07-05T06:18:33Z</time>
      </trkpt>
      <trkpt lat="48.780159959569573" lon="-1.517558991909027">
        <ele>23.690000000000001</ele>
        <time>2018-07-05T06:18:34Z</time>
      </trkpt>
      <trkpt lat="48.780205976217985" lon="-1.517421025782824">
        <ele>23.690000000000001</ele>
        <time>2018-07-05T06:18:35Z</time>
      </trkpt>
      <trkpt lat="48.780278982594609" lon="-1.517314994707704">
        <ele>23.210000000000001</ele>
        <time>2018-07-05T06:18:36Z</time>
      </trkpt>
      <trkpt lat="48.780363975092769" lon="-1.517221033573151">
        <ele>23.210000000000001</ele>
        <time>2018-07-05T06:18:37Z</time>
      </trkpt>
      <trkpt lat="48.780450979247689" lon="-1.51713696308434">
        <ele>23.210000000000001</ele>
        <time>2018-07-05T06:18:38Z</time>
      </trkpt>
      <trkpt lat="48.780550975352526" lon="-1.517094969749451">
        <ele>23.690000000000001</ele>
        <time>2018-07-05T06:18:39Z</time>
      </trkpt>
      <trkpt lat="48.780648959800601" lon="-1.517052976414561">
        <ele>24.170000000000002</ele>
        <time>2018-07-05T06:18:40Z</time>
      </trkpt>
      <trkpt lat="48.780904021114111" lon="-1.516892965883017">
        <ele>25.129999999999999</ele>
        <time>2018-07-05T06:18:43Z</time>
      </trkpt>
      <trkpt lat="48.780965963378549" lon="-1.51681300252676">
        <ele>25.129999999999999</ele>
        <time>2018-07-05T06:18:44Z</time>
      </trkpt>
      <trkpt lat="48.781006028875709" lon="-1.516719963401556">
        <ele>25.129999999999999</ele>
        <time>2018-07-05T06:18:45Z</time>
      </trkpt>
      <trkpt lat="48.781034024432302" lon="-1.516600018367171">
        <ele>25.609999999999999</ele>
        <time>2018-07-05T06:18:46Z</time>
      </trkpt>
      <trkpt lat="48.781061014160514" lon="-1.516484012827277">
        <ele>25.609999999999999</ele>
        <time>2018-07-05T06:18:47Z</time>
      </trkpt>
      <trkpt lat="48.781086998060346" lon="-1.516373036429286">
        <ele>26.09</ele>
        <time>2018-07-05T06:18:48Z</time>
      </trkpt>
      <trkpt lat="48.78135496750474" lon="-1.51511600241065">
        <ele>32.340000000000003</ele>
        <time>2018-07-05T06:18:58Z</time>
      </trkpt>
      <trkpt lat="48.781410958617926" lon="-1.514996979385614">
        <ele>32.82</ele>
        <time>2018-07-05T06:18:59Z</time>
      </trkpt>
      <trkpt lat="48.781471978873014" lon="-1.514875022694469">
        <ele>33.780000000000001</ele>
        <time>2018-07-05T06:19:00Z</time>
      </trkpt>
      <trkpt lat="48.781536016613245" lon="-1.514752982184291">
        <ele>34.740000000000002</ele>
        <time>2018-07-05T06:19:01Z</time>
      </trkpt>
      <trkpt lat="48.781620003283024" lon="-1.514654997736216">
        <ele>36.189999999999998</ele>
        <time>2018-07-05T06:19:02Z</time>
      </trkpt>
      <trkpt lat="48.782241018489003" lon="-1.513929041102529">
        <ele>41.469999999999999</ele>
        <time>2018-07-05T06:19:09Z</time>
      </trkpt>
      <trkpt lat="48.782326010987163" lon="-1.51382896117866">
        <ele>41.469999999999999</ele>
        <time>2018-07-05T06:19:10Z</time>
      </trkpt>
      <trkpt lat="48.782417038455606" lon="-1.513722008094192">
        <ele>41.950000000000003</ele>
        <time>2018-07-05T06:19:11Z</time>
      </trkpt>
      <trkpt lat="48.78288097679615" lon="-1.513258991762996">
        <ele>42.439999999999998</ele>
        <time>2018-07-05T06:19:16Z</time>
      </trkpt>
      <trkpt lat="48.782984996214509" lon="-1.513215992599726">
        <ele>42.439999999999998</ele>
        <time>2018-07-05T06:19:17Z</time>
      </trkpt>
      <trkpt lat="48.783079963177443" lon="-1.513176010921598">
        <ele>42.439999999999998</ele>
        <time>2018-07-05T06:19:18Z</time>
      </trkpt>
      <trkpt lat="48.783174008131027" lon="-1.51313703507185">
        <ele>42.439999999999998</ele>
        <time>2018-07-05T06:19:19Z</time>
      </trkpt>
      <trkpt lat="48.783274004235864" lon="-1.51309504173696">
        <ele>41.950000000000003</ele>
        <time>2018-07-05T06:19:20Z</time>
      </trkpt>
      <trkpt lat="48.783375006169081" lon="-1.513051958754659">
        <ele>41.950000000000003</ele>
        <time>2018-07-05T06:19:21Z</time>
      </trkpt>
      <trkpt lat="48.783475002273917" lon="-1.513009965419769">
        <ele>41.469999999999999</ele>
        <time>2018-07-05T06:19:22Z</time>
      </trkpt>
      <trkpt lat="48.783572986721992" lon="-1.512934025377035">
        <ele>40.990000000000002</ele>
        <time>2018-07-05T06:19:23Z</time>
      </trkpt>
      <trkpt lat="48.783639958128333" lon="-1.51281600818038">
        <ele>40.509999999999998</ele>
        <time>2018-07-05T06:19:24Z</time>
      </trkpt>
      <trkpt lat="48.78371799364686" lon="-1.512678964063525">
        <ele>40.509999999999998</ele>
        <time>2018-07-05T06:19:25Z</time>
      </trkpt>
      <trkpt lat="48.783732997253537" lon="-1.512532029300928">
        <ele>40.509999999999998</ele>
        <time>2018-07-05T06:19:26Z</time>
      </trkpt>
      <trkpt lat="48.783748000860214" lon="-1.512376964092255">
        <ele>40.990000000000002</ele>
        <time>2018-07-05T06:19:27Z</time>
      </trkpt>
      <trkpt lat="48.783764010295272" lon="-1.512216031551361">
        <ele>40.990000000000002</ele>
        <time>2018-07-05T06:19:28Z</time>
      </trkpt>
      <trkpt lat="48.78378102555871" lon="-1.512050991877914">
        <ele>41.469999999999999</ele>
        <time>2018-07-05T06:19:29Z</time>
      </trkpt>
      <trkpt lat="48.783840034157038" lon="-1.511527961120009">
        <ele>41.469999999999999</ele>
        <time>2018-07-05T06:19:32Z</time>
      </trkpt>
      <trkpt lat="48.784155026078224" lon="-1.509167030453682">
        <ele>37.149999999999999</ele>
        <time>2018-07-05T06:19:44Z</time>
      </trkpt>
      <trkpt lat="48.784599015489221" lon="-1.505943015217781">
        <ele>38.109999999999999</ele>
        <time>2018-07-05T06:19:59Z</time>
      </trkpt>
      <trkpt lat="48.784915013238788" lon="-1.503647966310382">
        <ele>39.07</ele>
        <time>2018-07-05T06:20:11Z</time>
      </trkpt>
      <trkpt lat="48.785016015172005" lon="-1.503047989681363">
        <ele>39.549999999999997</ele>
        <time>2018-07-05T06:20:18Z</time>
      </trkpt>
      <trkpt lat="48.785035964101553" lon="-1.502981018275023">
        <ele>40.030000000000001</ele>
        <time>2018-07-05T06:20:21Z</time>
      </trkpt>
      <trkpt lat="48.785041999071836" lon="-1.502959979698062">
        <ele>40.030000000000001</ele>
        <time>2018-07-05T06:20:22Z</time>
      </trkpt>
      <trkpt lat="48.785049961879849" lon="-1.502937013283372">
        <ele>40.030000000000001</ele>
        <time>2018-07-05T06:20:23Z</time>
      </trkpt>
      <trkpt lat="48.785059014335275" lon="-1.502553960308433">
        <ele>40.990000000000002</ele>
        <time>2018-07-05T06:20:27Z</time>
      </trkpt>
      <trkpt lat="48.785033030435443" lon="-1.502519007772207">
        <ele>40.990000000000002</ele>
        <time>2018-07-05T06:20:28Z</time>
      </trkpt>
      <trkpt lat="48.785004029050469" lon="-1.502477014437318">
        <ele>40.990000000000002</ele>
        <time>2018-07-05T06:20:29Z</time>
      </trkpt>
      <trkpt lat="48.784963963553309" lon="-1.502421023324132">
        <ele>40.990000000000002</ele>
        <time>2018-07-05T06:20:30Z</time>
      </trkpt>
      <trkpt lat="48.784914007410407" lon="-1.50235204026103">
        <ele>40.990000000000002</ele>
        <time>2018-07-05T06:20:31Z</time>
      </trkpt>
      <trkpt lat="48.784857010468841" lon="-1.502271993085742">
        <ele>40.990000000000002</ele>
        <time>2018-07-05T06:20:32Z</time>
      </trkpt>
      <trkpt lat="48.784246975556016" lon="-1.501402035355568">
        <ele>44.840000000000003</ele>
        <time>2018-07-05T06:20:39Z</time>
      </trkpt>
      <trkpt lat="48.78318197093904" lon="-1.499891029670835">
        <ele>53.490000000000002</ele>
        <time>2018-07-05T06:20:47Z</time>
      </trkpt>
      <trkpt lat="48.781624026596546" lon="-1.497681979089975">
        <ele>69.349999999999994</ele>
        <time>2018-07-05T06:20:57Z</time>
      </trkpt>
      <trkpt lat="48.779820995405316" lon="-1.49513597600162">
        <ele>86.180000000000007</ele>
        <time>2018-07-05T06:21:09Z</time>
      </trkpt>
      <trkpt lat="48.777945041656494" lon="-1.492496011778712">
        <ele>83.290000000000006</ele>
        <time>2018-07-05T06:21:22Z</time>
      </trkpt>
      <trkpt lat="48.775972025468946" lon="-1.489728977903724">
        <ele>67.909999999999997</ele>
        <time>2018-07-05T06:21:35Z</time>
      </trkpt>
      <trkpt lat="48.774472000077367" lon="-1.487607015296817">
        <ele>72.719999999999999</ele>
        <time>2018-07-05T06:21:46Z</time>
      </trkpt>
      <trkpt lat="48.772812969982624" lon="-1.485264021903276">
        <ele>85.209999999999994</ele>
        <time>2018-07-05T06:21:59Z</time>
      </trkpt>
      <trkpt lat="48.77097699791193" lon="-1.48267300799489">
        <ele>88.099999999999994</ele>
        <time>2018-07-05T06:22:13Z</time>
      </trkpt>
      <trkpt lat="48.768884958699346" lon="-1.479716040194035">
        <ele>90.5</ele>
        <time>2018-07-05T06:22:29Z</time>
      </trkpt>
      <trkpt lat="48.767262976616621" lon="-1.477432977408171">
        <ele>88.099999999999994</ele>
        <time>2018-07-05T06:22:41Z</time>
      </trkpt>
      <trkpt lat="48.764949990436435" lon="-1.474170992150903">
        <ele>95.790000000000006</ele>
        <time>2018-07-05T06:22:57Z</time>
      </trkpt>
      <trkpt lat="48.762778993695974" lon="-1.47113598883152">
        <ele>103.95999999999999</ele>
        <time>2018-07-05T06:23:12Z</time>
      </trkpt>
      <trkpt lat="48.76068402081728" lon="-1.468143984675407">
        <ele>110.69</ele>
        <time>2018-07-05T06:23:27Z</time>
      </trkpt>
      <trkpt lat="48.760079015046358" lon="-1.467287018895149">
        <ele>113.09</ele>
        <time>2018-07-05T06:23:34Z</time>
      </trkpt>
      <trkpt lat="48.760027969256043" lon="-1.46720596589148">
        <ele>113.09</ele>
        <time>2018-07-05T06:23:35Z</time>
      </trkpt>
      <trkpt lat="48.759813979268074" lon="-1.467233039438725">
        <ele>113.56999999999999</ele>
        <time>2018-07-05T06:23:36Z</time>
      </trkpt>
      <trkpt lat="48.759771985933185" lon="-1.467196997255087">
        <ele>114.05</ele>
        <time>2018-07-05T06:23:38Z</time>
      </trkpt>
      <trkpt lat="48.759711971506476" lon="-1.467146035283804">
        <ele>114.05</ele>
        <time>2018-07-05T06:23:39Z</time>
      </trkpt>
      <trkpt lat="48.759653968736529" lon="-1.467046961188316">
        <ele>114.53</ele>
        <time>2018-07-05T06:23:40Z</time>
      </trkpt>
      <trkpt lat="48.759641982614994" lon="-1.466974960640073">
        <ele>114.53</ele>
        <time>2018-07-05T06:23:41Z</time>
      </trkpt>
      <trkpt lat="48.759625973179936" lon="-1.466771028935909">
        <ele>115.01000000000001</ele>
        <time>2018-07-05T06:23:42Z</time>
      </trkpt>
      <trkpt lat="48.759560007601976" lon="-1.466675978153944">
        <ele>115.01000000000001</ele>
        <time>2018-07-05T06:23:43Z</time>
      </trkpt>
      <trkpt lat="48.758803959935904" lon="-1.465507037937641">
        <ele>116.45999999999999</ele>
        <time>2018-07-05T06:23:52Z</time>
      </trkpt>
      <trkpt lat="48.757738033309579" lon="-1.464037019759417">
        <ele>115.5</ele>
        <time>2018-07-05T06:24:01Z</time>
      </trkpt>
      <trkpt lat="48.756606979295611" lon="-1.462444039061666">
        <ele>111.17</ele>
        <time>2018-07-05T06:24:11Z</time>
      </trkpt>
      <trkpt lat="48.755483971908689" lon="-1.460847035050392">
        <ele>104.44</ele>
        <time>2018-07-05T06:24:21Z</time>
      </trkpt>
      <trkpt lat="48.754162983968854" lon="-1.458980971947312">
        <ele>107.31999999999999</ele>
        <time>2018-07-05T06:24:33Z</time>
      </trkpt>
      <trkpt lat="48.753707008436322" lon="-1.458340007811785">
        <ele>109.25</ele>
        <time>2018-07-05T06:24:38Z</time>
      </trkpt>
      <trkpt lat="48.752858005464077" lon="-1.457157991826534">
        <ele>110.20999999999999</ele>
        <time>2018-07-05T06:24:49Z</time>
      </trkpt>
      <trkpt lat="48.752160966396332" lon="-1.456166999414563">
        <ele>109.73</ele>
        <time>2018-07-05T06:24:59Z</time>
      </trkpt>
      <trkpt lat="48.751757964491844" lon="-1.455565011128783">
        <ele>106.36</ele>
        <time>2018-07-05T06:25:07Z</time>
      </trkpt>
      <trkpt lat="48.751465016975999" lon="-1.45517198368907">
        <ele>106.36</ele>
        <time>2018-07-05T06:25:11Z</time>
      </trkpt>
      <trkpt lat="48.75052297487855" lon="-1.453852001577616">
        <ele>104.44</ele>
        <time>2018-07-05T06:25:22Z</time>
      </trkpt>
      <trkpt lat="48.749444978311658" lon="-1.45233403891325">
        <ele>99.629999999999995</ele>
        <time>2018-07-05T06:25:34Z</time>
      </trkpt>
      <trkpt lat="48.748504025861621" lon="-1.451044986024499">
        <ele>96.269999999999996</ele>
        <time>2018-07-05T06:25:44Z</time>
      </trkpt>
      <trkpt lat="48.747359979897738" lon="-1.44920096732676">
        <ele>94.349999999999994</ele>
        <time>2018-07-05T06:25:56Z</time>
      </trkpt>
      <trkpt lat="48.747266018763185" lon="-1.449029976502061">
        <ele>94.349999999999994</ele>
        <time>2018-07-05T06:25:57Z</time>
      </trkpt>
      <trkpt lat="48.745921980589628" lon="-1.446630991995335">
        <ele>86.659999999999997</ele>
        <time>2018-07-05T06:26:10Z</time>
      </trkpt>
      <trkpt lat="48.744583977386355" lon="-1.444263020530343">
        <ele>77.519999999999996</ele>
        <time>2018-07-05T06:26:21Z</time>
      </trkpt>
      <trkpt lat="48.744163038209081" lon="-1.443091984838247">
        <ele>70.310000000000002</ele>
        <time>2018-07-05T06:26:28Z</time>
      </trkpt>
      <trkpt lat="48.744128001853824" lon="-1.442986037582159">
        <ele>70.310000000000002</ele>
        <time>2018-07-05T06:26:29Z</time>
      </trkpt>
      <trkpt lat="48.743847962468863" lon="-1.442477004602552">
        <ele>68.870000000000005</ele>
        <time>2018-07-05T06:26:33Z</time>
      </trkpt>
      <trkpt lat="48.743750983849168" lon="-1.442395029589534">
        <ele>68.390000000000001</ele>
        <time>2018-07-05T06:26:34Z</time>
      </trkpt>
      <trkpt lat="48.74298102222383" lon="-1.441461034119129">
        <ele>64.069999999999993</ele>
        <time>2018-07-05T06:26:41Z</time>
      </trkpt>
      <trkpt lat="48.741743015125394" lon="-1.439839974045754">
        <ele>58.299999999999997</ele>
        <time>2018-07-05T06:26:50Z</time>
      </trkpt>
      <trkpt lat="48.740872973576188" lon="-1.4381970372051">
        <ele>64.549999999999997</ele>
        <time>2018-07-05T06:26:58Z</time>
      </trkpt>
      <trkpt lat="48.740041991695762" lon="-1.436368022114039">
        <ele>78.480000000000004</ele>
        <time>2018-07-05T06:27:07Z</time>
      </trkpt>
      <trkpt lat="48.739433968439698" lon="-1.435378035530448">
        <ele>86.180000000000007</ele>
        <time>2018-07-05T06:27:12Z</time>
      </trkpt>
      <trkpt lat="48.737902007997036" lon="-1.433740966022015">
        <ele>97.230000000000004</ele>
        <time>2018-07-05T06:27:22Z</time>
      </trkpt>
      <trkpt lat="48.73593402095139" lon="-1.432368010282517">
        <ele>97.230000000000004</ele>
        <time>2018-07-05T06:27:33Z</time>
      </trkpt>
      <trkpt lat="48.734222017228603" lon="-1.430835966020823">
        <ele>84.730000000000004</ele>
        <time>2018-07-05T06:27:42Z</time>
      </trkpt>
      <trkpt lat="48.732788041234016" lon="-1.428886000066996">
        <ele>68.870000000000005</ele>
        <time>2018-07-05T06:27:51Z</time>
      </trkpt>
      <trkpt lat="48.73139999806881" lon="-1.426959000527859">
        <ele>66.469999999999999</ele>
        <time>2018-07-05T06:28:01Z</time>
      </trkpt>
      <trkpt lat="48.730616960674524" lon="-1.425819983705878">
        <ele>72.719999999999999</ele>
        <time>2018-07-05T06:28:09Z</time>
      </trkpt>
      <trkpt lat="48.72998395934701" lon="-1.424938039854169">
        <ele>78</ele>
        <time>2018-07-05T06:28:19Z</time>
      </trkpt>
      <trkpt lat="48.729838030412793" lon="-1.424939967691898">
        <ele>78</ele>
        <time>2018-07-05T06:28:20Z</time>
      </trkpt>
      <trkpt lat="48.729768041521311" lon="-1.424883976578713">
        <ele>78</ele>
        <time>2018-07-05T06:28:22Z</time>
      </trkpt>
      <trkpt lat="48.729715989902616" lon="-1.42477098852396">
        <ele>78</ele>
        <time>2018-07-05T06:28:23Z</time>
      </trkpt>
      <trkpt lat="48.729709032922983" lon="-1.424724971875548">
        <ele>78.480000000000004</ele>
        <time>2018-07-05T06:28:24Z</time>
      </trkpt>
      <trkpt lat="48.729706015437841" lon="-1.424491032958031">
        <ele>78.969999999999999</ele>
        <time>2018-07-05T06:28:26Z</time>
      </trkpt>
      <trkpt lat="48.729568971320987" lon="-1.424306966364384">
        <ele>79.450000000000003</ele>
        <time>2018-07-05T06:28:27Z</time>
      </trkpt>
      <trkpt lat="48.728600023314357" lon="-1.422979021444917">
        <ele>81.849999999999994</ele>
        <time>2018-07-05T06:28:37Z</time>
      </trkpt>
      <trkpt lat="48.727200999855995" lon="-1.420981027185917">
        <ele>78</ele>
        <time>2018-07-05T06:28:48Z</time>
      </trkpt>
      <trkpt lat="48.725334014743567" lon="-1.418308960273862">
        <ele>71.269999999999996</ele>
        <time>2018-07-05T06:29:01Z</time>
      </trkpt>
      <trkpt lat="48.723483039066195" lon="-1.41570596024394">
        <ele>60.219999999999999</ele>
        <time>2018-07-05T06:29:14Z</time>
      </trkpt>
      <trkpt lat="48.721826020628214" lon="-1.413401020690799">
        <ele>53.009999999999998</ele>
        <time>2018-07-05T06:29:26Z</time>
      </trkpt>
      <trkpt lat="48.719642031937838" lon="-1.41030902042985">
        <ele>43.399999999999999</ele>
        <time>2018-07-05T06:29:42Z</time>
      </trkpt>
      <trkpt lat="48.717440022155643" lon="-1.407209979370236">
        <ele>43.399999999999999</ele>
        <time>2018-07-05T06:29:58Z</time>
      </trkpt>
      <trkpt lat="48.715232983231544" lon="-1.404087971895933">
        <ele>32.82</ele>
        <time>2018-07-05T06:30:14Z</time>
      </trkpt>
      <trkpt lat="48.712755041196942" lon="-1.400605039671063">
        <ele>22.25</ele>
        <time>2018-07-05T06:30:32Z</time>
      </trkpt>
      <trkpt lat="48.710848996415734" lon="-1.397928027436137">
        <ele>23.690000000000001</ele>
        <time>2018-07-05T06:30:46Z</time>
      </trkpt>
      <trkpt lat="48.7095280084759" lon="-1.396080991253257">
        <ele>28.02</ele>
        <time>2018-07-05T06:30:57Z</time>
      </trkpt>
      <trkpt lat="48.7085419613868" lon="-1.394693031907082">
        <ele>35.229999999999997</ele>
        <time>2018-07-05T06:31:06Z</time>
      </trkpt>
      <trkpt lat="48.707964029163122" lon="-1.393890967592597">
        <ele>39.07</ele>
        <time>2018-07-05T06:31:15Z</time>
      </trkpt>
      <trkpt lat="48.707916000857949" lon="-1.393822990357876">
        <ele>39.549999999999997</ele>
        <time>2018-07-05T06:31:16Z</time>
      </trkpt>
      <trkpt lat="48.707866966724396" lon="-1.393754007294774">
        <ele>39.549999999999997</ele>
        <time>2018-07-05T06:31:17Z</time>
      </trkpt>
      <trkpt lat="48.707816004753113" lon="-1.39368100091815">
        <ele>40.030000000000001</ele>
        <time>2018-07-05T06:31:18Z</time>
      </trkpt>
      <trkpt lat="48.707760013639927" lon="-1.393601959571242">
        <ele>40.509999999999998</ele>
        <time>2018-07-05T06:31:19Z</time>
      </trkpt>
      <trkpt lat="48.707699999213219" lon="-1.393516967073083">
        <ele>40.990000000000002</ele>
        <time>2018-07-05T06:31:20Z</time>
      </trkpt>
      <trkpt lat="48.707637973129749" lon="-1.393429040908814">
        <ele>40.990000000000002</ele>
        <time>2018-07-05T06:31:21Z</time>
      </trkpt>
      <trkpt lat="48.70757301338017" lon="-1.39333700761199">
        <ele>40.990000000000002</ele>
        <time>2018-07-05T06:31:22Z</time>
      </trkpt>
      <trkpt lat="48.707502018660307" lon="-1.393234999850392">
        <ele>40.990000000000002</ele>
        <time>2018-07-05T06:31:23Z</time>
      </trkpt>
      <trkpt lat="48.707421971485019" lon="-1.39312201179564">
        <ele>40.990000000000002</ele>
        <time>2018-07-05T06:31:24Z</time>
      </trkpt>
      <trkpt lat="48.707328010350466" lon="-1.392988990992308">
        <ele>40.990000000000002</ele>
        <time>2018-07-05T06:31:25Z</time>
      </trkpt>
      <trkpt lat="48.706504991278052" lon="-1.391816027462483">
        <ele>40.990000000000002</ele>
        <time>2018-07-05T06:31:32Z</time>
      </trkpt>
      <trkpt lat="48.705221973359585" lon="-1.390024982392788">
        <ele>35.710000000000001</ele>
        <time>2018-07-05T06:31:43Z</time>
      </trkpt>
      <trkpt lat="48.7036859896034" lon="-1.387873012572527">
        <ele>24.649999999999999</ele>
        <time>2018-07-05T06:31:58Z</time>
      </trkpt>
      <trkpt lat="48.702349998056889" lon="-1.385983983054757">
        <ele>18.399999999999999</ele>
        <time>2018-07-05T06:32:10Z</time>
      </trkpt>
      <trkpt lat="48.701160019263625" lon="-1.384326964616776">
        <ele>14.56</ele>
        <time>2018-07-05T06:32:22Z</time>
      </trkpt>
      <trkpt lat="48.699428988620639" lon="-1.381911970674992">
        <ele>20.809999999999999</ele>
        <time>2018-07-05T06:32:38Z</time>
      </trkpt>
      <trkpt lat="48.698896989226341" lon="-1.381149971857667">
        <ele>23.690000000000001</ele>
        <time>2018-07-05T06:32:45Z</time>
      </trkpt>
      <trkpt lat="48.698316039517522" lon="-1.380328964442015">
        <ele>25.129999999999999</ele>
        <time>2018-07-05T06:32:55Z</time>
      </trkpt>
      <trkpt lat="48.697557980194688" lon="-1.379258008673787">
        <ele>25.129999999999999</ele>
        <time>2018-07-05T06:33:06Z</time>
      </trkpt>
      <trkpt lat="48.69687401689589" lon="-1.378323007375002">
        <ele>22.25</ele>
        <time>2018-07-05T06:33:16Z</time>
      </trkpt>
      <trkpt lat="48.696097014471889" lon="-1.377226989716291">
        <ele>19.84</ele>
        <time>2018-07-05T06:33:26Z</time>
      </trkpt>
      <trkpt lat="48.695480022579432" lon="-1.376355020329356">
        <ele>20.809999999999999</ele>
        <time>2018-07-05T06:33:35Z</time>
      </trkpt>
      <trkpt lat="48.695357982069254" lon="-1.37619199231267">
        <ele>20.809999999999999</ele>
        <time>2018-07-05T06:33:38Z</time>
      </trkpt>
      <trkpt lat="48.69507098570466" lon="-1.375794019550085">
        <ele>18.399999999999999</ele>
        <time>2018-07-05T06:33:47Z</time>
      </trkpt>
      <trkpt lat="48.695038966834545" lon="-1.375750014558435">
        <ele>18.399999999999999</ele>
        <time>2018-07-05T06:33:48Z</time>
      </trkpt>
      <trkpt lat="48.695014994591475" lon="-1.375716989859939">
        <ele>17.920000000000002</ele>
        <time>2018-07-05T06:33:49Z</time>
      </trkpt>
      <trkpt lat="48.694997979328036" lon="-1.375694023445249">
        <ele>17.920000000000002</ele>
        <time>2018-07-05T06:33:50Z</time>
      </trkpt>
      <trkpt lat="48.694997979328036" lon="-1.375694023445249">
        <ele>17.440000000000001</ele>
        <time>2018-07-05T06:33:59Z</time>
      </trkpt>
      <trkpt lat="48.694820031523705" lon="-1.375454971566796">
        <ele>16</ele>
        <time>2018-07-05T06:34:08Z</time>
      </trkpt>
      <trkpt lat="48.694539992138743" lon="-1.375058004632592">
        <ele>15.52</ele>
        <time>2018-07-05T06:34:18Z</time>
      </trkpt>
      <trkpt lat="48.694508979097009" lon="-1.375013999640942">
        <ele>15.52</ele>
        <time>2018-07-05T06:34:19Z</time>
      </trkpt>
      <trkpt lat="48.694285014644265" lon="-1.374680986627936">
        <ele>15.039999999999999</ele>
        <time>2018-07-05T06:34:26Z</time>
      </trkpt>
      <trkpt lat="48.69393004104495" lon="-1.374195003882051">
        <ele>13.6</ele>
        <time>2018-07-05T06:34:35Z</time>
      </trkpt>
      <trkpt lat="48.693819986656308" lon="-1.374061983078718">
        <ele>13.6</ele>
        <time>2018-07-05T06:34:40Z</time>
      </trkpt>
      <trkpt lat="48.693798026069999" lon="-1.374037005007267">
        <ele>13.119999999999999</ele>
        <time>2018-07-05T06:34:41Z</time>
      </trkpt>
      <trkpt lat="48.693773970007896" lon="-1.374006997793913">
        <ele>13.119999999999999</ele>
        <time>2018-07-05T06:34:42Z</time>
      </trkpt>
      <trkpt lat="48.693767013028264" lon="-1.3739990349859">
        <ele>13.119999999999999</ele>
        <time>2018-07-05T06:34:43Z</time>
      </trkpt>
      <trkpt lat="48.693659976124763" lon="-1.373848998919129">
        <ele>12.630000000000001</ele>
        <time>2018-07-05T06:34:44Z</time>
      </trkpt>
      <trkpt lat="48.693548999726772" lon="-1.373687982559204">
        <ele>12.15</ele>
        <time>2018-07-05T06:34:47Z</time>
      </trkpt>
      <trkpt lat="48.693499965593219" lon="-1.37361497618258">
        <ele>12.15</ele>
        <time>2018-07-05T06:34:48Z</time>
      </trkpt>
      <trkpt lat="48.693048013374209" lon="-1.372982980683446">
        <ele>12.15</ele>
        <time>2018-07-05T06:34:56Z</time>
      </trkpt>
      <trkpt lat="48.692765040323138" lon="-1.37249599210918">
        <ele>12.15</ele>
        <time>2018-07-05T06:35:01Z</time>
      </trkpt>
      <trkpt lat="48.692732015624642" lon="-1.37241099961102">
        <ele>12.15</ele>
        <time>2018-07-05T06:35:02Z</time>
      </trkpt>
      <trkpt lat="48.692725980654359" lon="-1.372317038476467">
        <ele>11.67</ele>
        <time>2018-07-05T06:35:03Z</time>
      </trkpt>
      <trkpt lat="48.692747019231319" lon="-1.372210001572967">
        <ele>11.67</ele>
        <time>2018-07-05T06:35:04Z</time>
      </trkpt>
      <trkpt lat="48.692777026444674" lon="-1.372082009911537">
        <ele>11.67</ele>
        <time>2018-07-05T06:35:05Z</time>
      </trkpt>
      <trkpt lat="48.692814996466041" lon="-1.371927028521895">
        <ele>12.15</ele>
        <time>2018-07-05T06:35:06Z</time>
      </trkpt>
      <trkpt lat="48.692886997014284" lon="-1.371555039659143">
        <ele>12.630000000000001</ele>
        <time>2018-07-05T06:35:08Z</time>
      </trkpt>
      <trkpt lat="48.692923039197922" lon="-1.370882978662849">
        <ele>14.08</ele>
        <time>2018-07-05T06:35:11Z</time>
      </trkpt>
      <trkpt lat="48.692929996177554" lon="-1.370630012825131">
        <ele>15.039999999999999</ele>
        <time>2018-07-05T06:35:12Z</time>
      </trkpt>
      <trkpt lat="48.692896971479058" lon="-1.370376963168383">
        <ele>15.52</ele>
        <time>2018-07-05T06:35:13Z</time>
      </trkpt>
      <trkpt lat="48.692644005641341" lon="-1.368733020499349">
        <ele>17.440000000000001</ele>
        <time>2018-07-05T06:35:20Z</time>
      </trkpt>
      <trkpt lat="48.692292971536517" lon="-1.367624010890722">
        <ele>14.56</ele>
        <time>2018-07-05T06:35:27Z</time>
      </trkpt>
      <trkpt lat="48.692248966544867" lon="-1.367540024220944">
        <ele>14.08</ele>
        <time>2018-07-05T06:35:28Z</time>
      </trkpt>
      <trkpt lat="48.692217031493783" lon="-1.367476992309094">
        <ele>13.6</ele>
        <time>2018-07-05T06:35:29Z</time>
      </trkpt>
      <trkpt lat="48.692116029560566" lon="-1.367279011756182">
        <ele>11.67</ele>
        <time>2018-07-05T06:35:33Z</time>
      </trkpt>
      <trkpt lat="48.692097002640367" lon="-1.367241963744164">
        <ele>11.67</ele>
        <time>2018-07-05T06:35:34Z</time>
      </trkpt>
      <trkpt lat="48.691871026530862" lon="-1.366999978199601">
        <ele>10.23</ele>
        <time>2018-07-05T06:35:43Z</time>
      </trkpt>
      <trkpt lat="48.691822998225689" lon="-1.366976005956531">
        <ele>10.23</ele>
        <time>2018-07-05T06:35:44Z</time>
      </trkpt>
      <trkpt lat="48.691747980192304" lon="-1.366939963772893">
        <ele>10.23</ele>
        <time>2018-07-05T06:35:45Z</time>
      </trkpt>
      <trkpt lat="48.691673967987299" lon="-1.366965025663376">
        <ele>10.23</ele>
        <time>2018-07-05T06:35:46Z</time>
      </trkpt>
      <trkpt lat="48.691597022116184" lon="-1.366991009563208">
        <ele>11.19</ele>
        <time>2018-07-05T06:35:47Z</time>
      </trkpt>
      <trkpt lat="48.691526027396321" lon="-1.36699503287673">
        <ele>11.67</ele>
        <time>2018-07-05T06:35:48Z</time>
      </trkpt>
      <trkpt lat="48.691442040726542" lon="-1.366969970986247">
        <ele>11.67</ele>
        <time>2018-07-05T06:35:49Z</time>
      </trkpt>
      <trkpt lat="48.691341960802674" lon="-1.366939963772893">
        <ele>12.15</ele>
        <time>2018-07-05T06:35:50Z</time>
      </trkpt>
      <trkpt lat="48.691289993003011" lon="-1.366850025951862">
        <ele>12.630000000000001</ele>
        <time>2018-07-05T06:35:51Z</time>
      </trkpt>
      <trkpt lat="48.691226961091161" lon="-1.366741983219981">
        <ele>12.630000000000001</ele>
        <time>2018-07-05T06:35:52Z</time>
      </trkpt>
      <trkpt lat="48.691192008554935" lon="-1.366681968793273">
        <ele>12.630000000000001</ele>
        <time>2018-07-05T06:35:53Z</time>
      </trkpt>
      <trkpt lat="48.691108021885157" lon="-1.366513995453715">
        <ele>12.630000000000001</ele>
        <time>2018-07-05T06:35:54Z</time>
      </trkpt>
      <trkpt lat="48.691027974709868" lon="-1.366444006562233">
        <ele>12.630000000000001</ele>
        <time>2018-07-05T06:35:55Z</time>
      </trkpt>
      <trkpt lat="48.690955974161625" lon="-1.366381980478764">
        <ele>12.630000000000001</ele>
        <time>2018-07-05T06:35:56Z</time>
      </trkpt>
      <trkpt lat="48.690955974161625" lon="-1.366381980478764">
        <ele>12.15</ele>
        <time>2018-07-05T06:35:57Z</time>
      </trkpt>
      <trkpt lat="48.690778026357293" lon="-1.366364965215325">
        <ele>12.15</ele>
        <time>2018-07-05T06:35:58Z</time>
      </trkpt>
      <trkpt lat="48.690684987232089" lon="-1.366355996578932">
        <ele>12.15</ele>
        <time>2018-07-05T06:35:59Z</time>
      </trkpt>
      <trkpt lat="48.690498992800713" lon="-1.366343004629016">
        <ele>11.19</ele>
        <time>2018-07-05T06:36:01Z</time>
      </trkpt>
      <trkpt lat="48.690420035272837" lon="-1.366392038762569">
        <ele>11.19</ele>
        <time>2018-07-05T06:36:02Z</time>
      </trkpt>
      <trkpt lat="48.690334036946297" lon="-1.366446018218994">
        <ele>10.710000000000001</ele>
        <time>2018-07-05T06:36:03Z</time>
      </trkpt>
      <trkpt lat="48.690286008641124" lon="-1.366550037637353">
        <ele>10.23</ele>
        <time>2018-07-05T06:36:04Z</time>
      </trkpt>
      <trkpt lat="48.690231023356318" lon="-1.366669982671738">
        <ele>10.23</ele>
        <time>2018-07-05T06:36:05Z</time>
      </trkpt>
      <trkpt lat="48.69017100892961" lon="-1.366799985989928">
        <ele>10.710000000000001</ele>
        <time>2018-07-05T06:36:06Z</time>
      </trkpt>
      <trkpt lat="48.690103031694889" lon="-1.366945998743177">
        <ele>10.710000000000001</ele>
        <time>2018-07-05T06:36:07Z</time>
      </trkpt>
      <trkpt lat="48.689649989828467" lon="-1.368763027712703">
        <ele>11.19</ele>
        <time>2018-07-05T06:36:15Z</time>
      </trkpt>
      <trkpt lat="48.688806015998125" lon="-1.371566019952297">
        <ele>15.52</ele>
        <time>2018-07-05T06:36:26Z</time>
      </trkpt>
      <trkpt lat="48.687746040523052" lon="-1.373327979817987">
        <ele>16</ele>
        <time>2018-07-05T06:36:34Z</time>
      </trkpt>
      <trkpt lat="48.687585024163127" lon="-1.373517997562885">
        <ele>16.48</ele>
        <time>2018-07-05T06:36:35Z</time>
      </trkpt>
      <trkpt lat="48.687242036685348" lon="-1.373808011412621">
        <ele>17.440000000000001</ele>
        <time>2018-07-05T06:36:37Z</time>
      </trkpt>
      <trkpt lat="48.687061993405223" lon="-1.373945977538824">
        <ele>17.920000000000002</ele>
        <time>2018-07-05T06:36:38Z</time>
      </trkpt>
      <trkpt lat="48.685512011870742" lon="-1.374619966372848">
        <ele>24.649999999999999</ele>
        <time>2018-07-05T06:36:46Z</time>
      </trkpt>
      <trkpt lat="48.684058003127575" lon="-1.374341016635299">
        <ele>27.050000000000001</ele>
        <time>2018-07-05T06:36:53Z</time>
      </trkpt>
      <trkpt lat="48.681681985035539" lon="-1.373271988704801">
        <ele>26.57</ele>
        <time>2018-07-05T06:37:04Z</time>
      </trkpt>
      <trkpt lat="48.679173029959202" lon="-1.372639993205667">
        <ele>29.940000000000001</ele>
        <time>2018-07-05T06:37:15Z</time>
      </trkpt>
      <trkpt lat="48.676043981686234" lon="-1.37213196605444">
        <ele>36.189999999999998</ele>
        <time>2018-07-05T06:37:29Z</time>
      </trkpt>
      <trkpt lat="48.673964012414217" lon="-1.372338999062777">
        <ele>37.630000000000003</ele>
        <time>2018-07-05T06:37:40Z</time>
      </trkpt>
      <trkpt lat="48.672373965382576" lon="-1.372967977076769">
        <ele>37.149999999999999</ele>
        <time>2018-07-05T06:37:50Z</time>
      </trkpt>
      <trkpt lat="48.671871973201632" lon="-1.373228989541531">
        <ele>36.670000000000002</ele>
        <time>2018-07-05T06:37:56Z</time>
      </trkpt>
      <trkpt lat="48.671823022887111" lon="-1.373254973441362">
        <ele>37.149999999999999</ele>
        <time>2018-07-05T06:38:04Z</time>
      </trkpt>
      <trkpt lat="48.671787986531854" lon="-1.373125975951552">
        <ele>37.149999999999999</ele>
        <time>2018-07-05T06:38:14Z</time>
      </trkpt>
      <trkpt lat="48.671784969046712" lon="-1.373049030080438">
        <ele>37.630000000000003</ele>
        <time>2018-07-05T06:38:15Z</time>
      </trkpt>
      <trkpt lat="48.671780023723841" lon="-1.372945010662079">
        <ele>37.630000000000003</ele>
        <time>2018-07-05T06:38:16Z</time>
      </trkpt>
      <trkpt lat="48.671641973778605" lon="-1.371589992195368">
        <ele>38.109999999999999</ele>
        <time>2018-07-05T06:38:26Z</time>
      </trkpt>
      <trkpt lat="48.671537032350898" lon="-1.370710982009769">
        <ele>38.590000000000003</ele>
        <time>2018-07-05T06:38:31Z</time>
      </trkpt>
      <trkpt lat="48.671537032350898" lon="-1.370557006448507">
        <ele>38.590000000000003</ele>
        <time>2018-07-05T06:38:32Z</time>
      </trkpt>
      <trkpt lat="48.671541977673769" lon="-1.370423985645175">
        <ele>38.590000000000003</ele>
        <time>2018-07-05T06:38:33Z</time>
      </trkpt>
      <trkpt lat="48.671553041785955" lon="-1.37030303478241">
        <ele>39.07</ele>
        <time>2018-07-05T06:38:34Z</time>
      </trkpt>
      <trkpt lat="48.671571984887123" lon="-1.370199015364051">
        <ele>39.07</ele>
        <time>2018-07-05T06:38:35Z</time>
      </trkpt>
      <trkpt lat="48.671627976000309" lon="-1.369843035936356">
        <ele>39.07</ele>
        <time>2018-07-05T06:38:40Z</time>
      </trkpt>
      <trkpt lat="48.671590005978942" lon="-1.369786038994789">
        <ele>39.07</ele>
        <time>2018-07-05T06:38:41Z</time>
      </trkpt>
      <trkpt lat="48.67154398933053" lon="-1.369715966284275">
        <ele>39.07</ele>
        <time>2018-07-05T06:38:42Z</time>
      </trkpt>
      <trkpt lat="48.671025987714529" lon="-1.368933012709022">
        <ele>38.590000000000003</ele>
        <time>2018-07-05T06:38:49Z</time>
      </trkpt>
      <trkpt lat="48.670063996687531" lon="-1.367458971217275">
        <ele>40.030000000000001</ele>
        <time>2018-07-05T06:38:58Z</time>
      </trkpt>
      <trkpt lat="48.668510997667909" lon="-1.364916991442442">
        <ele>38.590000000000003</ele>
        <time>2018-07-05T06:39:12Z</time>
      </trkpt>
      <trkpt lat="48.667081966996193" lon="-1.362265963107348">
        <ele>36.189999999999998</ele>
        <time>2018-07-05T06:39:26Z</time>
      </trkpt>
      <trkpt lat="48.666216032579541" lon="-1.360395038500428">
        <ele>36.670000000000002</ele>
        <time>2018-07-05T06:39:35Z</time>
      </trkpt>
      <trkpt lat="48.665293017402291" lon="-1.358583960682154">
        <ele>39.07</ele>
        <time>2018-07-05T06:39:44Z</time>
      </trkpt>
      <trkpt lat="48.664117036387324" lon="-1.357532031834126">
        <ele>41.950000000000003</ele>
        <time>2018-07-05T06:39:52Z</time>
      </trkpt>
      <trkpt lat="48.66337800398469" lon="-1.356926020234823">
        <ele>41.950000000000003</ele>
        <time>2018-07-05T06:39:57Z</time>
      </trkpt>
      <trkpt lat="48.663265015929937" lon="-1.356785958632827">
        <ele>41.469999999999999</ele>
        <time>2018-07-05T06:39:58Z</time>
      </trkpt>
      <trkpt lat="48.663155967369676" lon="-1.356651009991765">
        <ele>41.469999999999999</ele>
        <time>2018-07-05T06:39:59Z</time>
      </trkpt>
      <trkpt lat="48.6630770098418" lon="-1.356485970318317">
        <ele>41.469999999999999</ele>
        <time>2018-07-05T06:40:00Z</time>
      </trkpt>
      <trkpt lat="48.663000985980034" lon="-1.356321014463902">
        <ele>40.990000000000002</ele>
        <time>2018-07-05T06:40:01Z</time>
      </trkpt>
      <trkpt lat="48.662924962118268" lon="-1.356155974790454">
        <ele>40.509999999999998</ele>
        <time>2018-07-05T06:40:02Z</time>
      </trkpt>
      <trkpt lat="48.662883974611759" lon="-1.3559549767524">
        <ele>40.030000000000001</ele>
        <time>2018-07-05T06:40:03Z</time>
      </trkpt>
      <trkpt lat="48.662850027903914" lon="-1.355748027563095">
        <ele>40.030000000000001</ele>
        <time>2018-07-05T06:40:04Z</time>
      </trkpt>
      <trkpt lat="48.662815997377038" lon="-1.355539988726378">
        <ele>39.549999999999997</ele>
        <time>2018-07-05T06:40:05Z</time>
      </trkpt>
      <trkpt lat="48.662781966850162" lon="-1.355324992910028">
        <ele>39.07</ele>
        <time>2018-07-05T06:40:06Z</time>
      </trkpt>
      <trkpt lat="48.662786995992064" lon="-1.355104967951775">
        <ele>38.590000000000003</ele>
        <time>2018-07-05T06:40:07Z</time>
      </trkpt>
      <trkpt lat="48.662791019305587" lon="-1.354890977963805">
        <ele>37.630000000000003</ele>
        <time>2018-07-05T06:40:08Z</time>
      </trkpt>
      <trkpt lat="48.662804011255503" lon="-1.354237021878362">
        <ele>34.740000000000002</ele>
        <time>2018-07-05T06:40:12Z</time>
      </trkpt>
      <trkpt lat="48.662804011255503" lon="-1.354171978309751">
        <ele>34.259999999999998</ele>
        <time>2018-07-05T06:40:13Z</time>
      </trkpt>
      <trkpt lat="48.662748020142317" lon="-1.353990007191896">
        <ele>33.299999999999997</ele>
        <time>2018-07-05T06:40:15Z</time>
      </trkpt>
      <trkpt lat="48.662723964080215" lon="-1.353911971673369">
        <ele>32.82</ele>
        <time>2018-07-05T06:40:16Z</time>
      </trkpt>
      <trkpt lat="48.662685994058847" lon="-1.353865033015609">
        <ele>32.340000000000003</ele>
        <time>2018-07-05T06:40:17Z</time>
      </trkpt>
      <trkpt lat="48.662623967975378" lon="-1.353809041902423">
        <ele>31.859999999999999</ele>
        <time>2018-07-05T06:40:18Z</time>
      </trkpt>
      <trkpt lat="48.662554984912276" lon="-1.353747015818954">
        <ele>31.859999999999999</ele>
        <time>2018-07-05T06:40:19Z</time>
      </trkpt>
      <trkpt lat="48.662465969100595" lon="-1.353696975857019">
        <ele>31.379999999999999</ele>
        <time>2018-07-05T06:40:20Z</time>
      </trkpt>
      <trkpt lat="48.662362033501267" lon="-1.353690018877387">
        <ele>30.899999999999999</ele>
        <time>2018-07-05T06:40:21Z</time>
      </trkpt>
      <trkpt lat="48.662247033789754" lon="-1.353680966421962">
        <ele>30.420000000000002</ele>
        <time>2018-07-05T06:40:22Z</time>
      </trkpt>
      <trkpt lat="48.661054959520698" lon="-1.353590022772551">
        <ele>26.09</ele>
        <time>2018-07-05T06:40:30Z</time>
      </trkpt>
      <trkpt lat="48.659029975533485" lon="-1.353438980877399">
        <ele>25.609999999999999</ele>
        <time>2018-07-05T06:40:43Z</time>
      </trkpt>
      <trkpt lat="48.656898038461804" lon="-1.35326698422432">
        <ele>26.57</ele>
        <time>2018-07-05T06:40:58Z</time>
      </trkpt>
      <trkpt lat="48.655513012781739" lon="-1.353114014491439">
        <ele>28.02</ele>
        <time>2018-07-05T06:41:09Z</time>
      </trkpt>
      <trkpt lat="48.655425002798438" lon="-1.353130023926497">
        <ele>28.02</ele>
        <time>2018-07-05T06:41:10Z</time>
      </trkpt>
      <trkpt lat="48.6552560236305" lon="-1.353268995881081">
        <ele>28.5</ele>
        <time>2018-07-05T06:41:12Z</time>
      </trkpt>
      <trkpt lat="48.65517002530396" lon="-1.353257009759545">
        <ele>29.460000000000001</ele>
        <time>2018-07-05T06:41:13Z</time>
      </trkpt>
      <trkpt lat="48.655121996998787" lon="-1.353249968960881">
        <ele>29.460000000000001</ele>
        <time>2018-07-05T06:41:14Z</time>
      </trkpt>
      <trkpt lat="48.655018983408809" lon="-1.353032039478421">
        <ele>29.940000000000001</ele>
        <time>2018-07-05T06:41:15Z</time>
      </trkpt>
      <trkpt lat="48.654928961768746" lon="-1.353017035871744">
        <ele>29.940000000000001</ele>
        <time>2018-07-05T06:41:16Z</time>
      </trkpt>
      <trkpt lat="48.654825026169419" lon="-1.353007983416319">
        <ele>29.460000000000001</ele>
        <time>2018-07-05T06:41:17Z</time>
      </trkpt>
      <trkpt lat="48.654715977609158" lon="-1.353001026436687">
        <ele>29.460000000000001</ele>
        <time>2018-07-05T06:41:18Z</time>
      </trkpt>
      <trkpt lat="48.653590036556125" lon="-1.352843027561903">
        <ele>26.09</ele>
        <time>2018-07-05T06:41:26Z</time>
      </trkpt>
      <trkpt lat="48.65222898311913" lon="-1.352110030129552">
        <ele>19.84</ele>
        <time>2018-07-05T06:41:35Z</time>
      </trkpt>
      <trkpt lat="48.651508977636695" lon="-1.351388012990356">
        <ele>16.960000000000001</ele>
        <time>2018-07-05T06:41:41Z</time>
      </trkpt>
      <trkpt lat="48.651409987360239" lon="-1.351231019943953">
        <ele>16.48</ele>
        <time>2018-07-05T06:41:42Z</time>
      </trkpt>
      <trkpt lat="48.65132499486208" lon="-1.351051982492209">
        <ele>16</ele>
        <time>2018-07-05T06:41:43Z</time>
      </trkpt>
      <trkpt lat="48.650856027379632" lon="-1.350068030878902">
        <ele>14.56</ele>
        <time>2018-07-05T06:41:49Z</time>
      </trkpt>
      <trkpt lat="48.650804981589317" lon="-1.349960993975401">
        <ele>14.56</ele>
        <time>2018-07-05T06:41:50Z</time>
      </trkpt>
      <trkpt lat="48.650744967162609" lon="-1.349879018962383">
        <ele>14.56</ele>
        <time>2018-07-05T06:41:51Z</time>
      </trkpt>
      <trkpt lat="48.650685958564281" lon="-1.349874995648861">
        <ele>14.08</ele>
        <time>2018-07-05T06:41:52Z</time>
      </trkpt>
      <trkpt lat="48.65063801407814" lon="-1.349870972335339">
        <ele>14.08</ele>
        <time>2018-07-05T06:41:53Z</time>
      </trkpt>
      <trkpt lat="48.65059501491487" lon="-1.349868038669229">
        <ele>13.6</ele>
        <time>2018-07-05T06:41:54Z</time>
      </trkpt>
      <trkpt lat="48.650486972182989" lon="-1.349858986213803">
        <ele>13.6</ele>
        <time>2018-07-05T06:41:55Z</time>
      </trkpt>
      <trkpt lat="48.650459982454777" lon="-1.349913971498609">
        <ele>13.119999999999999</ele>
        <time>2018-07-05T06:41:56Z</time>
      </trkpt>
      <trkpt lat="48.65042301826179" lon="-1.349986977875233">
        <ele>13.119999999999999</ele>
        <time>2018-07-05T06:41:57Z</time>
      </trkpt>
      <trkpt lat="48.650168962776661" lon="-1.35015201754868">
        <ele>12.630000000000001</ele>
        <time>2018-07-05T06:42:00Z</time>
      </trkpt>
      <trkpt lat="48.650114983320236" lon="-1.350258970633149">
        <ele>12.630000000000001</ele>
        <time>2018-07-05T06:42:01Z</time>
      </trkpt>
      <trkpt lat="48.650062009692192" lon="-1.35036600753665">
        <ele>12.630000000000001</ele>
        <time>2018-07-05T06:42:02Z</time>
      </trkpt>
      <trkpt lat="48.650018004700541" lon="-1.35049500502646">
        <ele>12.630000000000001</ele>
        <time>2018-07-05T06:42:03Z</time>
      </trkpt>
      <trkpt lat="48.649951033294201" lon="-1.350653003901243">
        <ele>13.119999999999999</ele>
        <time>2018-07-05T06:42:04Z</time>
      </trkpt>
      <trkpt lat="48.64992999471724" lon="-1.350705977529287">
        <ele>13.119999999999999</ele>
        <time>2018-07-05T06:42:05Z</time>
      </trkpt>
      <trkpt lat="48.649888001382351" lon="-1.35081603191793">
        <ele>13.6</ele>
        <time>2018-07-05T06:42:06Z</time>
      </trkpt>
      <trkpt lat="48.649515006691217" lon="-1.351728988811374">
        <ele>14.56</ele>
        <time>2018-07-05T06:42:13Z</time>
      </trkpt>
      <trkpt lat="48.649497991427779" lon="-1.351862009614706">
        <ele>14.56</ele>
        <time>2018-07-05T06:42:14Z</time>
      </trkpt>
      <trkpt lat="48.649481981992722" lon="-1.351988995447755">
        <ele>14.56</ele>
        <time>2018-07-05T06:42:15Z</time>
      </trkpt>
      <trkpt lat="48.649466978386045" lon="-1.35210600681603">
        <ele>14.08</ele>
        <time>2018-07-05T06:42:16Z</time>
      </trkpt>
      <trkpt lat="48.64954300224781" lon="-1.352413035929203">
        <ele>14.08</ele>
        <time>2018-07-05T06:42:17Z</time>
      </trkpt>
      <trkpt lat="48.64954300224781" lon="-1.352413035929203">
        <ele>14.08</ele>
        <time>2018-07-05T06:42:18Z</time>
      </trkpt>
      <trkpt lat="48.649552976712584" lon="-1.352445976808667">
        <ele>14.08</ele>
        <time>2018-07-05T06:42:19Z</time>
      </trkpt>
      <trkpt lat="48.649578960612416" lon="-1.352532980963588">
        <ele>14.56</ele>
        <time>2018-07-05T06:42:20Z</time>
      </trkpt>
      <trkpt lat="48.649602010846138" lon="-1.35264596901834">
        <ele>14.56</ele>
        <time>2018-07-05T06:42:21Z</time>
      </trkpt>
      <trkpt lat="48.649578960612416" lon="-1.352741019800305">
        <ele>14.56</ele>
        <time>2018-07-05T06:42:22Z</time>
      </trkpt>
      <trkpt lat="48.649504026398063" lon="-1.352834980934858">
        <ele>14.56</ele>
        <time>2018-07-05T06:42:23Z</time>
      </trkpt>
      <trkpt lat="48.64945700392127" lon="-1.352862976491451">
        <ele>14.56</ele>
        <time>2018-07-05T06:42:24Z</time>
      </trkpt>
      <trkpt lat="48.649361031129956" lon="-1.352791981771588">
        <ele>14.08</ele>
        <time>2018-07-05T06:42:25Z</time>
      </trkpt>
      <trkpt lat="48.649292970076203" lon="-1.352740013971925">
        <ele>14.08</ele>
        <time>2018-07-05T06:42:26Z</time>
      </trkpt>
      <trkpt lat="48.64921904169023" lon="-1.352695003151894">
        <ele>14.08</ele>
        <time>2018-07-05T06:42:27Z</time>
      </trkpt>
      <trkpt lat="48.64913203753531" lon="-1.35264202952385">
        <ele>14.56</ele>
        <time>2018-07-05T06:42:28Z</time>
      </trkpt>
      <trkpt lat="48.649028018116951" lon="-1.35259903036058">
        <ele>14.56</ele>
        <time>2018-07-05T06:42:29Z</time>
      </trkpt>
      <trkpt lat="48.648906983435154" lon="-1.352578997612">
        <ele>14.56</ele>
        <time>2018-07-05T06:42:30Z</time>
      </trkpt>
      <trkpt lat="48.647508965805173" lon="-1.352433990687132">
        <ele>17.920000000000002</ele>
        <time>2018-07-05T06:42:39Z</time>
      </trkpt>
      <trkpt lat="48.645540978759527" lon="-1.352267023175955">
        <ele>19.84</ele>
        <time>2018-07-05T06:42:50Z</time>
      </trkpt>
      <trkpt lat="48.642693981528282" lon="-1.352035012096167">
        <ele>18.399999999999999</ele>
        <time>2018-07-05T06:43:04Z</time>
      </trkpt>
      <trkpt lat="48.640443021431565" lon="-1.351837031543255">
        <ele>16.48</ele>
        <time>2018-07-05T06:43:16Z</time>
      </trkpt>
      <trkpt lat="48.637267034500837" lon="-1.351559003815055">
        <ele>12.630000000000001</ele>
        <time>2018-07-05T06:43:33Z</time>
      </trkpt>
      <trkpt lat="48.636017963290215" lon="-1.350999008864164">
        <ele>11.67</ele>
        <time>2018-07-05T06:43:40Z</time>
      </trkpt>
      <trkpt lat="48.6355110257864" lon="-1.350766997784376">
        <ele>11.19</ele>
        <time>2018-07-05T06:43:43Z</time>
      </trkpt>
      <trkpt lat="48.635345986112952" lon="-1.350739002227783">
        <ele>10.710000000000001</ele>
        <time>2018-07-05T06:43:44Z</time>
      </trkpt>
      <trkpt lat="48.635194022208452" lon="-1.350713018327951">
        <ele>11.19</ele>
        <time>2018-07-05T06:43:45Z</time>
      </trkpt>
      <trkpt lat="48.633415969088674" lon="-1.350659960880876">
        <ele>11.67</ele>
        <time>2018-07-05T06:43:57Z</time>
      </trkpt>
      <trkpt lat="48.632467975839972" lon="-1.350649986416102">
        <ele>15.039999999999999</ele>
        <time>2018-07-05T06:44:05Z</time>
      </trkpt>
      <trkpt lat="48.631275985389948" lon="-1.350631965324283">
        <ele>17.920000000000002</ele>
        <time>2018-07-05T06:44:21Z</time>
      </trkpt>
      <trkpt lat="48.631217982620001" lon="-1.350694997236133">
        <ele>17.920000000000002</ele>
        <time>2018-07-05T06:44:22Z</time>
      </trkpt>
      <trkpt lat="48.631217982620001" lon="-1.350758029147983">
        <ele>17.440000000000001</ele>
        <time>2018-07-05T06:44:23Z</time>
      </trkpt>
      <trkpt lat="48.631217982620001" lon="-1.350840004161">
        <ele>17.440000000000001</ele>
        <time>2018-07-05T06:44:24Z</time>
      </trkpt>
      <trkpt lat="48.631217982620001" lon="-1.350975036621094">
        <ele>16.960000000000001</ele>
        <time>2018-07-05T06:44:25Z</time>
      </trkpt>
      <trkpt lat="48.631219994276762" lon="-1.351068997755647">
        <ele>16.960000000000001</ele>
        <time>2018-07-05T06:44:26Z</time>
      </trkpt>
      <trkpt lat="48.631274979561567" lon="-1.35221497155726">
        <ele>14.08</ele>
        <time>2018-07-05T06:44:34Z</time>
      </trkpt>
      <trkpt lat="48.631314039230347" lon="-1.352437008172274">
        <ele>14.08</ele>
        <time>2018-07-05T06:44:36Z</time>
      </trkpt>
      <trkpt lat="48.631419986486435" lon="-1.352842021733522">
        <ele>13.119999999999999</ele>
        <time>2018-07-05T06:44:40Z</time>
      </trkpt>
      <trkpt lat="48.63147103227675" lon="-1.352928020060062">
        <ele>13.119999999999999</ele>
        <time>2018-07-05T06:44:41Z</time>
      </trkpt>
      <trkpt lat="48.631525011733174" lon="-1.353017035871744">
        <ele>12.630000000000001</ele>
        <time>2018-07-05T06:44:42Z</time>
      </trkpt>
      <trkpt lat="48.631758028641343" lon="-1.353408973664045">
        <ele>11.67</ele>
        <time>2018-07-05T06:44:46Z</time>
      </trkpt>
      <trkpt lat="48.631803961470723" lon="-1.353523973375559">
        <ele>11.19</ele>
        <time>2018-07-05T06:44:47Z</time>
      </trkpt>
      <trkpt lat="48.63186095841229" lon="-1.353762019425631">
        <ele>9.27</ele>
        <time>2018-07-05T06:44:49Z</time>
      </trkpt>
      <trkpt lat="48.631970006972551" lon="-1.355125000700355">
        <ele>10.23</ele>
        <time>2018-07-05T06:44:59Z</time>
      </trkpt>
      <trkpt lat="48.631970006972551" lon="-1.356906993314624">
        <ele>20.32</ele>
        <time>2018-07-05T06:45:10Z</time>
      </trkpt>
      <trkpt lat="48.631950980052352" lon="-1.358641963452101">
        <ele>28.98</ele>
        <time>2018-07-05T06:45:23Z</time>
      </trkpt>
      <trkpt lat="48.631984004750848" lon="-1.35941200889647">
        <ele>30.899999999999999</ele>
        <time>2018-07-05T06:45:28Z</time>
      </trkpt>
      <trkpt lat="48.631992973387241" lon="-1.359566990286112">
        <ele>31.379999999999999</ele>
        <time>2018-07-05T06:45:29Z</time>
      </trkpt>
      <trkpt lat="48.632036978378892" lon="-1.359717026352882">
        <ele>32.340000000000003</ele>
        <time>2018-07-05T06:45:30Z</time>
      </trkpt>
      <trkpt lat="48.632081989198923" lon="-1.359869996085763">
        <ele>32.82</ele>
        <time>2018-07-05T06:45:31Z</time>
      </trkpt>
      <trkpt lat="48.632128005847335" lon="-1.360024977475405">
        <ele>32.82</ele>
        <time>2018-07-05T06:45:32Z</time>
      </trkpt>
      <trkpt lat="48.632205035537481" lon="-1.360288001596928">
        <ele>33.780000000000001</ele>
        <time>2018-07-05T06:45:34Z</time>
      </trkpt>
      <trkpt lat="48.632496977224946" lon="-1.361477980390191">
        <ele>36.670000000000002</ele>
        <time>2018-07-05T06:45:44Z</time>
      </trkpt>
      <trkpt lat="48.632588004693389" lon="-1.362115005031228">
        <ele>39.07</ele>
        <time>2018-07-05T06:45:48Z</time>
      </trkpt>
      <trkpt lat="48.632662016898394" lon="-1.363304983824492">
        <ele>41.950000000000003</ele>
        <time>2018-07-05T06:45:55Z</time>
      </trkpt>
      <trkpt lat="48.632638966664672" lon="-1.363417971879244">
        <ele>42.439999999999998</ele>
        <time>2018-07-05T06:45:56Z</time>
      </trkpt>
      <trkpt lat="48.632638966664672" lon="-1.363417971879244">
        <ele>42.439999999999998</ele>
        <time>2018-07-05T06:45:57Z</time>
      </trkpt>
      <trkpt lat="48.632573001086712" lon="-1.363613018766046">
        <ele>42.439999999999998</ele>
        <time>2018-07-05T06:45:58Z</time>
      </trkpt>
      <trkpt lat="48.632513992488384" lon="-1.363704968243837">
        <ele>42.439999999999998</ele>
        <time>2018-07-05T06:45:59Z</time>
      </trkpt>
      <trkpt lat="48.632450960576534" lon="-1.363805970177054">
        <ele>42.920000000000002</ele>
        <time>2018-07-05T06:46:00Z</time>
      </trkpt>
      <trkpt lat="48.632382983341813" lon="-1.363914012908936">
        <ele>42.920000000000002</ele>
        <time>2018-07-05T06:46:01Z</time>
      </trkpt>
      <trkpt lat="48.632309976965189" lon="-1.36403001844883">
        <ele>43.399999999999999</ele>
        <time>2018-07-05T06:46:02Z</time>
      </trkpt>
      <trkpt lat="48.632235964760184" lon="-1.364172007888556">
        <ele>43.399999999999999</ele>
        <time>2018-07-05T06:46:03Z</time>
      </trkpt>
      <trkpt lat="48.632189026102424" lon="-1.364344004541636">
        <ele>43.880000000000003</ele>
        <time>2018-07-05T06:46:04Z</time>
      </trkpt>
      <trkpt lat="48.632137980312109" lon="-1.36452698148787">
        <ele>43.880000000000003</ele>
        <time>2018-07-05T06:46:05Z</time>
      </trkpt>
      <trkpt lat="48.632086012512445" lon="-1.364714987576008">
        <ele>43.880000000000003</ele>
        <time>2018-07-05T06:46:06Z</time>
      </trkpt>
      <trkpt lat="48.631972018629313" lon="-1.365050012245774">
        <ele>43.880000000000003</ele>
        <time>2018-07-05T06:46:08Z</time>
      </trkpt>
      <trkpt lat="48.63190496340394" lon="-1.365243969485164">
        <ele>43.880000000000003</ele>
        <time>2018-07-05T06:46:09Z</time>
      </trkpt>
      <trkpt lat="48.631844026967883" lon="-1.365331979468465">
        <ele>43.880000000000003</ele>
        <time>2018-07-05T06:46:10Z</time>
      </trkpt>
      <trkpt lat="48.631761968135834" lon="-1.365453014150262">
        <ele>43.399999999999999</ele>
        <time>2018-07-05T06:46:11Z</time>
      </trkpt>
      <trkpt lat="48.631683010607958" lon="-1.365568013861775">
        <ele>42.920000000000002</ele>
        <time>2018-07-05T06:46:12Z</time>
      </trkpt>
      <trkpt lat="48.631122009828687" lon="-1.366582978516817">
        <ele>39.07</ele>
        <time>2018-07-05T06:46:20Z</time>
      </trkpt>
      <trkpt lat="48.630393035709858" lon="-1.368278972804546">
        <ele>35.229999999999997</ele>
        <time>2018-07-05T06:46:31Z</time>
      </trkpt>
      <trkpt lat="48.62992700189352" lon="-1.369323022663593">
        <ele>35.229999999999997</ele>
        <time>2018-07-05T06:46:39Z</time>
      </trkpt>
      <trkpt lat="48.629852989688516" lon="-1.369441039860249">
        <ele>35.229999999999997</ele>
        <time>2018-07-05T06:46:40Z</time>
      </trkpt>
      <trkpt lat="48.629779983311892" lon="-1.369557967409492">
        <ele>35.229999999999997</ele>
        <time>2018-07-05T06:46:41Z</time>
      </trkpt>
      <trkpt lat="48.628868032246828" lon="-1.37073302641511">
        <ele>35.229999999999997</ele>
        <time>2018-07-05T06:46:52Z</time>
      </trkpt>
      <trkpt lat="48.62863602116704" lon="-1.371109038591385">
        <ele>35.229999999999997</ele>
        <time>2018-07-05T06:46:55Z</time>
      </trkpt>
      <trkpt lat="48.628579024225473" lon="-1.371251028031111">
        <ele>35.229999999999997</ele>
        <time>2018-07-05T06:46:56Z</time>
      </trkpt>
      <trkpt lat="48.628528984263539" lon="-1.371409026905894">
        <ele>35.229999999999997</ele>
        <time>2018-07-05T06:46:57Z</time>
      </trkpt>
      <trkpt lat="48.628528984263539" lon="-1.371409026905894">
        <ele>35.229999999999997</ele>
        <time>2018-07-05T06:46:58Z</time>
      </trkpt>
      <trkpt lat="48.628478022292256" lon="-1.371747991070151">
        <ele>35.229999999999997</ele>
        <time>2018-07-05T06:46:59Z</time>
      </trkpt>
      <trkpt lat="48.628350030630827" lon="-1.372613003477454">
        <ele>35.229999999999997</ele>
        <time>2018-07-05T06:47:04Z</time>
      </trkpt>
      <trkpt lat="48.628366962075233" lon="-1.372785000130534">
        <ele>34.740000000000002</ele>
        <time>2018-07-05T06:47:05Z</time>
      </trkpt>
      <trkpt lat="48.628383977338672" lon="-1.372953979298472">
        <ele>34.740000000000002</ele>
        <time>2018-07-05T06:47:06Z</time>
      </trkpt>
      <trkpt lat="48.628433011472225" lon="-1.373111978173256">
        <ele>34.740000000000002</ele>
        <time>2018-07-05T06:47:07Z</time>
      </trkpt>
      <trkpt lat="48.628484979271889" lon="-1.373272994533181">
        <ele>34.259999999999998</ele>
        <time>2018-07-05T06:47:08Z</time>
      </trkpt>
      <trkpt lat="48.628539964556694" lon="-1.373437028378248">
        <ele>33.780000000000001</ele>
        <time>2018-07-05T06:47:09Z</time>
      </trkpt>
      <trkpt lat="48.629033993929625" lon="-1.375078959390521">
        <ele>30.420000000000002</ele>
        <time>2018-07-05T06:47:19Z</time>
      </trkpt>
      <trkpt lat="48.629061989486217" lon="-1.375255985185504">
        <ele>29.940000000000001</ele>
        <time>2018-07-05T06:47:20Z</time>
      </trkpt>
      <trkpt lat="48.629302969202399" lon="-1.37679498642683">
        <ele>26.57</ele>
        <time>2018-07-05T06:47:28Z</time>
      </trkpt>
      <trkpt lat="48.629292994737625" lon="-1.376980980858207">
        <ele>26.09</ele>
        <time>2018-07-05T06:47:29Z</time>
      </trkpt>
      <trkpt lat="48.629273967817426" lon="-1.37715901248157">
        <ele>26.09</ele>
        <time>2018-07-05T06:47:30Z</time>
      </trkpt>
      <trkpt lat="48.629256030544639" lon="-1.377335032448173">
        <ele>25.609999999999999</ele>
        <time>2018-07-05T06:47:31Z</time>
      </trkpt>
      <trkpt lat="48.62923800945282" lon="-1.377510968595743">
        <ele>26.09</ele>
        <time>2018-07-05T06:47:32Z</time>
      </trkpt>
      <trkpt lat="48.62921898253262" lon="-1.377693023532629">
        <ele>26.57</ele>
        <time>2018-07-05T06:47:33Z</time>
      </trkpt>
      <trkpt lat="48.629200961440802" lon="-1.377882035449147">
        <ele>27.050000000000001</ele>
        <time>2018-07-05T06:47:34Z</time>
      </trkpt>
      <trkpt lat="48.629205990582705" lon="-1.378068029880524">
        <ele>27.530000000000001</ele>
        <time>2018-07-05T06:47:35Z</time>
      </trkpt>
      <trkpt lat="48.629210013896227" lon="-1.3782540243119">
        <ele>28.02</ele>
        <time>2018-07-05T06:47:36Z</time>
      </trkpt>
      <trkpt lat="48.629335993900895" lon="-1.379942977800965">
        <ele>28.98</ele>
        <time>2018-07-05T06:47:45Z</time>
      </trkpt>
      <trkpt lat="48.629342028871179" lon="-1.380139030516148">
        <ele>28.98</ele>
        <time>2018-07-05T06:47:46Z</time>
      </trkpt>
      <trkpt lat="48.629462979733944" lon="-1.382292006164789">
        <ele>29.940000000000001</ele>
        <time>2018-07-05T06:47:57Z</time>
      </trkpt>
      <trkpt lat="48.629501033574343" lon="-1.383547028526664">
        <ele>29.460000000000001</ele>
        <time>2018-07-05T06:48:04Z</time>
      </trkpt>
      <trkpt lat="48.629531040787697" lon="-1.383695974946022">
        <ele>29.460000000000001</ele>
        <time>2018-07-05T06:48:05Z</time>
      </trkpt>
      <trkpt lat="48.629566999152303" lon="-1.383851962164044">
        <ele>28.98</ele>
        <time>2018-07-05T06:48:06Z</time>
      </trkpt>
      <trkpt lat="48.62960304133594" lon="-1.384009961038828">
        <ele>28.98</ele>
        <time>2018-07-05T06:48:07Z</time>
      </trkpt>
      <trkpt lat="48.62964604049921" lon="-1.384167037904263">
        <ele>28.98</ele>
        <time>2018-07-05T06:48:08Z</time>
      </trkpt>
      <trkpt lat="48.630412984639406" lon="-1.385922962799668">
        <ele>27.530000000000001</ele>
        <time>2018-07-05T06:48:20Z</time>
      </trkpt>
      <trkpt lat="48.630857979878783" lon="-1.386778000742197">
        <ele>28.02</ele>
        <time>2018-07-05T06:48:28Z</time>
      </trkpt>
      <trkpt lat="48.630895027890801" lon="-1.38684899546206">
        <ele>28.5</ele>
        <time>2018-07-05T06:48:29Z</time>
      </trkpt>
      <trkpt lat="48.630983959883451" lon="-1.387018980458379">
        <ele>28.02</ele>
        <time>2018-07-05T06:48:32Z</time>
      </trkpt>
      <trkpt lat="48.63106501288712" lon="-1.387175973504782">
        <ele>28.5</ele>
        <time>2018-07-05T06:48:35Z</time>
      </trkpt>
      <trkpt lat="48.631090996786952" lon="-1.387226013466716">
        <ele>28.02</ele>
        <time>2018-07-05T06:48:36Z</time>
      </trkpt>
      <trkpt lat="48.631114969030023" lon="-1.387272030115128">
        <ele>28.02</ele>
        <time>2018-07-05T06:48:37Z</time>
      </trkpt>
      <trkpt lat="48.631133995950222" lon="-1.387307988479734">
        <ele>28.02</ele>
        <time>2018-07-05T06:48:38Z</time>
      </trkpt>
      <trkpt lat="48.631152017042041" lon="-1.38734201900661">
        <ele>27.530000000000001</ele>
        <time>2018-07-05T06:48:39Z</time>
      </trkpt>
      <trkpt lat="48.631154028698802" lon="-1.387345958501101">
        <ele>27.530000000000001</ele>
        <time>2018-07-05T06:48:40Z</time>
      </trkpt>
      <trkpt lat="48.631119998171926" lon="-1.387375965714455">
        <ele>27.530000000000001</ele>
        <time>2018-07-05T06:48:41Z</time>
      </trkpt>
      <trkpt lat="48.631095020100474" lon="-1.387399015948176">
        <ele>27.050000000000001</ele>
        <time>2018-07-05T06:48:42Z</time>
      </trkpt>
      <trkpt lat="48.631067024543881" lon="-1.387423994019628">
        <ele>26.57</ele>
        <time>2018-07-05T06:48:43Z</time>
      </trkpt>
      <trkpt lat="48.631033999845386" lon="-1.387452995404601">
        <ele>26.57</ele>
        <time>2018-07-05T06:48:44Z</time>
      </trkpt>
      <trkpt lat="48.630997035652399" lon="-1.387487025931478">
        <ele>26.57</ele>
        <time>2018-07-05T06:48:45Z</time>
      </trkpt>
      <trkpt lat="48.630939032882452" lon="-1.387538993731141">
        <ele>26.09</ele>
        <time>2018-07-05T06:48:46Z</time>
      </trkpt>
      <trkpt lat="48.630931992083788" lon="-1.387539999559522">
        <ele>25.609999999999999</ele>
        <time>2018-07-05T06:48:47Z</time>
      </trkpt>
      <trkpt lat="48.630676008760929" lon="-1.387593979015946">
        <ele>24.170000000000002</ele>
        <time>2018-07-05T06:48:55Z</time>
      </trkpt>
      <trkpt lat="48.630575006827712" lon="-1.387615017592907">
        <ele>24.649999999999999</ele>
        <time>2018-07-05T06:48:57Z</time>
      </trkpt>
      <trkpt lat="48.630510969087481" lon="-1.387628009542823">
        <ele>24.649999999999999</ele>
        <time>2018-07-05T06:48:58Z</time>
      </trkpt>
      <trkpt lat="48.630448020994663" lon="-1.387641001492739">
        <ele>24.649999999999999</ele>
        <time>2018-07-05T06:48:59Z</time>
      </trkpt>
      <trkpt lat="48.630392029881477" lon="-1.387652987614274">
        <ele>24.649999999999999</ele>
        <time>2018-07-05T06:49:00Z</time>
      </trkpt>
      <trkpt lat="48.630335032939911" lon="-1.387664973735809">
        <ele>24.649999999999999</ele>
        <time>2018-07-05T06:49:01Z</time>
      </trkpt>
      <trkpt lat="48.630267977714539" lon="-1.387678971514106">
        <ele>24.649999999999999</ele>
        <time>2018-07-05T06:49:02Z</time>
      </trkpt>
      <trkpt lat="48.63011903129518" lon="-1.387709984555841">
        <ele>24.170000000000002</ele>
        <time>2018-07-05T06:49:04Z</time>
      </trkpt>
      <trkpt lat="48.630040995776653" lon="-1.387725993990898">
        <ele>24.170000000000002</ele>
        <time>2018-07-05T06:49:05Z</time>
      </trkpt>
      <trkpt lat="48.628740040585399" lon="-1.387962028384209">
        <ele>27.530000000000001</ele>
        <time>2018-07-05T06:49:20Z</time>
      </trkpt>
      <trkpt lat="48.6274120118469" lon="-1.388191021978855">
        <ele>27.530000000000001</ele>
        <time>2018-07-05T06:49:36Z</time>
      </trkpt>
      <trkpt lat="48.627042034640908" lon="-1.388274002820253">
        <ele>27.050000000000001</ele>
        <time>2018-07-05T06:49:45Z</time>
      </trkpt>
      <trkpt lat="48.627042034640908" lon="-1.388274002820253">
        <ele>27.050000000000001</ele>
        <time>2018-07-05T06:49:48Z</time>
      </trkpt>
      <trkpt lat="48.626971961930394" lon="-1.388335023075342">
        <ele>27.530000000000001</ele>
        <time>2018-07-05T06:49:49Z</time>
      </trkpt>
      <trkpt lat="48.626976991072297" lon="-1.388395959511399">
        <ele>27.530000000000001</ele>
        <time>2018-07-05T06:49:50Z</time>
      </trkpt>
      <trkpt lat="48.626983026042581" lon="-1.388486986979842">
        <ele>27.530000000000001</ele>
        <time>2018-07-05T06:49:51Z</time>
      </trkpt>
      <trkpt lat="48.626989983022213" lon="-1.388597963377833">
        <ele>28.02</ele>
        <time>2018-07-05T06:49:52Z</time>
      </trkpt>
      <trkpt lat="48.627076987177134" lon="-1.389880981296301">
        <ele>29.460000000000001</ele>
        <time>2018-07-05T06:50:00Z</time>
      </trkpt>
      <trkpt lat="48.627030970528722" lon="-1.392306033521891">
        <ele>29.940000000000001</ele>
        <time>2018-07-05T06:50:10Z</time>
      </trkpt>
      <trkpt lat="48.626959975808859" lon="-1.395425023511052">
        <ele>26.09</ele>
        <time>2018-07-05T06:50:21Z</time>
      </trkpt>
      <trkpt lat="48.627158040180802" lon="-1.398330023512244">
        <ele>24.649999999999999</ele>
        <time>2018-07-05T06:50:31Z</time>
      </trkpt>
      <trkpt lat="48.627674030140042" lon="-1.403461005538702">
        <ele>22.73</ele>
        <time>2018-07-05T06:50:49Z</time>
      </trkpt>
      <trkpt lat="48.627813002094626" lon="-1.40495901927352">
        <ele>22.25</ele>
        <time>2018-07-05T06:50:56Z</time>
      </trkpt>
      <trkpt lat="48.627848960459232" lon="-1.40644496306777">
        <ele>21.77</ele>
        <time>2018-07-05T06:51:06Z</time>
      </trkpt>
      <trkpt lat="48.627887014299631" lon="-1.407555984333158">
        <ele>22.73</ele>
        <time>2018-07-05T06:51:17Z</time>
      </trkpt>
      <trkpt lat="48.628062028437853" lon="-1.409072019159794">
        <ele>28.5</ele>
        <time>2018-07-05T06:51:30Z</time>
      </trkpt>
      <trkpt lat="48.628087006509304" lon="-1.409311993047595">
        <ele>29.460000000000001</ele>
        <time>2018-07-05T06:51:32Z</time>
      </trkpt>
      <trkpt lat="48.628209969028831" lon="-1.410258980467916">
        <ele>31.379999999999999</ele>
        <time>2018-07-05T06:51:40Z</time>
      </trkpt>
      <trkpt lat="48.628225978463888" lon="-1.41035595908761">
        <ele>31.379999999999999</ele>
        <time>2018-07-05T06:51:41Z</time>
      </trkpt>
      <trkpt lat="48.628241987898946" lon="-1.410451009869576">
        <ele>31.379999999999999</ele>
        <time>2018-07-05T06:51:42Z</time>
      </trkpt>
      <trkpt lat="48.6282719951123" lon="-1.410634992644191">
        <ele>31.859999999999999</ele>
        <time>2018-07-05T06:51:44Z</time>
      </trkpt>
      <trkpt lat="48.628428988158703" lon="-1.411724975332618">
        <ele>30.420000000000002</ele>
        <time>2018-07-05T06:51:53Z</time>
      </trkpt>
      <trkpt lat="48.628428988158703" lon="-1.411888003349304">
        <ele>29.940000000000001</ele>
        <time>2018-07-05T06:51:54Z</time>
      </trkpt>
      <trkpt lat="48.628411972895265" lon="-1.412051031365991">
        <ele>28.98</ele>
        <time>2018-07-05T06:51:55Z</time>
      </trkpt>
      <trkpt lat="48.628381965681911" lon="-1.41222101636231">
        <ele>28.5</ele>
        <time>2018-07-05T06:51:56Z</time>
      </trkpt>
      <trkpt lat="48.628350030630827" lon="-1.412397958338261">
        <ele>28.02</ele>
        <time>2018-07-05T06:51:57Z</time>
      </trkpt>
      <trkpt lat="48.628280963748693" lon="-1.413174960762262">
        <ele>26.57</ele>
        <time>2018-07-05T06:52:01Z</time>
      </trkpt>
      <trkpt lat="48.628267971798778" lon="-1.413378976285458">
        <ele>26.09</ele>
        <time>2018-07-05T06:52:02Z</time>
      </trkpt>
      <trkpt lat="48.628382971510291" lon="-1.415609987452626">
        <ele>24.170000000000002</ele>
        <time>2018-07-05T06:52:12Z</time>
      </trkpt>
      <trkpt lat="48.628423037007451" lon="-1.417554002255201">
        <ele>23.210000000000001</ele>
        <time>2018-07-05T06:52:20Z</time>
      </trkpt>
      <trkpt lat="48.628377020359039" lon="-1.417802022770047">
        <ele>22.73</ele>
        <time>2018-07-05T06:52:21Z</time>
      </trkpt>
      <trkpt lat="48.627987010404468" lon="-1.420010989531875">
        <ele>24.649999999999999</ele>
        <time>2018-07-05T06:52:30Z</time>
      </trkpt>
      <trkpt lat="48.627965971827507" lon="-1.420241994783282">
        <ele>25.129999999999999</ele>
        <time>2018-07-05T06:52:31Z</time>
      </trkpt>
      <trkpt lat="48.627977035939693" lon="-1.420464031398296">
        <ele>25.609999999999999</ele>
        <time>2018-07-05T06:52:32Z</time>
      </trkpt>
      <trkpt lat="48.628015005961061" lon="-1.420680033043027">
        <ele>25.609999999999999</ele>
        <time>2018-07-05T06:52:33Z</time>
      </trkpt>
      <trkpt lat="48.628052975982428" lon="-1.420896034687758">
        <ele>26.09</ele>
        <time>2018-07-05T06:52:34Z</time>
      </trkpt>
      <trkpt lat="48.628092035651207" lon="-1.42111798748374">
        <ele>26.09</ele>
        <time>2018-07-05T06:52:35Z</time>
      </trkpt>
      <trkpt lat="48.628382971510291" lon="-1.423328965902329">
        <ele>24.649999999999999</ele>
        <time>2018-07-05T06:52:44Z</time>
      </trkpt>
      <trkpt lat="48.628740040585399" lon="-1.425534998998046">
        <ele>19.359999999999999</ele>
        <time>2018-07-05T06:52:53Z</time>
      </trkpt>
      <trkpt lat="48.629376981407404" lon="-1.429020026698709">
        <ele>14.08</ele>
        <time>2018-07-05T06:53:08Z</time>
      </trkpt>
      <trkpt lat="48.629446970298886" lon="-1.43123796209693">
        <ele>10.710000000000001</ele>
        <time>2018-07-05T06:53:19Z</time>
      </trkpt>
      <trkpt lat="48.629680993035436" lon="-1.433496968820691">
        <ele>11.67</ele>
        <time>2018-07-05T06:53:31Z</time>
      </trkpt>
      <trkpt lat="48.630068991333246" lon="-1.434602960944176">
        <ele>11.67</ele>
        <time>2018-07-05T06:53:39Z</time>
      </trkpt>
      <trkpt lat="48.630238976329565" lon="-1.435111993923783">
        <ele>12.15</ele>
        <time>2018-07-05T06:53:44Z</time>
      </trkpt>
      <trkpt lat="48.630246017128229" lon="-1.435179971158505">
        <ele>11.67</ele>
        <time>2018-07-05T06:53:45Z</time>
      </trkpt>
      <trkpt lat="48.630231013521552" lon="-1.435238979756832">
        <ele>11.67</ele>
        <time>2018-07-05T06:53:46Z</time>
      </trkpt>
      <trkpt lat="48.630182985216379" lon="-1.435300000011921">
        <ele>11.67</ele>
        <time>2018-07-05T06:53:47Z</time>
      </trkpt>
      <trkpt lat="48.630126994103193" lon="-1.435369988903403">
        <ele>11.19</ele>
        <time>2018-07-05T06:53:48Z</time>
      </trkpt>
      <trkpt lat="48.630068991333246" lon="-1.435444001108408">
        <ele>11.19</ele>
        <time>2018-07-05T06:53:49Z</time>
      </trkpt>
      <trkpt lat="48.630002019926906" lon="-1.435527987778187">
        <ele>11.19</ele>
        <time>2018-07-05T06:53:50Z</time>
      </trkpt>
      <trkpt lat="48.62921898253262" lon="-1.436538007110357">
        <ele>10.710000000000001</ele>
        <time>2018-07-05T06:53:59Z</time>
      </trkpt>
      <trkpt lat="48.628414990380406" lon="-1.437733015045524">
        <ele>11.19</ele>
        <time>2018-07-05T06:54:08Z</time>
      </trkpt>
      <trkpt lat="48.627876034006476" lon="-1.439339993521571">
        <ele>12.15</ele>
        <time>2018-07-05T06:54:18Z</time>
      </trkpt>
      <trkpt lat="48.627644022926688" lon="-1.440598033368588">
        <ele>13.119999999999999</ele>
        <time>2018-07-05T06:54:25Z</time>
      </trkpt>
      <trkpt lat="48.627588031813502" lon="-1.440766006708145">
        <ele>13.119999999999999</ele>
        <time>2018-07-05T06:54:26Z</time>
      </trkpt>
      <trkpt lat="48.626987971365452" lon="-1.442232001572847">
        <ele>12.630000000000001</ele>
        <time>2018-07-05T06:54:35Z</time>
      </trkpt>
      <trkpt lat="48.626010976731777" lon="-1.443618033081293">
        <ele>11.67</ele>
        <time>2018-07-05T06:54:45Z</time>
      </trkpt>
      <trkpt lat="48.625120986253023" lon="-1.44513800740242">
        <ele>11.67</ele>
        <time>2018-07-05T06:54:55Z</time>
      </trkpt>
      <trkpt lat="48.624918982386589" lon="-1.445371024310589">
        <ele>11.67</ele>
        <time>2018-07-05T06:54:57Z</time>
      </trkpt>
      <trkpt lat="48.62481496296823" lon="-1.445468002930284">
        <ele>11.67</ele>
        <time>2018-07-05T06:54:58Z</time>
      </trkpt>
      <trkpt lat="48.624699041247368" lon="-1.445549977943301">
        <ele>12.15</ele>
        <time>2018-07-05T06:54:59Z</time>
      </trkpt>
      <trkpt lat="48.623790023848414" lon="-1.446237964555621">
        <ele>9.27</ele>
        <time>2018-07-05T06:55:07Z</time>
      </trkpt>
      <trkpt lat="48.623676029965281" lon="-1.446334021165967">
        <ele>8.789999999999999</ele>
        <time>2018-07-05T06:55:08Z</time>
      </trkpt>
      <trkpt lat="48.6232899595052" lon="-1.446782033890486">
        <ele>8.789999999999999</ele>
        <time>2018-07-05T06:55:12Z</time>
      </trkpt>
      <trkpt lat="48.623213013634086" lon="-1.446937015280128">
        <ele>8.789999999999999</ele>
        <time>2018-07-05T06:55:13Z</time>
      </trkpt>
      <trkpt lat="48.623148975893855" lon="-1.447109011933208">
        <ele>8.789999999999999</ele>
        <time>2018-07-05T06:55:14Z</time>
      </trkpt>
      <trkpt lat="48.623102959245443" lon="-1.447292994707823">
        <ele>8.789999999999999</ele>
        <time>2018-07-05T06:55:15Z</time>
      </trkpt>
      <trkpt lat="48.62307496368885" lon="-1.447488041594625">
        <ele>8.789999999999999</ele>
        <time>2018-07-05T06:55:16Z</time>
      </trkpt>
      <trkpt lat="48.623057026416063" lon="-1.447689961642027">
        <ele>8.789999999999999</ele>
        <time>2018-07-05T06:55:17Z</time>
      </trkpt>
      <trkpt lat="48.623040011152625" lon="-1.447898000478745">
        <ele>9.27</ele>
        <time>2018-07-05T06:55:18Z</time>
      </trkpt>
      <trkpt lat="48.622766006737947" lon="-1.450502006337047">
        <ele>10.710000000000001</ele>
        <time>2018-07-05T06:55:30Z</time>
      </trkpt>
      <trkpt lat="48.622565008699894" lon="-1.451916033402085">
        <ele>12.15</ele>
        <time>2018-07-05T06:55:39Z</time>
      </trkpt>
      <trkpt lat="48.622540030628443" lon="-1.452036984264851">
        <ele>12.630000000000001</ele>
        <time>2018-07-05T06:55:46Z</time>
      </trkpt>
      <trkpt lat="48.622524021193385" lon="-1.452109990641475">
        <ele>12.630000000000001</ele>
        <time>2018-07-05T06:56:39Z</time>
      </trkpt>
      <trkpt lat="48.622372979298234" lon="-1.452710973098874">
        <ele>12.630000000000001</ele>
        <time>2018-07-05T06:56:45Z</time>
      </trkpt>
      <trkpt lat="48.621790017932653" lon="-1.454094992950559">
        <ele>12.15</ele>
        <time>2018-07-05T06:56:54Z</time>
      </trkpt>
      <trkpt lat="48.621738972142339" lon="-1.454304037615657">
        <ele>12.630000000000001</ele>
        <time>2018-07-05T06:56:55Z</time>
      </trkpt>
      <trkpt lat="48.6211590282619" lon="-1.456692963838577">
        <ele>12.630000000000001</ele>
        <time>2018-07-05T06:57:05Z</time>
      </trkpt>
      <trkpt lat="48.620798019692302" lon="-1.457618996500969">
        <ele>12.630000000000001</ele>
        <time>2018-07-05T06:57:09Z</time>
      </trkpt>
      <trkpt lat="48.620702968910336" lon="-1.4578159712255">
        <ele>12.15</ele>
        <time>2018-07-05T06:57:10Z</time>
      </trkpt>
      <trkpt lat="48.619665959849954" lon="-1.459176018834114">
        <ele>11.67</ele>
        <time>2018-07-05T06:57:19Z</time>
      </trkpt>
      <trkpt lat="48.61851797439158" lon="-1.460677972063422">
        <ele>11.67</ele>
        <time>2018-07-05T06:57:31Z</time>
      </trkpt>
      <trkpt lat="48.617031024768949" lon="-1.462908983230591">
        <ele>12.15</ele>
        <time>2018-07-05T06:57:46Z</time>
      </trkpt>
      <trkpt lat="48.616455020383" lon="-1.463521029800177">
        <ele>11.67</ele>
        <time>2018-07-05T06:57:51Z</time>
      </trkpt>
      <trkpt lat="48.616363992914557" lon="-1.463711969554424">
        <ele>11.19</ele>
        <time>2018-07-05T06:57:52Z</time>
      </trkpt>
      <trkpt lat="48.616279000416398" lon="-1.463890001177788">
        <ele>11.19</ele>
        <time>2018-07-05T06:57:53Z</time>
      </trkpt>
      <trkpt lat="48.616217980161309" lon="-1.464086975902319">
        <ele>11.19</ele>
        <time>2018-07-05T06:57:54Z</time>
      </trkpt>
      <trkpt lat="48.6161769926548" lon="-1.464298032224178">
        <ele>11.19</ele>
        <time>2018-07-05T06:57:55Z</time>
      </trkpt>
      <trkpt lat="48.616134999319911" lon="-1.464512022212148">
        <ele>11.67</ele>
        <time>2018-07-05T06:57:56Z</time>
      </trkpt>
      <trkpt lat="48.615590007975698" lon="-1.467088032513857">
        <ele>12.15</ele>
        <time>2018-07-05T06:58:07Z</time>
      </trkpt>
      <trkpt lat="48.61523101106286" lon="-1.468640025705099">
        <ele>12.15</ele>
        <time>2018-07-05T06:58:13Z</time>
      </trkpt>
      <trkpt lat="48.615213995799422" lon="-1.468876982107759">
        <ele>12.15</ele>
        <time>2018-07-05T06:58:14Z</time>
      </trkpt>
      <trkpt lat="48.615228999406099" lon="-1.469119973480701">
        <ele>12.630000000000001</ele>
        <time>2018-07-05T06:58:15Z</time>
      </trkpt>
      <trkpt lat="48.61538297496736" lon="-1.471662959083915">
        <ele>13.119999999999999</ele>
        <time>2018-07-05T06:58:24Z</time>
      </trkpt>
      <trkpt lat="48.615627977997065" lon="-1.474328991025686">
        <ele>13.119999999999999</ele>
        <time>2018-07-05T06:58:33Z</time>
      </trkpt>
      <trkpt lat="48.615666031837463" lon="-1.475043967366219">
        <ele>12.630000000000001</ele>
        <time>2018-07-05T06:58:36Z</time>
      </trkpt>
      <trkpt lat="48.615714982151985" lon="-1.475275978446007">
        <ele>12.630000000000001</ele>
        <time>2018-07-05T06:58:37Z</time>
      </trkpt>
      <trkpt lat="48.615865018218756" lon="-1.475980980321765">
        <ele>12.15</ele>
        <time>2018-07-05T06:58:40Z</time>
      </trkpt>
      <trkpt lat="48.615884967148304" lon="-1.476229000836611">
        <ele>12.15</ele>
        <time>2018-07-05T06:58:41Z</time>
      </trkpt>
      <trkpt lat="48.615973982959986" lon="-1.479650996625423">
        <ele>12.630000000000001</ele>
        <time>2018-07-05T06:58:54Z</time>
      </trkpt>
      <trkpt lat="48.616039026528597" lon="-1.484932014718652">
        <ele>13.119999999999999</ele>
        <time>2018-07-05T06:59:12Z</time>
      </trkpt>
      <trkpt lat="48.61604698933661" lon="-1.486011017113924">
        <ele>13.119999999999999</ele>
        <time>2018-07-05T06:59:17Z</time>
      </trkpt>
      <trkpt lat="48.616084037348628" lon="-1.488402960821986">
        <ele>13.6</ele>
        <time>2018-07-05T06:59:32Z</time>
      </trkpt>
      <trkpt lat="48.61589795909822" lon="-1.490144971758127">
        <ele>13.119999999999999</ele>
        <time>2018-07-05T06:59:42Z</time>
      </trkpt>
      <trkpt lat="48.615491017699242" lon="-1.492756018415093">
        <ele>12.630000000000001</ele>
        <time>2018-07-05T06:59:56Z</time>
      </trkpt>
      <trkpt lat="48.614931022748351" lon="-1.495947008952498">
        <ele>12.630000000000001</ele>
        <time>2018-07-05T07:00:11Z</time>
      </trkpt>
      <trkpt lat="48.614479992538691" lon="-1.49833501316607">
        <ele>12.630000000000001</ele>
        <time>2018-07-05T07:00:24Z</time>
      </trkpt>
      <trkpt lat="48.614459037780762" lon="-1.498439032584429">
        <ele>12.630000000000001</ele>
        <time>2018-07-05T07:00:25Z</time>
      </trkpt>
      <trkpt lat="48.614444034174085" lon="-1.498512960970402">
        <ele>13.119999999999999</ele>
        <time>2018-07-05T07:00:26Z</time>
      </trkpt>
      <trkpt lat="48.614432970061898" lon="-1.498567024245858">
        <ele>13.119999999999999</ele>
        <time>2018-07-05T07:00:27Z</time>
      </trkpt>
      <trkpt lat="48.614387959241867" lon="-1.498732985928655">
        <ele>12.630000000000001</ele>
        <time>2018-07-05T07:00:30Z</time>
      </trkpt>
      <trkpt lat="48.61437002196908" lon="-1.498786965385079">
        <ele>12.630000000000001</ele>
        <time>2018-07-05T07:00:31Z</time>
      </trkpt>
      <trkpt lat="48.614355018362403" lon="-1.49883097037673">
        <ele>12.630000000000001</ele>
        <time>2018-07-05T07:00:32Z</time>
      </trkpt>
      <trkpt lat="48.614346971735358" lon="-1.498857038095594">
        <ele>12.630000000000001</ele>
        <time>2018-07-05T07:00:33Z</time>
      </trkpt>
      <trkpt lat="48.61437002196908" lon="-1.498785959556699">
        <ele>13.119999999999999</ele>
        <time>2018-07-05T07:00:36Z</time>
      </trkpt>
      <trkpt lat="48.614391982555389" lon="-1.498719993978739">
        <ele>12.630000000000001</ele>
        <time>2018-07-05T07:00:37Z</time>
      </trkpt>
      <trkpt lat="48.61441302113235" lon="-1.498657967895269">
        <ele>12.630000000000001</ele>
        <time>2018-07-05T07:00:38Z</time>
      </trkpt>
      <trkpt lat="48.614426013082266" lon="-1.498599965125322">
        <ele>13.119999999999999</ele>
        <time>2018-07-05T07:00:42Z</time>
      </trkpt>
      <trkpt lat="48.614416960626841" lon="-1.498646987602115">
        <ele>12.630000000000001</ele>
        <time>2018-07-05T07:00:43Z</time>
      </trkpt>
      <trkpt lat="48.614387959241867" lon="-1.498732985928655">
        <ele>12.630000000000001</ele>
        <time>2018-07-05T07:00:44Z</time>
      </trkpt>
      <trkpt lat="48.614357030019164" lon="-1.498826025053859">
        <ele>12.630000000000001</ele>
        <time>2018-07-05T07:00:45Z</time>
      </trkpt>
      <trkpt lat="48.614322999492288" lon="-1.498928032815456">
        <ele>12.630000000000001</ele>
        <time>2018-07-05T07:00:46Z</time>
      </trkpt>
      <trkpt lat="48.614286035299301" lon="-1.499039009213448">
        <ele>12.630000000000001</ele>
        <time>2018-07-05T07:00:47Z</time>
      </trkpt>
      <trkpt lat="48.614240018650889" lon="-1.499136993661523">
        <ele>12.15</ele>
        <time>2018-07-05T07:00:48Z</time>
      </trkpt>
      <trkpt lat="48.614181010052562" lon="-1.499226009473205">
        <ele>12.15</ele>
        <time>2018-07-05T07:00:49Z</time>
      </trkpt>
      <trkpt lat="48.614084031432867" lon="-1.499236989766359">
        <ele>11.67</ele>
        <time>2018-07-05T07:00:50Z</time>
      </trkpt>
      <trkpt lat="48.613987974822521" lon="-1.499247970059514">
        <ele>11.67</ele>
        <time>2018-07-05T07:00:51Z</time>
      </trkpt>
      <trkpt lat="48.613894013687968" lon="-1.499207988381386">
        <ele>11.67</ele>
        <time>2018-07-05T07:00:52Z</time>
      </trkpt>
      <trkpt lat="48.613793011754751" lon="-1.499154008924961">
        <ele>11.67</ele>
        <time>2018-07-05T07:00:53Z</time>
      </trkpt>
      <trkpt lat="48.613685974851251" lon="-1.499081002548337">
        <ele>11.67</ele>
        <time>2018-07-05T07:00:54Z</time>
      </trkpt>
      <trkpt lat="48.613574998453259" lon="-1.499005984514952">
        <ele>11.19</ele>
        <time>2018-07-05T07:00:55Z</time>
      </trkpt>
      <trkpt lat="48.612271025776863" lon="-1.498152958229184">
        <ele>10.710000000000001</ele>
        <time>2018-07-05T07:01:06Z</time>
      </trkpt>
      <trkpt lat="48.612167006358504" lon="-1.498152958229184">
        <ele>10.23</ele>
        <time>2018-07-05T07:01:07Z</time>
      </trkpt>
      <trkpt lat="48.612069021910429" lon="-1.498200986534357">
        <ele>9.75</ele>
        <time>2018-07-05T07:01:08Z</time>
      </trkpt>
      <trkpt lat="48.61198402941227" lon="-1.498278016224504">
        <ele>9.75</ele>
        <time>2018-07-05T07:01:09Z</time>
      </trkpt>
      <trkpt lat="48.611899958923459" lon="-1.498354962095618">
        <ele>9.75</ele>
        <time>2018-07-05T07:01:10Z</time>
      </trkpt>
      <trkpt lat="48.611823013052344" lon="-1.498478008434176">
        <ele>9.75</ele>
        <time>2018-07-05T07:01:11Z</time>
      </trkpt>
      <trkpt lat="48.611762998625636" lon="-1.49861304089427">
        <ele>9.75</ele>
        <time>2018-07-05T07:01:12Z</time>
      </trkpt>
      <trkpt lat="48.611238962039351" lon="-1.499778963625431">
        <ele>11.67</ele>
        <time>2018-07-05T07:01:22Z</time>
      </trkpt>
      <trkpt lat="48.611218007281423" lon="-1.499823974445462">
        <ele>11.67</ele>
        <time>2018-07-05T07:01:23Z</time>
      </trkpt>
      <trkpt lat="48.611240973696113" lon="-1.500041987746954">
        <ele>12.15</ele>
        <time>2018-07-05T07:01:27Z</time>
      </trkpt>
      <trkpt lat="48.611209960654378" lon="-1.500151036307216">
        <ele>12.15</ele>
        <time>2018-07-05T07:01:28Z</time>
      </trkpt>
      <trkpt lat="48.611163021996617" lon="-1.500185988843441">
        <ele>12.15</ele>
        <time>2018-07-05T07:01:29Z</time>
      </trkpt>
      <trkpt lat="48.611031007021666" lon="-1.500218007713556">
        <ele>11.67</ele>
        <time>2018-07-05T07:01:31Z</time>
      </trkpt>
      <trkpt lat="48.610991025343537" lon="-1.500293025746942">
        <ele>11.67</ele>
        <time>2018-07-05T07:01:32Z</time>
      </trkpt>
      <trkpt lat="48.610949032008648" lon="-1.500369971618056">
        <ele>11.67</ele>
        <time>2018-07-05T07:01:33Z</time>
      </trkpt>
      <trkpt lat="48.610904021188617" lon="-1.500451024621725">
        <ele>11.67</ele>
        <time>2018-07-05T07:01:34Z</time>
      </trkpt>
      <trkpt lat="48.610858004540205" lon="-1.500535011291504">
        <ele>11.67</ele>
        <time>2018-07-05T07:01:35Z</time>
      </trkpt>
      <trkpt lat="48.610274037346244" lon="-1.501934034749866">
        <ele>11.67</ele>
        <time>2018-07-05T07:01:47Z</time>
      </trkpt>
      <trkpt lat="48.60970901325345" lon="-1.503344960510731">
        <ele>12.15</ele>
        <time>2018-07-05T07:01:56Z</time>
      </trkpt>
      <trkpt lat="48.609656039625406" lon="-1.503478987142444">
        <ele>12.15</ele>
        <time>2018-07-05T07:01:57Z</time>
      </trkpt>
      <trkpt lat="48.609575992450118" lon="-1.503563979640603">
        <ele>11.67</ele>
        <time>2018-07-05T07:01:58Z</time>
      </trkpt>
      <trkpt lat="48.60949301160872" lon="-1.503602033481002">
        <ele>11.67</ele>
        <time>2018-07-05T07:01:59Z</time>
      </trkpt>
      <trkpt lat="48.609416987746954" lon="-1.503636986017227">
        <ele>11.67</ele>
        <time>2018-07-05T07:02:00Z</time>
      </trkpt>
      <trkpt lat="48.609352027997375" lon="-1.503627011552453">
        <ele>11.67</ele>
        <time>2018-07-05T07:02:01Z</time>
      </trkpt>
      <trkpt lat="48.609282961115241" lon="-1.503597004339099">
        <ele>11.67</ele>
        <time>2018-07-05T07:02:02Z</time>
      </trkpt>
    </trkseg>
  </trk>

  <trk>
    <name>Track vom: 2018-07-05 09:02</name>
    <extensions>
      <gpxx:TrackExtension>
        <gpxx:DisplayColor>DarkGray</gpxx:DisplayColor>
      </gpxx:TrackExtension>
    </extensions>
    <trkseg>
      <trkpt lat="48.609138960018754" lon="-1.503533972427249">
        <ele>11.67</ele>
        <time>2018-07-05T07:02:04Z</time>
      </trkpt>
      <trkpt lat="48.608589023351669" lon="-1.503361975774169">
        <ele>11.19</ele>
        <time>2018-07-05T07:02:10Z</time>
      </trkpt>
      <trkpt lat="48.608492966741323" lon="-1.503374967724085">
        <ele>10.710000000000001</ele>
        <time>2018-07-05T07:02:11Z</time>
      </trkpt>
      <trkpt lat="48.608403028920293" lon="-1.503387037664652">
        <ele>10.23</ele>
        <time>2018-07-05T07:02:12Z</time>
      </trkpt>
      <trkpt lat="48.60833496786654" lon="-1.503487033769488">
        <ele>10.710000000000001</ele>
        <time>2018-07-05T07:02:13Z</time>
      </trkpt>
      <trkpt lat="48.608277970924973" lon="-1.503592981025577">
        <ele>10.23</ele>
        <time>2018-07-05T07:02:14Z</time>
      </trkpt>
      <trkpt lat="48.608215022832155" lon="-1.503710998222232">
        <ele>10.23</ele>
        <time>2018-07-05T07:02:15Z</time>
      </trkpt>
      <trkpt lat="48.608204964548349" lon="-1.503853993490338">
        <ele>10.710000000000001</ele>
        <time>2018-07-05T07:02:16Z</time>
      </trkpt>
      <trkpt lat="48.608192978426814" lon="-1.504011992365122">
        <ele>10.710000000000001</ele>
        <time>2018-07-05T07:02:17Z</time>
      </trkpt>
      <trkpt lat="48.608179986476898" lon="-1.50417996570468">
        <ele>10.710000000000001</ele>
        <time>2018-07-05T07:02:18Z</time>
      </trkpt>
      <trkpt lat="48.607993992045522" lon="-1.506706019863486">
        <ele>10.710000000000001</ele>
        <time>2018-07-05T07:02:31Z</time>
      </trkpt>
      <trkpt lat="48.607967002317309" lon="-1.508323978632689">
        <ele>12.15</ele>
        <time>2018-07-05T07:02:40Z</time>
      </trkpt>
      <trkpt lat="48.608150985091925" lon="-1.509632980450988">
        <ele>13.119999999999999</ele>
        <time>2018-07-05T07:02:49Z</time>
      </trkpt>
      <trkpt lat="48.608131958171725" lon="-1.509819980710745">
        <ele>13.119999999999999</ele>
        <time>2018-07-05T07:02:51Z</time>
      </trkpt>
      <trkpt lat="48.608113015070558" lon="-1.510017039254308">
        <ele>13.6</ele>
        <time>2018-07-05T07:02:54Z</time>
      </trkpt>
      <trkpt lat="48.608184009790421" lon="-1.510137990117073">
        <ele>13.6</ele>
        <time>2018-07-05T07:02:55Z</time>
      </trkpt>
      <trkpt lat="48.608215022832155" lon="-1.510170008987188">
        <ele>13.6</ele>
        <time>2018-07-05T07:02:56Z</time>
      </trkpt>
      <trkpt lat="48.608279982581735" lon="-1.51017596013844">
        <ele>14.08</ele>
        <time>2018-07-05T07:02:57Z</time>
      </trkpt>
      <trkpt lat="48.608337985351682" lon="-1.510181995108724">
        <ele>14.08</ele>
        <time>2018-07-05T07:02:58Z</time>
      </trkpt>
      <trkpt lat="48.608400011435151" lon="-1.510188030079007">
        <ele>13.6</ele>
        <time>2018-07-05T07:02:59Z</time>
      </trkpt>
      <trkpt lat="48.608470000326633" lon="-1.510183000937104">
        <ele>14.08</ele>
        <time>2018-07-05T07:03:00Z</time>
      </trkpt>
      <trkpt lat="48.609268041327596" lon="-1.510027013719082">
        <ele>13.119999999999999</ele>
        <time>2018-07-05T07:03:11Z</time>
      </trkpt>
      <trkpt lat="48.609890984371305" lon="-1.509962975978851">
        <ele>12.15</ele>
        <time>2018-07-05T07:03:23Z</time>
      </trkpt>
      <trkpt lat="48.610263979062438" lon="-1.509924000129104">
        <ele>12.630000000000001</ele>
        <time>2018-07-05T07:03:35Z</time>
      </trkpt>
      <trkpt lat="48.610263979062438" lon="-1.509924000129104">
        <ele>13.119999999999999</ele>
        <time>2018-07-05T07:03:51Z</time>
      </trkpt>
      <trkpt lat="48.610306978225708" lon="-1.509919976815581">
        <ele>13.119999999999999</ele>
        <time>2018-07-05T07:04:07Z</time>
      </trkpt>
      <trkpt lat="48.610377972945571" lon="-1.509862979874015">
        <ele>13.119999999999999</ele>
        <time>2018-07-05T07:04:08Z</time>
      </trkpt>
      <trkpt lat="48.61037403345108" lon="-1.509816041216254">
        <ele>12.630000000000001</ele>
        <time>2018-07-05T07:04:09Z</time>
      </trkpt>
      <trkpt lat="48.610367998480797" lon="-1.509748985990882">
        <ele>12.15</ele>
        <time>2018-07-05T07:04:10Z</time>
      </trkpt>
      <trkpt lat="48.610360035672784" lon="-1.50965603068471">
        <ele>12.15</ele>
        <time>2018-07-05T07:04:11Z</time>
      </trkpt>
      <trkpt lat="48.610350983217359" lon="-1.509546982124448">
        <ele>11.67</ele>
        <time>2018-07-05T07:04:12Z</time>
      </trkpt>
      <trkpt lat="48.610306978225708" lon="-1.509050019085407">
        <ele>10.23</ele>
        <time>2018-07-05T07:04:16Z</time>
      </trkpt>
      <trkpt lat="48.610297003760934" lon="-1.508936025202274">
        <ele>9.75</ele>
        <time>2018-07-05T07:04:17Z</time>
      </trkpt>
      <trkpt lat="48.61026800237596" lon="-1.508609969168901">
        <ele>8.789999999999999</ele>
        <time>2018-07-05T07:04:21Z</time>
      </trkpt>
      <trkpt lat="48.610231038182974" lon="-1.508187018334866">
        <ele>7.83</ele>
        <time>2018-07-05T07:04:31Z</time>
      </trkpt>
      <trkpt lat="48.610230032354593" lon="-1.507958024740219">
        <ele>7.83</ele>
        <time>2018-07-05T07:04:40Z</time>
      </trkpt>
      <trkpt lat="48.610255010426044" lon="-1.507955007255077">
        <ele>7.83</ele>
        <time>2018-07-05T07:04:41Z</time>
      </trkpt>
      <trkpt lat="48.610297003760934" lon="-1.507950983941555">
        <ele>8.310000000000001</ele>
        <time>2018-07-05T07:04:42Z</time>
      </trkpt>
      <trkpt lat="48.610928999260068" lon="-1.507859034463763">
        <ele>9.75</ele>
        <time>2018-07-05T07:04:51Z</time>
      </trkpt>
      <trkpt lat="48.611452030017972" lon="-1.507783010601997">
        <ele>10.23</ele>
        <time>2018-07-05T07:05:00Z</time>
      </trkpt>
      <trkpt lat="48.611452030017972" lon="-1.507783010601997">
        <ele>10.23</ele>
        <time>2018-07-05T07:05:08Z</time>
      </trkpt>
      <trkpt lat="48.611511960625648" lon="-1.507772030308843">
        <ele>10.23</ele>
        <time>2018-07-05T07:05:09Z</time>
      </trkpt>
      <trkpt lat="48.6115110386163" lon="-1.507772030308843">
        <ele>10.23</ele>
        <time>2018-07-05T07:05:10Z</time>
      </trkpt>
      <trkpt lat="48.611499974504113" lon="-1.507773958146572">
        <ele>10.23</ele>
        <time>2018-07-05T07:05:11Z</time>
      </trkpt>
      <trkpt lat="48.611482959240675" lon="-1.507776975631714">
        <ele>10.23</ele>
        <time>2018-07-05T07:05:12Z</time>
      </trkpt>
      <trkpt lat="48.611459992825985" lon="-1.507780998945236">
        <ele>10.23</ele>
        <time>2018-07-05T07:05:13Z</time>
      </trkpt>
      <trkpt lat="48.611128991469741" lon="-1.507825003936887">
        <ele>9.75</ele>
        <time>2018-07-05T07:05:24Z</time>
      </trkpt>
      <trkpt lat="48.610903015360236" lon="-1.507863979786634">
        <ele>9.27</ele>
        <time>2018-07-05T07:05:28Z</time>
      </trkpt>
      <trkpt lat="48.610609984025359" lon="-1.507901027798653">
        <ele>8.789999999999999</ele>
        <time>2018-07-05T07:05:33Z</time>
      </trkpt>
      <trkpt lat="48.610299015417695" lon="-1.507950983941555">
        <ele>8.310000000000001</ele>
        <time>2018-07-05T07:05:40Z</time>
      </trkpt>
      <trkpt lat="48.610125007107854" lon="-1.507971016690135">
        <ele>8.310000000000001</ele>
        <time>2018-07-05T07:05:50Z</time>
      </trkpt>
      <trkpt lat="48.6094940174371" lon="-1.508039999753237">
        <ele>8.310000000000001</ele>
        <time>2018-07-05T07:05:59Z</time>
      </trkpt>
      <trkpt lat="48.608552981168032" lon="-1.508147958666086">
        <ele>7.35</ele>
        <time>2018-07-05T07:06:13Z</time>
      </trkpt>
      <trkpt lat="48.608378972858191" lon="-1.508170003071427">
        <ele>8.310000000000001</ele>
        <time>2018-07-05T07:06:21Z</time>
      </trkpt>
      <trkpt lat="48.608217034488916" lon="-1.508202021941543">
        <ele>8.789999999999999</ele>
        <time>2018-07-05T07:06:34Z</time>
      </trkpt>
      <trkpt lat="48.608050988987088" lon="-1.508238986134529">
        <ele>8.310000000000001</ele>
        <time>2018-07-05T07:06:38Z</time>
      </trkpt>
      <trkpt lat="48.608022993430495" lon="-1.508245021104813">
        <ele>8.310000000000001</ele>
        <time>2018-07-05T07:06:39Z</time>
      </trkpt>
      <trkpt lat="48.607973037287593" lon="-1.5083699952811">
        <ele>8.310000000000001</ele>
        <time>2018-07-05T07:06:40Z</time>
      </trkpt>
      <trkpt lat="48.607982005923986" lon="-1.50843302719295">
        <ele>8.310000000000001</ele>
        <time>2018-07-05T07:06:41Z</time>
      </trkpt>
      <trkpt lat="48.607991980388761" lon="-1.508505027741194">
        <ele>7.83</ele>
        <time>2018-07-05T07:06:42Z</time>
      </trkpt>
      <trkpt lat="48.608004972338676" lon="-1.508593959733844">
        <ele>8.310000000000001</ele>
        <time>2018-07-05T07:06:43Z</time>
      </trkpt>
      <trkpt lat="48.608018970116973" lon="-1.508694039657712">
        <ele>8.789999999999999</ele>
        <time>2018-07-05T07:06:44Z</time>
      </trkpt>
      <trkpt lat="48.608034979552031" lon="-1.508806021884084">
        <ele>8.789999999999999</ele>
        <time>2018-07-05T07:06:45Z</time>
      </trkpt>
      <trkpt lat="48.608141010627151" lon="-1.509732976555824">
        <ele>11.19</ele>
        <time>2018-07-05T07:06:52Z</time>
      </trkpt>
      <trkpt lat="48.608117960393429" lon="-1.509962975978851">
        <ele>12.15</ele>
        <time>2018-07-05T07:06:54Z</time>
      </trkpt>
      <trkpt lat="48.608177974820137" lon="-1.510132038965821">
        <ele>12.15</ele>
        <time>2018-07-05T07:06:55Z</time>
      </trkpt>
      <trkpt lat="48.608215022832155" lon="-1.510170008987188">
        <ele>13.119999999999999</ele>
        <time>2018-07-05T07:06:56Z</time>
      </trkpt>
      <trkpt lat="48.608310995623469" lon="-1.510178977623582">
        <ele>13.119999999999999</ele>
        <time>2018-07-05T07:06:57Z</time>
      </trkpt>
      <trkpt lat="48.608430018648505" lon="-1.510190963745117">
        <ele>13.119999999999999</ele>
        <time>2018-07-05T07:06:58Z</time>
      </trkpt>
      <trkpt lat="48.608524985611439" lon="-1.510171014815569">
        <ele>13.119999999999999</ele>
        <time>2018-07-05T07:06:59Z</time>
      </trkpt>
      <trkpt lat="48.609719993546605" lon="-1.50998099707067">
        <ele>13.6</ele>
        <time>2018-07-05T07:07:09Z</time>
      </trkpt>
      <trkpt lat="48.61026800237596" lon="-1.509924000129104">
        <ele>13.119999999999999</ele>
        <time>2018-07-05T07:07:17Z</time>
      </trkpt>
      <trkpt lat="48.610319970175624" lon="-1.509918970987201">
        <ele>13.119999999999999</ele>
        <time>2018-07-05T07:07:26Z</time>
      </trkpt>
      <trkpt lat="48.61037696711719" lon="-1.509847976267338">
        <ele>13.119999999999999</ele>
        <time>2018-07-05T07:07:40Z</time>
      </trkpt>
      <trkpt lat="48.61037403345108" lon="-1.509812017902732">
        <ele>13.119999999999999</ele>
        <time>2018-07-05T07:07:41Z</time>
      </trkpt>
      <trkpt lat="48.610370010137558" lon="-1.509761977940798">
        <ele>13.119999999999999</ele>
        <time>2018-07-05T07:07:42Z</time>
      </trkpt>
      <trkpt lat="48.610361963510513" lon="-1.509682014584541">
        <ele>12.630000000000001</ele>
        <time>2018-07-05T07:07:43Z</time>
      </trkpt>
      <trkpt lat="48.61035299487412" lon="-1.509576989337802">
        <ele>12.630000000000001</ele>
        <time>2018-07-05T07:07:44Z</time>
      </trkpt>
      <trkpt lat="48.610306978225708" lon="-1.509050019085407">
        <ele>12.15</ele>
        <time>2018-07-05T07:07:49Z</time>
      </trkpt>
      <trkpt lat="48.610264984890819" lon="-1.508568981662393">
        <ele>11.67</ele>
        <time>2018-07-05T07:07:55Z</time>
      </trkpt>
      <trkpt lat="48.610252998769283" lon="-1.50843302719295">
        <ele>11.67</ele>
        <time>2018-07-05T07:07:57Z</time>
      </trkpt>
      <trkpt lat="48.610246041789651" lon="-1.508361026644707">
        <ele>11.19</ele>
        <time>2018-07-05T07:07:58Z</time>
      </trkpt>
      <trkpt lat="48.610240006819367" lon="-1.508294977247715">
        <ele>11.19</ele>
        <time>2018-07-05T07:07:59Z</time>
      </trkpt>
      <trkpt lat="48.610221985727549" lon="-1.508079981431365">
        <ele>11.19</ele>
        <time>2018-07-05T07:08:05Z</time>
      </trkpt>
      <trkpt lat="48.610218968242407" lon="-1.508049974218011">
        <ele>11.19</ele>
        <time>2018-07-05T07:08:06Z</time>
      </trkpt>
      <trkpt lat="48.610216034576297" lon="-1.508020972833037">
        <ele>11.19</ele>
        <time>2018-07-05T07:08:07Z</time>
      </trkpt>
      <trkpt lat="48.610168006271124" lon="-1.507964981719852">
        <ele>10.710000000000001</ele>
        <time>2018-07-05T07:08:08Z</time>
      </trkpt>
      <trkpt lat="48.610168006271124" lon="-1.507964981719852">
        <ele>10.710000000000001</ele>
        <time>2018-07-05T07:08:09Z</time>
      </trkpt>
      <trkpt lat="48.610065998509526" lon="-1.507978979498148">
        <ele>10.710000000000001</ele>
        <time>2018-07-05T07:08:10Z</time>
      </trkpt>
      <trkpt lat="48.61001000739634" lon="-1.507986020296812">
        <ele>10.710000000000001</ele>
        <time>2018-07-05T07:08:11Z</time>
      </trkpt>
      <trkpt lat="48.609569035470486" lon="-1.508032958954573">
        <ele>9.75</ele>
        <time>2018-07-05T07:08:20Z</time>
      </trkpt>
      <trkpt lat="48.609478008002043" lon="-1.508042011409998">
        <ele>9.75</ele>
        <time>2018-07-05T07:08:22Z</time>
      </trkpt>
      <trkpt lat="48.609182965010405" lon="-1.508081993088126">
        <ele>10.710000000000001</ele>
        <time>2018-07-05T07:08:30Z</time>
      </trkpt>
      <trkpt lat="48.608617018908262" lon="-1.508141001686454">
        <ele>11.67</ele>
        <time>2018-07-05T07:08:37Z</time>
      </trkpt>
      <trkpt lat="48.608030034229159" lon="-1.508244015276432">
        <ele>13.119999999999999</ele>
        <time>2018-07-05T07:08:45Z</time>
      </trkpt>
      <trkpt lat="48.607944035902619" lon="-1.508148964494467">
        <ele>13.6</ele>
        <time>2018-07-05T07:08:47Z</time>
      </trkpt>
      <trkpt lat="48.607935989275575" lon="-1.50808802805841">
        <ele>13.6</ele>
        <time>2018-07-05T07:08:48Z</time>
      </trkpt>
      <trkpt lat="48.607942024245858" lon="-1.507941009476781">
        <ele>14.08</ele>
        <time>2018-07-05T07:08:49Z</time>
      </trkpt>
      <trkpt lat="48.60798804089427" lon="-1.506830994039774">
        <ele>11.67</ele>
        <time>2018-07-05T07:08:55Z</time>
      </trkpt>
      <trkpt lat="48.608151990920305" lon="-1.504557989537716">
        <ele>10.23</ele>
        <time>2018-07-05T07:09:03Z</time>
      </trkpt>
      <trkpt lat="48.608209993690252" lon="-1.503787022083998">
        <ele>10.23</ele>
        <time>2018-07-05T07:09:06Z</time>
      </trkpt>
      <trkpt lat="48.608266990631819" lon="-1.503613013774157">
        <ele>10.23</ele>
        <time>2018-07-05T07:09:07Z</time>
      </trkpt>
      <trkpt lat="48.60833496786654" lon="-1.503487033769488">
        <ele>10.23</ele>
        <time>2018-07-05T07:09:08Z</time>
      </trkpt>
      <trkpt lat="48.608387019485235" lon="-1.503388965502381">
        <ele>10.23</ele>
        <time>2018-07-05T07:09:09Z</time>
      </trkpt>
      <trkpt lat="48.608387019485235" lon="-1.503388965502381">
        <ele>10.23</ele>
        <time>2018-07-05T07:09:10Z</time>
      </trkpt>
      <trkpt lat="48.608600003644824" lon="-1.503360969945788">
        <ele>10.710000000000001</ele>
        <time>2018-07-05T07:09:11Z</time>
      </trkpt>
      <trkpt lat="48.608708968386054" lon="-1.503345966339111">
        <ele>10.710000000000001</ele>
        <time>2018-07-05T07:09:12Z</time>
      </trkpt>
      <trkpt lat="48.608822962269187" lon="-1.503396006301045">
        <ele>11.19</ele>
        <time>2018-07-05T07:09:13Z</time>
      </trkpt>
      <trkpt lat="48.608948020264506" lon="-1.503450991585851">
        <ele>11.19</ele>
        <time>2018-07-05T07:09:14Z</time>
      </trkpt>
      <trkpt lat="48.609325960278511" lon="-1.503616031259298">
        <ele>11.19</ele>
        <time>2018-07-05T07:09:17Z</time>
      </trkpt>
      <trkpt lat="48.609455041587353" lon="-1.503618964925408">
        <ele>11.19</ele>
        <time>2018-07-05T07:09:18Z</time>
      </trkpt>
      <trkpt lat="48.609555037692189" lon="-1.503574037924409">
        <ele>11.19</ele>
        <time>2018-07-05T07:09:19Z</time>
      </trkpt>
      <trkpt lat="48.609646987169981" lon="-1.503501031547785">
        <ele>11.67</ele>
        <time>2018-07-05T07:09:20Z</time>
      </trkpt>
      <trkpt lat="48.609693003818393" lon="-1.503386031836271">
        <ele>11.67</ele>
        <time>2018-07-05T07:09:21Z</time>
      </trkpt>
      <trkpt lat="48.609742959961295" lon="-1.503259968012571">
        <ele>11.67</ele>
        <time>2018-07-05T07:09:22Z</time>
      </trkpt>
      <trkpt lat="48.609796017408371" lon="-1.503128958866">
        <ele>11.67</ele>
        <time>2018-07-05T07:09:23Z</time>
      </trkpt>
      <trkpt lat="48.61048199236393" lon="-1.501417960971594">
        <ele>11.19</ele>
        <time>2018-07-05T07:09:34Z</time>
      </trkpt>
      <trkpt lat="48.610992031171918" lon="-1.50029101409018">
        <ele>11.19</ele>
        <time>2018-07-05T07:09:42Z</time>
      </trkpt>
      <trkpt lat="48.611030001193285" lon="-1.500222031027079">
        <ele>11.67</ele>
        <time>2018-07-05T07:09:43Z</time>
      </trkpt>
      <trkpt lat="48.611067971214652" lon="-1.500151958316565">
        <ele>11.67</ele>
        <time>2018-07-05T07:09:44Z</time>
      </trkpt>
      <trkpt lat="48.611068977043033" lon="-1.500027989968658">
        <ele>11.67</ele>
        <time>2018-07-05T07:09:45Z</time>
      </trkpt>
      <trkpt lat="48.611095966771245" lon="-1.499921036884189">
        <ele>11.19</ele>
        <time>2018-07-05T07:09:46Z</time>
      </trkpt>
      <trkpt lat="48.611146006733179" lon="-1.499895974993706">
        <ele>11.67</ele>
        <time>2018-07-05T07:09:47Z</time>
      </trkpt>
      <trkpt lat="48.61121297813952" lon="-1.499916007742286">
        <ele>11.67</ele>
        <time>2018-07-05T07:09:48Z</time>
      </trkpt>
      <trkpt lat="48.611235022544861" lon="-1.499979961663485">
        <ele>11.67</ele>
        <time>2018-07-05T07:09:49Z</time>
      </trkpt>
      <trkpt lat="48.611240973696113" lon="-1.499998988583684">
        <ele>11.67</ele>
        <time>2018-07-05T07:09:50Z</time>
      </trkpt>
      <trkpt lat="48.611286990344524" lon="-1.500167967751622">
        <ele>12.15</ele>
        <time>2018-07-05T07:09:51Z</time>
      </trkpt>
      <trkpt lat="48.611352033913136" lon="-1.500223958864808">
        <ele>12.15</ele>
        <time>2018-07-05T07:09:52Z</time>
      </trkpt>
      <trkpt lat="48.611412970349193" lon="-1.500278022140265">
        <ele>12.15</ele>
        <time>2018-07-05T07:09:53Z</time>
      </trkpt>
      <trkpt lat="48.611502991989255" lon="-1.500320015475154">
        <ele>12.630000000000001</ele>
        <time>2018-07-05T07:09:54Z</time>
      </trkpt>
      <trkpt lat="48.61157700419426" lon="-1.50035597383976">
        <ele>12.630000000000001</ele>
        <time>2018-07-05T07:09:55Z</time>
      </trkpt>
      <trkpt lat="48.612320981919765" lon="-1.500725029036403">
        <ele>11.67</ele>
        <time>2018-07-05T07:10:05Z</time>
      </trkpt>
      <trkpt lat="48.61301600933075" lon="-1.501069022342563">
        <ele>12.630000000000001</ele>
        <time>2018-07-05T07:10:17Z</time>
      </trkpt>
      <trkpt lat="48.613037969917059" lon="-1.501077990978956">
        <ele>13.119999999999999</ele>
        <time>2018-07-05T07:10:26Z</time>
      </trkpt>
      <trkpt lat="48.613294959068298" lon="-1.501181004568934">
        <ele>13.6</ele>
        <time>2018-07-05T07:10:33Z</time>
      </trkpt>
      <trkpt lat="48.613497968763113" lon="-1.501288041472435">
        <ele>13.6</ele>
        <time>2018-07-05T07:10:40Z</time>
      </trkpt>
      <trkpt lat="48.613506015390158" lon="-1.501291980966926">
        <ele>13.6</ele>
        <time>2018-07-05T07:10:41Z</time>
      </trkpt>
      <trkpt lat="48.613495035097003" lon="-1.501387031748891">
        <ele>13.6</ele>
        <time>2018-07-05T07:10:43Z</time>
      </trkpt>
      <trkpt lat="48.61346997320652" lon="-1.501466995105147">
        <ele>12.15</ele>
        <time>2018-07-05T07:11:01Z</time>
      </trkpt>
      <trkpt lat="48.613436026498675" lon="-1.50160001590848">
        <ele>11.19</ele>
        <time>2018-07-05T07:11:18Z</time>
      </trkpt>
      <trkpt lat="48.613366037607193" lon="-1.501863040030003">
        <ele>9.75</ele>
        <time>2018-07-05T07:11:46Z</time>
      </trkpt>
      <trkpt lat="48.613165961578488" lon="-1.502771973609924">
        <ele>9.75</ele>
        <time>2018-07-05T07:11:56Z</time>
      </trkpt>
      <trkpt lat="48.613085998222232" lon="-1.503186961635947">
        <ele>10.23</ele>
        <time>2018-07-05T07:12:07Z</time>
      </trkpt>
      <trkpt lat="48.613084992393851" lon="-1.503200959414244">
        <ele>10.23</ele>
        <time>2018-07-05T07:12:22Z</time>
      </trkpt>
      <trkpt lat="48.613084992393851" lon="-1.503200959414244">
        <ele>10.23</ele>
        <time>2018-07-05T07:12:43Z</time>
      </trkpt>
      <trkpt lat="48.613087004050612" lon="-1.503195008262992">
        <ele>10.23</ele>
        <time>2018-07-05T07:13:00Z</time>
      </trkpt>
      <trkpt lat="48.613087004050612" lon="-1.503195008262992">
        <ele>10.23</ele>
        <time>2018-07-05T07:13:24Z</time>
      </trkpt>
      <trkpt lat="48.613088009878993" lon="-1.50319098494947">
        <ele>11.19</ele>
        <time>2018-07-05T07:14:19Z</time>
      </trkpt>
    </trkseg>
  </trk>

  <trk>
    <name>Track vom: 2018-07-05 11:11</name>
    <extensions>
      <gpxx:TrackExtension>
        <gpxx:DisplayColor>DarkGray</gpxx:DisplayColor>
      </gpxx:TrackExtension>
    </extensions>
    <trkseg>
      <trkpt lat="48.613737020641565" lon="-1.501406980678439">
        <ele>5.42</ele>
        <time>2018-07-05T09:11:19Z</time>
      </trkpt>
      <trkpt lat="48.613916980102658" lon="-1.501242024824023">
        <ele>7.83</ele>
        <time>2018-07-05T09:11:29Z</time>
      </trkpt>
      <trkpt lat="48.614040026441216" lon="-1.500445995479822">
        <ele>8.789999999999999</ele>
        <time>2018-07-05T09:11:39Z</time>
      </trkpt>
      <trkpt lat="48.614186961203814" lon="-1.499498002231121">
        <ele>11.19</ele>
        <time>2018-07-05T09:11:48Z</time>
      </trkpt>
      <trkpt lat="48.614201964810491" lon="-1.499398006126285">
        <ele>11.67</ele>
        <time>2018-07-05T09:11:49Z</time>
      </trkpt>
      <trkpt lat="48.614198025316" lon="-1.499365987256169">
        <ele>11.67</ele>
        <time>2018-07-05T09:11:50Z</time>
      </trkpt>
      <trkpt lat="48.614191990345716" lon="-1.499316031113267">
        <ele>12.15</ele>
        <time>2018-07-05T09:11:51Z</time>
      </trkpt>
      <trkpt lat="48.614188972860575" lon="-1.499289041385055">
        <ele>12.15</ele>
        <time>2018-07-05T09:11:52Z</time>
      </trkpt>
      <trkpt lat="48.614106997847557" lon="-1.499233972281218">
        <ele>13.119999999999999</ele>
        <time>2018-07-05T09:11:56Z</time>
      </trkpt>
      <trkpt lat="48.61404899507761" lon="-1.499241013079882">
        <ele>13.119999999999999</ele>
        <time>2018-07-05T09:11:57Z</time>
      </trkpt>
      <trkpt lat="48.613972971215844" lon="-1.499242018908262">
        <ele>13.119999999999999</ele>
        <time>2018-07-05T09:11:58Z</time>
      </trkpt>
      <trkpt lat="48.613894013687968" lon="-1.499207988381386">
        <ele>13.6</ele>
        <time>2018-07-05T09:11:59Z</time>
      </trkpt>
      <trkpt lat="48.61381103284657" lon="-1.499165995046496">
        <ele>13.6</ele>
        <time>2018-07-05T09:12:00Z</time>
      </trkpt>
      <trkpt lat="48.613726962357759" lon="-1.499107992276549">
        <ele>13.6</ele>
        <time>2018-07-05T09:12:01Z</time>
      </trkpt>
      <trkpt lat="48.612647037953138" lon="-1.498379018157721">
        <ele>14.56</ele>
        <time>2018-07-05T09:12:11Z</time>
      </trkpt>
      <trkpt lat="48.612349983304739" lon="-1.498178020119667">
        <ele>14.56</ele>
        <time>2018-07-05T09:12:14Z</time>
      </trkpt>
      <trkpt lat="48.612248981371522" lon="-1.498152958229184">
        <ele>14.56</ele>
        <time>2018-07-05T09:12:15Z</time>
      </trkpt>
      <trkpt lat="48.612149991095066" lon="-1.498152958229184">
        <ele>14.56</ele>
        <time>2018-07-05T09:12:16Z</time>
      </trkpt>
      <trkpt lat="48.612054018303752" lon="-1.498213978484273">
        <ele>14.56</ele>
        <time>2018-07-05T09:12:17Z</time>
      </trkpt>
      <trkpt lat="48.611969025805593" lon="-1.498293019831181">
        <ele>14.56</ele>
        <time>2018-07-05T09:12:18Z</time>
      </trkpt>
      <trkpt lat="48.611862994730473" lon="-1.498388992622495">
        <ele>14.56</ele>
        <time>2018-07-05T09:12:19Z</time>
      </trkpt>
      <trkpt lat="48.611813960596919" lon="-1.498498041182756">
        <ele>14.56</ele>
        <time>2018-07-05T09:12:20Z</time>
      </trkpt>
      <trkpt lat="48.611761992797256" lon="-1.49861304089427">
        <ele>14.56</ele>
        <time>2018-07-05T09:12:21Z</time>
      </trkpt>
      <trkpt lat="48.611383968964219" lon="-1.499456008896232">
        <ele>14.56</ele>
        <time>2018-07-05T09:12:31Z</time>
      </trkpt>
      <trkpt lat="48.611361002549529" lon="-1.499506970867515">
        <ele>14.56</ele>
        <time>2018-07-05T09:12:32Z</time>
      </trkpt>
      <trkpt lat="48.611340969800949" lon="-1.499551981687546">
        <ele>14.56</ele>
        <time>2018-07-05T09:12:33Z</time>
      </trkpt>
      <trkpt lat="48.611224964261055" lon="-1.499808970838785">
        <ele>14.56</ele>
        <time>2018-07-05T09:12:41Z</time>
      </trkpt>
      <trkpt lat="48.611240973696113" lon="-1.499998988583684">
        <ele>14.56</ele>
        <time>2018-07-05T09:12:42Z</time>
      </trkpt>
      <trkpt lat="48.611240973696113" lon="-1.499998988583684">
        <ele>14.56</ele>
        <time>2018-07-05T09:12:43Z</time>
      </trkpt>
      <trkpt lat="48.611240973696113" lon="-1.500040981918573">
        <ele>14.56</ele>
        <time>2018-07-05T09:12:44Z</time>
      </trkpt>
      <trkpt lat="48.611197974532843" lon="-1.500158999115229">
        <ele>14.56</ele>
        <time>2018-07-05T09:12:45Z</time>
      </trkpt>
      <trkpt lat="48.611154975369573" lon="-1.500192023813725">
        <ele>14.56</ele>
        <time>2018-07-05T09:12:46Z</time>
      </trkpt>
      <trkpt lat="48.611154975369573" lon="-1.500192023813725">
        <ele>14.56</ele>
        <time>2018-07-05T09:12:47Z</time>
      </trkpt>
      <trkpt lat="48.611011980101466" lon="-1.500252960249782">
        <ele>14.56</ele>
        <time>2018-07-05T09:12:48Z</time>
      </trkpt>
      <trkpt lat="48.610960012301803" lon="-1.500349016860127">
        <ele>14.56</ele>
        <time>2018-07-05T09:12:49Z</time>
      </trkpt>
      <trkpt lat="48.610898992046714" lon="-1.50046200491488">
        <ele>14.56</ele>
        <time>2018-07-05T09:12:50Z</time>
      </trkpt>
      <trkpt lat="48.6103540007025" lon="-1.501733036711812">
        <ele>13.119999999999999</ele>
        <time>2018-07-05T09:12:58Z</time>
      </trkpt>
      <trkpt lat="48.609583033248782" lon="-1.503560962155461">
        <ele>13.119999999999999</ele>
        <time>2018-07-05T09:13:09Z</time>
      </trkpt>
      <trkpt lat="48.609485970810056" lon="-1.503604967147112">
        <ele>13.119999999999999</ele>
        <time>2018-07-05T09:13:10Z</time>
      </trkpt>
      <trkpt lat="48.609391003847122" lon="-1.503644026815891">
        <ele>12.630000000000001</ele>
        <time>2018-07-05T09:13:11Z</time>
      </trkpt>
      <trkpt lat="48.609292013570666" lon="-1.503601027652621">
        <ele>12.630000000000001</ele>
        <time>2018-07-05T09:13:12Z</time>
      </trkpt>
      <trkpt lat="48.609183970838785" lon="-1.503554005175829">
        <ele>13.119999999999999</ele>
        <time>2018-07-05T09:13:13Z</time>
      </trkpt>
      <trkpt lat="48.609072994440794" lon="-1.503504971042275">
        <ele>13.119999999999999</ele>
        <time>2018-07-05T09:13:14Z</time>
      </trkpt>
      <trkpt lat="48.608664041385055" lon="-1.503352001309395">
        <ele>12.630000000000001</ele>
        <time>2018-07-05T09:13:18Z</time>
      </trkpt>
      <trkpt lat="48.608566978946328" lon="-1.503364993259311">
        <ele>12.630000000000001</ele>
        <time>2018-07-05T09:13:19Z</time>
      </trkpt>
      <trkpt lat="48.608471006155014" lon="-1.503377985209227">
        <ele>12.630000000000001</ele>
        <time>2018-07-05T09:13:20Z</time>
      </trkpt>
      <trkpt lat="48.608365980908275" lon="-1.503428025171161">
        <ele>12.15</ele>
        <time>2018-07-05T09:13:21Z</time>
      </trkpt>
      <trkpt lat="48.608307978138328" lon="-1.503537995740771">
        <ele>12.15</ele>
        <time>2018-07-05T09:13:22Z</time>
      </trkpt>
      <trkpt lat="48.608247041702271" lon="-1.503651989623904">
        <ele>12.15</ele>
        <time>2018-07-05T09:13:23Z</time>
      </trkpt>
      <trkpt lat="48.608207982033491" lon="-1.503809988498688">
        <ele>12.630000000000001</ele>
        <time>2018-07-05T09:13:24Z</time>
      </trkpt>
      <trkpt lat="48.608195995911956" lon="-1.503971004858613">
        <ele>12.630000000000001</ele>
        <time>2018-07-05T09:13:25Z</time>
      </trkpt>
      <trkpt lat="48.60818300396204" lon="-1.504147024825215">
        <ele>12.15</ele>
        <time>2018-07-05T09:13:26Z</time>
      </trkpt>
      <trkpt lat="48.608031962066889" lon="-1.505977967754006">
        <ele>13.119999999999999</ele>
        <time>2018-07-05T09:13:34Z</time>
      </trkpt>
      <trkpt lat="48.607977982610464" lon="-1.508405031636357">
        <ele>12.630000000000001</ele>
        <time>2018-07-05T09:13:43Z</time>
      </trkpt>
      <trkpt lat="48.608143022283912" lon="-1.509714033454657">
        <ele>13.119999999999999</ele>
        <time>2018-07-05T09:13:50Z</time>
      </trkpt>
      <trkpt lat="48.608131036162376" lon="-1.509833978489041">
        <ele>13.119999999999999</ele>
        <time>2018-07-05T09:13:51Z</time>
      </trkpt>
      <trkpt lat="48.608118966221809" lon="-1.509951995685697">
        <ele>13.119999999999999</ele>
        <time>2018-07-05T09:13:52Z</time>
      </trkpt>
      <trkpt lat="48.608107985928655" lon="-1.510061966255307">
        <ele>13.119999999999999</ele>
        <time>2018-07-05T09:13:53Z</time>
      </trkpt>
      <trkpt lat="48.608057023957372" lon="-1.510163974016905">
        <ele>13.119999999999999</ele>
        <time>2018-07-05T09:13:54Z</time>
      </trkpt>
      <trkpt lat="48.608001032844186" lon="-1.510276962071657">
        <ele>13.6</ele>
        <time>2018-07-05T09:13:55Z</time>
      </trkpt>
      <trkpt lat="48.607901958748698" lon="-1.510319039225578">
        <ele>13.6</ele>
        <time>2018-07-05T09:13:56Z</time>
      </trkpt>
      <trkpt lat="48.607791988179088" lon="-1.510362960398197">
        <ele>13.6</ele>
        <time>2018-07-05T09:13:57Z</time>
      </trkpt>
      <trkpt lat="48.607671037316322" lon="-1.510407971218228">
        <ele>13.6</ele>
        <time>2018-07-05T09:13:58Z</time>
      </trkpt>
      <trkpt lat="48.606127006933093" lon="-1.510980958119035">
        <ele>12.15</ele>
        <time>2018-07-05T09:14:09Z</time>
      </trkpt>
      <trkpt lat="48.603653004392982" lon="-1.511824009940028">
        <ele>11.19</ele>
        <time>2018-07-05T09:14:27Z</time>
      </trkpt>
      <trkpt lat="48.602122971788049" lon="-1.512313010171056">
        <ele>11.19</ele>
        <time>2018-07-05T09:14:40Z</time>
      </trkpt>
      <trkpt lat="48.600989989936352" lon="-1.512652980163693">
        <ele>10.23</ele>
        <time>2018-07-05T09:14:51Z</time>
      </trkpt>
      <trkpt lat="48.600509036332369" lon="-1.512797987088561">
        <ele>10.23</ele>
        <time>2018-07-05T09:14:56Z</time>
      </trkpt>
      <trkpt lat="48.600410968065262" lon="-1.512827994301915">
        <ele>10.710000000000001</ele>
        <time>2018-07-05T09:14:57Z</time>
      </trkpt>
      <trkpt lat="48.599499017000198" lon="-1.513006025925279">
        <ele>12.15</ele>
        <time>2018-07-05T09:15:08Z</time>
      </trkpt>
      <trkpt lat="48.598580025136471" lon="-1.513064028695226">
        <ele>12.630000000000001</ele>
        <time>2018-07-05T09:15:19Z</time>
      </trkpt>
      <trkpt lat="48.598284982144833" lon="-1.513081965968013">
        <ele>13.119999999999999</ele>
        <time>2018-07-05T09:15:23Z</time>
      </trkpt>
      <trkpt lat="48.598226979374886" lon="-1.513085989281535">
        <ele>13.119999999999999</ele>
        <time>2018-07-05T09:15:24Z</time>
      </trkpt>
      <trkpt lat="48.59819496050477" lon="-1.513088000938296">
        <ele>13.119999999999999</ele>
        <time>2018-07-05T09:15:25Z</time>
      </trkpt>
      <trkpt lat="48.59819496050477" lon="-1.513088000938296">
        <ele>13.6</ele>
        <time>2018-07-05T09:15:26Z</time>
      </trkpt>
      <trkpt lat="48.598147016018629" lon="-1.513088000938296">
        <ele>13.6</ele>
        <time>2018-07-05T09:15:27Z</time>
      </trkpt>
      <trkpt lat="48.59806302934885" lon="-1.513296039775014">
        <ele>13.6</ele>
        <time>2018-07-05T09:15:28Z</time>
      </trkpt>
      <trkpt lat="48.598092030733824" lon="-1.513387989252806">
        <ele>13.6</ele>
        <time>2018-07-05T09:15:29Z</time>
      </trkpt>
      <trkpt lat="48.598123965784907" lon="-1.513468958437443">
        <ele>13.6</ele>
        <time>2018-07-05T09:15:30Z</time>
      </trkpt>
      <trkpt lat="48.598159002140164" lon="-1.513557974249125">
        <ele>13.6</ele>
        <time>2018-07-05T09:15:31Z</time>
      </trkpt>
      <trkpt lat="48.598195966333151" lon="-1.513652019202709">
        <ele>14.08</ele>
        <time>2018-07-05T09:15:32Z</time>
      </trkpt>
      <trkpt lat="48.598212981596589" lon="-1.513768024742603">
        <ele>14.08</ele>
        <time>2018-07-05T09:15:33Z</time>
      </trkpt>
      <trkpt lat="48.598232008516788" lon="-1.513888975605369">
        <ele>14.56</ele>
        <time>2018-07-05T09:15:34Z</time>
      </trkpt>
      <trkpt lat="48.598280036821961" lon="-1.514887008816004">
        <ele>16.48</ele>
        <time>2018-07-05T09:15:39Z</time>
      </trkpt>
      <trkpt lat="48.598308032378554" lon="-1.515535013750196">
        <ele>16.960000000000001</ele>
        <time>2018-07-05T09:15:44Z</time>
      </trkpt>
      <trkpt lat="48.598311971873045" lon="-1.515622017905116">
        <ele>16.960000000000001</ele>
        <time>2018-07-05T09:15:52Z</time>
      </trkpt>
      <trkpt lat="48.598317001014948" lon="-1.51573701761663">
        <ele>16</ele>
        <time>2018-07-05T09:15:57Z</time>
      </trkpt>
      <trkpt lat="48.598317001014948" lon="-1.51573701761663">
        <ele>16</ele>
        <time>2018-07-05T09:16:05Z</time>
      </trkpt>
      <trkpt lat="48.598301997408271" lon="-1.515874983742833">
        <ele>16</ele>
        <time>2018-07-05T09:16:06Z</time>
      </trkpt>
      <trkpt lat="48.598274001851678" lon="-1.515870960429311">
        <ele>15.52</ele>
        <time>2018-07-05T09:16:07Z</time>
      </trkpt>
      <trkpt lat="48.597835041582584" lon="-1.515818992629647">
        <ele>13.119999999999999</ele>
        <time>2018-07-05T09:16:16Z</time>
      </trkpt>
      <trkpt lat="48.596998024731874" lon="-1.516074975952506">
        <ele>8.789999999999999</ele>
        <time>2018-07-05T09:16:27Z</time>
      </trkpt>
      <trkpt lat="48.596929041668773" lon="-1.516129961237311">
        <ele>8.789999999999999</ele>
        <time>2018-07-05T09:16:28Z</time>
      </trkpt>
      <trkpt lat="48.596857041120529" lon="-1.516187964007258">
        <ele>8.789999999999999</ele>
        <time>2018-07-05T09:16:29Z</time>
      </trkpt>
      <trkpt lat="48.596797026693821" lon="-1.516304975375533">
        <ele>8.789999999999999</ele>
        <time>2018-07-05T09:16:30Z</time>
      </trkpt>
      <trkpt lat="48.596742963418365" lon="-1.516429027542472">
        <ele>8.789999999999999</ele>
        <time>2018-07-05T09:16:31Z</time>
      </trkpt>
      <trkpt lat="48.59668898396194" lon="-1.51655400171876">
        <ele>8.789999999999999</ele>
        <time>2018-07-05T09:16:32Z</time>
      </trkpt>
      <trkpt lat="48.596632992848754" lon="-1.51668299920857">
        <ele>9.27</ele>
        <time>2018-07-05T09:16:33Z</time>
      </trkpt>
      <trkpt lat="48.595784995704889" lon="-1.518640005961061">
        <ele>11.19</ele>
        <time>2018-07-05T09:16:46Z</time>
      </trkpt>
      <trkpt lat="48.595392974093556" lon="-1.520248996093869">
        <ele>11.19</ele>
        <time>2018-07-05T09:16:55Z</time>
      </trkpt>
      <trkpt lat="48.595277974382043" lon="-1.522471960633993">
        <ele>12.630000000000001</ele>
        <time>2018-07-05T09:17:07Z</time>
      </trkpt>
      <trkpt lat="48.595328014343977" lon="-1.52280799113214">
        <ele>12.630000000000001</ele>
        <time>2018-07-05T09:17:08Z</time>
      </trkpt>
      <trkpt lat="48.595748031511903" lon="-1.524565005674958">
        <ele>12.630000000000001</ele>
        <time>2018-07-05T09:17:18Z</time>
      </trkpt>
      <trkpt lat="48.59623895958066" lon="-1.526619996875525">
        <ele>12.15</ele>
        <time>2018-07-05T09:17:31Z</time>
      </trkpt>
      <trkpt lat="48.596622012555599" lon="-1.528222030028701">
        <ele>12.630000000000001</ele>
        <time>2018-07-05T09:17:43Z</time>
      </trkpt>
      <trkpt lat="48.596940021961927" lon="-1.529556009918451">
        <ele>12.15</ele>
        <time>2018-07-05T09:17:52Z</time>
      </trkpt>
      <trkpt lat="48.597627002745867" lon="-1.532425973564386">
        <ele>12.630000000000001</ele>
        <time>2018-07-05T09:18:07Z</time>
      </trkpt>
      <trkpt lat="48.598470976576209" lon="-1.535958023741841">
        <ele>11.67</ele>
        <time>2018-07-05T09:18:25Z</time>
      </trkpt>
      <trkpt lat="48.598717991262674" lon="-1.536993021145463">
        <ele>12.15</ele>
        <time>2018-07-05T09:18:32Z</time>
      </trkpt>
      <trkpt lat="48.598763002082705" lon="-1.537234000861645">
        <ele>12.630000000000001</ele>
        <time>2018-07-05T09:18:38Z</time>
      </trkpt>
      <trkpt lat="48.598720002919436" lon="-1.537259984761477">
        <ele>12.630000000000001</ele>
        <time>2018-07-05T09:18:40Z</time>
      </trkpt>
      <trkpt lat="48.598610032349825" lon="-1.537326034158468">
        <ele>12.15</ele>
        <time>2018-07-05T09:18:42Z</time>
      </trkpt>
      <trkpt lat="48.597863959148526" lon="-1.537773041054606">
        <ele>11.67</ele>
        <time>2018-07-05T09:18:50Z</time>
      </trkpt>
      <trkpt lat="48.596449010074139" lon="-1.538621038198471">
        <ele>11.19</ele>
        <time>2018-07-05T09:19:00Z</time>
      </trkpt>
      <trkpt lat="48.593849027529359" lon="-1.540179988369346">
        <ele>9.75</ele>
        <time>2018-07-05T09:19:16Z</time>
      </trkpt>
      <trkpt lat="48.591585997492075" lon="-1.541537018492818">
        <ele>8.789999999999999</ele>
        <time>2018-07-05T09:19:31Z</time>
      </trkpt>
      <trkpt lat="48.591063972562551" lon="-1.541848992928863">
        <ele>10.23</ele>
        <time>2018-07-05T09:19:37Z</time>
      </trkpt>
      <trkpt lat="48.59095199033618" lon="-1.541915964335203">
        <ele>10.23</ele>
        <time>2018-07-05T09:19:38Z</time>
      </trkpt>
      <trkpt lat="48.590913014486432" lon="-1.542024007067084">
        <ele>10.710000000000001</ele>
        <time>2018-07-05T09:19:39Z</time>
      </trkpt>
      <trkpt lat="48.59092902392149" lon="-1.542106987908483">
        <ele>11.19</ele>
        <time>2018-07-05T09:19:40Z</time>
      </trkpt>
      <trkpt lat="48.590947967022657" lon="-1.542206984013319">
        <ele>11.67</ele>
        <time>2018-07-05T09:19:41Z</time>
      </trkpt>
      <trkpt lat="48.590971017256379" lon="-1.542323995381594">
        <ele>11.67</ele>
        <time>2018-07-05T09:19:42Z</time>
      </trkpt>
      <trkpt lat="48.591194981709123" lon="-1.543513974174857">
        <ele>13.119999999999999</ele>
        <time>2018-07-05T09:19:49Z</time>
      </trkpt>
      <trkpt lat="48.591677024960518" lon="-1.545973978936672">
        <ele>14.56</ele>
        <time>2018-07-05T09:20:00Z</time>
      </trkpt>
      <trkpt lat="48.592020012438297" lon="-1.547497976571322">
        <ele>15.52</ele>
        <time>2018-07-05T09:20:08Z</time>
      </trkpt>
      <trkpt lat="48.59288401901722" lon="-1.550262998789549">
        <ele>14.08</ele>
        <time>2018-07-05T09:20:20Z</time>
      </trkpt>
      <trkpt lat="48.594142980873585" lon="-1.554298968985677">
        <ele>14.08</ele>
        <time>2018-07-05T09:20:37Z</time>
      </trkpt>
      <trkpt lat="48.595100026577711" lon="-1.55737797729671">
        <ele>13.119999999999999</ele>
        <time>2018-07-05T09:20:52Z</time>
      </trkpt>
      <trkpt lat="48.596060005947948" lon="-1.560464026406407">
        <ele>13.119999999999999</ele>
        <time>2018-07-05T09:21:07Z</time>
      </trkpt>
      <trkpt lat="48.596913032233715" lon="-1.563202980905771">
        <ele>13.119999999999999</ele>
        <time>2018-07-05T09:21:22Z</time>
      </trkpt>
      <trkpt lat="48.597030965611339" lon="-1.563584022223949">
        <ele>14.56</ele>
        <time>2018-07-05T09:21:27Z</time>
      </trkpt>
      <trkpt lat="48.59737403690815" lon="-1.564321964979172">
        <ele>14.56</ele>
        <time>2018-07-05T09:21:34Z</time>
      </trkpt>
      <trkpt lat="48.598098987713456" lon="-1.565871024504304">
        <ele>14.08</ele>
        <time>2018-07-05T09:21:43Z</time>
      </trkpt>
      <trkpt lat="48.598924018442631" lon="-1.567543968558312">
        <ele>14.56</ele>
        <time>2018-07-05T09:21:53Z</time>
      </trkpt>
      <trkpt lat="48.59984896145761" lon="-1.569463005289435">
        <ele>13.6</ele>
        <time>2018-07-05T09:22:03Z</time>
      </trkpt>
      <trkpt lat="48.601195011287928" lon="-1.572593981400132">
        <ele>14.08</ele>
        <time>2018-07-05T09:22:18Z</time>
      </trkpt>
      <trkpt lat="48.601920967921615" lon="-1.575019033625722">
        <ele>14.08</ele>
        <time>2018-07-05T09:22:29Z</time>
      </trkpt>
      <trkpt lat="48.601953992620111" lon="-1.575221959501505">
        <ele>14.56</ele>
        <time>2018-07-05T09:22:30Z</time>
      </trkpt>
      <trkpt lat="48.601988023146987" lon="-1.575435027480125">
        <ele>14.56</ele>
        <time>2018-07-05T09:22:31Z</time>
      </trkpt>
      <trkpt lat="48.602191032841802" lon="-1.578416973352432">
        <ele>14.56</ele>
        <time>2018-07-05T09:22:44Z</time>
      </trkpt>
      <trkpt lat="48.602441987022758" lon="-1.58178398385644">
        <ele>13.6</ele>
        <time>2018-07-05T09:23:00Z</time>
      </trkpt>
      <trkpt lat="48.602470988407731" lon="-1.582168964669108">
        <ele>13.6</ele>
        <time>2018-07-05T09:23:03Z</time>
      </trkpt>
      <trkpt lat="48.602478029206395" lon="-1.582264015451074">
        <ele>13.6</ele>
        <time>2018-07-05T09:23:04Z</time>
      </trkpt>
      <trkpt lat="48.602461013942957" lon="-1.582411034032702">
        <ele>13.6</ele>
        <time>2018-07-05T09:23:05Z</time>
      </trkpt>
      <trkpt lat="48.602411979809403" lon="-1.582480017095804">
        <ele>14.08</ele>
        <time>2018-07-05T09:23:06Z</time>
      </trkpt>
      <trkpt lat="48.602350037544966" lon="-1.582566015422344">
        <ele>14.08</ele>
        <time>2018-07-05T09:23:07Z</time>
      </trkpt>
      <trkpt lat="48.602278036996722" lon="-1.582669029012322">
        <ele>14.08</ele>
        <time>2018-07-05T09:23:08Z</time>
      </trkpt>
      <trkpt lat="48.602196983993053" lon="-1.582783022895455">
        <ele>14.08</ele>
        <time>2018-07-05T09:23:09Z</time>
      </trkpt>
      <trkpt lat="48.601341024041176" lon="-1.583992028608918">
        <ele>14.08</ele>
        <time>2018-07-05T09:23:17Z</time>
      </trkpt>
      <trkpt lat="48.600160013884306" lon="-1.585662038996816">
        <ele>13.6</ele>
        <time>2018-07-05T09:23:28Z</time>
      </trkpt>
      <trkpt lat="48.59920104034245" lon="-1.587015967816114">
        <ele>12.630000000000001</ele>
        <time>2018-07-05T09:23:38Z</time>
      </trkpt>
      <trkpt lat="48.599011022597551" lon="-1.587238004431129">
        <ele>12.630000000000001</ele>
        <time>2018-07-05T09:23:40Z</time>
      </trkpt>
      <trkpt lat="48.599011022597551" lon="-1.587238004431129">
        <ele>12.630000000000001</ele>
        <time>2018-07-05T09:23:41Z</time>
      </trkpt>
      <trkpt lat="48.598808012902737" lon="-1.58739197999239">
        <ele>13.119999999999999</ele>
        <time>2018-07-05T09:23:42Z</time>
      </trkpt>
      <trkpt lat="48.5987080167979" lon="-1.587447971105576">
        <ele>13.119999999999999</ele>
        <time>2018-07-05T09:23:43Z</time>
      </trkpt>
      <trkpt lat="48.598597962409258" lon="-1.587491976097226">
        <ele>13.119999999999999</ele>
        <time>2018-07-05T09:23:44Z</time>
      </trkpt>
      <trkpt lat="48.598361006006598" lon="-1.587587026879191">
        <ele>12.630000000000001</ele>
        <time>2018-07-05T09:23:46Z</time>
      </trkpt>
      <trkpt lat="48.5974629689008" lon="-1.588238971307874">
        <ele>11.19</ele>
        <time>2018-07-05T09:23:53Z</time>
      </trkpt>
      <trkpt lat="48.596251029521227" lon="-1.58932400867343">
        <ele>11.67</ele>
        <time>2018-07-05T09:24:04Z</time>
      </trkpt>
      <trkpt lat="48.595522977411747" lon="-1.589609999209642">
        <ele>12.15</ele>
        <time>2018-07-05T09:24:13Z</time>
      </trkpt>
      <trkpt lat="48.594483034685254" lon="-1.58971200697124">
        <ele>11.19</ele>
        <time>2018-07-05T09:24:24Z</time>
      </trkpt>
      <trkpt lat="48.59277899377048" lon="-1.590086007490754">
        <ele>11.19</ele>
        <time>2018-07-05T09:24:38Z</time>
      </trkpt>
      <trkpt lat="48.591721029952168" lon="-1.590318018570542">
        <ele>11.67</ele>
        <time>2018-07-05T09:24:48Z</time>
      </trkpt>
      <trkpt lat="48.591649029403925" lon="-1.5903340280056">
        <ele>12.15</ele>
        <time>2018-07-05T09:24:49Z</time>
      </trkpt>
      <trkpt lat="48.591587003320456" lon="-1.590348025783896">
        <ele>12.15</ele>
        <time>2018-07-05T09:24:50Z</time>
      </trkpt>
      <trkpt lat="48.591419029980898" lon="-1.590384989976883">
        <ele>12.630000000000001</ele>
        <time>2018-07-05T09:24:57Z</time>
      </trkpt>
      <trkpt lat="48.591419029980898" lon="-1.590384989976883">
        <ele>12.630000000000001</ele>
        <time>2018-07-05T09:25:00Z</time>
      </trkpt>
      <trkpt lat="48.591390028595924" lon="-1.590517004951835">
        <ele>12.630000000000001</ele>
        <time>2018-07-05T09:25:02Z</time>
      </trkpt>
      <trkpt lat="48.591419029980898" lon="-1.590599985793233">
        <ele>13.119999999999999</ele>
        <time>2018-07-05T09:25:03Z</time>
      </trkpt>
      <trkpt lat="48.591455994173884" lon="-1.590708028525114">
        <ele>13.119999999999999</ele>
        <time>2018-07-05T09:25:04Z</time>
      </trkpt>
      <trkpt lat="48.591497987508774" lon="-1.590827973559499">
        <ele>13.119999999999999</ele>
        <time>2018-07-05T09:25:05Z</time>
      </trkpt>
      <trkpt lat="48.591932002454996" lon="-1.592081990092993">
        <ele>13.119999999999999</ele>
        <time>2018-07-05T09:25:12Z</time>
      </trkpt>
      <trkpt lat="48.592773964628577" lon="-1.594544006511569">
        <ele>15.52</ele>
        <time>2018-07-05T09:25:22Z</time>
      </trkpt>
      <trkpt lat="48.593365978449583" lon="-1.596280988305807">
        <ele>16.960000000000001</ele>
        <time>2018-07-05T09:25:30Z</time>
      </trkpt>
      <trkpt lat="48.59406896866858" lon="-1.598282000049949">
        <ele>16</ele>
        <time>2018-07-05T09:25:40Z</time>
      </trkpt>
      <trkpt lat="48.594967005774379" lon="-1.600965969264507">
        <ele>13.6</ele>
        <time>2018-07-05T09:25:52Z</time>
      </trkpt>
      <trkpt lat="48.595321979373693" lon="-1.602403968572617">
        <ele>13.119999999999999</ele>
        <time>2018-07-05T09:25:58Z</time>
      </trkpt>
      <trkpt lat="48.595346035435796" lon="-1.602662969380617">
        <ele>13.119999999999999</ele>
        <time>2018-07-05T09:25:59Z</time>
      </trkpt>
      <trkpt lat="48.595521971583366" lon="-1.606282023712993">
        <ele>13.6</ele>
        <time>2018-07-05T09:26:12Z</time>
      </trkpt>
      <trkpt lat="48.59555097296834" lon="-1.609074035659432">
        <ele>14.56</ele>
        <time>2018-07-05T09:26:23Z</time>
      </trkpt>
      <trkpt lat="48.595480984076858" lon="-1.610948983579874">
        <ele>15.52</ele>
        <time>2018-07-05T09:26:34Z</time>
      </trkpt>
      <trkpt lat="48.595445025712252" lon="-1.611287025734782">
        <ele>16</ele>
        <time>2018-07-05T09:26:36Z</time>
      </trkpt>
      <trkpt lat="48.595329020172358" lon="-1.611587014049292">
        <ele>15.52</ele>
        <time>2018-07-05T09:26:38Z</time>
      </trkpt>
      <trkpt lat="48.594932975247502" lon="-1.612715972587466">
        <ele>15.52</ele>
        <time>2018-07-05T09:26:46Z</time>
      </trkpt>
      <trkpt lat="48.594933981075883" lon="-1.612826026976109">
        <ele>15.039999999999999</ele>
        <time>2018-07-05T09:26:47Z</time>
      </trkpt>
      <trkpt lat="48.594940016046166" lon="-1.613408988341689">
        <ele>14.56</ele>
        <time>2018-07-05T09:26:51Z</time>
      </trkpt>
      <trkpt lat="48.594942027702928" lon="-1.614867020398378">
        <ele>14.08</ele>
        <time>2018-07-05T09:27:01Z</time>
      </trkpt>
      <trkpt lat="48.594813030213118" lon="-1.616004025563598">
        <ele>16.48</ele>
        <time>2018-07-05T09:27:09Z</time>
      </trkpt>
      <trkpt lat="48.594798026606441" lon="-1.616146015003324">
        <ele>16.960000000000001</ele>
        <time>2018-07-05T09:27:10Z</time>
      </trkpt>
      <trkpt lat="48.594627035781741" lon="-1.617706976830959">
        <ele>20.809999999999999</ele>
        <time>2018-07-05T09:27:20Z</time>
      </trkpt>
      <trkpt lat="48.594710016623139" lon="-1.619649985805154">
        <ele>20.32</ele>
        <time>2018-07-05T09:27:31Z</time>
      </trkpt>
      <trkpt lat="48.594685960561037" lon="-1.621524011716247">
        <ele>20.809999999999999</ele>
        <time>2018-07-05T09:27:41Z</time>
      </trkpt>
      <trkpt lat="48.594383960589767" lon="-1.623441958799958">
        <ele>19.359999999999999</ele>
        <time>2018-07-05T09:27:51Z</time>
      </trkpt>
      <trkpt lat="48.593782978132367" lon="-1.62595703266561">
        <ele>20.809999999999999</ele>
        <time>2018-07-05T09:28:06Z</time>
      </trkpt>
      <trkpt lat="48.593224994838238" lon="-1.627990985289216">
        <ele>22.25</ele>
        <time>2018-07-05T09:28:18Z</time>
      </trkpt>
      <trkpt lat="48.592439023777843" lon="-1.629873979836702">
        <ele>22.25</ele>
        <time>2018-07-05T09:28:30Z</time>
      </trkpt>
      <trkpt lat="48.591737039387226" lon="-1.631958978250623">
        <ele>16.48</ele>
        <time>2018-07-05T09:28:42Z</time>
      </trkpt>
      <trkpt lat="48.591094985604286" lon="-1.634190995246172">
        <ele>13.119999999999999</ele>
        <time>2018-07-05T09:28:56Z</time>
      </trkpt>
      <trkpt lat="48.591067995876074" lon="-1.634347988292575">
        <ele>12.630000000000001</ele>
        <time>2018-07-05T09:28:57Z</time>
      </trkpt>
      <trkpt lat="48.590675974264741" lon="-1.636426029726863">
        <ele>18.399999999999999</ele>
        <time>2018-07-05T09:29:09Z</time>
      </trkpt>
      <trkpt lat="48.590167025104165" lon="-1.637677028775215">
        <ele>20.809999999999999</ele>
        <time>2018-07-05T09:29:15Z</time>
      </trkpt>
      <trkpt lat="48.590079015120864" lon="-1.637920020148158">
        <ele>21.289999999999999</ele>
        <time>2018-07-05T09:29:16Z</time>
      </trkpt>
      <trkpt lat="48.590045990422368" lon="-1.638190001249313">
        <ele>21.289999999999999</ele>
        <time>2018-07-05T09:29:17Z</time>
      </trkpt>
      <trkpt lat="48.589664027094841" lon="-1.641323994845152">
        <ele>22.73</ele>
        <time>2018-07-05T09:29:28Z</time>
      </trkpt>
      <trkpt lat="48.589373007416725" lon="-1.643968988209963">
        <ele>21.289999999999999</ele>
        <time>2018-07-05T09:29:38Z</time>
      </trkpt>
      <trkpt lat="48.589180978015065" lon="-1.645478988066316">
        <ele>20.809999999999999</ele>
        <time>2018-07-05T09:29:44Z</time>
      </trkpt>
      <trkpt lat="48.588622994720936" lon="-1.647065011784434">
        <ele>19.84</ele>
        <time>2018-07-05T09:29:52Z</time>
      </trkpt>
      <trkpt lat="48.588498020544648" lon="-1.647394001483917">
        <ele>19.359999999999999</ele>
        <time>2018-07-05T09:29:54Z</time>
      </trkpt>
      <trkpt lat="48.588452003896236" lon="-1.647557029500604">
        <ele>19.359999999999999</ele>
        <time>2018-07-05T09:29:55Z</time>
      </trkpt>
      <trkpt lat="48.588415961712599" lon="-1.6477229911834">
        <ele>19.359999999999999</ele>
        <time>2018-07-05T09:29:56Z</time>
      </trkpt>
      <trkpt lat="48.588388971984386" lon="-1.6478939820081">
        <ele>18.879999999999999</ele>
        <time>2018-07-05T09:29:57Z</time>
      </trkpt>
      <trkpt lat="48.588369023054838" lon="-1.648078970611095">
        <ele>18.879999999999999</ele>
        <time>2018-07-05T09:29:58Z</time>
      </trkpt>
      <trkpt lat="48.58837497420609" lon="-1.648263959214091">
        <ele>18.399999999999999</ele>
        <time>2018-07-05T09:29:59Z</time>
      </trkpt>
      <trkpt lat="48.58839500695467" lon="-1.650235969573259">
        <ele>18.399999999999999</ele>
        <time>2018-07-05T09:30:10Z</time>
      </trkpt>
      <trkpt lat="48.588162995874882" lon="-1.651598028838635">
        <ele>20.809999999999999</ele>
        <time>2018-07-05T09:30:19Z</time>
      </trkpt>
      <trkpt lat="48.588114967569709" lon="-1.651859041303396">
        <ele>19.84</ele>
        <time>2018-07-05T09:30:21Z</time>
      </trkpt>
      <trkpt lat="48.588090995326638" lon="-1.651987032964826">
        <ele>19.359999999999999</ele>
        <time>2018-07-05T09:30:22Z</time>
      </trkpt>
      <trkpt lat="48.588071968406439" lon="-1.65251299738884">
        <ele>17.440000000000001</ele>
        <time>2018-07-05T09:30:26Z</time>
      </trkpt>
      <trkpt lat="48.588068028911948" lon="-1.652640989050269">
        <ele>17.440000000000001</ele>
        <time>2018-07-05T09:30:27Z</time>
      </trkpt>
      <trkpt lat="48.588079009205103" lon="-1.652767974883318">
        <ele>17.440000000000001</ele>
        <time>2018-07-05T09:30:28Z</time>
      </trkpt>
      <trkpt lat="48.588109016418457" lon="-1.653008032590151">
        <ele>16.960000000000001</ele>
        <time>2018-07-05T09:30:30Z</time>
      </trkpt>
      <trkpt lat="48.588099963963032" lon="-1.653128983452916">
        <ele>16.48</ele>
        <time>2018-07-05T09:30:31Z</time>
      </trkpt>
      <trkpt lat="48.588090995326638" lon="-1.653241971507669">
        <ele>16</ele>
        <time>2018-07-05T09:30:32Z</time>
      </trkpt>
      <trkpt lat="48.588065011426806" lon="-1.653349008411169">
        <ele>15.52</ele>
        <time>2018-07-05T09:30:33Z</time>
      </trkpt>
      <trkpt lat="48.588033998385072" lon="-1.653456967324019">
        <ele>15.039999999999999</ele>
        <time>2018-07-05T09:30:34Z</time>
      </trkpt>
      <trkpt lat="48.587808022275567" lon="-1.654240004718304">
        <ele>14.56</ele>
        <time>2018-07-05T09:30:41Z</time>
      </trkpt>
      <trkpt lat="48.587568970397115" lon="-1.654779966920614">
        <ele>15.039999999999999</ele>
        <time>2018-07-05T09:30:47Z</time>
      </trkpt>
      <trkpt lat="48.587529994547367" lon="-1.654860014095902">
        <ele>15.039999999999999</ele>
        <time>2018-07-05T09:30:48Z</time>
      </trkpt>
      <trkpt lat="48.587421029806137" lon="-1.655083978548646">
        <ele>15.039999999999999</ele>
        <time>2018-07-05T09:30:51Z</time>
      </trkpt>
      <trkpt lat="48.587400997057557" lon="-1.655201995745301">
        <ele>14.56</ele>
        <time>2018-07-05T09:30:52Z</time>
      </trkpt>
      <trkpt lat="48.587414994835854" lon="-1.655247006565332">
        <ele>14.56</ele>
        <time>2018-07-05T09:30:53Z</time>
      </trkpt>
      <trkpt lat="48.587439972907305" lon="-1.655331999063492">
        <ele>14.56</ele>
        <time>2018-07-05T09:30:54Z</time>
      </trkpt>
      <trkpt lat="48.587470985949039" lon="-1.655426966026425">
        <ele>14.08</ele>
        <time>2018-07-05T09:30:55Z</time>
      </trkpt>
      <trkpt lat="48.587470985949039" lon="-1.655426966026425">
        <ele>14.08</ele>
        <time>2018-07-05T09:30:56Z</time>
      </trkpt>
      <trkpt lat="48.587515996769071" lon="-1.655514976009727">
        <ele>14.08</ele>
        <time>2018-07-05T09:30:57Z</time>
      </trkpt>
      <trkpt lat="48.588182022795081" lon="-1.656834958121181">
        <ele>15.039999999999999</ele>
        <time>2018-07-05T09:31:07Z</time>
      </trkpt>
      <trkpt lat="48.588876966387033" lon="-1.658182013779879">
        <ele>15.039999999999999</ele>
        <time>2018-07-05T09:31:17Z</time>
      </trkpt>
      <trkpt lat="48.58957601711154" lon="-1.659552035853267">
        <ele>13.6</ele>
        <time>2018-07-05T09:31:27Z</time>
      </trkpt>
      <trkpt lat="48.590563992038369" lon="-1.661507030948997">
        <ele>13.119999999999999</ele>
        <time>2018-07-05T09:31:40Z</time>
      </trkpt>
      <trkpt lat="48.591394973918796" lon="-1.663119038566947">
        <ele>13.6</ele>
        <time>2018-07-05T09:31:50Z</time>
      </trkpt>
      <trkpt lat="48.592479005455971" lon="-1.665261033922434">
        <ele>13.119999999999999</ele>
        <time>2018-07-05T09:32:02Z</time>
      </trkpt>
      <trkpt lat="48.593635037541389" lon="-1.667532026767731">
        <ele>13.119999999999999</ele>
        <time>2018-07-05T09:32:12Z</time>
      </trkpt>
      <trkpt lat="48.596027987077832" lon="-1.67223603464663">
        <ele>12.15</ele>
        <time>2018-07-05T09:32:32Z</time>
      </trkpt>
      <trkpt lat="48.598420014604926" lon="-1.676970971748233">
        <ele>12.630000000000001</ele>
        <time>2018-07-05T09:32:52Z</time>
      </trkpt>
      <trkpt lat="48.600073009729385" lon="-1.680218959227204">
        <ele>11.67</ele>
        <time>2018-07-05T09:33:06Z</time>
      </trkpt>
      <trkpt lat="48.600537031888962" lon="-1.681651007384062">
        <ele>11.67</ele>
        <time>2018-07-05T09:33:13Z</time>
      </trkpt>
      <trkpt lat="48.60057701356709" lon="-1.682061972096562">
        <ele>11.19</ele>
        <time>2018-07-05T09:33:15Z</time>
      </trkpt>
      <trkpt lat="48.600594028830528" lon="-1.682759011164308">
        <ele>10.710000000000001</ele>
        <time>2018-07-05T09:33:18Z</time>
      </trkpt>
      <trkpt lat="48.600379033014178" lon="-1.68493302538991">
        <ele>10.23</ele>
        <time>2018-07-05T09:33:26Z</time>
      </trkpt>
      <trkpt lat="48.600054988637567" lon="-1.689019035547972">
        <ele>10.23</ele>
        <time>2018-07-05T09:33:40Z</time>
      </trkpt>
      <trkpt lat="48.600211981683969" lon="-1.690483018755913">
        <ele>10.23</ele>
        <time>2018-07-05T09:33:45Z</time>
      </trkpt>
      <trkpt lat="48.600202007219195" lon="-1.691070003435016">
        <ele>10.23</ele>
        <time>2018-07-05T09:33:47Z</time>
      </trkpt>
      <trkpt lat="48.600165965035558" lon="-1.691360017284751">
        <ele>10.23</ele>
        <time>2018-07-05T09:33:48Z</time>
      </trkpt>
      <trkpt lat="48.599813003093004" lon="-1.69516196474433">
        <ele>10.710000000000001</ele>
        <time>2018-07-05T09:34:01Z</time>
      </trkpt>
      <trkpt lat="48.600101005285978" lon="-1.698716981336474">
        <ele>10.23</ele>
        <time>2018-07-05T09:34:13Z</time>
      </trkpt>
      <trkpt lat="48.600519010797143" lon="-1.703129969537258">
        <ele>10.23</ele>
        <time>2018-07-05T09:34:28Z</time>
      </trkpt>
      <trkpt lat="48.601120999082923" lon="-1.706571998074651">
        <ele>11.67</ele>
        <time>2018-07-05T09:34:40Z</time>
      </trkpt>
      <trkpt lat="48.601932032033801" lon="-1.710793040692806">
        <ele>12.15</ele>
        <time>2018-07-05T09:34:55Z</time>
      </trkpt>
      <trkpt lat="48.602578025311232" lon="-1.713375002145767">
        <ele>12.15</ele>
        <time>2018-07-05T09:35:05Z</time>
      </trkpt>
      <trkpt lat="48.603641018271446" lon="-1.717383982613683">
        <ele>13.119999999999999</ele>
        <time>2018-07-05T09:35:20Z</time>
      </trkpt>
      <trkpt lat="48.604232026264071" lon="-1.718844026327133">
        <ele>13.6</ele>
        <time>2018-07-05T09:35:28Z</time>
      </trkpt>
      <trkpt lat="48.60459697432816" lon="-1.72044899314642">
        <ele>14.08</ele>
        <time>2018-07-05T09:35:36Z</time>
      </trkpt>
      <trkpt lat="48.604795038700104" lon="-1.72416502609849">
        <ele>13.119999999999999</ele>
        <time>2018-07-05T09:35:50Z</time>
      </trkpt>
      <trkpt lat="48.604911966249347" lon="-1.728206025436521">
        <ele>13.119999999999999</ele>
        <time>2018-07-05T09:36:05Z</time>
      </trkpt>
      <trkpt lat="48.605062002316117" lon="-1.7309579718858">
        <ele>13.119999999999999</ele>
        <time>2018-07-05T09:36:14Z</time>
      </trkpt>
      <trkpt lat="48.605491993948817" lon="-1.733102984726429">
        <ele>14.08</ele>
        <time>2018-07-05T09:36:23Z</time>
      </trkpt>
      <trkpt lat="48.605498028919101" lon="-1.733330972492695">
        <ele>14.08</ele>
        <time>2018-07-05T09:36:24Z</time>
      </trkpt>
      <trkpt lat="48.605437008664012" lon="-1.735807992517948">
        <ele>14.56</ele>
        <time>2018-07-05T09:36:34Z</time>
      </trkpt>
      <trkpt lat="48.605273980647326" lon="-1.74017102457583">
        <ele>13.119999999999999</ele>
        <time>2018-07-05T09:36:51Z</time>
      </trkpt>
      <trkpt lat="48.605074994266033" lon="-1.745206033810973">
        <ele>13.6</ele>
        <time>2018-07-05T09:37:07Z</time>
      </trkpt>
      <trkpt lat="48.60493996180594" lon="-1.746649984270334">
        <ele>14.56</ele>
        <time>2018-07-05T09:37:13Z</time>
      </trkpt>
      <trkpt lat="48.604842983186245" lon="-1.747469985857606">
        <ele>14.56</ele>
        <time>2018-07-05T09:37:20Z</time>
      </trkpt>
      <trkpt lat="48.604766959324479" lon="-1.747966026887298">
        <ele>14.08</ele>
        <time>2018-07-05T09:37:30Z</time>
      </trkpt>
      <trkpt lat="48.604757990688086" lon="-1.748026041314006">
        <ele>13.6</ele>
        <time>2018-07-05T09:37:44Z</time>
      </trkpt>
      <trkpt lat="48.604743992909789" lon="-1.748115979135037">
        <ele>12.630000000000001</ele>
        <time>2018-07-05T09:38:33Z</time>
      </trkpt>
      <trkpt lat="48.604731000959873" lon="-1.748197032138705">
        <ele>12.15</ele>
        <time>2018-07-05T09:38:34Z</time>
      </trkpt>
      <trkpt lat="48.604698982089758" lon="-1.748415967449546">
        <ele>11.19</ele>
        <time>2018-07-05T09:38:36Z</time>
      </trkpt>
      <trkpt lat="48.604693030938506" lon="-1.748544964939356">
        <ele>11.19</ele>
        <time>2018-07-05T09:38:37Z</time>
      </trkpt>
      <trkpt lat="48.604688001796603" lon="-1.748667005449534">
        <ele>11.19</ele>
        <time>2018-07-05T09:38:38Z</time>
      </trkpt>
      <trkpt lat="48.604622958227992" lon="-1.749913981184363">
        <ele>11.19</ele>
        <time>2018-07-05T09:38:48Z</time>
      </trkpt>
      <trkpt lat="48.604599991813302" lon="-1.75009997561574">
        <ele>11.19</ele>
        <time>2018-07-05T09:38:51Z</time>
      </trkpt>
      <trkpt lat="48.604599991813302" lon="-1.75009997561574">
        <ele>10.23</ele>
        <time>2018-07-05T09:39:04Z</time>
      </trkpt>
      <trkpt lat="48.604597980156541" lon="-1.750114979222417">
        <ele>10.23</ele>
        <time>2018-07-05T09:39:30Z</time>
      </trkpt>
      <trkpt lat="48.60459404066205" lon="-1.750145992264152">
        <ele>8.789999999999999</ele>
        <time>2018-07-05T09:39:31Z</time>
      </trkpt>
      <trkpt lat="48.604504019021988" lon="-1.750777987763286">
        <ele>6.39</ele>
        <time>2018-07-05T09:39:38Z</time>
      </trkpt>
      <trkpt lat="48.604180980473757" lon="-1.752495020627976">
        <ele>6.87</ele>
        <time>2018-07-05T09:39:51Z</time>
      </trkpt>
      <trkpt lat="48.603586032986641" lon="-1.75398699939251">
        <ele>8.310000000000001</ele>
        <time>2018-07-05T09:40:01Z</time>
      </trkpt>
      <trkpt lat="48.603355027735233" lon="-1.754462001845241">
        <ele>7.83</ele>
        <time>2018-07-05T09:40:04Z</time>
      </trkpt>
      <trkpt lat="48.603228041902184" lon="-1.754794009029865">
        <ele>8.310000000000001</ele>
        <time>2018-07-05T09:40:06Z</time>
      </trkpt>
      <trkpt lat="48.603117987513542" lon="-1.755147976800799">
        <ele>9.27</ele>
        <time>2018-07-05T09:40:09Z</time>
      </trkpt>
      <trkpt lat="48.602766031399369" lon="-1.75738301128149">
        <ele>10.710000000000001</ele>
        <time>2018-07-05T09:40:19Z</time>
      </trkpt>
      <trkpt lat="48.602716997265816" lon="-1.759814014658332">
        <ele>11.67</ele>
        <time>2018-07-05T09:40:30Z</time>
      </trkpt>
      <trkpt lat="48.602700987830758" lon="-1.762728989124298">
        <ele>12.630000000000001</ele>
        <time>2018-07-05T09:40:42Z</time>
      </trkpt>
      <trkpt lat="48.602652037516236" lon="-1.765351016074419">
        <ele>11.19</ele>
        <time>2018-07-05T09:40:53Z</time>
      </trkpt>
      <trkpt lat="48.602480040863156" lon="-1.767324032261968">
        <ele>11.67</ele>
        <time>2018-07-05T09:41:03Z</time>
      </trkpt>
      <trkpt lat="48.602032028138638" lon="-1.769971959292889">
        <ele>11.67</ele>
        <time>2018-07-05T09:41:18Z</time>
      </trkpt>
      <trkpt lat="48.602026998996735" lon="-1.770740998908877">
        <ele>11.67</ele>
        <time>2018-07-05T09:41:23Z</time>
      </trkpt>
      <trkpt lat="48.602321036159992" lon="-1.77210096269846">
        <ele>11.19</ele>
        <time>2018-07-05T09:41:33Z</time>
      </trkpt>
      <trkpt lat="48.602781035006046" lon="-1.774090994149447">
        <ele>12.630000000000001</ele>
        <time>2018-07-05T09:41:48Z</time>
      </trkpt>
      <trkpt lat="48.602959988638759" lon="-1.775015015155077">
        <ele>14.56</ele>
        <time>2018-07-05T09:41:56Z</time>
      </trkpt>
      <trkpt lat="48.603214966133237" lon="-1.7762709595263">
        <ele>12.15</ele>
        <time>2018-07-05T09:42:07Z</time>
      </trkpt>
      <trkpt lat="48.603317979723215" lon="-1.776941008865833">
        <ele>13.119999999999999</ele>
        <time>2018-07-05T09:42:12Z</time>
      </trkpt>
      <trkpt lat="48.603343041613698" lon="-1.777078974992037">
        <ele>13.6</ele>
        <time>2018-07-05T09:42:13Z</time>
      </trkpt>
      <trkpt lat="48.603707989677787" lon="-1.77897403948009">
        <ele>16.48</ele>
        <time>2018-07-05T09:42:26Z</time>
      </trkpt>
      <trkpt lat="48.604377033188939" lon="-1.781734032556415">
        <ele>15.039999999999999</ele>
        <time>2018-07-05T09:42:43Z</time>
      </trkpt>
      <trkpt lat="48.604986984282732" lon="-1.784444991499186">
        <ele>16</ele>
        <time>2018-07-05T09:42:58Z</time>
      </trkpt>
      <trkpt lat="48.605415970087051" lon="-1.787120997905731">
        <ele>14.56</ele>
        <time>2018-07-05T09:43:12Z</time>
      </trkpt>
      <trkpt lat="48.605872029438615" lon="-1.79038398899138">
        <ele>14.56</ele>
        <time>2018-07-05T09:43:28Z</time>
      </trkpt>
      <trkpt lat="48.606261033564806" lon="-1.794042019173503">
        <ele>13.6</ele>
        <time>2018-07-05T09:43:43Z</time>
      </trkpt>
      <trkpt lat="48.606563033536077" lon="-1.797275003045797">
        <ele>14.08</ele>
        <time>2018-07-05T09:43:58Z</time>
      </trkpt>
      <trkpt lat="48.606745004653931" lon="-1.799377016723156">
        <ele>13.6</ele>
        <time>2018-07-05T09:44:10Z</time>
      </trkpt>
      <trkpt lat="48.606950026005507" lon="-1.801753034815192">
        <ele>13.119999999999999</ele>
        <time>2018-07-05T09:44:25Z</time>
      </trkpt>
      <trkpt lat="48.607282033190131" lon="-1.804958023130894">
        <ele>14.56</ele>
        <time>2018-07-05T09:44:43Z</time>
      </trkpt>
      <trkpt lat="48.607627032324672" lon="-1.808125041425228">
        <ele>14.56</ele>
        <time>2018-07-05T09:45:00Z</time>
      </trkpt>
      <trkpt lat="48.608080996200442" lon="-1.811947021633387">
        <ele>14.08</ele>
        <time>2018-07-05T09:45:21Z</time>
      </trkpt>
      <trkpt lat="48.608400011435151" lon="-1.814241986721754">
        <ele>13.6</ele>
        <time>2018-07-05T09:45:33Z</time>
      </trkpt>
      <trkpt lat="48.608875013887882" lon="-1.817300040274859">
        <ele>14.08</ele>
        <time>2018-07-05T09:45:45Z</time>
      </trkpt>
      <trkpt lat="48.609127979725599" lon="-1.818741979077458">
        <ele>14.56</ele>
        <time>2018-07-05T09:45:52Z</time>
      </trkpt>
      <trkpt lat="48.609302993863821" lon="-1.819742023944855">
        <ele>14.56</ele>
        <time>2018-07-05T09:45:59Z</time>
      </trkpt>
      <trkpt lat="48.609657967463136" lon="-1.821781005710363">
        <ele>14.08</ele>
        <time>2018-07-05T09:46:08Z</time>
      </trkpt>
      <trkpt lat="48.609991986304522" lon="-1.823565009981394">
        <ele>14.56</ele>
        <time>2018-07-05T09:46:17Z</time>
      </trkpt>
      <trkpt lat="48.610561033710837" lon="-1.826224001124501">
        <ele>15.039999999999999</ele>
        <time>2018-07-05T09:46:30Z</time>
      </trkpt>
      <trkpt lat="48.611252959817648" lon="-1.829064041376114">
        <ele>15.039999999999999</ele>
        <time>2018-07-05T09:46:42Z</time>
      </trkpt>
      <trkpt lat="48.612249987199903" lon="-1.83307402767241">
        <ele>15.039999999999999</ele>
        <time>2018-07-05T09:46:59Z</time>
      </trkpt>
      <trkpt lat="48.61303998157382" lon="-1.836795005947352">
        <ele>15.039999999999999</ele>
        <time>2018-07-05T09:47:15Z</time>
      </trkpt>
      <trkpt lat="48.61338104121387" lon="-1.838589990511537">
        <ele>15.52</ele>
        <time>2018-07-05T09:47:25Z</time>
      </trkpt>
      <trkpt lat="48.613812038674951" lon="-1.840091021731496">
        <ele>14.56</ele>
        <time>2018-07-05T09:47:37Z</time>
      </trkpt>
      <trkpt lat="48.614004990085959" lon="-1.841489039361477">
        <ele>13.119999999999999</ele>
        <time>2018-07-05T09:47:47Z</time>
      </trkpt>
      <trkpt lat="48.614043965935707" lon="-1.841613007709384">
        <ele>12.630000000000001</ele>
        <time>2018-07-05T09:47:48Z</time>
      </trkpt>
      <trkpt lat="48.614189978688955" lon="-1.84196999296546">
        <ele>12.630000000000001</ele>
        <time>2018-07-05T09:47:51Z</time>
      </trkpt>
      <trkpt lat="48.614871008321643" lon="-1.84326097369194">
        <ele>14.08</ele>
        <time>2018-07-05T09:48:02Z</time>
      </trkpt>
      <trkpt lat="48.616015976294875" lon="-1.845079008489847">
        <ele>15.039999999999999</ele>
        <time>2018-07-05T09:48:17Z</time>
      </trkpt>
      <trkpt lat="48.617134038358927" lon="-1.846857983618975">
        <ele>16</ele>
        <time>2018-07-05T09:48:31Z</time>
      </trkpt>
      <trkpt lat="48.617931995540857" lon="-1.848130021244288">
        <ele>16</ele>
        <time>2018-07-05T09:48:43Z</time>
      </trkpt>
      <trkpt lat="48.618537001311779" lon="-1.849058987572789">
        <ele>16.48</ele>
        <time>2018-07-05T09:48:55Z</time>
      </trkpt>
      <trkpt lat="48.61858201213181" lon="-1.849131993949413">
        <ele>16.48</ele>
        <time>2018-07-05T09:48:56Z</time>
      </trkpt>
      <trkpt lat="48.618627022951841" lon="-1.849203994497657">
        <ele>16.48</ele>
        <time>2018-07-05T09:48:57Z</time>
      </trkpt>
      <trkpt lat="48.619306962937117" lon="-1.850276039913297">
        <ele>16</ele>
        <time>2018-07-05T09:49:10Z</time>
      </trkpt>
      <trkpt lat="48.619927978143096" lon="-1.851332997903228">
        <ele>15.039999999999999</ele>
        <time>2018-07-05T09:49:21Z</time>
      </trkpt>
      <trkpt lat="48.620077008381486" lon="-1.851558974012733">
        <ele>13.6</ele>
        <time>2018-07-05T09:49:28Z</time>
      </trkpt>
      <trkpt lat="48.620077008381486" lon="-1.851558974012733">
        <ele>13.6</ele>
        <time>2018-07-05T09:49:51Z</time>
      </trkpt>
      <trkpt lat="48.6201729811728" lon="-1.851704986765981">
        <ele>12.630000000000001</ele>
        <time>2018-07-05T09:50:03Z</time>
      </trkpt>
      <trkpt lat="48.620225032791495" lon="-1.851784028112888">
        <ele>12.15</ele>
        <time>2018-07-05T09:50:04Z</time>
      </trkpt>
      <trkpt lat="48.620284041389823" lon="-1.8518749717623">
        <ele>12.15</ele>
        <time>2018-07-05T09:50:05Z</time>
      </trkpt>
      <trkpt lat="48.621028019115329" lon="-1.853002002462745">
        <ele>11.67</ele>
        <time>2018-07-05T09:50:16Z</time>
      </trkpt>
      <trkpt lat="48.622029991820455" lon="-1.854446036741138">
        <ele>11.67</ele>
        <time>2018-07-05T09:50:29Z</time>
      </trkpt>
      <trkpt lat="48.623378975316882" lon="-1.856176983565092">
        <ele>12.15</ele>
        <time>2018-07-05T09:50:44Z</time>
      </trkpt>
      <trkpt lat="48.625172032043338" lon="-1.858142958953977">
        <ele>12.630000000000001</ele>
        <time>2018-07-05T09:51:00Z</time>
      </trkpt>
      <trkpt lat="48.627312015742064" lon="-1.860387967899442">
        <ele>12.630000000000001</ele>
        <time>2018-07-05T09:51:17Z</time>
      </trkpt>
      <trkpt lat="48.629314033314586" lon="-1.862296024337411">
        <ele>12.630000000000001</ele>
        <time>2018-07-05T09:51:32Z</time>
      </trkpt>
      <trkpt lat="48.631081022322178" lon="-1.863753972575069">
        <ele>12.15</ele>
        <time>2018-07-05T09:51:45Z</time>
      </trkpt>
      <trkpt lat="48.633466009050608" lon="-1.865449966862798">
        <ele>11.67</ele>
        <time>2018-07-05T09:52:02Z</time>
      </trkpt>
      <trkpt lat="48.635139958932996" lon="-1.866669030860066">
        <ele>13.6</ele>
        <time>2018-07-05T09:52:13Z</time>
      </trkpt>
      <trkpt lat="48.637152034789324" lon="-1.86820400878787">
        <ele>13.119999999999999</ele>
        <time>2018-07-05T09:52:27Z</time>
      </trkpt>
      <trkpt lat="48.638424994423985" lon="-1.869538994506002">
        <ele>13.6</ele>
        <time>2018-07-05T09:52:36Z</time>
      </trkpt>
      <trkpt lat="48.639394026249647" lon="-1.871374966576695">
        <ele>13.6</ele>
        <time>2018-07-05T09:52:44Z</time>
      </trkpt>
      <trkpt lat="48.641264028847218" lon="-1.875592991709709">
        <ele>16.48</ele>
        <time>2018-07-05T09:53:01Z</time>
      </trkpt>
      <trkpt lat="48.642789032310247" lon="-1.87905496917665">
        <ele>15.039999999999999</ele>
        <time>2018-07-05T09:53:15Z</time>
      </trkpt>
      <trkpt lat="48.643644992262125" lon="-1.88098800368607">
        <ele>18.399999999999999</ele>
        <time>2018-07-05T09:53:23Z</time>
      </trkpt>
      <trkpt lat="48.64425603300333" lon="-1.883082976564765">
        <ele>26.09</ele>
        <time>2018-07-05T09:53:31Z</time>
      </trkpt>
      <trkpt lat="48.644432974979281" lon="-1.884158961474896">
        <ele>29.940000000000001</ele>
        <time>2018-07-05T09:53:37Z</time>
      </trkpt>
      <trkpt lat="48.644453007727861" lon="-1.884276978671551">
        <ele>30.420000000000002</ele>
        <time>2018-07-05T09:53:38Z</time>
      </trkpt>
      <trkpt lat="48.644573958590627" lon="-1.884422991424799">
        <ele>30.899999999999999</ele>
        <time>2018-07-05T09:53:39Z</time>
      </trkpt>
      <trkpt lat="48.644647970795631" lon="-1.884413016960025">
        <ele>31.859999999999999</ele>
        <time>2018-07-05T09:53:40Z</time>
      </trkpt>
      <trkpt lat="48.644732041284442" lon="-1.884402958676219">
        <ele>32.340000000000003</ele>
        <time>2018-07-05T09:53:41Z</time>
      </trkpt>
      <trkpt lat="48.644832959398627" lon="-1.884389966726303">
        <ele>33.299999999999997</ele>
        <time>2018-07-05T09:53:42Z</time>
      </trkpt>
      <trkpt lat="48.644948964938521" lon="-1.884375968948007">
        <ele>34.259999999999998</ele>
        <time>2018-07-05T09:53:43Z</time>
      </trkpt>
      <trkpt lat="48.645077040418983" lon="-1.884340010583401">
        <ele>35.229999999999997</ele>
        <time>2018-07-05T09:53:44Z</time>
      </trkpt>
      <trkpt lat="48.646098962053657" lon="-1.883945977315307">
        <ele>40.030000000000001</ele>
        <time>2018-07-05T09:53:50Z</time>
      </trkpt>
      <trkpt lat="48.647423973307014" lon="-1.882967976853252">
        <ele>43.880000000000003</ele>
        <time>2018-07-05T09:53:57Z</time>
      </trkpt>
      <trkpt lat="48.648154959082603" lon="-1.881768023595214">
        <ele>45.799999999999997</ele>
        <time>2018-07-05T09:54:03Z</time>
      </trkpt>
      <trkpt lat="48.648816039785743" lon="-1.879889974370599">
        <ele>43.399999999999999</ele>
        <time>2018-07-05T09:54:12Z</time>
      </trkpt>
      <trkpt lat="48.649474019184709" lon="-1.877845041453838">
        <ele>41.950000000000003</ele>
        <time>2018-07-05T09:54:22Z</time>
      </trkpt>
      <trkpt lat="48.650330984964967" lon="-1.876121973618865">
        <ele>40.990000000000002</ele>
        <time>2018-07-05T09:54:31Z</time>
      </trkpt>
      <trkpt lat="48.651531022042036" lon="-1.874786987900734">
        <ele>40.990000000000002</ele>
        <time>2018-07-05T09:54:40Z</time>
      </trkpt>
      <trkpt lat="48.653568997979164" lon="-1.87314597889781">
        <ele>39.549999999999997</ele>
        <time>2018-07-05T09:54:53Z</time>
      </trkpt>
      <trkpt lat="48.655965970829129" lon="-1.871330961585045">
        <ele>43.880000000000003</ele>
        <time>2018-07-05T09:55:08Z</time>
      </trkpt>
      <trkpt lat="48.656441979110241" lon="-1.871016975492239">
        <ele>45.32</ele>
        <time>2018-07-05T09:55:11Z</time>
      </trkpt>
      <trkpt lat="48.656595032662153" lon="-1.870915973559022">
        <ele>45.799999999999997</ele>
        <time>2018-07-05T09:55:12Z</time>
      </trkpt>
      <trkpt lat="48.658061027526855" lon="-1.869934033602476">
        <ele>49.649999999999999</ele>
        <time>2018-07-05T09:55:23Z</time>
      </trkpt>
      <trkpt lat="48.659415040165186" lon="-1.868626959621906">
        <ele>51.57</ele>
        <time>2018-07-05T09:55:35Z</time>
      </trkpt>
      <trkpt lat="48.660764023661613" lon="-1.867328016087413">
        <ele>50.130000000000003</ele>
        <time>2018-07-05T09:55:45Z</time>
      </trkpt>
      <trkpt lat="48.662162963300943" lon="-1.866746982559562">
        <ele>48.200000000000003</ele>
        <time>2018-07-05T09:55:53Z</time>
      </trkpt>
      <trkpt lat="48.664248967543244" lon="-1.86584098264575">
        <ele>46.280000000000001</ele>
        <time>2018-07-05T09:56:05Z</time>
      </trkpt>
      <trkpt lat="48.665674980729818" lon="-1.865252992138267">
        <ele>46.759999999999998</ele>
        <time>2018-07-05T09:56:13Z</time>
      </trkpt>
      <trkpt lat="48.666525995358825" lon="-1.86530495993793">
        <ele>46.280000000000001</ele>
        <time>2018-07-05T09:56:19Z</time>
      </trkpt>
      <trkpt lat="48.667561998590827" lon="-1.865319963544607">
        <ele>46.280000000000001</ele>
        <time>2018-07-05T09:56:28Z</time>
      </trkpt>
      <trkpt lat="48.668766980990767" lon="-1.865029027685523">
        <ele>46.280000000000001</ele>
        <time>2018-07-05T09:56:38Z</time>
      </trkpt>
      <trkpt lat="48.669427977874875" lon="-1.86485200189054">
        <ele>48.200000000000003</ele>
        <time>2018-07-05T09:56:44Z</time>
      </trkpt>
      <trkpt lat="48.669426972046494" lon="-1.86485200189054">
        <ele>48.200000000000003</ele>
        <time>2018-07-05T09:56:45Z</time>
      </trkpt>
      <trkpt lat="48.669563010334969" lon="-1.864811014384031">
        <ele>48.68</ele>
        <time>2018-07-05T09:56:46Z</time>
      </trkpt>
      <trkpt lat="48.669613972306252" lon="-1.864796010777354">
        <ele>48.68</ele>
        <time>2018-07-05T09:56:47Z</time>
      </trkpt>
      <trkpt lat="48.669662000611424" lon="-1.864782012999058">
        <ele>48.200000000000003</ele>
        <time>2018-07-05T09:56:48Z</time>
      </trkpt>
      <trkpt lat="48.669710028916597" lon="-1.864770026877523">
        <ele>48.200000000000003</ele>
        <time>2018-07-05T09:56:49Z</time>
      </trkpt>
      <trkpt lat="48.669758979231119" lon="-1.864758040755987">
        <ele>48.200000000000003</ele>
        <time>2018-07-05T09:56:50Z</time>
      </trkpt>
      <trkpt lat="48.669798038899899" lon="-1.864748988300562">
        <ele>48.200000000000003</ele>
        <time>2018-07-05T09:56:51Z</time>
      </trkpt>
      <trkpt lat="48.669788986444473" lon="-1.864750999957323">
        <ele>48.200000000000003</ele>
        <time>2018-07-05T09:56:53Z</time>
      </trkpt>
      <trkpt lat="48.669755961745977" lon="-1.864758040755987">
        <ele>48.200000000000003</ele>
        <time>2018-07-05T09:56:54Z</time>
      </trkpt>
      <trkpt lat="48.669703993946314" lon="-1.864771032705903">
        <ele>48.200000000000003</ele>
        <time>2018-07-05T09:56:55Z</time>
      </trkpt>
      <trkpt lat="48.669632999226451" lon="-1.864789975807071">
        <ele>48.200000000000003</ele>
        <time>2018-07-05T09:56:56Z</time>
      </trkpt>
      <trkpt lat="48.669632999226451" lon="-1.864789975807071">
        <ele>48.200000000000003</ele>
        <time>2018-07-05T09:56:57Z</time>
      </trkpt>
      <trkpt lat="48.668641000986099" lon="-1.865060962736607">
        <ele>46.280000000000001</ele>
        <time>2018-07-05T09:57:04Z</time>
      </trkpt>
      <trkpt lat="48.667498966678977" lon="-1.865334967151284">
        <ele>43.880000000000003</ele>
        <time>2018-07-05T09:57:12Z</time>
      </trkpt>
      <trkpt lat="48.666220977902412" lon="-1.865287022665143">
        <ele>42.439999999999998</ele>
        <time>2018-07-05T09:57:20Z</time>
      </trkpt>
      <trkpt lat="48.665600968524814" lon="-1.86525902710855">
        <ele>41.950000000000003</ele>
        <time>2018-07-05T09:57:26Z</time>
      </trkpt>
      <trkpt lat="48.665564004331827" lon="-1.865266989916563">
        <ele>41.950000000000003</ele>
        <time>2018-07-05T09:57:27Z</time>
      </trkpt>
      <trkpt lat="48.665540032088757" lon="-1.865272019058466">
        <ele>41.950000000000003</ele>
        <time>2018-07-05T09:57:28Z</time>
      </trkpt>
      <trkpt lat="48.665509019047022" lon="-1.865278976038098">
        <ele>41.950000000000003</ele>
        <time>2018-07-05T09:57:30Z</time>
      </trkpt>
      <trkpt lat="48.665478006005287" lon="-1.865103961899877">
        <ele>41.950000000000003</ele>
        <time>2018-07-05T09:57:33Z</time>
      </trkpt>
      <trkpt lat="48.665521005168557" lon="-1.865047970786691">
        <ele>42.920000000000002</ele>
        <time>2018-07-05T09:57:40Z</time>
      </trkpt>
      <trkpt lat="48.665541959926486" lon="-1.865078983828425">
        <ele>43.399999999999999</ele>
        <time>2018-07-05T09:57:58Z</time>
      </trkpt>
      <trkpt lat="48.665541037917137" lon="-1.865085018798709">
        <ele>43.880000000000003</ele>
        <time>2018-07-05T09:58:48Z</time>
      </trkpt>
      <trkpt lat="48.665538020431995" lon="-1.86508703045547">
        <ele>43.880000000000003</ele>
        <time>2018-07-05T09:59:26Z</time>
      </trkpt>
      <trkpt lat="48.66557196713984" lon="-1.865265984088182">
        <ele>43.399999999999999</ele>
        <time>2018-07-05T09:59:36Z</time>
      </trkpt>
      <trkpt lat="48.665636004880071" lon="-1.865250980481505">
        <ele>43.399999999999999</ele>
        <time>2018-07-05T09:59:37Z</time>
      </trkpt>
      <trkpt lat="48.665636004880071" lon="-1.865250980481505">
        <ele>43.399999999999999</ele>
        <time>2018-07-05T09:59:38Z</time>
      </trkpt>
      <trkpt lat="48.665636004880071" lon="-1.865250980481505">
        <ele>43.880000000000003</ele>
        <time>2018-07-05T09:59:39Z</time>
      </trkpt>
      <trkpt lat="48.665746981278062" lon="-1.86525802128017">
        <ele>43.880000000000003</ele>
        <time>2018-07-05T09:59:40Z</time>
      </trkpt>
      <trkpt lat="48.666414013132453" lon="-1.865299008786678">
        <ele>44.840000000000003</ele>
        <time>2018-07-05T09:59:46Z</time>
      </trkpt>
      <trkpt lat="48.66784899495542" lon="-1.865255003795028">
        <ele>45.799999999999997</ele>
        <time>2018-07-05T09:59:55Z</time>
      </trkpt>
      <trkpt lat="48.668950041756034" lon="-1.864982005208731">
        <ele>46.280000000000001</ele>
        <time>2018-07-05T10:00:02Z</time>
      </trkpt>
      <trkpt lat="48.669306021183729" lon="-1.864887960255146">
        <ele>46.759999999999998</ele>
        <time>2018-07-05T10:00:06Z</time>
      </trkpt>
      <trkpt lat="48.66947902366519" lon="-1.864836998283863">
        <ele>46.280000000000001</ele>
        <time>2018-07-05T10:00:07Z</time>
      </trkpt>
      <trkpt lat="48.66954498924315" lon="-1.864816965535283">
        <ele>46.759999999999998</ele>
        <time>2018-07-05T10:00:08Z</time>
      </trkpt>
      <trkpt lat="48.669606009498239" lon="-1.864798022434115">
        <ele>46.280000000000001</ele>
        <time>2018-07-05T10:00:09Z</time>
      </trkpt>
      <trkpt lat="48.669669963419437" lon="-1.864778995513916">
        <ele>46.759999999999998</ele>
        <time>2018-07-05T10:00:10Z</time>
      </trkpt>
      <trkpt lat="48.669744981452823" lon="-1.864760974422097">
        <ele>46.759999999999998</ele>
        <time>2018-07-05T10:00:11Z</time>
      </trkpt>
      <trkpt lat="48.669826034456491" lon="-1.86474203132093">
        <ele>46.280000000000001</ele>
        <time>2018-07-05T10:00:12Z</time>
      </trkpt>
      <trkpt lat="48.669917983934283" lon="-1.864719986915588">
        <ele>46.280000000000001</ele>
        <time>2018-07-05T10:00:13Z</time>
      </trkpt>
      <trkpt lat="48.670023009181023" lon="-1.864695008844137">
        <ele>46.280000000000001</ele>
        <time>2018-07-05T10:00:14Z</time>
      </trkpt>
      <trkpt lat="48.670135997235775" lon="-1.864668019115925">
        <ele>46.280000000000001</ele>
        <time>2018-07-05T10:00:15Z</time>
      </trkpt>
      <trkpt lat="48.671231009066105" lon="-1.864622002467513">
        <ele>44.359999999999999</ele>
        <time>2018-07-05T10:00:23Z</time>
      </trkpt>
      <trkpt lat="48.672330966219306" lon="-1.864606998860836">
        <ele>42.439999999999998</ele>
        <time>2018-07-05T10:00:33Z</time>
      </trkpt>
      <trkpt lat="48.673697970807552" lon="-1.863975003361702">
        <ele>48.200000000000003</ele>
        <time>2018-07-05T10:00:44Z</time>
      </trkpt>
      <trkpt lat="48.673781035467982" lon="-1.863935021683574">
        <ele>48.68</ele>
        <time>2018-07-05T10:00:45Z</time>
      </trkpt>
      <trkpt lat="48.673940040171146" lon="-1.863727988675237">
        <ele>49.649999999999999</ele>
        <time>2018-07-05T10:00:47Z</time>
      </trkpt>
      <trkpt lat="48.673980021849275" lon="-1.863700998947024">
        <ele>50.130000000000003</ele>
        <time>2018-07-05T10:00:48Z</time>
      </trkpt>
      <trkpt lat="48.674812009558082" lon="-1.863409979268909">
        <ele>53.969999999999999</ele>
        <time>2018-07-05T10:00:56Z</time>
      </trkpt>
      <trkpt lat="48.676288984715939" lon="-1.862641023471952">
        <ele>54.93</ele>
        <time>2018-07-05T10:01:07Z</time>
      </trkpt>
      <trkpt lat="48.676559971645474" lon="-1.862447988241911">
        <ele>54.93</ele>
        <time>2018-07-05T10:01:09Z</time>
      </trkpt>
      <trkpt lat="48.677612990140915" lon="-1.861277036368847">
        <ele>53.009999999999998</ele>
        <time>2018-07-05T10:01:18Z</time>
      </trkpt>
      <trkpt lat="48.677704017609358" lon="-1.861162958666682">
        <ele>52.530000000000001</ele>
        <time>2018-07-05T10:01:19Z</time>
      </trkpt>
      <trkpt lat="48.677790015935898" lon="-1.861054999753833">
        <ele>52.530000000000001</ele>
        <time>2018-07-05T10:01:20Z</time>
      </trkpt>
      <trkpt lat="48.677867967635393" lon="-1.860952991992235">
        <ele>52.530000000000001</ele>
        <time>2018-07-05T10:01:21Z</time>
      </trkpt>
      <trkpt lat="48.677939968183637" lon="-1.860859030857682">
        <ele>52.049999999999997</ele>
        <time>2018-07-05T10:01:22Z</time>
      </trkpt>
      <trkpt lat="48.678003000095487" lon="-1.860775966197252">
        <ele>52.049999999999997</ele>
        <time>2018-07-05T10:01:23Z</time>
      </trkpt>
      <trkpt lat="48.678402984514832" lon="-1.860251007601619">
        <ele>50.130000000000003</ele>
        <time>2018-07-05T10:01:31Z</time>
      </trkpt>
      <trkpt lat="48.679002961143851" lon="-1.859815986827016">
        <ele>44.840000000000003</ele>
        <time>2018-07-05T10:01:38Z</time>
      </trkpt>
      <trkpt lat="48.680104007944465" lon="-1.85892197303474">
        <ele>42.439999999999998</ele>
        <time>2018-07-05T10:01:49Z</time>
      </trkpt>
      <trkpt lat="48.680763999000192" lon="-1.858386034145951">
        <ele>42.920000000000002</ele>
        <time>2018-07-05T10:01:57Z</time>
      </trkpt>
      <trkpt lat="48.681844007223845" lon="-1.85752403922379">
        <ele>46.280000000000001</ele>
        <time>2018-07-05T10:02:07Z</time>
      </trkpt>
      <trkpt lat="48.682669959962368" lon="-1.856834962964058">
        <ele>50.130000000000003</ele>
        <time>2018-07-05T10:02:16Z</time>
      </trkpt>
      <trkpt lat="48.682852014899254" lon="-1.856706971302629">
        <ele>51.090000000000003</ele>
        <time>2018-07-05T10:02:19Z</time>
      </trkpt>
      <trkpt lat="48.682925021275878" lon="-1.856505973264575">
        <ele>51.57</ele>
        <time>2018-07-05T10:02:21Z</time>
      </trkpt>
      <trkpt lat="48.682982018217444" lon="-1.856462974101305">
        <ele>52.049999999999997</ele>
        <time>2018-07-05T10:02:22Z</time>
      </trkpt>
      <trkpt lat="48.683075979351997" lon="-1.856505973264575">
        <ele>52.049999999999997</ele>
        <time>2018-07-05T10:02:23Z</time>
      </trkpt>
      <trkpt lat="48.683155020698905" lon="-1.856446964666247">
        <ele>52.049999999999997</ele>
        <time>2018-07-05T10:02:24Z</time>
      </trkpt>
      <trkpt lat="48.683245964348316" lon="-1.856376975774765">
        <ele>52.530000000000001</ele>
        <time>2018-07-05T10:02:25Z</time>
      </trkpt>
      <trkpt lat="48.683345960453153" lon="-1.856290977448225">
        <ele>52.530000000000001</ele>
        <time>2018-07-05T10:02:26Z</time>
      </trkpt>
      <trkpt lat="48.683456014841795" lon="-1.856197016313672">
        <ele>52.530000000000001</ele>
        <time>2018-07-05T10:02:27Z</time>
      </trkpt>
      <trkpt lat="48.685113033279777" lon="-1.854693973436952">
        <ele>51.090000000000003</ele>
        <time>2018-07-05T10:02:41Z</time>
      </trkpt>
      <trkpt lat="48.685248987749219" lon="-1.854555001482368">
        <ele>50.609999999999999</ele>
        <time>2018-07-05T10:02:42Z</time>
      </trkpt>
      <trkpt lat="48.686500992625952" lon="-1.853193026036024">
        <ele>49.649999999999999</ele>
        <time>2018-07-05T10:02:50Z</time>
      </trkpt>
      <trkpt lat="48.688428997993469" lon="-1.850755987688899">
        <ele>51.090000000000003</ele>
        <time>2018-07-05T10:03:03Z</time>
      </trkpt>
      <trkpt lat="48.689678991213441" lon="-1.849099975079298">
        <ele>47.719999999999999</ele>
        <time>2018-07-05T10:03:13Z</time>
      </trkpt>
      <trkpt lat="48.690234962850809" lon="-1.848439984023571">
        <ele>45.32</ele>
        <time>2018-07-05T10:03:18Z</time>
      </trkpt>
      <trkpt lat="48.690359015017748" lon="-1.848334036767483">
        <ele>44.840000000000003</ele>
        <time>2018-07-05T10:03:19Z</time>
      </trkpt>
      <trkpt lat="48.690488012507558" lon="-1.848262036219239">
        <ele>44.359999999999999</ele>
        <time>2018-07-05T10:03:20Z</time>
      </trkpt>
      <trkpt lat="48.690626984462142" lon="-1.848203027620912">
        <ele>43.880000000000003</ele>
        <time>2018-07-05T10:03:21Z</time>
      </trkpt>
      <trkpt lat="48.690766040235758" lon="-1.848145024850965">
        <ele>43.399999999999999</ele>
        <time>2018-07-05T10:03:22Z</time>
      </trkpt>
      <trkpt lat="48.690907023847103" lon="-1.848132032901049">
        <ele>42.920000000000002</ele>
        <time>2018-07-05T10:03:23Z</time>
      </trkpt>
      <trkpt lat="48.691054964438081" lon="-1.848137984052301">
        <ele>42.439999999999998</ele>
        <time>2018-07-05T10:03:24Z</time>
      </trkpt>
      <trkpt lat="48.691205000504851" lon="-1.848144019022584">
        <ele>42.439999999999998</ele>
        <time>2018-07-05T10:03:25Z</time>
      </trkpt>
      <trkpt lat="48.691350007429719" lon="-1.848165979608893">
        <ele>41.950000000000003</ele>
        <time>2018-07-05T10:03:26Z</time>
      </trkpt>
      <trkpt lat="48.691489985212684" lon="-1.84824401512742">
        <ele>41.950000000000003</ele>
        <time>2018-07-05T10:03:27Z</time>
      </trkpt>
      <trkpt lat="48.6916290409863" lon="-1.848322972655296">
        <ele>41.469999999999999</ele>
        <time>2018-07-05T10:03:28Z</time>
      </trkpt>
      <trkpt lat="48.69175803847611" lon="-1.848431015387178">
        <ele>40.990000000000002</ele>
        <time>2018-07-05T10:03:29Z</time>
      </trkpt>
      <trkpt lat="48.691884018480778" lon="-1.848549032583833">
        <ele>40.509999999999998</ele>
        <time>2018-07-05T10:03:30Z</time>
      </trkpt>
      <trkpt lat="48.692011004313827" lon="-1.848668977618218">
        <ele>40.030000000000001</ele>
        <time>2018-07-05T10:03:31Z</time>
      </trkpt>
      <trkpt lat="48.692209990695119" lon="-1.849010037258267">
        <ele>39.07</ele>
        <time>2018-07-05T10:03:33Z</time>
      </trkpt>
      <trkpt lat="48.692309986799955" lon="-1.849187985062599">
        <ele>38.590000000000003</ele>
        <time>2018-07-05T10:03:34Z</time>
      </trkpt>
      <trkpt lat="48.692409982904792" lon="-1.849369034171104">
        <ele>37.630000000000003</ele>
        <time>2018-07-05T10:03:35Z</time>
      </trkpt>
      <trkpt lat="48.69354497641325" lon="-1.851352024823427">
        <ele>25.609999999999999</ele>
        <time>2018-07-05T10:03:46Z</time>
      </trkpt>
      <trkpt lat="48.693655030801892" lon="-1.851510023698211">
        <ele>25.609999999999999</ele>
        <time>2018-07-05T10:03:47Z</time>
      </trkpt>
      <trkpt lat="48.693998018279672" lon="-1.851955018937588">
        <ele>25.609999999999999</ele>
        <time>2018-07-05T10:03:50Z</time>
      </trkpt>
      <trkpt lat="48.694906029850245" lon="-1.852534962818027">
        <ele>30.420000000000002</ele>
        <time>2018-07-05T10:03:58Z</time>
      </trkpt>
      <trkpt lat="48.695148015394807" lon="-1.85260696336627">
        <ele>31.859999999999999</ele>
        <time>2018-07-05T10:04:00Z</time>
      </trkpt>
      <trkpt lat="48.695267960429192" lon="-1.852641999721527">
        <ele>32.340000000000003</ele>
        <time>2018-07-05T10:04:01Z</time>
      </trkpt>
      <trkpt lat="48.696533963084221" lon="-1.852654991671443">
        <ele>37.630000000000003</ele>
        <time>2018-07-05T10:04:10Z</time>
      </trkpt>
      <trkpt lat="48.6981410253793" lon="-1.852634036913514">
        <ele>41.950000000000003</ele>
        <time>2018-07-05T10:04:20Z</time>
      </trkpt>
      <trkpt lat="48.699271995574236" lon="-1.852581985294819">
        <ele>40.509999999999998</ele>
        <time>2018-07-05T10:04:30Z</time>
      </trkpt>
      <trkpt lat="48.700498016551137" lon="-1.852217959240079">
        <ele>34.740000000000002</ele>
        <time>2018-07-05T10:04:40Z</time>
      </trkpt>
      <trkpt lat="48.700619973242283" lon="-1.852147970348597">
        <ele>34.259999999999998</ele>
        <time>2018-07-05T10:04:41Z</time>
      </trkpt>
      <trkpt lat="48.70190299116075" lon="-1.851473981514573">
        <ele>29.940000000000001</ele>
        <time>2018-07-05T10:04:51Z</time>
      </trkpt>
      <trkpt lat="48.703159019351006" lon="-1.851043989881873">
        <ele>29.460000000000001</ele>
        <time>2018-07-05T10:05:01Z</time>
      </trkpt>
      <trkpt lat="48.703842982649803" lon="-1.850791024044156">
        <ele>32.82</ele>
        <time>2018-07-05T10:05:07Z</time>
      </trkpt>
      <trkpt lat="48.703944990411401" lon="-1.850697984918952">
        <ele>33.299999999999997</ele>
        <time>2018-07-05T10:05:08Z</time>
      </trkpt>
      <trkpt lat="48.704026965424418" lon="-1.850583991035819">
        <ele>33.299999999999997</ele>
        <time>2018-07-05T10:05:09Z</time>
      </trkpt>
      <trkpt lat="48.704111035913229" lon="-1.850468991324306">
        <ele>33.780000000000001</ele>
        <time>2018-07-05T10:05:10Z</time>
      </trkpt>
      <trkpt lat="48.704186975955963" lon="-1.850343011319637">
        <ele>34.740000000000002</ele>
        <time>2018-07-05T10:05:11Z</time>
      </trkpt>
      <trkpt lat="48.70424103923142" lon="-1.850179983302951">
        <ele>35.229999999999997</ele>
        <time>2018-07-05T10:05:12Z</time>
      </trkpt>
      <trkpt lat="48.704295018687844" lon="-1.850017961114645">
        <ele>35.710000000000001</ele>
        <time>2018-07-05T10:05:13Z</time>
      </trkpt>
      <trkpt lat="48.70435000397265" lon="-1.84985401108861">
        <ele>36.670000000000002</ele>
        <time>2018-07-05T10:05:14Z</time>
      </trkpt>
      <trkpt lat="48.704512026160955" lon="-1.849349001422525">
        <ele>38.109999999999999</ele>
        <time>2018-07-05T10:05:17Z</time>
      </trkpt>
      <trkpt lat="48.704569023102522" lon="-1.849187985062599">
        <ele>38.590000000000003</ele>
        <time>2018-07-05T10:05:18Z</time>
      </trkpt>
      <trkpt lat="48.704661978408694" lon="-1.849055970087647">
        <ele>39.07</ele>
        <time>2018-07-05T10:05:19Z</time>
      </trkpt>
      <trkpt lat="48.705889005213976" lon="-1.847675973549485">
        <ele>41.950000000000003</ele>
        <time>2018-07-05T10:05:31Z</time>
      </trkpt>
      <trkpt lat="48.706868011504412" lon="-1.847005002200604">
        <ele>42.920000000000002</ele>
        <time>2018-07-05T10:05:39Z</time>
      </trkpt>
      <trkpt lat="48.706960966810584" lon="-1.846911963075399">
        <ele>42.920000000000002</ele>
        <time>2018-07-05T10:05:40Z</time>
      </trkpt>
      <trkpt lat="48.707037996500731" lon="-1.846801992505789">
        <ele>42.920000000000002</ele>
        <time>2018-07-05T10:05:41Z</time>
      </trkpt>
      <trkpt lat="48.707400010898709" lon="-1.846211990341544">
        <ele>40.509999999999998</ele>
        <time>2018-07-05T10:05:48Z</time>
      </trkpt>
      <trkpt lat="48.707411997020245" lon="-1.846189023926854">
        <ele>40.509999999999998</ele>
        <time>2018-07-05T10:05:49Z</time>
      </trkpt>
      <trkpt lat="48.707425994798541" lon="-1.846163962036371">
        <ele>40.030000000000001</ele>
        <time>2018-07-05T10:05:50Z</time>
      </trkpt>
      <trkpt lat="48.70744401589036" lon="-1.846131021156907">
        <ele>39.549999999999997</ele>
        <time>2018-07-05T10:05:51Z</time>
      </trkpt>
      <trkpt lat="48.707478968426585" lon="-1.846067989245057">
        <ele>39.549999999999997</ele>
        <time>2018-07-05T10:05:52Z</time>
      </trkpt>
      <trkpt lat="48.707827990874648" lon="-1.845627017319202">
        <ele>37.149999999999999</ele>
        <time>2018-07-05T10:05:59Z</time>
      </trkpt>
      <trkpt lat="48.707885993644595" lon="-1.845553005114198">
        <ele>36.670000000000002</ele>
        <time>2018-07-05T10:06:00Z</time>
      </trkpt>
      <trkpt lat="48.708290001377463" lon="-1.845262991264463">
        <ele>35.710000000000001</ele>
        <time>2018-07-05T10:06:10Z</time>
      </trkpt>
      <trkpt lat="48.708331994712353" lon="-1.845240024849773">
        <ele>35.229999999999997</ele>
        <time>2018-07-05T10:06:11Z</time>
      </trkpt>
      <trkpt lat="48.708644974976778" lon="-1.845360975712538">
        <ele>35.710000000000001</ele>
        <time>2018-07-05T10:06:21Z</time>
      </trkpt>
      <trkpt lat="48.708677999675274" lon="-1.8454700242728">
        <ele>36.670000000000002</ele>
        <time>2018-07-05T10:06:23Z</time>
      </trkpt>
      <trkpt lat="48.708694009110332" lon="-1.845527021214366">
        <ele>37.149999999999999</ele>
        <time>2018-07-05T10:06:24Z</time>
      </trkpt>
      <trkpt lat="48.708701971918344" lon="-1.845553005114198">
        <ele>37.630000000000003</ele>
        <time>2018-07-05T10:06:25Z</time>
      </trkpt>
      <trkpt lat="48.70866903103888" lon="-1.845590975135565">
        <ele>38.109999999999999</ele>
        <time>2018-07-05T10:06:26Z</time>
      </trkpt>
      <trkpt lat="48.708639023825526" lon="-1.845626011490822">
        <ele>38.109999999999999</ele>
        <time>2018-07-05T10:06:27Z</time>
      </trkpt>
      <trkpt lat="48.708609016612172" lon="-1.845660964027047">
        <ele>38.109999999999999</ele>
        <time>2018-07-05T10:06:28Z</time>
      </trkpt>
      <trkpt lat="48.708572974428535" lon="-1.845703041180968">
        <ele>38.590000000000003</ele>
        <time>2018-07-05T10:06:29Z</time>
      </trkpt>
      <trkpt lat="48.708532992750406" lon="-1.84573195874691">
        <ele>38.590000000000003</ele>
        <time>2018-07-05T10:06:30Z</time>
      </trkpt>
      <trkpt lat="48.708480019122362" lon="-1.845769006758928">
        <ele>39.07</ele>
        <time>2018-07-05T10:06:31Z</time>
      </trkpt>
      <trkpt lat="48.708359990268946" lon="-1.845855005085468">
        <ele>39.549999999999997</ele>
        <time>2018-07-05T10:06:33Z</time>
      </trkpt>
      <trkpt lat="48.708118004724383" lon="-1.846027001738548">
        <ele>40.030000000000001</ele>
        <time>2018-07-05T10:06:37Z</time>
      </trkpt>
      <trkpt lat="48.707305965945125" lon="-1.846507033333182">
        <ele>40.990000000000002</ele>
        <time>2018-07-05T10:06:49Z</time>
      </trkpt>
      <trkpt lat="48.707260033115745" lon="-1.846524970605969">
        <ele>40.990000000000002</ele>
        <time>2018-07-05T10:06:50Z</time>
      </trkpt>
      <trkpt lat="48.707220973446965" lon="-1.846539974212647">
        <ele>40.509999999999998</ele>
        <time>2018-07-05T10:06:51Z</time>
      </trkpt>
      <trkpt lat="48.707166993990541" lon="-1.846617003902793">
        <ele>40.030000000000001</ele>
        <time>2018-07-05T10:06:52Z</time>
      </trkpt>
      <trkpt lat="48.707121983170509" lon="-1.846681963652372">
        <ele>39.549999999999997</ele>
        <time>2018-07-05T10:06:53Z</time>
      </trkpt>
      <trkpt lat="48.707071021199226" lon="-1.846754970028997">
        <ele>39.549999999999997</ele>
        <time>2018-07-05T10:06:54Z</time>
      </trkpt>
      <trkpt lat="48.706960966810584" lon="-1.846911963075399">
        <ele>39.07</ele>
        <time>2018-07-05T10:06:56Z</time>
      </trkpt>
      <trkpt lat="48.706892989575863" lon="-1.846987986937165">
        <ele>39.07</ele>
        <time>2018-07-05T10:06:57Z</time>
      </trkpt>
      <trkpt lat="48.706811014562845" lon="-1.847043978050351">
        <ele>39.549999999999997</ele>
        <time>2018-07-05T10:06:58Z</time>
      </trkpt>
      <trkpt lat="48.706720992922783" lon="-1.847106004133821">
        <ele>39.549999999999997</ele>
        <time>2018-07-05T10:06:59Z</time>
      </trkpt>
      <trkpt lat="48.706626025959849" lon="-1.8471709638834">
        <ele>40.030000000000001</ele>
        <time>2018-07-05T10:07:00Z</time>
      </trkpt>
      <trkpt lat="48.705680966377258" lon="-1.847849981859326">
        <ele>39.549999999999997</ele>
        <time>2018-07-05T10:07:09Z</time>
      </trkpt>
      <trkpt lat="48.705590022727847" lon="-1.847946960479021">
        <ele>39.07</ele>
        <time>2018-07-05T10:07:10Z</time>
      </trkpt>
      <trkpt lat="48.705363040789962" lon="-1.848363038152456">
        <ele>39.07</ele>
        <time>2018-07-05T10:07:13Z</time>
      </trkpt>
      <trkpt lat="48.705314006656408" lon="-1.848525982350111">
        <ele>39.07</ele>
        <time>2018-07-05T10:07:14Z</time>
      </trkpt>
      <trkpt lat="48.705233037471771" lon="-1.848866958171129">
        <ele>39.07</ele>
        <time>2018-07-05T10:07:16Z</time>
      </trkpt>
      <trkpt lat="48.705211998894811" lon="-1.849049013108015">
        <ele>39.07</ele>
        <time>2018-07-05T10:07:17Z</time>
      </trkpt>
      <trkpt lat="48.705190038308501" lon="-1.84923199005425">
        <ele>39.549999999999997</ele>
        <time>2018-07-05T10:07:18Z</time>
      </trkpt>
      <trkpt lat="48.705168999731541" lon="-1.849414967000485">
        <ele>39.549999999999997</ele>
        <time>2018-07-05T10:07:19Z</time>
      </trkpt>
      <trkpt lat="48.70521099306643" lon="-1.849799025803804">
        <ele>40.030000000000001</ele>
        <time>2018-07-05T10:07:21Z</time>
      </trkpt>
      <trkpt lat="48.705243011936545" lon="-1.849999018013477">
        <ele>40.030000000000001</ele>
        <time>2018-07-05T10:07:22Z</time>
      </trkpt>
      <trkpt lat="48.705462031066418" lon="-1.851892992854118">
        <ele>42.439999999999998</ele>
        <time>2018-07-05T10:07:30Z</time>
      </trkpt>
      <trkpt lat="48.705225996673107" lon="-1.853406010195613">
        <ele>44.359999999999999</ele>
        <time>2018-07-05T10:07:36Z</time>
      </trkpt>
      <trkpt lat="48.705131029710174" lon="-1.853638021275401">
        <ele>44.840000000000003</ele>
        <time>2018-07-05T10:07:37Z</time>
      </trkpt>
      <trkpt lat="48.705043019726872" lon="-1.853854022920132">
        <ele>44.840000000000003</ele>
        <time>2018-07-05T10:07:38Z</time>
      </trkpt>
      <trkpt lat="48.704942017793655" lon="-1.854055020958185">
        <ele>44.359999999999999</ele>
        <time>2018-07-05T10:07:39Z</time>
      </trkpt>
      <trkpt lat="48.704195022583008" lon="-1.855175010859966">
        <ele>43.399999999999999</ele>
        <time>2018-07-05T10:07:46Z</time>
      </trkpt>
      <trkpt lat="48.704027971252799" lon="-1.855422025546432">
        <ele>43.399999999999999</ele>
        <time>2018-07-05T10:07:52Z</time>
      </trkpt>
      <trkpt lat="48.703692024573684" lon="-1.85591496527195">
        <ele>42.439999999999998</ele>
        <time>2018-07-05T10:07:59Z</time>
      </trkpt>
      <trkpt lat="48.702889960259199" lon="-1.857094969600439">
        <ele>40.990000000000002</ele>
        <time>2018-07-05T10:08:07Z</time>
      </trkpt>
      <trkpt lat="48.701486997306347" lon="-1.85915800742805">
        <ele>42.439999999999998</ele>
        <time>2018-07-05T10:08:18Z</time>
      </trkpt>
      <trkpt lat="48.700993973761797" lon="-1.859739040955901">
        <ele>43.399999999999999</ele>
        <time>2018-07-05T10:08:22Z</time>
      </trkpt>
      <trkpt lat="48.699885969981551" lon="-1.86027598567307">
        <ele>44.359999999999999</ele>
        <time>2018-07-05T10:08:30Z</time>
      </trkpt>
      <trkpt lat="48.698215959593654" lon="-1.860367013141513">
        <ele>49.649999999999999</ele>
        <time>2018-07-05T10:08:40Z</time>
      </trkpt>
      <trkpt lat="48.69599400088191" lon="-1.860497016459703">
        <ele>53.009999999999998</ele>
        <time>2018-07-05T10:08:52Z</time>
      </trkpt>
      <trkpt lat="48.695814963430166" lon="-1.860507996752858">
        <ele>52.530000000000001</ele>
        <time>2018-07-05T10:08:53Z</time>
      </trkpt>
      <trkpt lat="48.695639027282596" lon="-1.860600030049682">
        <ele>52.530000000000001</ele>
        <time>2018-07-05T10:08:54Z</time>
      </trkpt>
      <trkpt lat="48.695468958467245" lon="-1.860691979527473">
        <ele>52.049999999999997</ele>
        <time>2018-07-05T10:08:55Z</time>
      </trkpt>
      <trkpt lat="48.695297967642546" lon="-1.860804967582226">
        <ele>52.049999999999997</ele>
        <time>2018-07-05T10:08:56Z</time>
      </trkpt>
      <trkpt lat="48.695151032879949" lon="-1.860966989770532">
        <ele>51.57</ele>
        <time>2018-07-05T10:08:57Z</time>
      </trkpt>
      <trkpt lat="48.69500401429832" lon="-1.861129011958838">
        <ele>51.57</ele>
        <time>2018-07-05T10:08:58Z</time>
      </trkpt>
      <trkpt lat="48.694865964353085" lon="-1.861310983076692">
        <ele>51.57</ele>
        <time>2018-07-05T10:08:59Z</time>
      </trkpt>
      <trkpt lat="48.694752976298332" lon="-1.86152396723628">
        <ele>52.049999999999997</ele>
        <time>2018-07-05T10:09:00Z</time>
      </trkpt>
      <trkpt lat="48.694655997678638" lon="-1.861752038821578">
        <ele>52.049999999999997</ele>
        <time>2018-07-05T10:09:01Z</time>
      </trkpt>
      <trkpt lat="48.694565976038575" lon="-1.861991006880999">
        <ele>52.049999999999997</ele>
        <time>2018-07-05T10:09:02Z</time>
      </trkpt>
      <trkpt lat="48.693613037467003" lon="-1.865306971594691">
        <ele>50.130000000000003</ele>
        <time>2018-07-05T10:09:15Z</time>
      </trkpt>
      <trkpt lat="48.693237025290728" lon="-1.866670036688447">
        <ele>49.159999999999997</ele>
        <time>2018-07-05T10:09:21Z</time>
      </trkpt>
      <trkpt lat="48.692291965708137" lon="-1.869983989745379">
        <ele>47.719999999999999</ele>
        <time>2018-07-05T10:09:32Z</time>
      </trkpt>
      <trkpt lat="48.692048974335194" lon="-1.870812037959695">
        <ele>46.280000000000001</ele>
        <time>2018-07-05T10:09:35Z</time>
      </trkpt>
      <trkpt lat="48.691107016056776" lon="-1.873071966692805">
        <ele>42.439999999999998</ele>
        <time>2018-07-05T10:09:44Z</time>
      </trkpt>
      <trkpt lat="48.68950598873198" lon="-1.876113004982472">
        <ele>38.109999999999999</ele>
        <time>2018-07-05T10:09:57Z</time>
      </trkpt>
      <trkpt lat="48.689307002350688" lon="-1.876624971628189">
        <ele>37.149999999999999</ele>
        <time>2018-07-05T10:09:59Z</time>
      </trkpt>
      <trkpt lat="48.689233995974064" lon="-1.876901993528009">
        <ele>36.670000000000002</ele>
        <time>2018-07-05T10:10:00Z</time>
      </trkpt>
      <trkpt lat="48.689169958233833" lon="-1.877179015427828">
        <ele>36.670000000000002</ele>
        <time>2018-07-05T10:10:01Z</time>
      </trkpt>
      <trkpt lat="48.689111033454537" lon="-1.877439022064209">
        <ele>36.670000000000002</ele>
        <time>2018-07-05T10:10:02Z</time>
      </trkpt>
      <trkpt lat="48.689094018191099" lon="-1.87774102203548">
        <ele>37.149999999999999</ele>
        <time>2018-07-05T10:10:03Z</time>
      </trkpt>
      <trkpt lat="48.689077002927661" lon="-1.878028018400073">
        <ele>37.149999999999999</ele>
        <time>2018-07-05T10:10:04Z</time>
      </trkpt>
      <trkpt lat="48.689073985442519" lon="-1.878317026421428">
        <ele>37.630000000000003</ele>
        <time>2018-07-05T10:10:05Z</time>
      </trkpt>
      <trkpt lat="48.689086977392435" lon="-1.878610979765654">
        <ele>38.109999999999999</ele>
        <time>2018-07-05T10:10:06Z</time>
      </trkpt>
      <trkpt lat="48.689100975170732" lon="-1.87890300527215">
        <ele>38.590000000000003</ele>
        <time>2018-07-05T10:10:07Z</time>
      </trkpt>
      <trkpt lat="48.689126037061214" lon="-1.879188995808363">
        <ele>39.07</ele>
        <time>2018-07-05T10:10:08Z</time>
      </trkpt>
      <trkpt lat="48.689180016517639" lon="-1.879468029364944">
        <ele>40.030000000000001</ele>
        <time>2018-07-05T10:10:09Z</time>
      </trkpt>
      <trkpt lat="48.689233995974064" lon="-1.879748990759254">
        <ele>40.509999999999998</ele>
        <time>2018-07-05T10:10:10Z</time>
      </trkpt>
      <trkpt lat="48.689323011785746" lon="-1.880011009052396">
        <ele>41.469999999999999</ele>
        <time>2018-07-05T10:10:11Z</time>
      </trkpt>
      <trkpt lat="48.689415967091918" lon="-1.880272021517158">
        <ele>41.950000000000003</ele>
        <time>2018-07-05T10:10:12Z</time>
      </trkpt>
      <trkpt lat="48.689509006217122" lon="-1.880532028153539">
        <ele>42.439999999999998</ele>
        <time>2018-07-05T10:10:13Z</time>
      </trkpt>
      <trkpt lat="48.689619982615113" lon="-1.880780970677733">
        <ele>42.920000000000002</ele>
        <time>2018-07-05T10:10:14Z</time>
      </trkpt>
      <trkpt lat="48.689745040610433" lon="-1.880997978150845">
        <ele>43.399999999999999</ele>
        <time>2018-07-05T10:10:15Z</time>
      </trkpt>
      <trkpt lat="48.689860962331295" lon="-1.881198976188898">
        <ele>43.880000000000003</ele>
        <time>2018-07-05T10:10:16Z</time>
      </trkpt>
      <trkpt lat="48.689988031983376" lon="-1.881363010033965">
        <ele>43.880000000000003</ele>
        <time>2018-07-05T10:10:17Z</time>
      </trkpt>
      <trkpt lat="48.690110994502902" lon="-1.881510028615594">
        <ele>43.880000000000003</ele>
        <time>2018-07-05T10:10:18Z</time>
      </trkpt>
      <trkpt lat="48.690232029184699" lon="-1.881655035540462">
        <ele>43.399999999999999</ele>
        <time>2018-07-05T10:10:19Z</time>
      </trkpt>
      <trkpt lat="48.690622039139271" lon="-1.882001962512732">
        <ele>41.950000000000003</ele>
        <time>2018-07-05T10:10:22Z</time>
      </trkpt>
      <trkpt lat="48.690748019143939" lon="-1.88210497610271">
        <ele>41.469999999999999</ele>
        <time>2018-07-05T10:10:23Z</time>
      </trkpt>
      <trkpt lat="48.690887996926904" lon="-1.882165996357799">
        <ele>40.509999999999998</ele>
        <time>2018-07-05T10:10:25Z</time>
      </trkpt>
      <trkpt lat="48.69227796792984" lon="-1.882670000195503">
        <ele>35.229999999999997</ele>
        <time>2018-07-05T10:10:35Z</time>
      </trkpt>
      <trkpt lat="48.692779960110784" lon="-1.883018016815186">
        <ele>32.82</ele>
        <time>2018-07-05T10:10:39Z</time>
      </trkpt>
      <trkpt lat="48.692885991185904" lon="-1.883165035396814">
        <ele>32.340000000000003</ele>
        <time>2018-07-05T10:10:40Z</time>
      </trkpt>
      <trkpt lat="48.692994033917785" lon="-1.883314987644553">
        <ele>31.859999999999999</ele>
        <time>2018-07-05T10:10:41Z</time>
      </trkpt>
      <trkpt lat="48.693102998659015" lon="-1.883466029539704">
        <ele>31.379999999999999</ele>
        <time>2018-07-05T10:10:42Z</time>
      </trkpt>
      <trkpt lat="48.693198971450329" lon="-1.883637020364404">
        <ele>31.379999999999999</ele>
        <time>2018-07-05T10:10:43Z</time>
      </trkpt>
      <trkpt lat="48.693280024453998" lon="-1.883838018402457">
        <ele>30.899999999999999</ele>
        <time>2018-07-05T10:10:44Z</time>
      </trkpt>
      <trkpt lat="48.693360993638635" lon="-1.884042033925653">
        <ele>30.420000000000002</ele>
        <time>2018-07-05T10:10:45Z</time>
      </trkpt>
      <trkpt lat="48.694004975259304" lon="-1.8863570317626">
        <ele>26.09</ele>
        <time>2018-07-05T10:10:55Z</time>
      </trkpt>
      <trkpt lat="48.69412399828434" lon="-1.887020962312818">
        <ele>25.609999999999999</ele>
        <time>2018-07-05T10:10:58Z</time>
      </trkpt>
      <trkpt lat="48.694108994677663" lon="-1.887233024463058">
        <ele>25.609999999999999</ele>
        <time>2018-07-05T10:10:59Z</time>
      </trkpt>
      <trkpt lat="48.694094996899366" lon="-1.887442991137505">
        <ele>25.609999999999999</ele>
        <time>2018-07-05T10:11:00Z</time>
      </trkpt>
      <trkpt lat="48.694047974422574" lon="-1.887639965862036">
        <ele>25.609999999999999</ele>
        <time>2018-07-05T10:11:01Z</time>
      </trkpt>
      <trkpt lat="48.693982008844614" lon="-1.887826966121793">
        <ele>25.609999999999999</ele>
        <time>2018-07-05T10:11:02Z</time>
      </trkpt>
      <trkpt lat="48.693885030224919" lon="-1.887973984703422">
        <ele>25.609999999999999</ele>
        <time>2018-07-05T10:11:03Z</time>
      </trkpt>
      <trkpt lat="48.693771958351135" lon="-1.888095019385219">
        <ele>25.609999999999999</ele>
        <time>2018-07-05T10:11:04Z</time>
      </trkpt>
      <trkpt lat="48.693642038851976" lon="-1.888199960812926">
        <ele>25.129999999999999</ele>
        <time>2018-07-05T10:11:05Z</time>
      </trkpt>
      <trkpt lat="48.693513041362166" lon="-1.888303980231285">
        <ele>25.129999999999999</ele>
        <time>2018-07-05T10:11:06Z</time>
      </trkpt>
      <trkpt lat="48.693389995023608" lon="-1.888404982164502">
        <ele>25.609999999999999</ele>
        <time>2018-07-05T10:11:07Z</time>
      </trkpt>
      <trkpt lat="48.693282036110759" lon="-1.888530040159822">
        <ele>25.129999999999999</ele>
        <time>2018-07-05T10:11:08Z</time>
      </trkpt>
      <trkpt lat="48.693197965621948" lon="-1.888680998235941">
        <ele>25.129999999999999</ele>
        <time>2018-07-05T10:11:09Z</time>
      </trkpt>
      <trkpt lat="48.693154966458678" lon="-1.888837991282344">
        <ele>25.129999999999999</ele>
        <time>2018-07-05T10:11:10Z</time>
      </trkpt>
      <trkpt lat="48.693144991993904" lon="-1.889004958793521">
        <ele>25.129999999999999</ele>
        <time>2018-07-05T10:11:11Z</time>
      </trkpt>
      <trkpt lat="48.693168964236975" lon="-1.889157006517053">
        <ele>25.129999999999999</ele>
        <time>2018-07-05T10:11:12Z</time>
      </trkpt>
      <trkpt lat="48.693217998370528" lon="-1.889291033148766">
        <ele>25.609999999999999</ele>
        <time>2018-07-05T10:11:13Z</time>
      </trkpt>
      <trkpt lat="48.693305002525449" lon="-1.889390023425221">
        <ele>25.609999999999999</ele>
        <time>2018-07-05T10:11:14Z</time>
      </trkpt>
      <trkpt lat="48.693406004458666" lon="-1.889476021751761">
        <ele>25.129999999999999</ele>
        <time>2018-07-05T10:11:15Z</time>
      </trkpt>
      <trkpt lat="48.693514969199896" lon="-1.889568977057934">
        <ele>25.129999999999999</ele>
        <time>2018-07-05T10:11:16Z</time>
      </trkpt>
      <trkpt lat="48.693628963083029" lon="-1.88966503366828">
        <ele>24.649999999999999</ele>
        <time>2018-07-05T10:11:17Z</time>
      </trkpt>
      <trkpt lat="48.694480983540416" lon="-1.890705982223153">
        <ele>17.920000000000002</ele>
        <time>2018-07-05T10:11:25Z</time>
      </trkpt>
      <trkpt lat="48.694568993523717" lon="-1.890882002189755">
        <ele>16.960000000000001</ele>
        <time>2018-07-05T10:11:26Z</time>
      </trkpt>
      <trkpt lat="48.694644011557102" lon="-1.891075959429145">
        <ele>16</ele>
        <time>2018-07-05T10:11:27Z</time>
      </trkpt>
      <trkpt lat="48.694710982963443" lon="-1.891285004094243">
        <ele>15.52</ele>
        <time>2018-07-05T10:11:28Z</time>
      </trkpt>
      <trkpt lat="48.694761022925377" lon="-1.891505029052496">
        <ele>14.56</ele>
        <time>2018-07-05T10:11:29Z</time>
      </trkpt>
      <trkpt lat="48.694794969633222" lon="-1.891737040132284">
        <ele>14.08</ele>
        <time>2018-07-05T10:11:30Z</time>
      </trkpt>
      <trkpt lat="48.69478901848197" lon="-1.891970979049802">
        <ele>13.6</ele>
        <time>2018-07-05T10:11:31Z</time>
      </trkpt>
      <trkpt lat="48.694782983511686" lon="-1.892208019271493">
        <ele>13.6</ele>
        <time>2018-07-05T10:11:32Z</time>
      </trkpt>
      <trkpt lat="48.694777032360435" lon="-1.892440030351281">
        <ele>13.119999999999999</ele>
        <time>2018-07-05T10:11:33Z</time>
      </trkpt>
      <trkpt lat="48.694730009883642" lon="-1.892657959833741">
        <ele>12.630000000000001</ele>
        <time>2018-07-05T10:11:34Z</time>
      </trkpt>
      <trkpt lat="48.694677036255598" lon="-1.892859963700175">
        <ele>12.15</ele>
        <time>2018-07-05T10:11:35Z</time>
      </trkpt>
      <trkpt lat="48.694624984636903" lon="-1.89306003972888">
        <ele>12.15</ele>
        <time>2018-07-05T10:11:36Z</time>
      </trkpt>
      <trkpt lat="48.694557007402182" lon="-1.893215021118522">
        <ele>11.67</ele>
        <time>2018-07-05T10:11:37Z</time>
      </trkpt>
      <trkpt lat="48.694473020732403" lon="-1.893351981416345">
        <ele>11.67</ele>
        <time>2018-07-05T10:11:38Z</time>
      </trkpt>
      <trkpt lat="48.69438199326396" lon="-1.893485002219677">
        <ele>11.67</ele>
        <time>2018-07-05T10:11:39Z</time>
      </trkpt>
      <trkpt lat="48.694289959967136" lon="-1.893621040508151">
        <ele>11.67</ele>
        <time>2018-07-05T10:11:40Z</time>
      </trkpt>
      <trkpt lat="48.694195998832583" lon="-1.893759006634355">
        <ele>11.67</ele>
        <time>2018-07-05T10:11:41Z</time>
      </trkpt>
      <trkpt lat="48.694094996899366" lon="-1.893894039094448">
        <ele>11.67</ele>
        <time>2018-07-05T10:11:42Z</time>
      </trkpt>
      <trkpt lat="48.692969977855682" lon="-1.895062979310751">
        <ele>12.15</ele>
        <time>2018-07-05T10:11:51Z</time>
      </trkpt>
      <trkpt lat="48.692278973758221" lon="-1.896119015291333">
        <ele>12.15</ele>
        <time>2018-07-05T10:11:59Z</time>
      </trkpt>
      <trkpt lat="48.691398035734892" lon="-1.898206025362015">
        <ele>11.67</ele>
        <time>2018-07-05T10:12:11Z</time>
      </trkpt>
      <trkpt lat="48.691035015508533" lon="-1.899156030267477">
        <ele>12.630000000000001</ele>
        <time>2018-07-05T10:12:18Z</time>
      </trkpt>
      <trkpt lat="48.691020011901855" lon="-1.899196011945605">
        <ele>12.630000000000001</ele>
        <time>2018-07-05T10:12:25Z</time>
      </trkpt>
      <trkpt lat="48.690912974998355" lon="-1.899474961683154">
        <ele>13.119999999999999</ele>
        <time>2018-07-05T10:12:59Z</time>
      </trkpt>
      <trkpt lat="48.690564958378673" lon="-1.900596963241696">
        <ele>13.119999999999999</ele>
        <time>2018-07-05T10:13:10Z</time>
      </trkpt>
      <trkpt lat="48.690290031954646" lon="-1.901873024180532">
        <ele>13.6</ele>
        <time>2018-07-05T10:13:18Z</time>
      </trkpt>
      <trkpt lat="48.689905973151326" lon="-1.90373900346458">
        <ele>13.6</ele>
        <time>2018-07-05T10:13:29Z</time>
      </trkpt>
      <trkpt lat="48.689423007890582" lon="-1.904810965061188">
        <ele>16.960000000000001</ele>
        <time>2018-07-05T10:13:37Z</time>
      </trkpt>
      <trkpt lat="48.688697973266244" lon="-1.90612499602139">
        <ele>23.690000000000001</ele>
        <time>2018-07-05T10:13:44Z</time>
      </trkpt>
      <trkpt lat="48.688356997445226" lon="-1.906636962667108">
        <ele>28.98</ele>
        <time>2018-07-05T10:13:47Z</time>
      </trkpt>
      <trkpt lat="48.688272004947066" lon="-1.90681298263371">
        <ele>30.420000000000002</ele>
        <time>2018-07-05T10:13:48Z</time>
      </trkpt>
      <trkpt lat="48.688219031319022" lon="-1.907009035348892">
        <ele>31.379999999999999</ele>
        <time>2018-07-05T10:13:49Z</time>
      </trkpt>
      <trkpt lat="48.688163962215185" lon="-1.907216990366578">
        <ele>32.82</ele>
        <time>2018-07-05T10:13:50Z</time>
      </trkpt>
      <trkpt lat="48.688122974708676" lon="-1.907442966476083">
        <ele>34.259999999999998</ele>
        <time>2018-07-05T10:13:51Z</time>
      </trkpt>
      <trkpt lat="48.687817035242915" lon="-1.90952000208199">
        <ele>42.920000000000002</ele>
        <time>2018-07-05T10:14:00Z</time>
      </trkpt>
      <trkpt lat="48.687880989164114" lon="-1.911249021068215">
        <ele>45.32</ele>
        <time>2018-07-05T10:14:07Z</time>
      </trkpt>
      <trkpt lat="48.687908984720707" lon="-1.911669038236141">
        <ele>44.840000000000003</ele>
        <time>2018-07-05T10:14:09Z</time>
      </trkpt>
      <trkpt lat="48.687928011640906" lon="-1.911855032667518">
        <ele>44.359999999999999</ele>
        <time>2018-07-05T10:14:10Z</time>
      </trkpt>
      <trkpt lat="48.687992971390486" lon="-1.912023006007075">
        <ele>43.880000000000003</ele>
        <time>2018-07-05T10:14:11Z</time>
      </trkpt>
      <trkpt lat="48.688062960281968" lon="-1.912185028195381">
        <ele>43.399999999999999</ele>
        <time>2018-07-05T10:14:12Z</time>
      </trkpt>
      <trkpt lat="48.688136972486973" lon="-1.9123550131917">
        <ele>42.920000000000002</ele>
        <time>2018-07-05T10:14:13Z</time>
      </trkpt>
      <trkpt lat="48.688662014901638" lon="-1.913670971989632">
        <ele>40.990000000000002</ele>
        <time>2018-07-05T10:14:20Z</time>
      </trkpt>
      <trkpt lat="48.688699984923005" lon="-1.913882028311491">
        <ele>40.990000000000002</ele>
        <time>2018-07-05T10:14:21Z</time>
      </trkpt>
      <trkpt lat="48.688853038474917" lon="-1.914990032091737">
        <ele>40.990000000000002</ele>
        <time>2018-07-05T10:14:26Z</time>
      </trkpt>
      <trkpt lat="48.688853038474917" lon="-1.915182983502746">
        <ele>40.509999999999998</ele>
        <time>2018-07-05T10:14:27Z</time>
      </trkpt>
      <trkpt lat="48.68884096853435" lon="-1.915404014289379">
        <ele>40.030000000000001</ele>
        <time>2018-07-05T10:14:28Z</time>
      </trkpt>
      <trkpt lat="48.68871197104454" lon="-1.917135966941714">
        <ele>40.990000000000002</ele>
        <time>2018-07-05T10:14:36Z</time>
      </trkpt>
      <trkpt lat="48.688735021278262" lon="-1.917352974414825">
        <ele>41.469999999999999</ele>
        <time>2018-07-05T10:14:37Z</time>
      </trkpt>
      <trkpt lat="48.688781037926674" lon="-1.917571993544698">
        <ele>41.950000000000003</ele>
        <time>2018-07-05T10:14:38Z</time>
      </trkpt>
      <trkpt lat="48.68924799375236" lon="-1.919607035815716">
        <ele>45.32</ele>
        <time>2018-07-05T10:14:47Z</time>
      </trkpt>
      <trkpt lat="48.689189990982413" lon="-1.921679964289069">
        <ele>41.950000000000003</ele>
        <time>2018-07-05T10:14:55Z</time>
      </trkpt>
      <trkpt lat="48.688960997387767" lon="-1.925025014206767">
        <ele>39.07</ele>
        <time>2018-07-05T10:15:07Z</time>
      </trkpt>
      <trkpt lat="48.689043978229165" lon="-1.92894397303462">
        <ele>33.780000000000001</ele>
        <time>2018-07-05T10:15:22Z</time>
      </trkpt>
      <trkpt lat="48.689120002090931" lon="-1.929358039051294">
        <ele>33.780000000000001</ele>
        <time>2018-07-05T10:15:24Z</time>
      </trkpt>
      <trkpt lat="48.68937598541379" lon="-1.930297985672951">
        <ele>35.229999999999997</ele>
        <time>2018-07-05T10:15:29Z</time>
      </trkpt>
      <trkpt lat="48.689429964870214" lon="-1.93046897649765">
        <ele>35.229999999999997</ele>
        <time>2018-07-05T10:15:30Z</time>
      </trkpt>
      <trkpt lat="48.689793990924954" lon="-1.931840004399419">
        <ele>35.710000000000001</ele>
        <time>2018-07-05T10:15:38Z</time>
      </trkpt>
      <trkpt lat="48.689811006188393" lon="-1.932016024366021">
        <ele>35.710000000000001</ele>
        <time>2018-07-05T10:15:39Z</time>
      </trkpt>
      <trkpt lat="48.689799020066857" lon="-1.932185003533959">
        <ele>35.229999999999997</ele>
        <time>2018-07-05T10:15:40Z</time>
      </trkpt>
      <trkpt lat="48.6897639837116" lon="-1.932347025722265">
        <ele>35.229999999999997</ele>
        <time>2018-07-05T10:15:41Z</time>
      </trkpt>
      <trkpt lat="48.689701035618782" lon="-1.932471999898553">
        <ele>34.740000000000002</ele>
        <time>2018-07-05T10:15:42Z</time>
      </trkpt>
      <trkpt lat="48.689623000100255" lon="-1.932590017095208">
        <ele>34.259999999999998</ele>
        <time>2018-07-05T10:15:43Z</time>
      </trkpt>
      <trkpt lat="48.689537001773715" lon="-1.932694958522916">
        <ele>33.780000000000001</ele>
        <time>2018-07-05T10:15:44Z</time>
      </trkpt>
      <trkpt lat="48.689435999840498" lon="-1.932796966284514">
        <ele>33.780000000000001</ele>
        <time>2018-07-05T10:15:45Z</time>
      </trkpt>
      <trkpt lat="48.689328962936997" lon="-1.932904003188014">
        <ele>33.299999999999997</ele>
        <time>2018-07-05T10:15:46Z</time>
      </trkpt>
      <trkpt lat="48.688120041042566" lon="-1.93403497338295">
        <ele>30.899999999999999</ele>
        <time>2018-07-05T10:15:56Z</time>
      </trkpt>
      <trkpt lat="48.686830988153815" lon="-1.935238027945161">
        <ele>28.02</ele>
        <time>2018-07-05T10:16:07Z</time>
      </trkpt>
      <trkpt lat="48.685575965791941" lon="-1.93637503311038">
        <ele>30.420000000000002</ele>
        <time>2018-07-05T10:16:16Z</time>
      </trkpt>
      <trkpt lat="48.68544596247375" lon="-1.936453990638256">
        <ele>30.899999999999999</ele>
        <time>2018-07-05T10:16:17Z</time>
      </trkpt>
      <trkpt lat="48.68531302548945" lon="-1.936533031985164">
        <ele>30.899999999999999</ele>
        <time>2018-07-05T10:16:18Z</time>
      </trkpt>
      <trkpt lat="48.685170030221343" lon="-1.936533031985164">
        <ele>31.379999999999999</ele>
        <time>2018-07-05T10:16:19Z</time>
      </trkpt>
      <trkpt lat="48.685016976669431" lon="-1.936533031985164">
        <ele>30.899999999999999</ele>
        <time>2018-07-05T10:16:20Z</time>
      </trkpt>
      <trkpt lat="48.684860989451408" lon="-1.936480980366468">
        <ele>30.899999999999999</ele>
        <time>2018-07-05T10:16:21Z</time>
      </trkpt>
      <trkpt lat="48.684698967263103" lon="-1.936416020616889">
        <ele>30.420000000000002</ele>
        <time>2018-07-05T10:16:22Z</time>
      </trkpt>
      <trkpt lat="48.683090982958674" lon="-1.935669025406241">
        <ele>26.57</ele>
        <time>2018-07-05T10:16:31Z</time>
      </trkpt>
      <trkpt lat="48.682150030508637" lon="-1.93513099104166">
        <ele>25.129999999999999</ele>
        <time>2018-07-05T10:16:37Z</time>
      </trkpt>
      <trkpt lat="48.682022038847208" lon="-1.93500199355185">
        <ele>25.129999999999999</ele>
        <time>2018-07-05T10:16:38Z</time>
      </trkpt>
      <trkpt lat="48.681901004165411" lon="-1.934852041304112">
        <ele>24.649999999999999</ele>
        <time>2018-07-05T10:16:39Z</time>
      </trkpt>
      <trkpt lat="48.681817017495632" lon="-1.934650037437677">
        <ele>24.649999999999999</ele>
        <time>2018-07-05T10:16:40Z</time>
      </trkpt>
      <trkpt lat="48.681732024997473" lon="-1.934445016086102">
        <ele>24.170000000000002</ele>
        <time>2018-07-05T10:16:41Z</time>
      </trkpt>
      <trkpt lat="48.681649966165423" lon="-1.934248963370919">
        <ele>24.170000000000002</ele>
        <time>2018-07-05T10:16:42Z</time>
      </trkpt>
      <trkpt lat="48.681549970060587" lon="-1.9340789783746">
        <ele>23.210000000000001</ele>
        <time>2018-07-05T10:16:43Z</time>
      </trkpt>
      <trkpt lat="48.68142600171268" lon="-1.933956015855074">
        <ele>22.73</ele>
        <time>2018-07-05T10:16:44Z</time>
      </trkpt>
      <trkpt lat="48.681321982294321" lon="-1.933850990608335">
        <ele>21.77</ele>
        <time>2018-07-05T10:16:45Z</time>
      </trkpt>
      <trkpt lat="48.681161971762776" lon="-1.933821989223361">
        <ele>20.809999999999999</ele>
        <time>2018-07-05T10:16:46Z</time>
      </trkpt>
      <trkpt lat="48.681028028950095" lon="-1.933815032243729">
        <ele>20.32</ele>
        <time>2018-07-05T10:16:47Z</time>
      </trkpt>
      <trkpt lat="48.680892996490002" lon="-1.933830035850406">
        <ele>19.359999999999999</ele>
        <time>2018-07-05T10:16:48Z</time>
      </trkpt>
      <trkpt lat="48.680765004828572" lon="-1.933929026126862">
        <ele>18.399999999999999</ele>
        <time>2018-07-05T10:16:49Z</time>
      </trkpt>
      <trkpt lat="48.680662997066975" lon="-1.934044025838375">
        <ele>17.440000000000001</ele>
        <time>2018-07-05T10:16:50Z</time>
      </trkpt>
      <trkpt lat="48.680574987083673" lon="-1.934201018884778">
        <ele>16.48</ele>
        <time>2018-07-05T10:16:51Z</time>
      </trkpt>
      <trkpt lat="48.680499969050288" lon="-1.934359017759562">
        <ele>15.52</ele>
        <time>2018-07-05T10:16:52Z</time>
      </trkpt>
      <trkpt lat="48.680463004857302" lon="-1.934565966948867">
        <ele>15.039999999999999</ele>
        <time>2018-07-05T10:16:53Z</time>
      </trkpt>
      <trkpt lat="48.680426040664315" lon="-1.934780962765217">
        <ele>14.08</ele>
        <time>2018-07-05T10:16:54Z</time>
      </trkpt>
      <trkpt lat="48.680385975167155" lon="-1.935007022693753">
        <ele>13.119999999999999</ele>
        <time>2018-07-05T10:16:55Z</time>
      </trkpt>
      <trkpt lat="48.680343981832266" lon="-1.935243979096413">
        <ele>12.630000000000001</ele>
        <time>2018-07-05T10:16:56Z</time>
      </trkpt>
      <trkpt lat="48.679910972714424" lon="-1.937702978029847">
        <ele>11.67</ele>
        <time>2018-07-05T10:17:06Z</time>
      </trkpt>
      <trkpt lat="48.679804019629955" lon="-1.938171023502946">
        <ele>14.08</ele>
        <time>2018-07-05T10:17:08Z</time>
      </trkpt>
      <trkpt lat="48.679739981889725" lon="-1.938393982127309">
        <ele>15.039999999999999</ele>
        <time>2018-07-05T10:17:09Z</time>
      </trkpt>
      <trkpt lat="48.678956022486091" lon="-1.940542012453079">
        <ele>30.420000000000002</ele>
        <time>2018-07-05T10:17:19Z</time>
      </trkpt>
      <trkpt lat="48.678447995334864" lon="-1.942501030862331">
        <ele>39.07</ele>
        <time>2018-07-05T10:17:28Z</time>
      </trkpt>
      <trkpt lat="48.678383035585284" lon="-1.942878970876336">
        <ele>40.030000000000001</ele>
        <time>2018-07-05T10:17:30Z</time>
      </trkpt>
      <trkpt lat="48.678394015878439" lon="-1.943073011934757">
        <ele>40.509999999999998</ele>
        <time>2018-07-05T10:17:31Z</time>
      </trkpt>
      <trkpt lat="48.678414970636368" lon="-1.943275015801191">
        <ele>40.990000000000002</ele>
        <time>2018-07-05T10:17:32Z</time>
      </trkpt>
      <trkpt lat="48.67846199311316" lon="-1.94346402771771">
        <ele>40.990000000000002</ele>
        <time>2018-07-05T10:17:33Z</time>
      </trkpt>
      <trkpt lat="48.678521001711488" lon="-1.943647004663944">
        <ele>40.990000000000002</ele>
        <time>2018-07-05T10:17:34Z</time>
      </trkpt>
      <trkpt lat="48.678595013916492" lon="-1.943817995488644">
        <ele>40.990000000000002</ele>
        <time>2018-07-05T10:17:35Z</time>
      </trkpt>
      <trkpt lat="48.678694004192948" lon="-1.943970965221524">
        <ele>40.990000000000002</ele>
        <time>2018-07-05T10:17:36Z</time>
      </trkpt>
      <trkpt lat="48.678801041096449" lon="-1.94411002099514">
        <ele>40.990000000000002</ele>
        <time>2018-07-05T10:17:37Z</time>
      </trkpt>
      <trkpt lat="48.678930038586259" lon="-1.94421898573637">
        <ele>40.990000000000002</ele>
        <time>2018-07-05T10:17:38Z</time>
      </trkpt>
      <trkpt lat="48.679066998884082" lon="-1.944315964356065">
        <ele>40.509999999999998</ele>
        <time>2018-07-05T10:17:39Z</time>
      </trkpt>
      <trkpt lat="48.679208988323808" lon="-1.944415038451552">
        <ele>39.549999999999997</ele>
        <time>2018-07-05T10:17:40Z</time>
      </trkpt>
      <trkpt lat="48.680472979322076" lon="-1.945449030026794">
        <ele>33.299999999999997</ele>
        <time>2018-07-05T10:17:49Z</time>
      </trkpt>
      <trkpt lat="48.681327011436224" lon="-1.947066988795996">
        <ele>29.940000000000001</ele>
        <time>2018-07-05T10:17:57Z</time>
      </trkpt>
      <trkpt lat="48.681752979755402" lon="-1.948117995634675">
        <ele>27.530000000000001</ele>
        <time>2018-07-05T10:18:02Z</time>
      </trkpt>
      <trkpt lat="48.681801008060575" lon="-1.948362998664379">
        <ele>27.050000000000001</ele>
        <time>2018-07-05T10:18:03Z</time>
      </trkpt>
      <trkpt lat="48.681849036365747" lon="-1.948612025007606">
        <ele>26.57</ele>
        <time>2018-07-05T10:18:04Z</time>
      </trkpt>
      <trkpt lat="48.681944003328681" lon="-1.949807032942772">
        <ele>22.25</ele>
        <time>2018-07-05T10:18:09Z</time>
      </trkpt>
      <trkpt lat="48.6819429975003" lon="-1.949991015717387">
        <ele>21.289999999999999</ele>
        <time>2018-07-05T10:18:10Z</time>
      </trkpt>
      <trkpt lat="48.68189999833703" lon="-1.950163012370467">
        <ele>20.32</ele>
        <time>2018-07-05T10:18:11Z</time>
      </trkpt>
      <trkpt lat="48.681858005002141" lon="-1.950330985710025">
        <ele>19.359999999999999</ele>
        <time>2018-07-05T10:18:12Z</time>
      </trkpt>
      <trkpt lat="48.681778041645885" lon="-1.950528966262937">
        <ele>18.879999999999999</ele>
        <time>2018-07-05T10:18:13Z</time>
      </trkpt>
      <trkpt lat="48.681121990084648" lon="-1.952107027173042">
        <ele>11.67</ele>
        <time>2018-07-05T10:18:20Z</time>
      </trkpt>
      <trkpt lat="48.680468033999205" lon="-1.953749964013696">
        <ele>13.6</ele>
        <time>2018-07-05T10:18:28Z</time>
      </trkpt>
      <trkpt lat="48.680042987689376" lon="-1.954861991107464">
        <ele>16.48</ele>
        <time>2018-07-05T10:18:37Z</time>
      </trkpt>
      <trkpt lat="48.679684996604919" lon="-1.956310970708728">
        <ele>18.399999999999999</ele>
        <time>2018-07-05T10:18:47Z</time>
      </trkpt>
      <trkpt lat="48.679512999951839" lon="-1.957304980605841">
        <ele>18.879999999999999</ele>
        <time>2018-07-05T10:18:54Z</time>
      </trkpt>
      <trkpt lat="48.67949397303164" lon="-1.957428026944399">
        <ele>18.879999999999999</ele>
        <time>2018-07-05T10:18:55Z</time>
      </trkpt>
      <trkpt lat="48.679475029930472" lon="-1.957555012777448">
        <ele>18.879999999999999</ele>
        <time>2018-07-05T10:18:56Z</time>
      </trkpt>
      <trkpt lat="48.679419960826635" lon="-1.95833302102983">
        <ele>18.399999999999999</ele>
        <time>2018-07-05T10:19:03Z</time>
      </trkpt>
      <trkpt lat="48.679401017725468" lon="-1.959470026195049">
        <ele>15.52</ele>
        <time>2018-07-05T10:19:12Z</time>
      </trkpt>
      <trkpt lat="48.679425995796919" lon="-1.960416007786989">
        <ele>14.56</ele>
        <time>2018-07-05T10:19:17Z</time>
      </trkpt>
      <trkpt lat="48.67945097386837" lon="-1.960640978068113">
        <ele>14.56</ele>
        <time>2018-07-05T10:19:18Z</time>
      </trkpt>
      <trkpt lat="48.679516017436981" lon="-1.960850022733212">
        <ele>15.039999999999999</ele>
        <time>2018-07-05T10:19:19Z</time>
      </trkpt>
      <trkpt lat="48.679586006328464" lon="-1.961049009114504">
        <ele>15.039999999999999</ele>
        <time>2018-07-05T10:19:20Z</time>
      </trkpt>
      <trkpt lat="48.679668987169862" lon="-1.961232991889119">
        <ele>15.039999999999999</ele>
        <time>2018-07-05T10:19:21Z</time>
      </trkpt>
      <trkpt lat="48.679764959961176" lon="-1.96138403378427">
        <ele>15.52</ele>
        <time>2018-07-05T10:19:22Z</time>
      </trkpt>
      <trkpt lat="48.679854981601238" lon="-1.961525017395616">
        <ele>15.039999999999999</ele>
        <time>2018-07-05T10:19:23Z</time>
      </trkpt>
      <trkpt lat="48.680019015446305" lon="-1.961779994890094">
        <ele>15.039999999999999</ele>
        <time>2018-07-05T10:19:25Z</time>
      </trkpt>
      <trkpt lat="48.680090010166168" lon="-1.961892982944846">
        <ele>15.52</ele>
        <time>2018-07-05T10:19:26Z</time>
      </trkpt>
      <trkpt lat="48.680788977071643" lon="-1.96288799867034">
        <ele>12.15</ele>
        <time>2018-07-05T10:19:37Z</time>
      </trkpt>
      <trkpt lat="48.681129030883312" lon="-1.96344698779285">
        <ele>10.710000000000001</ele>
        <time>2018-07-05T10:19:44Z</time>
      </trkpt>
      <trkpt lat="48.68114897981286" lon="-1.963494010269642">
        <ele>10.710000000000001</ele>
        <time>2018-07-05T10:19:45Z</time>
      </trkpt>
      <trkpt lat="48.681158032268286" lon="-1.963514965027571">
        <ele>10.23</ele>
        <time>2018-07-05T10:19:54Z</time>
      </trkpt>
      <trkpt lat="48.681333968415856" lon="-1.963971024379134">
        <ele>8.789999999999999</ele>
        <time>2018-07-05T10:20:00Z</time>
      </trkpt>
      <trkpt lat="48.681348972022533" lon="-1.964065991342068">
        <ele>9.27</ele>
        <time>2018-07-05T10:20:01Z</time>
      </trkpt>
      <trkpt lat="48.68136397562921" lon="-1.964158024638891">
        <ele>9.27</ele>
        <time>2018-07-05T10:20:02Z</time>
      </trkpt>
      <trkpt lat="48.681376967579126" lon="-1.964243017137051">
        <ele>9.27</ele>
        <time>2018-07-05T10:20:03Z</time>
      </trkpt>
      <trkpt lat="48.681381996721029" lon="-1.964319963008165">
        <ele>9.75</ele>
        <time>2018-07-05T10:20:04Z</time>
      </trkpt>
      <trkpt lat="48.681364981457591" lon="-1.964401016011834">
        <ele>9.75</ele>
        <time>2018-07-05T10:20:05Z</time>
      </trkpt>
      <trkpt lat="48.681316031143069" lon="-1.964634032920003">
        <ele>10.23</ele>
        <time>2018-07-05T10:20:08Z</time>
      </trkpt>
      <trkpt lat="48.681300021708012" lon="-1.964707961305976">
        <ele>10.23</ele>
        <time>2018-07-05T10:20:09Z</time>
      </trkpt>
      <trkpt lat="48.681205976754427" lon="-1.965291006490588">
        <ele>11.67</ele>
        <time>2018-07-05T10:20:16Z</time>
      </trkpt>
      <trkpt lat="48.681202037259936" lon="-1.965392008423805">
        <ele>11.67</ele>
        <time>2018-07-05T10:20:17Z</time>
      </trkpt>
      <trkpt lat="48.681204970926046" lon="-1.966330027207732">
        <ele>15.039999999999999</ele>
        <time>2018-07-05T10:20:26Z</time>
      </trkpt>
      <trkpt lat="48.681183010339737" lon="-1.967308027669787">
        <ele>17.440000000000001</ele>
        <time>2018-07-05T10:20:34Z</time>
      </trkpt>
      <trkpt lat="48.681174963712692" lon="-1.967396959662437">
        <ele>17.920000000000002</ele>
        <time>2018-07-05T10:20:35Z</time>
      </trkpt>
      <trkpt lat="48.68116901256144" lon="-1.967471977695823">
        <ele>18.399999999999999</ele>
        <time>2018-07-05T10:20:36Z</time>
      </trkpt>
      <trkpt lat="48.681162977591157" lon="-1.967541966587305">
        <ele>18.879999999999999</ele>
        <time>2018-07-05T10:20:37Z</time>
      </trkpt>
      <trkpt lat="48.681157026439905" lon="-1.967609021812677">
        <ele>18.879999999999999</ele>
        <time>2018-07-05T10:20:38Z</time>
      </trkpt>
      <trkpt lat="48.681150991469622" lon="-1.967690996825695">
        <ele>18.879999999999999</ele>
        <time>2018-07-05T10:20:39Z</time>
      </trkpt>
      <trkpt lat="48.68119097314775" lon="-1.967743970453739">
        <ele>19.359999999999999</ele>
        <time>2018-07-05T10:20:40Z</time>
      </trkpt>
      <trkpt lat="48.681245958432555" lon="-1.96778898127377">
        <ele>19.359999999999999</ele>
        <time>2018-07-05T10:20:41Z</time>
      </trkpt>
      <trkpt lat="48.681300021708012" lon="-1.967812031507492">
        <ele>19.359999999999999</ele>
        <time>2018-07-05T10:20:42Z</time>
      </trkpt>
      <trkpt lat="48.681355006992817" lon="-1.967836003750563">
        <ele>19.84</ele>
        <time>2018-07-05T10:20:43Z</time>
      </trkpt>
      <trkpt lat="48.681413009762764" lon="-1.967860981822014">
        <ele>19.84</ele>
        <time>2018-07-05T10:20:44Z</time>
      </trkpt>
      <trkpt lat="48.681474030017853" lon="-1.967886965721846">
        <ele>19.84</ele>
        <time>2018-07-05T10:20:45Z</time>
      </trkpt>
      <trkpt lat="48.68177100084722" lon="-1.968014035373926">
        <ele>21.289999999999999</ele>
        <time>2018-07-05T10:20:50Z</time>
      </trkpt>
      <trkpt lat="48.681817017495632" lon="-1.968057034537196">
        <ele>21.77</ele>
        <time>2018-07-05T10:20:51Z</time>
      </trkpt>
      <trkpt lat="48.681821962818503" lon="-1.968154013156891">
        <ele>22.25</ele>
        <time>2018-07-05T10:20:52Z</time>
      </trkpt>
      <trkpt lat="48.681829003617167" lon="-1.968270018696785">
        <ele>22.25</ele>
        <time>2018-07-05T10:20:53Z</time>
      </trkpt>
      <trkpt lat="48.6818359605968" lon="-1.968402033671737">
        <ele>22.25</ele>
        <time>2018-07-05T10:20:54Z</time>
      </trkpt>
      <trkpt lat="48.681734036654234" lon="-1.968934033066034">
        <ele>22.73</ele>
        <time>2018-07-05T10:20:58Z</time>
      </trkpt>
      <trkpt lat="48.681585006415844" lon="-1.969664013013244">
        <ele>20.809999999999999</ele>
        <time>2018-07-05T10:21:03Z</time>
      </trkpt>
      <trkpt lat="48.681510994210839" lon="-1.96995796635747">
        <ele>21.289999999999999</ele>
        <time>2018-07-05T10:21:05Z</time>
      </trkpt>
      <trkpt lat="48.681214023381472" lon="-1.971273003146052">
        <ele>22.25</ele>
        <time>2018-07-05T10:21:13Z</time>
      </trkpt>
      <trkpt lat="48.681174041703343" lon="-1.971423961222172">
        <ele>22.73</ele>
        <time>2018-07-05T10:21:14Z</time>
      </trkpt>
      <trkpt lat="48.680582027882338" lon="-1.973637035116553">
        <ele>21.289999999999999</ele>
        <time>2018-07-05T10:21:27Z</time>
      </trkpt>
      <trkpt lat="48.680484965443611" lon="-1.974170040339232">
        <ele>20.809999999999999</ele>
        <time>2018-07-05T10:21:30Z</time>
      </trkpt>
      <trkpt lat="48.680469039827585" lon="-1.974314963445067">
        <ele>20.32</ele>
        <time>2018-07-05T10:21:31Z</time>
      </trkpt>
      <trkpt lat="48.680431991815567" lon="-1.975317019969225">
        <ele>19.84</ele>
        <time>2018-07-05T10:21:37Z</time>
      </trkpt>
      <trkpt lat="48.680165028199553" lon="-1.977058025076985">
        <ele>21.289999999999999</ele>
        <time>2018-07-05T10:21:48Z</time>
      </trkpt>
      <trkpt lat="48.680105013772845" lon="-1.977184005081654">
        <ele>20.809999999999999</ele>
        <time>2018-07-05T10:21:49Z</time>
      </trkpt>
      <trkpt lat="48.680025972425938" lon="-1.977297998964787">
        <ele>20.32</ele>
        <time>2018-07-05T10:21:50Z</time>
      </trkpt>
      <trkpt lat="48.679945003241301" lon="-1.977414004504681">
        <ele>20.32</ele>
        <time>2018-07-05T10:21:51Z</time>
      </trkpt>
      <trkpt lat="48.679846012964845" lon="-1.977512994781137">
        <ele>20.32</ele>
        <time>2018-07-05T10:21:52Z</time>
      </trkpt>
      <trkpt lat="48.678747983649373" lon="-1.978611024096608">
        <ele>17.920000000000002</ele>
        <time>2018-07-05T10:22:03Z</time>
      </trkpt>
      <trkpt lat="48.678475990891457" lon="-1.978845968842506">
        <ele>19.359999999999999</ele>
        <time>2018-07-05T10:22:06Z</time>
      </trkpt>
      <trkpt lat="48.678381023928523" lon="-1.978906989097595">
        <ele>19.84</ele>
        <time>2018-07-05T10:22:07Z</time>
      </trkpt>
      <trkpt lat="48.678279016166925" lon="-1.978950994089246">
        <ele>20.32</ele>
        <time>2018-07-05T10:22:08Z</time>
      </trkpt>
      <trkpt lat="48.678173990920186" lon="-1.9789810013026">
        <ele>20.809999999999999</ele>
        <time>2018-07-05T10:22:09Z</time>
      </trkpt>
      <trkpt lat="48.678066032007337" lon="-1.979012014344335">
        <ele>20.809999999999999</ele>
        <time>2018-07-05T10:22:10Z</time>
      </trkpt>
      <trkpt lat="48.676908994093537" lon="-1.979331029579043">
        <ele>18.399999999999999</ele>
        <time>2018-07-05T10:22:20Z</time>
      </trkpt>
      <trkpt lat="48.676731968298554" lon="-1.979382997378707">
        <ele>17.440000000000001</ele>
        <time>2018-07-05T10:22:22Z</time>
      </trkpt>
      <trkpt lat="48.676498029381037" lon="-1.979471007362008">
        <ele>14.08</ele>
        <time>2018-07-05T10:22:28Z</time>
      </trkpt>
      <trkpt lat="48.676438014954329" lon="-1.979504032060504">
        <ele>12.630000000000001</ele>
        <time>2018-07-05T10:22:30Z</time>
      </trkpt>
      <trkpt lat="48.676393004134297" lon="-1.979528004303575">
        <ele>12.630000000000001</ele>
        <time>2018-07-05T10:22:31Z</time>
      </trkpt>
      <trkpt lat="48.676338018849492" lon="-1.979558011516929">
        <ele>12.15</ele>
        <time>2018-07-05T10:22:32Z</time>
      </trkpt>
      <trkpt lat="48.675724966451526" lon="-1.97990401647985">
        <ele>13.119999999999999</ele>
        <time>2018-07-05T10:22:39Z</time>
      </trkpt>
      <trkpt lat="48.67459399625659" lon="-1.980569958686829">
        <ele>18.879999999999999</ele>
        <time>2018-07-05T10:22:49Z</time>
      </trkpt>
      <trkpt lat="48.673165971413255" lon="-1.981400018557906">
        <ele>23.690000000000001</ele>
        <time>2018-07-05T10:23:02Z</time>
      </trkpt>
      <trkpt lat="48.672660961747169" lon="-1.981700006872416">
        <ele>22.73</ele>
        <time>2018-07-05T10:23:08Z</time>
      </trkpt>
      <trkpt lat="48.672588039189577" lon="-1.981742000207305">
        <ele>22.25</ele>
        <time>2018-07-05T10:23:09Z</time>
      </trkpt>
      <trkpt lat="48.671657983213663" lon="-1.982272993773222">
        <ele>20.32</ele>
        <time>2018-07-05T10:23:20Z</time>
      </trkpt>
      <trkpt lat="48.670675037428737" lon="-1.982813961803913">
        <ele>19.84</ele>
        <time>2018-07-05T10:23:31Z</time>
      </trkpt>
      <trkpt lat="48.66980399005115" lon="-1.983135994523764">
        <ele>21.77</ele>
        <time>2018-07-05T10:23:40Z</time>
      </trkpt>
      <trkpt lat="48.66894400678575" lon="-1.983498008921742">
        <ele>25.129999999999999</ele>
        <time>2018-07-05T10:23:50Z</time>
      </trkpt>
      <trkpt lat="48.66810598410666" lon="-1.984037971124053">
        <ele>25.609999999999999</ele>
        <time>2018-07-05T10:24:00Z</time>
      </trkpt>
      <trkpt lat="48.667365023866296" lon="-1.984906001016498">
        <ele>23.210000000000001</ele>
        <time>2018-07-05T10:24:10Z</time>
      </trkpt>
      <trkpt lat="48.667028993368149" lon="-1.985358959063888">
        <ele>21.289999999999999</ele>
        <time>2018-07-05T10:24:15Z</time>
      </trkpt>
      <trkpt lat="48.66696797311306" lon="-1.985441017895937">
        <ele>21.289999999999999</ele>
        <time>2018-07-05T10:24:16Z</time>
      </trkpt>
      <trkpt lat="48.666906030848622" lon="-1.985531039535999">
        <ele>21.289999999999999</ele>
        <time>2018-07-05T10:24:17Z</time>
      </trkpt>
      <trkpt lat="48.666848028078675" lon="-1.985632041469216">
        <ele>20.809999999999999</ele>
        <time>2018-07-05T10:24:18Z</time>
      </trkpt>
      <trkpt lat="48.666789019480348" lon="-1.985734971240163">
        <ele>20.32</ele>
        <time>2018-07-05T10:24:19Z</time>
      </trkpt>
      <trkpt lat="48.666724981740117" lon="-1.985847959294915">
        <ele>19.84</ele>
        <time>2018-07-05T10:24:20Z</time>
      </trkpt>
      <trkpt lat="48.666271017864347" lon="-1.986667960882187">
        <ele>20.809999999999999</ele>
        <time>2018-07-05T10:24:28Z</time>
      </trkpt>
      <trkpt lat="48.666141014546156" lon="-1.98688899166882">
        <ele>21.289999999999999</ele>
        <time>2018-07-05T10:24:29Z</time>
      </trkpt>
      <trkpt lat="48.666079994291067" lon="-1.986992005258799">
        <ele>21.289999999999999</ele>
        <time>2018-07-05T10:24:30Z</time>
      </trkpt>
      <trkpt lat="48.666025009006262" lon="-1.987094013020396">
        <ele>21.77</ele>
        <time>2018-07-05T10:24:31Z</time>
      </trkpt>
      <trkpt lat="48.665969017893076" lon="-1.987196020781994">
        <ele>21.77</ele>
        <time>2018-07-05T10:24:32Z</time>
      </trkpt>
      <trkpt lat="48.665843959897757" lon="-1.987383021041751">
        <ele>22.25</ele>
        <time>2018-07-05T10:24:34Z</time>
      </trkpt>
      <trkpt lat="48.665718985721469" lon="-1.987564992159605">
        <ele>21.77</ele>
        <time>2018-07-05T10:24:36Z</time>
      </trkpt>
      <trkpt lat="48.665650002658367" lon="-1.987645039334893">
        <ele>21.289999999999999</ele>
        <time>2018-07-05T10:24:37Z</time>
      </trkpt>
      <trkpt lat="48.664779039099813" lon="-1.988103026524186">
        <ele>15.52</ele>
        <time>2018-07-05T10:24:47Z</time>
      </trkpt>
      <trkpt lat="48.663818975910544" lon="-1.988312993198633">
        <ele>9.27</ele>
        <time>2018-07-05T10:24:57Z</time>
      </trkpt>
      <trkpt lat="48.663005009293556" lon="-1.988504016771913">
        <ele>11.19</ele>
        <time>2018-07-05T10:25:06Z</time>
      </trkpt>
      <trkpt lat="48.662926973775029" lon="-1.988522037863731">
        <ele>11.67</ele>
        <time>2018-07-05T10:25:07Z</time>
      </trkpt>
      <trkpt lat="48.662858996540308" lon="-1.988538969308138">
        <ele>12.15</ele>
        <time>2018-07-05T10:25:08Z</time>
      </trkpt>
      <trkpt lat="48.662800993770361" lon="-1.988570988178253">
        <ele>12.15</ele>
        <time>2018-07-05T10:25:09Z</time>
      </trkpt>
      <trkpt lat="48.662751037627459" lon="-1.988621028140187">
        <ele>12.630000000000001</ele>
        <time>2018-07-05T10:25:10Z</time>
      </trkpt>
      <trkpt lat="48.662598989903927" lon="-1.988802999258041">
        <ele>13.119999999999999</ele>
        <time>2018-07-05T10:25:13Z</time>
      </trkpt>
      <trkpt lat="48.662249967455864" lon="-1.989342961460352">
        <ele>15.039999999999999</ele>
        <time>2018-07-05T10:25:20Z</time>
      </trkpt>
      <trkpt lat="48.662052992731333" lon="-1.989619983360171">
        <ele>15.039999999999999</ele>
        <time>2018-07-05T10:25:23Z</time>
      </trkpt>
      <trkpt lat="48.662014016881585" lon="-1.989698018878698">
        <ele>15.039999999999999</ele>
        <time>2018-07-05T10:25:24Z</time>
      </trkpt>
      <trkpt lat="48.66195903159678" lon="-1.989788040518761">
        <ele>15.52</ele>
        <time>2018-07-05T10:25:25Z</time>
      </trkpt>
      <trkpt lat="48.661899017170072" lon="-1.989870015531778">
        <ele>15.039999999999999</ele>
        <time>2018-07-05T10:25:26Z</time>
      </trkpt>
      <trkpt lat="48.661842020228505" lon="-1.989947967231274">
        <ele>15.52</ele>
        <time>2018-07-05T10:25:27Z</time>
      </trkpt>
      <trkpt lat="48.661284036934376" lon="-1.990794958546758">
        <ele>16.960000000000001</ele>
        <time>2018-07-05T10:25:38Z</time>
      </trkpt>
      <trkpt lat="48.660709960386157" lon="-1.991632981225848">
        <ele>17.440000000000001</ele>
        <time>2018-07-05T10:25:47Z</time>
      </trkpt>
      <trkpt lat="48.660646006464958" lon="-1.991729959845543">
        <ele>16.960000000000001</ele>
        <time>2018-07-05T10:25:48Z</time>
      </trkpt>
      <trkpt lat="48.660021973773837" lon="-1.992664039134979">
        <ele>13.6</ele>
        <time>2018-07-05T10:25:59Z</time>
      </trkpt>
      <trkpt lat="48.659907979890704" lon="-1.992831006646156">
        <ele>13.119999999999999</ele>
        <time>2018-07-05T10:26:00Z</time>
      </trkpt>
      <trkpt lat="48.659847965463996" lon="-1.992919016629458">
        <ele>12.630000000000001</ele>
        <time>2018-07-05T10:26:01Z</time>
      </trkpt>
      <trkpt lat="48.659053025767207" lon="-1.994059961289167">
        <ele>11.67</ele>
        <time>2018-07-05T10:26:13Z</time>
      </trkpt>
      <trkpt lat="48.658979013562202" lon="-1.994165992364287">
        <ele>12.15</ele>
        <time>2018-07-05T10:26:14Z</time>
      </trkpt>
      <trkpt lat="48.658649018034339" lon="-1.994660021737218">
        <ele>12.630000000000001</ele>
        <time>2018-07-05T10:26:19Z</time>
      </trkpt>
      <trkpt lat="48.65858699195087" lon="-1.994753982871771">
        <ele>12.630000000000001</ele>
        <time>2018-07-05T10:26:20Z</time>
      </trkpt>
      <trkpt lat="48.657954996451735" lon="-1.995683033019304">
        <ele>10.710000000000001</ele>
        <time>2018-07-05T10:26:30Z</time>
      </trkpt>
      <trkpt lat="48.657892970368266" lon="-1.995766013860703">
        <ele>10.23</ele>
        <time>2018-07-05T10:26:31Z</time>
      </trkpt>
      <trkpt lat="48.657680992037058" lon="-1.996044041588903">
        <ele>10.23</ele>
        <time>2018-07-05T10:26:35Z</time>
      </trkpt>
      <trkpt lat="48.657649978995323" lon="-1.996084023267031">
        <ele>10.23</ele>
        <time>2018-07-05T10:26:36Z</time>
      </trkpt>
      <trkpt lat="48.657628018409014" lon="-1.996114030480385">
        <ele>10.23</ele>
        <time>2018-07-05T10:26:37Z</time>
      </trkpt>
      <trkpt lat="48.657609997317195" lon="-1.996135991066694">
        <ele>10.23</ele>
        <time>2018-07-05T10:26:38Z</time>
      </trkpt>
      <trkpt lat="48.657609997317195" lon="-1.996135991066694">
        <ele>9.75</ele>
        <time>2018-07-05T10:26:49Z</time>
      </trkpt>
      <trkpt lat="48.657594993710518" lon="-1.996156023815274">
        <ele>9.75</ele>
        <time>2018-07-05T10:27:08Z</time>
      </trkpt>
      <trkpt lat="48.657473959028721" lon="-1.996315028518438">
        <ele>8.789999999999999</ele>
        <time>2018-07-05T10:27:16Z</time>
      </trkpt>
      <trkpt lat="48.657314032316208" lon="-1.996524995192885">
        <ele>6.39</ele>
        <time>2018-07-05T10:27:24Z</time>
      </trkpt>
      <trkpt lat="48.657286958768964" lon="-1.996675031259656">
        <ele>6.39</ele>
        <time>2018-07-05T10:27:26Z</time>
      </trkpt>
      <trkpt lat="48.657274972647429" lon="-1.996748959645629">
        <ele>5.91</ele>
        <time>2018-07-05T10:27:27Z</time>
      </trkpt>
      <trkpt lat="48.657260974869132" lon="-1.996835041791201">
        <ele>5.91</ele>
        <time>2018-07-05T10:27:28Z</time>
      </trkpt>
      <trkpt lat="48.657157039269805" lon="-1.997469970956445">
        <ele>5.91</ele>
        <time>2018-07-05T10:27:34Z</time>
      </trkpt>
      <trkpt lat="48.656912036240101" lon="-1.998771009966731">
        <ele>6.87</ele>
        <time>2018-07-05T10:27:45Z</time>
      </trkpt>
      <trkpt lat="48.656684970483184" lon="-2.000083029270172">
        <ele>9.27</ele>
        <time>2018-07-05T10:27:57Z</time>
      </trkpt>
      <trkpt lat="48.656448014080524" lon="-2.001403011381626">
        <ele>9.75</ele>
        <time>2018-07-05T10:28:09Z</time>
      </trkpt>
      <trkpt lat="48.656322034075856" lon="-2.002095021307468">
        <ele>9.75</ele>
        <time>2018-07-05T10:28:15Z</time>
      </trkpt>
      <trkpt lat="48.656237963587046" lon="-2.002579998224974">
        <ele>9.75</ele>
        <time>2018-07-05T10:28:19Z</time>
      </trkpt>
      <trkpt lat="48.656213991343975" lon="-2.002697009593248">
        <ele>10.23</ele>
        <time>2018-07-05T10:28:20Z</time>
      </trkpt>
      <trkpt lat="48.656065966933966" lon="-2.003266979008913">
        <ele>12.630000000000001</ele>
        <time>2018-07-05T10:28:25Z</time>
      </trkpt>
      <trkpt lat="48.655993966385722" lon="-2.003491027280688">
        <ele>13.6</ele>
        <time>2018-07-05T10:28:27Z</time>
      </trkpt>
      <trkpt lat="48.655959013849497" lon="-2.003599992021918">
        <ele>14.08</ele>
        <time>2018-07-05T10:28:28Z</time>
      </trkpt>
      <trkpt lat="48.655893970280886" lon="-2.003804007545114">
        <ele>15.52</ele>
        <time>2018-07-05T10:28:30Z</time>
      </trkpt>
      <trkpt lat="48.655868992209435" lon="-2.00388103723526">
        <ele>16</ele>
        <time>2018-07-05T10:28:31Z</time>
      </trkpt>
      <trkpt lat="48.655850971117616" lon="-2.003939962014556">
        <ele>16.48</ele>
        <time>2018-07-05T10:28:32Z</time>
      </trkpt>
      <trkpt lat="48.655811995267868" lon="-2.004058985039592">
        <ele>17.920000000000002</ele>
        <time>2018-07-05T10:28:41Z</time>
      </trkpt>
      <trkpt lat="48.655722979456186" lon="-2.004340030252934">
        <ele>19.84</ele>
        <time>2018-07-05T10:29:02Z</time>
      </trkpt>
      <trkpt lat="48.655388038605452" lon="-2.005391959100962">
        <ele>19.359999999999999</ele>
        <time>2018-07-05T10:29:11Z</time>
      </trkpt>
      <trkpt lat="48.655095007270575" lon="-2.006315980106592">
        <ele>20.32</ele>
        <time>2018-07-05T10:29:19Z</time>
      </trkpt>
      <trkpt lat="48.654711032286286" lon="-2.00757703743875">
        <ele>19.359999999999999</ele>
        <time>2018-07-05T10:29:30Z</time>
      </trkpt>
      <trkpt lat="48.654358992353082" lon="-2.008708007633686">
        <ele>19.359999999999999</ele>
        <time>2018-07-05T10:29:40Z</time>
      </trkpt>
      <trkpt lat="48.654324039816856" lon="-2.008817978203297">
        <ele>19.359999999999999</ele>
        <time>2018-07-05T10:29:41Z</time>
      </trkpt>
      <trkpt lat="48.65429000928998" lon="-2.008927026763558">
        <ele>18.879999999999999</ele>
        <time>2018-07-05T10:29:42Z</time>
      </trkpt>
      <trkpt lat="48.654147014021873" lon="-2.00938199646771">
        <ele>18.879999999999999</ele>
        <time>2018-07-05T10:29:47Z</time>
      </trkpt>
      <trkpt lat="48.654126981273293" lon="-2.00944603420794">
        <ele>18.399999999999999</ele>
        <time>2018-07-05T10:29:48Z</time>
      </trkpt>
      <trkpt lat="48.654109966009855" lon="-2.009501019492745">
        <ele>18.879999999999999</ele>
        <time>2018-07-05T10:29:49Z</time>
      </trkpt>
      <trkpt lat="48.654094962403178" lon="-2.009547036141157">
        <ele>18.879999999999999</ele>
        <time>2018-07-05T10:29:50Z</time>
      </trkpt>
      <trkpt lat="48.654082976281643" lon="-2.009584000334144">
        <ele>18.879999999999999</ele>
        <time>2018-07-05T10:29:51Z</time>
      </trkpt>
      <trkpt lat="48.65407501347363" lon="-2.009607972577214">
        <ele>18.399999999999999</ele>
        <time>2018-07-05T10:29:52Z</time>
      </trkpt>
      <trkpt lat="48.654068978503346" lon="-2.009626999497414">
        <ele>18.399999999999999</ele>
        <time>2018-07-05T10:29:53Z</time>
      </trkpt>
      <trkpt lat="48.654068978503346" lon="-2.009626999497414">
        <ele>18.399999999999999</ele>
        <time>2018-07-05T10:29:54Z</time>
      </trkpt>
      <trkpt lat="48.654068978503346" lon="-2.009626999497414">
        <ele>18.399999999999999</ele>
        <time>2018-07-05T10:30:12Z</time>
      </trkpt>
      <trkpt lat="48.654003012925386" lon="-2.00983302667737">
        <ele>16.960000000000001</ele>
        <time>2018-07-05T10:30:41Z</time>
      </trkpt>
      <trkpt lat="48.653617026284337" lon="-2.011041026562452">
        <ele>14.08</ele>
        <time>2018-07-05T10:30:55Z</time>
      </trkpt>
      <trkpt lat="48.653245959430933" lon="-2.012219019234181">
        <ele>14.08</ele>
        <time>2018-07-05T10:31:07Z</time>
      </trkpt>
      <trkpt lat="48.652713038027287" lon="-2.013934040442109">
        <ele>13.6</ele>
        <time>2018-07-05T10:31:23Z</time>
      </trkpt>
      <trkpt lat="48.652460994198918" lon="-2.014747001230717">
        <ele>14.08</ele>
        <time>2018-07-05T10:31:30Z</time>
      </trkpt>
      <trkpt lat="48.652274999767542" lon="-2.016335958614945">
        <ele>16.48</ele>
        <time>2018-07-05T10:31:42Z</time>
      </trkpt>
      <trkpt lat="48.652137033641338" lon="-2.017612019553781">
        <ele>16.960000000000001</ele>
        <time>2018-07-05T10:31:54Z</time>
      </trkpt>
      <trkpt lat="48.651979034766555" lon="-2.019128976389766">
        <ele>15.52</ele>
        <time>2018-07-05T10:32:09Z</time>
      </trkpt>
      <trkpt lat="48.65194701589644" lon="-2.019425025209785">
        <ele>15.039999999999999</ele>
        <time>2018-07-05T10:32:12Z</time>
      </trkpt>
      <trkpt lat="48.651937041431665" lon="-2.019516974687576">
        <ele>15.039999999999999</ele>
        <time>2018-07-05T10:32:13Z</time>
      </trkpt>
      <trkpt lat="48.651881972327828" lon="-2.020025001838803">
        <ele>14.08</ele>
        <time>2018-07-05T10:32:22Z</time>
      </trkpt>
      <trkpt lat="48.651816006749868" lon="-2.020418029278517">
        <ele>13.6</ele>
        <time>2018-07-05T10:32:34Z</time>
      </trkpt>
      <trkpt lat="48.651793040335178" lon="-2.020547026768327">
        <ele>13.119999999999999</ele>
        <time>2018-07-05T10:32:50Z</time>
      </trkpt>
      <trkpt lat="48.651859005913138" lon="-2.02074802480638">
        <ele>14.56</ele>
        <time>2018-07-05T10:40:00Z</time>
      </trkpt>
      <trkpt lat="48.651698995381594" lon="-2.020795969292522">
        <ele>7.83</ele>
        <time>2018-07-05T10:40:15Z</time>
      </trkpt>
      <trkpt lat="48.651528004556894" lon="-2.021086988970637">
        <ele>7.35</ele>
        <time>2018-07-05T10:40:21Z</time>
      </trkpt>
      <trkpt lat="48.651489028707147" lon="-2.021125964820385">
        <ele>6.87</ele>
        <time>2018-07-05T10:40:22Z</time>
      </trkpt>
      <trkpt lat="48.651459021493793" lon="-2.02115697786212">
        <ele>6.87</ele>
        <time>2018-07-05T10:40:23Z</time>
      </trkpt>
      <trkpt lat="48.651433037593961" lon="-2.021179022267461">
        <ele>6.87</ele>
        <time>2018-07-05T10:40:24Z</time>
      </trkpt>
      <trkpt lat="48.651408981531858" lon="-2.02119997702539">
        <ele>6.87</ele>
        <time>2018-07-05T10:40:25Z</time>
      </trkpt>
      <trkpt lat="48.651386015117168" lon="-2.02122000977397">
        <ele>6.87</ele>
        <time>2018-07-05T10:40:26Z</time>
      </trkpt>
      <trkpt lat="48.651361037045717" lon="-2.021240964531899">
        <ele>6.87</ele>
        <time>2018-07-05T10:40:27Z</time>
      </trkpt>
      <trkpt lat="48.651332035660744" lon="-2.021266026422381">
        <ele>7.35</ele>
        <time>2018-07-05T10:40:28Z</time>
      </trkpt>
      <trkpt lat="48.651301022619009" lon="-2.021293016150594">
        <ele>7.35</ele>
        <time>2018-07-05T10:40:29Z</time>
      </trkpt>
      <trkpt lat="48.651277972385287" lon="-2.021332997828722">
        <ele>7.35</ele>
        <time>2018-07-05T10:40:30Z</time>
      </trkpt>
      <trkpt lat="48.651237990707159" lon="-2.021398963406682">
        <ele>7.83</ele>
        <time>2018-07-05T10:40:31Z</time>
      </trkpt>
      <trkpt lat="48.651214018464088" lon="-2.021420001983643">
        <ele>7.83</ele>
        <time>2018-07-05T10:40:32Z</time>
      </trkpt>
      <trkpt lat="48.651194991543889" lon="-2.021420001983643">
        <ele>8.310000000000001</ele>
        <time>2018-07-05T10:40:33Z</time>
      </trkpt>
      <trkpt lat="48.651118967682123" lon="-2.021295027807355">
        <ele>8.310000000000001</ele>
        <time>2018-07-05T10:40:34Z</time>
      </trkpt>
      <trkpt lat="48.65102500654757" lon="-2.02132604084909">
        <ele>8.310000000000001</ele>
        <time>2018-07-05T10:40:36Z</time>
      </trkpt>
      <trkpt lat="48.650881005451083" lon="-2.021334003657103">
        <ele>8.310000000000001</ele>
        <time>2018-07-05T10:40:39Z</time>
      </trkpt>
      <trkpt lat="48.65080900490284" lon="-2.021334003657103">
        <ele>8.310000000000001</ele>
        <time>2018-07-05T10:40:40Z</time>
      </trkpt>
      <trkpt lat="48.650771034881473" lon="-2.021319000050426">
        <ele>7.83</ele>
        <time>2018-07-05T10:40:41Z</time>
      </trkpt>
      <trkpt lat="48.650413965806365" lon="-2.021198971197009">
        <ele>7.35</ele>
        <time>2018-07-05T10:40:49Z</time>
      </trkpt>
      <trkpt lat="48.650369038805366" lon="-2.021184973418713">
        <ele>7.83</ele>
        <time>2018-07-05T10:40:50Z</time>
      </trkpt>
      <trkpt lat="48.650323022156954" lon="-2.021169969812036">
        <ele>7.83</ele>
        <time>2018-07-05T10:40:51Z</time>
      </trkpt>
      <trkpt lat="48.650280022993684" lon="-2.021155972033739">
        <ele>7.83</ele>
        <time>2018-07-05T10:40:52Z</time>
      </trkpt>
      <trkpt lat="48.650240041315556" lon="-2.021143985912204">
        <ele>7.83</ele>
        <time>2018-07-05T10:40:53Z</time>
      </trkpt>
      <trkpt lat="48.650200981646776" lon="-2.021130993962288">
        <ele>7.83</ele>
        <time>2018-07-05T10:40:54Z</time>
      </trkpt>
      <trkpt lat="48.6501220241189" lon="-2.021269965916872">
        <ele>7.35</ele>
        <time>2018-07-05T10:40:55Z</time>
      </trkpt>
      <trkpt lat="48.650110960006714" lon="-2.021269965916872">
        <ele>7.35</ele>
        <time>2018-07-05T10:40:56Z</time>
      </trkpt>
      <trkpt lat="48.650066033005714" lon="-2.021269965916872">
        <ele>7.35</ele>
        <time>2018-07-05T10:40:57Z</time>
      </trkpt>
      <trkpt lat="48.650019010528922" lon="-2.021269965916872">
        <ele>7.35</ele>
        <time>2018-07-05T10:40:58Z</time>
      </trkpt>
      <trkpt lat="48.649981040507555" lon="-2.021193020045757">
        <ele>7.35</ele>
        <time>2018-07-05T10:40:59Z</time>
      </trkpt>
      <trkpt lat="48.64997198805213" lon="-2.021140968427062">
        <ele>6.87</ele>
        <time>2018-07-05T10:41:00Z</time>
      </trkpt>
      <trkpt lat="48.64995296113193" lon="-2.020971989259124">
        <ele>6.87</ele>
        <time>2018-07-05T10:41:01Z</time>
      </trkpt>
      <trkpt lat="48.649904010817409" lon="-2.020923038944602">
        <ele>6.87</ele>
        <time>2018-07-05T10:41:02Z</time>
      </trkpt>
      <trkpt lat="48.649798985570669" lon="-2.020711982622743">
        <ele>6.39</ele>
        <time>2018-07-05T10:41:05Z</time>
      </trkpt>
      <trkpt lat="48.649688009172678" lon="-2.020419035106897">
        <ele>4.46</ele>
        <time>2018-07-05T10:41:09Z</time>
      </trkpt>
      <trkpt lat="48.649668982252479" lon="-2.020365977659822">
        <ele>3.98</ele>
        <time>2018-07-05T10:41:10Z</time>
      </trkpt>
      <trkpt lat="48.649650039151311" lon="-2.020316021516919">
        <ele>3.98</ele>
        <time>2018-07-05T10:41:11Z</time>
      </trkpt>
      <trkpt lat="48.64949899725616" lon="-2.019885024055839">
        <ele>3.5</ele>
        <time>2018-07-05T10:41:18Z</time>
      </trkpt>
      <trkpt lat="48.649471001699567" lon="-2.01980397105217">
        <ele>3.5</ele>
        <time>2018-07-05T10:41:19Z</time>
      </trkpt>
      <trkpt lat="48.649276038631797" lon="-2.018969971686602">
        <ele>3.5</ele>
        <time>2018-07-05T10:41:27Z</time>
      </trkpt>
      <trkpt lat="48.64913497120142" lon="-2.018909035250545">
        <ele>3.02</ele>
        <time>2018-07-05T10:41:28Z</time>
      </trkpt>
      <trkpt lat="48.649118961766362" lon="-2.01887802220881">
        <ele>3.02</ele>
        <time>2018-07-05T10:41:29Z</time>
      </trkpt>
      <trkpt lat="48.649078980088234" lon="-2.018795963376761">
        <ele>3.02</ele>
        <time>2018-07-05T10:41:30Z</time>
      </trkpt>
      <trkpt lat="48.64904897287488" lon="-2.018664032220841">
        <ele>3.02</ele>
        <time>2018-07-05T10:41:31Z</time>
      </trkpt>
      <trkpt lat="48.64904897287488" lon="-2.018546015024185">
        <ele>3.02</ele>
        <time>2018-07-05T10:41:32Z</time>
      </trkpt>
      <trkpt lat="48.64904897287488" lon="-2.018545009195805">
        <ele>3.02</ele>
        <time>2018-07-05T10:41:33Z</time>
      </trkpt>
      <trkpt lat="48.649149974808097" lon="-2.018273016437888">
        <ele>2.54</ele>
        <time>2018-07-05T10:41:34Z</time>
      </trkpt>
      <trkpt lat="48.649120973423123" lon="-2.018144018948078">
        <ele>2.54</ele>
        <time>2018-07-05T10:41:35Z</time>
      </trkpt>
      <trkpt lat="48.64909197203815" lon="-2.018030025064945">
        <ele>2.06</ele>
        <time>2018-07-05T10:41:36Z</time>
      </trkpt>
      <trkpt lat="48.64885400980711" lon="-2.016766034066677">
        <ele>0.62</ele>
        <time>2018-07-05T10:41:48Z</time>
      </trkpt>
      <trkpt lat="48.648557038977742" lon="-2.015143968164921">
        <ele>-0.82</ele>
        <time>2018-07-05T10:42:00Z</time>
      </trkpt>
      <trkpt lat="48.64831798709929" lon="-2.013807976618409">
        <ele>-2.27</ele>
        <time>2018-07-05T10:42:10Z</time>
      </trkpt>
      <trkpt lat="48.64825202152133" lon="-2.013461971655488">
        <ele>-2.27</ele>
        <time>2018-07-05T10:42:13Z</time>
      </trkpt>
      <trkpt lat="48.648083964362741" lon="-2.012564018368721">
        <ele>-1.79</ele>
        <time>2018-07-05T10:42:20Z</time>
      </trkpt>
      <trkpt lat="48.64803803153336" lon="-2.012307029217482">
        <ele>-1.79</ele>
        <time>2018-07-05T10:42:22Z</time>
      </trkpt>
      <trkpt lat="48.647997966036201" lon="-2.012081975117326">
        <ele>-2.75</ele>
        <time>2018-07-05T10:42:24Z</time>
      </trkpt>
      <trkpt lat="48.647982040420175" lon="-2.011989019811153">
        <ele>-3.23</ele>
        <time>2018-07-05T10:42:25Z</time>
      </trkpt>
      <trkpt lat="48.647848013788462" lon="-2.011935962364078">
        <ele>-3.23</ele>
        <time>2018-07-05T10:42:26Z</time>
      </trkpt>
      <trkpt lat="48.647829992696643" lon="-2.011869996786118">
        <ele>-3.71</ele>
        <time>2018-07-05T10:42:27Z</time>
      </trkpt>
      <trkpt lat="48.647804008796811" lon="-2.011776035651565">
        <ele>-3.71</ele>
        <time>2018-07-05T10:42:28Z</time>
      </trkpt>
      <trkpt lat="48.647782970219851" lon="-2.011700011789799">
        <ele>-3.23</ele>
        <time>2018-07-05T10:42:29Z</time>
      </trkpt>
      <trkpt lat="48.647881960496306" lon="-2.011523991823196">
        <ele>-2.75</ele>
        <time>2018-07-05T10:42:30Z</time>
      </trkpt>
      <trkpt lat="48.647861005738378" lon="-2.011407986283302">
        <ele>-2.75</ele>
        <time>2018-07-05T10:42:31Z</time>
      </trkpt>
      <trkpt lat="48.647837033495307" lon="-2.011273959651589">
        <ele>-2.27</ele>
        <time>2018-07-05T10:42:32Z</time>
      </trkpt>
      <trkpt lat="48.647810965776443" lon="-2.011131970211864">
        <ele>-2.75</ele>
        <time>2018-07-05T10:42:33Z</time>
      </trkpt>
      <trkpt lat="48.647782970219851" lon="-2.010982017964125">
        <ele>-2.75</ele>
        <time>2018-07-05T10:42:34Z</time>
      </trkpt>
      <trkpt lat="48.647388014942408" lon="-2.00884597375989">
        <ele>-3.23</ele>
        <time>2018-07-05T10:42:49Z</time>
      </trkpt>
      <trkpt lat="48.647224986925721" lon="-2.00845998711884">
        <ele>-2.27</ele>
        <time>2018-07-05T10:42:54Z</time>
      </trkpt>
      <trkpt lat="48.647253988310695" lon="-2.00845998711884">
        <ele>-2.27</ele>
        <time>2018-07-05T10:42:55Z</time>
      </trkpt>
      <trkpt lat="48.647224986925721" lon="-2.00845998711884">
        <ele>-2.27</ele>
        <time>2018-07-05T10:42:57Z</time>
      </trkpt>
      <trkpt lat="48.647056007757783" lon="-2.008344987407327">
        <ele>-1.79</ele>
        <time>2018-07-05T10:42:58Z</time>
      </trkpt>
      <trkpt lat="48.646858027204871" lon="-2.008403996005654">
        <ele>-1.3</ele>
        <time>2018-07-05T10:43:01Z</time>
      </trkpt>
      <trkpt lat="48.646032996475697" lon="-2.008441966027021">
        <ele>-0.82</ele>
        <time>2018-07-05T10:43:12Z</time>
      </trkpt>
      <trkpt lat="48.645139988511801" lon="-2.008477002382278">
        <ele>-1.79</ele>
        <time>2018-07-05T10:43:25Z</time>
      </trkpt>
      <trkpt lat="48.644773028790951" lon="-2.008481025695801">
        <ele>-2.27</ele>
        <time>2018-07-05T10:43:30Z</time>
      </trkpt>
      <trkpt lat="48.644117983058095" lon="-2.00850298628211">
        <ele>-4.67</ele>
        <time>2018-07-05T10:43:39Z</time>
      </trkpt>
      <trkpt lat="48.644027961418033" lon="-2.00850298628211">
        <ele>-5.15</ele>
        <time>2018-07-05T10:43:40Z</time>
      </trkpt>
      <trkpt lat="48.643873985856771" lon="-2.008516984060407">
        <ele>-5.63</ele>
        <time>2018-07-05T10:43:42Z</time>
      </trkpt>
      <trkpt lat="48.643797039985657" lon="-2.008525030687451">
        <ele>-6.11</ele>
        <time>2018-07-05T10:43:43Z</time>
      </trkpt>
      <trkpt lat="48.64260203205049" lon="-2.008576998487115">
        <ele>-6.59</ele>
        <time>2018-07-05T10:43:57Z</time>
      </trkpt>
      <trkpt lat="48.641746994107962" lon="-2.008604994043708">
        <ele>-3.71</ele>
        <time>2018-07-05T10:44:06Z</time>
      </trkpt>
      <trkpt lat="48.640504963696003" lon="-2.00863097794354">
        <ele>-0.82</ele>
        <time>2018-07-05T10:44:19Z</time>
      </trkpt>
      <trkpt lat="48.640138003975153" lon="-2.008653022348881">
        <ele>0.14</ele>
        <time>2018-07-05T10:44:24Z</time>
      </trkpt>
      <trkpt lat="48.640101961791515" lon="-2.008653022348881">
        <ele>0.62</ele>
        <time>2018-07-05T10:44:25Z</time>
      </trkpt>
      <trkpt lat="48.639989979565144" lon="-2.008843962103128">
        <ele>0.62</ele>
        <time>2018-07-05T10:44:26Z</time>
      </trkpt>
      <trkpt lat="48.639933988451958" lon="-2.008822001516819">
        <ele>1.1</ele>
        <time>2018-07-05T10:44:27Z</time>
      </trkpt>
      <trkpt lat="48.639886965975165" lon="-2.00880297459662">
        <ele>1.1</ele>
        <time>2018-07-05T10:44:28Z</time>
      </trkpt>
      <trkpt lat="48.639813037589192" lon="-2.008661990985274">
        <ele>1.1</ele>
        <time>2018-07-05T10:44:29Z</time>
      </trkpt>
      <trkpt lat="48.639747994020581" lon="-2.008680012077093">
        <ele>1.58</ele>
        <time>2018-07-05T10:44:30Z</time>
      </trkpt>
      <trkpt lat="48.639037040993571" lon="-2.008934989571571">
        <ele>3.02</ele>
        <time>2018-07-05T10:44:40Z</time>
      </trkpt>
      <trkpt lat="48.638838976621628" lon="-2.009032974019647">
        <ele>3.02</ele>
        <time>2018-07-05T10:44:45Z</time>
      </trkpt>
      <trkpt lat="48.638743003830314" lon="-2.009084019809961">
        <ele>2.54</ele>
        <time>2018-07-05T10:44:48Z</time>
      </trkpt>
      <trkpt lat="48.638589028269053" lon="-2.009150991216302">
        <ele>2.06</ele>
        <time>2018-07-05T10:44:51Z</time>
      </trkpt>
      <trkpt lat="48.638529013842344" lon="-2.009175969287753">
        <ele>2.06</ele>
        <time>2018-07-05T10:44:52Z</time>
      </trkpt>
      <trkpt lat="48.638403033837676" lon="-2.00923296622932">
        <ele>1.58</ele>
        <time>2018-07-05T10:44:54Z</time>
      </trkpt>
      <trkpt lat="48.638335978612304" lon="-2.009266996756196">
        <ele>1.58</ele>
        <time>2018-07-05T10:44:55Z</time>
      </trkpt>
      <trkpt lat="48.638260960578918" lon="-2.009304966777563">
        <ele>2.06</ele>
        <time>2018-07-05T10:44:56Z</time>
      </trkpt>
      <trkpt lat="48.638113019987941" lon="-2.009389037266374">
        <ele>2.06</ele>
        <time>2018-07-05T10:44:58Z</time>
      </trkpt>
      <trkpt lat="48.638040013611317" lon="-2.009435975924134">
        <ele>2.06</ele>
        <time>2018-07-05T10:44:59Z</time>
      </trkpt>
      <trkpt lat="48.637956026941538" lon="-2.009490039199591">
        <ele>1.58</ele>
        <time>2018-07-05T10:45:00Z</time>
      </trkpt>
      <trkpt lat="48.637805990874767" lon="-2.009522980079055">
        <ele>1.1</ele>
        <time>2018-07-05T10:45:02Z</time>
      </trkpt>
      <trkpt lat="48.637732984498143" lon="-2.009542006999254">
        <ele>0.14</ele>
        <time>2018-07-05T10:45:03Z</time>
      </trkpt>
      <trkpt lat="48.637239038944244" lon="-2.009657006710768">
        <ele>-1.3</ele>
        <time>2018-07-05T10:45:09Z</time>
      </trkpt>
      <trkpt lat="48.63714499399066" lon="-2.00961803086102">
        <ele>-1.3</ele>
        <time>2018-07-05T10:45:10Z</time>
      </trkpt>
      <trkpt lat="48.637069975957274" lon="-2.009604033082724">
        <ele>-0.82</ele>
        <time>2018-07-05T10:45:11Z</time>
      </trkpt>
      <trkpt lat="48.636902002617717" lon="-2.0095119997859">
        <ele>-0.82</ele>
        <time>2018-07-05T10:45:13Z</time>
      </trkpt>
      <trkpt lat="48.636819021776319" lon="-2.009466988965869">
        <ele>-0.34</ele>
        <time>2018-07-05T10:45:14Z</time>
      </trkpt>
      <trkpt lat="48.635702971369028" lon="-2.008773973211646">
        <ele>4.46</ele>
        <time>2018-07-05T10:45:26Z</time>
      </trkpt>
      <trkpt lat="48.634612988680601" lon="-2.008096966892481">
        <ele>13.119999999999999</ele>
        <time>2018-07-05T10:45:36Z</time>
      </trkpt>
      <trkpt lat="48.633388979360461" lon="-2.007458014413714">
        <ele>20.32</ele>
        <time>2018-07-05T10:45:47Z</time>
      </trkpt>
      <trkpt lat="48.632415002211928" lon="-2.007119972258806">
        <ele>23.210000000000001</ele>
        <time>2018-07-05T10:45:56Z</time>
      </trkpt>
      <trkpt lat="48.632104033604264" lon="-2.007058029994369">
        <ele>23.690000000000001</ele>
        <time>2018-07-05T10:45:59Z</time>
      </trkpt>
      <trkpt lat="48.630858985707164" lon="-2.006811015307903">
        <ele>27.530000000000001</ele>
        <time>2018-07-05T10:46:10Z</time>
      </trkpt>
      <trkpt lat="48.630245011299849" lon="-2.006651004776359">
        <ele>28.98</ele>
        <time>2018-07-05T10:46:18Z</time>
      </trkpt>
      <trkpt lat="48.630187008529902" lon="-2.00663398951292">
        <ele>29.460000000000001</ele>
        <time>2018-07-05T10:46:19Z</time>
      </trkpt>
      <trkpt lat="48.630123976618052" lon="-2.006614040583372">
        <ele>29.460000000000001</ele>
        <time>2018-07-05T10:46:20Z</time>
      </trkpt>
      <trkpt lat="48.629974024370313" lon="-2.006530975922942">
        <ele>30.899999999999999</ele>
        <time>2018-07-05T10:46:26Z</time>
      </trkpt>
      <trkpt lat="48.629865981638432" lon="-2.006657039746642">
        <ele>31.859999999999999</ele>
        <time>2018-07-05T10:46:27Z</time>
      </trkpt>
      <trkpt lat="48.629752993583679" lon="-2.006700038909912">
        <ele>33.299999999999997</ele>
        <time>2018-07-05T10:46:30Z</time>
      </trkpt>
      <trkpt lat="48.629680993035436" lon="-2.006665002554655">
        <ele>33.780000000000001</ele>
        <time>2018-07-05T10:46:31Z</time>
      </trkpt>
      <trkpt lat="48.629631036892533" lon="-2.006614962592721">
        <ele>34.259999999999998</ele>
        <time>2018-07-05T10:46:32Z</time>
      </trkpt>
      <trkpt lat="48.629591977223754" lon="-2.006517983973026">
        <ele>34.740000000000002</ele>
        <time>2018-07-05T10:46:33Z</time>
      </trkpt>
      <trkpt lat="48.629587031900883" lon="-2.006413964554668">
        <ele>35.229999999999997</ele>
        <time>2018-07-05T10:46:34Z</time>
      </trkpt>
      <trkpt lat="48.629568004980683" lon="-2.006291002035141">
        <ele>35.229999999999997</ele>
        <time>2018-07-05T10:46:35Z</time>
      </trkpt>
      <trkpt lat="48.629526011645794" lon="-2.006192011758685">
        <ele>35.229999999999997</ele>
        <time>2018-07-05T10:46:36Z</time>
      </trkpt>
      <trkpt lat="48.628706010058522" lon="-2.004989041015506">
        <ele>36.670000000000002</ele>
        <time>2018-07-05T10:46:48Z</time>
      </trkpt>
      <trkpt lat="48.628112990409136" lon="-2.004199968650937">
        <ele>37.630000000000003</ele>
        <time>2018-07-05T10:46:58Z</time>
      </trkpt>
      <trkpt lat="48.627979969605803" lon="-2.004016991704702">
        <ele>38.590000000000003</ele>
        <time>2018-07-05T10:47:04Z</time>
      </trkpt>
      <trkpt lat="48.627831023186445" lon="-2.003939962014556">
        <ele>39.07</ele>
        <time>2018-07-05T10:47:07Z</time>
      </trkpt>
      <trkpt lat="48.627767991274595" lon="-2.003930993378162">
        <ele>39.07</ele>
        <time>2018-07-05T10:47:08Z</time>
      </trkpt>
      <trkpt lat="48.627699008211493" lon="-2.003922024741769">
        <ele>39.549999999999997</ele>
        <time>2018-07-05T10:47:09Z</time>
      </trkpt>
      <trkpt lat="48.627613009884953" lon="-2.003910960629582">
        <ele>39.549999999999997</ele>
        <time>2018-07-05T10:47:10Z</time>
      </trkpt>
      <trkpt lat="48.627558024600148" lon="-2.003945996984839">
        <ele>40.030000000000001</ele>
        <time>2018-07-05T10:47:11Z</time>
      </trkpt>
      <trkpt lat="48.627490969374776" lon="-2.00399000197649">
        <ele>40.030000000000001</ele>
        <time>2018-07-05T10:47:12Z</time>
      </trkpt>
      <trkpt lat="48.627422992140055" lon="-2.004034006968141">
        <ele>40.030000000000001</ele>
        <time>2018-07-05T10:47:13Z</time>
      </trkpt>
      <trkpt lat="48.626899039372802" lon="-2.004274986684322">
        <ele>40.030000000000001</ele>
        <time>2018-07-05T10:47:20Z</time>
      </trkpt>
      <trkpt lat="48.626822009682655" lon="-2.004298958927393">
        <ele>40.509999999999998</ele>
        <time>2018-07-05T10:47:21Z</time>
      </trkpt>
      <trkpt lat="48.626743974164128" lon="-2.004305999726057">
        <ele>40.509999999999998</ele>
        <time>2018-07-05T10:47:22Z</time>
      </trkpt>
      <trkpt lat="48.626666022464633" lon="-2.00431396253407">
        <ele>40.990000000000002</ele>
        <time>2018-07-05T10:47:23Z</time>
      </trkpt>
      <trkpt lat="48.626582035794854" lon="-2.004323014989495">
        <ele>40.990000000000002</ele>
        <time>2018-07-05T10:47:24Z</time>
      </trkpt>
      <trkpt lat="48.625690033659339" lon="-2.004360985010862">
        <ele>38.590000000000003</ele>
        <time>2018-07-05T10:47:32Z</time>
      </trkpt>
      <trkpt lat="48.624408021569252" lon="-2.004327960312367">
        <ele>31.379999999999999</ele>
        <time>2018-07-05T10:47:43Z</time>
      </trkpt>
      <trkpt lat="48.624363010749221" lon="-2.004324020817876">
        <ele>30.420000000000002</ele>
        <time>2018-07-05T10:47:48Z</time>
      </trkpt>
      <trkpt lat="48.624124964699149" lon="-2.004309017211199">
        <ele>28.98</ele>
        <time>2018-07-05T10:47:58Z</time>
      </trkpt>
      <trkpt lat="48.623204967007041" lon="-2.004203991964459">
        <ele>28.98</ele>
        <time>2018-07-05T10:48:07Z</time>
      </trkpt>
      <trkpt lat="48.622845970094204" lon="-2.004169039428234">
        <ele>29.460000000000001</ele>
        <time>2018-07-05T10:48:10Z</time>
      </trkpt>
      <trkpt lat="48.622731976211071" lon="-2.004156969487667">
        <ele>29.460000000000001</ele>
        <time>2018-07-05T10:48:11Z</time>
      </trkpt>
      <trkpt lat="48.621905017644167" lon="-2.004064014181495">
        <ele>31.859999999999999</ele>
        <time>2018-07-05T10:48:19Z</time>
      </trkpt>
      <trkpt lat="48.621883979067206" lon="-2.004060996696353">
        <ele>31.859999999999999</ele>
        <time>2018-07-05T10:48:20Z</time>
      </trkpt>
      <trkpt lat="48.621714999899268" lon="-2.004191000014544">
        <ele>32.340000000000003</ele>
        <time>2018-07-05T10:48:21Z</time>
      </trkpt>
      <trkpt lat="48.620879994705319" lon="-2.003986984491348">
        <ele>34.259999999999998</ele>
        <time>2018-07-05T10:48:29Z</time>
      </trkpt>
      <trkpt lat="48.619478959590197" lon="-2.004109025001526">
        <ele>31.859999999999999</ele>
        <time>2018-07-05T10:48:41Z</time>
      </trkpt>
      <trkpt lat="48.618533983826637" lon="-2.004814026877284">
        <ele>31.379999999999999</ele>
        <time>2018-07-05T10:48:50Z</time>
      </trkpt>
      <trkpt lat="48.618241958320141" lon="-2.005331022664905">
        <ele>29.940000000000001</ele>
        <time>2018-07-05T10:48:54Z</time>
      </trkpt>
      <trkpt lat="48.617977006360888" lon="-2.005691025406122">
        <ele>29.940000000000001</ele>
        <time>2018-07-05T10:48:57Z</time>
      </trkpt>
      <trkpt lat="48.617882961407304" lon="-2.005807030946016">
        <ele>30.420000000000002</ele>
        <time>2018-07-05T10:48:58Z</time>
      </trkpt>
      <trkpt lat="48.617795035243034" lon="-2.005915995687246">
        <ele>30.899999999999999</ele>
        <time>2018-07-05T10:48:59Z</time>
      </trkpt>
      <trkpt lat="48.617740971967578" lon="-2.006045999005437">
        <ele>31.379999999999999</ele>
        <time>2018-07-05T10:49:00Z</time>
      </trkpt>
      <trkpt lat="48.617690009996295" lon="-2.006182037293911">
        <ele>31.859999999999999</ele>
        <time>2018-07-05T10:49:01Z</time>
      </trkpt>
      <trkpt lat="48.61763502471149" lon="-2.006328972056508">
        <ele>32.340000000000003</ele>
        <time>2018-07-05T10:49:02Z</time>
      </trkpt>
      <trkpt lat="48.617578027769923" lon="-2.006510021165013">
        <ele>32.82</ele>
        <time>2018-07-05T10:49:03Z</time>
      </trkpt>
      <trkpt lat="48.617537962272763" lon="-2.006704984232783">
        <ele>33.299999999999997</ele>
        <time>2018-07-05T10:49:04Z</time>
      </trkpt>
      <trkpt lat="48.617010992020369" lon="-2.008268041536212">
        <ele>36.670000000000002</ele>
        <time>2018-07-05T10:49:11Z</time>
      </trkpt>
      <trkpt lat="48.61690697260201" lon="-2.008494017645717">
        <ele>36.670000000000002</ele>
        <time>2018-07-05T10:49:12Z</time>
      </trkpt>
      <trkpt lat="48.616783004254103" lon="-2.008696021512151">
        <ele>37.149999999999999</ele>
        <time>2018-07-05T10:49:13Z</time>
      </trkpt>
      <trkpt lat="48.615666031837463" lon="-2.010141983628273">
        <ele>37.149999999999999</ele>
        <time>2018-07-05T10:49:22Z</time>
      </trkpt>
      <trkpt lat="48.614332973957062" lon="-2.011919030919671">
        <ele>32.82</ele>
        <time>2018-07-05T10:49:33Z</time>
      </trkpt>
      <trkpt lat="48.614235995337367" lon="-2.012110976502299">
        <ele>32.340000000000003</ele>
        <time>2018-07-05T10:49:34Z</time>
      </trkpt>
      <trkpt lat="48.61415795981884" lon="-2.012323038652539">
        <ele>31.859999999999999</ele>
        <time>2018-07-05T10:49:35Z</time>
      </trkpt>
      <trkpt lat="48.61409199424088" lon="-2.012544991448522">
        <ele>31.379999999999999</ele>
        <time>2018-07-05T10:49:36Z</time>
      </trkpt>
      <trkpt lat="48.614075984805822" lon="-2.012784965336323">
        <ele>30.899999999999999</ele>
        <time>2018-07-05T10:49:37Z</time>
      </trkpt>
      <trkpt lat="48.614060981199145" lon="-2.013025023043156">
        <ele>30.420000000000002</ele>
        <time>2018-07-05T10:49:38Z</time>
      </trkpt>
      <trkpt lat="48.614076990634203" lon="-2.013264996930957">
        <ele>29.460000000000001</ele>
        <time>2018-07-05T10:49:39Z</time>
      </trkpt>
      <trkpt lat="48.614131975919008" lon="-2.013497008010745">
        <ele>28.98</ele>
        <time>2018-07-05T10:49:40Z</time>
      </trkpt>
      <trkpt lat="48.614202970638871" lon="-2.013716027140617">
        <ele>28.02</ele>
        <time>2018-07-05T10:49:41Z</time>
      </trkpt>
      <trkpt lat="48.614287963137031" lon="-2.013923982158303">
        <ele>27.050000000000001</ele>
        <time>2018-07-05T10:49:42Z</time>
      </trkpt>
      <trkpt lat="48.614388965070248" lon="-2.014121962711215">
        <ele>25.609999999999999</ele>
        <time>2018-07-05T10:49:43Z</time>
      </trkpt>
      <trkpt lat="48.614517962560058" lon="-2.014262024313211">
        <ele>24.649999999999999</ele>
        <time>2018-07-05T10:49:44Z</time>
      </trkpt>
      <trkpt lat="48.614659029990435" lon="-2.014374006539583">
        <ele>23.210000000000001</ele>
        <time>2018-07-05T10:49:45Z</time>
      </trkpt>
      <trkpt lat="48.614810993894935" lon="-2.014450030401349">
        <ele>21.77</ele>
        <time>2018-07-05T10:49:46Z</time>
      </trkpt>
      <trkpt lat="48.614967986941338" lon="-2.014508033171296">
        <ele>20.32</ele>
        <time>2018-07-05T10:49:47Z</time>
      </trkpt>
      <trkpt lat="48.615125985816121" lon="-2.014546003192663">
        <ele>19.359999999999999</ele>
        <time>2018-07-05T10:49:48Z</time>
      </trkpt>
      <trkpt lat="48.615282978862524" lon="-2.01458296738565">
        <ele>17.920000000000002</ele>
        <time>2018-07-05T10:49:49Z</time>
      </trkpt>
      <trkpt lat="48.615762004628778" lon="-2.014697967097163">
        <ele>14.08</ele>
        <time>2018-07-05T10:49:52Z</time>
      </trkpt>
      <trkpt lat="48.615915980190039" lon="-2.014762004837394">
        <ele>13.119999999999999</ele>
        <time>2018-07-05T10:49:53Z</time>
      </trkpt>
      <trkpt lat="48.616053024306893" lon="-2.014886979013681">
        <ele>12.15</ele>
        <time>2018-07-05T10:49:54Z</time>
      </trkpt>
      <trkpt lat="48.616186967119575" lon="-2.01501002535224">
        <ele>10.710000000000001</ele>
        <time>2018-07-05T10:49:55Z</time>
      </trkpt>
      <trkpt lat="48.616320993751287" lon="-2.015132987871766">
        <ele>9.75</ele>
        <time>2018-07-05T10:49:56Z</time>
      </trkpt>
      <trkpt lat="48.616448985412717" lon="-2.015279000625014">
        <ele>9.27</ele>
        <time>2018-07-05T10:49:57Z</time>
      </trkpt>
      <trkpt lat="48.617879021912813" lon="-2.017185967415571">
        <ele>6.39</ele>
        <time>2018-07-05T10:50:09Z</time>
      </trkpt>
      <trkpt lat="48.618014976382256" lon="-2.017313037067652">
        <ele>6.87</ele>
        <time>2018-07-05T10:50:11Z</time>
      </trkpt>
      <trkpt lat="48.61869097687304" lon="-2.017971016466618">
        <ele>8.789999999999999</ele>
        <time>2018-07-05T10:50:15Z</time>
      </trkpt>
      <trkpt lat="48.618791978806257" lon="-2.018153993412852">
        <ele>8.789999999999999</ele>
        <time>2018-07-05T10:50:16Z</time>
      </trkpt>
      <trkpt lat="48.61885903403163" lon="-2.018351973965764">
        <ele>9.27</ele>
        <time>2018-07-05T10:50:17Z</time>
      </trkpt>
      <trkpt lat="48.618912007659674" lon="-2.018539980053902">
        <ele>9.75</ele>
        <time>2018-07-05T10:50:18Z</time>
      </trkpt>
      <trkpt lat="48.618946960195899" lon="-2.018736032769084">
        <ele>9.75</ele>
        <time>2018-07-05T10:50:19Z</time>
      </trkpt>
      <trkpt lat="48.618958024308085" lon="-2.018951028585434">
        <ele>10.23</ele>
        <time>2018-07-05T10:50:20Z</time>
      </trkpt>
      <trkpt lat="48.618944026529789" lon="-2.019145991653204">
        <ele>10.23</ele>
        <time>2018-07-05T10:50:21Z</time>
      </trkpt>
      <trkpt lat="48.618907984346151" lon="-2.019390994682908">
        <ele>10.23</ele>
        <time>2018-07-05T10:50:22Z</time>
      </trkpt>
      <trkpt lat="48.618449997156858" lon="-2.022203039377928">
        <ele>9.75</ele>
        <time>2018-07-05T10:50:34Z</time>
      </trkpt>
      <trkpt lat="48.617643993347883" lon="-2.026566993445158">
        <ele>9.75</ele>
        <time>2018-07-05T10:50:53Z</time>
      </trkpt>
      <trkpt lat="48.617312991991639" lon="-2.028350997716188">
        <ele>9.27</ele>
        <time>2018-07-05T10:51:03Z</time>
      </trkpt>
      <trkpt lat="48.617206960916519" lon="-2.028843015432358">
        <ele>9.27</ele>
        <time>2018-07-05T10:51:06Z</time>
      </trkpt>
      <trkpt lat="48.617148036137223" lon="-2.029005037620664">
        <ele>9.27</ele>
        <time>2018-07-05T10:51:07Z</time>
      </trkpt>
      <trkpt lat="48.617065977305174" lon="-2.029159013181925">
        <ele>9.27</ele>
        <time>2018-07-05T10:51:08Z</time>
      </trkpt>
      <trkpt lat="48.61697000451386" lon="-2.029297985136509">
        <ele>8.789999999999999</ele>
        <time>2018-07-05T10:51:09Z</time>
      </trkpt>
      <trkpt lat="48.616850981488824" lon="-2.029418013989925">
        <ele>8.789999999999999</ele>
        <time>2018-07-05T10:51:10Z</time>
      </trkpt>
      <trkpt lat="48.616717038676143" lon="-2.029515998438001">
        <ele>8.789999999999999</ele>
        <time>2018-07-05T10:51:11Z</time>
      </trkpt>
      <trkpt lat="48.616574965417385" lon="-2.029571989551187">
        <ele>8.789999999999999</ele>
        <time>2018-07-05T10:51:12Z</time>
      </trkpt>
      <trkpt lat="48.616425013169646" lon="-2.029632003977895">
        <ele>8.789999999999999</ele>
        <time>2018-07-05T10:51:13Z</time>
      </trkpt>
      <trkpt lat="48.616270031780005" lon="-2.029693024232984">
        <ele>8.789999999999999</ele>
        <time>2018-07-05T10:51:14Z</time>
      </trkpt>
      <trkpt lat="48.615945987403393" lon="-2.029821015894413">
        <ele>9.75</ele>
        <time>2018-07-05T10:51:16Z</time>
      </trkpt>
      <trkpt lat="48.615453969687223" lon="-2.030106000602245">
        <ele>11.19</ele>
        <time>2018-07-05T10:51:19Z</time>
      </trkpt>
      <trkpt lat="48.615333018824458" lon="-2.030255030840635">
        <ele>11.67</ele>
        <time>2018-07-05T10:51:20Z</time>
      </trkpt>
      <trkpt lat="48.615212989971042" lon="-2.030402971431613">
        <ele>12.15</ele>
        <time>2018-07-05T10:51:21Z</time>
      </trkpt>
      <trkpt lat="48.615115005522966" lon="-2.030602041631937">
        <ele>12.630000000000001</ele>
        <time>2018-07-05T10:51:22Z</time>
      </trkpt>
      <trkpt lat="48.615030013024807" lon="-2.030806979164481">
        <ele>13.119999999999999</ele>
        <time>2018-07-05T10:51:23Z</time>
      </trkpt>
      <trkpt lat="48.614973016083241" lon="-2.031018035486341">
        <ele>13.6</ele>
        <time>2018-07-05T10:51:24Z</time>
      </trkpt>
      <trkpt lat="48.614463983103633" lon="-2.033003037795425">
        <ele>15.039999999999999</ele>
        <time>2018-07-05T10:51:33Z</time>
      </trkpt>
      <trkpt lat="48.613841040059924" lon="-2.036437019705772">
        <ele>22.73</ele>
        <time>2018-07-05T10:51:48Z</time>
      </trkpt>
      <trkpt lat="48.613754035905004" lon="-2.038321020081639">
        <ele>32.82</ele>
        <time>2018-07-05T10:51:57Z</time>
      </trkpt>
      <trkpt lat="48.613656973466277" lon="-2.04105201177299">
        <ele>40.990000000000002</ele>
        <time>2018-07-05T10:52:09Z</time>
      </trkpt>
      <trkpt lat="48.613587990403175" lon="-2.043589968234301">
        <ele>43.880000000000003</ele>
        <time>2018-07-05T10:52:20Z</time>
      </trkpt>
      <trkpt lat="48.613495035097003" lon="-2.046493040397763">
        <ele>43.880000000000003</ele>
        <time>2018-07-05T10:52:31Z</time>
      </trkpt>
      <trkpt lat="48.613390009850264" lon="-2.049811016768217">
        <ele>40.990000000000002</ele>
        <time>2018-07-05T10:52:42Z</time>
      </trkpt>
      <trkpt lat="48.613255983218551" lon="-2.053694017231464">
        <ele>38.590000000000003</ele>
        <time>2018-07-05T10:52:55Z</time>
      </trkpt>
      <trkpt lat="48.613207032904029" lon="-2.057537036016583">
        <ele>38.590000000000003</ele>
        <time>2018-07-05T10:53:07Z</time>
      </trkpt>
      <trkpt lat="48.613237040117383" lon="-2.058176994323731">
        <ele>39.07</ele>
        <time>2018-07-05T10:53:09Z</time>
      </trkpt>
      <trkpt lat="48.613256989046931" lon="-2.058501960709691">
        <ele>39.07</ele>
        <time>2018-07-05T10:53:10Z</time>
      </trkpt>
      <trkpt lat="48.613581033423543" lon="-2.062575984746218">
        <ele>42.439999999999998</ele>
        <time>2018-07-05T10:53:23Z</time>
      </trkpt>
      <trkpt lat="48.613600982353091" lon="-2.062898017466068">
        <ele>41.950000000000003</ele>
        <time>2018-07-05T10:53:24Z</time>
      </trkpt>
      <trkpt lat="48.613578015938401" lon="-2.063209991902113">
        <ele>41.950000000000003</ele>
        <time>2018-07-05T10:53:25Z</time>
      </trkpt>
      <trkpt lat="48.613554965704679" lon="-2.063524983823299">
        <ele>41.469999999999999</ele>
        <time>2018-07-05T10:53:26Z</time>
      </trkpt>
      <trkpt lat="48.613524958491325" lon="-2.063839975744486">
        <ele>40.990000000000002</ele>
        <time>2018-07-05T10:53:27Z</time>
      </trkpt>
      <trkpt lat="48.613468967378139" lon="-2.064144993200898">
        <ele>41.469999999999999</ele>
        <time>2018-07-05T10:53:28Z</time>
      </trkpt>
      <trkpt lat="48.613386992365122" lon="-2.064442969858646">
        <ele>41.469999999999999</ele>
        <time>2018-07-05T10:53:29Z</time>
      </trkpt>
      <trkpt lat="48.613285990431905" lon="-2.064719991758466">
        <ele>41.950000000000003</ele>
        <time>2018-07-05T10:53:30Z</time>
      </trkpt>
      <trkpt lat="48.613187000155449" lon="-2.064993996173143">
        <ele>42.439999999999998</ele>
        <time>2018-07-05T10:53:31Z</time>
      </trkpt>
      <trkpt lat="48.613094966858625" lon="-2.065248973667622">
        <ele>42.439999999999998</ele>
        <time>2018-07-05T10:53:32Z</time>
      </trkpt>
      <trkpt lat="48.613002011552453" lon="-2.065489031374455">
        <ele>43.399999999999999</ele>
        <time>2018-07-05T10:53:33Z</time>
      </trkpt>
      <trkpt lat="48.612201036885381" lon="-2.066927030682564">
        <ele>45.799999999999997</ele>
        <time>2018-07-05T10:53:41Z</time>
      </trkpt>
      <trkpt lat="48.611453035846353" lon="-2.068268973380327">
        <ele>46.280000000000001</ele>
        <time>2018-07-05T10:53:49Z</time>
      </trkpt>
      <trkpt lat="48.611396038904786" lon="-2.068395959213376">
        <ele>46.280000000000001</ele>
        <time>2018-07-05T10:53:50Z</time>
      </trkpt>
      <trkpt lat="48.611378017812967" lon="-2.068536020815373">
        <ele>46.759999999999998</ele>
        <time>2018-07-05T10:53:51Z</time>
      </trkpt>
      <trkpt lat="48.611345998942852" lon="-2.068787980824709">
        <ele>47.240000000000002</ele>
        <time>2018-07-05T10:53:53Z</time>
      </trkpt>
      <trkpt lat="48.611305011436343" lon="-2.06889501772821">
        <ele>47.719999999999999</ele>
        <time>2018-07-05T10:53:54Z</time>
      </trkpt>
      <trkpt lat="48.611230999231339" lon="-2.068964000791311">
        <ele>47.719999999999999</ele>
        <time>2018-07-05T10:53:55Z</time>
      </trkpt>
      <trkpt lat="48.61114801838994" lon="-2.068988978862763">
        <ele>47.719999999999999</ele>
        <time>2018-07-05T10:53:56Z</time>
      </trkpt>
      <trkpt lat="48.611068977043033" lon="-2.069013034924865">
        <ele>47.719999999999999</ele>
        <time>2018-07-05T10:53:57Z</time>
      </trkpt>
      <trkpt lat="48.610987002030015" lon="-2.069144966080785">
        <ele>47.719999999999999</ele>
        <time>2018-07-05T10:53:58Z</time>
      </trkpt>
      <trkpt lat="48.610909972339869" lon="-2.069268012419343">
        <ele>47.240000000000002</ele>
        <time>2018-07-05T10:53:59Z</time>
      </trkpt>
      <trkpt lat="48.610821040347219" lon="-2.069410001859069">
        <ele>47.240000000000002</ele>
        <time>2018-07-05T10:54:00Z</time>
      </trkpt>
      <trkpt lat="48.609895007684827" lon="-2.070832997560501">
        <ele>49.159999999999997</ele>
        <time>2018-07-05T10:54:08Z</time>
      </trkpt>
      <trkpt lat="48.608578965067863" lon="-2.072541983798146">
        <ele>49.159999999999997</ele>
        <time>2018-07-05T10:54:17Z</time>
      </trkpt>
      <trkpt lat="48.606835026293993" lon="-2.0748670399189">
        <ele>49.649999999999999</ele>
        <time>2018-07-05T10:54:28Z</time>
      </trkpt>
      <trkpt lat="48.605111036449671" lon="-2.07725303247571">
        <ele>52.049999999999997</ele>
        <time>2018-07-05T10:54:39Z</time>
      </trkpt>
      <trkpt lat="48.60377999022603" lon="-2.079319003969431">
        <ele>53.009999999999998</ele>
        <time>2018-07-05T10:54:48Z</time>
      </trkpt>
      <trkpt lat="48.602410973981023" lon="-2.08176501095295">
        <ele>54.93</ele>
        <time>2018-07-05T10:54:58Z</time>
      </trkpt>
      <trkpt lat="48.60122200101614" lon="-2.084331968799233">
        <ele>54.450000000000003</ele>
        <time>2018-07-05T10:55:08Z</time>
      </trkpt>
      <trkpt lat="48.599770003929734" lon="-2.087425980716944">
        <ele>54.93</ele>
        <time>2018-07-05T10:55:21Z</time>
      </trkpt>
      <trkpt lat="48.599209003150463" lon="-2.088630041107535">
        <ele>55.409999999999997</ele>
        <time>2018-07-05T10:55:26Z</time>
      </trkpt>
      <trkpt lat="48.598297974094748" lon="-2.09055301733315">
        <ele>55.890000000000001</ele>
        <time>2018-07-05T10:55:34Z</time>
      </trkpt>
      <trkpt lat="48.597041023895144" lon="-2.093221982941032">
        <ele>56.859999999999999</ele>
        <time>2018-07-05T10:55:45Z</time>
      </trkpt>
      <trkpt lat="48.59591600485146" lon="-2.095643011853099">
        <ele>56.859999999999999</ele>
        <time>2018-07-05T10:55:55Z</time>
      </trkpt>
      <trkpt lat="48.594933981075883" lon="-2.097721975296736">
        <ele>55.409999999999997</ele>
        <time>2018-07-05T10:56:05Z</time>
      </trkpt>
      <trkpt lat="48.593979030847549" lon="-2.099949968978763">
        <ele>53.490000000000002</ele>
        <time>2018-07-05T10:56:16Z</time>
      </trkpt>
      <trkpt lat="48.593709971755743" lon="-2.101250002160668">
        <ele>50.609999999999999</ele>
        <time>2018-07-05T10:56:22Z</time>
      </trkpt>
      <trkpt lat="48.593808962032199" lon="-2.103669019415975">
        <ele>45.32</ele>
        <time>2018-07-05T10:56:33Z</time>
      </trkpt>
      <trkpt lat="48.593773003667593" lon="-2.104364968836308">
        <ele>43.880000000000003</ele>
        <time>2018-07-05T10:56:36Z</time>
      </trkpt>
      <trkpt lat="48.593734027817845" lon="-2.104599997401238">
        <ele>43.399999999999999</ele>
        <time>2018-07-05T10:56:37Z</time>
      </trkpt>
      <trkpt lat="48.593694968149066" lon="-2.104833014309406">
        <ele>42.920000000000002</ele>
        <time>2018-07-05T10:56:38Z</time>
      </trkpt>
      <trkpt lat="48.593296995386481" lon="-2.106950031593442">
        <ele>36.189999999999998</ele>
        <time>2018-07-05T10:56:48Z</time>
      </trkpt>
      <trkpt lat="48.59314201399684" lon="-2.10748496465385">
        <ele>35.710000000000001</ele>
        <time>2018-07-05T10:56:51Z</time>
      </trkpt>
      <trkpt lat="48.593071019276977" lon="-2.107648998498917">
        <ele>35.229999999999997</ele>
        <time>2018-07-05T10:56:52Z</time>
      </trkpt>
      <trkpt lat="48.592481017112732" lon="-2.109224963933229">
        <ele>35.229999999999997</ele>
        <time>2018-07-05T10:57:01Z</time>
      </trkpt>
      <trkpt lat="48.591796969994903" lon="-2.110596997663379">
        <ele>34.740000000000002</ele>
        <time>2018-07-05T10:57:08Z</time>
      </trkpt>
      <trkpt lat="48.591023990884423" lon="-2.112378990277648">
        <ele>32.82</ele>
        <time>2018-07-05T10:57:16Z</time>
      </trkpt>
      <trkpt lat="48.589944988489151" lon="-2.115206960588694">
        <ele>30.899999999999999</ele>
        <time>2018-07-05T10:57:28Z</time>
      </trkpt>
      <trkpt lat="48.588731037452817" lon="-2.117889001965523">
        <ele>25.609999999999999</ele>
        <time>2018-07-05T10:57:40Z</time>
      </trkpt>
      <trkpt lat="48.588624000549316" lon="-2.118071978911758">
        <ele>25.129999999999999</ele>
        <time>2018-07-05T10:57:41Z</time>
      </trkpt>
      <trkpt lat="48.588507995009422" lon="-2.118230983614922">
        <ele>24.170000000000002</ele>
        <time>2018-07-05T10:57:42Z</time>
      </trkpt>
      <trkpt lat="48.588377991691232" lon="-2.118374984711409">
        <ele>23.210000000000001</ele>
        <time>2018-07-05T10:57:43Z</time>
      </trkpt>
      <trkpt lat="48.58824597671628" lon="-2.118522003293037">
        <ele>22.25</ele>
        <time>2018-07-05T10:57:44Z</time>
      </trkpt>
      <trkpt lat="48.588102981448174" lon="-2.118651000782847">
        <ele>21.289999999999999</ele>
        <time>2018-07-05T10:57:45Z</time>
      </trkpt>
      <trkpt lat="48.587946994230151" lon="-2.118758037686348">
        <ele>20.32</ele>
        <time>2018-07-05T10:57:46Z</time>
      </trkpt>
      <trkpt lat="48.587780026718974" lon="-2.118835989385843">
        <ele>18.879999999999999</ele>
        <time>2018-07-05T10:57:47Z</time>
      </trkpt>
      <trkpt lat="48.586073974147439" lon="-2.119683986529708">
        <ele>11.67</ele>
        <time>2018-07-05T10:57:57Z</time>
      </trkpt>
      <trkpt lat="48.584753992035985" lon="-2.120373984798789">
        <ele>16.960000000000001</ele>
        <time>2018-07-05T10:58:06Z</time>
      </trkpt>
      <trkpt lat="48.583617992699146" lon="-2.121539991348982">
        <ele>23.210000000000001</ele>
        <time>2018-07-05T10:58:15Z</time>
      </trkpt>
      <trkpt lat="48.583510033786297" lon="-2.121716011315584">
        <ele>23.690000000000001</ele>
        <time>2018-07-05T10:58:16Z</time>
      </trkpt>
      <trkpt lat="48.582378979772329" lon="-2.123953979462385">
        <ele>31.859999999999999</ele>
        <time>2018-07-05T10:58:27Z</time>
      </trkpt>
      <trkpt lat="48.582088965922594" lon="-2.124581029638648">
        <ele>34.259999999999998</ele>
        <time>2018-07-05T10:58:30Z</time>
      </trkpt>
      <trkpt lat="48.582023000344634" lon="-2.124821003526449">
        <ele>35.229999999999997</ele>
        <time>2018-07-05T10:58:31Z</time>
      </trkpt>
      <trkpt lat="48.581950999796391" lon="-2.125082015991211">
        <ele>36.189999999999998</ele>
        <time>2018-07-05T10:58:32Z</time>
      </trkpt>
      <trkpt lat="48.581432998180389" lon="-2.127837985754013">
        <ele>37.630000000000003</ele>
        <time>2018-07-05T10:58:43Z</time>
      </trkpt>
      <trkpt lat="48.581010969355702" lon="-2.130290027707815">
        <ele>29.460000000000001</ele>
        <time>2018-07-05T10:58:54Z</time>
      </trkpt>
      <trkpt lat="48.580594975501299" lon="-2.132565965875983">
        <ele>19.84</ele>
        <time>2018-07-05T10:59:08Z</time>
      </trkpt>
      <trkpt lat="48.580456003546715" lon="-2.134247040376067">
        <ele>16</ele>
        <time>2018-07-05T10:59:18Z</time>
      </trkpt>
      <trkpt lat="48.580471007153392" lon="-2.135085985064507">
        <ele>17.920000000000002</ele>
        <time>2018-07-05T10:59:26Z</time>
      </trkpt>
      <trkpt lat="48.580471007153392" lon="-2.135167960077524">
        <ele>17.920000000000002</ele>
        <time>2018-07-05T10:59:27Z</time>
      </trkpt>
      <trkpt lat="48.580471007153392" lon="-2.13524297811091">
        <ele>17.920000000000002</ele>
        <time>2018-07-05T10:59:28Z</time>
      </trkpt>
      <trkpt lat="48.580471007153392" lon="-2.135305004194379">
        <ele>18.399999999999999</ele>
        <time>2018-07-05T10:59:29Z</time>
      </trkpt>
      <trkpt lat="48.580548958852887" lon="-2.135397037491202">
        <ele>18.399999999999999</ele>
        <time>2018-07-05T10:59:30Z</time>
      </trkpt>
      <trkpt lat="48.580582989379764" lon="-2.135402988642454">
        <ele>18.399999999999999</ele>
        <time>2018-07-05T10:59:31Z</time>
      </trkpt>
      <trkpt lat="48.580616014078259" lon="-2.135410029441118">
        <ele>18.879999999999999</ele>
        <time>2018-07-05T10:59:32Z</time>
      </trkpt>
      <trkpt lat="48.580649038776755" lon="-2.13541598059237">
        <ele>19.359999999999999</ele>
        <time>2018-07-05T10:59:33Z</time>
      </trkpt>
      <trkpt lat="48.580691032111645" lon="-2.135424027219415">
        <ele>19.359999999999999</ele>
        <time>2018-07-05T10:59:34Z</time>
      </trkpt>
      <trkpt lat="48.58074601739645" lon="-2.135435007512569">
        <ele>19.84</ele>
        <time>2018-07-05T10:59:35Z</time>
      </trkpt>
      <trkpt lat="48.580807037651539" lon="-2.135446993634105">
        <ele>19.84</ele>
        <time>2018-07-05T10:59:36Z</time>
      </trkpt>
      <trkpt lat="48.581290002912283" lon="-2.135567022487521">
        <ele>20.809999999999999</ele>
        <time>2018-07-05T10:59:44Z</time>
      </trkpt>
      <trkpt lat="48.581450013443828" lon="-2.135600969195366">
        <ele>21.289999999999999</ele>
        <time>2018-07-05T10:59:47Z</time>
      </trkpt>
      <trkpt lat="48.581489995121956" lon="-2.135602980852127">
        <ele>21.289999999999999</ele>
        <time>2018-07-05T10:59:48Z</time>
      </trkpt>
      <trkpt lat="48.581523019820452" lon="-2.135604992508888">
        <ele>21.289999999999999</ele>
        <time>2018-07-05T10:59:49Z</time>
      </trkpt>
      <trkpt lat="48.581550009548664" lon="-2.135607004165649">
        <ele>21.289999999999999</ele>
        <time>2018-07-05T10:59:50Z</time>
      </trkpt>
      <trkpt lat="48.581574987620115" lon="-2.13560800999403">
        <ele>21.289999999999999</ele>
        <time>2018-07-05T10:59:51Z</time>
      </trkpt>
      <trkpt lat="48.581600971519947" lon="-2.135610021650791">
        <ele>20.809999999999999</ele>
        <time>2018-07-05T10:59:52Z</time>
      </trkpt>
      <trkpt lat="48.581624021753669" lon="-2.135611027479172">
        <ele>20.809999999999999</ele>
        <time>2018-07-05T10:59:53Z</time>
      </trkpt>
      <trkpt lat="48.581645982339978" lon="-2.135612033307552">
        <ele>20.809999999999999</ele>
        <time>2018-07-05T10:59:54Z</time>
      </trkpt>
      <trkpt lat="48.5816690325737" lon="-2.135613961145282">
        <ele>20.809999999999999</ele>
        <time>2018-07-05T10:59:55Z</time>
      </trkpt>
      <trkpt lat="48.581737009808421" lon="-2.135617984458804">
        <ele>20.32</ele>
        <time>2018-07-05T10:59:56Z</time>
      </trkpt>
      <trkpt lat="48.58171496540308" lon="-2.135616978630424">
        <ele>20.809999999999999</ele>
        <time>2018-07-05T11:00:00Z</time>
      </trkpt>
      <trkpt lat="48.581737009808421" lon="-2.135617984458804">
        <ele>20.809999999999999</ele>
        <time>2018-07-05T11:00:01Z</time>
      </trkpt>
      <trkpt lat="48.581785038113594" lon="-2.135642040520906">
        <ele>20.809999999999999</ele>
        <time>2018-07-05T11:00:02Z</time>
      </trkpt>
      <trkpt lat="48.58184102922678" lon="-2.135670036077499">
        <ele>20.809999999999999</ele>
        <time>2018-07-05T11:00:03Z</time>
      </trkpt>
      <trkpt lat="48.581903977319598" lon="-2.135700965300202">
        <ele>21.289999999999999</ele>
        <time>2018-07-05T11:00:04Z</time>
      </trkpt>
      <trkpt lat="48.581962985917926" lon="-2.135730972513557">
        <ele>21.289999999999999</ele>
        <time>2018-07-05T11:00:05Z</time>
      </trkpt>
      <trkpt lat="48.582019982859492" lon="-2.135758968070149">
        <ele>21.289999999999999</ele>
        <time>2018-07-05T11:00:06Z</time>
      </trkpt>
      <trkpt lat="48.582087038084865" lon="-2.1358029730618">
        <ele>21.289999999999999</ele>
        <time>2018-07-05T11:00:07Z</time>
      </trkpt>
      <trkpt lat="48.582159960642457" lon="-2.135941023007035">
        <ele>21.77</ele>
        <time>2018-07-05T11:00:09Z</time>
      </trkpt>
      <trkpt lat="48.582273032516241" lon="-2.136154007166624">
        <ele>21.289999999999999</ele>
        <time>2018-07-05T11:00:11Z</time>
      </trkpt>
      <trkpt lat="48.582547958940268" lon="-2.136264983564615">
        <ele>21.77</ele>
        <time>2018-07-05T11:00:16Z</time>
      </trkpt>
      <trkpt lat="48.582586012780666" lon="-2.13631896302104">
        <ele>21.289999999999999</ele>
        <time>2018-07-05T11:00:17Z</time>
      </trkpt>
      <trkpt lat="48.582625994458795" lon="-2.136376965790987">
        <ele>21.289999999999999</ele>
        <time>2018-07-05T11:00:18Z</time>
      </trkpt>
      <trkpt lat="48.582666981965303" lon="-2.136434968560934">
        <ele>21.77</ele>
        <time>2018-07-05T11:00:19Z</time>
      </trkpt>
      <trkpt lat="48.582716016098857" lon="-2.136479979380965">
        <ele>21.77</ele>
        <time>2018-07-05T11:00:20Z</time>
      </trkpt>
      <trkpt lat="48.582764966413379" lon="-2.136515015736222">
        <ele>22.25</ele>
        <time>2018-07-05T11:00:21Z</time>
      </trkpt>
      <trkpt lat="48.58281098306179" lon="-2.136548040434718">
        <ele>22.25</ele>
        <time>2018-07-05T11:00:22Z</time>
      </trkpt>
      <trkpt lat="48.58283101581037" lon="-2.136562038213015">
        <ele>22.25</ele>
        <time>2018-07-05T11:00:23Z</time>
      </trkpt>
      <trkpt lat="48.582856999710202" lon="-2.136652981862426">
        <ele>22.73</ele>
        <time>2018-07-05T11:00:24Z</time>
      </trkpt>
      <trkpt lat="48.58287401497364" lon="-2.136711990460753">
        <ele>22.73</ele>
        <time>2018-07-05T11:00:25Z</time>
      </trkpt>
      <trkpt lat="48.582859011366963" lon="-2.136779967695475">
        <ele>22.73</ele>
        <time>2018-07-05T11:00:26Z</time>
      </trkpt>
      <trkpt lat="48.582838978618383" lon="-2.136868983507156">
        <ele>23.210000000000001</ele>
        <time>2018-07-05T11:00:27Z</time>
      </trkpt>
      <trkpt lat="48.582818023860455" lon="-2.136963028460741">
        <ele>23.210000000000001</ele>
        <time>2018-07-05T11:00:28Z</time>
      </trkpt>
      <trkpt lat="48.582796985283494" lon="-2.137056989595294">
        <ele>23.210000000000001</ele>
        <time>2018-07-05T11:00:29Z</time>
      </trkpt>
      <trkpt lat="48.582777036353946" lon="-2.137149022892118">
        <ele>23.210000000000001</ele>
        <time>2018-07-05T11:00:30Z</time>
      </trkpt>
      <trkpt lat="48.58270101249218" lon="-2.137554036453366">
        <ele>22.25</ele>
        <time>2018-07-05T11:00:35Z</time>
      </trkpt>
      <trkpt lat="48.582699000835419" lon="-2.137623019516468">
        <ele>22.25</ele>
        <time>2018-07-05T11:00:36Z</time>
      </trkpt>
      <trkpt lat="48.582696989178658" lon="-2.137695020064712">
        <ele>22.25</ele>
        <time>2018-07-05T11:00:37Z</time>
      </trkpt>
      <trkpt lat="48.582694977521896" lon="-2.137775989249349">
        <ele>21.77</ele>
        <time>2018-07-05T11:00:38Z</time>
      </trkpt>
      <trkpt lat="48.582692965865135" lon="-2.137857964262366">
        <ele>21.77</ele>
        <time>2018-07-05T11:00:39Z</time>
      </trkpt>
      <trkpt lat="48.582691038027406" lon="-2.137941028922796">
        <ele>21.77</ele>
        <time>2018-07-05T11:00:40Z</time>
      </trkpt>
      <trkpt lat="48.582685003057122" lon="-2.138198018074036">
        <ele>22.25</ele>
        <time>2018-07-05T11:00:43Z</time>
      </trkpt>
      <trkpt lat="48.582589030265808" lon="-2.138839988037944">
        <ele>23.690000000000001</ele>
        <time>2018-07-05T11:00:50Z</time>
      </trkpt>
      <trkpt lat="48.582574026659131" lon="-2.138921963050962">
        <ele>24.170000000000002</ele>
        <time>2018-07-05T11:00:51Z</time>
      </trkpt>
      <trkpt lat="48.582504037767649" lon="-2.138995975255966">
        <ele>24.170000000000002</ele>
        <time>2018-07-05T11:00:52Z</time>
      </trkpt>
      <trkpt lat="48.582438994199038" lon="-2.139064958319068">
        <ele>24.170000000000002</ele>
        <time>2018-07-05T11:00:53Z</time>
      </trkpt>
      <trkpt lat="48.582373028621078" lon="-2.139136036857963">
        <ele>24.170000000000002</ele>
        <time>2018-07-05T11:00:54Z</time>
      </trkpt>
      <trkpt lat="48.582305973395705" lon="-2.139206025749445">
        <ele>24.649999999999999</ele>
        <time>2018-07-05T11:00:55Z</time>
      </trkpt>
      <trkpt lat="48.582244031131268" lon="-2.139271991327405">
        <ele>24.649999999999999</ele>
        <time>2018-07-05T11:00:56Z</time>
      </trkpt>
      <trkpt lat="48.581895008683205" lon="-2.139642974361777">
        <ele>25.609999999999999</ele>
        <time>2018-07-05T11:01:02Z</time>
      </trkpt>
      <trkpt lat="48.581665009260178" lon="-2.139843972399831">
        <ele>26.57</ele>
        <time>2018-07-05T11:01:06Z</time>
      </trkpt>
      <trkpt lat="48.581616980955005" lon="-2.13988596573472">
        <ele>27.050000000000001</ele>
        <time>2018-07-05T11:01:07Z</time>
      </trkpt>
      <trkpt lat="48.581556966528296" lon="-2.139999037608504">
        <ele>27.050000000000001</ele>
        <time>2018-07-05T11:01:08Z</time>
      </trkpt>
      <trkpt lat="48.581536011770368" lon="-2.140190983191133">
        <ele>27.050000000000001</ele>
        <time>2018-07-05T11:01:10Z</time>
      </trkpt>
      <trkpt lat="48.581422017887235" lon="-2.140905037522316">
        <ele>26.09</ele>
        <time>2018-07-05T11:01:18Z</time>
      </trkpt>
      <trkpt lat="48.581417994573712" lon="-2.140924986451864">
        <ele>25.609999999999999</ele>
        <time>2018-07-05T11:01:19Z</time>
      </trkpt>
      <trkpt lat="48.581417994573712" lon="-2.140924986451864">
        <ele>25.129999999999999</ele>
        <time>2018-07-05T11:01:25Z</time>
      </trkpt>
      <trkpt lat="48.581376001238823" lon="-2.141134031116962">
        <ele>24.649999999999999</ele>
        <time>2018-07-05T11:01:32Z</time>
      </trkpt>
      <trkpt lat="48.581280028447509" lon="-2.141758985817432">
        <ele>24.649999999999999</ele>
        <time>2018-07-05T11:01:38Z</time>
      </trkpt>
      <trkpt lat="48.581020021811128" lon="-2.143111992627382">
        <ele>24.170000000000002</ele>
        <time>2018-07-05T11:01:49Z</time>
      </trkpt>
      <trkpt lat="48.580871997401118" lon="-2.144124023616314">
        <ele>23.210000000000001</ele>
        <time>2018-07-05T11:01:59Z</time>
      </trkpt>
      <trkpt lat="48.580853976309299" lon="-2.144251009449363">
        <ele>21.77</ele>
        <time>2018-07-05T11:02:08Z</time>
      </trkpt>
      <trkpt lat="48.58083201572299" lon="-2.144400961697102">
        <ele>23.210000000000001</ele>
        <time>2018-07-05T11:02:19Z</time>
      </trkpt>
      <trkpt lat="48.580815000459552" lon="-2.144515961408615">
        <ele>22.73</ele>
        <time>2018-07-05T11:02:38Z</time>
      </trkpt>
      <trkpt lat="48.58078901655972" lon="-2.144527025520802">
        <ele>22.73</ele>
        <time>2018-07-05T11:02:39Z</time>
      </trkpt>
      <trkpt lat="48.580737970769405" lon="-2.144538005813956">
        <ele>22.73</ele>
        <time>2018-07-05T11:02:40Z</time>
      </trkpt>
      <trkpt lat="48.580672005191445" lon="-2.144550997763872">
        <ele>22.25</ele>
        <time>2018-07-05T11:02:41Z</time>
      </trkpt>
      <trkpt lat="48.580602016299963" lon="-2.144564995542169">
        <ele>21.77</ele>
        <time>2018-07-05T11:02:42Z</time>
      </trkpt>
      <trkpt lat="48.580482993274927" lon="-2.144588967785239">
        <ele>21.289999999999999</ele>
        <time>2018-07-05T11:02:44Z</time>
      </trkpt>
      <trkpt lat="48.58038199134171" lon="-2.144609000533819">
        <ele>20.809999999999999</ele>
        <time>2018-07-05T11:02:46Z</time>
      </trkpt>
      <trkpt lat="48.580334968864918" lon="-2.144617969170213">
        <ele>20.809999999999999</ele>
        <time>2018-07-05T11:02:47Z</time>
      </trkpt>
      <trkpt lat="48.580192979425192" lon="-2.144668009132147">
        <ele>20.32</ele>
        <time>2018-07-05T11:02:50Z</time>
      </trkpt>
      <trkpt lat="48.580152997747064" lon="-2.144687036052346">
        <ele>20.32</ele>
        <time>2018-07-05T11:02:51Z</time>
      </trkpt>
      <trkpt lat="48.580114021897316" lon="-2.144703967496753">
        <ele>20.32</ele>
        <time>2018-07-05T11:02:52Z</time>
      </trkpt>
      <trkpt lat="48.580070016905665" lon="-2.144724000245333">
        <ele>20.32</ele>
        <time>2018-07-05T11:02:53Z</time>
      </trkpt>
      <trkpt lat="48.580041015520692" lon="-2.144908988848329">
        <ele>20.32</ele>
        <time>2018-07-05T11:02:54Z</time>
      </trkpt>
      <trkpt lat="48.580016037449241" lon="-2.144947964698076">
        <ele>20.32</ele>
        <time>2018-07-05T11:02:55Z</time>
      </trkpt>
      <trkpt lat="48.579968009144068" lon="-2.14501803740859">
        <ele>20.32</ele>
        <time>2018-07-05T11:02:56Z</time>
      </trkpt>
      <trkpt lat="48.579876981675625" lon="-2.145037986338139">
        <ele>20.809999999999999</ele>
        <time>2018-07-05T11:02:57Z</time>
      </trkpt>
      <trkpt lat="48.579827025532722" lon="-2.145037986338139">
        <ele>21.289999999999999</ele>
        <time>2018-07-05T11:02:58Z</time>
      </trkpt>
      <trkpt lat="48.579827025532722" lon="-2.145037986338139">
        <ele>21.77</ele>
        <time>2018-07-05T11:02:59Z</time>
      </trkpt>
      <trkpt lat="48.579662991687655" lon="-2.14497696608305">
        <ele>21.77</ele>
        <time>2018-07-05T11:03:00Z</time>
      </trkpt>
      <trkpt lat="48.579594008624554" lon="-2.145037986338139">
        <ele>22.73</ele>
        <time>2018-07-05T11:03:01Z</time>
      </trkpt>
      <trkpt lat="48.579518990591168" lon="-2.145116021856666">
        <ele>23.210000000000001</ele>
        <time>2018-07-05T11:03:02Z</time>
      </trkpt>
      <trkpt lat="48.579441038891673" lon="-2.145204031839967">
        <ele>23.690000000000001</ele>
        <time>2018-07-05T11:03:03Z</time>
      </trkpt>
      <trkpt lat="48.579360991716385" lon="-2.145293969660997">
        <ele>23.690000000000001</ele>
        <time>2018-07-05T11:03:04Z</time>
      </trkpt>
      <trkpt lat="48.578538978472352" lon="-2.146344976499677">
        <ele>25.609999999999999</ele>
        <time>2018-07-05T11:03:13Z</time>
      </trkpt>
      <trkpt lat="48.577413037419319" lon="-2.147967964410782">
        <ele>22.73</ele>
        <time>2018-07-05T11:03:26Z</time>
      </trkpt>
      <trkpt lat="48.576902998611331" lon="-2.148669026792049">
        <ele>20.809999999999999</ele>
        <time>2018-07-05T11:03:34Z</time>
      </trkpt>
      <trkpt lat="48.57664299197495" lon="-2.149280989542604">
        <ele>19.84</ele>
        <time>2018-07-05T11:03:40Z</time>
      </trkpt>
      <trkpt lat="48.576608039438725" lon="-2.149416022002697">
        <ele>19.84</ele>
        <time>2018-07-05T11:03:41Z</time>
      </trkpt>
      <trkpt lat="48.576323976740241" lon="-2.15075796470046">
        <ele>17.920000000000002</ele>
        <time>2018-07-05T11:03:49Z</time>
      </trkpt>
      <trkpt lat="48.576134964823723" lon="-2.152879005298019">
        <ele>15.039999999999999</ele>
        <time>2018-07-05T11:04:01Z</time>
      </trkpt>
      <trkpt lat="48.576012002304196" lon="-2.155356025323272">
        <ele>10.710000000000001</ele>
        <time>2018-07-05T11:04:15Z</time>
      </trkpt>
      <trkpt lat="48.576196990907192" lon="-2.157354019582272">
        <ele>8.789999999999999</ele>
        <time>2018-07-05T11:04:26Z</time>
      </trkpt>
      <trkpt lat="48.576464960351586" lon="-2.159783011302352">
        <ele>7.83</ele>
        <time>2018-07-05T11:04:36Z</time>
      </trkpt>
      <trkpt lat="48.57666696421802" lon="-2.162636965513229">
        <ele>6.87</ele>
        <time>2018-07-05T11:04:46Z</time>
      </trkpt>
      <trkpt lat="48.576941974461079" lon="-2.167551023885608">
        <ele>6.87</ele>
        <time>2018-07-05T11:05:02Z</time>
      </trkpt>
      <trkpt lat="48.576637040823698" lon="-2.170257959514856">
        <ele>8.789999999999999</ele>
        <time>2018-07-05T11:05:11Z</time>
      </trkpt>
      <trkpt lat="48.576151980087161" lon="-2.173732006922364">
        <ele>20.32</ele>
        <time>2018-07-05T11:05:23Z</time>
      </trkpt>
      <trkpt lat="48.57604200951755" lon="-2.174282027408481">
        <ele>20.809999999999999</ele>
        <time>2018-07-05T11:05:26Z</time>
      </trkpt>
      <trkpt lat="48.575988030061126" lon="-2.174440026283264">
        <ele>20.809999999999999</ele>
        <time>2018-07-05T11:05:27Z</time>
      </trkpt>
      <trkpt lat="48.575933966785669" lon="-2.174597019329667">
        <ele>20.32</ele>
        <time>2018-07-05T11:05:28Z</time>
      </trkpt>
      <trkpt lat="48.575878981500864" lon="-2.174757029861212">
        <ele>20.32</ele>
        <time>2018-07-05T11:05:29Z</time>
      </trkpt>
      <trkpt lat="48.575787032023072" lon="-2.174879992380738">
        <ele>20.32</ele>
        <time>2018-07-05T11:05:30Z</time>
      </trkpt>
      <trkpt lat="48.575699022039771" lon="-2.174998009577394">
        <ele>20.32</ele>
        <time>2018-07-05T11:05:31Z</time>
      </trkpt>
      <trkpt lat="48.575614029541612" lon="-2.175113009288907">
        <ele>20.32</ele>
        <time>2018-07-05T11:05:32Z</time>
      </trkpt>
      <trkpt lat="48.575533982366323" lon="-2.175220968201757">
        <ele>20.32</ele>
        <time>2018-07-05T11:05:33Z</time>
      </trkpt>
      <trkpt lat="48.575460975989699" lon="-2.175318030640483">
        <ele>20.32</ele>
        <time>2018-07-05T11:05:34Z</time>
      </trkpt>
      <trkpt lat="48.575395010411739" lon="-2.175406962633133">
        <ele>20.32</ele>
        <time>2018-07-05T11:05:35Z</time>
      </trkpt>
      <trkpt lat="48.575333990156651" lon="-2.175490027293563">
        <ele>20.32</ele>
        <time>2018-07-05T11:05:36Z</time>
      </trkpt>
      <trkpt lat="48.575286967679858" lon="-2.175592035055161">
        <ele>20.32</ele>
        <time>2018-07-05T11:05:37Z</time>
      </trkpt>
      <trkpt lat="48.575320998206735" lon="-2.175743998959661">
        <ele>20.809999999999999</ele>
        <time>2018-07-05T11:05:38Z</time>
      </trkpt>
      <trkpt lat="48.575300965458155" lon="-2.175840977579355">
        <ele>20.809999999999999</ele>
        <time>2018-07-05T11:05:39Z</time>
      </trkpt>
      <trkpt lat="48.575257966294885" lon="-2.175982967019081">
        <ele>21.289999999999999</ele>
        <time>2018-07-05T11:05:40Z</time>
      </trkpt>
      <trkpt lat="48.575158976018429" lon="-2.176065025851131">
        <ele>21.289999999999999</ele>
        <time>2018-07-05T11:05:41Z</time>
      </trkpt>
      <trkpt lat="48.575106002390385" lon="-2.176065025851131">
        <ele>21.289999999999999</ele>
        <time>2018-07-05T11:05:42Z</time>
      </trkpt>
      <trkpt lat="48.575012963265181" lon="-2.175971986725926">
        <ele>21.289999999999999</ele>
        <time>2018-07-05T11:05:43Z</time>
      </trkpt>
      <trkpt lat="48.574899975210428" lon="-2.175942985340953">
        <ele>21.77</ele>
        <time>2018-07-05T11:05:44Z</time>
      </trkpt>
      <trkpt lat="48.574826968833804" lon="-2.175980033352971">
        <ele>22.25</ele>
        <time>2018-07-05T11:05:45Z</time>
      </trkpt>
      <trkpt lat="48.574724961072206" lon="-2.176048010587692">
        <ele>22.25</ele>
        <time>2018-07-05T11:05:46Z</time>
      </trkpt>
      <trkpt lat="48.574627982452512" lon="-2.176114981994033">
        <ele>22.73</ele>
        <time>2018-07-05T11:05:47Z</time>
      </trkpt>
      <trkpt lat="48.573747966438532" lon="-2.176764998584986">
        <ele>24.649999999999999</ele>
        <time>2018-07-05T11:05:56Z</time>
      </trkpt>
      <trkpt lat="48.572714980691671" lon="-2.177614001557231">
        <ele>26.57</ele>
        <time>2018-07-05T11:06:06Z</time>
      </trkpt>
      <trkpt lat="48.571942001581192" lon="-2.178655033931136">
        <ele>28.5</ele>
        <time>2018-07-05T11:06:16Z</time>
      </trkpt>
      <trkpt lat="48.570902980864048" lon="-2.180367959663272">
        <ele>33.780000000000001</ele>
        <time>2018-07-05T11:06:29Z</time>
      </trkpt>
      <trkpt lat="48.570342985913157" lon="-2.181301033124328">
        <ele>36.670000000000002</ele>
        <time>2018-07-05T11:06:39Z</time>
      </trkpt>
      <trkpt lat="48.570136036723852" lon="-2.181642008945346">
        <ele>40.030000000000001</ele>
        <time>2018-07-05T11:06:48Z</time>
      </trkpt>
      <trkpt lat="48.570050038397312" lon="-2.181781986728311">
        <ele>40.509999999999998</ele>
        <time>2018-07-05T11:06:58Z</time>
      </trkpt>
      <trkpt lat="48.569769999012351" lon="-2.182270986959338">
        <ele>42.920000000000002</ele>
        <time>2018-07-05T11:07:06Z</time>
      </trkpt>
      <trkpt lat="48.569202963262796" lon="-2.183214034885168">
        <ele>45.799999999999997</ele>
        <time>2018-07-05T11:07:17Z</time>
      </trkpt>
      <trkpt lat="48.568456973880529" lon="-2.184449024498463">
        <ele>50.609999999999999</ele>
        <time>2018-07-05T11:07:27Z</time>
      </trkpt>
      <trkpt lat="48.567402027547359" lon="-2.186177037656307">
        <ele>53.969999999999999</ele>
        <time>2018-07-05T11:07:38Z</time>
      </trkpt>
      <trkpt lat="48.566541038453579" lon="-2.187576983124018">
        <ele>53.009999999999998</ele>
        <time>2018-07-05T11:07:48Z</time>
      </trkpt>
      <trkpt lat="48.56566303409636" lon="-2.189001990482211">
        <ele>47.719999999999999</ele>
        <time>2018-07-05T11:07:57Z</time>
      </trkpt>
      <trkpt lat="48.565451977774501" lon="-2.189254034310579">
        <ele>45.799999999999997</ele>
        <time>2018-07-05T11:08:02Z</time>
      </trkpt>
      <trkpt lat="48.565411996096373" lon="-2.18929803930223">
        <ele>45.32</ele>
        <time>2018-07-05T11:08:03Z</time>
      </trkpt>
      <trkpt lat="48.56542699970305" lon="-2.189446985721588">
        <ele>44.840000000000003</ele>
        <time>2018-07-05T11:08:04Z</time>
      </trkpt>
      <trkpt lat="48.56527897529304" lon="-2.189915031194687">
        <ele>43.880000000000003</ele>
        <time>2018-07-05T11:08:08Z</time>
      </trkpt>
      <trkpt lat="48.565281992778182" lon="-2.190061965957284">
        <ele>43.880000000000003</ele>
        <time>2018-07-05T11:08:09Z</time>
      </trkpt>
      <trkpt lat="48.565290961414576" lon="-2.190231028944254">
        <ele>44.359999999999999</ele>
        <time>2018-07-05T11:08:10Z</time>
      </trkpt>
      <trkpt lat="48.565416019409895" lon="-2.191950995475054">
        <ele>44.359999999999999</ele>
        <time>2018-07-05T11:08:18Z</time>
      </trkpt>
      <trkpt lat="48.565702009946108" lon="-2.194763962179422">
        <ele>46.759999999999998</ele>
        <time>2018-07-05T11:08:29Z</time>
      </trkpt>
      <trkpt lat="48.565977020189166" lon="-2.197367968037725">
        <ele>46.280000000000001</ele>
        <time>2018-07-05T11:08:38Z</time>
      </trkpt>
      <trkpt lat="48.566298969089985" lon="-2.200485030189157">
        <ele>43.880000000000003</ele>
        <time>2018-07-05T11:08:49Z</time>
      </trkpt>
      <trkpt lat="48.5667609795928" lon="-2.204353027045727">
        <ele>34.259999999999998</ele>
        <time>2018-07-05T11:09:04Z</time>
      </trkpt>
      <trkpt lat="48.56729700230062" lon="-2.206765003502369">
        <ele>25.609999999999999</ele>
        <time>2018-07-05T11:09:14Z</time>
      </trkpt>
      <trkpt lat="48.568313978612423" lon="-2.209009006619453">
        <ele>18.399999999999999</ele>
        <time>2018-07-05T11:09:25Z</time>
      </trkpt>
      <trkpt lat="48.568482035771012" lon="-2.209376972168684">
        <ele>16.960000000000001</ele>
        <time>2018-07-05T11:09:27Z</time>
      </trkpt>
      <trkpt lat="48.568956032395363" lon="-2.210410963743925">
        <ele>16</ele>
        <time>2018-07-05T11:09:33Z</time>
      </trkpt>
      <trkpt lat="48.569061979651451" lon="-2.210555970668793">
        <ele>16</ele>
        <time>2018-07-05T11:09:34Z</time>
      </trkpt>
      <trkpt lat="48.569170022383332" lon="-2.210691003128886">
        <ele>15.52</ele>
        <time>2018-07-05T11:09:35Z</time>
      </trkpt>
      <trkpt lat="48.56927303597331" lon="-2.210821006447077">
        <ele>15.52</ele>
        <time>2018-07-05T11:09:36Z</time>
      </trkpt>
      <trkpt lat="48.569385018199682" lon="-2.210929971188307">
        <ele>15.039999999999999</ele>
        <time>2018-07-05T11:09:37Z</time>
      </trkpt>
      <trkpt lat="48.569495994597673" lon="-2.211024016141892">
        <ele>15.039999999999999</ele>
        <time>2018-07-05T11:09:38Z</time>
      </trkpt>
      <trkpt lat="48.569849040359259" lon="-2.211319981142879">
        <ele>15.039999999999999</ele>
        <time>2018-07-05T11:09:41Z</time>
      </trkpt>
      <trkpt lat="48.569944007322192" lon="-2.211446966975927">
        <ele>14.56</ele>
        <time>2018-07-05T11:09:42Z</time>
      </trkpt>
      <trkpt lat="48.570441976189613" lon="-2.21207401715219">
        <ele>13.119999999999999</ele>
        <time>2018-07-05T11:09:47Z</time>
      </trkpt>
      <trkpt lat="48.570560999214649" lon="-2.212152974680066">
        <ele>12.630000000000001</ele>
        <time>2018-07-05T11:09:48Z</time>
      </trkpt>
      <trkpt lat="48.570677004754543" lon="-2.21222497522831">
        <ele>12.15</ele>
        <time>2018-07-05T11:09:49Z</time>
      </trkpt>
      <trkpt lat="48.571525001898408" lon="-2.212452962994576">
        <ele>8.789999999999999</ele>
        <time>2018-07-05T11:09:57Z</time>
      </trkpt>
      <trkpt lat="48.571803029626608" lon="-2.212576009333134">
        <ele>8.310000000000001</ele>
        <time>2018-07-05T11:10:05Z</time>
      </trkpt>
      <trkpt lat="48.572249030694366" lon="-2.212812965735793">
        <ele>8.310000000000001</ele>
        <time>2018-07-05T11:10:13Z</time>
      </trkpt>
      <trkpt lat="48.57320498675108" lon="-2.213507993146777">
        <ele>8.310000000000001</ele>
        <time>2018-07-05T11:10:24Z</time>
      </trkpt>
      <trkpt lat="48.574526980519295" lon="-2.21441600471735">
        <ele>10.710000000000001</ele>
        <time>2018-07-05T11:10:38Z</time>
      </trkpt>
      <trkpt lat="48.574633011594415" lon="-2.214428996667266">
        <ele>11.19</ele>
        <time>2018-07-05T11:10:39Z</time>
      </trkpt>
      <trkpt lat="48.574743987992406" lon="-2.214442994445562">
        <ele>11.19</ele>
        <time>2018-07-05T11:10:40Z</time>
      </trkpt>
      <trkpt lat="48.5748599935323" lon="-2.214444000273943">
        <ele>11.67</ele>
        <time>2018-07-05T11:10:41Z</time>
      </trkpt>
      <trkpt lat="48.574978010728955" lon="-2.214408963918686">
        <ele>12.15</ele>
        <time>2018-07-05T11:10:42Z</time>
      </trkpt>
      <trkpt lat="48.575101979076862" lon="-2.21437300555408">
        <ele>12.15</ele>
        <time>2018-07-05T11:10:43Z</time>
      </trkpt>
      <trkpt lat="48.575231982395053" lon="-2.214325983077288">
        <ele>12.630000000000001</ele>
        <time>2018-07-05T11:10:44Z</time>
      </trkpt>
      <trkpt lat="48.576641986146569" lon="-2.213704967871308">
        <ele>21.289999999999999</ele>
        <time>2018-07-05T11:10:56Z</time>
      </trkpt>
      <trkpt lat="48.576870979741216" lon="-2.213673032820225">
        <ele>22.73</ele>
        <time>2018-07-05T11:10:58Z</time>
      </trkpt>
      <trkpt lat="48.576988996937871" lon="-2.213666997849941">
        <ele>23.210000000000001</ele>
        <time>2018-07-05T11:10:59Z</time>
      </trkpt>
      <trkpt lat="48.577123023569584" lon="-2.213659035041928">
        <ele>23.690000000000001</ele>
        <time>2018-07-05T11:11:00Z</time>
      </trkpt>
      <trkpt lat="48.577226037159562" lon="-2.213699016720057">
        <ele>24.170000000000002</ele>
        <time>2018-07-05T11:11:01Z</time>
      </trkpt>
      <trkpt lat="48.577342964708805" lon="-2.213745033368468">
        <ele>24.649999999999999</ele>
        <time>2018-07-05T11:11:02Z</time>
      </trkpt>
      <trkpt lat="48.577458970248699" lon="-2.213790966197848">
        <ele>25.129999999999999</ele>
        <time>2018-07-05T11:11:03Z</time>
      </trkpt>
      <trkpt lat="48.577574975788593" lon="-2.21383597701788">
        <ele>26.09</ele>
        <time>2018-07-05T11:11:04Z</time>
      </trkpt>
      <trkpt lat="48.577680001035333" lon="-2.213910995051265">
        <ele>27.050000000000001</ele>
        <time>2018-07-05T11:11:05Z</time>
      </trkpt>
      <trkpt lat="48.577778991311789" lon="-2.214002022519708">
        <ele>27.530000000000001</ele>
        <time>2018-07-05T11:11:06Z</time>
      </trkpt>
      <trkpt lat="48.577958028763533" lon="-2.214207965880632">
        <ele>28.5</ele>
        <time>2018-07-05T11:11:08Z</time>
      </trkpt>
      <trkpt lat="48.578037992119789" lon="-2.214334029704332">
        <ele>29.460000000000001</ele>
        <time>2018-07-05T11:11:09Z</time>
      </trkpt>
      <trkpt lat="48.578118961304426" lon="-2.214461015537381">
        <ele>29.940000000000001</ele>
        <time>2018-07-05T11:11:10Z</time>
      </trkpt>
      <trkpt lat="48.578195990994573" lon="-2.214581966400147">
        <ele>30.420000000000002</ele>
        <time>2018-07-05T11:11:11Z</time>
      </trkpt>
      <trkpt lat="48.57823102734983" lon="-2.214749017730355">
        <ele>31.379999999999999</ele>
        <time>2018-07-05T11:11:12Z</time>
      </trkpt>
      <trkpt lat="48.578263968229294" lon="-2.214910034090281">
        <ele>32.340000000000003</ele>
        <time>2018-07-05T11:11:13Z</time>
      </trkpt>
      <trkpt lat="48.578303027898073" lon="-2.215097034350038">
        <ele>33.299999999999997</ele>
        <time>2018-07-05T11:11:14Z</time>
      </trkpt>
      <trkpt lat="48.578307973220944" lon="-2.215248998254538">
        <ele>34.259999999999998</ele>
        <time>2018-07-05T11:11:15Z</time>
      </trkpt>
      <trkpt lat="48.578324988484383" lon="-2.216576021164656">
        <ele>38.590000000000003</ele>
        <time>2018-07-05T11:11:23Z</time>
      </trkpt>
      <trkpt lat="48.578324988484383" lon="-2.216879026964307">
        <ele>39.549999999999997</ele>
        <time>2018-07-05T11:11:25Z</time>
      </trkpt>
      <trkpt lat="48.578324988484383" lon="-2.217011963948607">
        <ele>40.030000000000001</ele>
        <time>2018-07-05T11:11:26Z</time>
      </trkpt>
      <trkpt lat="48.578303027898073" lon="-2.217778991907835">
        <ele>43.399999999999999</ele>
        <time>2018-07-05T11:11:33Z</time>
      </trkpt>
      <trkpt lat="48.578303027898073" lon="-2.218881966546178">
        <ele>47.719999999999999</ele>
        <time>2018-07-05T11:11:43Z</time>
      </trkpt>
      <trkpt lat="48.5784069634974" lon="-2.219610018655658">
        <ele>49.159999999999997</ele>
        <time>2018-07-05T11:11:48Z</time>
      </trkpt>
      <trkpt lat="48.578738970682025" lon="-2.221015999093652">
        <ele>53.490000000000002</ele>
        <time>2018-07-05T11:11:58Z</time>
      </trkpt>
      <trkpt lat="48.578836033120751" lon="-2.221252033486962">
        <ele>54.450000000000003</ele>
        <time>2018-07-05T11:12:00Z</time>
      </trkpt>
      <trkpt lat="48.578894035890698" lon="-2.221351023763418">
        <ele>54.93</ele>
        <time>2018-07-05T11:12:01Z</time>
      </trkpt>
      <trkpt lat="48.5789630189538" lon="-2.221424030140042">
        <ele>54.93</ele>
        <time>2018-07-05T11:12:02Z</time>
      </trkpt>
      <trkpt lat="48.579041976481676" lon="-2.221464011818171">
        <ele>55.409999999999997</ele>
        <time>2018-07-05T11:12:03Z</time>
      </trkpt>
      <trkpt lat="48.579120012000203" lon="-2.221502987667918">
        <ele>55.409999999999997</ele>
        <time>2018-07-05T11:12:04Z</time>
      </trkpt>
      <trkpt lat="48.579277005046606" lon="-2.221579011529684">
        <ele>54.93</ele>
        <time>2018-07-05T11:12:06Z</time>
      </trkpt>
      <trkpt lat="48.579580010846257" lon="-2.221699962392449">
        <ele>53.490000000000002</ele>
        <time>2018-07-05T11:12:10Z</time>
      </trkpt>
      <trkpt lat="48.579647988080978" lon="-2.221733992919326">
        <ele>53.490000000000002</ele>
        <time>2018-07-05T11:12:11Z</time>
      </trkpt>
      <trkpt lat="48.579698028042912" lon="-2.221798030659556">
        <ele>53.009999999999998</ele>
        <time>2018-07-05T11:12:12Z</time>
      </trkpt>
      <trkpt lat="48.579741027206182" lon="-2.221903977915645">
        <ele>53.009999999999998</ele>
        <time>2018-07-05T11:12:13Z</time>
      </trkpt>
      <trkpt lat="48.579748990014195" lon="-2.222044039517641">
        <ele>52.530000000000001</ele>
        <time>2018-07-05T11:12:14Z</time>
      </trkpt>
      <trkpt lat="48.57975703664124" lon="-2.222189968451858">
        <ele>52.049999999999997</ele>
        <time>2018-07-05T11:12:15Z</time>
      </trkpt>
      <trkpt lat="48.579764999449253" lon="-2.222342016175389">
        <ele>52.049999999999997</ele>
        <time>2018-07-05T11:12:16Z</time>
      </trkpt>
      <trkpt lat="48.579804981127381" lon="-2.22313703969121">
        <ele>53.969999999999999</ele>
        <time>2018-07-05T11:12:23Z</time>
      </trkpt>
      <trkpt lat="48.579804981127381" lon="-2.223530989140272">
        <ele>53.969999999999999</ele>
        <time>2018-07-05T11:12:27Z</time>
      </trkpt>
      <trkpt lat="48.579839011654258" lon="-2.225046018138528">
        <ele>56.859999999999999</ele>
        <time>2018-07-05T11:12:39Z</time>
      </trkpt>
      <trkpt lat="48.579965997487307" lon="-2.226979974657297">
        <ele>53.490000000000002</ele>
        <time>2018-07-05T11:12:51Z</time>
      </trkpt>
      <trkpt lat="48.580278977751732" lon="-2.228540014475584">
        <ele>53.490000000000002</ele>
        <time>2018-07-05T11:13:01Z</time>
      </trkpt>
      <trkpt lat="48.580868979915977" lon="-2.230327036231756">
        <ele>55.890000000000001</ele>
        <time>2018-07-05T11:13:12Z</time>
      </trkpt>
      <trkpt lat="48.581331996247172" lon="-2.23201003856957">
        <ele>56.369999999999997</ele>
        <time>2018-07-05T11:13:23Z</time>
      </trkpt>
      <trkpt lat="48.58149996958673" lon="-2.232413040474057">
        <ele>56.859999999999999</ele>
        <time>2018-07-05T11:13:26Z</time>
      </trkpt>
      <trkpt lat="48.58156300149858" lon="-2.232533991336823">
        <ele>56.369999999999997</ele>
        <time>2018-07-05T11:13:27Z</time>
      </trkpt>
      <trkpt lat="48.581625027582049" lon="-2.232652008533478">
        <ele>56.369999999999997</ele>
        <time>2018-07-05T11:13:28Z</time>
      </trkpt>
      <trkpt lat="48.581750001758337" lon="-2.23289298824966">
        <ele>55.890000000000001</ele>
        <time>2018-07-05T11:13:30Z</time>
      </trkpt>
      <trkpt lat="48.581818984821439" lon="-2.233008993789554">
        <ele>56.369999999999997</ele>
        <time>2018-07-05T11:13:31Z</time>
      </trkpt>
      <trkpt lat="48.581963991746306" lon="-2.233227007091045">
        <ele>56.859999999999999</ele>
        <time>2018-07-05T11:13:33Z</time>
      </trkpt>
      <trkpt lat="48.582036998122931" lon="-2.233335971832275">
        <ele>57.340000000000003</ele>
        <time>2018-07-05T11:13:34Z</time>
      </trkpt>
      <trkpt lat="48.582172030583024" lon="-2.23353797569871">
        <ele>57.82</ele>
        <time>2018-07-05T11:13:36Z</time>
      </trkpt>
      <trkpt lat="48.582430025562644" lon="-2.23392597399652">
        <ele>58.299999999999997</ele>
        <time>2018-07-05T11:13:40Z</time>
      </trkpt>
      <trkpt lat="48.582485010847449" lon="-2.234022030606866">
        <ele>58.780000000000001</ele>
        <time>2018-07-05T11:13:41Z</time>
      </trkpt>
      <trkpt lat="48.582574026659131" lon="-2.234215987846255">
        <ele>59.740000000000002</ele>
        <time>2018-07-05T11:13:44Z</time>
      </trkpt>
      <trkpt lat="48.582763960584998" lon="-2.234492003917694">
        <ele>60.219999999999999</ele>
        <time>2018-07-05T11:13:46Z</time>
      </trkpt>
      <trkpt lat="48.582847025245428" lon="-2.234576996415854">
        <ele>60.700000000000003</ele>
        <time>2018-07-05T11:13:47Z</time>
      </trkpt>
      <trkpt lat="48.582929000258446" lon="-2.234670035541058">
        <ele>60.700000000000003</ele>
        <time>2018-07-05T11:13:48Z</time>
      </trkpt>
      <trkpt lat="48.583353040739894" lon="-2.235193988308311">
        <ele>61.18</ele>
        <time>2018-07-05T11:13:53Z</time>
      </trkpt>
      <trkpt lat="48.58364699408412" lon="-2.235604031011462">
        <ele>61.659999999999997</ele>
        <time>2018-07-05T11:13:57Z</time>
      </trkpt>
      <trkpt lat="48.583726035431027" lon="-2.235715007409453">
        <ele>61.659999999999997</ele>
        <time>2018-07-05T11:13:58Z</time>
      </trkpt>
      <trkpt lat="48.584144040942192" lon="-2.23628799431026">
        <ele>61.659999999999997</ele>
        <time>2018-07-05T11:14:03Z</time>
      </trkpt>
      <trkpt lat="48.584229033440351" lon="-2.236402994021773">
        <ele>62.140000000000001</ele>
        <time>2018-07-05T11:14:04Z</time>
      </trkpt>
      <trkpt lat="48.585091028362513" lon="-2.237609988078475">
        <ele>61.659999999999997</ele>
        <time>2018-07-05T11:14:13Z</time>
      </trkpt>
      <trkpt lat="48.586004991084337" lon="-2.23925200290978">
        <ele>55.409999999999997</ele>
        <time>2018-07-05T11:14:21Z</time>
      </trkpt>
      <trkpt lat="48.58704200014472" lon="-2.241545962169766">
        <ele>47.240000000000002</ele>
        <time>2018-07-05T11:14:30Z</time>
      </trkpt>
      <trkpt lat="48.587558995932341" lon="-2.242474006488919">
        <ele>46.280000000000001</ele>
        <time>2018-07-05T11:14:34Z</time>
      </trkpt>
      <trkpt lat="48.58912599273026" lon="-2.244347026571631">
        <ele>54.450000000000003</ele>
        <time>2018-07-05T11:14:44Z</time>
      </trkpt>
      <trkpt lat="48.591032037511468" lon="-2.246495978906751">
        <ele>66.469999999999999</ele>
        <time>2018-07-05T11:14:56Z</time>
      </trkpt>
      <trkpt lat="48.592021018266678" lon="-2.247629966586828">
        <ele>71.760000000000005</ele>
        <time>2018-07-05T11:15:05Z</time>
      </trkpt>
      <trkpt lat="48.592826016247272" lon="-2.248974004760385">
        <ele>74.159999999999997</ele>
        <time>2018-07-05T11:15:13Z</time>
      </trkpt>
      <trkpt lat="48.592929029837251" lon="-2.249195035547018">
        <ele>74.640000000000001</ele>
        <time>2018-07-05T11:15:14Z</time>
      </trkpt>
      <trkpt lat="48.593473015353084" lon="-2.251037964597344">
        <ele>76.560000000000002</ele>
        <time>2018-07-05T11:15:21Z</time>
      </trkpt>
      <trkpt lat="48.593756994232535" lon="-2.253782032057643">
        <ele>76.560000000000002</ele>
        <time>2018-07-05T11:15:30Z</time>
      </trkpt>
      <trkpt lat="48.593817008659244" lon="-2.257496975362301">
        <ele>74.159999999999997</ele>
        <time>2018-07-05T11:15:42Z</time>
      </trkpt>
      <trkpt lat="48.593978025019169" lon="-2.259910963475704">
        <ele>72.719999999999999</ele>
        <time>2018-07-05T11:15:51Z</time>
      </trkpt>
      <trkpt lat="48.594161001965404" lon="-2.2626500017941">
        <ele>72.239999999999995</ele>
        <time>2018-07-05T11:16:04Z</time>
      </trkpt>
      <trkpt lat="48.5943269636482" lon="-2.264914959669113">
        <ele>69.829999999999998</ele>
        <time>2018-07-05T11:16:14Z</time>
      </trkpt>
      <trkpt lat="48.594672968611121" lon="-2.267846027389169">
        <ele>64.069999999999993</ele>
        <time>2018-07-05T11:16:25Z</time>
      </trkpt>
      <trkpt lat="48.595063984394073" lon="-2.270486997440457">
        <ele>60.219999999999999</ele>
        <time>2018-07-05T11:16:35Z</time>
      </trkpt>
      <trkpt lat="48.595115030184388" lon="-2.270779022946954">
        <ele>60.219999999999999</ele>
        <time>2018-07-05T11:16:36Z</time>
      </trkpt>
      <trkpt lat="48.595116036012769" lon="-2.271086974069476">
        <ele>60.219999999999999</ele>
        <time>2018-07-05T11:16:37Z</time>
      </trkpt>
      <trkpt lat="48.595103966072202" lon="-2.271388974040747">
        <ele>60.219999999999999</ele>
        <time>2018-07-05T11:16:38Z</time>
      </trkpt>
      <trkpt lat="48.595117041841149" lon="-2.272901991382241">
        <ele>62.140000000000001</ele>
        <time>2018-07-05T11:16:43Z</time>
      </trkpt>
      <trkpt lat="48.595172027125955" lon="-2.273197034373879">
        <ele>62.619999999999997</ele>
        <time>2018-07-05T11:16:44Z</time>
      </trkpt>
      <trkpt lat="48.595648035407066" lon="-2.275369958952069">
        <ele>62.140000000000001</ele>
        <time>2018-07-05T11:16:52Z</time>
      </trkpt>
      <trkpt lat="48.596155978739262" lon="-2.277377005666494">
        <ele>63.100000000000001</ele>
        <time>2018-07-05T11:16:59Z</time>
      </trkpt>
      <trkpt lat="48.59662402421236" lon="-2.28037403896451">
        <ele>63.579999999999998</ele>
        <time>2018-07-05T11:17:09Z</time>
      </trkpt>
      <trkpt lat="48.596742041409016" lon="-2.280623987317085">
        <ele>63.100000000000001</ele>
        <time>2018-07-05T11:17:10Z</time>
      </trkpt>
      <trkpt lat="48.597061978653073" lon="-2.281404007226229">
        <ele>62.140000000000001</ele>
        <time>2018-07-05T11:17:13Z</time>
      </trkpt>
      <trkpt lat="48.597112018615007" lon="-2.281694021075964">
        <ele>61.659999999999997</ele>
        <time>2018-07-05T11:17:14Z</time>
      </trkpt>
      <trkpt lat="48.597283009439707" lon="-2.283464027568698">
        <ele>62.140000000000001</ele>
        <time>2018-07-05T11:17:20Z</time>
      </trkpt>
      <trkpt lat="48.597344029694796" lon="-2.283713975921273">
        <ele>62.140000000000001</ele>
        <time>2018-07-05T11:17:21Z</time>
      </trkpt>
      <trkpt lat="48.59744000248611" lon="-2.283912040293217">
        <ele>62.140000000000001</ele>
        <time>2018-07-05T11:17:22Z</time>
      </trkpt>
      <trkpt lat="48.597620967775583" lon="-2.284315964207053">
        <ele>62.140000000000001</ele>
        <time>2018-07-05T11:17:24Z</time>
      </trkpt>
      <trkpt lat="48.597692968323827" lon="-2.284530960023403">
        <ele>62.140000000000001</ele>
        <time>2018-07-05T11:17:25Z</time>
      </trkpt>
      <trkpt lat="48.597743008285761" lon="-2.284752996638417">
        <ele>62.140000000000001</ele>
        <time>2018-07-05T11:17:26Z</time>
      </trkpt>
      <trkpt lat="48.597765974700451" lon="-2.284980984404683">
        <ele>62.140000000000001</ele>
        <time>2018-07-05T11:17:27Z</time>
      </trkpt>
      <trkpt lat="48.597765974700451" lon="-2.285204026848078">
        <ele>62.140000000000001</ele>
        <time>2018-07-05T11:17:28Z</time>
      </trkpt>
      <trkpt lat="48.597765974700451" lon="-2.285417011007667">
        <ele>62.140000000000001</ele>
        <time>2018-07-05T11:17:29Z</time>
      </trkpt>
      <trkpt lat="48.597765974700451" lon="-2.285650027915835">
        <ele>62.140000000000001</ele>
        <time>2018-07-05T11:17:30Z</time>
      </trkpt>
      <trkpt lat="48.597735967487097" lon="-2.285807020962238">
        <ele>62.140000000000001</ele>
        <time>2018-07-05T11:17:31Z</time>
      </trkpt>
      <trkpt lat="48.59742097556591" lon="-2.286934973672032">
        <ele>64.069999999999993</ele>
        <time>2018-07-05T11:17:39Z</time>
      </trkpt>
      <trkpt lat="48.597145965322852" lon="-2.287857988849282">
        <ele>65.030000000000001</ele>
        <time>2018-07-05T11:17:47Z</time>
      </trkpt>
      <trkpt lat="48.597078993916512" lon="-2.288370961323381">
        <ele>64.549999999999997</ele>
        <time>2018-07-05T11:17:53Z</time>
      </trkpt>
      <trkpt lat="48.597078993916512" lon="-2.288443967700005">
        <ele>64.549999999999997</ele>
        <time>2018-07-05T11:17:54Z</time>
      </trkpt>
      <trkpt lat="48.597078993916512" lon="-2.288793995976448">
        <ele>64.549999999999997</ele>
        <time>2018-07-05T11:17:59Z</time>
      </trkpt>
      <trkpt lat="48.597078993916512" lon="-2.288868008181453">
        <ele>64.549999999999997</ele>
        <time>2018-07-05T11:18:00Z</time>
      </trkpt>
      <trkpt lat="48.597079999744892" lon="-2.28892701677978">
        <ele>64.549999999999997</ele>
        <time>2018-07-05T11:18:01Z</time>
      </trkpt>
      <trkpt lat="48.597086034715176" lon="-2.289158022031188">
        <ele>64.069999999999993</ele>
        <time>2018-07-05T11:18:05Z</time>
      </trkpt>
      <trkpt lat="48.597087962552905" lon="-2.289212001487613">
        <ele>64.549999999999997</ele>
        <time>2018-07-05T11:18:06Z</time>
      </trkpt>
      <trkpt lat="48.597100032493472" lon="-2.289683986455202">
        <ele>63.579999999999998</ele>
        <time>2018-07-05T11:18:12Z</time>
      </trkpt>
      <trkpt lat="48.596885036677122" lon="-2.290805988013744">
        <ele>66.469999999999999</ele>
        <time>2018-07-05T11:18:23Z</time>
      </trkpt>
      <trkpt lat="48.596874978393316" lon="-2.290890980511904">
        <ele>66.950000000000003</ele>
        <time>2018-07-05T11:18:24Z</time>
      </trkpt>
      <trkpt lat="48.596865003928542" lon="-2.290974967181683">
        <ele>66.950000000000003</ele>
        <time>2018-07-05T11:18:25Z</time>
      </trkpt>
      <trkpt lat="48.596856035292149" lon="-2.291057026013732">
        <ele>66.950000000000003</ele>
        <time>2018-07-05T11:18:26Z</time>
      </trkpt>
      <trkpt lat="48.596847988665104" lon="-2.291130032390356">
        <ele>66.950000000000003</ele>
        <time>2018-07-05T11:18:27Z</time>
      </trkpt>
      <trkpt lat="48.596841031685472" lon="-2.291188035160303">
        <ele>67.430000000000007</ele>
        <time>2018-07-05T11:18:28Z</time>
      </trkpt>
      <trkpt lat="48.596934992820024" lon="-2.291329018771648">
        <ele>67.430000000000007</ele>
        <time>2018-07-05T11:18:29Z</time>
      </trkpt>
      <trkpt lat="48.596983021125197" lon="-2.291317032650113">
        <ele>67.430000000000007</ele>
        <time>2018-07-05T11:18:30Z</time>
      </trkpt>
      <trkpt lat="48.5970329772681" lon="-2.291304962709546">
        <ele>67.430000000000007</ele>
        <time>2018-07-05T11:18:31Z</time>
      </trkpt>
      <trkpt lat="48.597078993916512" lon="-2.291292976588011">
        <ele>67.430000000000007</ele>
        <time>2018-07-05T11:18:32Z</time>
      </trkpt>
      <trkpt lat="48.597142025828362" lon="-2.291324995458126">
        <ele>67.430000000000007</ele>
        <time>2018-07-05T11:18:33Z</time>
      </trkpt>
      <trkpt lat="48.597190976142883" lon="-2.291348967701197">
        <ele>67.430000000000007</ele>
        <time>2018-07-05T11:18:34Z</time>
      </trkpt>
      <trkpt lat="48.597253002226353" lon="-2.291413005441427">
        <ele>67.430000000000007</ele>
        <time>2018-07-05T11:18:35Z</time>
      </trkpt>
      <trkpt lat="48.597259959205985" lon="-2.291505038738251">
        <ele>67.430000000000007</ele>
        <time>2018-07-05T11:18:36Z</time>
      </trkpt>
      <trkpt lat="48.597267000004649" lon="-2.291595982387662">
        <ele>67.909999999999997</ele>
        <time>2018-07-05T11:18:37Z</time>
      </trkpt>
      <trkpt lat="48.597274962812662" lon="-2.29169799014926">
        <ele>67.909999999999997</ele>
        <time>2018-07-05T11:18:38Z</time>
      </trkpt>
      <trkpt lat="48.597284015268087" lon="-2.291808966547251">
        <ele>67.909999999999997</ele>
        <time>2018-07-05T11:18:39Z</time>
      </trkpt>
      <trkpt lat="48.597350986674428" lon="-2.292737010866404">
        <ele>66.950000000000003</ele>
        <time>2018-07-05T11:18:47Z</time>
      </trkpt>
      <trkpt lat="48.597357021644711" lon="-2.292828960344195">
        <ele>66.469999999999999</ele>
        <time>2018-07-05T11:18:48Z</time>
      </trkpt>
      <trkpt lat="48.597358027473092" lon="-2.292838012799621">
        <ele>65.989999999999995</ele>
        <time>2018-07-05T11:18:49Z</time>
      </trkpt>
      <trkpt lat="48.597389040514827" lon="-2.293118974193931">
        <ele>65.989999999999995</ele>
        <time>2018-07-05T11:18:50Z</time>
      </trkpt>
      <trkpt lat="48.597448971122503" lon="-2.293146969750524">
        <ele>65.989999999999995</ele>
        <time>2018-07-05T11:18:51Z</time>
      </trkpt>
      <trkpt lat="48.597519965842366" lon="-2.293179994449019">
        <ele>65.510000000000005</ele>
        <time>2018-07-05T11:18:52Z</time>
      </trkpt>
      <trkpt lat="48.597615016624331" lon="-2.29322399944067">
        <ele>65.030000000000001</ele>
        <time>2018-07-05T11:18:53Z</time>
      </trkpt>
      <trkpt lat="48.59776102937758" lon="-2.293360037729144">
        <ele>64.549999999999997</ele>
        <time>2018-07-05T11:18:55Z</time>
      </trkpt>
      <trkpt lat="48.598585976287723" lon="-2.294034026563168">
        <ele>59.740000000000002</ele>
        <time>2018-07-05T11:19:03Z</time>
      </trkpt>
      <trkpt lat="48.59868798404932" lon="-2.294095968827605">
        <ele>58.780000000000001</ele>
        <time>2018-07-05T11:19:04Z</time>
      </trkpt>
      <trkpt lat="48.598784962669015" lon="-2.294152965769172">
        <ele>58.299999999999997</ele>
        <time>2018-07-05T11:19:05Z</time>
      </trkpt>
      <trkpt lat="48.599043963477015" lon="-2.294307025149465">
        <ele>56.369999999999997</ele>
        <time>2018-07-05T11:19:08Z</time>
      </trkpt>
      <trkpt lat="48.599124010652304" lon="-2.294353963807225">
        <ele>55.890000000000001</ele>
        <time>2018-07-05T11:19:09Z</time>
      </trkpt>
      <trkpt lat="48.600035039708018" lon="-2.294979002326727">
        <ele>51.57</ele>
        <time>2018-07-05T11:19:18Z</time>
      </trkpt>
      <trkpt lat="48.600160013884306" lon="-2.295086961239576">
        <ele>51.090000000000003</ele>
        <time>2018-07-05T11:19:19Z</time>
      </trkpt>
      <trkpt lat="48.600290017202497" lon="-2.295198021456599">
        <ele>50.130000000000003</ele>
        <time>2018-07-05T11:19:20Z</time>
      </trkpt>
      <trkpt lat="48.60040501691401" lon="-2.29535199701786">
        <ele>49.159999999999997</ele>
        <time>2018-07-05T11:19:21Z</time>
      </trkpt>
      <trkpt lat="48.60051398165524" lon="-2.295537991449237">
        <ele>48.68</ele>
        <time>2018-07-05T11:19:22Z</time>
      </trkpt>
      <trkpt lat="48.600626969709992" lon="-2.295730020850897">
        <ele>48.200000000000003</ele>
        <time>2018-07-05T11:19:23Z</time>
      </trkpt>
      <trkpt lat="48.600743981078267" lon="-2.295928001403809">
        <ele>47.719999999999999</ele>
        <time>2018-07-05T11:19:24Z</time>
      </trkpt>
      <trkpt lat="48.601626008749008" lon="-2.297368012368679">
        <ele>42.920000000000002</ele>
        <time>2018-07-05T11:19:31Z</time>
      </trkpt>
      <trkpt lat="48.601765986531973" lon="-2.297543026506901">
        <ele>41.950000000000003</ele>
        <time>2018-07-05T11:19:32Z</time>
      </trkpt>
      <trkpt lat="48.603222006931901" lon="-2.29876896366477">
        <ele>33.299999999999997</ele>
        <time>2018-07-05T11:19:41Z</time>
      </trkpt>
      <trkpt lat="48.60336902551353" lon="-2.298911036923528">
        <ele>31.859999999999999</ele>
        <time>2018-07-05T11:19:42Z</time>
      </trkpt>
      <trkpt lat="48.603803040459752" lon="-2.299334993585944">
        <ele>28.02</ele>
        <time>2018-07-05T11:19:45Z</time>
      </trkpt>
      <trkpt lat="48.603946035727859" lon="-2.299474971368909">
        <ele>27.050000000000001</ele>
        <time>2018-07-05T11:19:46Z</time>
      </trkpt>
      <trkpt lat="48.604226997122169" lon="-2.299754004925489">
        <ele>25.129999999999999</ele>
        <time>2018-07-05T11:19:48Z</time>
      </trkpt>
      <trkpt lat="48.60433797352016" lon="-2.299960032105446">
        <ele>24.649999999999999</ele>
        <time>2018-07-05T11:19:49Z</time>
      </trkpt>
      <trkpt lat="48.605246990919113" lon="-2.301664995029569">
        <ele>27.050000000000001</ele>
        <time>2018-07-05T11:19:57Z</time>
      </trkpt>
      <trkpt lat="48.606466976925731" lon="-2.304365979507566">
        <ele>42.439999999999998</ele>
        <time>2018-07-05T11:20:08Z</time>
      </trkpt>
      <trkpt lat="48.608299009501934" lon="-2.308593979105353">
        <ele>41.950000000000003</ele>
        <time>2018-07-05T11:20:24Z</time>
      </trkpt>
      <trkpt lat="48.608679967001081" lon="-2.309600980952382">
        <ele>38.109999999999999</ele>
        <time>2018-07-05T11:20:28Z</time>
      </trkpt>
      <trkpt lat="48.608735958114266" lon="-2.309857970103622">
        <ele>37.149999999999999</ele>
        <time>2018-07-05T11:20:29Z</time>
      </trkpt>
      <trkpt lat="48.608789015561342" lon="-2.310104984790087">
        <ele>36.670000000000002</ele>
        <time>2018-07-05T11:20:30Z</time>
      </trkpt>
      <trkpt lat="48.609254965558648" lon="-2.31225703842938">
        <ele>28.5</ele>
        <time>2018-07-05T11:20:39Z</time>
      </trkpt>
      <trkpt lat="48.60973197966814" lon="-2.314662979915738">
        <ele>18.399999999999999</ele>
        <time>2018-07-05T11:20:48Z</time>
      </trkpt>
      <trkpt lat="48.610002966597676" lon="-2.315936023369432">
        <ele>14.08</ele>
        <time>2018-07-05T11:20:54Z</time>
      </trkpt>
      <trkpt lat="48.610061975196004" lon="-2.316129980608821">
        <ele>13.119999999999999</ele>
        <time>2018-07-05T11:20:55Z</time>
      </trkpt>
      <trkpt lat="48.610128024592996" lon="-2.316322010010481">
        <ele>12.630000000000001</ele>
        <time>2018-07-05T11:20:56Z</time>
      </trkpt>
      <trkpt lat="48.610209999606013" lon="-2.316497024148703">
        <ele>11.67</ele>
        <time>2018-07-05T11:20:57Z</time>
      </trkpt>
      <trkpt lat="48.610306978225708" lon="-2.316658040508628">
        <ele>11.19</ele>
        <time>2018-07-05T11:20:58Z</time>
      </trkpt>
      <trkpt lat="48.61041602678597" lon="-2.31679399497807">
        <ele>10.710000000000001</ele>
        <time>2018-07-05T11:20:59Z</time>
      </trkpt>
      <trkpt lat="48.610529014840722" lon="-2.316931961104274">
        <ele>10.710000000000001</ele>
        <time>2018-07-05T11:21:00Z</time>
      </trkpt>
      <trkpt lat="48.61170600168407" lon="-2.318151025101543">
        <ele>9.75</ele>
        <time>2018-07-05T11:21:09Z</time>
      </trkpt>
      <trkpt lat="48.613206027075648" lon="-2.319785999134183">
        <ele>9.75</ele>
        <time>2018-07-05T11:21:22Z</time>
      </trkpt>
      <trkpt lat="48.613292025402188" lon="-2.319945003837347">
        <ele>9.27</ele>
        <time>2018-07-05T11:21:23Z</time>
      </trkpt>
      <trkpt lat="48.613348016515374" lon="-2.320127980783582">
        <ele>9.27</ele>
        <time>2018-07-05T11:21:24Z</time>
      </trkpt>
      <trkpt lat="48.613401995971799" lon="-2.320322021842003">
        <ele>9.27</ele>
        <time>2018-07-05T11:21:25Z</time>
      </trkpt>
      <trkpt lat="48.613451030105352" lon="-2.320518996566534">
        <ele>9.27</ele>
        <time>2018-07-05T11:21:26Z</time>
      </trkpt>
      <trkpt lat="48.613451030105352" lon="-2.320734998211265">
        <ele>9.27</ele>
        <time>2018-07-05T11:21:27Z</time>
      </trkpt>
      <trkpt lat="48.613448012620211" lon="-2.320955023169518">
        <ele>9.75</ele>
        <time>2018-07-05T11:21:28Z</time>
      </trkpt>
      <trkpt lat="48.613443989306688" lon="-2.321177981793881">
        <ele>9.75</ele>
        <time>2018-07-05T11:21:29Z</time>
      </trkpt>
      <trkpt lat="48.613408030942082" lon="-2.323135994374752">
        <ele>13.119999999999999</ele>
        <time>2018-07-05T11:21:38Z</time>
      </trkpt>
      <trkpt lat="48.613379029557109" lon="-2.324976995587349">
        <ele>16.48</ele>
        <time>2018-07-05T11:21:46Z</time>
      </trkpt>
      <trkpt lat="48.613365031778812" lon="-2.325796997174621">
        <ele>17.920000000000002</ele>
        <time>2018-07-05T11:21:49Z</time>
      </trkpt>
      <trkpt lat="48.613441977649927" lon="-2.326510967686772">
        <ele>19.359999999999999</ele>
        <time>2018-07-05T11:21:52Z</time>
      </trkpt>
      <trkpt lat="48.613504003733397" lon="-2.326752031221986">
        <ele>20.32</ele>
        <time>2018-07-05T11:21:53Z</time>
      </trkpt>
      <trkpt lat="48.613565023988485" lon="-2.326989993453026">
        <ele>21.289999999999999</ele>
        <time>2018-07-05T11:21:54Z</time>
      </trkpt>
      <trkpt lat="48.61437002196908" lon="-2.329551000148058">
        <ele>31.859999999999999</ele>
        <time>2018-07-05T11:22:05Z</time>
      </trkpt>
      <trkpt lat="48.614717032760382" lon="-2.330924961715937">
        <ele>38.109999999999999</ele>
        <time>2018-07-05T11:22:11Z</time>
      </trkpt>
      <trkpt lat="48.614734970033169" lon="-2.331169964745641">
        <ele>39.07</ele>
        <time>2018-07-05T11:22:12Z</time>
      </trkpt>
      <trkpt lat="48.614753996953368" lon="-2.331426031887531">
        <ele>40.030000000000001</ele>
        <time>2018-07-05T11:22:13Z</time>
      </trkpt>
      <trkpt lat="48.614752991124988" lon="-2.331691989675164">
        <ele>40.990000000000002</ele>
        <time>2018-07-05T11:22:14Z</time>
      </trkpt>
      <trkpt lat="48.614743016660213" lon="-2.331956019625068">
        <ele>41.950000000000003</ele>
        <time>2018-07-05T11:22:15Z</time>
      </trkpt>
      <trkpt lat="48.614459037780762" lon="-2.334500011056662">
        <ele>41.469999999999999</ele>
        <time>2018-07-05T11:22:25Z</time>
      </trkpt>
      <trkpt lat="48.614269020035863" lon="-2.33675298281014">
        <ele>35.710000000000001</ele>
        <time>2018-07-05T11:22:35Z</time>
      </trkpt>
      <trkpt lat="48.614287963137031" lon="-2.336979964748025">
        <ele>34.740000000000002</ele>
        <time>2018-07-05T11:22:36Z</time>
      </trkpt>
      <trkpt lat="48.614330040290952" lon="-2.337199989706278">
        <ele>33.780000000000001</ele>
        <time>2018-07-05T11:22:37Z</time>
      </trkpt>
      <trkpt lat="48.614373961463571" lon="-2.337426971644163">
        <ele>32.82</ele>
        <time>2018-07-05T11:22:38Z</time>
      </trkpt>
      <trkpt lat="48.614465994760394" lon="-2.337597962468863">
        <ele>31.379999999999999</ele>
        <time>2018-07-05T11:22:39Z</time>
      </trkpt>
      <trkpt lat="48.614572025835514" lon="-2.337759984657168">
        <ele>30.420000000000002</ele>
        <time>2018-07-05T11:22:40Z</time>
      </trkpt>
      <trkpt lat="48.614688031375408" lon="-2.337889987975359">
        <ele>29.460000000000001</ele>
        <time>2018-07-05T11:22:41Z</time>
      </trkpt>
      <trkpt lat="48.614827003329992" lon="-2.337965006008744">
        <ele>28.5</ele>
        <time>2018-07-05T11:22:42Z</time>
      </trkpt>
      <trkpt lat="48.614973016083241" lon="-2.33799995854497">
        <ele>27.530000000000001</ele>
        <time>2018-07-05T11:22:43Z</time>
      </trkpt>
      <trkpt lat="48.615122968330979" lon="-2.338022002950311">
        <ele>26.57</ele>
        <time>2018-07-05T11:22:44Z</time>
      </trkpt>
      <trkpt lat="48.61527401022613" lon="-2.338043041527271">
        <ele>25.609999999999999</ele>
        <time>2018-07-05T11:22:45Z</time>
      </trkpt>
      <trkpt lat="48.615428991615772" lon="-2.33801999129355">
        <ele>25.129999999999999</ele>
        <time>2018-07-05T11:22:46Z</time>
      </trkpt>
      <trkpt lat="48.615580033510923" lon="-2.337980009615421">
        <ele>24.170000000000002</ele>
        <time>2018-07-05T11:22:47Z</time>
      </trkpt>
      <trkpt lat="48.615734009072185" lon="-2.337939022108913">
        <ele>23.210000000000001</ele>
        <time>2018-07-05T11:22:48Z</time>
      </trkpt>
      <trkpt lat="48.6163479834795" lon="-2.337691001594067">
        <ele>19.359999999999999</ele>
        <time>2018-07-05T11:22:52Z</time>
      </trkpt>
      <trkpt lat="48.617649022489786" lon="-2.336735967546701">
        <ele>10.23</ele>
        <time>2018-07-05T11:23:02Z</time>
      </trkpt>
      <trkpt lat="48.61802201718092" lon="-2.336527006700635">
        <ele>8.789999999999999</ele>
        <time>2018-07-05T11:23:05Z</time>
      </trkpt>
      <trkpt lat="48.618278000503778" lon="-2.336512003093958">
        <ele>7.35</ele>
        <time>2018-07-05T11:23:07Z</time>
      </trkpt>
      <trkpt lat="48.61840900965035" lon="-2.336517032235861">
        <ele>6.87</ele>
        <time>2018-07-05T11:23:08Z</time>
      </trkpt>
      <trkpt lat="48.61853901296854" lon="-2.336521977558732">
        <ele>6.39</ele>
        <time>2018-07-05T11:23:09Z</time>
      </trkpt>
      <trkpt lat="48.618659963831306" lon="-2.336533963680267">
        <ele>6.39</ele>
        <time>2018-07-05T11:23:10Z</time>
      </trkpt>
      <trkpt lat="48.61877404153347" lon="-2.336595989763737">
        <ele>6.39</ele>
        <time>2018-07-05T11:23:11Z</time>
      </trkpt>
      <trkpt lat="48.618922987952828" lon="-2.336676036939025">
        <ele>6.39</ele>
        <time>2018-07-05T11:23:12Z</time>
      </trkpt>
      <trkpt lat="48.61898903734982" lon="-2.336761029437184">
        <ele>6.39</ele>
        <time>2018-07-05T11:23:13Z</time>
      </trkpt>
      <trkpt lat="48.61907796934247" lon="-2.336874017491937">
        <ele>6.39</ele>
        <time>2018-07-05T11:23:14Z</time>
      </trkpt>
      <trkpt lat="48.619823036715388" lon="-2.337827039882541">
        <ele>7.35</ele>
        <time>2018-07-05T11:23:24Z</time>
      </trkpt>
      <trkpt lat="48.620364004746079" lon="-2.338503962382674">
        <ele>6.39</ele>
        <time>2018-07-05T11:23:31Z</time>
      </trkpt>
      <trkpt lat="48.620450003072619" lon="-2.338589960709214">
        <ele>6.39</ele>
        <time>2018-07-05T11:23:32Z</time>
      </trkpt>
      <trkpt lat="48.620531978085637" lon="-2.338672019541264">
        <ele>6.87</ele>
        <time>2018-07-05T11:23:33Z</time>
      </trkpt>
      <trkpt lat="48.620575983077288" lon="-2.338834963738918">
        <ele>6.87</ele>
        <time>2018-07-05T11:23:34Z</time>
      </trkpt>
      <trkpt lat="48.620610013604164" lon="-2.33896597288549">
        <ele>7.35</ele>
        <time>2018-07-05T11:23:35Z</time>
      </trkpt>
      <trkpt lat="48.620585035532713" lon="-2.339102011173964">
        <ele>7.35</ele>
        <time>2018-07-05T11:23:36Z</time>
      </trkpt>
      <trkpt lat="48.620542036369443" lon="-2.339239977300167">
        <ele>7.35</ele>
        <time>2018-07-05T11:23:37Z</time>
      </trkpt>
      <trkpt lat="48.620488978922367" lon="-2.339371992275119">
        <ele>7.83</ele>
        <time>2018-07-05T11:23:38Z</time>
      </trkpt>
      <trkpt lat="48.620429970324039" lon="-2.339508030563593">
        <ele>7.83</ele>
        <time>2018-07-05T11:23:39Z</time>
      </trkpt>
      <trkpt lat="48.620370961725712" lon="-2.339643985033035">
        <ele>8.310000000000001</ele>
        <time>2018-07-05T11:23:40Z</time>
      </trkpt>
      <trkpt lat="48.620319999754429" lon="-2.339808018878102">
        <ele>8.310000000000001</ele>
        <time>2018-07-05T11:23:41Z</time>
      </trkpt>
      <trkpt lat="48.620330980047584" lon="-2.339979009702802">
        <ele>8.310000000000001</ele>
        <time>2018-07-05T11:23:42Z</time>
      </trkpt>
      <trkpt lat="48.620347995311022" lon="-2.340157963335514">
        <ele>8.789999999999999</ele>
        <time>2018-07-05T11:23:43Z</time>
      </trkpt>
      <trkpt lat="48.620384037494659" lon="-2.340343035757542">
        <ele>8.789999999999999</ele>
        <time>2018-07-05T11:23:44Z</time>
      </trkpt>
      <trkpt lat="48.620421001687646" lon="-2.340530036017299">
        <ele>9.27</ele>
        <time>2018-07-05T11:23:45Z</time>
      </trkpt>
      <trkpt lat="48.620456038042903" lon="-2.340712007135153">
        <ele>9.27</ele>
        <time>2018-07-05T11:23:46Z</time>
      </trkpt>
      <trkpt lat="48.620660975575447" lon="-2.341839959844947">
        <ele>12.630000000000001</ele>
        <time>2018-07-05T11:23:52Z</time>
      </trkpt>
      <trkpt lat="48.620660975575447" lon="-2.342027965933085">
        <ele>13.119999999999999</ele>
        <time>2018-07-05T11:23:53Z</time>
      </trkpt>
      <trkpt lat="48.620658041909337" lon="-2.342225024476647">
        <ele>14.56</ele>
        <time>2018-07-05T11:23:54Z</time>
      </trkpt>
      <trkpt lat="48.620621999725699" lon="-2.342412024736404">
        <ele>16</ele>
        <time>2018-07-05T11:23:55Z</time>
      </trkpt>
      <trkpt lat="48.620584029704332" lon="-2.342605981975794">
        <ele>17.440000000000001</ele>
        <time>2018-07-05T11:23:56Z</time>
      </trkpt>
      <trkpt lat="48.620195025578141" lon="-2.344511020928621">
        <ele>32.340000000000003</ele>
        <time>2018-07-05T11:24:04Z</time>
      </trkpt>
      <trkpt lat="48.620005007833242" lon="-2.345322975888848">
        <ele>37.149999999999999</ele>
        <time>2018-07-05T11:24:07Z</time>
      </trkpt>
      <trkpt lat="48.619919009506702" lon="-2.345590023323894">
        <ele>39.07</ele>
        <time>2018-07-05T11:24:08Z</time>
      </trkpt>
      <trkpt lat="48.619392961263657" lon="-2.346714958548546">
        <ele>47.240000000000002</ele>
        <time>2018-07-05T11:24:13Z</time>
      </trkpt>
      <trkpt lat="48.619374018162489" lon="-2.346887961030006">
        <ele>48.200000000000003</ele>
        <time>2018-07-05T11:24:14Z</time>
      </trkpt>
      <trkpt lat="48.619357002899051" lon="-2.347033973783255">
        <ele>49.159999999999997</ele>
        <time>2018-07-05T11:24:15Z</time>
      </trkpt>
      <trkpt lat="48.619394972920418" lon="-2.347189961001277">
        <ele>50.609999999999999</ele>
        <time>2018-07-05T11:24:16Z</time>
      </trkpt>
      <trkpt lat="48.61948499456048" lon="-2.347299009561539">
        <ele>51.57</ele>
        <time>2018-07-05T11:24:17Z</time>
      </trkpt>
      <trkpt lat="48.619566969573498" lon="-2.347396994009614">
        <ele>52.530000000000001</ele>
        <time>2018-07-05T11:24:18Z</time>
      </trkpt>
      <trkpt lat="48.619709964841604" lon="-2.347428007051349">
        <ele>53.490000000000002</ele>
        <time>2018-07-05T11:24:19Z</time>
      </trkpt>
      <trkpt lat="48.619835022836924" lon="-2.347403028979898">
        <ele>54.93</ele>
        <time>2018-07-05T11:24:20Z</time>
      </trkpt>
      <trkpt lat="48.619981035590172" lon="-2.347362963482738">
        <ele>55.890000000000001</ele>
        <time>2018-07-05T11:24:21Z</time>
      </trkpt>
      <trkpt lat="48.620130987837911" lon="-2.3473010212183">
        <ele>56.859999999999999</ele>
        <time>2018-07-05T11:24:22Z</time>
      </trkpt>
      <trkpt lat="48.620727024972439" lon="-2.347074961289764">
        <ele>61.18</ele>
        <time>2018-07-05T11:24:26Z</time>
      </trkpt>
      <trkpt lat="48.620870020240545" lon="-2.347028022632003">
        <ele>61.659999999999997</ele>
        <time>2018-07-05T11:24:27Z</time>
      </trkpt>
      <trkpt lat="48.621003963053226" lon="-2.346983011811972">
        <ele>62.619999999999997</ele>
        <time>2018-07-05T11:24:28Z</time>
      </trkpt>
      <trkpt lat="48.621336976066232" lon="-2.346927020698786">
        <ele>64.069999999999993</ele>
        <time>2018-07-05T11:24:31Z</time>
      </trkpt>
      <trkpt lat="48.621430015191436" lon="-2.34691696241498">
        <ele>64.549999999999997</ele>
        <time>2018-07-05T11:24:32Z</time>
      </trkpt>
      <trkpt lat="48.621625984087586" lon="-2.346783019602299">
        <ele>65.030000000000001</ele>
        <time>2018-07-05T11:24:33Z</time>
      </trkpt>
      <trkpt lat="48.621843997389078" lon="-2.346521001309156">
        <ele>66.469999999999999</ele>
        <time>2018-07-05T11:24:36Z</time>
      </trkpt>
      <trkpt lat="48.621971989050508" lon="-2.346447994932532">
        <ele>66.950000000000003</ele>
        <time>2018-07-05T11:24:37Z</time>
      </trkpt>
      <trkpt lat="48.622329980134964" lon="-2.346244985237718">
        <ele>67.909999999999997</ele>
        <time>2018-07-05T11:24:40Z</time>
      </trkpt>
      <trkpt lat="48.622440034523606" lon="-2.346182959154248">
        <ele>67.909999999999997</ele>
        <time>2018-07-05T11:24:41Z</time>
      </trkpt>
      <trkpt lat="48.622533995658159" lon="-2.346067037433386">
        <ele>68.390000000000001</ele>
        <time>2018-07-05T11:24:42Z</time>
      </trkpt>
      <trkpt lat="48.622632985934615" lon="-2.345942985266447">
        <ele>68.870000000000005</ele>
        <time>2018-07-05T11:24:43Z</time>
      </trkpt>
      <trkpt lat="48.622735999524593" lon="-2.345810970291495">
        <ele>68.870000000000005</ele>
        <time>2018-07-05T11:24:44Z</time>
      </trkpt>
      <trkpt lat="48.622841024771333" lon="-2.345671998336911">
        <ele>68.870000000000005</ele>
        <time>2018-07-05T11:24:45Z</time>
      </trkpt>
      <trkpt lat="48.622944038361311" lon="-2.345534032210708">
        <ele>69.349999999999994</ele>
        <time>2018-07-05T11:24:46Z</time>
      </trkpt>
      <trkpt lat="48.623047973960638" lon="-2.345405034720898">
        <ele>68.870000000000005</ele>
        <time>2018-07-05T11:24:47Z</time>
      </trkpt>
      <trkpt lat="48.62315802834928" lon="-2.34530202113092">
        <ele>68.870000000000005</ele>
        <time>2018-07-05T11:24:48Z</time>
      </trkpt>
      <trkpt lat="48.623269004747272" lon="-2.345199007540941">
        <ele>68.870000000000005</ele>
        <time>2018-07-05T11:24:49Z</time>
      </trkpt>
      <trkpt lat="48.623689021915197" lon="-2.344804974272847">
        <ele>67.430000000000007</ele>
        <time>2018-07-05T11:24:53Z</time>
      </trkpt>
      <trkpt lat="48.623773008584976" lon="-2.34470296651125">
        <ele>66.950000000000003</ele>
        <time>2018-07-05T11:24:54Z</time>
      </trkpt>
      <trkpt lat="48.623858001083136" lon="-2.34459400177002">
        <ele>66.950000000000003</ele>
        <time>2018-07-05T11:24:55Z</time>
      </trkpt>
      <trkpt lat="48.623904017731547" lon="-2.34444597736001">
        <ele>66.469999999999999</ele>
        <time>2018-07-05T11:24:56Z</time>
      </trkpt>
      <trkpt lat="48.623943999409676" lon="-2.344314968213439">
        <ele>66.469999999999999</ele>
        <time>2018-07-05T11:24:57Z</time>
      </trkpt>
      <trkpt lat="48.623957997187972" lon="-2.344111958518624">
        <ele>65.989999999999995</ele>
        <time>2018-07-05T11:24:58Z</time>
      </trkpt>
      <trkpt lat="48.623969983309507" lon="-2.343931999057531">
        <ele>65.989999999999995</ele>
        <time>2018-07-05T11:24:59Z</time>
      </trkpt>
      <trkpt lat="48.623986998572946" lon="-2.343693030998111">
        <ele>65.510000000000005</ele>
        <time>2018-07-05T11:25:00Z</time>
      </trkpt>
      <trkpt lat="48.623965037986636" lon="-2.343553975224495">
        <ele>65.030000000000001</ele>
        <time>2018-07-05T11:25:01Z</time>
      </trkpt>
      <trkpt lat="48.623936958611012" lon="-2.343375021591783">
        <ele>64.549999999999997</ele>
        <time>2018-07-05T11:25:02Z</time>
      </trkpt>
      <trkpt lat="48.623664965853095" lon="-2.341590011492372">
        <ele>63.100000000000001</ele>
        <time>2018-07-05T11:25:12Z</time>
      </trkpt>
      <trkpt lat="48.623650968074799" lon="-2.341002020984888">
        <ele>63.579999999999998</ele>
        <time>2018-07-05T11:25:15Z</time>
      </trkpt>
      <trkpt lat="48.623647028580308" lon="-2.340802028775215">
        <ele>64.069999999999993</ele>
        <time>2018-07-05T11:25:16Z</time>
      </trkpt>
      <trkpt lat="48.623657003045082" lon="-2.340606981888413">
        <ele>64.069999999999993</ele>
        <time>2018-07-05T11:25:17Z</time>
      </trkpt>
      <trkpt lat="48.623701008036733" lon="-2.340412018820643">
        <ele>64.549999999999997</ele>
        <time>2018-07-05T11:25:18Z</time>
      </trkpt>
      <trkpt lat="48.623746018856764" lon="-2.340212026610971">
        <ele>64.549999999999997</ele>
        <time>2018-07-05T11:25:19Z</time>
      </trkpt>
      <trkpt lat="48.623792035505176" lon="-2.340008011087775">
        <ele>65.030000000000001</ele>
        <time>2018-07-05T11:25:20Z</time>
      </trkpt>
      <trkpt lat="48.623871998861432" lon="-2.339831991121173">
        <ele>65.510000000000005</ele>
        <time>2018-07-05T11:25:21Z</time>
      </trkpt>
      <trkpt lat="48.62395397387445" lon="-2.33965496532619">
        <ele>65.989999999999995</ele>
        <time>2018-07-05T11:25:22Z</time>
      </trkpt>
      <trkpt lat="48.62403703853488" lon="-2.339475005865097">
        <ele>66.469999999999999</ele>
        <time>2018-07-05T11:25:23Z</time>
      </trkpt>
      <trkpt lat="48.624140974134207" lon="-2.339323963969946">
        <ele>66.950000000000003</ele>
        <time>2018-07-05T11:25:24Z</time>
      </trkpt>
      <trkpt lat="48.624253962188959" lon="-2.339174011722207">
        <ele>67.909999999999997</ele>
        <time>2018-07-05T11:25:25Z</time>
      </trkpt>
      <trkpt lat="48.624369967728853" lon="-2.339020036160946">
        <ele>68.390000000000001</ele>
        <time>2018-07-05T11:25:26Z</time>
      </trkpt>
      <trkpt lat="48.625627001747489" lon="-2.337502995505929">
        <ele>71.760000000000005</ele>
        <time>2018-07-05T11:25:36Z</time>
      </trkpt>
      <trkpt lat="48.625862030312419" lon="-2.337209964171052">
        <ele>71.269999999999996</ele>
        <time>2018-07-05T11:25:38Z</time>
      </trkpt>
      <trkpt lat="48.625935958698392" lon="-2.337082978338003">
        <ele>70.790000000000006</ele>
        <time>2018-07-05T11:25:39Z</time>
      </trkpt>
      <trkpt lat="48.625976024195552" lon="-2.336961021646857">
        <ele>70.790000000000006</ele>
        <time>2018-07-05T11:25:40Z</time>
      </trkpt>
      <trkpt lat="48.625999996438622" lon="-2.336823977530003">
        <ele>70.310000000000002</ele>
        <time>2018-07-05T11:25:41Z</time>
      </trkpt>
      <trkpt lat="48.626012988388538" lon="-2.336671007797122">
        <ele>69.829999999999998</ele>
        <time>2018-07-05T11:25:42Z</time>
      </trkpt>
      <trkpt lat="48.626024974510074" lon="-2.336504040285945">
        <ele>69.349999999999994</ele>
        <time>2018-07-05T11:25:43Z</time>
      </trkpt>
      <trkpt lat="48.62603796645999" lon="-2.336325002834201">
        <ele>68.870000000000005</ele>
        <time>2018-07-05T11:25:44Z</time>
      </trkpt>
      <trkpt lat="48.626051964238286" lon="-2.336135990917683">
        <ele>68.390000000000001</ele>
        <time>2018-07-05T11:25:45Z</time>
      </trkpt>
      <trkpt lat="48.626065962016582" lon="-2.335940022021532">
        <ele>67.909999999999997</ele>
        <time>2018-07-05T11:25:46Z</time>
      </trkpt>
      <trkpt lat="48.626141985878348" lon="-2.335771964862943">
        <ele>67.430000000000007</ele>
        <time>2018-07-05T11:25:47Z</time>
      </trkpt>
      <trkpt lat="48.626232007518411" lon="-2.335608014836907">
        <ele>66.950000000000003</ele>
        <time>2018-07-05T11:25:48Z</time>
      </trkpt>
      <trkpt lat="48.626327980309725" lon="-2.335437024012208">
        <ele>66.469999999999999</ele>
        <time>2018-07-05T11:25:49Z</time>
      </trkpt>
      <trkpt lat="48.627426009625196" lon="-2.333451015874744">
        <ele>58.780000000000001</ele>
        <time>2018-07-05T11:26:00Z</time>
      </trkpt>
      <trkpt lat="48.627716023474932" lon="-2.333003003150225">
        <ele>57.340000000000003</ele>
        <time>2018-07-05T11:26:03Z</time>
      </trkpt>
      <trkpt lat="48.627822976559401" lon="-2.332872999832034">
        <ele>56.859999999999999</ele>
        <time>2018-07-05T11:26:04Z</time>
      </trkpt>
      <trkpt lat="48.628222038969398" lon="-2.332371007651091">
        <ele>56.369999999999997</ele>
        <time>2018-07-05T11:26:08Z</time>
      </trkpt>
      <trkpt lat="48.628300996497273" lon="-2.33221803791821">
        <ele>55.890000000000001</ele>
        <time>2018-07-05T11:26:09Z</time>
      </trkpt>
      <trkpt lat="48.628812041133642" lon="-2.330965027213097">
        <ele>58.299999999999997</ele>
        <time>2018-07-05T11:26:16Z</time>
      </trkpt>
      <trkpt lat="48.628887981176376" lon="-2.330782972276211">
        <ele>58.299999999999997</ele>
        <time>2018-07-05T11:26:17Z</time>
      </trkpt>
      <trkpt lat="48.628997029736638" lon="-2.330659003928304">
        <ele>58.780000000000001</ele>
        <time>2018-07-05T11:26:18Z</time>
      </trkpt>
      <trkpt lat="48.629117980599403" lon="-2.330541992560029">
        <ele>59.259999999999998</ele>
        <time>2018-07-05T11:26:19Z</time>
      </trkpt>
      <trkpt lat="48.6292390152812" lon="-2.330422969534993">
        <ele>59.259999999999998</ele>
        <time>2018-07-05T11:26:20Z</time>
      </trkpt>
      <trkpt lat="48.629965977743268" lon="-2.32964102178812">
        <ele>59.259999999999998</ele>
        <time>2018-07-05T11:26:27Z</time>
      </trkpt>
      <trkpt lat="48.630044013261795" lon="-2.329492997378111">
        <ele>58.780000000000001</ele>
        <time>2018-07-05T11:26:28Z</time>
      </trkpt>
      <trkpt lat="48.63012095913291" lon="-2.329348996281624">
        <ele>58.780000000000001</ele>
        <time>2018-07-05T11:26:29Z</time>
      </trkpt>
      <trkpt lat="48.63093601539731" lon="-2.328104032203555">
        <ele>58.780000000000001</ele>
        <time>2018-07-05T11:26:39Z</time>
      </trkpt>
      <trkpt lat="48.631156962364912" lon="-2.327834973111749">
        <ele>57.82</ele>
        <time>2018-07-05T11:26:42Z</time>
      </trkpt>
      <trkpt lat="48.631228962913156" lon="-2.327747968956828">
        <ele>57.340000000000003</ele>
        <time>2018-07-05T11:26:43Z</time>
      </trkpt>
      <trkpt lat="48.631702959537506" lon="-2.327335998415947">
        <ele>56.859999999999999</ele>
        <time>2018-07-05T11:26:49Z</time>
      </trkpt>
      <trkpt lat="48.631779989227653" lon="-2.327280007302761">
        <ele>56.859999999999999</ele>
        <time>2018-07-05T11:26:50Z</time>
      </trkpt>
      <trkpt lat="48.6323750205338" lon="-2.326855966821313">
        <ele>55.409999999999997</ele>
        <time>2018-07-05T11:26:57Z</time>
      </trkpt>
      <trkpt lat="48.632462024688721" lon="-2.326790001243353">
        <ele>54.93</ele>
        <time>2018-07-05T11:26:58Z</time>
      </trkpt>
      <trkpt lat="48.6325269844383" lon="-2.326740967109799">
        <ele>54.450000000000003</ele>
        <time>2018-07-05T11:26:59Z</time>
      </trkpt>
      <trkpt lat="48.632614994421601" lon="-2.32663300819695">
        <ele>53.969999999999999</ele>
        <time>2018-07-05T11:27:00Z</time>
      </trkpt>
      <trkpt lat="48.632689006626606" lon="-2.326542986556888">
        <ele>53.969999999999999</ele>
        <time>2018-07-05T11:27:01Z</time>
      </trkpt>
      <trkpt lat="48.632747009396553" lon="-2.326441984623671">
        <ele>53.969999999999999</ele>
        <time>2018-07-05T11:27:02Z</time>
      </trkpt>
      <trkpt lat="48.632799983024597" lon="-2.326321033760905">
        <ele>54.450000000000003</ele>
        <time>2018-07-05T11:27:03Z</time>
      </trkpt>
      <trkpt lat="48.632853040471673" lon="-2.326197987422347">
        <ele>54.450000000000003</ele>
        <time>2018-07-05T11:27:04Z</time>
      </trkpt>
      <trkpt lat="48.632907019928098" lon="-2.326075024902821">
        <ele>54.93</ele>
        <time>2018-07-05T11:27:05Z</time>
      </trkpt>
      <trkpt lat="48.633301975205541" lon="-2.325144968926907">
        <ele>56.369999999999997</ele>
        <time>2018-07-05T11:27:13Z</time>
      </trkpt>
      <trkpt lat="48.633367018774152" lon="-2.325042961165309">
        <ele>56.369999999999997</ele>
        <time>2018-07-05T11:27:14Z</time>
      </trkpt>
      <trkpt lat="48.63342996686697" lon="-2.324942965060473">
        <ele>56.859999999999999</ele>
        <time>2018-07-05T11:27:15Z</time>
      </trkpt>
      <trkpt lat="48.63349299877882" lon="-2.324842968955636">
        <ele>56.859999999999999</ele>
        <time>2018-07-05T11:27:16Z</time>
      </trkpt>
      <trkpt lat="48.633563993498683" lon="-2.324748001992703">
        <ele>56.859999999999999</ele>
        <time>2018-07-05T11:27:17Z</time>
      </trkpt>
      <trkpt lat="48.633636999875307" lon="-2.324658986181021">
        <ele>57.340000000000003</ele>
        <time>2018-07-05T11:27:18Z</time>
      </trkpt>
      <trkpt lat="48.633787035942078" lon="-2.324475003406405">
        <ele>58.299999999999997</ele>
        <time>2018-07-05T11:27:20Z</time>
      </trkpt>
      <trkpt lat="48.633948974311352" lon="-2.324276017025113">
        <ele>59.259999999999998</ele>
        <time>2018-07-05T11:27:22Z</time>
      </trkpt>
      <trkpt lat="48.634044025093317" lon="-2.324200998991728">
        <ele>59.740000000000002</ele>
        <time>2018-07-05T11:27:23Z</time>
      </trkpt>
      <trkpt lat="48.634879030287266" lon="-2.323676962405443">
        <ele>59.740000000000002</ele>
        <time>2018-07-05T11:27:30Z</time>
      </trkpt>
      <trkpt lat="48.635965995490551" lon="-2.322841035202146">
        <ele>61.659999999999997</ele>
        <time>2018-07-05T11:27:39Z</time>
      </trkpt>
      <trkpt lat="48.636811980977654" lon="-2.322344994172454">
        <ele>65.510000000000005</ele>
        <time>2018-07-05T11:27:46Z</time>
      </trkpt>
      <trkpt lat="48.636935027316213" lon="-2.322311969473958">
        <ele>66.469999999999999</ele>
        <time>2018-07-05T11:27:47Z</time>
      </trkpt>
      <trkpt lat="48.637061007320881" lon="-2.322307024151087">
        <ele>66.950000000000003</ele>
        <time>2018-07-05T11:27:48Z</time>
      </trkpt>
      <trkpt lat="48.637185981497169" lon="-2.322339965030551">
        <ele>67.430000000000007</ele>
        <time>2018-07-05T11:27:49Z</time>
      </trkpt>
      <trkpt lat="48.637312967330217" lon="-2.322372989729047">
        <ele>67.909999999999997</ele>
        <time>2018-07-05T11:27:50Z</time>
      </trkpt>
      <trkpt lat="48.637440958991647" lon="-2.322407020255923">
        <ele>68.390000000000001</ele>
        <time>2018-07-05T11:27:51Z</time>
      </trkpt>
      <trkpt lat="48.638680977746844" lon="-2.322903983294964">
        <ele>69.349999999999994</ele>
        <time>2018-07-05T11:28:00Z</time>
      </trkpt>
      <trkpt lat="48.640053011476994" lon="-2.323329029604793">
        <ele>71.269999999999996</ele>
        <time>2018-07-05T11:28:10Z</time>
      </trkpt>
      <trkpt lat="48.640195000916719" lon="-2.323329029604793">
        <ele>70.790000000000006</ele>
        <time>2018-07-05T11:28:11Z</time>
      </trkpt>
      <trkpt lat="48.640340007841587" lon="-2.323329029604793">
        <ele>70.790000000000006</ele>
        <time>2018-07-05T11:28:12Z</time>
      </trkpt>
      <trkpt lat="48.640933027490973" lon="-2.323329029604793">
        <ele>69.349999999999994</ele>
        <time>2018-07-05T11:28:16Z</time>
      </trkpt>
      <trkpt lat="48.641068981960416" lon="-2.323384014889598">
        <ele>68.870000000000005</ele>
        <time>2018-07-05T11:28:17Z</time>
      </trkpt>
      <trkpt lat="48.641210971400142" lon="-2.323444029316306">
        <ele>68.870000000000005</ele>
        <time>2018-07-05T11:28:18Z</time>
      </trkpt>
      <trkpt lat="48.641353966668248" lon="-2.323503959923983">
        <ele>68.870000000000005</ele>
        <time>2018-07-05T11:28:19Z</time>
      </trkpt>
      <trkpt lat="48.641497967764735" lon="-2.323563974350691">
        <ele>68.870000000000005</ele>
        <time>2018-07-05T11:28:20Z</time>
      </trkpt>
      <trkpt lat="48.642843011766672" lon="-2.324337959289551">
        <ele>67.430000000000007</ele>
        <time>2018-07-05T11:28:30Z</time>
      </trkpt>
      <trkpt lat="48.643169989809394" lon="-2.324530994519591">
        <ele>66.469999999999999</ele>
        <time>2018-07-05T11:28:32Z</time>
      </trkpt>
      <trkpt lat="48.643517000600696" lon="-2.324719000607729">
        <ele>64.069999999999993</ele>
        <time>2018-07-05T11:28:34Z</time>
      </trkpt>
      <trkpt lat="48.644904037937522" lon="-2.32508403249085">
        <ele>62.140000000000001</ele>
        <time>2018-07-05T11:28:41Z</time>
      </trkpt>
      <trkpt lat="48.646280011162162" lon="-2.325334986671805">
        <ele>62.619999999999997</ele>
        <time>2018-07-05T11:28:48Z</time>
      </trkpt>
      <trkpt lat="48.647230016067624" lon="-2.325911996886134">
        <ele>62.140000000000001</ele>
        <time>2018-07-05T11:28:54Z</time>
      </trkpt>
      <trkpt lat="48.648244980722666" lon="-2.327202977612615">
        <ele>60.219999999999999</ele>
        <time>2018-07-05T11:29:03Z</time>
      </trkpt>
      <trkpt lat="48.649055007845163" lon="-2.328318022191525">
        <ele>60.219999999999999</ele>
        <time>2018-07-05T11:29:12Z</time>
      </trkpt>
      <trkpt lat="48.64975799806416" lon="-2.32912695966661">
        <ele>58.299999999999997</ele>
        <time>2018-07-05T11:29:22Z</time>
      </trkpt>
      <trkpt lat="48.650030996650457" lon="-2.329456033185124">
        <ele>57.340000000000003</ele>
        <time>2018-07-05T11:29:28Z</time>
      </trkpt>
      <trkpt lat="48.650129986926913" lon="-2.329582013189793">
        <ele>57.340000000000003</ele>
        <time>2018-07-05T11:29:30Z</time>
      </trkpt>
      <trkpt lat="48.650302989408374" lon="-2.32979298569262">
        <ele>57.340000000000003</ele>
        <time>2018-07-05T11:29:33Z</time>
      </trkpt>
      <trkpt lat="48.650374989956617" lon="-2.32987797819078">
        <ele>57.82</ele>
        <time>2018-07-05T11:29:34Z</time>
      </trkpt>
      <trkpt lat="48.650449002161622" lon="-2.32996397651732">
        <ele>58.299999999999997</ele>
        <time>2018-07-05T11:29:35Z</time>
      </trkpt>
      <trkpt lat="48.651530016213655" lon="-2.330794958397746">
        <ele>55.890000000000001</ele>
        <time>2018-07-05T11:29:46Z</time>
      </trkpt>
      <trkpt lat="48.652223031967878" lon="-2.331242971122265">
        <ele>53.490000000000002</ele>
        <time>2018-07-05T11:29:52Z</time>
      </trkpt>
      <trkpt lat="48.652981007471681" lon="-2.331729037687182">
        <ele>54.450000000000003</ele>
        <time>2018-07-05T11:29:59Z</time>
      </trkpt>
      <trkpt lat="48.653083015233278" lon="-2.331793997436762">
        <ele>54.450000000000003</ele>
        <time>2018-07-05T11:30:00Z</time>
      </trkpt>
      <trkpt lat="48.653437988832593" lon="-2.332039000466466">
        <ele>53.009999999999998</ele>
        <time>2018-07-05T11:30:04Z</time>
      </trkpt>
      <trkpt lat="48.653520969673991" lon="-2.332099014893174">
        <ele>53.009999999999998</ele>
        <time>2018-07-05T11:30:05Z</time>
      </trkpt>
      <trkpt lat="48.653769996017218" lon="-2.332276962697506">
        <ele>52.530000000000001</ele>
        <time>2018-07-05T11:30:08Z</time>
      </trkpt>
      <trkpt lat="48.653857000172138" lon="-2.332303030416369">
        <ele>52.530000000000001</ele>
        <time>2018-07-05T11:30:09Z</time>
      </trkpt>
      <trkpt lat="48.653935035690665" lon="-2.33232700265944">
        <ele>52.530000000000001</ele>
        <time>2018-07-05T11:30:10Z</time>
      </trkpt>
      <trkpt lat="48.653984991833568" lon="-2.332342006266117">
        <ele>52.530000000000001</ele>
        <time>2018-07-05T11:30:11Z</time>
      </trkpt>
      <trkpt lat="48.654060009866953" lon="-2.33230403624475">
        <ele>52.530000000000001</ele>
        <time>2018-07-05T11:30:12Z</time>
      </trkpt>
      <trkpt lat="48.654122035950422" lon="-2.332273023203015">
        <ele>52.530000000000001</ele>
        <time>2018-07-05T11:30:13Z</time>
      </trkpt>
      <trkpt lat="48.654184984043241" lon="-2.332242010161281">
        <ele>52.530000000000001</ele>
        <time>2018-07-05T11:30:14Z</time>
      </trkpt>
      <trkpt lat="48.654254972934723" lon="-2.332195993512869">
        <ele>52.530000000000001</ele>
        <time>2018-07-05T11:30:15Z</time>
      </trkpt>
      <trkpt lat="48.654307024553418" lon="-2.332127010449767">
        <ele>52.530000000000001</ele>
        <time>2018-07-05T11:30:16Z</time>
      </trkpt>
      <trkpt lat="48.654358992353082" lon="-2.33209197409451">
        <ele>52.530000000000001</ele>
        <time>2018-07-05T11:30:17Z</time>
      </trkpt>
      <trkpt lat="48.654416995123029" lon="-2.332054004073143">
        <ele>52.530000000000001</ele>
        <time>2018-07-05T11:30:18Z</time>
      </trkpt>
      <trkpt lat="48.65448203869164" lon="-2.332009999081492">
        <ele>52.530000000000001</ele>
        <time>2018-07-05T11:30:19Z</time>
      </trkpt>
      <trkpt lat="48.654713965952396" lon="-2.331859963014722">
        <ele>53.009999999999998</ele>
        <time>2018-07-05T11:30:22Z</time>
      </trkpt>
      <trkpt lat="48.654804993420839" lon="-2.331817969679833">
        <ele>53.009999999999998</ele>
        <time>2018-07-05T11:30:23Z</time>
      </trkpt>
      <trkpt lat="48.654899038374424" lon="-2.331775976344943">
        <ele>53.009999999999998</ele>
        <time>2018-07-05T11:30:24Z</time>
      </trkpt>
      <trkpt lat="48.655196009203792" lon="-2.331569027155638">
        <ele>53.490000000000002</ele>
        <time>2018-07-05T11:30:28Z</time>
      </trkpt>
      <trkpt lat="48.655244959518313" lon="-2.331501971930265">
        <ele>53.969999999999999</ele>
        <time>2018-07-05T11:30:29Z</time>
      </trkpt>
      <trkpt lat="48.655296005308628" lon="-2.331431983038783">
        <ele>53.969999999999999</ele>
        <time>2018-07-05T11:30:30Z</time>
      </trkpt>
      <trkpt lat="48.655335986986756" lon="-2.331375991925597">
        <ele>53.969999999999999</ele>
        <time>2018-07-05T11:30:31Z</time>
      </trkpt>
      <trkpt lat="48.6553889606148" lon="-2.331258980557323">
        <ele>53.969999999999999</ele>
        <time>2018-07-05T11:30:32Z</time>
      </trkpt>
      <trkpt lat="48.655430031940341" lon="-2.33116501942277">
        <ele>53.490000000000002</ele>
        <time>2018-07-05T11:30:33Z</time>
      </trkpt>
      <trkpt lat="48.65547495894134" lon="-2.331064017489553">
        <ele>53.490000000000002</ele>
        <time>2018-07-05T11:30:34Z</time>
      </trkpt>
      <trkpt lat="48.655516030266881" lon="-2.330943988636136">
        <ele>53.009999999999998</ele>
        <time>2018-07-05T11:30:35Z</time>
      </trkpt>
      <trkpt lat="48.65553698502481" lon="-2.330815996974707">
        <ele>53.009999999999998</ele>
        <time>2018-07-05T11:30:36Z</time>
      </trkpt>
      <trkpt lat="48.655676962807775" lon="-2.32983497902751">
        <ele>53.490000000000002</ele>
        <time>2018-07-05T11:30:44Z</time>
      </trkpt>
      <trkpt lat="48.655904028564692" lon="-2.328720018267632">
        <ele>56.369999999999997</ele>
        <time>2018-07-05T11:30:52Z</time>
      </trkpt>
      <trkpt lat="48.655959013849497" lon="-2.328578028827906">
        <ele>56.859999999999999</ele>
        <time>2018-07-05T11:30:53Z</time>
      </trkpt>
      <trkpt lat="48.656017016619444" lon="-2.328432016074657">
        <ele>56.859999999999999</ele>
        <time>2018-07-05T11:30:54Z</time>
      </trkpt>
      <trkpt lat="48.656106032431126" lon="-2.328313998878002">
        <ele>56.859999999999999</ele>
        <time>2018-07-05T11:30:55Z</time>
      </trkpt>
      <trkpt lat="48.656204016879201" lon="-2.328193970024586">
        <ele>56.859999999999999</ele>
        <time>2018-07-05T11:30:56Z</time>
      </trkpt>
      <trkpt lat="48.656304012984037" lon="-2.328071007505059">
        <ele>56.859999999999999</ele>
        <time>2018-07-05T11:30:57Z</time>
      </trkpt>
      <trkpt lat="48.656408032402396" lon="-2.327945027500391">
        <ele>56.369999999999997</ele>
        <time>2018-07-05T11:30:58Z</time>
      </trkpt>
      <trkpt lat="48.657859023660421" lon="-2.32678203843534">
        <ele>53.490000000000002</ele>
        <time>2018-07-05T11:31:10Z</time>
      </trkpt>
      <trkpt lat="48.659645039588213" lon="-2.326223971322179">
        <ele>52.530000000000001</ele>
        <time>2018-07-05T11:31:23Z</time>
      </trkpt>
      <trkpt lat="48.661132995039225" lon="-2.326049041002989">
        <ele>56.369999999999997</ele>
        <time>2018-07-05T11:31:32Z</time>
      </trkpt>
      <trkpt lat="48.661634987220168" lon="-2.325964970514178">
        <ele>56.859999999999999</ele>
        <time>2018-07-05T11:31:35Z</time>
      </trkpt>
      <trkpt lat="48.661800026893616" lon="-2.325886012986302">
        <ele>56.859999999999999</ele>
        <time>2018-07-05T11:31:36Z</time>
      </trkpt>
      <trkpt lat="48.661968000233173" lon="-2.325805965811014">
        <ele>56.859999999999999</ele>
        <time>2018-07-05T11:31:37Z</time>
      </trkpt>
      <trkpt lat="48.662285003811121" lon="-2.325655007734895">
        <ele>57.82</ele>
        <time>2018-07-05T11:31:39Z</time>
      </trkpt>
      <trkpt lat="48.662435039877892" lon="-2.325584013015032">
        <ele>57.82</ele>
        <time>2018-07-05T11:31:40Z</time>
      </trkpt>
      <trkpt lat="48.662591027095914" lon="-2.325578983873129">
        <ele>58.299999999999997</ele>
        <time>2018-07-05T11:31:41Z</time>
      </trkpt>
      <trkpt lat="48.662737961858511" lon="-2.32560396194458">
        <ele>58.780000000000001</ele>
        <time>2018-07-05T11:31:42Z</time>
      </trkpt>
      <trkpt lat="48.662881040945649" lon="-2.325685014948249">
        <ele>59.259999999999998</ele>
        <time>2018-07-05T11:31:43Z</time>
      </trkpt>
      <trkpt lat="48.663023030385375" lon="-2.325766989961267">
        <ele>59.740000000000002</ele>
        <time>2018-07-05T11:31:44Z</time>
      </trkpt>
      <trkpt lat="48.663411028683186" lon="-2.325991038233042">
        <ele>61.18</ele>
        <time>2018-07-05T11:31:47Z</time>
      </trkpt>
      <trkpt lat="48.663525022566319" lon="-2.326001012697816">
        <ele>61.659999999999997</ele>
        <time>2018-07-05T11:31:48Z</time>
      </trkpt>
      <trkpt lat="48.663630969822407" lon="-2.325985003262758">
        <ele>62.140000000000001</ele>
        <time>2018-07-05T11:31:49Z</time>
      </trkpt>
      <trkpt lat="48.663734989240766" lon="-2.325971005484462">
        <ele>62.140000000000001</ele>
        <time>2018-07-05T11:31:50Z</time>
      </trkpt>
      <trkpt lat="48.663838002830744" lon="-2.325956001877785">
        <ele>62.140000000000001</ele>
        <time>2018-07-05T11:31:51Z</time>
      </trkpt>
      <trkpt lat="48.663943028077483" lon="-2.325909985229373">
        <ele>62.140000000000001</ele>
        <time>2018-07-05T11:31:52Z</time>
      </trkpt>
      <trkpt lat="48.664047969505191" lon="-2.325822981074452">
        <ele>62.140000000000001</ele>
        <time>2018-07-05T11:31:53Z</time>
      </trkpt>
      <trkpt lat="48.664157018065453" lon="-2.32573002576828">
        <ele>62.140000000000001</ele>
        <time>2018-07-05T11:31:54Z</time>
      </trkpt>
      <trkpt lat="48.664243016391993" lon="-2.325586024671793">
        <ele>62.140000000000001</ele>
        <time>2018-07-05T11:31:55Z</time>
      </trkpt>
      <trkpt lat="48.664316022768617" lon="-2.32543095946312">
        <ele>62.619999999999997</ele>
        <time>2018-07-05T11:31:56Z</time>
      </trkpt>
      <trkpt lat="48.664379976689816" lon="-2.325258040800691">
        <ele>63.100000000000001</ele>
        <time>2018-07-05T11:31:57Z</time>
      </trkpt>
      <trkpt lat="48.664446026086807" lon="-2.325079003348947">
        <ele>63.100000000000001</ele>
        <time>2018-07-05T11:31:58Z</time>
      </trkpt>
      <trkpt lat="48.665121020749211" lon="-2.323291981592774">
        <ele>66.469999999999999</ele>
        <time>2018-07-05T11:32:07Z</time>
      </trkpt>
      <trkpt lat="48.666081000119448" lon="-2.321726996451616">
        <ele>66.950000000000003</ele>
        <time>2018-07-05T11:32:16Z</time>
      </trkpt>
      <trkpt lat="48.6673319991678" lon="-2.320526037365198">
        <ele>65.989999999999995</ele>
        <time>2018-07-05T11:32:24Z</time>
      </trkpt>
      <trkpt lat="48.668576963245869" lon="-2.319938968867064">
        <ele>66.469999999999999</ele>
        <time>2018-07-05T11:32:31Z</time>
      </trkpt>
      <trkpt lat="48.670623991638422" lon="-2.319427002221346">
        <ele>68.390000000000001</ele>
        <time>2018-07-05T11:32:42Z</time>
      </trkpt>
      <trkpt lat="48.672540010884404" lon="-2.318964991718531">
        <ele>67.430000000000007</ele>
        <time>2018-07-05T11:32:52Z</time>
      </trkpt>
      <trkpt lat="48.674677982926369" lon="-2.31844799593091">
        <ele>66.950000000000003</ele>
        <time>2018-07-05T11:33:02Z</time>
      </trkpt>
      <trkpt lat="48.677069004625082" lon="-2.317915996536613">
        <ele>67.909999999999997</ele>
        <time>2018-07-05T11:33:13Z</time>
      </trkpt>
      <trkpt lat="48.678119005635381" lon="-2.317923037335277">
        <ele>67.909999999999997</ele>
        <time>2018-07-05T11:33:20Z</time>
      </trkpt>
      <trkpt lat="48.678221013396978" lon="-2.317952960729599">
        <ele>67.909999999999997</ele>
        <time>2018-07-05T11:33:21Z</time>
      </trkpt>
      <trkpt lat="48.678314974531531" lon="-2.317980034276843">
        <ele>67.909999999999997</ele>
        <time>2018-07-05T11:33:22Z</time>
      </trkpt>
      <trkpt lat="48.678466016426682" lon="-2.318081958219409">
        <ele>67.909999999999997</ele>
        <time>2018-07-05T11:33:24Z</time>
      </trkpt>
      <trkpt lat="48.678574981167912" lon="-2.318051028996706">
        <ele>67.909999999999997</ele>
        <time>2018-07-05T11:33:25Z</time>
      </trkpt>
      <trkpt lat="48.678574981167912" lon="-2.318051028996706">
        <ele>67.430000000000007</ele>
        <time>2018-07-05T11:33:26Z</time>
      </trkpt>
      <trkpt lat="48.678730968385935" lon="-2.318067960441113">
        <ele>67.430000000000007</ele>
        <time>2018-07-05T11:33:28Z</time>
      </trkpt>
      <trkpt lat="48.678997009992599" lon="-2.317978022620082">
        <ele>66.469999999999999</ele>
        <time>2018-07-05T11:33:38Z</time>
      </trkpt>
      <trkpt lat="48.678997009992599" lon="-2.317978022620082">
        <ele>65.989999999999995</ele>
        <time>2018-07-05T11:33:44Z</time>
      </trkpt>
      <trkpt lat="48.678854014724493" lon="-2.317986991256475">
        <ele>65.989999999999995</ele>
        <time>2018-07-05T11:33:45Z</time>
      </trkpt>
      <trkpt lat="48.679002039134502" lon="-2.317977016791701">
        <ele>65.989999999999995</ele>
        <time>2018-07-05T11:33:46Z</time>
      </trkpt>
      <trkpt lat="48.678984018042684" lon="-2.317978022620082">
        <ele>65.989999999999995</ele>
        <time>2018-07-05T11:33:47Z</time>
      </trkpt>
      <trkpt lat="48.678954010829329" lon="-2.317980034276843">
        <ele>65.989999999999995</ele>
        <time>2018-07-05T11:33:48Z</time>
      </trkpt>
      <trkpt lat="48.678910005837679" lon="-2.317982967942953">
        <ele>65.989999999999995</ele>
        <time>2018-07-05T11:33:49Z</time>
      </trkpt>
      <trkpt lat="48.678854014724493" lon="-2.317985985428095">
        <ele>65.989999999999995</ele>
        <time>2018-07-05T11:33:50Z</time>
      </trkpt>
      <trkpt lat="48.678796011954546" lon="-2.318024961277843">
        <ele>65.989999999999995</ele>
        <time>2018-07-05T11:33:51Z</time>
      </trkpt>
      <trkpt lat="48.678741026669741" lon="-2.318062009289861">
        <ele>65.989999999999995</ele>
        <time>2018-07-05T11:33:52Z</time>
      </trkpt>
      <trkpt lat="48.678687969222665" lon="-2.318097967654467">
        <ele>65.989999999999995</ele>
        <time>2018-07-05T11:33:53Z</time>
      </trkpt>
      <trkpt lat="48.678660979494452" lon="-2.318223025649786">
        <ele>65.989999999999995</ele>
        <time>2018-07-05T11:33:54Z</time>
      </trkpt>
      <trkpt lat="48.678574981167912" lon="-2.318286979570985">
        <ele>65.510000000000005</ele>
        <time>2018-07-05T11:33:55Z</time>
      </trkpt>
      <trkpt lat="48.678562995046377" lon="-2.318359985947609">
        <ele>65.510000000000005</ele>
        <time>2018-07-05T11:33:56Z</time>
      </trkpt>
      <trkpt lat="48.678543968126178" lon="-2.318484038114548">
        <ele>65.510000000000005</ele>
        <time>2018-07-05T11:33:57Z</time>
      </trkpt>
      <trkpt lat="48.678522007539868" lon="-2.318617980927229">
        <ele>65.510000000000005</ele>
        <time>2018-07-05T11:33:58Z</time>
      </trkpt>
      <trkpt lat="48.678499041125178" lon="-2.318760976195335">
        <ele>65.030000000000001</ele>
        <time>2018-07-05T11:33:59Z</time>
      </trkpt>
      <trkpt lat="48.678459981456399" lon="-2.318914029747248">
        <ele>65.030000000000001</ele>
        <time>2018-07-05T11:34:00Z</time>
      </trkpt>
      <trkpt lat="48.678408013656735" lon="-2.319077979773283">
        <ele>65.510000000000005</ele>
        <time>2018-07-05T11:34:01Z</time>
      </trkpt>
      <trkpt lat="48.67835202254355" lon="-2.319251988083124">
        <ele>65.510000000000005</ele>
        <time>2018-07-05T11:34:02Z</time>
      </trkpt>
      <trkpt lat="48.67775104008615" lon="-2.321103969588876">
        <ele>67.909999999999997</ele>
        <time>2018-07-05T11:34:11Z</time>
      </trkpt>
      <trkpt lat="48.677219962701201" lon="-2.322500981390476">
        <ele>66.469999999999999</ele>
        <time>2018-07-05T11:34:19Z</time>
      </trkpt>
      <trkpt lat="48.676370959728956" lon="-2.323724990710616">
        <ele>61.18</ele>
        <time>2018-07-05T11:34:27Z</time>
      </trkpt>
      <trkpt lat="48.674716958776116" lon="-2.325987014919519">
        <ele>60.219999999999999</ele>
        <time>2018-07-05T11:34:39Z</time>
      </trkpt>
      <trkpt lat="48.674549991264939" lon="-2.326095979660749">
        <ele>60.700000000000003</ele>
        <time>2018-07-05T11:34:40Z</time>
      </trkpt>
      <trkpt lat="48.674383023753762" lon="-2.326204022392631">
        <ele>60.700000000000003</ele>
        <time>2018-07-05T11:34:41Z</time>
      </trkpt>
      <trkpt lat="48.674213038757443" lon="-2.32628901489079">
        <ele>61.18</ele>
        <time>2018-07-05T11:34:42Z</time>
      </trkpt>
      <trkpt lat="48.674036012962461" lon="-2.326336959376931">
        <ele>61.18</ele>
        <time>2018-07-05T11:34:43Z</time>
      </trkpt>
      <trkpt lat="48.673859992995858" lon="-2.326385993510485">
        <ele>61.18</ele>
        <time>2018-07-05T11:34:44Z</time>
      </trkpt>
      <trkpt lat="48.673284994438291" lon="-2.326591014862061">
        <ele>59.740000000000002</ele>
        <time>2018-07-05T11:34:48Z</time>
      </trkpt>
      <trkpt lat="48.673183992505074" lon="-2.326653962954879">
        <ele>59.259999999999998</ele>
        <time>2018-07-05T11:34:49Z</time>
      </trkpt>
      <trkpt lat="48.67309195920825" lon="-2.326730992645025">
        <ele>58.780000000000001</ele>
        <time>2018-07-05T11:34:50Z</time>
      </trkpt>
      <trkpt lat="48.67227497510612" lon="-2.32775098644197">
        <ele>53.969999999999999</ele>
        <time>2018-07-05T11:34:58Z</time>
      </trkpt>
      <trkpt lat="48.670751983299851" lon="-2.329854005947709">
        <ele>53.969999999999999</ele>
        <time>2018-07-05T11:35:10Z</time>
      </trkpt>
      <trkpt lat="48.669927958399057" lon="-2.331116991117597">
        <ele>53.490000000000002</ele>
        <time>2018-07-05T11:35:18Z</time>
      </trkpt>
      <trkpt lat="48.669685972854495" lon="-2.33228400349617">
        <ele>50.609999999999999</ele>
        <time>2018-07-05T11:35:26Z</time>
      </trkpt>
      <trkpt lat="48.669712040573359" lon="-2.333771036937833">
        <ele>47.240000000000002</ele>
        <time>2018-07-05T11:35:36Z</time>
      </trkpt>
      <trkpt lat="48.66967499256134" lon="-2.334117963910103">
        <ele>47.240000000000002</ele>
        <time>2018-07-05T11:35:39Z</time>
      </trkpt>
      <trkpt lat="48.669660994783044" lon="-2.334233969449997">
        <ele>47.240000000000002</ele>
        <time>2018-07-05T11:35:40Z</time>
      </trkpt>
      <trkpt lat="48.669649008661509" lon="-2.334336983039975">
        <ele>46.759999999999998</ele>
        <time>2018-07-05T11:35:41Z</time>
      </trkpt>
      <trkpt lat="48.669592011719942" lon="-2.334433039650321">
        <ele>46.759999999999998</ele>
        <time>2018-07-05T11:35:42Z</time>
      </trkpt>
      <trkpt lat="48.669550018385053" lon="-2.334504034370184">
        <ele>46.759999999999998</ele>
        <time>2018-07-05T11:35:43Z</time>
      </trkpt>
      <trkpt lat="48.669482041150331" lon="-2.334620039910078">
        <ele>46.280000000000001</ele>
        <time>2018-07-05T11:35:45Z</time>
      </trkpt>
      <trkpt lat="48.669209964573383" lon="-2.334951963275671">
        <ele>44.359999999999999</ele>
        <time>2018-07-05T11:35:56Z</time>
      </trkpt>
      <trkpt lat="48.669180041179061" lon="-2.334979036822915">
        <ele>44.359999999999999</ele>
        <time>2018-07-05T11:36:07Z</time>
      </trkpt>
      <trkpt lat="48.669180041179061" lon="-2.334979036822915">
        <ele>44.359999999999999</ele>
        <time>2018-07-05T11:36:40Z</time>
      </trkpt>
      <trkpt lat="48.669180041179061" lon="-2.334979036822915">
        <ele>44.840000000000003</ele>
        <time>2018-07-05T11:37:35Z</time>
      </trkpt>
      <trkpt lat="48.669180041179061" lon="-2.334979036822915">
        <ele>44.840000000000003</ele>
        <time>2018-07-05T11:38:32Z</time>
      </trkpt>
      <trkpt lat="48.669156990945339" lon="-2.334998985752463">
        <ele>44.840000000000003</ele>
        <time>2018-07-05T11:38:58Z</time>
      </trkpt>
      <trkpt lat="48.669133018702269" lon="-2.335021030157805">
        <ele>44.840000000000003</ele>
        <time>2018-07-05T11:38:59Z</time>
      </trkpt>
      <trkpt lat="48.66909597069025" lon="-2.335053971037269">
        <ele>44.840000000000003</ele>
        <time>2018-07-05T11:39:00Z</time>
      </trkpt>
      <trkpt lat="48.668746026232839" lon="-2.335367035120726">
        <ele>42.920000000000002</ele>
        <time>2018-07-05T11:39:08Z</time>
      </trkpt>
      <trkpt lat="48.668075976893306" lon="-2.336068013682962">
        <ele>40.509999999999998</ele>
        <time>2018-07-05T11:39:18Z</time>
      </trkpt>
      <trkpt lat="48.667319007217884" lon="-2.337391013279557">
        <ele>38.109999999999999</ele>
        <time>2018-07-05T11:39:28Z</time>
      </trkpt>
      <trkpt lat="48.666846016421914" lon="-2.339284988120198">
        <ele>38.590000000000003</ele>
        <time>2018-07-05T11:39:38Z</time>
      </trkpt>
      <trkpt lat="48.666594978421926" lon="-2.34126403927803">
        <ele>41.950000000000003</ele>
        <time>2018-07-05T11:39:49Z</time>
      </trkpt>
      <trkpt lat="48.666559020057321" lon="-2.341396976262331">
        <ele>41.469999999999999</ele>
        <time>2018-07-05T11:39:50Z</time>
      </trkpt>
      <trkpt lat="48.666458018124104" lon="-2.34152102842927">
        <ele>41.950000000000003</ele>
        <time>2018-07-05T11:39:51Z</time>
      </trkpt>
      <trkpt lat="48.666369002312422" lon="-2.341632004827261">
        <ele>41.469999999999999</ele>
        <time>2018-07-05T11:39:52Z</time>
      </trkpt>
      <trkpt lat="48.666277974843979" lon="-2.341742981225252">
        <ele>41.469999999999999</ele>
        <time>2018-07-05T11:39:53Z</time>
      </trkpt>
      <trkpt lat="48.666187031194568" lon="-2.341852029785514">
        <ele>40.990000000000002</ele>
        <time>2018-07-05T11:39:54Z</time>
      </trkpt>
      <trkpt lat="48.666077982634306" lon="-2.341928975656629">
        <ele>40.990000000000002</ele>
        <time>2018-07-05T11:39:55Z</time>
      </trkpt>
      <trkpt lat="48.664760012179613" lon="-2.342729028314352">
        <ele>38.590000000000003</ele>
        <time>2018-07-05T11:40:06Z</time>
      </trkpt>
      <trkpt lat="48.664636965841055" lon="-2.34274503774941">
        <ele>38.590000000000003</ele>
        <time>2018-07-05T11:40:07Z</time>
      </trkpt>
      <trkpt lat="48.66361596621573" lon="-2.34292097389698">
        <ele>40.030000000000001</ele>
        <time>2018-07-05T11:40:16Z</time>
      </trkpt>
      <trkpt lat="48.663509013131261" lon="-2.342969002202153">
        <ele>40.509999999999998</ele>
        <time>2018-07-05T11:40:17Z</time>
      </trkpt>
      <trkpt lat="48.66342200897634" lon="-2.343066986650229">
        <ele>40.509999999999998</ele>
        <time>2018-07-05T11:40:18Z</time>
      </trkpt>
      <trkpt lat="48.663333998993039" lon="-2.343167988583446">
        <ele>40.509999999999998</ele>
        <time>2018-07-05T11:40:19Z</time>
      </trkpt>
      <trkpt lat="48.663244983181357" lon="-2.343268990516663">
        <ele>40.509999999999998</ele>
        <time>2018-07-05T11:40:20Z</time>
      </trkpt>
      <trkpt lat="48.663180023431778" lon="-2.34339002519846">
        <ele>40.509999999999998</ele>
        <time>2018-07-05T11:40:21Z</time>
      </trkpt>
      <trkpt lat="48.663124032318592" lon="-2.343535032123327">
        <ele>40.509999999999998</ele>
        <time>2018-07-05T11:40:22Z</time>
      </trkpt>
      <trkpt lat="48.663069969043136" lon="-2.343677021563053">
        <ele>40.509999999999998</ele>
        <time>2018-07-05T11:40:23Z</time>
      </trkpt>
      <trkpt lat="48.66303401067853" lon="-2.343810964375734">
        <ele>40.509999999999998</ele>
        <time>2018-07-05T11:40:24Z</time>
      </trkpt>
      <trkpt lat="48.663019007071853" lon="-2.343953959643841">
        <ele>40.509999999999998</ele>
        <time>2018-07-05T11:40:25Z</time>
      </trkpt>
      <trkpt lat="48.663004003465176" lon="-2.344088992103934">
        <ele>40.509999999999998</ele>
        <time>2018-07-05T11:40:26Z</time>
      </trkpt>
      <trkpt lat="48.662990005686879" lon="-2.344220001250505">
        <ele>40.030000000000001</ele>
        <time>2018-07-05T11:40:27Z</time>
      </trkpt>
      <trkpt lat="48.662975002080202" lon="-2.344357967376709">
        <ele>39.549999999999997</ele>
        <time>2018-07-05T11:40:28Z</time>
      </trkpt>
      <trkpt lat="48.662996040657163" lon="-2.344503980129957">
        <ele>39.549999999999997</ele>
        <time>2018-07-05T11:40:29Z</time>
      </trkpt>
      <trkpt lat="48.663019007071853" lon="-2.344662984833121">
        <ele>39.07</ele>
        <time>2018-07-05T11:40:30Z</time>
      </trkpt>
      <trkpt lat="48.663049014285207" lon="-2.344819977879524">
        <ele>38.590000000000003</ele>
        <time>2018-07-05T11:40:31Z</time>
      </trkpt>
      <trkpt lat="48.663361994549632" lon="-2.346589984372258">
        <ele>29.460000000000001</ele>
        <time>2018-07-05T11:40:44Z</time>
      </trkpt>
      <trkpt lat="48.663341039791703" lon="-2.346732979640365">
        <ele>28.98</ele>
        <time>2018-07-05T11:40:45Z</time>
      </trkpt>
      <trkpt lat="48.66331497207284" lon="-2.34687396325171">
        <ele>28.02</ele>
        <time>2018-07-05T11:40:46Z</time>
      </trkpt>
      <trkpt lat="48.663286976516247" lon="-2.347029028460383">
        <ele>27.530000000000001</ele>
        <time>2018-07-05T11:40:47Z</time>
      </trkpt>
      <trkpt lat="48.663256969302893" lon="-2.347187027335167">
        <ele>26.57</ele>
        <time>2018-07-05T11:40:48Z</time>
      </trkpt>
      <trkpt lat="48.663232997059822" lon="-2.347318958491087">
        <ele>26.09</ele>
        <time>2018-07-05T11:40:49Z</time>
      </trkpt>
      <trkpt lat="48.663167031481862" lon="-2.347457008436322">
        <ele>25.129999999999999</ele>
        <time>2018-07-05T11:40:50Z</time>
      </trkpt>
      <trkpt lat="48.663101987913251" lon="-2.347592040896416">
        <ele>24.649999999999999</ele>
        <time>2018-07-05T11:40:51Z</time>
      </trkpt>
      <trkpt lat="48.663036022335291" lon="-2.347730007022619">
        <ele>24.170000000000002</ele>
        <time>2018-07-05T11:40:52Z</time>
      </trkpt>
      <trkpt lat="48.662965027615428" lon="-2.347844000905752">
        <ele>23.210000000000001</ele>
        <time>2018-07-05T11:40:53Z</time>
      </trkpt>
      <trkpt lat="48.662868971005082" lon="-2.347939973697066">
        <ele>22.73</ele>
        <time>2018-07-05T11:40:54Z</time>
      </trkpt>
      <trkpt lat="48.662774004042149" lon="-2.348036030307412">
        <ele>21.77</ele>
        <time>2018-07-05T11:40:55Z</time>
      </trkpt>
      <trkpt lat="48.662679037079215" lon="-2.348130997270346">
        <ele>21.289999999999999</ele>
        <time>2018-07-05T11:40:56Z</time>
      </trkpt>
      <trkpt lat="48.662576023489237" lon="-2.348178019747138">
        <ele>20.809999999999999</ele>
        <time>2018-07-05T11:40:57Z</time>
      </trkpt>
      <trkpt lat="48.662462029606104" lon="-2.348210960626602">
        <ele>19.84</ele>
        <time>2018-07-05T11:40:58Z</time>
      </trkpt>
      <trkpt lat="48.6623499635607" lon="-2.348242979496718">
        <ele>19.359999999999999</ele>
        <time>2018-07-05T11:40:59Z</time>
      </trkpt>
      <trkpt lat="48.662238987162709" lon="-2.348274998366833">
        <ele>18.879999999999999</ele>
        <time>2018-07-05T11:41:00Z</time>
      </trkpt>
      <trkpt lat="48.66213203407824" lon="-2.348271980881691">
        <ele>18.399999999999999</ele>
        <time>2018-07-05T11:41:01Z</time>
      </trkpt>
      <trkpt lat="48.662018962204456" lon="-2.348251026123762">
        <ele>17.920000000000002</ele>
        <time>2018-07-05T11:41:02Z</time>
      </trkpt>
      <trkpt lat="48.661909997463226" lon="-2.348214983940125">
        <ele>17.440000000000001</ele>
        <time>2018-07-05T11:41:03Z</time>
      </trkpt>
      <trkpt lat="48.661801032721996" lon="-2.348163016140461">
        <ele>16.48</ele>
        <time>2018-07-05T11:41:04Z</time>
      </trkpt>
      <trkpt lat="48.660629997029901" lon="-2.347563039511442">
        <ele>16.960000000000001</ele>
        <time>2018-07-05T11:41:15Z</time>
      </trkpt>
      <trkpt lat="48.659194009378552" lon="-2.3470229934901">
        <ele>26.09</ele>
        <time>2018-07-05T11:41:26Z</time>
      </trkpt>
      <trkpt lat="48.658020040020347" lon="-2.347357012331486">
        <ele>32.82</ele>
        <time>2018-07-05T11:41:36Z</time>
      </trkpt>
      <trkpt lat="48.65704296156764" lon="-2.34835403971374">
        <ele>32.340000000000003</ele>
        <time>2018-07-05T11:41:45Z</time>
      </trkpt>
      <trkpt lat="48.656209968030453" lon="-2.350035030394793">
        <ele>28.02</ele>
        <time>2018-07-05T11:41:55Z</time>
      </trkpt>
      <trkpt lat="48.655217969790101" lon="-2.351811993867159">
        <ele>26.57</ele>
        <time>2018-07-05T11:42:06Z</time>
      </trkpt>
      <trkpt lat="48.653853982686996" lon="-2.353589963167906">
        <ele>24.170000000000002</ele>
        <time>2018-07-05T11:42:17Z</time>
      </trkpt>
      <trkpt lat="48.65270096808672" lon="-2.354915980249643">
        <ele>28.02</ele>
        <time>2018-07-05T11:42:26Z</time>
      </trkpt>
      <trkpt lat="48.652209034189582" lon="-2.355319987982512">
        <ele>29.940000000000001</ele>
        <time>2018-07-05T11:42:30Z</time>
      </trkpt>
      <trkpt lat="48.652108032256365" lon="-2.355428030714393">
        <ele>29.940000000000001</ele>
        <time>2018-07-05T11:42:31Z</time>
      </trkpt>
      <trkpt lat="48.651546025648713" lon="-2.356426985934377">
        <ele>30.899999999999999</ele>
        <time>2018-07-05T11:42:39Z</time>
      </trkpt>
      <trkpt lat="48.651405964046717" lon="-2.356876004487276">
        <ele>31.379999999999999</ele>
        <time>2018-07-05T11:42:42Z</time>
      </trkpt>
      <trkpt lat="48.651343015953898" lon="-2.357375985011458">
        <ele>31.859999999999999</ele>
        <time>2018-07-05T11:42:45Z</time>
      </trkpt>
      <trkpt lat="48.651333963498473" lon="-2.357926005497575">
        <ele>32.82</ele>
        <time>2018-07-05T11:42:48Z</time>
      </trkpt>
      <trkpt lat="48.651565974578261" lon="-2.359641026705504">
        <ele>39.07</ele>
        <time>2018-07-05T11:42:57Z</time>
      </trkpt>
      <trkpt lat="48.651955984532833" lon="-2.361541958525777">
        <ele>46.759999999999998</ele>
        <time>2018-07-05T11:43:07Z</time>
      </trkpt>
      <trkpt lat="48.652594015002251" lon="-2.363719996064901">
        <ele>44.359999999999999</ele>
        <time>2018-07-05T11:43:19Z</time>
      </trkpt>
      <trkpt lat="48.653232967481017" lon="-2.365449015051127">
        <ele>40.030000000000001</ele>
        <time>2018-07-05T11:43:30Z</time>
      </trkpt>
      <trkpt lat="48.653675029054284" lon="-2.366471020504832">
        <ele>39.07</ele>
        <time>2018-07-05T11:43:38Z</time>
      </trkpt>
      <trkpt lat="48.653758009895682" lon="-2.366554001346231">
        <ele>38.590000000000003</ele>
        <time>2018-07-05T11:43:39Z</time>
      </trkpt>
      <trkpt lat="48.653844008222222" lon="-2.366641005501151">
        <ele>38.590000000000003</ele>
        <time>2018-07-05T11:43:40Z</time>
      </trkpt>
      <trkpt lat="48.653935035690665" lon="-2.366731027141213">
        <ele>38.590000000000003</ele>
        <time>2018-07-05T11:43:41Z</time>
      </trkpt>
      <trkpt lat="48.654049029573798" lon="-2.366846026852727">
        <ele>38.109999999999999</ele>
        <time>2018-07-05T11:43:42Z</time>
      </trkpt>
      <trkpt lat="48.654147014021873" lon="-2.366866981610656">
        <ele>37.630000000000003</ele>
        <time>2018-07-05T11:43:43Z</time>
      </trkpt>
      <trkpt lat="48.654268970713019" lon="-2.366893971338868">
        <ele>37.630000000000003</ele>
        <time>2018-07-05T11:43:44Z</time>
      </trkpt>
      <trkpt lat="48.654391011223197" lon="-2.366921966895461">
        <ele>37.149999999999999</ele>
        <time>2018-07-05T11:43:45Z</time>
      </trkpt>
      <trkpt lat="48.654957041144371" lon="-2.367074014618993">
        <ele>35.229999999999997</ele>
        <time>2018-07-05T11:43:51Z</time>
      </trkpt>
      <trkpt lat="48.655002973973751" lon="-2.367093041539192">
        <ele>34.740000000000002</ele>
        <time>2018-07-05T11:43:52Z</time>
      </trkpt>
      <trkpt lat="48.65504496730864" lon="-2.367110978811979">
        <ele>34.740000000000002</ele>
        <time>2018-07-05T11:43:53Z</time>
      </trkpt>
      <trkpt lat="48.655196009203792" lon="-2.367222039029002">
        <ele>34.259999999999998</ele>
        <time>2018-07-05T11:44:02Z</time>
      </trkpt>
      <trkpt lat="48.655196009203792" lon="-2.367222039029002">
        <ele>34.259999999999998</ele>
        <time>2018-07-05T11:44:25Z</time>
      </trkpt>
      <trkpt lat="48.655245965346694" lon="-2.367299990728498">
        <ele>35.710000000000001</ele>
        <time>2018-07-05T11:50:12Z</time>
      </trkpt>
      <trkpt lat="48.655270021408796" lon="-2.367190020158887">
        <ele>37.149999999999999</ele>
        <time>2018-07-05T11:50:51Z</time>
      </trkpt>
      <trkpt lat="48.655242025852203" lon="-2.367168981581926">
        <ele>36.670000000000002</ele>
        <time>2018-07-05T11:51:41Z</time>
      </trkpt>
      <trkpt lat="48.655245965346694" lon="-2.367177028208971">
        <ele>37.630000000000003</ele>
        <time>2018-07-05T11:52:32Z</time>
      </trkpt>
      <trkpt lat="48.655374040827155" lon="-2.367405015975237">
        <ele>38.590000000000003</ele>
        <time>2018-07-05T11:52:44Z</time>
      </trkpt>
      <trkpt lat="48.655595993623137" lon="-2.367797959595919">
        <ele>39.07</ele>
        <time>2018-07-05T11:52:48Z</time>
      </trkpt>
      <trkpt lat="48.655715016648173" lon="-2.368487035855651">
        <ele>40.030000000000001</ele>
        <time>2018-07-05T11:52:53Z</time>
      </trkpt>
      <trkpt lat="48.655722979456186" lon="-2.368627013638616">
        <ele>40.509999999999998</ele>
        <time>2018-07-05T11:52:54Z</time>
      </trkpt>
      <trkpt lat="48.655700013041496" lon="-2.368788029998541">
        <ele>40.030000000000001</ele>
        <time>2018-07-05T11:52:55Z</time>
      </trkpt>
      <trkpt lat="48.655676962807775" lon="-2.368960026651621">
        <ele>40.030000000000001</ele>
        <time>2018-07-05T11:52:56Z</time>
      </trkpt>
      <trkpt lat="48.655651984736323" lon="-2.369136968627572">
        <ele>39.07</ele>
        <time>2018-07-05T11:52:57Z</time>
      </trkpt>
      <trkpt lat="48.655614014714956" lon="-2.3693030141294">
        <ele>38.590000000000003</ele>
        <time>2018-07-05T11:52:58Z</time>
      </trkpt>
      <trkpt lat="48.655545031651855" lon="-2.369465958327055">
        <ele>38.109999999999999</ele>
        <time>2018-07-05T11:52:59Z</time>
      </trkpt>
      <trkpt lat="48.654911024495959" lon="-2.37093597650528">
        <ele>38.590000000000003</ele>
        <time>2018-07-05T11:53:08Z</time>
      </trkpt>
      <trkpt lat="48.65482997149229" lon="-2.371099004521966">
        <ele>39.07</ele>
        <time>2018-07-05T11:53:09Z</time>
      </trkpt>
      <trkpt lat="48.654707008972764" lon="-2.371221967041493">
        <ele>38.590000000000003</ele>
        <time>2018-07-05T11:53:10Z</time>
      </trkpt>
      <trkpt lat="48.654582034796476" lon="-2.371338978409767">
        <ele>38.109999999999999</ele>
        <time>2018-07-05T11:53:11Z</time>
      </trkpt>
      <trkpt lat="48.654452031478286" lon="-2.371425982564688">
        <ele>38.109999999999999</ele>
        <time>2018-07-05T11:53:12Z</time>
      </trkpt>
      <trkpt lat="48.654309036210179" lon="-2.371456995606422">
        <ele>37.630000000000003</ele>
        <time>2018-07-05T11:53:13Z</time>
      </trkpt>
      <trkpt lat="48.65416101180017" lon="-2.371483985334635">
        <ele>37.149999999999999</ele>
        <time>2018-07-05T11:53:14Z</time>
      </trkpt>
      <trkpt lat="48.654017010703683" lon="-2.371499994769692">
        <ele>36.670000000000002</ele>
        <time>2018-07-05T11:53:15Z</time>
      </trkpt>
      <trkpt lat="48.653870997950435" lon="-2.37151499837637">
        <ele>36.189999999999998</ele>
        <time>2018-07-05T11:53:16Z</time>
      </trkpt>
      <trkpt lat="48.653725991025567" lon="-2.371560009196401">
        <ele>34.740000000000002</ele>
        <time>2018-07-05T11:53:17Z</time>
      </trkpt>
      <trkpt lat="48.653584001585841" lon="-2.371646007522941">
        <ele>33.299999999999997</ele>
        <time>2018-07-05T11:53:18Z</time>
      </trkpt>
      <trkpt lat="48.653455004096031" lon="-2.37177399918437">
        <ele>31.859999999999999</ele>
        <time>2018-07-05T11:53:19Z</time>
      </trkpt>
      <trkpt lat="48.653337992727757" lon="-2.371936021372676">
        <ele>30.420000000000002</ele>
        <time>2018-07-05T11:53:20Z</time>
      </trkpt>
      <trkpt lat="48.653220981359482" lon="-2.372110029682517">
        <ele>28.5</ele>
        <time>2018-07-05T11:53:21Z</time>
      </trkpt>
      <trkpt lat="48.653104975819588" lon="-2.372284037992358">
        <ele>27.050000000000001</ele>
        <time>2018-07-05T11:53:22Z</time>
      </trkpt>
      <trkpt lat="48.652999028563499" lon="-2.372474977746606">
        <ele>25.129999999999999</ele>
        <time>2018-07-05T11:53:23Z</time>
      </trkpt>
      <trkpt lat="48.6525500100106" lon="-2.373279975727201">
        <ele>19.359999999999999</ele>
        <time>2018-07-05T11:53:27Z</time>
      </trkpt>
      <trkpt lat="48.652414977550507" lon="-2.373415008187294">
        <ele>18.399999999999999</ele>
        <time>2018-07-05T11:53:28Z</time>
      </trkpt>
      <trkpt lat="48.652284974232316" lon="-2.373545011505485">
        <ele>17.920000000000002</ele>
        <time>2018-07-05T11:53:29Z</time>
      </trkpt>
      <trkpt lat="48.652130998671055" lon="-2.373598990961909">
        <ele>17.920000000000002</ele>
        <time>2018-07-05T11:53:30Z</time>
      </trkpt>
      <trkpt lat="48.651980040594935" lon="-2.373625980690122">
        <ele>18.399999999999999</ele>
        <time>2018-07-05T11:53:31Z</time>
      </trkpt>
      <trkpt lat="48.651838973164558" lon="-2.373625980690122">
        <ele>19.359999999999999</ele>
        <time>2018-07-05T11:53:32Z</time>
      </trkpt>
      <trkpt lat="48.65168902091682" lon="-2.373564038425684">
        <ele>20.809999999999999</ele>
        <time>2018-07-05T11:53:33Z</time>
      </trkpt>
      <trkpt lat="48.651548037305474" lon="-2.373502012342215">
        <ele>22.25</ele>
        <time>2018-07-05T11:53:34Z</time>
      </trkpt>
      <trkpt lat="48.651409987360239" lon="-2.373433029279113">
        <ele>24.170000000000002</ele>
        <time>2018-07-05T11:53:35Z</time>
      </trkpt>
      <trkpt lat="48.651275038719177" lon="-2.373365974053741">
        <ele>26.09</ele>
        <time>2018-07-05T11:53:36Z</time>
      </trkpt>
      <trkpt lat="48.651141012087464" lon="-2.373339990153909">
        <ele>27.530000000000001</ele>
        <time>2018-07-05T11:53:37Z</time>
      </trkpt>
      <trkpt lat="48.65100497379899" lon="-2.373329009860754">
        <ele>29.460000000000001</ele>
        <time>2018-07-05T11:53:38Z</time>
      </trkpt>
      <trkpt lat="48.650867007672787" lon="-2.373361028730869">
        <ele>30.899999999999999</ele>
        <time>2018-07-05T11:53:39Z</time>
      </trkpt>
      <trkpt lat="48.650732981041074" lon="-2.373412996530533">
        <ele>32.340000000000003</ele>
        <time>2018-07-05T11:53:40Z</time>
      </trkpt>
      <trkpt lat="48.650611024349928" lon="-2.37351399846375">
        <ele>33.780000000000001</ele>
        <time>2018-07-05T11:53:41Z</time>
      </trkpt>
      <trkpt lat="48.650501975789666" lon="-2.373637966811657">
        <ele>35.229999999999997</ele>
        <time>2018-07-05T11:53:42Z</time>
      </trkpt>
      <trkpt lat="48.650390999391675" lon="-2.373780962079763">
        <ele>36.670000000000002</ele>
        <time>2018-07-05T11:53:43Z</time>
      </trkpt>
      <trkpt lat="48.650323022156954" lon="-2.37396402284503">
        <ele>37.630000000000003</ele>
        <time>2018-07-05T11:53:44Z</time>
      </trkpt>
      <trkpt lat="48.650253033265471" lon="-2.374149011448026">
        <ele>39.07</ele>
        <time>2018-07-05T11:53:45Z</time>
      </trkpt>
      <trkpt lat="48.649397995322943" lon="-2.376426039263606">
        <ele>51.57</ele>
        <time>2018-07-05T11:53:56Z</time>
      </trkpt>
      <trkpt lat="48.648799024522305" lon="-2.378210965543985">
        <ele>52.530000000000001</ele>
        <time>2018-07-05T11:54:04Z</time>
      </trkpt>
      <trkpt lat="48.648744961246848" lon="-2.378435013815761">
        <ele>52.530000000000001</ele>
        <time>2018-07-05T11:54:05Z</time>
      </trkpt>
      <trkpt lat="48.648720989003778" lon="-2.378679011017084">
        <ele>52.049999999999997</ele>
        <time>2018-07-05T11:54:06Z</time>
      </trkpt>
      <trkpt lat="48.648696010932326" lon="-2.378928037360311">
        <ele>52.049999999999997</ele>
        <time>2018-07-05T11:54:07Z</time>
      </trkpt>
      <trkpt lat="48.648672038689256" lon="-2.379181003198028">
        <ele>52.049999999999997</ele>
        <time>2018-07-05T11:54:08Z</time>
      </trkpt>
      <trkpt lat="48.648678995668888" lon="-2.379447966814041">
        <ele>51.57</ele>
        <time>2018-07-05T11:54:09Z</time>
      </trkpt>
      <trkpt lat="48.648701962083578" lon="-2.379710990935564">
        <ele>51.57</ele>
        <time>2018-07-05T11:54:10Z</time>
      </trkpt>
      <trkpt lat="48.64872601814568" lon="-2.379979966208339">
        <ele>51.090000000000003</ele>
        <time>2018-07-05T11:54:11Z</time>
      </trkpt>
      <trkpt lat="48.64879198372364" lon="-2.381341019645333">
        <ele>49.649999999999999</ele>
        <time>2018-07-05T11:54:16Z</time>
      </trkpt>
      <trkpt lat="48.648767005652189" lon="-2.381604965776205">
        <ele>49.649999999999999</ele>
        <time>2018-07-05T11:54:17Z</time>
      </trkpt>
      <trkpt lat="48.648732975125313" lon="-2.381876036524773">
        <ele>49.649999999999999</ele>
        <time>2018-07-05T11:54:18Z</time>
      </trkpt>
      <trkpt lat="48.648690981790423" lon="-2.38214903511107">
        <ele>50.130000000000003</ele>
        <time>2018-07-05T11:54:19Z</time>
      </trkpt>
      <trkpt lat="48.648629961535335" lon="-2.382421027868986">
        <ele>50.130000000000003</ele>
        <time>2018-07-05T11:54:20Z</time>
      </trkpt>
      <trkpt lat="48.647929988801479" lon="-2.385540017858148">
        <ele>53.009999999999998</ele>
        <time>2018-07-05T11:54:32Z</time>
      </trkpt>
      <trkpt lat="48.647201014682651" lon="-2.388377040624619">
        <ele>55.890000000000001</ele>
        <time>2018-07-05T11:54:43Z</time>
      </trkpt>
      <trkpt lat="48.646359974518418" lon="-2.389804981648922">
        <ele>60.700000000000003</ele>
        <time>2018-07-05T11:54:50Z</time>
      </trkpt>
      <trkpt lat="48.645207965746522" lon="-2.390727996826172">
        <ele>61.659999999999997</ele>
        <time>2018-07-05T11:54:57Z</time>
      </trkpt>
      <trkpt lat="48.643294963985682" lon="-2.391402991488576">
        <ele>50.609999999999999</ele>
        <time>2018-07-05T11:55:07Z</time>
      </trkpt>
      <trkpt lat="48.642574958503246" lon="-2.391755031421781">
        <ele>44.840000000000003</ele>
        <time>2018-07-05T11:55:11Z</time>
      </trkpt>
      <trkpt lat="48.64240899682045" lon="-2.391878999769688">
        <ele>43.880000000000003</ele>
        <time>2018-07-05T11:55:12Z</time>
      </trkpt>
      <trkpt lat="48.642256027087569" lon="-2.392043033614755">
        <ele>42.920000000000002</ele>
        <time>2018-07-05T11:55:13Z</time>
      </trkpt>
      <trkpt lat="48.642110014334321" lon="-2.392215030267835">
        <ele>41.950000000000003</ele>
        <time>2018-07-05T11:55:14Z</time>
      </trkpt>
      <trkpt lat="48.641971964389086" lon="-2.392403036355972">
        <ele>40.990000000000002</ele>
        <time>2018-07-05T11:55:15Z</time>
      </trkpt>
      <trkpt lat="48.641856964677572" lon="-2.392619038000703">
        <ele>40.030000000000001</ele>
        <time>2018-07-05T11:55:16Z</time>
      </trkpt>
      <trkpt lat="48.641752023249865" lon="-2.39285197108984">
        <ele>39.07</ele>
        <time>2018-07-05T11:55:17Z</time>
      </trkpt>
      <trkpt lat="48.641674993559718" lon="-2.39310703240335">
        <ele>38.109999999999999</ele>
        <time>2018-07-05T11:55:18Z</time>
      </trkpt>
      <trkpt lat="48.641603998839855" lon="-2.393371984362602">
        <ele>37.630000000000003</ele>
        <time>2018-07-05T11:55:19Z</time>
      </trkpt>
      <trkpt lat="48.641562005504966" lon="-2.393644982948899">
        <ele>36.670000000000002</ele>
        <time>2018-07-05T11:55:20Z</time>
      </trkpt>
      <trkpt lat="48.641533004119992" lon="-2.393932985141873">
        <ele>36.189999999999998</ele>
        <time>2018-07-05T11:55:21Z</time>
      </trkpt>
      <trkpt lat="48.641502996906638" lon="-2.394224004819989">
        <ele>35.229999999999997</ele>
        <time>2018-07-05T11:55:22Z</time>
      </trkpt>
      <trkpt lat="48.641482964158058" lon="-2.394508989527822">
        <ele>34.740000000000002</ele>
        <time>2018-07-05T11:55:23Z</time>
      </trkpt>
      <trkpt lat="48.641427978873253" lon="-2.39587901160121">
        <ele>31.379999999999999</ele>
        <time>2018-07-05T11:55:29Z</time>
      </trkpt>
      <trkpt lat="48.641358995810151" lon="-2.397520020604134">
        <ele>25.609999999999999</ele>
        <time>2018-07-05T11:55:40Z</time>
      </trkpt>
      <trkpt lat="48.641280038282275" lon="-2.399200005456805">
        <ele>20.809999999999999</ele>
        <time>2018-07-05T11:55:51Z</time>
      </trkpt>
      <trkpt lat="48.641226980835199" lon="-2.400339022278786">
        <ele>19.359999999999999</ele>
        <time>2018-07-05T11:56:00Z</time>
      </trkpt>
      <trkpt lat="48.641131008043885" lon="-2.401971984654665">
        <ele>14.56</ele>
        <time>2018-07-05T11:56:10Z</time>
      </trkpt>
      <trkpt lat="48.6410559900105" lon="-2.403108989819884">
        <ele>14.56</ele>
        <time>2018-07-05T11:56:18Z</time>
      </trkpt>
      <trkpt lat="48.641046015545726" lon="-2.403259025886655">
        <ele>14.56</ele>
        <time>2018-07-05T11:56:19Z</time>
      </trkpt>
      <trkpt lat="48.641020031645894" lon="-2.403319962322712">
        <ele>14.56</ele>
        <time>2018-07-05T11:56:20Z</time>
      </trkpt>
      <trkpt lat="48.640968985855579" lon="-2.403417024761438">
        <ele>14.56</ele>
        <time>2018-07-05T11:56:21Z</time>
      </trkpt>
      <trkpt lat="48.640903020277619" lon="-2.40346203558147">
        <ele>14.56</ele>
        <time>2018-07-05T11:56:22Z</time>
      </trkpt>
      <trkpt lat="48.640819033607841" lon="-2.403494976460934">
        <ele>14.56</ele>
        <time>2018-07-05T11:56:23Z</time>
      </trkpt>
      <trkpt lat="48.64073496311903" lon="-2.403494976460934">
        <ele>14.56</ele>
        <time>2018-07-05T11:56:24Z</time>
      </trkpt>
      <trkpt lat="48.640649970620871" lon="-2.403494976460934">
        <ele>14.56</ele>
        <time>2018-07-05T11:56:25Z</time>
      </trkpt>
      <trkpt lat="48.640573024749756" lon="-2.403494976460934">
        <ele>15.039999999999999</ele>
        <time>2018-07-05T11:56:26Z</time>
      </trkpt>
      <trkpt lat="48.640429023653269" lon="-2.403544010594487">
        <ele>16</ele>
        <time>2018-07-05T11:56:28Z</time>
      </trkpt>
      <trkpt lat="48.640361968427896" lon="-2.403601007536054">
        <ele>16.48</ele>
        <time>2018-07-05T11:56:29Z</time>
      </trkpt>
      <trkpt lat="48.640298014506698" lon="-2.403668984770775">
        <ele>16.48</ele>
        <time>2018-07-05T11:56:30Z</time>
      </trkpt>
      <trkpt lat="48.640231965109706" lon="-2.403737967833877">
        <ele>16.48</ele>
        <time>2018-07-05T11:56:31Z</time>
      </trkpt>
      <trkpt lat="48.640163987874985" lon="-2.40380996838212">
        <ele>16.48</ele>
        <time>2018-07-05T11:56:32Z</time>
      </trkpt>
      <trkpt lat="48.639564011245966" lon="-2.404465014114976">
        <ele>15.52</ele>
        <time>2018-07-05T11:56:41Z</time>
      </trkpt>
      <trkpt lat="48.638630015775561" lon="-2.405490959063172">
        <ele>12.630000000000001</ele>
        <time>2018-07-05T11:56:54Z</time>
      </trkpt>
      <trkpt lat="48.637921996414661" lon="-2.406299980357289">
        <ele>8.310000000000001</ele>
        <time>2018-07-05T11:57:05Z</time>
      </trkpt>
      <trkpt lat="48.637629970908165" lon="-2.406724020838738">
        <ele>7.35</ele>
        <time>2018-07-05T11:57:11Z</time>
      </trkpt>
      <trkpt lat="48.637547995895147" lon="-2.406756961718202">
        <ele>6.87</ele>
        <time>2018-07-05T11:57:12Z</time>
      </trkpt>
      <trkpt lat="48.636892028152943" lon="-2.407512003555894">
        <ele>4.94</ele>
        <time>2018-07-05T11:57:21Z</time>
      </trkpt>
      <trkpt lat="48.63598401658237" lon="-2.408485980704427">
        <ele>3.02</ele>
        <time>2018-07-05T11:57:31Z</time>
      </trkpt>
      <trkpt lat="48.634914988651872" lon="-2.409635977819562">
        <ele>4.94</ele>
        <time>2018-07-05T11:57:42Z</time>
      </trkpt>
      <trkpt lat="48.634523972868919" lon="-2.410055994987488">
        <ele>5.91</ele>
        <time>2018-07-05T11:57:46Z</time>
      </trkpt>
      <trkpt lat="48.633351009339094" lon="-2.410783041268587">
        <ele>9.75</ele>
        <time>2018-07-05T11:57:57Z</time>
      </trkpt>
      <trkpt lat="48.632726976647973" lon="-2.410930981859565">
        <ele>11.19</ele>
        <time>2018-07-05T11:58:03Z</time>
      </trkpt>
      <trkpt lat="48.631617967039347" lon="-2.410931987687945">
        <ele>16.960000000000001</ele>
        <time>2018-07-05T11:58:12Z</time>
      </trkpt>
      <trkpt lat="48.629773026332259" lon="-2.410783963277936">
        <ele>29.940000000000001</ele>
        <time>2018-07-05T11:58:25Z</time>
      </trkpt>
      <trkpt lat="48.628150038421154" lon="-2.41057600826025">
        <ele>40.509999999999998</ele>
        <time>2018-07-05T11:58:36Z</time>
      </trkpt>
      <trkpt lat="48.626807006075978" lon="-2.410151967778802">
        <ele>43.880000000000003</ele>
        <time>2018-07-05T11:58:44Z</time>
      </trkpt>
      <trkpt lat="48.624921999871731" lon="-2.409610999748111">
        <ele>47.240000000000002</ele>
        <time>2018-07-05T11:58:57Z</time>
      </trkpt>
      <trkpt lat="48.624636009335518" lon="-2.409610999748111">
        <ele>47.719999999999999</ele>
        <time>2018-07-05T11:58:59Z</time>
      </trkpt>
      <trkpt lat="48.62448999658227" lon="-2.409622985869646">
        <ele>47.719999999999999</ele>
        <time>2018-07-05T11:59:00Z</time>
      </trkpt>
      <trkpt lat="48.624349012970924" lon="-2.40967595949769">
        <ele>48.200000000000003</ele>
        <time>2018-07-05T11:59:01Z</time>
      </trkpt>
      <trkpt lat="48.623189963400364" lon="-2.410593023523688">
        <ele>49.649999999999999</ele>
        <time>2018-07-05T11:59:09Z</time>
      </trkpt>
      <trkpt lat="48.621373018249869" lon="-2.412408962845802">
        <ele>50.130000000000003</ele>
        <time>2018-07-05T11:59:20Z</time>
      </trkpt>
      <trkpt lat="48.620277000591159" lon="-2.413909994065762">
        <ele>49.159999999999997</ele>
        <time>2018-07-05T11:59:28Z</time>
      </trkpt>
      <trkpt lat="48.619997967034578" lon="-2.414384996518493">
        <ele>48.68</ele>
        <time>2018-07-05T11:59:31Z</time>
      </trkpt>
      <trkpt lat="48.619945999234915" lon="-2.414526985958219">
        <ele>48.68</ele>
        <time>2018-07-05T11:59:32Z</time>
      </trkpt>
      <trkpt lat="48.619894031435251" lon="-2.414670987054706">
        <ele>48.200000000000003</ele>
        <time>2018-07-05T11:59:33Z</time>
      </trkpt>
      <trkpt lat="48.619839968159795" lon="-2.414854969829321">
        <ele>48.200000000000003</ele>
        <time>2018-07-05T11:59:34Z</time>
      </trkpt>
      <trkpt lat="48.619820019230247" lon="-2.415054962038994">
        <ele>48.200000000000003</ele>
        <time>2018-07-05T11:59:35Z</time>
      </trkpt>
      <trkpt lat="48.61963695846498" lon="-2.416883977130055">
        <ele>45.32</ele>
        <time>2018-07-05T11:59:42Z</time>
      </trkpt>
      <trkpt lat="48.619242003187537" lon="-2.421001000329852">
        <ele>41.469999999999999</ele>
        <time>2018-07-05T11:59:55Z</time>
      </trkpt>
      <trkpt lat="48.618977973237634" lon="-2.424847958609462">
        <ele>43.399999999999999</ele>
        <time>2018-07-05T12:00:07Z</time>
      </trkpt>
      <trkpt lat="48.618735987693071" lon="-2.427968038246036">
        <ele>43.399999999999999</ele>
        <time>2018-07-05T12:00:17Z</time>
      </trkpt>
      <trkpt lat="48.618583017960191" lon="-2.431580973789096">
        <ele>31.859999999999999</ele>
        <time>2018-07-05T12:00:29Z</time>
      </trkpt>
      <trkpt lat="48.618851993232965" lon="-2.432959964498878">
        <ele>31.379999999999999</ele>
        <time>2018-07-05T12:00:34Z</time>
      </trkpt>
      <trkpt lat="48.619782971218228" lon="-2.434944966807962">
        <ele>36.670000000000002</ele>
        <time>2018-07-05T12:00:42Z</time>
      </trkpt>
      <trkpt lat="48.620980996638536" lon="-2.437032982707024">
        <ele>42.920000000000002</ele>
        <time>2018-07-05T12:00:52Z</time>
      </trkpt>
      <trkpt lat="48.621523976325989" lon="-2.437961027026177">
        <ele>47.240000000000002</ele>
        <time>2018-07-05T12:00:59Z</time>
      </trkpt>
      <trkpt lat="48.621575022116303" lon="-2.438065968453884">
        <ele>47.719999999999999</ele>
        <time>2018-07-05T12:01:00Z</time>
      </trkpt>
      <trkpt lat="48.621627995744348" lon="-2.438150960952044">
        <ele>48.68</ele>
        <time>2018-07-05T12:01:01Z</time>
      </trkpt>
      <trkpt lat="48.621850032359362" lon="-2.438310971483588">
        <ele>50.130000000000003</ele>
        <time>2018-07-05T12:01:04Z</time>
      </trkpt>
      <trkpt lat="48.621899988502264" lon="-2.438396969810128">
        <ele>50.130000000000003</ele>
        <time>2018-07-05T12:01:05Z</time>
      </trkpt>
      <trkpt lat="48.621905017644167" lon="-2.438529990613461">
        <ele>50.130000000000003</ele>
        <time>2018-07-05T12:01:06Z</time>
      </trkpt>
      <trkpt lat="48.621897976845503" lon="-2.438643984496594">
        <ele>50.130000000000003</ele>
        <time>2018-07-05T12:01:07Z</time>
      </trkpt>
      <trkpt lat="48.621862018480897" lon="-2.438752027228475">
        <ele>49.649999999999999</ele>
        <time>2018-07-05T12:01:08Z</time>
      </trkpt>
      <trkpt lat="48.621840979903936" lon="-2.438814975321293">
        <ele>49.649999999999999</ele>
        <time>2018-07-05T12:01:09Z</time>
      </trkpt>
      <trkpt lat="48.621698990464211" lon="-2.438918994739652">
        <ele>49.649999999999999</ele>
        <time>2018-07-05T12:01:10Z</time>
      </trkpt>
      <trkpt lat="48.621652973815799" lon="-2.439056038856506">
        <ele>49.649999999999999</ele>
        <time>2018-07-05T12:01:11Z</time>
      </trkpt>
      <trkpt lat="48.621603017672896" lon="-2.439205991104245">
        <ele>49.649999999999999</ele>
        <time>2018-07-05T12:01:12Z</time>
      </trkpt>
      <trkpt lat="48.621557001024485" lon="-2.439372036606073">
        <ele>49.649999999999999</ele>
        <time>2018-07-05T12:01:13Z</time>
      </trkpt>
      <trkpt lat="48.621023995801806" lon="-2.440752033144236">
        <ele>50.130000000000003</ele>
        <time>2018-07-05T12:01:20Z</time>
      </trkpt>
      <trkpt lat="48.619981035590172" lon="-2.442785985767841">
        <ele>50.609999999999999</ele>
        <time>2018-07-05T12:01:29Z</time>
      </trkpt>
      <trkpt lat="48.617597976699471" lon="-2.446525990962982">
        <ele>54.93</ele>
        <time>2018-07-05T12:01:46Z</time>
      </trkpt>
      <trkpt lat="48.616955000907183" lon="-2.447258988395333">
        <ele>55.409999999999997</ele>
        <time>2018-07-05T12:01:50Z</time>
      </trkpt>
      <trkpt lat="48.6167779751122" lon="-2.447399972006679">
        <ele>55.409999999999997</ele>
        <time>2018-07-05T12:01:51Z</time>
      </trkpt>
      <trkpt lat="48.616589969024062" lon="-2.447502985596657">
        <ele>55.890000000000001</ele>
        <time>2018-07-05T12:01:52Z</time>
      </trkpt>
      <trkpt lat="48.616400035098195" lon="-2.447604993358254">
        <ele>55.890000000000001</ele>
        <time>2018-07-05T12:01:53Z</time>
      </trkpt>
      <trkpt lat="48.616204988211393" lon="-2.447677999734879">
        <ele>55.890000000000001</ele>
        <time>2018-07-05T12:01:54Z</time>
      </trkpt>
      <trkpt lat="48.616007007658482" lon="-2.447740025818348">
        <ele>55.890000000000001</ele>
        <time>2018-07-05T12:01:55Z</time>
      </trkpt>
      <trkpt lat="48.615806009620428" lon="-2.447752011939883">
        <ele>56.369999999999997</ele>
        <time>2018-07-05T12:01:56Z</time>
      </trkpt>
      <trkpt lat="48.615606017410755" lon="-2.447762992233038">
        <ele>56.859999999999999</ele>
        <time>2018-07-05T12:01:57Z</time>
      </trkpt>
      <trkpt lat="48.613013997673988" lon="-2.44819600135088">
        <ele>60.700000000000003</ele>
        <time>2018-07-05T12:02:10Z</time>
      </trkpt>
      <trkpt lat="48.610720038414001" lon="-2.449349015951157">
        <ele>65.510000000000005</ele>
        <time>2018-07-05T12:02:22Z</time>
      </trkpt>
      <trkpt lat="48.609381029382348" lon="-2.450733035802841">
        <ele>66.469999999999999</ele>
        <time>2018-07-05T12:02:30Z</time>
      </trkpt>
      <trkpt lat="48.607316985726357" lon="-2.453627977520227">
        <ele>69.349999999999994</ele>
        <time>2018-07-05T12:02:44Z</time>
      </trkpt>
      <trkpt lat="48.606037991121411" lon="-2.454447979107499">
        <ele>71.760000000000005</ele>
        <time>2018-07-05T12:02:51Z</time>
      </trkpt>
      <trkpt lat="48.604541989043355" lon="-2.455060025677085">
        <ele>74.159999999999997</ele>
        <time>2018-07-05T12:02:59Z</time>
      </trkpt>
      <trkpt lat="48.603582009673119" lon="-2.456355029717088">
        <ele>77.040000000000006</ele>
        <time>2018-07-05T12:03:06Z</time>
      </trkpt>
      <trkpt lat="48.601278997957706" lon="-2.460067039355636">
        <ele>81.849999999999994</ele>
        <time>2018-07-05T12:03:24Z</time>
      </trkpt>
      <trkpt lat="48.599752988666296" lon="-2.462908001616597">
        <ele>83.769999999999996</ele>
        <time>2018-07-05T12:03:37Z</time>
      </trkpt>
      <trkpt lat="48.599178995937109" lon="-2.465295000001788">
        <ele>84.25</ele>
        <time>2018-07-05T12:03:46Z</time>
      </trkpt>
      <trkpt lat="48.598233014345169" lon="-2.469568010419607">
        <ele>84.730000000000004</ele>
        <time>2018-07-05T12:04:02Z</time>
      </trkpt>
      <trkpt lat="48.598002009093761" lon="-2.471946962177753">
        <ele>87.140000000000001</ele>
        <time>2018-07-05T12:04:11Z</time>
      </trkpt>
      <trkpt lat="48.597994968295097" lon="-2.472353987395763">
        <ele>87.620000000000005</ele>
        <time>2018-07-05T12:04:14Z</time>
      </trkpt>
      <trkpt lat="48.597985999658704" lon="-2.472682977095246">
        <ele>88.099999999999994</ele>
        <time>2018-07-05T12:04:17Z</time>
      </trkpt>
      <trkpt lat="48.597980970516801" lon="-2.472870983183384">
        <ele>86.659999999999997</ele>
        <time>2018-07-05T12:04:23Z</time>
      </trkpt>
      <trkpt lat="48.598023969680071" lon="-2.473240960389376">
        <ele>86.180000000000007</ele>
        <time>2018-07-05T12:04:34Z</time>
      </trkpt>
      <trkpt lat="48.598036039620638" lon="-2.47333399951458">
        <ele>85.689999999999998</ele>
        <time>2018-07-05T12:04:35Z</time>
      </trkpt>
      <trkpt lat="48.598016006872058" lon="-2.473456962034106">
        <ele>85.689999999999998</ele>
        <time>2018-07-05T12:04:36Z</time>
      </trkpt>
      <trkpt lat="48.597504962235689" lon="-2.474483996629715">
        <ele>87.140000000000001</ele>
        <time>2018-07-05T12:04:45Z</time>
      </trkpt>
      <trkpt lat="48.597446959465742" lon="-2.474609976634383">
        <ele>87.140000000000001</ele>
        <time>2018-07-05T12:04:46Z</time>
      </trkpt>
      <trkpt lat="48.597389040514827" lon="-2.474734028801322">
        <ele>87.140000000000001</ele>
        <time>2018-07-05T12:04:47Z</time>
      </trkpt>
      <trkpt lat="48.59683801420033" lon="-2.476093992590904">
        <ele>89.540000000000006</ele>
        <time>2018-07-05T12:04:57Z</time>
      </trkpt>
      <trkpt lat="48.59612999483943" lon="-2.477561999112368">
        <ele>92.900000000000006</ele>
        <time>2018-07-05T12:05:08Z</time>
      </trkpt>
      <trkpt lat="48.595538986846805" lon="-2.479054983705282">
        <ele>92.900000000000006</ele>
        <time>2018-07-05T12:05:17Z</time>
      </trkpt>
      <trkpt lat="48.594882013276219" lon="-2.480937978252769">
        <ele>92.900000000000006</ele>
        <time>2018-07-05T12:05:27Z</time>
      </trkpt>
      <trkpt lat="48.594236019998789" lon="-2.482757018879056">
        <ele>95.790000000000006</ele>
        <time>2018-07-05T12:05:34Z</time>
      </trkpt>
      <trkpt lat="48.593575023114681" lon="-2.485002027824521">
        <ele>100.11</ele>
        <time>2018-07-05T12:05:42Z</time>
      </trkpt>
      <trkpt lat="48.593235975131392" lon="-2.487469995394349">
        <ele>105.40000000000001</ele>
        <time>2018-07-05T12:05:51Z</time>
      </trkpt>
      <trkpt lat="48.592431982979178" lon="-2.490626033395529">
        <ele>109.73</ele>
        <time>2018-07-05T12:06:03Z</time>
      </trkpt>
      <trkpt lat="48.59133898280561" lon="-2.492916975170374">
        <ele>114.53</ele>
        <time>2018-07-05T12:06:13Z</time>
      </trkpt>
      <trkpt lat="48.59028697013855" lon="-2.495566997677088">
        <ele>118.86</ele>
        <time>2018-07-05T12:06:24Z</time>
      </trkpt>
      <trkpt lat="48.589333025738597" lon="-2.498925039544702">
        <ele>119.34</ele>
        <time>2018-07-05T12:06:37Z</time>
      </trkpt>
      <trkpt lat="48.588585024699569" lon="-2.500518020242453">
        <ele>118.38</ele>
        <time>2018-07-05T12:06:45Z</time>
      </trkpt>
      <trkpt lat="48.587778015062213" lon="-2.501863986253738">
        <ele>117.42</ele>
        <time>2018-07-05T12:06:54Z</time>
      </trkpt>
      <trkpt lat="48.587727975100279" lon="-2.50197202898562">
        <ele>117.42</ele>
        <time>2018-07-05T12:06:55Z</time>
      </trkpt>
      <trkpt lat="48.587708026170731" lon="-2.502109995111823">
        <ele>117.90000000000001</ele>
        <time>2018-07-05T12:06:56Z</time>
      </trkpt>
      <trkpt lat="48.587715988978744" lon="-2.50223002396524">
        <ele>117.90000000000001</ele>
        <time>2018-07-05T12:06:57Z</time>
      </trkpt>
      <trkpt lat="48.587700985372066" lon="-2.502368995919824">
        <ele>117.90000000000001</ele>
        <time>2018-07-05T12:06:58Z</time>
      </trkpt>
      <trkpt lat="48.587647005915642" lon="-2.502463040873408">
        <ele>117.90000000000001</ele>
        <time>2018-07-05T12:06:59Z</time>
      </trkpt>
      <trkpt lat="48.587558995932341" lon="-2.502492964267731">
        <ele>117.90000000000001</ele>
        <time>2018-07-05T12:07:00Z</time>
      </trkpt>
      <trkpt lat="48.587485989555717" lon="-2.502481983974576">
        <ele>117.90000000000001</ele>
        <time>2018-07-05T12:07:01Z</time>
      </trkpt>
      <trkpt lat="48.587416000664234" lon="-2.502423981204629">
        <ele>117.90000000000001</ele>
        <time>2018-07-05T12:07:02Z</time>
      </trkpt>
      <trkpt lat="48.587379958480597" lon="-2.502393973991275">
        <ele>117.90000000000001</ele>
        <time>2018-07-05T12:07:03Z</time>
      </trkpt>
      <trkpt lat="48.587266970425844" lon="-2.502237986773253">
        <ele>117.90000000000001</ele>
        <time>2018-07-05T12:07:04Z</time>
      </trkpt>
      <trkpt lat="48.587205028161407" lon="-2.502250978723168">
        <ele>118.38</ele>
        <time>2018-07-05T12:07:05Z</time>
      </trkpt>
      <trkpt lat="48.587144007906318" lon="-2.502264976501465">
        <ele>118.38</ele>
        <time>2018-07-05T12:07:06Z</time>
      </trkpt>
      <trkpt lat="48.587038982659578" lon="-2.502311998978257">
        <ele>118.38</ele>
        <time>2018-07-05T12:07:07Z</time>
      </trkpt>
      <trkpt lat="48.58693496324122" lon="-2.50235902145505">
        <ele>118.38</ele>
        <time>2018-07-05T12:07:08Z</time>
      </trkpt>
      <trkpt lat="48.586000967770815" lon="-2.502755988389254">
        <ele>117.90000000000001</ele>
        <time>2018-07-05T12:07:15Z</time>
      </trkpt>
      <trkpt lat="48.585856966674328" lon="-2.502749031409621">
        <ele>117.90000000000001</ele>
        <time>2018-07-05T12:07:16Z</time>
      </trkpt>
      <trkpt lat="48.585707014426589" lon="-2.502741990610957">
        <ele>117.90000000000001</ele>
        <time>2018-07-05T12:07:17Z</time>
      </trkpt>
      <trkpt lat="48.585556978359818" lon="-2.502719024196267">
        <ele>117.42</ele>
        <time>2018-07-05T12:07:18Z</time>
      </trkpt>
      <trkpt lat="48.58541096560657" lon="-2.502658003941178">
        <ele>117.42</ele>
        <time>2018-07-05T12:07:19Z</time>
      </trkpt>
      <trkpt lat="48.585263025015593" lon="-2.502595977857709">
        <ele>117.42</ele>
        <time>2018-07-05T12:07:20Z</time>
      </trkpt>
      <trkpt lat="48.585122041404247" lon="-2.502501010894775">
        <ele>117.42</ele>
        <time>2018-07-05T12:07:21Z</time>
      </trkpt>
      <trkpt lat="48.584988014772534" lon="-2.502375030890107">
        <ele>117.42</ele>
        <time>2018-07-05T12:07:22Z</time>
      </trkpt>
      <trkpt lat="48.583545992150903" lon="-2.500958992168307">
        <ele>119.34</ele>
        <time>2018-07-05T12:07:32Z</time>
      </trkpt>
      <trkpt lat="48.582274038344622" lon="-2.499639010056853">
        <ele>122.70999999999999</ele>
        <time>2018-07-05T12:07:41Z</time>
      </trkpt>
      <trkpt lat="48.581622010096908" lon="-2.499169958755374">
        <ele>123.67</ele>
        <time>2018-07-05T12:07:45Z</time>
      </trkpt>
      <trkpt lat="48.581444984301925" lon="-2.499072980135679">
        <ele>123.67</ele>
        <time>2018-07-05T12:07:46Z</time>
      </trkpt>
      <trkpt lat="48.581251027062535" lon="-2.499037021771073">
        <ele>123.67</ele>
        <time>2018-07-05T12:07:47Z</time>
      </trkpt>
      <trkpt lat="48.581066960468888" lon="-2.499006008729339">
        <ele>123.67</ele>
        <time>2018-07-05T12:07:48Z</time>
      </trkpt>
      <trkpt lat="48.580885995179415" lon="-2.4989889934659">
        <ele>123.67</ele>
        <time>2018-07-05T12:07:49Z</time>
      </trkpt>
      <trkpt lat="48.580718021839857" lon="-2.499024029821158">
        <ele>123.67</ele>
        <time>2018-07-05T12:07:50Z</time>
      </trkpt>
      <trkpt lat="48.580390037968755" lon="-2.499097036197782">
        <ele>123.67</ele>
        <time>2018-07-05T12:07:52Z</time>
      </trkpt>
      <trkpt lat="48.580237990245223" lon="-2.499173982068896">
        <ele>123.67</ele>
        <time>2018-07-05T12:07:53Z</time>
      </trkpt>
      <trkpt lat="48.580083008855581" lon="-2.499251011759043">
        <ele>123.67</ele>
        <time>2018-07-05T12:07:54Z</time>
      </trkpt>
      <trkpt lat="48.578564962372184" lon="-2.500294977799058">
        <ele>123.19</ele>
        <time>2018-07-05T12:08:03Z</time>
      </trkpt>
      <trkpt lat="48.577105002477765" lon="-2.501297034323216">
        <ele>124.63</ele>
        <time>2018-07-05T12:08:12Z</time>
      </trkpt>
      <trkpt lat="48.575947964563966" lon="-2.502284003421664">
        <ele>121.73999999999999</ele>
        <time>2018-07-05T12:08:21Z</time>
      </trkpt>
      <trkpt lat="48.57580304145813" lon="-2.502456000074744">
        <ele>121.26000000000001</ele>
        <time>2018-07-05T12:08:23Z</time>
      </trkpt>
      <trkpt lat="48.575601037591696" lon="-2.502707960084081">
        <ele>120.3</ele>
        <time>2018-07-05T12:08:27Z</time>
      </trkpt>
      <trkpt lat="48.575620986521244" lon="-2.502929996699095">
        <ele>119.81999999999999</ele>
        <time>2018-07-05T12:08:28Z</time>
      </trkpt>
      <trkpt lat="48.575605982914567" lon="-2.503055976703763">
        <ele>119.81999999999999</ele>
        <time>2018-07-05T12:08:30Z</time>
      </trkpt>
      <trkpt lat="48.575557032600045" lon="-2.50317600555718">
        <ele>119.81999999999999</ele>
        <time>2018-07-05T12:08:31Z</time>
      </trkpt>
      <trkpt lat="48.575514033436775" lon="-2.503252029418945">
        <ele>119.34</ele>
        <time>2018-07-05T12:08:32Z</time>
      </trkpt>
      <trkpt lat="48.575402973219752" lon="-2.503266027197242">
        <ele>119.34</ele>
        <time>2018-07-05T12:08:33Z</time>
      </trkpt>
      <trkpt lat="48.575342036783695" lon="-2.503273990005255">
        <ele>119.34</ele>
        <time>2018-07-05T12:08:34Z</time>
      </trkpt>
      <trkpt lat="48.575196024030447" lon="-2.503294022753835">
        <ele>119.34</ele>
        <time>2018-07-05T12:08:35Z</time>
      </trkpt>
      <trkpt lat="48.575122011825442" lon="-2.503407010808587">
        <ele>119.34</ele>
        <time>2018-07-05T12:08:36Z</time>
      </trkpt>
      <trkpt lat="48.575051017105579" lon="-2.503532990813255">
        <ele>119.34</ele>
        <time>2018-07-05T12:08:37Z</time>
      </trkpt>
      <trkpt lat="48.574975999072194" lon="-2.503663999959827">
        <ele>118.86</ele>
        <time>2018-07-05T12:08:38Z</time>
      </trkpt>
      <trkpt lat="48.574897041544318" lon="-2.503803977742791">
        <ele>118.86</ele>
        <time>2018-07-05T12:08:39Z</time>
      </trkpt>
      <trkpt lat="48.574033034965396" lon="-2.5052610039711">
        <ele>115.98</ele>
        <time>2018-07-05T12:08:47Z</time>
      </trkpt>
      <trkpt lat="48.57299099676311" lon="-2.50693897716701">
        <ele>114.05</ele>
        <time>2018-07-05T12:08:54Z</time>
      </trkpt>
      <trkpt lat="48.57148895971477" lon="-2.509193038567901">
        <ele>110.20999999999999</ele>
        <time>2018-07-05T12:09:05Z</time>
      </trkpt>
      <trkpt lat="48.56970302760601" lon="-2.511988990008831">
        <ele>106.36</ele>
        <time>2018-07-05T12:09:18Z</time>
      </trkpt>
      <trkpt lat="48.568323031067848" lon="-2.514509009197354">
        <ele>103.48</ele>
        <time>2018-07-05T12:09:29Z</time>
      </trkpt>
      <trkpt lat="48.567901002243161" lon="-2.515113009139895">
        <ele>103.48</ele>
        <time>2018-07-05T12:09:32Z</time>
      </trkpt>
      <trkpt lat="48.56665201485157" lon="-2.516556037589908">
        <ele>101.08</ele>
        <time>2018-07-05T12:09:40Z</time>
      </trkpt>
      <trkpt lat="48.565130028873682" lon="-2.518435008823872">
        <ele>99.629999999999995</ele>
        <time>2018-07-05T12:09:50Z</time>
      </trkpt>
      <trkpt lat="48.564252024516463" lon="-2.520449012517929">
        <ele>95.310000000000002</ele>
        <time>2018-07-05T12:09:58Z</time>
      </trkpt>
      <trkpt lat="48.563926974311471" lon="-2.521169018000364">
        <ele>93.390000000000001</ele>
        <time>2018-07-05T12:10:01Z</time>
      </trkpt>
      <trkpt lat="48.563766963779926" lon="-2.521369010210037">
        <ele>92.900000000000006</ele>
        <time>2018-07-05T12:10:02Z</time>
      </trkpt>
      <trkpt lat="48.563618017360568" lon="-2.521555004641414">
        <ele>91.939999999999998</ele>
        <time>2018-07-05T12:10:03Z</time>
      </trkpt>
      <trkpt lat="48.56345197185874" lon="-2.52169799990952">
        <ele>90.980000000000004</ele>
        <time>2018-07-05T12:10:04Z</time>
      </trkpt>
      <trkpt lat="48.563274024054408" lon="-2.521832026541233">
        <ele>90.019999999999996</ele>
        <time>2018-07-05T12:10:05Z</time>
      </trkpt>
      <trkpt lat="48.563098004087806" lon="-2.521965969353914">
        <ele>88.579999999999998</ele>
        <time>2018-07-05T12:10:06Z</time>
      </trkpt>
      <trkpt lat="48.561532013118267" lon="-2.523262985050678">
        <ele>80.890000000000001</ele>
        <time>2018-07-05T12:10:15Z</time>
      </trkpt>
      <trkpt lat="48.560603968799114" lon="-2.524773990735412">
        <ele>74.640000000000001</ele>
        <time>2018-07-05T12:10:22Z</time>
      </trkpt>
      <trkpt lat="48.560024024918675" lon="-2.526337970048189">
        <ele>67.430000000000007</ele>
        <time>2018-07-05T12:10:29Z</time>
      </trkpt>
      <trkpt lat="48.559212991967797" lon="-2.52816497348249">
        <ele>59.259999999999998</ele>
        <time>2018-07-05T12:10:38Z</time>
      </trkpt>
      <trkpt lat="48.559092041105032" lon="-2.528346022590995">
        <ele>58.780000000000001</ele>
        <time>2018-07-05T12:10:39Z</time>
      </trkpt>
      <trkpt lat="48.558956002816558" lon="-2.528499998152256">
        <ele>58.299999999999997</ele>
        <time>2018-07-05T12:10:40Z</time>
      </trkpt>
      <trkpt lat="48.558812001720071" lon="-2.528645005077124">
        <ele>57.82</ele>
        <time>2018-07-05T12:10:41Z</time>
      </trkpt>
      <trkpt lat="48.55865903198719" lon="-2.528751036152244">
        <ele>57.340000000000003</ele>
        <time>2018-07-05T12:10:42Z</time>
      </trkpt>
      <trkpt lat="48.558506984263659" lon="-2.528852038085461">
        <ele>57.340000000000003</ele>
        <time>2018-07-05T12:10:43Z</time>
      </trkpt>
      <trkpt lat="48.558348985388875" lon="-2.528935018926859">
        <ele>57.340000000000003</ele>
        <time>2018-07-05T12:10:44Z</time>
      </trkpt>
      <trkpt lat="48.556996984407306" lon="-2.529403986409307">
        <ele>59.740000000000002</ele>
        <time>2018-07-05T12:10:52Z</time>
      </trkpt>
      <trkpt lat="48.556840997189283" lon="-2.529523009434342">
        <ele>60.700000000000003</ele>
        <time>2018-07-05T12:10:53Z</time>
      </trkpt>
      <trkpt lat="48.556687021628022" lon="-2.529640020802617">
        <ele>61.659999999999997</ele>
        <time>2018-07-05T12:10:54Z</time>
      </trkpt>
      <trkpt lat="48.556547965854406" lon="-2.529791984707117">
        <ele>62.140000000000001</ele>
        <time>2018-07-05T12:10:55Z</time>
      </trkpt>
      <trkpt lat="48.556417040526867" lon="-2.529961969703436">
        <ele>63.100000000000001</ele>
        <time>2018-07-05T12:10:56Z</time>
      </trkpt>
      <trkpt lat="48.556305980309844" lon="-2.530161961913109">
        <ele>64.069999999999993</ele>
        <time>2018-07-05T12:10:57Z</time>
      </trkpt>
      <trkpt lat="48.556193998083472" lon="-2.530362959951162">
        <ele>65.510000000000005</ele>
        <time>2018-07-05T12:10:58Z</time>
      </trkpt>
      <trkpt lat="48.556092996150255" lon="-2.53057099878788">
        <ele>66.469999999999999</ele>
        <time>2018-07-05T12:10:59Z</time>
      </trkpt>
      <trkpt lat="48.556013032793999" lon="-2.530807033181191">
        <ele>67.430000000000007</ele>
        <time>2018-07-05T12:11:00Z</time>
      </trkpt>
      <trkpt lat="48.555100997909904" lon="-2.53362201154232">
        <ele>80.890000000000001</ele>
        <time>2018-07-05T12:11:12Z</time>
      </trkpt>
      <trkpt lat="48.55447000823915" lon="-2.535988977178931">
        <ele>91.459999999999994</ele>
        <time>2018-07-05T12:11:21Z</time>
      </trkpt>
      <trkpt lat="48.554358026012778" lon="-2.538335993885994">
        <ele>99.150000000000006</ele>
        <time>2018-07-05T12:11:29Z</time>
      </trkpt>
      <trkpt lat="48.554264986887574" lon="-2.541777016595006">
        <ele>103.95999999999999</ele>
        <time>2018-07-05T12:11:41Z</time>
      </trkpt>
      <trkpt lat="48.554223999381065" lon="-2.542961966246367">
        <ele>104.44</ele>
        <time>2018-07-05T12:11:48Z</time>
      </trkpt>
      <trkpt lat="48.554205978289247" lon="-2.543566972017288">
        <ele>104.92</ele>
        <time>2018-07-05T12:11:53Z</time>
      </trkpt>
      <trkpt lat="48.554205978289247" lon="-2.543665962293744">
        <ele>104.92</ele>
        <time>2018-07-05T12:11:54Z</time>
      </trkpt>
      <trkpt lat="48.554293988272548" lon="-2.543769981712103">
        <ele>105.40000000000001</ele>
        <time>2018-07-05T12:11:55Z</time>
      </trkpt>
      <trkpt lat="48.554421979933977" lon="-2.543880958110094">
        <ele>105.88</ele>
        <time>2018-07-05T12:11:57Z</time>
      </trkpt>
      <trkpt lat="48.554459027945995" lon="-2.543966034427285">
        <ele>105.88</ele>
        <time>2018-07-05T12:11:58Z</time>
      </trkpt>
      <trkpt lat="48.554441006854177" lon="-2.544126966968179">
        <ele>106.36</ele>
        <time>2018-07-05T12:11:59Z</time>
      </trkpt>
      <trkpt lat="48.554424997419119" lon="-2.544232998043299">
        <ele>106.36</ele>
        <time>2018-07-05T12:12:00Z</time>
      </trkpt>
      <trkpt lat="48.554356014356017" lon="-2.544312961399555">
        <ele>106.84</ele>
        <time>2018-07-05T12:12:01Z</time>
      </trkpt>
      <trkpt lat="48.554271021857858" lon="-2.544385967776179">
        <ele>106.84</ele>
        <time>2018-07-05T12:12:02Z</time>
      </trkpt>
      <trkpt lat="48.554156022146344" lon="-2.544372975826263">
        <ele>106.84</ele>
        <time>2018-07-05T12:12:03Z</time>
      </trkpt>
      <trkpt lat="48.554079998284578" lon="-2.544452017173171">
        <ele>106.84</ele>
        <time>2018-07-05T12:12:04Z</time>
      </trkpt>
      <trkpt lat="48.554000034928322" lon="-2.544534998014569">
        <ele>106.84</ele>
        <time>2018-07-05T12:12:05Z</time>
      </trkpt>
      <trkpt lat="48.553915964439511" lon="-2.54462200216949">
        <ele>106.84</ele>
        <time>2018-07-05T12:12:06Z</time>
      </trkpt>
      <trkpt lat="48.553144996985793" lon="-2.545687006786466">
        <ele>105.88</ele>
        <time>2018-07-05T12:12:15Z</time>
      </trkpt>
      <trkpt lat="48.551932973787189" lon="-2.547419965267181">
        <ele>103</ele>
        <time>2018-07-05T12:12:29Z</time>
      </trkpt>
      <trkpt lat="48.550976011902094" lon="-2.548809014260769">
        <ele>97.709999999999994</ele>
        <time>2018-07-05T12:12:41Z</time>
      </trkpt>
      <trkpt lat="48.550014020875096" lon="-2.550173001363874">
        <ele>95.310000000000002</ele>
        <time>2018-07-05T12:12:51Z</time>
      </trkpt>
      <trkpt lat="48.548660008236766" lon="-2.552135037258267">
        <ele>93.390000000000001</ele>
        <time>2018-07-05T12:13:02Z</time>
      </trkpt>
      <trkpt lat="48.547128969803452" lon="-2.554379962384701">
        <ele>90.980000000000004</ele>
        <time>2018-07-05T12:13:14Z</time>
      </trkpt>
      <trkpt lat="48.54536097496748" lon="-2.556947004050016">
        <ele>91.939999999999998</ele>
        <time>2018-07-05T12:13:27Z</time>
      </trkpt>
      <trkpt lat="48.543369015678763" lon="-2.559818979352713">
        <ele>92.420000000000002</ele>
        <time>2018-07-05T12:13:41Z</time>
      </trkpt>
      <trkpt lat="48.541077990084887" lon="-2.563071995973587">
        <ele>94.349999999999994</ele>
        <time>2018-07-05T12:13:57Z</time>
      </trkpt>
      <trkpt lat="48.539149984717369" lon="-2.565816985443234">
        <ele>94.829999999999998</ele>
        <time>2018-07-05T12:14:11Z</time>
      </trkpt>
      <trkpt lat="48.538252031430602" lon="-2.56709698587656">
        <ele>95.310000000000002</ele>
        <time>2018-07-05T12:14:21Z</time>
      </trkpt>
      <trkpt lat="48.537801001220942" lon="-2.567729987204075">
        <ele>95.790000000000006</ele>
        <time>2018-07-05T12:14:27Z</time>
      </trkpt>
      <trkpt lat="48.537722965702415" lon="-2.567837024107575">
        <ele>95.790000000000006</ele>
        <time>2018-07-05T12:14:28Z</time>
      </trkpt>
      <trkpt lat="48.536846973001957" lon="-2.569117024540901">
        <ele>95.790000000000006</ele>
        <time>2018-07-05T12:14:39Z</time>
      </trkpt>
      <trkpt lat="48.535786997526884" lon="-2.570655019953847">
        <ele>95.310000000000002</ele>
        <time>2018-07-05T12:14:52Z</time>
      </trkpt>
      <trkpt lat="48.534830035641789" lon="-2.572029987350106">
        <ele>91.939999999999998</ele>
        <time>2018-07-05T12:15:04Z</time>
      </trkpt>
      <trkpt lat="48.533747009932995" lon="-2.57358399219811">
        <ele>87.140000000000001</ele>
        <time>2018-07-05T12:15:18Z</time>
      </trkpt>
      <trkpt lat="48.53326203301549" lon="-2.574266027659178">
        <ele>84.730000000000004</ele>
        <time>2018-07-05T12:15:24Z</time>
      </trkpt>
      <trkpt lat="48.532501962035894" lon="-2.575428010895848">
        <ele>79.450000000000003</ele>
        <time>2018-07-05T12:15:34Z</time>
      </trkpt>
      <trkpt lat="48.53148297406733" lon="-2.576895011588931">
        <ele>78.969999999999999</ele>
        <time>2018-07-05T12:15:47Z</time>
      </trkpt>
      <trkpt lat="48.531464030966163" lon="-2.577181002125144">
        <ele>78.969999999999999</ele>
        <time>2018-07-05T12:15:48Z</time>
      </trkpt>
      <trkpt lat="48.53131097741425" lon="-2.57713096216321">
        <ele>79.450000000000003</ele>
        <time>2018-07-05T12:15:49Z</time>
      </trkpt>
      <trkpt lat="48.531230008229613" lon="-2.577222995460033">
        <ele>79.450000000000003</ele>
        <time>2018-07-05T12:15:50Z</time>
      </trkpt>
      <trkpt lat="48.530272040516138" lon="-2.578601986169815">
        <ele>80.890000000000001</ele>
        <time>2018-07-05T12:16:02Z</time>
      </trkpt>
      <trkpt lat="48.529233019798994" lon="-2.580082984641194">
        <ele>82.329999999999998</ele>
        <time>2018-07-05T12:16:13Z</time>
      </trkpt>
      <trkpt lat="48.528100959956646" lon="-2.581660961732268">
        <ele>81.849999999999994</ele>
        <time>2018-07-05T12:16:21Z</time>
      </trkpt>
      <trkpt lat="48.526020990684628" lon="-2.584669981151819">
        <ele>83.290000000000006</ele>
        <time>2018-07-05T12:16:35Z</time>
      </trkpt>
      <trkpt lat="48.524250984191895" lon="-2.587192011997104">
        <ele>84.25</ele>
        <time>2018-07-05T12:16:47Z</time>
      </trkpt>
      <trkpt lat="48.522492041811347" lon="-2.589695015922189">
        <ele>83.769999999999996</ele>
        <time>2018-07-05T12:16:59Z</time>
      </trkpt>
      <trkpt lat="48.519886024296284" lon="-2.593453964218497">
        <ele>87.140000000000001</ele>
        <time>2018-07-05T12:17:17Z</time>
      </trkpt>
      <trkpt lat="48.517826003953815" lon="-2.596356030553579">
        <ele>92.900000000000006</ele>
        <time>2018-07-05T12:17:31Z</time>
      </trkpt>
      <trkpt lat="48.516967026516795" lon="-2.597557995468378">
        <ele>94.349999999999994</ele>
        <time>2018-07-05T12:17:38Z</time>
      </trkpt>
      <trkpt lat="48.515993971377611" lon="-2.598891975358129">
        <ele>93.390000000000001</ele>
        <time>2018-07-05T12:17:48Z</time>
      </trkpt>
      <trkpt lat="48.515761038288474" lon="-2.599223982542753">
        <ele>92.420000000000002</ele>
        <time>2018-07-05T12:17:51Z</time>
      </trkpt>
      <trkpt lat="48.515689037740231" lon="-2.599325990304351">
        <ele>92.420000000000002</ele>
        <time>2018-07-05T12:17:52Z</time>
      </trkpt>
      <trkpt lat="48.515623994171619" lon="-2.599418023601174">
        <ele>91.939999999999998</ele>
        <time>2018-07-05T12:17:53Z</time>
      </trkpt>
      <trkpt lat="48.515504971146584" lon="-2.599599994719029">
        <ele>91.939999999999998</ele>
        <time>2018-07-05T12:17:55Z</time>
      </trkpt>
      <trkpt lat="48.515447974205017" lon="-2.59968901053071">
        <ele>91.939999999999998</ele>
        <time>2018-07-05T12:17:56Z</time>
      </trkpt>
      <trkpt lat="48.515392988920212" lon="-2.599771991372109">
        <ele>91.939999999999998</ele>
        <time>2018-07-05T12:17:57Z</time>
      </trkpt>
      <trkpt lat="48.515326017513871" lon="-2.599864024668932">
        <ele>91.459999999999994</ele>
        <time>2018-07-05T12:17:58Z</time>
      </trkpt>
      <trkpt lat="48.515239013358951" lon="-2.599982963874936">
        <ele>91.459999999999994</ele>
        <time>2018-07-05T12:17:59Z</time>
      </trkpt>
      <trkpt lat="48.515167012810707" lon="-2.600083965808153">
        <ele>90.980000000000004</ele>
        <time>2018-07-05T12:18:00Z</time>
      </trkpt>
      <trkpt lat="48.515075985342264" lon="-2.600211035460234">
        <ele>90.980000000000004</ele>
        <time>2018-07-05T12:18:01Z</time>
      </trkpt>
      <trkpt lat="48.514150036498904" lon="-2.601504027843475">
        <ele>90.980000000000004</ele>
        <time>2018-07-05T12:18:09Z</time>
      </trkpt>
      <trkpt lat="48.512540040537715" lon="-2.603678964078426">
        <ele>86.180000000000007</ele>
        <time>2018-07-05T12:18:20Z</time>
      </trkpt>
      <trkpt lat="48.511386020109057" lon="-2.605408988893032">
        <ele>78.969999999999999</ele>
        <time>2018-07-05T12:18:29Z</time>
      </trkpt>
      <trkpt lat="48.509937962517142" lon="-2.6075329631567">
        <ele>67.909999999999997</ele>
        <time>2018-07-05T12:18:42Z</time>
      </trkpt>
      <trkpt lat="48.508441960439086" lon="-2.609704965725541">
        <ele>60.700000000000003</ele>
        <time>2018-07-05T12:18:55Z</time>
      </trkpt>
      <trkpt lat="48.507347032427788" lon="-2.611221000552177">
        <ele>51.57</ele>
        <time>2018-07-05T12:19:05Z</time>
      </trkpt>
      <trkpt lat="48.507263967767358" lon="-2.611336000263691">
        <ele>50.609999999999999</ele>
        <time>2018-07-05T12:19:06Z</time>
      </trkpt>
      <trkpt lat="48.507182998582721" lon="-2.611447982490063">
        <ele>49.649999999999999</ele>
        <time>2018-07-05T12:19:07Z</time>
      </trkpt>
      <trkpt lat="48.506500963121653" lon="-2.61251600459218">
        <ele>41.469999999999999</ele>
        <time>2018-07-05T12:19:16Z</time>
      </trkpt>
      <trkpt lat="48.506443966180086" lon="-2.612660005688667">
        <ele>40.990000000000002</ele>
        <time>2018-07-05T12:19:17Z</time>
      </trkpt>
      <trkpt lat="48.506206003949046" lon="-2.6132230181247">
        <ele>40.509999999999998</ele>
        <time>2018-07-05T12:19:21Z</time>
      </trkpt>
      <trkpt lat="48.50578598678112" lon="-2.61417000554502">
        <ele>41.950000000000003</ele>
        <time>2018-07-05T12:19:28Z</time>
      </trkpt>
      <trkpt lat="48.505738964304328" lon="-2.614306965842843">
        <ele>42.439999999999998</ele>
        <time>2018-07-05T12:19:29Z</time>
      </trkpt>
      <trkpt lat="48.505690013989806" lon="-2.614454990252852">
        <ele>42.920000000000002</ele>
        <time>2018-07-05T12:19:30Z</time>
      </trkpt>
      <trkpt lat="48.505392959341407" lon="-2.616070015355945">
        <ele>49.649999999999999</ele>
        <time>2018-07-05T12:19:39Z</time>
      </trkpt>
      <trkpt lat="48.505084002390504" lon="-2.616893034428358">
        <ele>51.57</ele>
        <time>2018-07-05T12:19:44Z</time>
      </trkpt>
      <trkpt lat="48.505006972700357" lon="-2.617039969190955">
        <ele>51.57</ele>
        <time>2018-07-05T12:19:45Z</time>
      </trkpt>
      <trkpt lat="48.504916029050946" lon="-2.617183970287442">
        <ele>52.049999999999997</ele>
        <time>2018-07-05T12:19:46Z</time>
      </trkpt>
      <trkpt lat="48.504808992147446" lon="-2.617301987484098">
        <ele>52.049999999999997</ele>
        <time>2018-07-05T12:19:47Z</time>
      </trkpt>
      <trkpt lat="48.50469097495079" lon="-2.617418998852372">
        <ele>52.049999999999997</ele>
        <time>2018-07-05T12:19:48Z</time>
      </trkpt>
      <trkpt lat="48.504557032138109" lon="-2.61749804019928">
        <ele>52.049999999999997</ele>
        <time>2018-07-05T12:19:49Z</time>
      </trkpt>
      <trkpt lat="48.504411019384861" lon="-2.61756501160562">
        <ele>52.049999999999997</ele>
        <time>2018-07-05T12:19:50Z</time>
      </trkpt>
      <trkpt lat="48.504261989146471" lon="-2.617614967748523">
        <ele>51.57</ele>
        <time>2018-07-05T12:19:51Z</time>
      </trkpt>
      <trkpt lat="48.504102984443307" lon="-2.617664001882076">
        <ele>51.57</ele>
        <time>2018-07-05T12:19:52Z</time>
      </trkpt>
      <trkpt lat="48.503667041659355" lon="-2.617820994928479">
        <ele>51.090000000000003</ele>
        <time>2018-07-05T12:19:55Z</time>
      </trkpt>
      <trkpt lat="48.503522034734488" lon="-2.617900036275387">
        <ele>51.57</ele>
        <time>2018-07-05T12:19:56Z</time>
      </trkpt>
      <trkpt lat="48.503392031416297" lon="-2.618020987138152">
        <ele>51.57</ele>
        <time>2018-07-05T12:19:57Z</time>
      </trkpt>
      <trkpt lat="48.502119993790984" lon="-2.619287995621562">
        <ele>55.890000000000001</ele>
        <time>2018-07-05T12:20:06Z</time>
      </trkpt>
      <trkpt lat="48.500755000859499" lon="-2.620796989649534">
        <ele>65.030000000000001</ele>
        <time>2018-07-05T12:20:16Z</time>
      </trkpt>
      <trkpt lat="48.499465025961399" lon="-2.621928965672851">
        <ele>71.760000000000005</ele>
        <time>2018-07-05T12:20:24Z</time>
      </trkpt>
      <trkpt lat="48.497736006975174" lon="-2.622834965586662">
        <ele>71.269999999999996</ele>
        <time>2018-07-05T12:20:33Z</time>
      </trkpt>
      <trkpt lat="48.495745975524187" lon="-2.624179003760219">
        <ele>65.989999999999995</ele>
        <time>2018-07-05T12:20:44Z</time>
      </trkpt>
      <trkpt lat="48.493214976042509" lon="-2.626499030739069">
        <ele>58.780000000000001</ele>
        <time>2018-07-05T12:20:59Z</time>
      </trkpt>
      <trkpt lat="48.49080903455615" lon="-2.628600960597396">
        <ele>55.890000000000001</ele>
        <time>2018-07-05T12:21:13Z</time>
      </trkpt>
      <trkpt lat="48.488242998719215" lon="-2.630856027826667">
        <ele>48.200000000000003</ele>
        <time>2018-07-05T12:21:28Z</time>
      </trkpt>
      <trkpt lat="48.486380958929658" lon="-2.633078992366791">
        <ele>44.359999999999999</ele>
        <time>2018-07-05T12:21:40Z</time>
      </trkpt>
      <trkpt lat="48.484848998486996" lon="-2.635369012132287">
        <ele>40.509999999999998</ele>
        <time>2018-07-05T12:21:51Z</time>
      </trkpt>
      <trkpt lat="48.484337031841278" lon="-2.637275978922844">
        <ele>39.549999999999997</ele>
        <time>2018-07-05T12:21:58Z</time>
      </trkpt>
      <trkpt lat="48.483488028869033" lon="-2.641525017097592">
        <ele>43.399999999999999</ele>
        <time>2018-07-05T12:22:13Z</time>
      </trkpt>
      <trkpt lat="48.482830971479416" lon="-2.643384039402008">
        <ele>44.840000000000003</ele>
        <time>2018-07-05T12:22:21Z</time>
      </trkpt>
      <trkpt lat="48.482251027598977" lon="-2.644783984869719">
        <ele>46.280000000000001</ele>
        <time>2018-07-05T12:22:30Z</time>
      </trkpt>
      <trkpt lat="48.481889013200998" lon="-2.645371975377202">
        <ele>46.280000000000001</ele>
        <time>2018-07-05T12:22:37Z</time>
      </trkpt>
      <trkpt lat="48.481865040957928" lon="-2.64545202255249">
        <ele>46.280000000000001</ele>
        <time>2018-07-05T12:22:38Z</time>
      </trkpt>
      <trkpt lat="48.481856994330883" lon="-2.645512958988547">
        <ele>46.280000000000001</ele>
        <time>2018-07-05T12:22:39Z</time>
      </trkpt>
      <trkpt lat="48.4818509593606" lon="-2.645558975636959">
        <ele>46.280000000000001</ele>
        <time>2018-07-05T12:22:40Z</time>
      </trkpt>
      <trkpt lat="48.481925977393985" lon="-2.645640028640628">
        <ele>46.280000000000001</ele>
        <time>2018-07-05T12:22:41Z</time>
      </trkpt>
      <trkpt lat="48.481962019577622" lon="-2.645681016147137">
        <ele>46.280000000000001</ele>
        <time>2018-07-05T12:22:42Z</time>
      </trkpt>
      <trkpt lat="48.481994960457087" lon="-2.645716974511743">
        <ele>45.799999999999997</ele>
        <time>2018-07-05T12:22:43Z</time>
      </trkpt>
      <trkpt lat="48.482115995138884" lon="-2.645739018917084">
        <ele>45.799999999999997</ele>
        <time>2018-07-05T12:22:44Z</time>
      </trkpt>
      <trkpt lat="48.482134016230702" lon="-2.645693002268672">
        <ele>45.32</ele>
        <time>2018-07-05T12:22:45Z</time>
      </trkpt>
      <trkpt lat="48.482152037322521" lon="-2.645644973963499">
        <ele>45.32</ele>
        <time>2018-07-05T12:22:46Z</time>
      </trkpt>
      <trkpt lat="48.482167040929198" lon="-2.645584037527442">
        <ele>44.840000000000003</ele>
        <time>2018-07-05T12:22:47Z</time>
      </trkpt>
      <trkpt lat="48.482179027050734" lon="-2.645533997565508">
        <ele>44.359999999999999</ele>
        <time>2018-07-05T12:22:48Z</time>
      </trkpt>
      <trkpt lat="48.482190007343888" lon="-2.645488986745477">
        <ele>44.359999999999999</ele>
        <time>2018-07-05T12:22:49Z</time>
      </trkpt>
      <trkpt lat="48.48221599124372" lon="-2.64538798481226">
        <ele>40.990000000000002</ele>
        <time>2018-07-05T12:23:00Z</time>
      </trkpt>
      <trkpt lat="48.482106020674109" lon="-2.645035022869706">
        <ele>47.719999999999999</ele>
        <time>2018-07-05T12:28:23Z</time>
      </trkpt>
      <trkpt lat="48.482253039255738" lon="-2.645178018137813">
        <ele>33.780000000000001</ele>
        <time>2018-07-05T12:28:48Z</time>
      </trkpt>
      <trkpt lat="48.482252033427358" lon="-2.645142981782556">
        <ele>34.740000000000002</ele>
        <time>2018-07-05T12:29:24Z</time>
      </trkpt>
      <trkpt lat="48.482243986800313" lon="-2.644784990698099">
        <ele>40.509999999999998</ele>
        <time>2018-07-05T12:29:39Z</time>
      </trkpt>
      <trkpt lat="48.482282962650061" lon="-2.644707961007953">
        <ele>41.469999999999999</ele>
        <time>2018-07-05T12:29:41Z</time>
      </trkpt>
      <trkpt lat="48.482307018712163" lon="-2.644650964066386">
        <ele>41.469999999999999</ele>
        <time>2018-07-05T12:29:42Z</time>
      </trkpt>
      <trkpt lat="48.482667021453381" lon="-2.64512998983264">
        <ele>41.950000000000003</ele>
        <time>2018-07-05T12:29:46Z</time>
      </trkpt>
      <trkpt lat="48.482667021453381" lon="-2.64512998983264">
        <ele>41.950000000000003</ele>
        <time>2018-07-05T12:29:47Z</time>
      </trkpt>
      <trkpt lat="48.482654029503465" lon="-2.645163014531136">
        <ele>41.469999999999999</ele>
        <time>2018-07-05T12:29:48Z</time>
      </trkpt>
      <trkpt lat="48.482622010633349" lon="-2.645240966230631">
        <ele>41.469999999999999</ele>
        <time>2018-07-05T12:29:49Z</time>
      </trkpt>
      <trkpt lat="48.482593009248376" lon="-2.645312966778874">
        <ele>41.469999999999999</ele>
        <time>2018-07-05T12:29:50Z</time>
      </trkpt>
      <trkpt lat="48.482568031176925" lon="-2.645377004519105">
        <ele>40.990000000000002</ele>
        <time>2018-07-05T12:29:51Z</time>
      </trkpt>
      <trkpt lat="48.482545986771584" lon="-2.64543198980391">
        <ele>40.990000000000002</ele>
        <time>2018-07-05T12:29:52Z</time>
      </trkpt>
      <trkpt lat="48.482529977336526" lon="-2.645471971482039">
        <ele>40.990000000000002</ele>
        <time>2018-07-05T12:29:53Z</time>
      </trkpt>
      <trkpt lat="48.482517991214991" lon="-2.645500972867012">
        <ele>40.509999999999998</ele>
        <time>2018-07-05T12:29:54Z</time>
      </trkpt>
      <trkpt lat="48.482509022578597" lon="-2.645524023100734">
        <ele>40.509999999999998</ele>
        <time>2018-07-05T12:29:55Z</time>
      </trkpt>
      <trkpt lat="48.482500975951552" lon="-2.645542966201901">
        <ele>40.509999999999998</ele>
        <time>2018-07-05T12:29:56Z</time>
      </trkpt>
      <trkpt lat="48.482598038390279" lon="-2.64568998478353">
        <ele>41.469999999999999</ele>
        <time>2018-07-05T12:30:07Z</time>
      </trkpt>
      <trkpt lat="48.482483960688114" lon="-2.645585965365171">
        <ele>41.469999999999999</ele>
        <time>2018-07-05T12:30:14Z</time>
      </trkpt>
      <trkpt lat="48.482467029243708" lon="-2.645629970356822">
        <ele>41.469999999999999</ele>
        <time>2018-07-05T12:30:15Z</time>
      </trkpt>
      <trkpt lat="48.482440039515495" lon="-2.645696019753814">
        <ele>41.469999999999999</ele>
        <time>2018-07-05T12:30:16Z</time>
      </trkpt>
      <trkpt lat="48.48243098706007" lon="-2.64605300500989">
        <ele>40.990000000000002</ele>
        <time>2018-07-05T12:30:19Z</time>
      </trkpt>
      <trkpt lat="48.482428975403309" lon="-2.646068008616567">
        <ele>40.990000000000002</ele>
        <time>2018-07-05T12:30:20Z</time>
      </trkpt>
      <trkpt lat="48.482417995110154" lon="-2.646150989457965">
        <ele>40.990000000000002</ele>
        <time>2018-07-05T12:30:21Z</time>
      </trkpt>
      <trkpt lat="48.482372984290123" lon="-2.646235981956124">
        <ele>40.990000000000002</ele>
        <time>2018-07-05T12:30:22Z</time>
      </trkpt>
      <trkpt lat="48.48234498873353" lon="-2.64624604023993">
        <ele>40.990000000000002</ele>
        <time>2018-07-05T12:30:23Z</time>
      </trkpt>
      <trkpt lat="48.482280028983951" lon="-2.6461820024997">
        <ele>40.990000000000002</ele>
        <time>2018-07-05T12:30:24Z</time>
      </trkpt>
      <trkpt lat="48.482280028983951" lon="-2.646051999181509">
        <ele>40.990000000000002</ele>
        <time>2018-07-05T12:30:25Z</time>
      </trkpt>
      <trkpt lat="48.482234012335539" lon="-2.645997013896704">
        <ele>40.990000000000002</ele>
        <time>2018-07-05T12:30:26Z</time>
      </trkpt>
      <trkpt lat="48.482189001515508" lon="-2.645941022783518">
        <ele>40.990000000000002</ele>
        <time>2018-07-05T12:30:27Z</time>
      </trkpt>
      <trkpt lat="48.482139967381954" lon="-2.64588201418519">
        <ele>40.990000000000002</ele>
        <time>2018-07-05T12:30:28Z</time>
      </trkpt>
      <trkpt lat="48.482087999582291" lon="-2.64581797644496">
        <ele>41.469999999999999</ele>
        <time>2018-07-05T12:30:29Z</time>
      </trkpt>
      <trkpt lat="48.482033014297485" lon="-2.645757962018251">
        <ele>41.469999999999999</ele>
        <time>2018-07-05T12:30:30Z</time>
      </trkpt>
      <trkpt lat="48.481982974335551" lon="-2.645702976733446">
        <ele>41.469999999999999</ele>
        <time>2018-07-05T12:30:31Z</time>
      </trkpt>
      <trkpt lat="48.481938969343901" lon="-2.645655032247305">
        <ele>41.950000000000003</ele>
        <time>2018-07-05T12:30:32Z</time>
      </trkpt>
      <trkpt lat="48.481897981837392" lon="-2.645610021427274">
        <ele>41.950000000000003</ele>
        <time>2018-07-05T12:30:33Z</time>
      </trkpt>
      <trkpt lat="48.481801003217697" lon="-2.645617984235287">
        <ele>42.439999999999998</ele>
        <time>2018-07-05T12:30:34Z</time>
      </trkpt>
      <trkpt lat="48.48172196187079" lon="-2.64571001753211">
        <ele>42.439999999999998</ele>
        <time>2018-07-05T12:30:35Z</time>
      </trkpt>
      <trkpt lat="48.48167896270752" lon="-2.645701970905066">
        <ele>42.439999999999998</ele>
        <time>2018-07-05T12:30:36Z</time>
      </trkpt>
      <trkpt lat="48.481582989916205" lon="-2.645707000046969">
        <ele>42.439999999999998</ele>
        <time>2018-07-05T12:30:37Z</time>
      </trkpt>
      <trkpt lat="48.481531022116542" lon="-2.645798027515411">
        <ele>40.990000000000002</ele>
        <time>2018-07-05T12:30:46Z</time>
      </trkpt>
      <trkpt lat="48.480945965275168" lon="-2.647631987929344">
        <ele>40.509999999999998</ele>
        <time>2018-07-05T12:30:53Z</time>
      </trkpt>
      <trkpt lat="48.480913024395704" lon="-2.647954020649195">
        <ele>40.030000000000001</ele>
        <time>2018-07-05T12:30:59Z</time>
      </trkpt>
      <trkpt lat="48.480799030512571" lon="-2.649075016379356">
        <ele>40.030000000000001</ele>
        <time>2018-07-05T12:31:10Z</time>
      </trkpt>
      <trkpt lat="48.480739016085863" lon="-2.649651020765305">
        <ele>39.07</ele>
        <time>2018-07-05T12:31:16Z</time>
      </trkpt>
      <trkpt lat="48.480729963630438" lon="-2.649734001606703">
        <ele>39.07</ele>
        <time>2018-07-05T12:31:17Z</time>
      </trkpt>
      <trkpt lat="48.480600966140628" lon="-2.650964967906475">
        <ele>38.590000000000003</ele>
        <time>2018-07-05T12:31:28Z</time>
      </trkpt>
      <trkpt lat="48.480487978085876" lon="-2.652042964473367">
        <ele>38.109999999999999</ele>
        <time>2018-07-05T12:31:38Z</time>
      </trkpt>
      <trkpt lat="48.480468029156327" lon="-2.652231976389885">
        <ele>37.630000000000003</ele>
        <time>2018-07-05T12:31:41Z</time>
      </trkpt>
      <trkpt lat="48.480460988357663" lon="-2.652301965281367">
        <ele>37.630000000000003</ele>
        <time>2018-07-05T12:31:42Z</time>
      </trkpt>
      <trkpt lat="48.48045201972127" lon="-2.652385029941797">
        <ele>37.630000000000003</ele>
        <time>2018-07-05T12:31:43Z</time>
      </trkpt>
      <trkpt lat="48.480329979211092" lon="-2.6535539701581">
        <ele>37.149999999999999</ele>
        <time>2018-07-05T12:31:53Z</time>
      </trkpt>
      <trkpt lat="48.48013199865818" lon="-2.655435036867857">
        <ele>36.670000000000002</ele>
        <time>2018-07-05T12:32:07Z</time>
      </trkpt>
      <trkpt lat="48.479957990348339" lon="-2.657038997858763">
        <ele>36.189999999999998</ele>
        <time>2018-07-05T12:32:16Z</time>
      </trkpt>
      <trkpt lat="48.47978699952364" lon="-2.658581016585231">
        <ele>33.780000000000001</ele>
        <time>2018-07-05T12:32:27Z</time>
      </trkpt>
      <trkpt lat="48.479633023962379" lon="-2.660070983693004">
        <ele>31.859999999999999</ele>
        <time>2018-07-05T12:32:38Z</time>
      </trkpt>
      <trkpt lat="48.479420961812139" lon="-2.662154976278544">
        <ele>30.420000000000002</ele>
        <time>2018-07-05T12:32:48Z</time>
      </trkpt>
      <trkpt lat="48.479233039543033" lon="-2.664808016270399">
        <ele>28.02</ele>
        <time>2018-07-05T12:32:58Z</time>
      </trkpt>
      <trkpt lat="48.479282995685935" lon="-2.667575972154737">
        <ele>25.609999999999999</ele>
        <time>2018-07-05T12:33:06Z</time>
      </trkpt>
      <trkpt lat="48.47976797260344" lon="-2.671269960701466">
        <ele>25.129999999999999</ele>
        <time>2018-07-05T12:33:16Z</time>
      </trkpt>
      <trkpt lat="48.480272982269526" lon="-2.674464974552393">
        <ele>26.09</ele>
        <time>2018-07-05T12:33:24Z</time>
      </trkpt>
      <trkpt lat="48.480945965275168" lon="-2.678450988605619">
        <ele>28.5</ele>
        <time>2018-07-05T12:33:34Z</time>
      </trkpt>
      <trkpt lat="48.481595981866121" lon="-2.682381011545658">
        <ele>33.780000000000001</ele>
        <time>2018-07-05T12:33:44Z</time>
      </trkpt>
      <trkpt lat="48.482176009565592" lon="-2.6859309989959">
        <ele>40.990000000000002</ele>
        <time>2018-07-05T12:33:53Z</time>
      </trkpt>
      <trkpt lat="48.482764000073075" lon="-2.690329989418387">
        <ele>54.93</ele>
        <time>2018-07-05T12:34:04Z</time>
      </trkpt>
      <trkpt lat="48.482941025868058" lon="-2.694821013137698">
        <ele>67.909999999999997</ele>
        <time>2018-07-05T12:34:15Z</time>
      </trkpt>
      <trkpt lat="48.483248976990581" lon="-2.699287980794907">
        <ele>77.519999999999996</ele>
        <time>2018-07-05T12:34:26Z</time>
      </trkpt>
      <trkpt lat="48.483855994418263" lon="-2.702772002667189">
        <ele>82.810000000000002</ele>
        <time>2018-07-05T12:34:35Z</time>
      </trkpt>
      <trkpt lat="48.484654035419226" lon="-2.70681300200522">
        <ele>89.060000000000002</ele>
        <time>2018-07-05T12:34:46Z</time>
      </trkpt>
      <trkpt lat="48.485430032014847" lon="-2.711915988475084">
        <ele>95.790000000000006</ele>
        <time>2018-07-05T12:34:59Z</time>
      </trkpt>
      <trkpt lat="48.485990026965737" lon="-2.7150649856776">
        <ele>99.150000000000006</ele>
        <time>2018-07-05T12:35:07Z</time>
      </trkpt>
      <trkpt lat="48.486870964989066" lon="-2.717582993209362">
        <ele>103.48</ele>
        <time>2018-07-05T12:35:14Z</time>
      </trkpt>
      <trkpt lat="48.488106038421392" lon="-2.719744015485048">
        <ele>106.36</ele>
        <time>2018-07-05T12:35:21Z</time>
      </trkpt>
      <trkpt lat="48.489573961123824" lon="-2.721316963434219">
        <ele>110.20999999999999</ele>
        <time>2018-07-05T12:35:28Z</time>
      </trkpt>
      <trkpt lat="48.490984970703721" lon="-2.722324971109629">
        <ele>111.65000000000001</ele>
        <time>2018-07-05T12:35:36Z</time>
      </trkpt>
      <trkpt lat="48.493038034066558" lon="-2.723360974341631">
        <ele>114.05</ele>
        <time>2018-07-05T12:35:46Z</time>
      </trkpt>
      <trkpt lat="48.495395025238395" lon="-2.723921975120902">
        <ele>115.98</ele>
        <time>2018-07-05T12:35:57Z</time>
      </trkpt>
      <trkpt lat="48.497541965916753" lon="-2.724527986720204">
        <ele>115.98</ele>
        <time>2018-07-05T12:36:07Z</time>
      </trkpt>
      <trkpt lat="48.499118015170097" lon="-2.725756019353867">
        <ele>111.65000000000001</ele>
        <time>2018-07-05T12:36:15Z</time>
      </trkpt>
      <trkpt lat="48.501214999705553" lon="-2.728189034387469">
        <ele>99.629999999999995</ele>
        <time>2018-07-05T12:36:27Z</time>
      </trkpt>
      <trkpt lat="48.503436958417296" lon="-2.730895970016718">
        <ele>88.579999999999998</ele>
        <time>2018-07-05T12:36:40Z</time>
      </trkpt>
      <trkpt lat="48.505519023165107" lon="-2.733536018058658">
        <ele>84.25</ele>
        <time>2018-07-05T12:36:53Z</time>
      </trkpt>
      <trkpt lat="48.506573969498277" lon="-2.734903022646904">
        <ele>86.659999999999997</ele>
        <time>2018-07-05T12:37:00Z</time>
      </trkpt>
      <trkpt lat="48.508182959631085" lon="-2.73695700801909">
        <ele>89.060000000000002</ele>
        <time>2018-07-05T12:37:11Z</time>
      </trkpt>
      <trkpt lat="48.51021003909409" lon="-2.73955799639225">
        <ele>91.459999999999994</ele>
        <time>2018-07-05T12:37:24Z</time>
      </trkpt>
      <trkpt lat="48.512140978127718" lon="-2.741927979514003">
        <ele>90.980000000000004</ele>
        <time>2018-07-05T12:37:36Z</time>
      </trkpt>
      <trkpt lat="48.5123370308429" lon="-2.742097964510322">
        <ele>90.5</ele>
        <time>2018-07-05T12:37:37Z</time>
      </trkpt>
      <trkpt lat="48.512749001383781" lon="-2.742375992238522">
        <ele>90.019999999999996</ele>
        <time>2018-07-05T12:37:39Z</time>
      </trkpt>
      <trkpt lat="48.512963997200131" lon="-2.742472970858216">
        <ele>90.019999999999996</ele>
        <time>2018-07-05T12:37:40Z</time>
      </trkpt>
      <trkpt lat="48.513190979138017" lon="-2.742530973628163">
        <ele>90.019999999999996</ele>
        <time>2018-07-05T12:37:41Z</time>
      </trkpt>
      <trkpt lat="48.514106031507254" lon="-2.742763990536332">
        <ele>88.579999999999998</ele>
        <time>2018-07-05T12:37:45Z</time>
      </trkpt>
      <trkpt lat="48.51433401927352" lon="-2.742835991084576">
        <ele>88.099999999999994</ele>
        <time>2018-07-05T12:37:46Z</time>
      </trkpt>
      <trkpt lat="48.516132021322846" lon="-2.743736039847136">
        <ele>82.810000000000002</ele>
        <time>2018-07-05T12:37:54Z</time>
      </trkpt>
      <trkpt lat="48.517647972330451" lon="-2.745046969503164">
        <ele>78.480000000000004</ele>
        <time>2018-07-05T12:38:02Z</time>
      </trkpt>
      <trkpt lat="48.520316015928984" lon="-2.747461041435599">
        <ele>79.930000000000007</ele>
        <time>2018-07-05T12:38:17Z</time>
      </trkpt>
      <trkpt lat="48.521965993568301" lon="-2.748844977468252">
        <ele>80.890000000000001</ele>
        <time>2018-07-05T12:38:26Z</time>
      </trkpt>
      <trkpt lat="48.524404037743807" lon="-2.750778011977673">
        <ele>83.290000000000006</ele>
        <time>2018-07-05T12:38:39Z</time>
      </trkpt>
      <trkpt lat="48.527120025828481" lon="-2.752960994839668">
        <ele>86.659999999999997</ele>
        <time>2018-07-05T12:38:53Z</time>
      </trkpt>
      <trkpt lat="48.529358999803662" lon="-2.754766037687659">
        <ele>94.829999999999998</ele>
        <time>2018-07-05T12:39:04Z</time>
      </trkpt>
      <trkpt lat="48.532216977328062" lon="-2.757022026926279">
        <ele>104.44</ele>
        <time>2018-07-05T12:39:18Z</time>
      </trkpt>
      <trkpt lat="48.534479001536965" lon="-2.758817011490464">
        <ele>110.20999999999999</ele>
        <time>2018-07-05T12:39:29Z</time>
      </trkpt>
      <trkpt lat="48.537160037085414" lon="-2.760841995477676">
        <ele>112.61</ele>
        <time>2018-07-05T12:39:42Z</time>
      </trkpt>
      <trkpt lat="48.538945969194174" lon="-2.762315031141043">
        <ele>115.01000000000001</ele>
        <time>2018-07-05T12:39:51Z</time>
      </trkpt>
      <trkpt lat="48.540971959009767" lon="-2.764512011781335">
        <ele>113.56999999999999</ele>
        <time>2018-07-05T12:40:02Z</time>
      </trkpt>
      <trkpt lat="48.542550019919872" lon="-2.766935974359512">
        <ele>110.20999999999999</ele>
        <time>2018-07-05T12:40:12Z</time>
      </trkpt>
      <trkpt lat="48.544145012274384" lon="-2.770232995972037">
        <ele>106.84</ele>
        <time>2018-07-05T12:40:24Z</time>
      </trkpt>
      <trkpt lat="48.544258000329137" lon="-2.770528960973024">
        <ele>107.31999999999999</ele>
        <time>2018-07-05T12:40:34Z</time>
      </trkpt>
      <trkpt lat="48.545947959646583" lon="-2.777159968391061">
        <ele>113.56999999999999</ele>
        <time>2018-07-05T12:40:46Z</time>
      </trkpt>
      <trkpt lat="48.546274015679955" lon="-2.781205996870995">
        <ele>121.26000000000001</ele>
        <time>2018-07-05T12:40:58Z</time>
      </trkpt>
      <trkpt lat="48.546139989048243" lon="-2.785289995372295">
        <ele>127.51000000000001</ele>
        <time>2018-07-05T12:41:10Z</time>
      </trkpt>
      <trkpt lat="48.545838994905353" lon="-2.789032012224197">
        <ele>131.84</ele>
        <time>2018-07-05T12:41:21Z</time>
      </trkpt>
      <trkpt lat="48.545464994385839" lon="-2.793439971283078">
        <ele>130.88</ele>
        <time>2018-07-05T12:41:34Z</time>
      </trkpt>
      <trkpt lat="48.545214040204883" lon="-2.79887898825109">
        <ele>132.31999999999999</ele>
        <time>2018-07-05T12:41:50Z</time>
      </trkpt>
      <trkpt lat="48.545151008293033" lon="-2.80433401465416">
        <ele>133.28</ele>
        <time>2018-07-05T12:42:06Z</time>
      </trkpt>
      <trkpt lat="48.545091999694705" lon="-2.809107005596161">
        <ele>131.84</ele>
        <time>2018-07-05T12:42:20Z</time>
      </trkpt>
      <trkpt lat="48.545029973611236" lon="-2.816616017371416">
        <ele>134.72</ele>
        <time>2018-07-05T12:42:42Z</time>
      </trkpt>
      <trkpt lat="48.544869041070342" lon="-2.82306999899447">
        <ele>138.09</ele>
        <time>2018-07-05T12:43:01Z</time>
      </trkpt>
      <trkpt lat="48.544553965330124" lon="-2.826452013105154">
        <ele>138.56999999999999</ele>
        <time>2018-07-05T12:43:11Z</time>
      </trkpt>
      <trkpt lat="48.543845023959875" lon="-2.830770034343004">
        <ele>136.63999999999999</ele>
        <time>2018-07-05T12:43:24Z</time>
      </trkpt>
      <trkpt lat="48.542999038472772" lon="-2.833914002403617">
        <ele>140.00999999999999</ele>
        <time>2018-07-05T12:43:41Z</time>
      </trkpt>
      <trkpt lat="48.54089098982513" lon="-2.839545970782638">
        <ele>139.05000000000001</ele>
        <time>2018-07-05T12:43:53Z</time>
      </trkpt>
      <trkpt lat="48.539192983880639" lon="-2.842767974361777">
        <ele>139.05000000000001</ele>
        <time>2018-07-05T12:44:05Z</time>
      </trkpt>
      <trkpt lat="48.536654021590948" lon="-2.847146010026336">
        <ele>140.49000000000001</ele>
        <time>2018-07-05T12:44:22Z</time>
      </trkpt>
      <trkpt lat="48.534433990716934" lon="-2.850975031033158">
        <ele>142.88999999999999</ele>
        <time>2018-07-05T12:44:37Z</time>
      </trkpt>
      <trkpt lat="48.532180013135076" lon="-2.854813020676374">
        <ele>145.30000000000001</ele>
        <time>2018-07-05T12:44:52Z</time>
      </trkpt>
      <trkpt lat="48.531421031802893" lon="-2.856325032189488">
        <ele>145.30000000000001</ele>
        <time>2018-07-05T12:44:59Z</time>
      </trkpt>
      <trkpt lat="48.530865982174873" lon="-2.857862021774054">
        <ele>150.09999999999999</ele>
        <time>2018-07-05T12:45:08Z</time>
      </trkpt>
      <trkpt lat="48.530788030475378" lon="-2.858080035075545">
        <ele>151.06</ele>
        <time>2018-07-05T12:45:10Z</time>
      </trkpt>
      <trkpt lat="48.530767997726798" lon="-2.858138037845492">
        <ele>151.53999999999999</ele>
        <time>2018-07-05T12:45:11Z</time>
      </trkpt>
      <trkpt lat="48.530755005776882" lon="-2.858526958152652">
        <ele>153.47</ele>
        <time>2018-07-05T12:45:17Z</time>
      </trkpt>
      <trkpt lat="48.530789036303759" lon="-2.858570041134954">
        <ele>153.94999999999999</ele>
        <time>2018-07-05T12:45:19Z</time>
      </trkpt>
      <trkpt lat="48.530937982723117" lon="-2.858754023909569">
        <ele>154.43000000000001</ele>
        <time>2018-07-05T12:45:21Z</time>
      </trkpt>
      <trkpt lat="48.531003026291728" lon="-2.858833987265825">
        <ele>154.43000000000001</ele>
        <time>2018-07-05T12:45:22Z</time>
      </trkpt>
      <trkpt lat="48.531087012961507" lon="-2.858889978379011">
        <ele>154.43000000000001</ele>
        <time>2018-07-05T12:45:23Z</time>
      </trkpt>
      <trkpt lat="48.53118097409606" lon="-2.858923003077507">
        <ele>154.43000000000001</ele>
        <time>2018-07-05T12:45:24Z</time>
      </trkpt>
      <trkpt lat="48.531279964372516" lon="-2.858958961442113">
        <ele>153.94999999999999</ele>
        <time>2018-07-05T12:45:25Z</time>
      </trkpt>
      <trkpt lat="48.531379038468003" lon="-2.858957033604384">
        <ele>153.94999999999999</ele>
        <time>2018-07-05T12:45:26Z</time>
      </trkpt>
      <trkpt lat="48.53148004040122" lon="-2.858913028612733">
        <ele>153.47</ele>
        <time>2018-07-05T12:45:27Z</time>
      </trkpt>
      <trkpt lat="48.531583976000547" lon="-2.858868017792702">
        <ele>153.47</ele>
        <time>2018-07-05T12:45:28Z</time>
      </trkpt>
      <trkpt lat="48.531693024560809" lon="-2.8587990347296">
        <ele>152.99000000000001</ele>
        <time>2018-07-05T12:45:29Z</time>
      </trkpt>
      <trkpt lat="48.531771982088685" lon="-2.858665008097887">
        <ele>152.50999999999999</ele>
        <time>2018-07-05T12:45:30Z</time>
      </trkpt>
      <trkpt lat="48.531853035092354" lon="-2.858526036143303">
        <ele>152.50999999999999</ele>
        <time>2018-07-05T12:45:31Z</time>
      </trkpt>
      <trkpt lat="48.531919000670314" lon="-2.858341969549656">
        <ele>152.50999999999999</ele>
        <time>2018-07-05T12:45:32Z</time>
      </trkpt>
      <trkpt lat="48.531972980126739" lon="-2.858114987611771">
        <ele>152.50999999999999</ele>
        <time>2018-07-05T12:45:33Z</time>
      </trkpt>
      <trkpt lat="48.532022014260292" lon="-2.857840983197093">
        <ele>152.03</ele>
        <time>2018-07-05T12:45:34Z</time>
      </trkpt>
      <trkpt lat="48.532066019251943" lon="-2.857538983225822">
        <ele>151.53999999999999</ele>
        <time>2018-07-05T12:45:35Z</time>
      </trkpt>
      <trkpt lat="48.53242501616478" lon="-2.855501007288694">
        <ele>149.13999999999999</ele>
        <time>2018-07-05T12:45:42Z</time>
      </trkpt>
      <trkpt lat="48.533105039969087" lon="-2.853677021339536">
        <ele>147.22</ele>
        <time>2018-07-05T12:45:50Z</time>
      </trkpt>
      <trkpt lat="48.534861970692873" lon="-2.850663978606463">
        <ele>144.34</ele>
        <time>2018-07-05T12:46:05Z</time>
      </trkpt>
      <trkpt lat="48.536459980532527" lon="-2.84792996942997">
        <ele>141.44999999999999</ele>
        <time>2018-07-05T12:46:19Z</time>
      </trkpt>
      <trkpt lat="48.537735035642982" lon="-2.845733994618058">
        <ele>140.49000000000001</ele>
        <time>2018-07-05T12:46:30Z</time>
      </trkpt>
      <trkpt lat="48.539858004078269" lon="-2.842068001627922">
        <ele>139.05000000000001</ele>
        <time>2018-07-05T12:46:46Z</time>
      </trkpt>
      <trkpt lat="48.54095796123147" lon="-2.840003035962582">
        <ele>135.19999999999999</ele>
        <time>2018-07-05T12:46:55Z</time>
      </trkpt>
      <trkpt lat="48.542008968070149" lon="-2.837712010368705">
        <ele>129.43000000000001</ele>
        <time>2018-07-05T12:47:07Z</time>
      </trkpt>
      <trkpt lat="48.542495034635067" lon="-2.83688304014504">
        <ele>127.51000000000001</ele>
        <time>2018-07-05T12:47:13Z</time>
      </trkpt>
      <trkpt lat="48.542726961895823" lon="-2.836146019399166">
        <ele>125.59</ele>
        <time>2018-07-05T12:47:20Z</time>
      </trkpt>
      <trkpt lat="48.542816983535886" lon="-2.836034959182143">
        <ele>125.11</ele>
        <time>2018-07-05T12:47:23Z</time>
      </trkpt>
      <trkpt lat="48.542861994355917" lon="-2.836029008030891">
        <ele>125.11</ele>
        <time>2018-07-05T12:47:24Z</time>
      </trkpt>
      <trkpt lat="48.542904993519187" lon="-2.836022973060608">
        <ele>125.59</ele>
        <time>2018-07-05T12:47:25Z</time>
      </trkpt>
      <trkpt lat="48.542993003502488" lon="-2.836092039942741">
        <ele>125.59</ele>
        <time>2018-07-05T12:47:26Z</time>
      </trkpt>
      <trkpt lat="48.543024016544223" lon="-2.83613596111536">
        <ele>125.59</ele>
        <time>2018-07-05T12:47:27Z</time>
      </trkpt>
      <trkpt lat="48.543057041242719" lon="-2.836183989420533">
        <ele>125.59</ele>
        <time>2018-07-05T12:47:28Z</time>
      </trkpt>
      <trkpt lat="48.543090987950563" lon="-2.836232017725706">
        <ele>125.59</ele>
        <time>2018-07-05T12:47:29Z</time>
      </trkpt>
      <trkpt lat="48.543315036222339" lon="-2.836813973262906">
        <ele>126.06999999999999</ele>
        <time>2018-07-05T12:47:34Z</time>
      </trkpt>
      <trkpt lat="48.543391982093453" lon="-2.8369299788028">
        <ele>126.06999999999999</ele>
        <time>2018-07-05T12:47:35Z</time>
      </trkpt>
      <trkpt lat="48.544210977852345" lon="-2.838148036971688">
        <ele>125.59</ele>
        <time>2018-07-05T12:47:43Z</time>
      </trkpt>
      <trkpt lat="48.545836983248591" lon="-2.84058297984302">
        <ele>125.11</ele>
        <time>2018-07-05T12:47:55Z</time>
      </trkpt>
      <trkpt lat="48.548007979989052" lon="-2.843833984807134">
        <ele>123.19</ele>
        <time>2018-07-05T12:48:10Z</time>
      </trkpt>
      <trkpt lat="48.549336008727551" lon="-2.846156023442745">
        <ele>118.38</ele>
        <time>2018-07-05T12:48:20Z</time>
      </trkpt>
      <trkpt lat="48.55012902058661" lon="-2.848614016547799">
        <ele>112.13</ele>
        <time>2018-07-05T12:48:29Z</time>
      </trkpt>
      <trkpt lat="48.550938041880727" lon="-2.851998964324594">
        <ele>117.90000000000001</ele>
        <time>2018-07-05T12:48:41Z</time>
      </trkpt>
      <trkpt lat="48.551223026588559" lon="-2.853336967527866">
        <ele>122.22</ele>
        <time>2018-07-05T12:48:47Z</time>
      </trkpt>
      <trkpt lat="48.551555033773184" lon="-2.855058023706079">
        <ele>127.03</ele>
        <time>2018-07-05T12:48:57Z</time>
      </trkpt>
      <trkpt lat="48.551810011267662" lon="-2.856334000825882">
        <ele>129.91999999999999</ele>
        <time>2018-07-05T12:49:06Z</time>
      </trkpt>
      <trkpt lat="48.551833983510733" lon="-2.856453023850918">
        <ele>129.91999999999999</ele>
        <time>2018-07-05T12:49:07Z</time>
      </trkpt>
      <trkpt lat="48.551858039572835" lon="-2.856571041047573">
        <ele>129.43000000000001</ele>
        <time>2018-07-05T12:49:08Z</time>
      </trkpt>
      <trkpt lat="48.551885029301047" lon="-2.856686962768436">
        <ele>129.43000000000001</ele>
        <time>2018-07-05T12:49:09Z</time>
      </trkpt>
      <trkpt lat="48.552031964063644" lon="-2.856708001345396">
        <ele>129.43000000000001</ele>
        <time>2018-07-05T12:49:10Z</time>
      </trkpt>
      <trkpt lat="48.552119974046946" lon="-2.856756029650569">
        <ele>129.43000000000001</ele>
        <time>2018-07-05T12:49:11Z</time>
      </trkpt>
      <trkpt lat="48.55221401900053" lon="-2.856807997450233">
        <ele>128.94999999999999</ele>
        <time>2018-07-05T12:49:12Z</time>
      </trkpt>
      <trkpt lat="48.553221020847559" lon="-2.857289034873247">
        <ele>124.63</ele>
        <time>2018-07-05T12:49:23Z</time>
      </trkpt>
      <trkpt lat="48.553528971970081" lon="-2.857373021543026">
        <ele>124.63</ele>
        <time>2018-07-05T12:49:28Z</time>
      </trkpt>
      <trkpt lat="48.55373801663518" lon="-2.857427000999451">
        <ele>123.67</ele>
        <time>2018-07-05T12:49:32Z</time>
      </trkpt>
      <trkpt lat="48.553806999698281" lon="-2.85744502209127">
        <ele>123.19</ele>
        <time>2018-07-05T12:49:38Z</time>
      </trkpt>
      <trkpt lat="48.553831977769732" lon="-2.857450973242521">
        <ele>123.19</ele>
        <time>2018-07-05T12:49:39Z</time>
      </trkpt>
      <trkpt lat="48.553842036053538" lon="-2.857453990727663">
        <ele>123.19</ele>
        <time>2018-07-05T12:49:40Z</time>
      </trkpt>
      <trkpt lat="48.553856033831835" lon="-2.857520040124655">
        <ele>123.19</ele>
        <time>2018-07-05T12:49:41Z</time>
      </trkpt>
      <trkpt lat="48.553874976933002" lon="-2.857611989602447">
        <ele>123.67</ele>
        <time>2018-07-05T12:49:42Z</time>
      </trkpt>
      <trkpt lat="48.553897021338344" lon="-2.857718020677567">
        <ele>123.67</ele>
        <time>2018-07-05T12:49:43Z</time>
      </trkpt>
      <trkpt lat="48.554000034928322" lon="-2.858205009251833">
        <ele>124.63</ele>
        <time>2018-07-05T12:49:47Z</time>
      </trkpt>
      <trkpt lat="48.554044961929321" lon="-2.858331995084882">
        <ele>124.63</ele>
        <time>2018-07-05T12:49:48Z</time>
      </trkpt>
      <trkpt lat="48.554102964699268" lon="-2.858448000624776">
        <ele>124.63</ele>
        <time>2018-07-05T12:49:49Z</time>
      </trkpt>
      <trkpt lat="48.554161973297596" lon="-2.858567023649812">
        <ele>125.11</ele>
        <time>2018-07-05T12:49:50Z</time>
      </trkpt>
      <trkpt lat="48.554225005209446" lon="-2.85869300365448">
        <ele>125.11</ele>
        <time>2018-07-05T12:49:51Z</time>
      </trkpt>
      <trkpt lat="48.554568998515606" lon="-2.859421977773309">
        <ele>123.67</ele>
        <time>2018-07-05T12:49:58Z</time>
      </trkpt>
      <trkpt lat="48.554610991850495" lon="-2.859505964443088">
        <ele>123.67</ele>
        <time>2018-07-05T12:49:59Z</time>
      </trkpt>
      <trkpt lat="48.554652985185385" lon="-2.859588023275137">
        <ele>123.19</ele>
        <time>2018-07-05T12:50:00Z</time>
      </trkpt>
      <trkpt lat="48.555174004286528" lon="-2.860612040385604">
        <ele>122.70999999999999</ele>
        <time>2018-07-05T12:50:10Z</time>
      </trkpt>
      <trkpt lat="48.555950000882149" lon="-2.862170990556479">
        <ele>117.42</ele>
        <time>2018-07-05T12:50:22Z</time>
      </trkpt>
      <trkpt lat="48.556014960631728" lon="-2.862309040501714">
        <ele>116.45999999999999</ele>
        <time>2018-07-05T12:50:23Z</time>
      </trkpt>
      <trkpt lat="48.556075980886817" lon="-2.862458992749453">
        <ele>115.98</ele>
        <time>2018-07-05T12:50:24Z</time>
      </trkpt>
      <trkpt lat="48.556092996150255" lon="-2.862634006887674">
        <ele>115.01000000000001</ele>
        <time>2018-07-05T12:50:25Z</time>
      </trkpt>
      <trkpt lat="48.556111017242074" lon="-2.862812960520387">
        <ele>114.05</ele>
        <time>2018-07-05T12:50:26Z</time>
      </trkpt>
      <trkpt lat="48.556129960343242" lon="-2.862999960780144">
        <ele>113.09</ele>
        <time>2018-07-05T12:50:27Z</time>
      </trkpt>
      <trkpt lat="48.556148987263441" lon="-2.863188972696662">
        <ele>112.13</ele>
        <time>2018-07-05T12:50:28Z</time>
      </trkpt>
      <trkpt lat="48.556158039718866" lon="-2.863386031240225">
        <ele>111.17</ele>
        <time>2018-07-05T12:50:29Z</time>
      </trkpt>
      <trkpt lat="48.556089978665113" lon="-2.865495001897216">
        <ele>102.04000000000001</ele>
        <time>2018-07-05T12:50:38Z</time>
      </trkpt>
      <trkpt lat="48.556041028350592" lon="-2.865708991885185">
        <ele>101.08</ele>
        <time>2018-07-05T12:50:39Z</time>
      </trkpt>
      <trkpt lat="48.555965004488826" lon="-2.865895992144942">
        <ele>100.11</ele>
        <time>2018-07-05T12:50:40Z</time>
      </trkpt>
      <trkpt lat="48.555548004806042" lon="-2.866784976795316">
        <ele>97.230000000000004</ele>
        <time>2018-07-05T12:50:45Z</time>
      </trkpt>
      <trkpt lat="48.555537024512887" lon="-2.866998966783285">
        <ele>96.75</ele>
        <time>2018-07-05T12:50:46Z</time>
      </trkpt>
      <trkpt lat="48.555537024512887" lon="-2.867189990356565">
        <ele>96.269999999999996</ele>
        <time>2018-07-05T12:50:47Z</time>
      </trkpt>
      <trkpt lat="48.555572982877493" lon="-2.867371961474419">
        <ele>95.310000000000002</ele>
        <time>2018-07-05T12:50:48Z</time>
      </trkpt>
      <trkpt lat="48.555639032274485" lon="-2.867509005591273">
        <ele>94.829999999999998</ele>
        <time>2018-07-05T12:50:49Z</time>
      </trkpt>
      <trkpt lat="48.55573701672256" lon="-2.867599027231336">
        <ele>94.349999999999994</ele>
        <time>2018-07-05T12:50:50Z</time>
      </trkpt>
      <trkpt lat="48.555841958150268" lon="-2.86769500002265">
        <ele>93.870000000000005</ele>
        <time>2018-07-05T12:50:51Z</time>
      </trkpt>
      <trkpt lat="48.555958969518542" lon="-2.86778200417757">
        <ele>93.390000000000001</ele>
        <time>2018-07-05T12:50:52Z</time>
      </trkpt>
      <trkpt lat="48.557165041565895" lon="-2.868636958301067">
        <ele>95.310000000000002</ele>
        <time>2018-07-05T12:51:00Z</time>
      </trkpt>
      <trkpt lat="48.558558030053973" lon="-2.869707997888327">
        <ele>103</ele>
        <time>2018-07-05T12:51:09Z</time>
      </trkpt>
      <trkpt lat="48.5586809925735" lon="-2.869876977056265">
        <ele>103.95999999999999</ele>
        <time>2018-07-05T12:51:10Z</time>
      </trkpt>
      <trkpt lat="48.558793980628252" lon="-2.870077975094318">
        <ele>104.44</ele>
        <time>2018-07-05T12:51:11Z</time>
      </trkpt>
      <trkpt lat="48.558907974511385" lon="-2.87029598839581">
        <ele>105.40000000000001</ele>
        <time>2018-07-05T12:51:12Z</time>
      </trkpt>
      <trkpt lat="48.559022974222898" lon="-2.870529005303979">
        <ele>105.88</ele>
        <time>2018-07-05T12:51:13Z</time>
      </trkpt>
      <trkpt lat="48.559891004115343" lon="-2.872270010411739">
        <ele>111.65000000000001</ele>
        <time>2018-07-05T12:51:20Z</time>
      </trkpt>
      <trkpt lat="48.560045985504985" lon="-2.872453993186355">
        <ele>112.13</ele>
        <time>2018-07-05T12:51:21Z</time>
      </trkpt>
      <trkpt lat="48.560202978551388" lon="-2.872633030638099">
        <ele>112.13</ele>
        <time>2018-07-05T12:51:22Z</time>
      </trkpt>
      <trkpt lat="48.561437968164682" lon="-2.874147975817323">
        <ele>110.20999999999999</ele>
        <time>2018-07-05T12:51:30Z</time>
      </trkpt>
      <trkpt lat="48.562233997508883" lon="-2.875500982627273">
        <ele>107.31999999999999</ele>
        <time>2018-07-05T12:51:38Z</time>
      </trkpt>
      <trkpt lat="48.563261032104492" lon="-2.877462012693286">
        <ele>100.59999999999999</ele>
        <time>2018-07-05T12:51:49Z</time>
      </trkpt>
      <trkpt lat="48.564022025093436" lon="-2.878748970106244">
        <ele>100.59999999999999</ele>
        <time>2018-07-05T12:51:59Z</time>
      </trkpt>
      <trkpt lat="48.56465402059257" lon="-2.880386039614677">
        <ele>101.08</ele>
        <time>2018-07-05T12:52:10Z</time>
      </trkpt>
      <trkpt lat="48.565076971426606" lon="-2.881920011714101">
        <ele>96.75</ele>
        <time>2018-07-05T12:52:19Z</time>
      </trkpt>
      <trkpt lat="48.5656229685992" lon="-2.882886026054621">
        <ele>93.870000000000005</ele>
        <time>2018-07-05T12:52:28Z</time>
      </trkpt>
      <trkpt lat="48.565678959712386" lon="-2.882973030209541">
        <ele>93.870000000000005</ele>
        <time>2018-07-05T12:52:29Z</time>
      </trkpt>
      <trkpt lat="48.565733022987843" lon="-2.88305601105094">
        <ele>94.349999999999994</ele>
        <time>2018-07-05T12:52:30Z</time>
      </trkpt>
      <trkpt lat="48.565962016582489" lon="-2.883532019332051">
        <ele>95.790000000000006</ele>
        <time>2018-07-05T12:52:35Z</time>
      </trkpt>
      <trkpt lat="48.566000992432237" lon="-2.883642995730043">
        <ele>96.269999999999996</ele>
        <time>2018-07-05T12:52:36Z</time>
      </trkpt>
      <trkpt lat="48.566039968281984" lon="-2.883753972128034">
        <ele>96.75</ele>
        <time>2018-07-05T12:52:37Z</time>
      </trkpt>
      <trkpt lat="48.566081961616874" lon="-2.883871989324689">
        <ele>96.75</ele>
        <time>2018-07-05T12:52:38Z</time>
      </trkpt>
      <trkpt lat="48.566124960780144" lon="-2.883993024006486">
        <ele>96.75</ele>
        <time>2018-07-05T12:52:39Z</time>
      </trkpt>
      <trkpt lat="48.566168965771794" lon="-2.884117998182774">
        <ele>97.230000000000004</ele>
        <time>2018-07-05T12:52:40Z</time>
      </trkpt>
      <trkpt lat="48.566895006224513" lon="-2.885651970282197">
        <ele>103.95999999999999</ele>
        <time>2018-07-05T12:52:52Z</time>
      </trkpt>
      <trkpt lat="48.567568995058537" lon="-2.887347964569926">
        <ele>109.25</ele>
        <time>2018-07-05T12:53:03Z</time>
      </trkpt>
      <trkpt lat="48.567749038338661" lon="-2.887622974812985">
        <ele>110.20999999999999</ele>
        <time>2018-07-05T12:53:05Z</time>
      </trkpt>
      <trkpt lat="48.567838976159692" lon="-2.8877620305866">
        <ele>110.20999999999999</ele>
        <time>2018-07-05T12:53:06Z</time>
      </trkpt>
      <trkpt lat="48.568333005532622" lon="-2.888570968061686">
        <ele>111.17</ele>
        <time>2018-07-05T12:53:12Z</time>
      </trkpt>
      <trkpt lat="48.568838015198708" lon="-2.889553997665644">
        <ele>110.69</ele>
        <time>2018-07-05T12:53:20Z</time>
      </trkpt>
      <trkpt lat="48.569828001782298" lon="-2.890797033905983">
        <ele>110.69</ele>
        <time>2018-07-05T12:53:31Z</time>
      </trkpt>
      <trkpt lat="48.570480030030012" lon="-2.891896991059184">
        <ele>110.20999999999999</ele>
        <time>2018-07-05T12:53:42Z</time>
      </trkpt>
      <trkpt lat="48.570497967302799" lon="-2.89199598133564">
        <ele>110.20999999999999</ele>
        <time>2018-07-05T12:53:43Z</time>
      </trkpt>
      <trkpt lat="48.57051900587976" lon="-2.892107963562012">
        <ele>110.69</ele>
        <time>2018-07-05T12:53:44Z</time>
      </trkpt>
      <trkpt lat="48.57054297812283" lon="-2.892236961051822">
        <ele>110.69</ele>
        <time>2018-07-05T12:53:45Z</time>
      </trkpt>
      <trkpt lat="48.570569967851043" lon="-2.892383979633451">
        <ele>110.69</ele>
        <time>2018-07-05T12:53:46Z</time>
      </trkpt>
      <trkpt lat="48.570599975064397" lon="-2.892546001821756">
        <ele>110.20999999999999</ele>
        <time>2018-07-05T12:53:47Z</time>
      </trkpt>
      <trkpt lat="48.570836009457707" lon="-2.894197991117835">
        <ele>106.84</ele>
        <time>2018-07-05T12:53:55Z</time>
      </trkpt>
      <trkpt lat="48.571137003600597" lon="-2.895842017605901">
        <ele>102.52</ele>
        <time>2018-07-05T12:54:02Z</time>
      </trkpt>
      <trkpt lat="48.571224007755518" lon="-2.89603496901691">
        <ele>102.04000000000001</ele>
        <time>2018-07-05T12:54:03Z</time>
      </trkpt>
      <trkpt lat="48.571320986375213" lon="-2.896251976490021">
        <ele>101.56</ele>
        <time>2018-07-05T12:54:04Z</time>
      </trkpt>
      <trkpt lat="48.571436991915107" lon="-2.89644199423492">
        <ele>100.59999999999999</ele>
        <time>2018-07-05T12:54:05Z</time>
      </trkpt>
      <trkpt lat="48.57155199162662" lon="-2.896624971181154">
        <ele>99.629999999999995</ele>
        <time>2018-07-05T12:54:06Z</time>
      </trkpt>
      <trkpt lat="48.572046020999551" lon="-2.897514039650559">
        <ele>94.829999999999998</ele>
        <time>2018-07-05T12:54:11Z</time>
      </trkpt>
      <trkpt lat="48.572123972699046" lon="-2.897696010768414">
        <ele>93.870000000000005</ele>
        <time>2018-07-05T12:54:12Z</time>
      </trkpt>
      <trkpt lat="48.572201002389193" lon="-2.897874964401126">
        <ele>92.420000000000002</ele>
        <time>2018-07-05T12:54:13Z</time>
      </trkpt>
      <trkpt lat="48.572251964360476" lon="-2.898060036823154">
        <ele>90.980000000000004</ele>
        <time>2018-07-05T12:54:14Z</time>
      </trkpt>
      <trkpt lat="48.572291024029255" lon="-2.898267991840839">
        <ele>90.019999999999996</ele>
        <time>2018-07-05T12:54:15Z</time>
      </trkpt>
      <trkpt lat="48.572329999879003" lon="-2.898480976000428">
        <ele>89.060000000000002</ele>
        <time>2018-07-05T12:54:16Z</time>
      </trkpt>
      <trkpt lat="48.572629988193512" lon="-2.900294987484813">
        <ele>82.329999999999998</ele>
        <time>2018-07-05T12:54:25Z</time>
      </trkpt>
      <trkpt lat="48.57264700345695" lon="-2.90048299357295">
        <ele>80.890000000000001</ele>
        <time>2018-07-05T12:54:26Z</time>
      </trkpt>
      <trkpt lat="48.572758985683322" lon="-2.901281034573913">
        <ele>74.159999999999997</ele>
        <time>2018-07-05T12:54:31Z</time>
      </trkpt>
      <trkpt lat="48.572780024260283" lon="-2.901396034285426">
        <ele>72.719999999999999</ele>
        <time>2018-07-05T12:54:32Z</time>
      </trkpt>
      <trkpt lat="48.572859987616539" lon="-2.901500975713134">
        <ele>71.269999999999996</ele>
        <time>2018-07-05T12:54:33Z</time>
      </trkpt>
      <trkpt lat="48.572933999821544" lon="-2.901561995968223">
        <ele>70.310000000000002</ele>
        <time>2018-07-05T12:54:34Z</time>
      </trkpt>
      <trkpt lat="48.573014969006181" lon="-2.901628967374563">
        <ele>69.349999999999994</ele>
        <time>2018-07-05T12:54:35Z</time>
      </trkpt>
      <trkpt lat="48.573108008131385" lon="-2.90170599706471">
        <ele>68.390000000000001</ele>
        <time>2018-07-05T12:54:36Z</time>
      </trkpt>
      <trkpt lat="48.573315041139722" lon="-2.901886040344834">
        <ele>67.430000000000007</ele>
        <time>2018-07-05T12:54:38Z</time>
      </trkpt>
      <trkpt lat="48.573984000831842" lon="-2.902834033593535">
        <ele>64.549999999999997</ele>
        <time>2018-07-05T12:54:44Z</time>
      </trkpt>
      <trkpt lat="48.574529998004436" lon="-2.904476970434189">
        <ele>62.619999999999997</ele>
        <time>2018-07-05T12:54:51Z</time>
      </trkpt>
      <trkpt lat="48.574510971084237" lon="-2.90647697634995">
        <ele>63.579999999999998</ele>
        <time>2018-07-05T12:54:58Z</time>
      </trkpt>
      <trkpt lat="48.57440703548491" lon="-2.908047996461391">
        <ele>66.469999999999999</ele>
        <time>2018-07-05T12:55:03Z</time>
      </trkpt>
      <trkpt lat="48.574428996071219" lon="-2.908371035009623">
        <ele>67.430000000000007</ele>
        <time>2018-07-05T12:55:04Z</time>
      </trkpt>
      <trkpt lat="48.574476018548012" lon="-2.9086899664253">
        <ele>68.390000000000001</ele>
        <time>2018-07-05T12:55:05Z</time>
      </trkpt>
      <trkpt lat="48.574755974113941" lon="-2.911210991442204">
        <ele>77.519999999999996</ele>
        <time>2018-07-05T12:55:13Z</time>
      </trkpt>
      <trkpt lat="48.574531003832817" lon="-2.913891021162272">
        <ele>87.620000000000005</ele>
        <time>2018-07-05T12:55:21Z</time>
      </trkpt>
      <trkpt lat="48.574125990271568" lon="-2.916397964581847">
        <ele>97.230000000000004</ele>
        <time>2018-07-05T12:55:29Z</time>
      </trkpt>
      <trkpt lat="48.573559038341045" lon="-2.919915011152625">
        <ele>108.29000000000001</ele>
        <time>2018-07-05T12:55:41Z</time>
      </trkpt>
      <trkpt lat="48.573673032224178" lon="-2.922319024801254">
        <ele>113.56999999999999</ele>
        <time>2018-07-05T12:55:49Z</time>
      </trkpt>
      <trkpt lat="48.573818961158395" lon="-2.923179008066654">
        <ele>115.98</ele>
        <time>2018-07-05T12:55:52Z</time>
      </trkpt>
      <trkpt lat="48.574691014364362" lon="-2.925618980079889">
        <ele>118.86</ele>
        <time>2018-07-05T12:56:01Z</time>
      </trkpt>
      <trkpt lat="48.575861966237426" lon="-2.927275998517871">
        <ele>120.3</ele>
        <time>2018-07-05T12:56:09Z</time>
      </trkpt>
      <trkpt lat="48.57853596098721" lon="-2.930032974109054">
        <ele>122.70999999999999</ele>
        <time>2018-07-05T12:56:25Z</time>
      </trkpt>
      <trkpt lat="48.580370005220175" lon="-2.931928038597107">
        <ele>124.15000000000001</ele>
        <time>2018-07-05T12:56:36Z</time>
      </trkpt>
      <trkpt lat="48.582044960930943" lon="-2.933659991249442">
        <ele>125.59</ele>
        <time>2018-07-05T12:56:46Z</time>
      </trkpt>
      <trkpt lat="48.58442097902298" lon="-2.935947999358177">
        <ele>127.03</ele>
        <time>2018-07-05T12:57:00Z</time>
      </trkpt>
      <trkpt lat="48.586374968290329" lon="-2.937554977834225">
        <ele>126.06999999999999</ele>
        <time>2018-07-05T12:57:11Z</time>
      </trkpt>
      <trkpt lat="48.588892975822091" lon="-2.939495975151658">
        <ele>123.67</ele>
        <time>2018-07-05T12:57:25Z</time>
      </trkpt>
      <trkpt lat="48.589989999309182" lon="-2.940800031647086">
        <ele>122.70999999999999</ele>
        <time>2018-07-05T12:57:32Z</time>
      </trkpt>
      <trkpt lat="48.590977974236012" lon="-2.943096002563834">
        <ele>122.70999999999999</ele>
        <time>2018-07-05T12:57:41Z</time>
      </trkpt>
      <trkpt lat="48.592493003234267" lon="-2.945964960381389">
        <ele>122.22</ele>
        <time>2018-07-05T12:57:53Z</time>
      </trkpt>
      <trkpt lat="48.594556041061878" lon="-2.949335994198918">
        <ele>119.81999999999999</ele>
        <time>2018-07-05T12:58:08Z</time>
      </trkpt>
      <trkpt lat="48.596094958484173" lon="-2.950793020427227">
        <ele>118.38</ele>
        <time>2018-07-05T12:58:17Z</time>
      </trkpt>
      <trkpt lat="48.597670001909137" lon="-2.952063968405128">
        <ele>115.98</ele>
        <time>2018-07-05T12:58:26Z</time>
      </trkpt>
      <trkpt lat="48.598760990425944" lon="-2.953214971348643">
        <ele>115.5</ele>
        <time>2018-07-05T12:58:34Z</time>
      </trkpt>
      <trkpt lat="48.600178034976125" lon="-2.954467982053757">
        <ele>115.01000000000001</ele>
        <time>2018-07-05T12:58:43Z</time>
      </trkpt>
      <trkpt lat="48.601804040372372" lon="-2.955316985026002">
        <ele>114.05</ele>
        <time>2018-07-05T12:58:52Z</time>
      </trkpt>
      <trkpt lat="48.603785019367933" lon="-2.956352988258004">
        <ele>111.17</ele>
        <time>2018-07-05T12:59:04Z</time>
      </trkpt>
      <trkpt lat="48.605328965932131" lon="-2.957279020920396">
        <ele>110.20999999999999</ele>
        <time>2018-07-05T12:59:13Z</time>
      </trkpt>
      <trkpt lat="48.607185976579785" lon="-2.958399010822177">
        <ele>108.77</ele>
        <time>2018-07-05T12:59:24Z</time>
      </trkpt>
      <trkpt lat="48.608984984457493" lon="-2.959508020430803">
        <ele>107.31999999999999</ele>
        <time>2018-07-05T12:59:35Z</time>
      </trkpt>
      <trkpt lat="48.609800040721893" lon="-2.960013030096889">
        <ele>105.88</ele>
        <time>2018-07-05T12:59:40Z</time>
      </trkpt>
      <trkpt lat="48.609953010454774" lon="-2.960106991231442">
        <ele>104.92</ele>
        <time>2018-07-05T12:59:41Z</time>
      </trkpt>
      <trkpt lat="48.61011796630919" lon="-2.960250992327929">
        <ele>104.44</ele>
        <time>2018-07-05T12:59:42Z</time>
      </trkpt>
      <trkpt lat="48.611429985612631" lon="-2.961652027443051">
        <ele>99.629999999999995</ele>
        <time>2018-07-05T12:59:51Z</time>
      </trkpt>
      <trkpt lat="48.613463016226888" lon="-2.964073978364468">
        <ele>97.230000000000004</ele>
        <time>2018-07-05T13:00:06Z</time>
      </trkpt>
      <trkpt lat="48.615092039108276" lon="-2.966038025915623">
        <ele>101.08</ele>
        <time>2018-07-05T13:00:18Z</time>
      </trkpt>
      <trkpt lat="48.616335997357965" lon="-2.967251976951957">
        <ele>102.52</ele>
        <time>2018-07-05T13:00:26Z</time>
      </trkpt>
      <trkpt lat="48.618198959156871" lon="-2.968105003237724">
        <ele>103.48</ele>
        <time>2018-07-05T13:00:36Z</time>
      </trkpt>
      <trkpt lat="48.62010701559484" lon="-2.969044027850032">
        <ele>103.48</ele>
        <time>2018-07-05T13:00:46Z</time>
      </trkpt>
      <trkpt lat="48.622134011238813" lon="-2.970389993861318">
        <ele>105.40000000000001</ele>
        <time>2018-07-05T13:00:57Z</time>
      </trkpt>
      <trkpt lat="48.623605035245419" lon="-2.971960008144379">
        <ele>104.92</ele>
        <time>2018-07-05T13:01:06Z</time>
      </trkpt>
      <trkpt lat="48.625364983454347" lon="-2.974001001566649">
        <ele>104.92</ele>
        <time>2018-07-05T13:01:17Z</time>
      </trkpt>
      <trkpt lat="48.627141024917364" lon="-2.975439000874758">
        <ele>103.48</ele>
        <time>2018-07-05T13:01:27Z</time>
      </trkpt>
      <trkpt lat="48.628902984783053" lon="-2.976098991930485">
        <ele>103.48</ele>
        <time>2018-07-05T13:01:36Z</time>
      </trkpt>
      <trkpt lat="48.630510969087481" lon="-2.976255984976888">
        <ele>103.95999999999999</ele>
        <time>2018-07-05T13:01:44Z</time>
      </trkpt>
      <trkpt lat="48.631774038076401" lon="-2.976308958604932">
        <ele>103.95999999999999</ele>
        <time>2018-07-05T13:01:52Z</time>
      </trkpt>
      <trkpt lat="48.632381977513433" lon="-2.976327985525131">
        <ele>103</ele>
        <time>2018-07-05T13:01:59Z</time>
      </trkpt>
      <trkpt lat="48.632728988304734" lon="-2.97634600661695">
        <ele>100.59999999999999</ele>
        <time>2018-07-05T13:02:07Z</time>
      </trkpt>
      <trkpt lat="48.632880030199885" lon="-2.976297978311777">
        <ele>99.629999999999995</ele>
        <time>2018-07-05T13:02:10Z</time>
      </trkpt>
      <trkpt lat="48.632929986342788" lon="-2.976263025775552">
        <ele>99.150000000000006</ele>
        <time>2018-07-05T13:02:11Z</time>
      </trkpt>
      <trkpt lat="48.632982037961483" lon="-2.976224971935153">
        <ele>99.150000000000006</ele>
        <time>2018-07-05T13:02:12Z</time>
      </trkpt>
      <trkpt lat="48.633035011589527" lon="-2.976187001913786">
        <ele>99.150000000000006</ele>
        <time>2018-07-05T13:02:13Z</time>
      </trkpt>
      <trkpt lat="48.63310600630939" lon="-2.976136039942503">
        <ele>98.670000000000002</ele>
        <time>2018-07-05T13:02:14Z</time>
      </trkpt>
      <trkpt lat="48.633188987150788" lon="-2.976011987775564">
        <ele>98.189999999999998</ele>
        <time>2018-07-05T13:02:16Z</time>
      </trkpt>
      <trkpt lat="48.6332350037992" lon="-2.975943004712462">
        <ele>97.709999999999994</ele>
        <time>2018-07-05T13:02:17Z</time>
      </trkpt>
      <trkpt lat="48.633304992690682" lon="-2.975920038297772">
        <ele>97.709999999999994</ele>
        <time>2018-07-05T13:02:18Z</time>
      </trkpt>
      <trkpt lat="48.63338403403759" lon="-2.975893970578909">
        <ele>97.230000000000004</ele>
        <time>2018-07-05T13:02:19Z</time>
      </trkpt>
      <trkpt lat="48.633473971858621" lon="-2.975910985842347">
        <ele>97.230000000000004</ele>
        <time>2018-07-05T13:02:20Z</time>
      </trkpt>
      <trkpt lat="48.633557958528399" lon="-2.975968988612294">
        <ele>97.709999999999994</ele>
        <time>2018-07-05T13:02:21Z</time>
      </trkpt>
      <trkpt lat="48.633643034845591" lon="-2.976029003039002">
        <ele>97.230000000000004</ele>
        <time>2018-07-05T13:02:22Z</time>
      </trkpt>
      <trkpt lat="48.633706988766789" lon="-2.976170992478728">
        <ele>97.230000000000004</ele>
        <time>2018-07-05T13:02:23Z</time>
      </trkpt>
      <trkpt lat="48.633779995143414" lon="-2.976298984140158">
        <ele>97.230000000000004</ele>
        <time>2018-07-05T13:02:24Z</time>
      </trkpt>
      <trkpt lat="48.633866999298334" lon="-2.976400991901755">
        <ele>97.230000000000004</ele>
        <time>2018-07-05T13:02:25Z</time>
      </trkpt>
      <trkpt lat="48.633959032595158" lon="-2.976506017148495">
        <ele>96.75</ele>
        <time>2018-07-05T13:02:26Z</time>
      </trkpt>
      <trkpt lat="48.634061962366104" lon="-2.976609030738473">
        <ele>96.75</ele>
        <time>2018-07-05T13:02:27Z</time>
      </trkpt>
      <trkpt lat="48.635044991970062" lon="-2.977340016514063">
        <ele>94.829999999999998</ele>
        <time>2018-07-05T13:02:35Z</time>
      </trkpt>
      <trkpt lat="48.635933976620436" lon="-2.978658992797136">
        <ele>93.870000000000005</ele>
        <time>2018-07-05T13:02:43Z</time>
      </trkpt>
      <trkpt lat="48.636951958760619" lon="-2.980733010917902">
        <ele>92.900000000000006</ele>
        <time>2018-07-05T13:02:55Z</time>
      </trkpt>
      <trkpt lat="48.637642962858081" lon="-2.982475021854043">
        <ele>95.310000000000002</ele>
        <time>2018-07-05T13:03:05Z</time>
      </trkpt>
      <trkpt lat="48.63817404024303" lon="-2.984454995021224">
        <ele>93.390000000000001</ele>
        <time>2018-07-05T13:03:16Z</time>
      </trkpt>
      <trkpt lat="48.638763958588243" lon="-2.986374031752348">
        <ele>93.870000000000005</ele>
        <time>2018-07-05T13:03:28Z</time>
      </trkpt>
      <trkpt lat="48.638923969119787" lon="-2.986963028088212">
        <ele>94.829999999999998</ele>
        <time>2018-07-05T13:03:34Z</time>
      </trkpt>
      <trkpt lat="48.639071993529797" lon="-2.987057995051146">
        <ele>94.829999999999998</ele>
        <time>2018-07-05T13:03:35Z</time>
      </trkpt>
      <trkpt lat="48.639094037935138" lon="-2.987103005871177">
        <ele>94.829999999999998</ele>
        <time>2018-07-05T13:03:36Z</time>
      </trkpt>
      <trkpt lat="48.639136031270027" lon="-2.987186992540956">
        <ele>94.829999999999998</ele>
        <time>2018-07-05T13:03:37Z</time>
      </trkpt>
      <trkpt lat="48.63912002183497" lon="-2.987396959215403">
        <ele>94.829999999999998</ele>
        <time>2018-07-05T13:03:38Z</time>
      </trkpt>
      <trkpt lat="48.639117004349828" lon="-2.987595023587346">
        <ele>94.829999999999998</ele>
        <time>2018-07-05T13:03:39Z</time>
      </trkpt>
      <trkpt lat="48.639179030433297" lon="-2.987712034955621">
        <ele>94.829999999999998</ele>
        <time>2018-07-05T13:03:40Z</time>
      </trkpt>
      <trkpt lat="48.639246001839638" lon="-2.98783902078867">
        <ele>94.829999999999998</ele>
        <time>2018-07-05T13:03:41Z</time>
      </trkpt>
      <trkpt lat="48.639284977689385" lon="-2.987997019663453">
        <ele>95.310000000000002</ele>
        <time>2018-07-05T13:03:42Z</time>
      </trkpt>
      <trkpt lat="48.63931498490274" lon="-2.988175973296166">
        <ele>95.310000000000002</ele>
        <time>2018-07-05T13:03:43Z</time>
      </trkpt>
      <trkpt lat="48.639345997944474" lon="-2.988363979384303">
        <ele>95.790000000000006</ele>
        <time>2018-07-05T13:03:44Z</time>
      </trkpt>
      <trkpt lat="48.639555964618921" lon="-2.989167971536517">
        <ele>97.230000000000004</ele>
        <time>2018-07-05T13:03:48Z</time>
      </trkpt>
      <trkpt lat="48.64039096981287" lon="-2.991526974365115">
        <ele>100.59999999999999</ele>
        <time>2018-07-05T13:03:58Z</time>
      </trkpt>
      <trkpt lat="48.641044003888965" lon="-2.994008017703891">
        <ele>102.04000000000001</ele>
        <time>2018-07-05T13:04:07Z</time>
      </trkpt>
      <trkpt lat="48.641254976391792" lon="-2.997334962710738">
        <ele>102.52</ele>
        <time>2018-07-05T13:04:18Z</time>
      </trkpt>
      <trkpt lat="48.641496039927006" lon="-2.998807998374105">
        <ele>101.56</ele>
        <time>2018-07-05T13:04:23Z</time>
      </trkpt>
      <trkpt lat="48.64157298579812" lon="-2.999091977253556">
        <ele>101.56</ele>
        <time>2018-07-05T13:04:24Z</time>
      </trkpt>
      <trkpt lat="48.641651021316648" lon="-2.99937603995204">
        <ele>101.56</ele>
        <time>2018-07-05T13:04:25Z</time>
      </trkpt>
      <trkpt lat="48.642521984875202" lon="-3.001035992056131">
        <ele>101.08</ele>
        <time>2018-07-05T13:04:32Z</time>
      </trkpt>
      <trkpt lat="48.643859988078475" lon="-3.002851009368897">
        <ele>100.11</ele>
        <time>2018-07-05T13:04:41Z</time>
      </trkpt>
      <trkpt lat="48.646285040304065" lon="-3.006160017102957">
        <ele>96.269999999999996</ele>
        <time>2018-07-05T13:04:58Z</time>
      </trkpt>
      <trkpt lat="48.648471962660551" lon="-3.008962003514171">
        <ele>93.390000000000001</ele>
        <time>2018-07-05T13:05:13Z</time>
      </trkpt>
      <trkpt lat="48.649947009980679" lon="-3.010254995897412">
        <ele>92.420000000000002</ele>
        <time>2018-07-05T13:05:22Z</time>
      </trkpt>
      <trkpt lat="48.651653984561563" lon="-3.011569026857615">
        <ele>94.349999999999994</ele>
        <time>2018-07-05T13:05:32Z</time>
      </trkpt>
      <trkpt lat="48.652645982801914" lon="-3.013334004208446">
        <ele>92.900000000000006</ele>
        <time>2018-07-05T13:05:40Z</time>
      </trkpt>
      <trkpt lat="48.654205016791821" lon="-3.015829967334867">
        <ele>94.349999999999994</ele>
        <time>2018-07-05T13:05:52Z</time>
      </trkpt>
      <trkpt lat="48.655735971406102" lon="-3.017658982425928">
        <ele>95.790000000000006</ele>
        <time>2018-07-05T13:06:01Z</time>
      </trkpt>
      <trkpt lat="48.65860995836556" lon="-3.020607987418771">
        <ele>95.310000000000002</ele>
        <time>2018-07-05T13:06:15Z</time>
      </trkpt>
      <trkpt lat="48.661020006984472" lon="-3.022513026371598">
        <ele>92.900000000000006</ele>
        <time>2018-07-05T13:06:25Z</time>
      </trkpt>
      <trkpt lat="48.663467019796371" lon="-3.024110030382872">
        <ele>89.060000000000002</ele>
        <time>2018-07-05T13:06:35Z</time>
      </trkpt>
      <trkpt lat="48.665561992675066" lon="-3.024576986208558">
        <ele>84.730000000000004</ele>
        <time>2018-07-05T13:06:43Z</time>
      </trkpt>
      <trkpt lat="48.667674986645579" lon="-3.024225030094385">
        <ele>78.480000000000004</ele>
        <time>2018-07-05T13:06:51Z</time>
      </trkpt>
      <trkpt lat="48.670477978885174" lon="-3.022863976657391">
        <ele>67.909999999999997</ele>
        <time>2018-07-05T13:07:02Z</time>
      </trkpt>
      <trkpt lat="48.67478996515274" lon="-3.020707983523607">
        <ele>50.609999999999999</ele>
        <time>2018-07-05T13:07:19Z</time>
      </trkpt>
      <trkpt lat="48.678305000066757" lon="-3.018971001729369">
        <ele>49.159999999999997</ele>
        <time>2018-07-05T13:07:33Z</time>
      </trkpt>
      <trkpt lat="48.680656962096691" lon="-3.018301036208868">
        <ele>53.009999999999998</ele>
        <time>2018-07-05T13:07:42Z</time>
      </trkpt>
      <trkpt lat="48.682787977159023" lon="-3.018343029543757">
        <ele>56.859999999999999</ele>
        <time>2018-07-05T13:07:50Z</time>
      </trkpt>
      <trkpt lat="48.686235034838319" lon="-3.01878098398447">
        <ele>62.140000000000001</ele>
        <time>2018-07-05T13:08:03Z</time>
      </trkpt>
      <trkpt lat="48.690733015537262" lon="-3.019372997805476">
        <ele>73.680000000000007</ele>
        <time>2018-07-05T13:08:20Z</time>
      </trkpt>
      <trkpt lat="48.694458017125726" lon="-3.01985596306622">
        <ele>85.209999999999994</ele>
        <time>2018-07-05T13:08:34Z</time>
      </trkpt>
      <trkpt lat="48.697652025148273" lon="-3.020084034651518">
        <ele>96.269999999999996</ele>
        <time>2018-07-05T13:08:46Z</time>
      </trkpt>
      <trkpt lat="48.700836980715394" lon="-3.020177995786071">
        <ele>104.44</ele>
        <time>2018-07-05T13:08:58Z</time>
      </trkpt>
      <trkpt lat="48.703762013465166" lon="-3.020703960210085">
        <ele>111.65000000000001</ele>
        <time>2018-07-05T13:09:09Z</time>
      </trkpt>
      <trkpt lat="48.707433035597205" lon="-3.021853035315871">
        <ele>114.05</ele>
        <time>2018-07-05T13:09:23Z</time>
      </trkpt>
      <trkpt lat="48.711869996041059" lon="-3.023244012147188">
        <ele>114.05</ele>
        <time>2018-07-05T13:09:40Z</time>
      </trkpt>
      <trkpt lat="48.713340014219284" lon="-3.023573001846671">
        <ele>113.56999999999999</ele>
        <time>2018-07-05T13:09:47Z</time>
      </trkpt>
      <trkpt lat="48.716289019212127" lon="-3.023664029315114">
        <ele>111.65000000000001</ele>
        <time>2018-07-05T13:10:02Z</time>
      </trkpt>
      <trkpt lat="48.719063010066748" lon="-3.023842982947826">
        <ele>103.95999999999999</ele>
        <time>2018-07-05T13:10:16Z</time>
      </trkpt>
      <trkpt lat="48.721768017858267" lon="-3.024482019245625">
        <ele>100.11</ele>
        <time>2018-07-05T13:10:30Z</time>
      </trkpt>
      <trkpt lat="48.72407597489655" lon="-3.025278970599175">
        <ele>103.48</ele>
        <time>2018-07-05T13:10:42Z</time>
      </trkpt>
      <trkpt lat="48.726579984650016" lon="-3.026147000491619">
        <ele>102.52</ele>
        <time>2018-07-05T13:10:55Z</time>
      </trkpt>
      <trkpt lat="48.729934003204107" lon="-3.026766004040837">
        <ele>100.11</ele>
        <time>2018-07-05T13:11:12Z</time>
      </trkpt>
      <trkpt lat="48.73172496445477" lon="-3.027162970975041">
        <ele>99.150000000000006</ele>
        <time>2018-07-05T13:11:22Z</time>
      </trkpt>
      <trkpt lat="48.732770020142198" lon="-3.027873001992703">
        <ele>97.230000000000004</ele>
        <time>2018-07-05T13:11:29Z</time>
      </trkpt>
      <trkpt lat="48.734598029404879" lon="-3.029498001560569">
        <ele>94.349999999999994</ele>
        <time>2018-07-05T13:11:42Z</time>
      </trkpt>
      <trkpt lat="48.736809007823467" lon="-3.031509993597865">
        <ele>89.060000000000002</ele>
        <time>2018-07-05T13:11:57Z</time>
      </trkpt>
      <trkpt lat="48.738526962697506" lon="-3.033077996224165">
        <ele>91.459999999999994</ele>
        <time>2018-07-05T13:12:08Z</time>
      </trkpt>
      <trkpt lat="48.740870039910078" lon="-3.03521303460002">
        <ele>95.790000000000006</ele>
        <time>2018-07-05T13:12:22Z</time>
      </trkpt>
      <trkpt lat="48.743301965296268" lon="-3.037211028859019">
        <ele>96.75</ele>
        <time>2018-07-05T13:12:36Z</time>
      </trkpt>
      <trkpt lat="48.745223013684154" lon="-3.037875965237618">
        <ele>93.390000000000001</ele>
        <time>2018-07-05T13:12:46Z</time>
      </trkpt>
      <trkpt lat="48.748313002288342" lon="-3.038878021761775">
        <ele>87.140000000000001</ele>
        <time>2018-07-05T13:13:02Z</time>
      </trkpt>
      <trkpt lat="48.750445023179054" lon="-3.039539018645883">
        <ele>86.659999999999997</ele>
        <time>2018-07-05T13:13:13Z</time>
      </trkpt>
      <trkpt lat="48.752637980505824" lon="-3.03968695923686">
        <ele>84.25</ele>
        <time>2018-07-05T13:13:24Z</time>
      </trkpt>
      <trkpt lat="48.754575960338116" lon="-3.039702968671918">
        <ele>83.769999999999996</ele>
        <time>2018-07-05T13:13:32Z</time>
      </trkpt>
      <trkpt lat="48.756445962935686" lon="-3.039714032784104">
        <ele>83.290000000000006</ele>
        <time>2018-07-05T13:13:40Z</time>
      </trkpt>
      <trkpt lat="48.759251972660422" lon="-3.039716966450214">
        <ele>85.689999999999998</ele>
        <time>2018-07-05T13:13:53Z</time>
      </trkpt>
      <trkpt lat="48.760478999465704" lon="-3.03983498364687">
        <ele>84.25</ele>
        <time>2018-07-05T13:14:00Z</time>
      </trkpt>
      <trkpt lat="48.76141500659287" lon="-3.040162967517972">
        <ele>78.480000000000004</ele>
        <time>2018-07-05T13:14:07Z</time>
      </trkpt>
      <trkpt lat="48.761526988819242" lon="-3.040131032466888">
        <ele>78</ele>
        <time>2018-07-05T13:14:08Z</time>
      </trkpt>
      <trkpt lat="48.761625979095697" lon="-3.040098007768393">
        <ele>77.519999999999996</ele>
        <time>2018-07-05T13:14:09Z</time>
      </trkpt>
      <trkpt lat="48.761709965765476" lon="-3.040044028311968">
        <ele>76.560000000000002</ele>
        <time>2018-07-05T13:14:10Z</time>
      </trkpt>
      <trkpt lat="48.761789007112384" lon="-3.03996398113668">
        <ele>76.560000000000002</ele>
        <time>2018-07-05T13:14:11Z</time>
      </trkpt>
      <trkpt lat="48.761873999610543" lon="-3.039930034428835">
        <ele>76.079999999999998</ele>
        <time>2018-07-05T13:14:12Z</time>
      </trkpt>
      <trkpt lat="48.761958992108703" lon="-3.039896003901959">
        <ele>76.079999999999998</ele>
        <time>2018-07-05T13:14:13Z</time>
      </trkpt>
      <trkpt lat="48.762068040668964" lon="-3.039925005286932">
        <ele>75.599999999999994</ele>
        <time>2018-07-05T13:14:14Z</time>
      </trkpt>
      <trkpt lat="48.762162001803517" lon="-3.039966998621821">
        <ele>75.120000000000005</ele>
        <time>2018-07-05T13:14:15Z</time>
      </trkpt>
      <trkpt lat="48.762263003736734" lon="-3.039954006671906">
        <ele>74.640000000000001</ele>
        <time>2018-07-05T13:14:16Z</time>
      </trkpt>
      <trkpt lat="48.762364005669951" lon="-3.039931962266564">
        <ele>74.159999999999997</ele>
        <time>2018-07-05T13:14:17Z</time>
      </trkpt>
      <trkpt lat="48.763332031667233" lon="-3.039844036102295">
        <ele>69.349999999999994</ele>
        <time>2018-07-05T13:14:24Z</time>
      </trkpt>
      <trkpt lat="48.764881007373333" lon="-3.039844036102295">
        <ele>61.659999999999997</ele>
        <time>2018-07-05T13:14:32Z</time>
      </trkpt>
      <trkpt lat="48.765807962045074" lon="-3.039844036102295">
        <ele>54.450000000000003</ele>
        <time>2018-07-05T13:14:38Z</time>
      </trkpt>
      <trkpt lat="48.766823010519147" lon="-3.03983498364687">
        <ele>45.32</ele>
        <time>2018-07-05T13:14:47Z</time>
      </trkpt>
      <trkpt lat="48.767213020473719" lon="-3.039822997525334">
        <ele>38.590000000000003</ele>
        <time>2018-07-05T13:14:55Z</time>
      </trkpt>
      <trkpt lat="48.76728099770844" lon="-3.039651000872254">
        <ele>37.630000000000003</ele>
        <time>2018-07-05T13:14:56Z</time>
      </trkpt>
      <trkpt lat="48.767311004921794" lon="-3.03964396007359">
        <ele>37.149999999999999</ele>
        <time>2018-07-05T13:14:57Z</time>
      </trkpt>
      <trkpt lat="48.767394991591573" lon="-3.039649995043874">
        <ele>36.670000000000002</ele>
        <time>2018-07-05T13:14:58Z</time>
      </trkpt>
      <trkpt lat="48.767448971047997" lon="-3.039690982550383">
        <ele>36.189999999999998</ele>
        <time>2018-07-05T13:14:59Z</time>
      </trkpt>
      <trkpt lat="48.767502028495073" lon="-3.039821991696954">
        <ele>35.710000000000001</ele>
        <time>2018-07-05T13:15:00Z</time>
      </trkpt>
      <trkpt lat="48.767574029043317" lon="-3.039820985868573">
        <ele>34.740000000000002</ele>
        <time>2018-07-05T13:15:01Z</time>
      </trkpt>
      <trkpt lat="48.767650974914432" lon="-3.039818974211812">
        <ele>34.259999999999998</ele>
        <time>2018-07-05T13:15:02Z</time>
      </trkpt>
      <trkpt lat="48.767733033746481" lon="-3.039816962555051">
        <ele>33.780000000000001</ele>
        <time>2018-07-05T13:15:03Z</time>
      </trkpt>
      <trkpt lat="48.7687630020082" lon="-3.039801036939025">
        <ele>31.859999999999999</ele>
        <time>2018-07-05T13:15:14Z</time>
      </trkpt>
      <trkpt lat="48.769693979993463" lon="-3.039801036939025">
        <ele>28.5</ele>
        <time>2018-07-05T13:15:23Z</time>
      </trkpt>
      <trkpt lat="48.770898962393403" lon="-3.039801036939025">
        <ele>23.210000000000001</ele>
        <time>2018-07-05T13:15:35Z</time>
      </trkpt>
      <trkpt lat="48.7711719609797" lon="-3.039801036939025">
        <ele>22.25</ele>
        <time>2018-07-05T13:15:38Z</time>
      </trkpt>
      <trkpt lat="48.771260976791382" lon="-3.039801036939025">
        <ele>21.77</ele>
        <time>2018-07-05T13:15:39Z</time>
      </trkpt>
      <trkpt lat="48.772370992228389" lon="-3.03976901806891">
        <ele>17.440000000000001</ele>
        <time>2018-07-05T13:15:51Z</time>
      </trkpt>
      <trkpt lat="48.772529996931553" lon="-3.039744962006807">
        <ele>16.960000000000001</ele>
        <time>2018-07-05T13:15:53Z</time>
      </trkpt>
      <trkpt lat="48.772600991651416" lon="-3.039734987542033">
        <ele>16.48</ele>
        <time>2018-07-05T13:15:54Z</time>
      </trkpt>
      <trkpt lat="48.772730994969606" lon="-3.039522003382444">
        <ele>16.48</ele>
        <time>2018-07-05T13:15:55Z</time>
      </trkpt>
      <trkpt lat="48.772730994969606" lon="-3.039522003382444">
        <ele>16</ele>
        <time>2018-07-05T13:15:56Z</time>
      </trkpt>
      <trkpt lat="48.772764019668102" lon="-3.039473975077272">
        <ele>16</ele>
        <time>2018-07-05T13:15:57Z</time>
      </trkpt>
      <trkpt lat="48.772839959710836" lon="-3.039393005892634">
        <ele>16.48</ele>
        <time>2018-07-05T13:15:58Z</time>
      </trkpt>
      <trkpt lat="48.772925036028028" lon="-3.03942795842886">
        <ele>16.48</ele>
        <time>2018-07-05T13:15:59Z</time>
      </trkpt>
      <trkpt lat="48.772988989949226" lon="-3.039479004219174">
        <ele>16</ele>
        <time>2018-07-05T13:16:00Z</time>
      </trkpt>
      <trkpt lat="48.772988989949226" lon="-3.039479004219174">
        <ele>15.52</ele>
        <time>2018-07-05T13:16:01Z</time>
      </trkpt>
      <trkpt lat="48.773095021024346" lon="-3.039723001420498">
        <ele>15.039999999999999</ele>
        <time>2018-07-05T13:16:02Z</time>
      </trkpt>
      <trkpt lat="48.773180013522506" lon="-3.039732975885272">
        <ele>15.039999999999999</ele>
        <time>2018-07-05T13:16:03Z</time>
      </trkpt>
      <trkpt lat="48.773271963000298" lon="-3.039744039997459">
        <ele>15.039999999999999</ele>
        <time>2018-07-05T13:16:04Z</time>
      </trkpt>
      <trkpt lat="48.773371037095785" lon="-3.039757031947374">
        <ele>14.56</ele>
        <time>2018-07-05T13:16:05Z</time>
      </trkpt>
      <trkpt lat="48.773472039029002" lon="-3.03976901806891">
        <ele>14.56</ele>
        <time>2018-07-05T13:16:06Z</time>
      </trkpt>
      <trkpt lat="48.773992974311113" lon="-3.039857028052211">
        <ele>13.6</ele>
        <time>2018-07-05T13:16:11Z</time>
      </trkpt>
      <trkpt lat="48.774094982072711" lon="-3.039900027215481">
        <ele>13.119999999999999</ele>
        <time>2018-07-05T13:16:12Z</time>
      </trkpt>
      <trkpt lat="48.774194978177547" lon="-3.03994202055037">
        <ele>12.630000000000001</ele>
        <time>2018-07-05T13:16:13Z</time>
      </trkpt>
      <trkpt lat="48.774622036144137" lon="-3.040313003584743">
        <ele>9.75</ele>
        <time>2018-07-05T13:16:19Z</time>
      </trkpt>
      <trkpt lat="48.77473502419889" lon="-3.040473014116287">
        <ele>7.83</ele>
        <time>2018-07-05T13:16:25Z</time>
      </trkpt>
      <trkpt lat="48.774748016148806" lon="-3.040490029379726">
        <ele>7.83</ele>
        <time>2018-07-05T13:16:26Z</time>
      </trkpt>
      <trkpt lat="48.774748016148806" lon="-3.040490029379726">
        <ele>7.35</ele>
        <time>2018-07-05T13:16:38Z</time>
      </trkpt>
      <trkpt lat="48.774766037240624" lon="-3.040517019107938">
        <ele>7.35</ele>
        <time>2018-07-05T13:16:48Z</time>
      </trkpt>
      <trkpt lat="48.774793026968837" lon="-3.040553983300924">
        <ele>6.87</ele>
        <time>2018-07-05T13:16:49Z</time>
      </trkpt>
      <trkpt lat="48.774829991161823" lon="-3.040607040748">
        <ele>6.87</ele>
        <time>2018-07-05T13:16:50Z</time>
      </trkpt>
      <trkpt lat="48.774871984496713" lon="-3.040666971355677">
        <ele>6.87</ele>
        <time>2018-07-05T13:16:51Z</time>
      </trkpt>
      <trkpt lat="48.774921018630266" lon="-3.04073603823781">
        <ele>7.35</ele>
        <time>2018-07-05T13:16:52Z</time>
      </trkpt>
      <trkpt lat="48.775112964212894" lon="-3.04082497023046">
        <ele>5.91</ele>
        <time>2018-07-05T13:16:59Z</time>
      </trkpt>
      <trkpt lat="48.775137020274997" lon="-3.040789011865854">
        <ele>4.94</ele>
        <time>2018-07-05T13:17:00Z</time>
      </trkpt>
      <trkpt lat="48.775170966982841" lon="-3.040739977732301">
        <ele>3.98</ele>
        <time>2018-07-05T13:17:01Z</time>
      </trkpt>
      <trkpt lat="48.775211032480001" lon="-3.040683986619115">
        <ele>3.02</ele>
        <time>2018-07-05T13:17:02Z</time>
      </trkpt>
      <trkpt lat="48.775241961702704" lon="-3.040637969970703">
        <ele>2.06</ele>
        <time>2018-07-05T13:17:03Z</time>
      </trkpt>
      <trkpt lat="48.775272974744439" lon="-3.04052297025919">
        <ele>1.58</ele>
        <time>2018-07-05T13:17:04Z</time>
      </trkpt>
      <trkpt lat="48.775299964472651" lon="-3.040424985811114">
        <ele>0.62</ele>
        <time>2018-07-05T13:17:05Z</time>
      </trkpt>
      <trkpt lat="48.775327960029244" lon="-3.040322978049517">
        <ele>-0.34</ele>
        <time>2018-07-05T13:17:06Z</time>
      </trkpt>
      <trkpt lat="48.775506997480989" lon="-3.039700035005808">
        <ele>-3.23</ele>
        <time>2018-07-05T13:17:13Z</time>
      </trkpt>
      <trkpt lat="48.775629037991166" lon="-3.039226960390806">
        <ele>-3.71</ele>
        <time>2018-07-05T13:17:17Z</time>
      </trkpt>
      <trkpt lat="48.775648986920714" lon="-3.039137022569776">
        <ele>-3.71</ele>
        <time>2018-07-05T13:17:18Z</time>
      </trkpt>
      <trkpt lat="48.775633983314037" lon="-3.039025962352753">
        <ele>-3.71</ele>
        <time>2018-07-05T13:17:19Z</time>
      </trkpt>
      <trkpt lat="48.775771027430892" lon="-3.038756987079978">
        <ele>-3.71</ele>
        <time>2018-07-05T13:17:22Z</time>
      </trkpt>
      <trkpt lat="48.775798017159104" lon="-3.03865497931838">
        <ele>-3.71</ele>
        <time>2018-07-05T13:17:23Z</time>
      </trkpt>
      <trkpt lat="48.776017036288977" lon="-3.037543036043644">
        <ele>-2.27</ele>
        <time>2018-07-05T13:17:36Z</time>
      </trkpt>
      <trkpt lat="48.776021981611848" lon="-3.037516968324781">
        <ele>-2.75</ele>
        <time>2018-07-05T13:17:37Z</time>
      </trkpt>
      <trkpt lat="48.776078978553414" lon="-3.037463994696736">
        <ele>-2.27</ele>
        <time>2018-07-05T13:17:38Z</time>
      </trkpt>
      <trkpt lat="48.776104040443897" lon="-3.037477992475033">
        <ele>-2.75</ele>
        <time>2018-07-05T13:17:39Z</time>
      </trkpt>
      <trkpt lat="48.776137987151742" lon="-3.037496013566852">
        <ele>-2.27</ele>
        <time>2018-07-05T13:17:40Z</time>
      </trkpt>
      <trkpt lat="48.776182997971773" lon="-3.037520991638303">
        <ele>-2.27</ele>
        <time>2018-07-05T13:17:41Z</time>
      </trkpt>
      <trkpt lat="48.776431018486619" lon="-3.037656024098396">
        <ele>-0.82</ele>
        <time>2018-07-05T13:17:46Z</time>
      </trkpt>
      <trkpt lat="48.776482986286283" lon="-3.037684019654989">
        <ele>-0.34</ele>
        <time>2018-07-05T13:17:47Z</time>
      </trkpt>
      <trkpt lat="48.776535959914327" lon="-3.037713021039963">
        <ele>0.14</ele>
        <time>2018-07-05T13:17:48Z</time>
      </trkpt>
      <trkpt lat="48.776589017361403" lon="-3.037741016596556">
        <ele>0.62</ele>
        <time>2018-07-05T13:17:49Z</time>
      </trkpt>
      <trkpt lat="48.776640985161066" lon="-3.037770017981529">
        <ele>0.62</ele>
        <time>2018-07-05T13:17:50Z</time>
      </trkpt>
      <trkpt lat="48.776694964617491" lon="-3.037799019366503">
        <ele>1.1</ele>
        <time>2018-07-05T13:17:51Z</time>
      </trkpt>
      <trkpt lat="48.776749027892947" lon="-3.037828020751476">
        <ele>1.1</ele>
        <time>2018-07-05T13:17:52Z</time>
      </trkpt>
      <trkpt lat="48.776853969320655" lon="-3.037885017693043">
        <ele>2.06</ele>
        <time>2018-07-05T13:17:54Z</time>
      </trkpt>
      <trkpt lat="48.777571963146329" lon="-3.038335964083672">
        <ele>5.91</ele>
        <time>2018-07-05T13:18:07Z</time>
      </trkpt>
      <trkpt lat="48.777632983401418" lon="-3.0383310187608">
        <ele>6.87</ele>
        <time>2018-07-05T13:18:16Z</time>
      </trkpt>
      <trkpt lat="48.777632983401418" lon="-3.0383310187608">
        <ele>7.35</ele>
        <time>2018-07-05T13:18:34Z</time>
      </trkpt>
      <trkpt lat="48.777773967012763" lon="-3.038355996832252">
        <ele>8.789999999999999</ele>
        <time>2018-07-05T13:18:44Z</time>
      </trkpt>
      <trkpt lat="48.777815038338304" lon="-3.038424979895353">
        <ele>9.75</ele>
        <time>2018-07-05T13:18:45Z</time>
      </trkpt>
      <trkpt lat="48.777863988652825" lon="-3.038506032899022">
        <ele>9.75</ele>
        <time>2018-07-05T13:18:46Z</time>
      </trkpt>
      <trkpt lat="48.778012013062835" lon="-3.038788000121713">
        <ele>10.23</ele>
        <time>2018-07-05T13:18:49Z</time>
      </trkpt>
      <trkpt lat="48.778062975034118" lon="-3.038887996226549">
        <ele>10.23</ele>
        <time>2018-07-05T13:18:50Z</time>
      </trkpt>
      <trkpt lat="48.778113014996052" lon="-3.038983969017863">
        <ele>10.23</ele>
        <time>2018-07-05T13:18:51Z</time>
      </trkpt>
      <trkpt lat="48.778329016640782" lon="-3.039658041670919">
        <ele>13.119999999999999</ele>
        <time>2018-07-05T13:18:58Z</time>
      </trkpt>
      <trkpt lat="48.778321975842118" lon="-3.039758037775755">
        <ele>13.6</ele>
        <time>2018-07-05T13:18:59Z</time>
      </trkpt>
      <trkpt lat="48.778308983892202" lon="-3.039860967546701">
        <ele>13.6</ele>
        <time>2018-07-05T13:19:00Z</time>
      </trkpt>
      <trkpt lat="48.778233965858817" lon="-3.040486006066203">
        <ele>14.08</ele>
        <time>2018-07-05T13:19:05Z</time>
      </trkpt>
      <trkpt lat="48.778203036636114" lon="-3.040745006874204">
        <ele>13.6</ele>
        <time>2018-07-05T13:19:07Z</time>
      </trkpt>
      <trkpt lat="48.778186021372676" lon="-3.040882973000407">
        <ele>13.6</ele>
        <time>2018-07-05T13:19:08Z</time>
      </trkpt>
      <trkpt lat="48.778181998059154" lon="-3.041158989071846">
        <ele>13.119999999999999</ele>
        <time>2018-07-05T13:19:10Z</time>
      </trkpt>
      <trkpt lat="48.778253998607397" lon="-3.042332036420703">
        <ele>10.23</ele>
        <time>2018-07-05T13:19:19Z</time>
      </trkpt>
      <trkpt lat="48.778399005532265" lon="-3.043278018012643">
        <ele>7.35</ele>
        <time>2018-07-05T13:19:27Z</time>
      </trkpt>
      <trkpt lat="48.778524985536933" lon="-3.043678002431989">
        <ele>5.42</ele>
        <time>2018-07-05T13:19:33Z</time>
      </trkpt>
      <trkpt lat="48.778524985536933" lon="-3.043746985495091">
        <ele>5.42</ele>
        <time>2018-07-05T13:19:34Z</time>
      </trkpt>
      <trkpt lat="48.778524985536933" lon="-3.043818986043334">
        <ele>5.91</ele>
        <time>2018-07-05T13:19:35Z</time>
      </trkpt>
      <trkpt lat="48.778524985536933" lon="-3.043942032381892">
        <ele>5.91</ele>
        <time>2018-07-05T13:19:36Z</time>
      </trkpt>
      <trkpt lat="48.778504030779004" lon="-3.043977990746498">
        <ele>5.91</ele>
        <time>2018-07-05T13:19:37Z</time>
      </trkpt>
      <trkpt lat="48.778468994423747" lon="-3.044035993516445">
        <ele>5.91</ele>
        <time>2018-07-05T13:19:38Z</time>
      </trkpt>
      <trkpt lat="48.778395988047123" lon="-3.044058959931135">
        <ele>5.91</ele>
        <time>2018-07-05T13:19:39Z</time>
      </trkpt>
      <trkpt lat="48.778352988883853" lon="-3.044064994901419">
        <ele>5.91</ele>
        <time>2018-07-05T13:19:40Z</time>
      </trkpt>
      <trkpt lat="48.778318036347628" lon="-3.044070024043322">
        <ele>5.91</ele>
        <time>2018-07-05T13:19:41Z</time>
      </trkpt>
      <trkpt lat="48.778309989720583" lon="-3.044071029871702">
        <ele>6.39</ele>
        <time>2018-07-05T13:19:42Z</time>
      </trkpt>
      <trkpt lat="48.778309989720583" lon="-3.044071029871702">
        <ele>6.39</ele>
        <time>2018-07-05T13:19:43Z</time>
      </trkpt>
      <trkpt lat="48.778224997222424" lon="-3.044006992131472">
        <ele>6.87</ele>
        <time>2018-07-05T13:19:51Z</time>
      </trkpt>
      <trkpt lat="48.778224997222424" lon="-3.044006992131472">
        <ele>6.87</ele>
        <time>2018-07-05T13:19:56Z</time>
      </trkpt>
      <trkpt lat="48.778061969205737" lon="-3.043858967721462">
        <ele>6.87</ele>
        <time>2018-07-05T13:19:57Z</time>
      </trkpt>
      <trkpt lat="48.777964990586042" lon="-3.043919987976551">
        <ele>6.87</ele>
        <time>2018-07-05T13:19:59Z</time>
      </trkpt>
      <trkpt lat="48.777451012283564" lon="-3.044371018186212">
        <ele>5.42</ele>
        <time>2018-07-05T13:20:07Z</time>
      </trkpt>
      <trkpt lat="48.776981038972735" lon="-3.044792963191867">
        <ele>3.02</ele>
        <time>2018-07-05T13:20:13Z</time>
      </trkpt>
      <trkpt lat="48.776898980140686" lon="-3.04486102424562">
        <ele>3.02</ele>
        <time>2018-07-05T13:20:14Z</time>
      </trkpt>
      <trkpt lat="48.776838965713978" lon="-3.044964037835598">
        <ele>3.02</ele>
        <time>2018-07-05T13:20:15Z</time>
      </trkpt>
      <trkpt lat="48.776780040934682" lon="-3.045070990920067">
        <ele>3.02</ele>
        <time>2018-07-05T13:20:16Z</time>
      </trkpt>
      <trkpt lat="48.776717009022832" lon="-3.045183978974819">
        <ele>3.02</ele>
        <time>2018-07-05T13:20:17Z</time>
      </trkpt>
      <trkpt lat="48.776043020188808" lon="-3.046763967722654">
        <ele>5.42</ele>
        <time>2018-07-05T13:20:29Z</time>
      </trkpt>
      <trkpt lat="48.775706989690661" lon="-3.047549016773701">
        <ele>6.87</ele>
        <time>2018-07-05T13:20:35Z</time>
      </trkpt>
      <trkpt lat="48.775395015254617" lon="-3.04825603030622">
        <ele>9.75</ele>
        <time>2018-07-05T13:20:41Z</time>
      </trkpt>
      <trkpt lat="48.775353021919727" lon="-3.048352003097534">
        <ele>11.67</ele>
        <time>2018-07-05T13:20:42Z</time>
      </trkpt>
      <trkpt lat="48.775324020534754" lon="-3.048417968675494">
        <ele>13.6</ele>
        <time>2018-07-05T13:20:43Z</time>
      </trkpt>
      <trkpt lat="48.775304993614554" lon="-3.048461973667145">
        <ele>15.039999999999999</ele>
        <time>2018-07-05T13:20:44Z</time>
      </trkpt>
      <trkpt lat="48.775288984179497" lon="-3.048497010022402">
        <ele>16.48</ele>
        <time>2018-07-05T13:20:45Z</time>
      </trkpt>
      <trkpt lat="48.775288984179497" lon="-3.048497010022402">
        <ele>17.920000000000002</ele>
        <time>2018-07-05T13:20:46Z</time>
      </trkpt>
      <trkpt lat="48.775288984179497" lon="-3.048497010022402">
        <ele>20.32</ele>
        <time>2018-07-05T13:20:51Z</time>
      </trkpt>
      <trkpt lat="48.775305999442935" lon="-3.048642016947269">
        <ele>21.289999999999999</ele>
        <time>2018-07-05T13:20:52Z</time>
      </trkpt>
      <trkpt lat="48.775305999442935" lon="-3.048646040260792">
        <ele>22.25</ele>
        <time>2018-07-05T13:20:53Z</time>
      </trkpt>
      <trkpt lat="48.775288984179497" lon="-3.048727009445429">
        <ele>22.73</ele>
        <time>2018-07-05T13:20:54Z</time>
      </trkpt>
      <trkpt lat="48.775155963376164" lon="-3.048791969195008">
        <ele>23.210000000000001</ele>
        <time>2018-07-05T13:20:55Z</time>
      </trkpt>
      <trkpt lat="48.775137020274997" lon="-3.04883798584342">
        <ele>24.170000000000002</ele>
        <time>2018-07-05T13:20:56Z</time>
      </trkpt>
      <trkpt lat="48.775098966434598" lon="-3.048930019140244">
        <ele>24.649999999999999</ele>
        <time>2018-07-05T13:20:57Z</time>
      </trkpt>
      <trkpt lat="48.774967035278678" lon="-3.04924501106143">
        <ele>25.129999999999999</ele>
        <time>2018-07-05T13:21:00Z</time>
      </trkpt>
      <trkpt lat="48.774492032825947" lon="-3.050266010686755">
        <ele>22.73</ele>
        <time>2018-07-05T13:21:10Z</time>
      </trkpt>
      <trkpt lat="48.774427995085716" lon="-3.050358965992928">
        <ele>23.210000000000001</ele>
        <time>2018-07-05T13:21:11Z</time>
      </trkpt>
      <trkpt lat="48.774363035336137" lon="-3.050455022603273">
        <ele>22.73</ele>
        <time>2018-07-05T13:21:12Z</time>
      </trkpt>
      <trkpt lat="48.774287011474371" lon="-3.050540015101433">
        <ele>22.73</ele>
        <time>2018-07-05T13:21:13Z</time>
      </trkpt>
      <trkpt lat="48.774201013147831" lon="-3.050627019256353">
        <ele>22.73</ele>
        <time>2018-07-05T13:21:14Z</time>
      </trkpt>
      <trkpt lat="48.773936983197927" lon="-3.050890965387225">
        <ele>22.25</ele>
        <time>2018-07-05T13:21:17Z</time>
      </trkpt>
      <trkpt lat="48.773768004029989" lon="-3.051060028374195">
        <ele>23.210000000000001</ele>
        <time>2018-07-05T13:21:19Z</time>
      </trkpt>
      <trkpt lat="48.772815987467766" lon="-3.052056971937418">
        <ele>28.5</ele>
        <time>2018-07-05T13:21:31Z</time>
      </trkpt>
      <trkpt lat="48.772595040500164" lon="-3.052299041301012">
        <ele>28.02</ele>
        <time>2018-07-05T13:21:34Z</time>
      </trkpt>
      <trkpt lat="48.772537037730217" lon="-3.05236098356545">
        <ele>27.530000000000001</ele>
        <time>2018-07-05T13:21:35Z</time>
      </trkpt>
      <trkpt lat="48.772037979215384" lon="-3.052875967696309">
        <ele>25.129999999999999</ele>
        <time>2018-07-05T13:21:44Z</time>
      </trkpt>
      <trkpt lat="48.771123010665178" lon="-3.053621035069227">
        <ele>25.129999999999999</ele>
        <time>2018-07-05T13:21:55Z</time>
      </trkpt>
      <trkpt lat="48.77026897855103" lon="-3.054257975891233">
        <ele>28.02</ele>
        <time>2018-07-05T13:22:04Z</time>
      </trkpt>
      <trkpt lat="48.7693000305444" lon="-3.055248968303204">
        <ele>30.899999999999999</ele>
        <time>2018-07-05T13:22:14Z</time>
      </trkpt>
      <trkpt lat="48.768279030919075" lon="-3.056245995685458">
        <ele>29.460000000000001</ele>
        <time>2018-07-05T13:22:24Z</time>
      </trkpt>
      <trkpt lat="48.767130961641669" lon="-3.057311000302434">
        <ele>30.899999999999999</ele>
        <time>2018-07-05T13:22:36Z</time>
      </trkpt>
      <trkpt lat="48.766670962795615" lon="-3.057836964726448">
        <ele>34.740000000000002</ele>
        <time>2018-07-05T13:22:42Z</time>
      </trkpt>
      <trkpt lat="48.766628969460726" lon="-3.057893961668015">
        <ele>35.710000000000001</ele>
        <time>2018-07-05T13:22:43Z</time>
      </trkpt>
      <trkpt lat="48.766587981954217" lon="-3.057965962216258">
        <ele>36.670000000000002</ele>
        <time>2018-07-05T13:22:44Z</time>
      </trkpt>
      <trkpt lat="48.766553029417992" lon="-3.058037040755153">
        <ele>37.630000000000003</ele>
        <time>2018-07-05T13:22:45Z</time>
      </trkpt>
      <trkpt lat="48.766522016376257" lon="-3.05809898301959">
        <ele>38.590000000000003</ele>
        <time>2018-07-05T13:22:46Z</time>
      </trkpt>
      <trkpt lat="48.766488991677761" lon="-3.058165032416582">
        <ele>39.07</ele>
        <time>2018-07-05T13:22:47Z</time>
      </trkpt>
      <trkpt lat="48.766475999727845" lon="-3.058374999091029">
        <ele>39.549999999999997</ele>
        <time>2018-07-05T13:22:48Z</time>
      </trkpt>
      <trkpt lat="48.766503995284438" lon="-3.05848203599453">
        <ele>39.549999999999997</ele>
        <time>2018-07-05T13:22:49Z</time>
      </trkpt>
      <trkpt lat="48.766535008326173" lon="-3.058602986857295">
        <ele>39.549999999999997</ele>
        <time>2018-07-05T13:22:50Z</time>
      </trkpt>
      <trkpt lat="48.76682803966105" lon="-3.059778967872262">
        <ele>38.590000000000003</ele>
        <time>2018-07-05T13:22:57Z</time>
      </trkpt>
      <trkpt lat="48.76721503213048" lon="-3.061785008758307">
        <ele>37.149999999999999</ele>
        <time>2018-07-05T13:23:05Z</time>
      </trkpt>
      <trkpt lat="48.767243027687073" lon="-3.06428499519825">
        <ele>34.259999999999998</ele>
        <time>2018-07-05T13:23:13Z</time>
      </trkpt>
      <trkpt lat="48.76687397249043" lon="-3.066464960575104">
        <ele>33.299999999999997</ele>
        <time>2018-07-05T13:23:20Z</time>
      </trkpt>
      <trkpt lat="48.766067968681455" lon="-3.068529004231095">
        <ele>32.82</ele>
        <time>2018-07-05T13:23:28Z</time>
      </trkpt>
      <trkpt lat="48.764988966286182" lon="-3.07100904174149">
        <ele>34.740000000000002</ele>
        <time>2018-07-05T13:23:38Z</time>
      </trkpt>
      <trkpt lat="48.76427398994565" lon="-3.073268970474601">
        <ele>36.670000000000002</ele>
        <time>2018-07-05T13:23:47Z</time>
      </trkpt>
      <trkpt lat="48.764040973037481" lon="-3.075769962742925">
        <ele>40.030000000000001</ele>
        <time>2018-07-05T13:23:56Z</time>
      </trkpt>
      <trkpt lat="48.764260997995734" lon="-3.077996028587222">
        <ele>41.469999999999999</ele>
        <time>2018-07-05T13:24:04Z</time>
      </trkpt>
      <trkpt lat="48.765054009854794" lon="-3.080566003918648">
        <ele>42.920000000000002</ele>
        <time>2018-07-05T13:24:14Z</time>
      </trkpt>
      <trkpt lat="48.766656965017319" lon="-3.085031965747476">
        <ele>42.439999999999998</ele>
        <time>2018-07-05T13:24:32Z</time>
      </trkpt>
      <trkpt lat="48.76798901706934" lon="-3.088745987042785">
        <ele>38.590000000000003</ele>
        <time>2018-07-05T13:24:47Z</time>
      </trkpt>
      <trkpt lat="48.769303970038891" lon="-3.092376021668315">
        <ele>32.340000000000003</ele>
        <time>2018-07-05T13:25:01Z</time>
      </trkpt>
      <trkpt lat="48.770601991564035" lon="-3.095354028046131">
        <ele>28.98</ele>
        <time>2018-07-05T13:25:13Z</time>
      </trkpt>
      <trkpt lat="48.771966984495521" lon="-3.097036024555564">
        <ele>27.050000000000001</ele>
        <time>2018-07-05T13:25:22Z</time>
      </trkpt>
      <trkpt lat="48.773741014301777" lon="-3.098271014168859">
        <ele>23.690000000000001</ele>
        <time>2018-07-05T13:25:32Z</time>
      </trkpt>
      <trkpt lat="48.776104040443897" lon="-3.099741032347083">
        <ele>19.84</ele>
        <time>2018-07-05T13:25:45Z</time>
      </trkpt>
      <trkpt lat="48.777543967589736" lon="-3.10065901838243">
        <ele>18.399999999999999</ele>
        <time>2018-07-05T13:25:54Z</time>
      </trkpt>
      <trkpt lat="48.778638979420066" lon="-3.101800968870521">
        <ele>18.879999999999999</ele>
        <time>2018-07-05T13:26:02Z</time>
      </trkpt>
      <trkpt lat="48.779500974342227" lon="-3.103352040052414">
        <ele>19.84</ele>
        <time>2018-07-05T13:26:11Z</time>
      </trkpt>
      <trkpt lat="48.779887966811657" lon="-3.1046789791435">
        <ele>20.32</ele>
        <time>2018-07-05T13:26:20Z</time>
      </trkpt>
      <trkpt lat="48.779925014823675" lon="-3.104790039360523">
        <ele>20.32</ele>
        <time>2018-07-05T13:26:21Z</time>
      </trkpt>
      <trkpt lat="48.780320975929499" lon="-3.105555977672339">
        <ele>25.129999999999999</ele>
        <time>2018-07-05T13:26:31Z</time>
      </trkpt>
      <trkpt lat="48.780446033924818" lon="-3.10577298514545">
        <ele>25.609999999999999</ele>
        <time>2018-07-05T13:26:34Z</time>
      </trkpt>
      <trkpt lat="48.780490960925817" lon="-3.105852026492357">
        <ele>26.09</ele>
        <time>2018-07-05T13:26:35Z</time>
      </trkpt>
      <trkpt lat="48.780975015833974" lon="-3.106690971180797">
        <ele>28.5</ele>
        <time>2018-07-05T13:26:47Z</time>
      </trkpt>
      <trkpt lat="48.781531993299723" lon="-3.107655979692936">
        <ele>24.649999999999999</ele>
        <time>2018-07-05T13:26:55Z</time>
      </trkpt>
      <trkpt lat="48.782190978527069" lon="-3.109208978712559">
        <ele>24.170000000000002</ele>
        <time>2018-07-05T13:27:05Z</time>
      </trkpt>
      <trkpt lat="48.782484009861946" lon="-3.110752003267407">
        <ele>29.460000000000001</ele>
        <time>2018-07-05T13:27:15Z</time>
      </trkpt>
      <trkpt lat="48.782561961561441" lon="-3.11123002320528">
        <ele>31.379999999999999</ele>
        <time>2018-07-05T13:27:19Z</time>
      </trkpt>
      <trkpt lat="48.7826659809798" lon="-3.111362038180232">
        <ele>31.859999999999999</ele>
        <time>2018-07-05T13:27:20Z</time>
      </trkpt>
      <trkpt lat="48.782680984586477" lon="-3.111391961574554">
        <ele>32.82</ele>
        <time>2018-07-05T13:27:21Z</time>
      </trkpt>
      <trkpt lat="48.78270898014307" lon="-3.111535040661693">
        <ele>33.299999999999997</ele>
        <time>2018-07-05T13:27:22Z</time>
      </trkpt>
      <trkpt lat="48.782721972092986" lon="-3.111644005402923">
        <ele>33.780000000000001</ele>
        <time>2018-07-05T13:27:23Z</time>
      </trkpt>
      <trkpt lat="48.78298700787127" lon="-3.113086028024554">
        <ele>38.109999999999999</ele>
        <time>2018-07-05T13:27:33Z</time>
      </trkpt>
      <trkpt lat="48.78317903727293" lon="-3.11406503431499">
        <ele>40.509999999999998</ele>
        <time>2018-07-05T13:27:43Z</time>
      </trkpt>
      <trkpt lat="48.78333100117743" lon="-3.115110006183386">
        <ele>41.950000000000003</ele>
        <time>2018-07-05T13:27:50Z</time>
      </trkpt>
      <trkpt lat="48.78333100117743" lon="-3.115297006443143">
        <ele>41.950000000000003</ele>
        <time>2018-07-05T13:27:51Z</time>
      </trkpt>
      <trkpt lat="48.78333100117743" lon="-3.115492975339294">
        <ele>41.950000000000003</ele>
        <time>2018-07-05T13:27:52Z</time>
      </trkpt>
      <trkpt lat="48.78333100117743" lon="-3.115694979205728">
        <ele>41.950000000000003</ele>
        <time>2018-07-05T13:27:53Z</time>
      </trkpt>
      <trkpt lat="48.783311974257231" lon="-3.11589103192091">
        <ele>41.950000000000003</ele>
        <time>2018-07-05T13:27:54Z</time>
      </trkpt>
      <trkpt lat="48.783278027549386" lon="-3.116087000817061">
        <ele>41.950000000000003</ele>
        <time>2018-07-05T13:27:55Z</time>
      </trkpt>
      <trkpt lat="48.783242991194129" lon="-3.116282969713211">
        <ele>41.950000000000003</ele>
        <time>2018-07-05T13:27:56Z</time>
      </trkpt>
      <trkpt lat="48.783208960667253" lon="-3.116479022428393">
        <ele>42.439999999999998</ele>
        <time>2018-07-05T13:27:57Z</time>
      </trkpt>
      <trkpt lat="48.782518040388823" lon="-3.119507990777493">
        <ele>47.719999999999999</ele>
        <time>2018-07-05T13:28:13Z</time>
      </trkpt>
      <trkpt lat="48.782097017392516" lon="-3.121672030538321">
        <ele>48.68</ele>
        <time>2018-07-05T13:28:25Z</time>
      </trkpt>
      <trkpt lat="48.781937006860971" lon="-3.123442959040403">
        <ele>48.200000000000003</ele>
        <time>2018-07-05T13:28:36Z</time>
      </trkpt>
      <trkpt lat="48.781937006860971" lon="-3.123585032299161">
        <ele>48.200000000000003</ele>
        <time>2018-07-05T13:28:37Z</time>
      </trkpt>
      <trkpt lat="48.781937006860971" lon="-3.123721992596984">
        <ele>48.200000000000003</ele>
        <time>2018-07-05T13:28:38Z</time>
      </trkpt>
      <trkpt lat="48.782029962167144" lon="-3.123836992308497">
        <ele>48.200000000000003</ele>
        <time>2018-07-05T13:28:39Z</time>
      </trkpt>
      <trkpt lat="48.782023005187511" lon="-3.123979987576604">
        <ele>48.200000000000003</ele>
        <time>2018-07-05T13:28:40Z</time>
      </trkpt>
      <trkpt lat="48.78193499520421" lon="-3.124149972572923">
        <ele>48.200000000000003</ele>
        <time>2018-07-05T13:28:41Z</time>
      </trkpt>
      <trkpt lat="48.781897025182843" lon="-3.125619990751147">
        <ele>49.649999999999999</ele>
        <time>2018-07-05T13:28:49Z</time>
      </trkpt>
      <trkpt lat="48.781858971342444" lon="-3.127137031406164">
        <ele>51.57</ele>
        <time>2018-07-05T13:28:57Z</time>
      </trkpt>
      <trkpt lat="48.781899036839604" lon="-3.128953976556659">
        <ele>54.450000000000003</ele>
        <time>2018-07-05T13:29:07Z</time>
      </trkpt>
      <trkpt lat="48.781910017132759" lon="-3.131380034610629">
        <ele>54.450000000000003</ele>
        <time>2018-07-05T13:29:16Z</time>
      </trkpt>
      <trkpt lat="48.781940024346113" lon="-3.135260017588735">
        <ele>52.530000000000001</ele>
        <time>2018-07-05T13:29:29Z</time>
      </trkpt>
      <trkpt lat="48.782316958531737" lon="-3.139110999181867">
        <ele>53.969999999999999</ele>
        <time>2018-07-05T13:29:42Z</time>
      </trkpt>
      <trkpt lat="48.782590962946415" lon="-3.142666015774012">
        <ele>55.890000000000001</ele>
        <time>2018-07-05T13:29:55Z</time>
      </trkpt>
      <trkpt lat="48.782434975728393" lon="-3.14459796063602">
        <ele>54.450000000000003</ele>
        <time>2018-07-05T13:30:03Z</time>
      </trkpt>
      <trkpt lat="48.782236995175481" lon="-3.1461669690907">
        <ele>51.57</ele>
        <time>2018-07-05T13:30:12Z</time>
      </trkpt>
      <trkpt lat="48.782157031819224" lon="-3.146631997078657">
        <ele>50.609999999999999</ele>
        <time>2018-07-05T13:30:16Z</time>
      </trkpt>
      <trkpt lat="48.782142028212547" lon="-3.146716989576817">
        <ele>50.609999999999999</ele>
        <time>2018-07-05T13:30:17Z</time>
      </trkpt>
      <trkpt lat="48.782174969092011" lon="-3.146841041743755">
        <ele>50.609999999999999</ele>
        <time>2018-07-05T13:30:18Z</time>
      </trkpt>
      <trkpt lat="48.782259039580822" lon="-3.147007003426552">
        <ele>50.609999999999999</ele>
        <time>2018-07-05T13:30:20Z</time>
      </trkpt>
      <trkpt lat="48.782259039580822" lon="-3.147106999531388">
        <ele>50.609999999999999</ele>
        <time>2018-07-05T13:30:21Z</time>
      </trkpt>
      <trkpt lat="48.782215034589171" lon="-3.147255023941398">
        <ele>50.130000000000003</ele>
        <time>2018-07-05T13:30:22Z</time>
      </trkpt>
      <trkpt lat="48.782193996012211" lon="-3.147283019497991">
        <ele>49.649999999999999</ele>
        <time>2018-07-05T13:30:23Z</time>
      </trkpt>
      <trkpt lat="48.782032979652286" lon="-3.147374968975782">
        <ele>49.649999999999999</ele>
        <time>2018-07-05T13:30:24Z</time>
      </trkpt>
      <trkpt lat="48.782011019065976" lon="-3.147504972293973">
        <ele>49.159999999999997</ele>
        <time>2018-07-05T13:30:25Z</time>
      </trkpt>
      <trkpt lat="48.781986040994525" lon="-3.147657020017505">
        <ele>49.649999999999999</ele>
        <time>2018-07-05T13:30:26Z</time>
      </trkpt>
      <trkpt lat="48.781959973275661" lon="-3.147819964215159">
        <ele>49.159999999999997</ele>
        <time>2018-07-05T13:30:27Z</time>
      </trkpt>
      <trkpt lat="48.781930971890688" lon="-3.147993972525001">
        <ele>49.159999999999997</ele>
        <time>2018-07-05T13:30:28Z</time>
      </trkpt>
      <trkpt lat="48.781631989404559" lon="-3.149817958474159">
        <ele>45.32</ele>
        <time>2018-07-05T13:30:36Z</time>
      </trkpt>
      <trkpt lat="48.781238039955497" lon="-3.152535958215594">
        <ele>46.759999999999998</ele>
        <time>2018-07-05T13:30:45Z</time>
      </trkpt>
      <trkpt lat="48.781244996935129" lon="-3.153096036985517">
        <ele>49.159999999999997</ele>
        <time>2018-07-05T13:30:47Z</time>
      </trkpt>
      <trkpt lat="48.781260000541806" lon="-3.153376998379827">
        <ele>50.130000000000003</ele>
        <time>2018-07-05T13:30:48Z</time>
      </trkpt>
      <trkpt lat="48.781426968052983" lon="-3.156315023079515">
        <ele>59.740000000000002</ele>
        <time>2018-07-05T13:30:58Z</time>
      </trkpt>
      <trkpt lat="48.781409030780196" lon="-3.156612999737263">
        <ele>60.219999999999999</ele>
        <time>2018-07-05T13:30:59Z</time>
      </trkpt>
      <trkpt lat="48.781378017738461" lon="-3.15690703690052">
        <ele>60.700000000000003</ele>
        <time>2018-07-05T13:31:00Z</time>
      </trkpt>
      <trkpt lat="48.780659018084407" lon="-3.161851018667221">
        <ele>64.069999999999993</ele>
        <time>2018-07-05T13:31:17Z</time>
      </trkpt>
      <trkpt lat="48.780690031126142" lon="-3.164828019216657">
        <ele>64.069999999999993</ele>
        <time>2018-07-05T13:31:27Z</time>
      </trkpt>
      <trkpt lat="48.781037963926792" lon="-3.169827992096543">
        <ele>63.579999999999998</ele>
        <time>2018-07-05T13:31:44Z</time>
      </trkpt>
      <trkpt lat="48.780755996704102" lon="-3.172124968841672">
        <ele>66.950000000000003</ele>
        <time>2018-07-05T13:31:52Z</time>
      </trkpt>
      <trkpt lat="48.780825985595584" lon="-3.174163028597832">
        <ele>73.200000000000003</ele>
        <time>2018-07-05T13:31:59Z</time>
      </trkpt>
      <trkpt lat="48.781057996675372" lon="-3.174969032406807">
        <ele>75.599999999999994</ele>
        <time>2018-07-05T13:32:02Z</time>
      </trkpt>
      <trkpt lat="48.781165033578873" lon="-3.175211017951369">
        <ele>76.079999999999998</ele>
        <time>2018-07-05T13:32:03Z</time>
      </trkpt>
      <trkpt lat="48.782362975180149" lon="-3.177924994379282">
        <ele>84.25</ele>
        <time>2018-07-05T13:32:14Z</time>
      </trkpt>
      <trkpt lat="48.782442016527057" lon="-3.17820000462234">
        <ele>83.769999999999996</ele>
        <time>2018-07-05T13:32:15Z</time>
      </trkpt>
      <trkpt lat="48.782485015690327" lon="-3.178497981280088">
        <ele>83.769999999999996</ele>
        <time>2018-07-05T13:32:16Z</time>
      </trkpt>
      <trkpt lat="48.782527009025216" lon="-3.178795035928488">
        <ele>83.769999999999996</ele>
        <time>2018-07-05T13:32:17Z</time>
      </trkpt>
      <trkpt lat="48.782569002360106" lon="-3.179085971787572">
        <ele>83.290000000000006</ele>
        <time>2018-07-05T13:32:18Z</time>
      </trkpt>
      <trkpt lat="48.78257998265326" lon="-3.179382020607591">
        <ele>83.290000000000006</ele>
        <time>2018-07-05T13:32:19Z</time>
      </trkpt>
      <trkpt lat="48.78257998265326" lon="-3.179678991436958">
        <ele>82.810000000000002</ele>
        <time>2018-07-05T13:32:20Z</time>
      </trkpt>
      <trkpt lat="48.782350989058614" lon="-3.18191503174603">
        <ele>82.329999999999998</ele>
        <time>2018-07-05T13:32:28Z</time>
      </trkpt>
      <trkpt lat="48.781565017998219" lon="-3.184628002345562">
        <ele>77.040000000000006</ele>
        <time>2018-07-05T13:32:40Z</time>
      </trkpt>
      <trkpt lat="48.780887005850673" lon="-3.187044002115727">
        <ele>80.409999999999997</ele>
        <time>2018-07-05T13:32:51Z</time>
      </trkpt>
      <trkpt lat="48.780517028644681" lon="-3.189160013571382">
        <ele>75.599999999999994</ele>
        <time>2018-07-05T13:32:59Z</time>
      </trkpt>
      <trkpt lat="48.780413009226322" lon="-3.192579997703433">
        <ele>68.390000000000001</ele>
        <time>2018-07-05T13:33:11Z</time>
      </trkpt>
      <trkpt lat="48.780320975929499" lon="-3.194879991933703">
        <ele>67.909999999999997</ele>
        <time>2018-07-05T13:33:22Z</time>
      </trkpt>
      <trkpt lat="48.780252998694777" lon="-3.19577400572598">
        <ele>66.950000000000003</ele>
        <time>2018-07-05T13:33:27Z</time>
      </trkpt>
      <trkpt lat="48.780243024230003" lon="-3.195909960195422">
        <ele>66.469999999999999</ele>
        <time>2018-07-05T13:33:28Z</time>
      </trkpt>
      <trkpt lat="48.780391970649362" lon="-3.19618103094399">
        <ele>65.989999999999995</ele>
        <time>2018-07-05T13:33:30Z</time>
      </trkpt>
      <trkpt lat="48.780242018401623" lon="-3.19635596126318">
        <ele>65.989999999999995</ele>
        <time>2018-07-05T13:33:31Z</time>
      </trkpt>
      <trkpt lat="48.780223997309804" lon="-3.196589983999729">
        <ele>65.030000000000001</ele>
        <time>2018-07-05T13:33:33Z</time>
      </trkpt>
      <trkpt lat="48.780212011188269" lon="-3.196752006188035">
        <ele>65.030000000000001</ele>
        <time>2018-07-05T13:33:34Z</time>
      </trkpt>
      <trkpt lat="48.780187033116817" lon="-3.198563000187278">
        <ele>61.18</ele>
        <time>2018-07-05T13:33:43Z</time>
      </trkpt>
      <trkpt lat="48.780615013092756" lon="-3.200084986165166">
        <ele>57.82</ele>
        <time>2018-07-05T13:33:50Z</time>
      </trkpt>
      <trkpt lat="48.780717020854354" lon="-3.200284978374839">
        <ele>57.340000000000003</ele>
        <time>2018-07-05T13:33:51Z</time>
      </trkpt>
      <trkpt lat="48.780835960060358" lon="-3.200457980856299">
        <ele>56.859999999999999</ele>
        <time>2018-07-05T13:33:52Z</time>
      </trkpt>
      <trkpt lat="48.782806964591146" lon="-3.203116971999407">
        <ele>52.530000000000001</ele>
        <time>2018-07-05T13:34:08Z</time>
      </trkpt>
      <trkpt lat="48.78343703225255" lon="-3.204122968018055">
        <ele>51.090000000000003</ele>
        <time>2018-07-05T13:34:14Z</time>
      </trkpt>
      <trkpt lat="48.783520013093948" lon="-3.204319020733237">
        <ele>50.609999999999999</ele>
        <time>2018-07-05T13:34:15Z</time>
      </trkpt>
      <trkpt lat="48.783584972843528" lon="-3.204530999064446">
        <ele>50.130000000000003</ele>
        <time>2018-07-05T13:34:16Z</time>
      </trkpt>
      <trkpt lat="48.78363098949194" lon="-3.204762004315853">
        <ele>49.649999999999999</ele>
        <time>2018-07-05T13:34:17Z</time>
      </trkpt>
      <trkpt lat="48.783664014190435" lon="-3.204998960718513">
        <ele>49.159999999999997</ele>
        <time>2018-07-05T13:34:18Z</time>
      </trkpt>
      <trkpt lat="48.783683963119984" lon="-3.205243041738868">
        <ele>48.200000000000003</ele>
        <time>2018-07-05T13:34:19Z</time>
      </trkpt>
      <trkpt lat="48.783703995868564" lon="-3.205488966777921">
        <ele>47.719999999999999</ele>
        <time>2018-07-05T13:34:20Z</time>
      </trkpt>
      <trkpt lat="48.78363199532032" lon="-3.207386964932084">
        <ele>39.07</ele>
        <time>2018-07-05T13:34:28Z</time>
      </trkpt>
      <trkpt lat="48.78363199532032" lon="-3.207602966576815">
        <ele>38.590000000000003</ele>
        <time>2018-07-05T13:34:29Z</time>
      </trkpt>
      <trkpt lat="48.783637024462223" lon="-3.207816034555435">
        <ele>37.630000000000003</ele>
        <time>2018-07-05T13:34:30Z</time>
      </trkpt>
      <trkpt lat="48.783681029453874" lon="-3.208005968481302">
        <ele>36.670000000000002</ele>
        <time>2018-07-05T13:34:31Z</time>
      </trkpt>
      <trkpt lat="48.783726040273905" lon="-3.208200009539723">
        <ele>35.710000000000001</ele>
        <time>2018-07-05T13:34:32Z</time>
      </trkpt>
      <trkpt lat="48.783775996416807" lon="-3.208401007577777">
        <ele>34.740000000000002</ele>
        <time>2018-07-05T13:34:33Z</time>
      </trkpt>
      <trkpt lat="48.784177992492914" lon="-3.209799025207758">
        <ele>28.02</ele>
        <time>2018-07-05T13:34:40Z</time>
      </trkpt>
      <trkpt lat="48.784192996099591" lon="-3.210013015195727">
        <ele>27.050000000000001</ele>
        <time>2018-07-05T13:34:41Z</time>
      </trkpt>
      <trkpt lat="48.784209005534649" lon="-3.210225999355316">
        <ele>26.09</ele>
        <time>2018-07-05T13:34:42Z</time>
      </trkpt>
      <trkpt lat="48.784223003312945" lon="-3.210431020706892">
        <ele>25.129999999999999</ele>
        <time>2018-07-05T13:34:43Z</time>
      </trkpt>
      <trkpt lat="48.784221997484565" lon="-3.210631012916565">
        <ele>24.649999999999999</ele>
        <time>2018-07-05T13:34:44Z</time>
      </trkpt>
      <trkpt lat="48.784159971401095" lon="-3.211039965972304">
        <ele>22.73</ele>
        <time>2018-07-05T13:34:46Z</time>
      </trkpt>
      <trkpt lat="48.784128036350012" lon="-3.211249010637403">
        <ele>21.77</ele>
        <time>2018-07-05T13:34:47Z</time>
      </trkpt>
      <trkpt lat="48.784096017479897" lon="-3.211456965655088">
        <ele>20.809999999999999</ele>
        <time>2018-07-05T13:34:48Z</time>
      </trkpt>
      <trkpt lat="48.784048995003104" lon="-3.211659975349903">
        <ele>19.84</ele>
        <time>2018-07-05T13:34:49Z</time>
      </trkpt>
      <trkpt lat="48.783989986404777" lon="-3.211860973387957">
        <ele>19.359999999999999</ele>
        <time>2018-07-05T13:34:50Z</time>
      </trkpt>
      <trkpt lat="48.783928966149688" lon="-3.212065994739533">
        <ele>18.399999999999999</ele>
        <time>2018-07-05T13:34:51Z</time>
      </trkpt>
      <trkpt lat="48.783371988683939" lon="-3.213772969320417">
        <ele>11.67</ele>
        <time>2018-07-05T13:35:00Z</time>
      </trkpt>
      <trkpt lat="48.783333012834191" lon="-3.213964998722076">
        <ele>11.19</ele>
        <time>2018-07-05T13:35:01Z</time>
      </trkpt>
      <trkpt lat="48.78330996260047" lon="-3.214158033952117">
        <ele>11.19</ele>
        <time>2018-07-05T13:35:02Z</time>
      </trkpt>
      <trkpt lat="48.783335024490952" lon="-3.214355008676648">
        <ele>11.19</ele>
        <time>2018-07-05T13:35:03Z</time>
      </trkpt>
      <trkpt lat="48.783368971198797" lon="-3.214553995057941">
        <ele>11.19</ele>
        <time>2018-07-05T13:35:04Z</time>
      </trkpt>
      <trkpt lat="48.783403001725674" lon="-3.214754993095994">
        <ele>11.67</ele>
        <time>2018-07-05T13:35:05Z</time>
      </trkpt>
      <trkpt lat="48.783763004466891" lon="-3.216903023421764">
        <ele>11.67</ele>
        <time>2018-07-05T13:35:16Z</time>
      </trkpt>
      <trkpt lat="48.783779013901949" lon="-3.217404009774327">
        <ele>11.19</ele>
        <time>2018-07-05T13:35:22Z</time>
      </trkpt>
      <trkpt lat="48.783769039437175" lon="-3.217627974227071">
        <ele>11.67</ele>
        <time>2018-07-05T13:35:28Z</time>
      </trkpt>
      <trkpt lat="48.783699972555041" lon="-3.21852601133287">
        <ele>11.19</ele>
        <time>2018-07-05T13:35:37Z</time>
      </trkpt>
      <trkpt lat="48.783761998638511" lon="-3.219146020710468">
        <ele>10.710000000000001</ele>
        <time>2018-07-05T13:35:42Z</time>
      </trkpt>
      <trkpt lat="48.783818995580077" lon="-3.219402004033327">
        <ele>11.19</ele>
        <time>2018-07-05T13:35:44Z</time>
      </trkpt>
      <trkpt lat="48.784123007208109" lon="-3.220426021143794">
        <ele>12.15</ele>
        <time>2018-07-05T13:35:54Z</time>
      </trkpt>
      <trkpt lat="48.784508993849158" lon="-3.221603007987142">
        <ele>12.15</ele>
        <time>2018-07-05T13:36:07Z</time>
      </trkpt>
      <trkpt lat="48.78455501049757" lon="-3.221740974113345">
        <ele>12.15</ele>
        <time>2018-07-05T13:36:09Z</time>
      </trkpt>
      <trkpt lat="48.784580994397402" lon="-3.22181498631835">
        <ele>12.15</ele>
        <time>2018-07-05T13:36:10Z</time>
      </trkpt>
      <trkpt lat="48.784601027145982" lon="-3.221870977431536">
        <ele>12.15</ele>
        <time>2018-07-05T13:36:11Z</time>
      </trkpt>
      <trkpt lat="48.784618964418769" lon="-3.221924034878612">
        <ele>12.15</ele>
        <time>2018-07-05T13:36:12Z</time>
      </trkpt>
      <trkpt lat="48.784637991338968" lon="-3.221977008506656">
        <ele>11.67</ele>
        <time>2018-07-05T13:36:13Z</time>
      </trkpt>
      <trkpt lat="48.784658024087548" lon="-3.222035011276603">
        <ele>11.67</ele>
        <time>2018-07-05T13:36:14Z</time>
      </trkpt>
      <trkpt lat="48.784790961071849" lon="-3.222106005996466">
        <ele>11.67</ele>
        <time>2018-07-05T13:36:15Z</time>
      </trkpt>
      <trkpt lat="48.784790961071849" lon="-3.222106005996466">
        <ele>11.67</ele>
        <time>2018-07-05T13:36:16Z</time>
      </trkpt>
      <trkpt lat="48.784820968285203" lon="-3.222177000716329">
        <ele>11.67</ele>
        <time>2018-07-05T13:36:17Z</time>
      </trkpt>
      <trkpt lat="48.784969998523593" lon="-3.222361989319325">
        <ele>11.19</ele>
        <time>2018-07-05T13:36:20Z</time>
      </trkpt>
      <trkpt lat="48.785774996504188" lon="-3.223009994253516">
        <ele>11.19</ele>
        <time>2018-07-05T13:36:30Z</time>
      </trkpt>
      <trkpt lat="48.786286041140556" lon="-3.223416013643146">
        <ele>10.23</ele>
        <time>2018-07-05T13:36:38Z</time>
      </trkpt>
      <trkpt lat="48.787078969180584" lon="-3.224061001092196">
        <ele>10.23</ele>
        <time>2018-07-05T13:36:48Z</time>
      </trkpt>
      <trkpt lat="48.788384031504393" lon="-3.225290961563587">
        <ele>9.75</ele>
        <time>2018-07-05T13:37:04Z</time>
      </trkpt>
      <trkpt lat="48.789157010614872" lon="-3.226271979510784">
        <ele>8.310000000000001</ele>
        <time>2018-07-05T13:37:16Z</time>
      </trkpt>
      <trkpt lat="48.78966998308897" lon="-3.226967006921768">
        <ele>8.789999999999999</ele>
        <time>2018-07-05T13:37:23Z</time>
      </trkpt>
      <trkpt lat="48.789830999448895" lon="-3.22718502022326">
        <ele>9.27</ele>
        <time>2018-07-05T13:37:25Z</time>
      </trkpt>
      <trkpt lat="48.790129981935024" lon="-3.227489031851292">
        <ele>10.23</ele>
        <time>2018-07-05T13:37:29Z</time>
      </trkpt>
      <trkpt lat="48.790240958333015" lon="-3.227490959689021">
        <ele>10.23</ele>
        <time>2018-07-05T13:37:30Z</time>
      </trkpt>
      <trkpt lat="48.790256967768073" lon="-3.227490959689021">
        <ele>10.710000000000001</ele>
        <time>2018-07-05T13:37:31Z</time>
      </trkpt>
      <trkpt lat="48.79031497053802" lon="-3.227490959689021">
        <ele>11.19</ele>
        <time>2018-07-05T13:37:32Z</time>
      </trkpt>
      <trkpt lat="48.790347995236516" lon="-3.227663040161133">
        <ele>11.19</ele>
        <time>2018-07-05T13:37:33Z</time>
      </trkpt>
      <trkpt lat="48.790384037420154" lon="-3.227729005739093">
        <ele>11.67</ele>
        <time>2018-07-05T13:37:34Z</time>
      </trkpt>
      <trkpt lat="48.790438016876578" lon="-3.227826990187168">
        <ele>11.19</ele>
        <time>2018-07-05T13:37:35Z</time>
      </trkpt>
      <trkpt lat="48.790495013818145" lon="-3.227933021262288">
        <ele>10.710000000000001</ele>
        <time>2018-07-05T13:37:36Z</time>
      </trkpt>
      <trkpt lat="48.79078796133399" lon="-3.228420009836555">
        <ele>10.23</ele>
        <time>2018-07-05T13:37:40Z</time>
      </trkpt>
      <trkpt lat="48.791099013760686" lon="-3.228908004239202">
        <ele>10.710000000000001</ele>
        <time>2018-07-05T13:37:44Z</time>
      </trkpt>
      <trkpt lat="48.791120974346995" lon="-3.229070026427507">
        <ele>10.23</ele>
        <time>2018-07-05T13:37:45Z</time>
      </trkpt>
      <trkpt lat="48.791141007095575" lon="-3.229222996160388">
        <ele>10.23</ele>
        <time>2018-07-05T13:37:46Z</time>
      </trkpt>
      <trkpt lat="48.791132038459182" lon="-3.229372026398778">
        <ele>10.23</ele>
        <time>2018-07-05T13:37:47Z</time>
      </trkpt>
      <trkpt lat="48.791120974346995" lon="-3.229530025273562">
        <ele>10.710000000000001</ele>
        <time>2018-07-05T13:37:48Z</time>
      </trkpt>
      <trkpt lat="48.791075963526964" lon="-3.229673020541668">
        <ele>11.19</ele>
        <time>2018-07-05T13:37:49Z</time>
      </trkpt>
      <trkpt lat="48.791030030697584" lon="-3.229817021638155">
        <ele>11.19</ele>
        <time>2018-07-05T13:37:50Z</time>
      </trkpt>
      <trkpt lat="48.790875971317291" lon="-3.230303004384041">
        <ele>12.15</ele>
        <time>2018-07-05T13:37:55Z</time>
      </trkpt>
      <trkpt lat="48.790874965488911" lon="-3.230437031015754">
        <ele>12.15</ele>
        <time>2018-07-05T13:37:56Z</time>
      </trkpt>
      <trkpt lat="48.790887035429478" lon="-3.230539038777351">
        <ele>11.67</ele>
        <time>2018-07-05T13:37:57Z</time>
      </trkpt>
      <trkpt lat="48.790931040421128" lon="-3.232012996450067">
        <ele>13.119999999999999</ele>
        <time>2018-07-05T13:38:08Z</time>
      </trkpt>
      <trkpt lat="48.790925005450845" lon="-3.232133025303483">
        <ele>13.119999999999999</ele>
        <time>2018-07-05T13:38:09Z</time>
      </trkpt>
      <trkpt lat="48.790874965488911" lon="-3.232253976166248">
        <ele>13.119999999999999</ele>
        <time>2018-07-05T13:38:10Z</time>
      </trkpt>
      <trkpt lat="48.790817968547344" lon="-3.232390014454722">
        <ele>13.119999999999999</ele>
        <time>2018-07-05T13:38:11Z</time>
      </trkpt>
      <trkpt lat="48.790757032111287" lon="-3.232537033036351">
        <ele>13.119999999999999</ele>
        <time>2018-07-05T13:38:12Z</time>
      </trkpt>
      <trkpt lat="48.790631974115968" lon="-3.232838027179241">
        <ele>13.119999999999999</ele>
        <time>2018-07-05T13:38:14Z</time>
      </trkpt>
      <trkpt lat="48.790567014366388" lon="-3.232995020225644">
        <ele>13.6</ele>
        <time>2018-07-05T13:38:15Z</time>
      </trkpt>
      <trkpt lat="48.79052896052599" lon="-3.233173973858357">
        <ele>14.08</ele>
        <time>2018-07-05T13:38:16Z</time>
      </trkpt>
      <trkpt lat="48.790493002161384" lon="-3.233354017138481">
        <ele>14.08</ele>
        <time>2018-07-05T13:38:17Z</time>
      </trkpt>
      <trkpt lat="48.790456959977746" lon="-3.233534982427955">
        <ele>14.56</ele>
        <time>2018-07-05T13:38:18Z</time>
      </trkpt>
      <trkpt lat="48.790322011336684" lon="-3.234542990103364">
        <ele>18.399999999999999</ele>
        <time>2018-07-05T13:38:24Z</time>
      </trkpt>
      <trkpt lat="48.790308013558388" lon="-3.234693026170135">
        <ele>19.84</ele>
        <time>2018-07-05T13:38:25Z</time>
      </trkpt>
      <trkpt lat="48.790337014943361" lon="-3.234839038923383">
        <ele>20.809999999999999</ele>
        <time>2018-07-05T13:38:26Z</time>
      </trkpt>
      <trkpt lat="48.790367022156715" lon="-3.234991002827883">
        <ele>22.25</ele>
        <time>2018-07-05T13:38:27Z</time>
      </trkpt>
      <trkpt lat="48.790428964421153" lon="-3.235112959519029">
        <ele>23.210000000000001</ele>
        <time>2018-07-05T13:38:28Z</time>
      </trkpt>
      <trkpt lat="48.790495013818145" lon="-3.235236005857587">
        <ele>23.690000000000001</ele>
        <time>2018-07-05T13:38:29Z</time>
      </trkpt>
      <trkpt lat="48.790571037679911" lon="-3.235337007790804">
        <ele>24.649999999999999</ele>
        <time>2018-07-05T13:38:30Z</time>
      </trkpt>
      <trkpt lat="48.790669022127986" lon="-3.235384030267596">
        <ele>25.609999999999999</ele>
        <time>2018-07-05T13:38:31Z</time>
      </trkpt>
      <trkpt lat="48.790772035717964" lon="-3.235432980582118">
        <ele>26.57</ele>
        <time>2018-07-05T13:38:32Z</time>
      </trkpt>
      <trkpt lat="48.791933013126254" lon="-3.235985012724996">
        <ele>34.740000000000002</ele>
        <time>2018-07-05T13:38:42Z</time>
      </trkpt>
      <trkpt lat="48.792293015867472" lon="-3.236134964972735">
        <ele>36.670000000000002</ele>
        <time>2018-07-05T13:38:45Z</time>
      </trkpt>
      <trkpt lat="48.792412960901856" lon="-3.236121973022819">
        <ele>36.670000000000002</ele>
        <time>2018-07-05T13:38:46Z</time>
      </trkpt>
      <trkpt lat="48.792533995583653" lon="-3.236107975244522">
        <ele>37.149999999999999</ele>
        <time>2018-07-05T13:38:47Z</time>
      </trkpt>
      <trkpt lat="48.792653018608689" lon="-3.236089032143354">
        <ele>37.630000000000003</ele>
        <time>2018-07-05T13:38:48Z</time>
      </trkpt>
      <trkpt lat="48.792757960036397" lon="-3.236006973311305">
        <ele>38.109999999999999</ele>
        <time>2018-07-05T13:38:49Z</time>
      </trkpt>
      <trkpt lat="48.792860973626375" lon="-3.235927009955049">
        <ele>39.07</ele>
        <time>2018-07-05T13:38:50Z</time>
      </trkpt>
      <trkpt lat="48.792970022186637" lon="-3.235842017456889">
        <ele>39.549999999999997</ele>
        <time>2018-07-05T13:38:51Z</time>
      </trkpt>
      <trkpt lat="48.793080998584628" lon="-3.235755013301969">
        <ele>40.030000000000001</ele>
        <time>2018-07-05T13:38:52Z</time>
      </trkpt>
      <trkpt lat="48.793192980811" lon="-3.235665997490287">
        <ele>40.990000000000002</ele>
        <time>2018-07-05T13:38:53Z</time>
      </trkpt>
      <trkpt lat="48.793312003836036" lon="-3.235624004155397">
        <ele>41.950000000000003</ele>
        <time>2018-07-05T13:38:54Z</time>
      </trkpt>
      <trkpt lat="48.793447036296129" lon="-3.235624004155397">
        <ele>42.439999999999998</ele>
        <time>2018-07-05T13:38:55Z</time>
      </trkpt>
      <trkpt lat="48.793581984937191" lon="-3.235624004155397">
        <ele>43.399999999999999</ele>
        <time>2018-07-05T13:38:56Z</time>
      </trkpt>
      <trkpt lat="48.79370897077024" lon="-3.235644958913326">
        <ele>43.880000000000003</ele>
        <time>2018-07-05T13:38:57Z</time>
      </trkpt>
      <trkpt lat="48.79467599093914" lon="-3.236042009666562">
        <ele>53.009999999999998</ele>
        <time>2018-07-05T13:39:06Z</time>
      </trkpt>
      <trkpt lat="48.794766012579203" lon="-3.23612499050796">
        <ele>53.969999999999999</ele>
        <time>2018-07-05T13:39:07Z</time>
      </trkpt>
      <trkpt lat="48.794859973713756" lon="-3.2362109888345">
        <ele>53.969999999999999</ele>
        <time>2018-07-05T13:39:08Z</time>
      </trkpt>
      <trkpt lat="48.795593976974487" lon="-3.23678900487721">
        <ele>58.299999999999997</ele>
        <time>2018-07-05T13:39:17Z</time>
      </trkpt>
      <trkpt lat="48.795712999999523" lon="-3.236825969070196">
        <ele>58.780000000000001</ele>
        <time>2018-07-05T13:39:18Z</time>
      </trkpt>
      <trkpt lat="48.796721007674932" lon="-3.236804008483887">
        <ele>61.659999999999997</ele>
        <time>2018-07-05T13:39:28Z</time>
      </trkpt>
      <trkpt lat="48.796788984909654" lon="-3.236884977668524">
        <ele>61.659999999999997</ele>
        <time>2018-07-05T13:39:29Z</time>
      </trkpt>
      <trkpt lat="48.796853022649884" lon="-3.236986985430121">
        <ele>61.18</ele>
        <time>2018-07-05T13:39:30Z</time>
      </trkpt>
      <trkpt lat="48.797150999307632" lon="-3.237930033355951">
        <ele>62.619999999999997</ele>
        <time>2018-07-05T13:39:37Z</time>
      </trkpt>
      <trkpt lat="48.797239009290934" lon="-3.238381985574961">
        <ele>63.100000000000001</ele>
        <time>2018-07-05T13:39:41Z</time>
      </trkpt>
      <trkpt lat="48.797255018725991" lon="-3.23846697807312">
        <ele>63.579999999999998</ele>
        <time>2018-07-05T13:39:42Z</time>
      </trkpt>
      <trkpt lat="48.797285025939345" lon="-3.238533027470112">
        <ele>63.579999999999998</ele>
        <time>2018-07-05T13:39:43Z</time>
      </trkpt>
      <trkpt lat="48.797315033152699" lon="-3.23859203606844">
        <ele>63.579999999999998</ele>
        <time>2018-07-05T13:39:44Z</time>
      </trkpt>
      <trkpt lat="48.797365995123982" lon="-3.238649033010006">
        <ele>64.069999999999993</ele>
        <time>2018-07-05T13:39:45Z</time>
      </trkpt>
      <trkpt lat="48.797417040914297" lon="-3.238649033010006">
        <ele>64.069999999999993</ele>
        <time>2018-07-05T13:39:46Z</time>
      </trkpt>
      <trkpt lat="48.797464985400438" lon="-3.238699994981289">
        <ele>64.549999999999997</ele>
        <time>2018-07-05T13:39:47Z</time>
      </trkpt>
      <trkpt lat="48.797485018149018" lon="-3.238770989701152">
        <ele>64.549999999999997</ele>
        <time>2018-07-05T13:39:48Z</time>
      </trkpt>
      <trkpt lat="48.797460962086916" lon="-3.238864028826356">
        <ele>64.549999999999997</ele>
        <time>2018-07-05T13:39:49Z</time>
      </trkpt>
      <trkpt lat="48.797450987622142" lon="-3.238884983584285">
        <ele>64.549999999999997</ele>
        <time>2018-07-05T13:39:50Z</time>
      </trkpt>
      <trkpt lat="48.797343028709292" lon="-3.238976011052728">
        <ele>65.030000000000001</ele>
        <time>2018-07-05T13:39:51Z</time>
      </trkpt>
      <trkpt lat="48.79731897264719" lon="-3.239072989672422">
        <ele>65.030000000000001</ele>
        <time>2018-07-05T13:39:52Z</time>
      </trkpt>
      <trkpt lat="48.797291982918978" lon="-3.239183966070414">
        <ele>65.030000000000001</ele>
        <time>2018-07-05T13:39:53Z</time>
      </trkpt>
      <trkpt lat="48.797262981534004" lon="-3.23930399492383">
        <ele>65.510000000000005</ele>
        <time>2018-07-05T13:39:54Z</time>
      </trkpt>
      <trkpt lat="48.797233980149031" lon="-3.239426035434008">
        <ele>65.510000000000005</ele>
        <time>2018-07-05T13:39:55Z</time>
      </trkpt>
      <trkpt lat="48.797204978764057" lon="-3.239544974640012">
        <ele>65.989999999999995</ele>
        <time>2018-07-05T13:39:56Z</time>
      </trkpt>
      <trkpt lat="48.797014039009809" lon="-3.24070000089705">
        <ele>65.510000000000005</ele>
        <time>2018-07-05T13:40:05Z</time>
      </trkpt>
      <trkpt lat="48.796989982947707" lon="-3.240845007821918">
        <ele>65.030000000000001</ele>
        <time>2018-07-05T13:40:06Z</time>
      </trkpt>
      <trkpt lat="48.796824021264911" lon="-3.241960974410176">
        <ele>63.579999999999998</ele>
        <time>2018-07-05T13:40:15Z</time>
      </trkpt>
      <trkpt lat="48.796727964654565" lon="-3.242392977699637">
        <ele>63.100000000000001</ele>
        <time>2018-07-05T13:40:20Z</time>
      </trkpt>
      <trkpt lat="48.796301996335387" lon="-3.243509028106928">
        <ele>63.100000000000001</ele>
        <time>2018-07-05T13:40:30Z</time>
      </trkpt>
      <trkpt lat="48.796284981071949" lon="-3.243650011718273">
        <ele>63.100000000000001</ele>
        <time>2018-07-05T13:40:31Z</time>
      </trkpt>
      <trkpt lat="48.796275006607175" lon="-3.24379300698638">
        <ele>63.100000000000001</ele>
        <time>2018-07-05T13:40:32Z</time>
      </trkpt>
      <trkpt lat="48.796272994950414" lon="-3.243938013911247">
        <ele>63.100000000000001</ele>
        <time>2018-07-05T13:40:33Z</time>
      </trkpt>
      <trkpt lat="48.796277018263936" lon="-3.244091989472508">
        <ele>63.100000000000001</ele>
        <time>2018-07-05T13:40:34Z</time>
      </trkpt>
      <trkpt lat="48.796281041577458" lon="-3.24424697086215">
        <ele>63.100000000000001</ele>
        <time>2018-07-05T13:40:35Z</time>
      </trkpt>
      <trkpt lat="48.796284981071949" lon="-3.245918992906809">
        <ele>63.100000000000001</ele>
        <time>2018-07-05T13:40:45Z</time>
      </trkpt>
      <trkpt lat="48.796145003288984" lon="-3.247676007449627">
        <ele>65.510000000000005</ele>
        <time>2018-07-05T13:40:55Z</time>
      </trkpt>
      <trkpt lat="48.796047018840909" lon="-3.249624967575073">
        <ele>62.619999999999997</ele>
        <time>2018-07-05T13:41:06Z</time>
      </trkpt>
      <trkpt lat="48.795926989987493" lon="-3.251870982348919">
        <ele>60.700000000000003</ele>
        <time>2018-07-05T13:41:18Z</time>
      </trkpt>
      <trkpt lat="48.795743007212877" lon="-3.253793958574534">
        <ele>62.140000000000001</ele>
        <time>2018-07-05T13:41:29Z</time>
      </trkpt>
      <trkpt lat="48.795235985890031" lon="-3.255989011377096">
        <ele>64.069999999999993</ele>
        <time>2018-07-05T13:41:42Z</time>
      </trkpt>
      <trkpt lat="48.79508301615715" lon="-3.256527967751026">
        <ele>63.579999999999998</ele>
        <time>2018-07-05T13:41:46Z</time>
      </trkpt>
      <trkpt lat="48.794683031737804" lon="-3.257424999028444">
        <ele>62.619999999999997</ele>
        <time>2018-07-05T13:41:53Z</time>
      </trkpt>
      <trkpt lat="48.794645983725786" lon="-3.25756698846817">
        <ele>62.619999999999997</ele>
        <time>2018-07-05T13:41:54Z</time>
      </trkpt>
      <trkpt lat="48.794608013704419" lon="-3.257711995393038">
        <ele>62.619999999999997</ele>
        <time>2018-07-05T13:41:55Z</time>
      </trkpt>
      <trkpt lat="48.794572977349162" lon="-3.257849961519241">
        <ele>62.619999999999997</ele>
        <time>2018-07-05T13:41:56Z</time>
      </trkpt>
      <trkpt lat="48.794540036469698" lon="-3.257977031171322">
        <ele>62.619999999999997</ele>
        <time>2018-07-05T13:41:57Z</time>
      </trkpt>
      <trkpt lat="48.794285980984569" lon="-3.25891999527812">
        <ele>63.100000000000001</ele>
        <time>2018-07-05T13:42:04Z</time>
      </trkpt>
      <trkpt lat="48.793919021263719" lon="-3.260069992393255">
        <ele>63.100000000000001</ele>
        <time>2018-07-05T13:42:09Z</time>
      </trkpt>
      <trkpt lat="48.793475031852722" lon="-3.261415958404541">
        <ele>62.619999999999997</ele>
        <time>2018-07-05T13:42:16Z</time>
      </trkpt>
      <trkpt lat="48.792857034131885" lon="-3.263304987922311">
        <ele>64.069999999999993</ele>
        <time>2018-07-05T13:42:23Z</time>
      </trkpt>
      <trkpt lat="48.792287986725569" lon="-3.26523601077497">
        <ele>65.989999999999995</ele>
        <time>2018-07-05T13:42:31Z</time>
      </trkpt>
      <trkpt lat="48.791779959574342" lon="-3.266731007024646">
        <ele>68.390000000000001</ele>
        <time>2018-07-05T13:42:39Z</time>
      </trkpt>
      <trkpt lat="48.791578039526939" lon="-3.267248002812266">
        <ele>69.829999999999998</ele>
        <time>2018-07-05T13:42:42Z</time>
      </trkpt>
      <trkpt lat="48.791508972644806" lon="-3.267424022778869">
        <ele>70.310000000000002</ele>
        <time>2018-07-05T13:42:43Z</time>
      </trkpt>
      <trkpt lat="48.791442001238465" lon="-3.267603982239962">
        <ele>70.310000000000002</ele>
        <time>2018-07-05T13:42:44Z</time>
      </trkpt>
      <trkpt lat="48.791419034823775" lon="-3.26781302690506">
        <ele>70.790000000000006</ele>
        <time>2018-07-05T13:42:45Z</time>
      </trkpt>
      <trkpt lat="48.791395984590054" lon="-3.268030034378171">
        <ele>70.310000000000002</ele>
        <time>2018-07-05T13:42:46Z</time>
      </trkpt>
      <trkpt lat="48.791372012346983" lon="-3.268250981345773">
        <ele>70.310000000000002</ele>
        <time>2018-07-05T13:42:47Z</time>
      </trkpt>
      <trkpt lat="48.791159028187394" lon="-3.27086697332561">
        <ele>70.790000000000006</ele>
        <time>2018-07-05T13:42:59Z</time>
      </trkpt>
      <trkpt lat="48.79134401679039" lon="-3.272604960948229">
        <ele>68.870000000000005</ele>
        <time>2018-07-05T13:43:08Z</time>
      </trkpt>
      <trkpt lat="48.792129987850785" lon="-3.275194969028235">
        <ele>64.549999999999997</ele>
        <time>2018-07-05T13:43:21Z</time>
      </trkpt>
      <trkpt lat="48.79256903193891" lon="-3.276612013578415">
        <ele>65.510000000000005</ele>
        <time>2018-07-05T13:43:29Z</time>
      </trkpt>
      <trkpt lat="48.792916964739561" lon="-3.27789000235498">
        <ele>66.469999999999999</ele>
        <time>2018-07-05T13:43:38Z</time>
      </trkpt>
      <trkpt lat="48.793027019128203" lon="-3.27829702757299">
        <ele>66.469999999999999</ele>
        <time>2018-07-05T13:43:40Z</time>
      </trkpt>
      <trkpt lat="48.793099019676447" lon="-3.278532978147268">
        <ele>66.469999999999999</ele>
        <time>2018-07-05T13:43:41Z</time>
      </trkpt>
      <trkpt lat="48.793182000517845" lon="-3.278787033632398">
        <ele>66.469999999999999</ele>
        <time>2018-07-05T13:43:42Z</time>
      </trkpt>
      <trkpt lat="48.793725986033678" lon="-3.280398035421968">
        <ele>67.430000000000007</ele>
        <time>2018-07-05T13:43:49Z</time>
      </trkpt>
      <trkpt lat="48.793887002393603" lon="-3.28079299069941">
        <ele>68.390000000000001</ele>
        <time>2018-07-05T13:43:51Z</time>
      </trkpt>
      <trkpt lat="48.794000996276736" lon="-3.280970016494393">
        <ele>68.390000000000001</ele>
        <time>2018-07-05T13:43:52Z</time>
      </trkpt>
      <trkpt lat="48.794875983148813" lon="-3.282714961096644">
        <ele>69.829999999999998</ele>
        <time>2018-07-05T13:44:00Z</time>
      </trkpt>
      <trkpt lat="48.795133978128433" lon="-3.283652979880571">
        <ele>69.829999999999998</ele>
        <time>2018-07-05T13:44:04Z</time>
      </trkpt>
      <trkpt lat="48.795181000605226" lon="-3.283902006223798">
        <ele>69.829999999999998</ele>
        <time>2018-07-05T13:44:05Z</time>
      </trkpt>
      <trkpt lat="48.795210001990199" lon="-3.28416301868856">
        <ele>69.829999999999998</ele>
        <time>2018-07-05T13:44:06Z</time>
      </trkpt>
      <trkpt lat="48.795216958969831" lon="-3.284430988132954">
        <ele>69.349999999999994</ele>
        <time>2018-07-05T13:44:07Z</time>
      </trkpt>
      <trkpt lat="48.795213019475341" lon="-3.284698035567999">
        <ele>69.349999999999994</ele>
        <time>2018-07-05T13:44:08Z</time>
      </trkpt>
      <trkpt lat="48.795162979513407" lon="-3.286726037040353">
        <ele>71.269999999999996</ele>
        <time>2018-07-05T13:44:17Z</time>
      </trkpt>
      <trkpt lat="48.795092990621924" lon="-3.287615021690726">
        <ele>72.719999999999999</ele>
        <time>2018-07-05T13:44:24Z</time>
      </trkpt>
      <trkpt lat="48.795155016705394" lon="-3.287937976419926">
        <ele>73.680000000000007</ele>
        <time>2018-07-05T13:44:26Z</time>
      </trkpt>
      <trkpt lat="48.795155016705394" lon="-3.287937976419926">
        <ele>73.680000000000007</ele>
        <time>2018-07-05T13:44:27Z</time>
      </trkpt>
      <trkpt lat="48.795160967856646" lon="-3.288003019988537">
        <ele>74.159999999999997</ele>
        <time>2018-07-05T13:44:28Z</time>
      </trkpt>
      <trkpt lat="48.79518804140389" lon="-3.28816001303494">
        <ele>74.640000000000001</ele>
        <time>2018-07-05T13:44:29Z</time>
      </trkpt>
      <trkpt lat="48.795261969789863" lon="-3.288208041340113">
        <ele>74.640000000000001</ele>
        <time>2018-07-05T13:44:30Z</time>
      </trkpt>
      <trkpt lat="48.795348973944783" lon="-3.288265038281679">
        <ele>74.640000000000001</ele>
        <time>2018-07-05T13:44:31Z</time>
      </trkpt>
      <trkpt lat="48.795447964221239" lon="-3.288328992202878">
        <ele>75.120000000000005</ele>
        <time>2018-07-05T13:44:32Z</time>
      </trkpt>
      <trkpt lat="48.795550977811217" lon="-3.288395963609219">
        <ele>74.640000000000001</ele>
        <time>2018-07-05T13:44:33Z</time>
      </trkpt>
      <trkpt lat="48.79656401462853" lon="-3.289416963234544">
        <ele>70.790000000000006</ele>
        <time>2018-07-05T13:44:41Z</time>
      </trkpt>
      <trkpt lat="48.796979002654552" lon="-3.289718963205814">
        <ele>70.310000000000002</ele>
        <time>2018-07-05T13:44:44Z</time>
      </trkpt>
      <trkpt lat="48.797106994315982" lon="-3.289783000946045">
        <ele>70.310000000000002</ele>
        <time>2018-07-05T13:44:45Z</time>
      </trkpt>
      <trkpt lat="48.797243032604456" lon="-3.289783000946045">
        <ele>70.790000000000006</ele>
        <time>2018-07-05T13:44:46Z</time>
      </trkpt>
      <trkpt lat="48.798709027469158" lon="-3.289670012891293">
        <ele>71.269999999999996</ele>
        <time>2018-07-05T13:44:55Z</time>
      </trkpt>
      <trkpt lat="48.800416002050042" lon="-3.289175983518362">
        <ele>70.310000000000002</ele>
        <time>2018-07-05T13:45:05Z</time>
      </trkpt>
      <trkpt lat="48.800555979833007" lon="-3.289125021547079">
        <ele>70.310000000000002</ele>
        <time>2018-07-05T13:45:07Z</time>
      </trkpt>
      <trkpt lat="48.801615033298731" lon="-3.289036005735397">
        <ele>68.870000000000005</ele>
        <time>2018-07-05T13:45:15Z</time>
      </trkpt>
      <trkpt lat="48.801763979718089" lon="-3.289053020998836">
        <ele>68.390000000000001</ele>
        <time>2018-07-05T13:45:16Z</time>
      </trkpt>
      <trkpt lat="48.802618011832237" lon="-3.289500027894974">
        <ele>63.579999999999998</ele>
        <time>2018-07-05T13:45:23Z</time>
      </trkpt>
      <trkpt lat="48.802719013765454" lon="-3.289628019556403">
        <ele>63.100000000000001</ele>
        <time>2018-07-05T13:45:24Z</time>
      </trkpt>
      <trkpt lat="48.802808029577136" lon="-3.289773026481271">
        <ele>62.619999999999997</ele>
        <time>2018-07-05T13:45:25Z</time>
      </trkpt>
      <trkpt lat="48.80339602008462" lon="-3.291110023856163">
        <ele>66.950000000000003</ele>
        <time>2018-07-05T13:45:34Z</time>
      </trkpt>
      <trkpt lat="48.803572962060571" lon="-3.291442031040788">
        <ele>68.870000000000005</ele>
        <time>2018-07-05T13:45:37Z</time>
      </trkpt>
      <trkpt lat="48.803646974265575" lon="-3.291539009660482">
        <ele>69.349999999999994</ele>
        <time>2018-07-05T13:45:38Z</time>
      </trkpt>
      <trkpt lat="48.80372098647058" lon="-3.291635988280177">
        <ele>69.829999999999998</ele>
        <time>2018-07-05T13:45:39Z</time>
      </trkpt>
      <trkpt lat="48.803800027817488" lon="-3.291730033233762">
        <ele>70.310000000000002</ele>
        <time>2018-07-05T13:45:40Z</time>
      </trkpt>
      <trkpt lat="48.80389197729528" lon="-3.291808990761638">
        <ele>70.310000000000002</ele>
        <time>2018-07-05T13:45:41Z</time>
      </trkpt>
      <trkpt lat="48.803985016420484" lon="-3.291887026280165">
        <ele>70.790000000000006</ele>
        <time>2018-07-05T13:45:42Z</time>
      </trkpt>
      <trkpt lat="48.805090002715588" lon="-3.292728988453746">
        <ele>69.829999999999998</ele>
        <time>2018-07-05T13:45:52Z</time>
      </trkpt>
      <trkpt lat="48.806333960965276" lon="-3.293611016124487">
        <ele>66.469999999999999</ele>
        <time>2018-07-05T13:46:03Z</time>
      </trkpt>
      <trkpt lat="48.806991018354893" lon="-3.293890971690416">
        <ele>66.950000000000003</ele>
        <time>2018-07-05T13:46:09Z</time>
      </trkpt>
      <trkpt lat="48.808263977989554" lon="-3.294400004670024">
        <ele>69.349999999999994</ele>
        <time>2018-07-05T13:46:21Z</time>
      </trkpt>
      <trkpt lat="48.809544984251261" lon="-3.295206008478999">
        <ele>68.390000000000001</ele>
        <time>2018-07-05T13:46:33Z</time>
      </trkpt>
      <trkpt lat="48.809963995590806" lon="-3.295438019558787">
        <ele>68.390000000000001</ele>
        <time>2018-07-05T13:46:37Z</time>
      </trkpt>
      <trkpt lat="48.810075977817178" lon="-3.295455034822226">
        <ele>68.390000000000001</ele>
        <time>2018-07-05T13:46:38Z</time>
      </trkpt>
      <trkpt lat="48.811001004651189" lon="-3.295542960986495">
        <ele>69.349999999999994</ele>
        <time>2018-07-05T13:46:47Z</time>
      </trkpt>
      <trkpt lat="48.811681028455496" lon="-3.295654021203518">
        <ele>72.719999999999999</ele>
        <time>2018-07-05T13:46:57Z</time>
      </trkpt>
      <trkpt lat="48.811774989590049" lon="-3.295675981789827">
        <ele>73.200000000000003</ele>
        <time>2018-07-05T13:46:59Z</time>
      </trkpt>
      <trkpt lat="48.811806002631783" lon="-3.295684028416872">
        <ele>73.200000000000003</ele>
        <time>2018-07-05T13:47:00Z</time>
      </trkpt>
      <trkpt lat="48.811868028715253" lon="-3.295600963756442">
        <ele>73.200000000000003</ele>
        <time>2018-07-05T13:47:01Z</time>
      </trkpt>
      <trkpt lat="48.811900969594717" lon="-3.295556958764792">
        <ele>73.680000000000007</ele>
        <time>2018-07-05T13:47:02Z</time>
      </trkpt>
      <trkpt lat="48.811935000121593" lon="-3.295512031763792">
        <ele>73.680000000000007</ele>
        <time>2018-07-05T13:47:03Z</time>
      </trkpt>
      <trkpt lat="48.811982022598386" lon="-3.295491999015212">
        <ele>73.680000000000007</ele>
        <time>2018-07-05T13:47:04Z</time>
      </trkpt>
      <trkpt lat="48.81203499622643" lon="-3.295469032600522">
        <ele>73.680000000000007</ele>
        <time>2018-07-05T13:47:05Z</time>
      </trkpt>
      <trkpt lat="48.81216399371624" lon="-3.295438019558787">
        <ele>74.159999999999997</ele>
        <time>2018-07-05T13:47:07Z</time>
      </trkpt>
      <trkpt lat="48.812231970950961" lon="-3.295428967103362">
        <ele>74.159999999999997</ele>
        <time>2018-07-05T13:47:08Z</time>
      </trkpt>
      <trkpt lat="48.812370020896196" lon="-3.295411029830575">
        <ele>74.159999999999997</ele>
        <time>2018-07-05T13:47:10Z</time>
      </trkpt>
      <trkpt lat="48.812432968989015" lon="-3.29540298320353">
        <ele>74.640000000000001</ele>
        <time>2018-07-05T13:47:11Z</time>
      </trkpt>
      <trkpt lat="48.812635978683829" lon="-3.295376999303699">
        <ele>75.120000000000005</ele>
        <time>2018-07-05T13:47:14Z</time>
      </trkpt>
      <trkpt lat="48.812705967575312" lon="-3.295368030667305">
        <ele>75.599999999999994</ele>
        <time>2018-07-05T13:47:15Z</time>
      </trkpt>
      <trkpt lat="48.813322959467769" lon="-3.295018002390862">
        <ele>78.480000000000004</ele>
        <time>2018-07-05T13:47:24Z</time>
      </trkpt>
      <trkpt lat="48.813409963622689" lon="-3.294986989349127">
        <ele>78.480000000000004</ele>
        <time>2018-07-05T13:47:25Z</time>
      </trkpt>
      <trkpt lat="48.8134750071913" lon="-3.295033005997539">
        <ele>78.480000000000004</ele>
        <time>2018-07-05T13:47:26Z</time>
      </trkpt>
      <trkpt lat="48.813550025224686" lon="-3.295084973797202">
        <ele>78.480000000000004</ele>
        <time>2018-07-05T13:47:27Z</time>
      </trkpt>
      <trkpt lat="48.813632000237703" lon="-3.295141970738769">
        <ele>78.480000000000004</ele>
        <time>2018-07-05T13:47:28Z</time>
      </trkpt>
      <trkpt lat="48.813719004392624" lon="-3.295201985165477">
        <ele>78</ele>
        <time>2018-07-05T13:47:29Z</time>
      </trkpt>
      <trkpt lat="48.814067021012306" lon="-3.29544497653842">
        <ele>77.519999999999996</ele>
        <time>2018-07-05T13:47:33Z</time>
      </trkpt>
      <trkpt lat="48.814138015732169" lon="-3.295524017885327">
        <ele>77.040000000000006</ele>
        <time>2018-07-05T13:47:34Z</time>
      </trkpt>
      <trkpt lat="48.814202975481749" lon="-3.295620996505022">
        <ele>76.560000000000002</ele>
        <time>2018-07-05T13:47:35Z</time>
      </trkpt>
      <trkpt lat="48.81452701985836" lon="-3.296115025877953">
        <ele>75.599999999999994</ele>
        <time>2018-07-05T13:47:41Z</time>
      </trkpt>
      <trkpt lat="48.814559960737824" lon="-3.296166993677616">
        <ele>75.599999999999994</ele>
        <time>2018-07-05T13:47:42Z</time>
      </trkpt>
      <trkpt lat="48.81459298543632" lon="-3.29621703363955">
        <ele>75.599999999999994</ele>
        <time>2018-07-05T13:47:43Z</time>
      </trkpt>
      <trkpt lat="48.814627015963197" lon="-3.296269001439214">
        <ele>75.599999999999994</ele>
        <time>2018-07-05T13:47:44Z</time>
      </trkpt>
      <trkpt lat="48.814664985984564" lon="-3.296327004209161">
        <ele>75.599999999999994</ele>
        <time>2018-07-05T13:47:45Z</time>
      </trkpt>
      <trkpt lat="48.814708990976214" lon="-3.296394981443882">
        <ele>75.599999999999994</ele>
        <time>2018-07-05T13:47:46Z</time>
      </trkpt>
      <trkpt lat="48.814756013453007" lon="-3.296467987820506">
        <ele>75.599999999999994</ele>
        <time>2018-07-05T13:47:47Z</time>
      </trkpt>
      <trkpt lat="48.81549303419888" lon="-3.297398965805769">
        <ele>75.120000000000005</ele>
        <time>2018-07-05T13:47:59Z</time>
      </trkpt>
      <trkpt lat="48.815777013078332" lon="-3.297702977433801">
        <ele>75.599999999999994</ele>
        <time>2018-07-05T13:48:03Z</time>
      </trkpt>
      <trkpt lat="48.815855970606208" lon="-3.297736002132297">
        <ele>75.599999999999994</ele>
        <time>2018-07-05T13:48:04Z</time>
      </trkpt>
      <trkpt lat="48.815938029438257" lon="-3.297755029052496">
        <ele>75.599999999999994</ele>
        <time>2018-07-05T13:48:05Z</time>
      </trkpt>
      <trkpt lat="48.816023021936417" lon="-3.297774977982044">
        <ele>75.599999999999994</ele>
        <time>2018-07-05T13:48:06Z</time>
      </trkpt>
      <trkpt lat="48.816111031919718" lon="-3.297795010730624">
        <ele>76.079999999999998</ele>
        <time>2018-07-05T13:48:07Z</time>
      </trkpt>
      <trkpt lat="48.816919969394803" lon="-3.297983016818762">
        <ele>77.519999999999996</ele>
        <time>2018-07-05T13:48:17Z</time>
      </trkpt>
      <trkpt lat="48.817035974934697" lon="-3.298010006546974">
        <ele>77.519999999999996</ele>
        <time>2018-07-05T13:48:18Z</time>
      </trkpt>
      <trkpt lat="48.817156003788114" lon="-3.298038002103567">
        <ele>77.519999999999996</ele>
        <time>2018-07-05T13:48:19Z</time>
      </trkpt>
      <trkpt lat="48.817469989880919" lon="-3.298079995438457">
        <ele>76.079999999999998</ele>
        <time>2018-07-05T13:48:22Z</time>
      </trkpt>
      <trkpt lat="48.817567974328995" lon="-3.29808795824647">
        <ele>75.599999999999994</ele>
        <time>2018-07-05T13:48:23Z</time>
      </trkpt>
      <trkpt lat="48.817666964605451" lon="-3.298096004873514">
        <ele>75.599999999999994</ele>
        <time>2018-07-05T13:48:24Z</time>
      </trkpt>
      <trkpt lat="48.818141967058182" lon="-3.298137998208404">
        <ele>74.159999999999997</ele>
        <time>2018-07-05T13:48:29Z</time>
      </trkpt>
      <trkpt lat="48.818231988698244" lon="-3.298145961016417">
        <ele>74.159999999999997</ele>
        <time>2018-07-05T13:48:30Z</time>
      </trkpt>
      <trkpt lat="48.81906196475029" lon="-3.298362968489528">
        <ele>74.159999999999997</ele>
        <time>2018-07-05T13:48:39Z</time>
      </trkpt>
      <trkpt lat="48.819605028256774" lon="-3.298622975125909">
        <ele>73.200000000000003</ele>
        <time>2018-07-05T13:48:44Z</time>
      </trkpt>
      <trkpt lat="48.819703012704849" lon="-3.298666980117559">
        <ele>72.719999999999999</ele>
        <time>2018-07-05T13:48:45Z</time>
      </trkpt>
      <trkpt lat="48.82067296653986" lon="-3.298830008134246">
        <ele>69.349999999999994</ele>
        <time>2018-07-05T13:48:53Z</time>
      </trkpt>
      <trkpt lat="48.820786038413644" lon="-3.298893040046096">
        <ele>68.390000000000001</ele>
        <time>2018-07-05T13:48:54Z</time>
      </trkpt>
      <trkpt lat="48.820884022861719" lon="-3.299008961766958">
        <ele>67.909999999999997</ele>
        <time>2018-07-05T13:48:55Z</time>
      </trkpt>
      <trkpt lat="48.820984018966556" lon="-3.299124967306852">
        <ele>67.909999999999997</ele>
        <time>2018-07-05T13:48:56Z</time>
      </trkpt>
      <trkpt lat="48.82108099758625" lon="-3.299238039180636">
        <ele>67.430000000000007</ele>
        <time>2018-07-05T13:48:57Z</time>
      </trkpt>
      <trkpt lat="48.8222820404917" lon="-3.300499012693763">
        <ele>63.579999999999998</ele>
        <time>2018-07-05T13:49:10Z</time>
      </trkpt>
      <trkpt lat="48.822805993258953" lon="-3.300936967134476">
        <ele>62.140000000000001</ele>
        <time>2018-07-05T13:49:16Z</time>
      </trkpt>
      <trkpt lat="48.822902971878648" lon="-3.301019025966525">
        <ele>61.659999999999997</ele>
        <time>2018-07-05T13:49:17Z</time>
      </trkpt>
      <trkpt lat="48.823003973811865" lon="-3.301114998757839">
        <ele>61.18</ele>
        <time>2018-07-05T13:49:18Z</time>
      </trkpt>
      <trkpt lat="48.823849959298968" lon="-3.302309000864625">
        <ele>53.490000000000002</ele>
        <time>2018-07-05T13:49:26Z</time>
      </trkpt>
      <trkpt lat="48.823948027566075" lon="-3.302451996132731">
        <ele>52.530000000000001</ele>
        <time>2018-07-05T13:49:27Z</time>
      </trkpt>
      <trkpt lat="48.824044000357389" lon="-3.302574036642909">
        <ele>52.049999999999997</ele>
        <time>2018-07-05T13:49:28Z</time>
      </trkpt>
      <trkpt lat="48.824152965098619" lon="-3.30266498029232">
        <ele>51.57</ele>
        <time>2018-07-05T13:49:29Z</time>
      </trkpt>
      <trkpt lat="48.824264025315642" lon="-3.302757013589144">
        <ele>51.090000000000003</ele>
        <time>2018-07-05T13:49:30Z</time>
      </trkpt>
      <trkpt lat="48.824377013370395" lon="-3.302851980552077">
        <ele>51.090000000000003</ele>
        <time>2018-07-05T13:49:31Z</time>
      </trkpt>
      <trkpt lat="48.824511040002108" lon="-3.302887016907334">
        <ele>51.090000000000003</ele>
        <time>2018-07-05T13:49:32Z</time>
      </trkpt>
      <trkpt lat="48.824649006128311" lon="-3.302905960008502">
        <ele>51.090000000000003</ele>
        <time>2018-07-05T13:49:33Z</time>
      </trkpt>
      <trkpt lat="48.824789989739656" lon="-3.302924986928701">
        <ele>51.090000000000003</ele>
        <time>2018-07-05T13:49:34Z</time>
      </trkpt>
      <trkpt lat="48.826011987403035" lon="-3.30317703075707">
        <ele>51.57</ele>
        <time>2018-07-05T13:49:43Z</time>
      </trkpt>
      <trkpt lat="48.827733965590596" lon="-3.303273003548384">
        <ele>55.409999999999997</ele>
        <time>2018-07-05T13:49:56Z</time>
      </trkpt>
      <trkpt lat="48.82819396443665" lon="-3.303310973569751">
        <ele>56.859999999999999</ele>
        <time>2018-07-05T13:50:00Z</time>
      </trkpt>
      <trkpt lat="48.828290021046996" lon="-3.303369982168078">
        <ele>57.340000000000003</ele>
        <time>2018-07-05T13:50:01Z</time>
      </trkpt>
      <trkpt lat="48.828394040465355" lon="-3.303434019908309">
        <ele>57.82</ele>
        <time>2018-07-05T13:50:02Z</time>
      </trkpt>
      <trkpt lat="48.828496970236301" lon="-3.303518006578088">
        <ele>57.340000000000003</ele>
        <time>2018-07-05T13:50:03Z</time>
      </trkpt>
      <trkpt lat="48.828594032675028" lon="-3.303624959662557">
        <ele>57.340000000000003</ele>
        <time>2018-07-05T13:50:04Z</time>
      </trkpt>
      <trkpt lat="48.828687993809581" lon="-3.303731996566057">
        <ele>56.859999999999999</ele>
        <time>2018-07-05T13:50:05Z</time>
      </trkpt>
      <trkpt lat="48.828863007947803" lon="-3.303936012089253">
        <ele>55.890000000000001</ele>
        <time>2018-07-05T13:50:07Z</time>
      </trkpt>
      <trkpt lat="48.828968033194542" lon="-3.303997032344341">
        <ele>55.409999999999997</ele>
        <time>2018-07-05T13:50:08Z</time>
      </trkpt>
      <trkpt lat="48.82907297462225" lon="-3.304013041779399">
        <ele>54.93</ele>
        <time>2018-07-05T13:50:09Z</time>
      </trkpt>
      <trkpt lat="48.829186968505383" lon="-3.304030979052186">
        <ele>54.450000000000003</ele>
        <time>2018-07-05T13:50:10Z</time>
      </trkpt>
      <trkpt lat="48.829274978488684" lon="-3.303954033181071">
        <ele>53.969999999999999</ele>
        <time>2018-07-05T13:50:11Z</time>
      </trkpt>
      <trkpt lat="48.82937103509903" lon="-3.303870968520641">
        <ele>53.490000000000002</ele>
        <time>2018-07-05T13:50:12Z</time>
      </trkpt>
      <trkpt lat="48.829472959041595" lon="-3.303782036527991">
        <ele>53.009999999999998</ele>
        <time>2018-07-05T13:50:13Z</time>
      </trkpt>
      <trkpt lat="48.829577984288335" lon="-3.303691009059548">
        <ele>52.530000000000001</ele>
        <time>2018-07-05T13:50:14Z</time>
      </trkpt>
      <trkpt lat="48.829915020614862" lon="-3.303397977724671">
        <ele>52.049999999999997</ele>
        <time>2018-07-05T13:50:17Z</time>
      </trkpt>
      <trkpt lat="48.830029014497995" lon="-3.303312985226512">
        <ele>52.049999999999997</ele>
        <time>2018-07-05T13:50:18Z</time>
      </trkpt>
      <trkpt lat="48.830150971189141" lon="-3.3032669685781">
        <ele>52.530000000000001</ele>
        <time>2018-07-05T13:50:19Z</time>
      </trkpt>
      <trkpt lat="48.830266976729035" lon="-3.303279960528016">
        <ele>52.049999999999997</ele>
        <time>2018-07-05T13:50:20Z</time>
      </trkpt>
      <trkpt lat="48.830385999754071" lon="-3.303308039903641">
        <ele>51.57</ele>
        <time>2018-07-05T13:50:21Z</time>
      </trkpt>
      <trkpt lat="48.830496976152062" lon="-3.303369982168078">
        <ele>51.090000000000003</ele>
        <time>2018-07-05T13:50:22Z</time>
      </trkpt>
      <trkpt lat="48.830600995570421" lon="-3.303480036556721">
        <ele>51.090000000000003</ele>
        <time>2018-07-05T13:50:23Z</time>
      </trkpt>
      <trkpt lat="48.830709038302302" lon="-3.303594030439854">
        <ele>50.609999999999999</ele>
        <time>2018-07-05T13:50:24Z</time>
      </trkpt>
      <trkpt lat="48.831575978547335" lon="-3.304805969819427">
        <ele>46.280000000000001</ele>
        <time>2018-07-05T13:50:33Z</time>
      </trkpt>
      <trkpt lat="48.831783011555672" lon="-3.305061031132937">
        <ele>46.280000000000001</ele>
        <time>2018-07-05T13:50:35Z</time>
      </trkpt>
      <trkpt lat="48.832506034523249" lon="-3.305723033845425">
        <ele>47.240000000000002</ele>
        <time>2018-07-05T13:50:42Z</time>
      </trkpt>
      <trkpt lat="48.832614999264479" lon="-3.305784976109862">
        <ele>47.719999999999999</ele>
        <time>2018-07-05T13:50:43Z</time>
      </trkpt>
      <trkpt lat="48.832732010632753" lon="-3.305811965838075">
        <ele>47.719999999999999</ele>
        <time>2018-07-05T13:50:44Z</time>
      </trkpt>
      <trkpt lat="48.832848016172647" lon="-3.305811965838075">
        <ele>48.200000000000003</ele>
        <time>2018-07-05T13:50:45Z</time>
      </trkpt>
      <trkpt lat="48.832947006449103" lon="-3.305811965838075">
        <ele>48.68</ele>
        <time>2018-07-05T13:50:46Z</time>
      </trkpt>
      <trkpt lat="48.83302696980536" lon="-3.305811965838075">
        <ele>48.68</ele>
        <time>2018-07-05T13:50:47Z</time>
      </trkpt>
      <trkpt lat="48.833083966746926" lon="-3.305806014686823">
        <ele>49.159999999999997</ele>
        <time>2018-07-05T13:50:48Z</time>
      </trkpt>
      <trkpt lat="48.833472970873117" lon="-3.305780030786991">
        <ele>50.609999999999999</ele>
        <time>2018-07-05T13:50:53Z</time>
      </trkpt>
      <trkpt lat="48.833569027483463" lon="-3.305797968059778">
        <ele>50.609999999999999</ele>
        <time>2018-07-05T13:50:54Z</time>
      </trkpt>
      <trkpt lat="48.833659971132874" lon="-3.305814983323216">
        <ele>51.090000000000003</ele>
        <time>2018-07-05T13:50:55Z</time>
      </trkpt>
      <trkpt lat="48.833757033571601" lon="-3.305833004415035">
        <ele>51.090000000000003</ele>
        <time>2018-07-05T13:50:56Z</time>
      </trkpt>
      <trkpt lat="48.833832973614335" lon="-3.305883966386318">
        <ele>51.090000000000003</ele>
        <time>2018-07-05T13:50:57Z</time>
      </trkpt>
      <trkpt lat="48.833915032446384" lon="-3.305939035490155">
        <ele>50.609999999999999</ele>
        <time>2018-07-05T13:50:58Z</time>
      </trkpt>
      <trkpt lat="48.833997007459402" lon="-3.30599301494658">
        <ele>50.130000000000003</ele>
        <time>2018-07-05T13:50:59Z</time>
      </trkpt>
      <trkpt lat="48.834061967208982" lon="-3.306081024929881">
        <ele>49.649999999999999</ele>
        <time>2018-07-05T13:51:00Z</time>
      </trkpt>
      <trkpt lat="48.834115024656057" lon="-3.306166017428041">
        <ele>49.159999999999997</ele>
        <time>2018-07-05T13:51:01Z</time>
      </trkpt>
      <trkpt lat="48.83416498079896" lon="-3.306244974955916">
        <ele>48.68</ele>
        <time>2018-07-05T13:51:02Z</time>
      </trkpt>
      <trkpt lat="48.83422901853919" lon="-3.306347988545895">
        <ele>48.68</ele>
        <time>2018-07-05T13:51:03Z</time>
      </trkpt>
      <trkpt lat="48.834253996610641" lon="-3.306447984650731">
        <ele>48.200000000000003</ele>
        <time>2018-07-05T13:51:04Z</time>
      </trkpt>
      <trkpt lat="48.834292972460389" lon="-3.306605983525515">
        <ele>47.719999999999999</ele>
        <time>2018-07-05T13:51:05Z</time>
      </trkpt>
      <trkpt lat="48.834304958581924" lon="-3.306737998500466">
        <ele>46.759999999999998</ele>
        <time>2018-07-05T13:51:06Z</time>
      </trkpt>
      <trkpt lat="48.834319040179253" lon="-3.306890968233347">
        <ele>46.280000000000001</ele>
        <time>2018-07-05T13:51:07Z</time>
      </trkpt>
      <trkpt lat="48.834335971623659" lon="-3.307077968493104">
        <ele>45.32</ele>
        <time>2018-07-05T13:51:08Z</time>
      </trkpt>
      <trkpt lat="48.834335971623659" lon="-3.308092011138797">
        <ele>41.469999999999999</ele>
        <time>2018-07-05T13:51:15Z</time>
      </trkpt>
      <trkpt lat="48.834335971623659" lon="-3.308241041377187">
        <ele>40.990000000000002</ele>
        <time>2018-07-05T13:51:16Z</time>
      </trkpt>
      <trkpt lat="48.834351981058717" lon="-3.309290958568454">
        <ele>36.189999999999998</ele>
        <time>2018-07-05T13:51:23Z</time>
      </trkpt>
      <trkpt lat="48.834381988272071" lon="-3.309419034048915">
        <ele>35.710000000000001</ele>
        <time>2018-07-05T13:51:24Z</time>
      </trkpt>
      <trkpt lat="48.834410989657044" lon="-3.309548031538725">
        <ele>34.740000000000002</ele>
        <time>2018-07-05T13:51:25Z</time>
      </trkpt>
      <trkpt lat="48.834440996870399" lon="-3.309677029028535">
        <ele>33.780000000000001</ele>
        <time>2018-07-05T13:51:26Z</time>
      </trkpt>
      <trkpt lat="48.834464969113469" lon="-3.309781970456243">
        <ele>32.340000000000003</ele>
        <time>2018-07-05T13:51:27Z</time>
      </trkpt>
      <trkpt lat="48.834549961611629" lon="-3.309892024844885">
        <ele>31.379999999999999</ele>
        <time>2018-07-05T13:51:28Z</time>
      </trkpt>
      <trkpt lat="48.834618022665381" lon="-3.309981040656567">
        <ele>30.899999999999999</ele>
        <time>2018-07-05T13:51:29Z</time>
      </trkpt>
      <trkpt lat="48.834695974364877" lon="-3.310069972649217">
        <ele>29.940000000000001</ele>
        <time>2018-07-05T13:51:30Z</time>
      </trkpt>
      <trkpt lat="48.8347880076617" lon="-3.310123030096293">
        <ele>28.98</ele>
        <time>2018-07-05T13:51:31Z</time>
      </trkpt>
      <trkpt lat="48.834890015423298" lon="-3.310143984854221">
        <ele>28.5</ele>
        <time>2018-07-05T13:51:32Z</time>
      </trkpt>
      <trkpt lat="48.834986994042993" lon="-3.31013903953135">
        <ele>27.530000000000001</ele>
        <time>2018-07-05T13:51:33Z</time>
      </trkpt>
      <trkpt lat="48.835081961005926" lon="-3.310135016217828">
        <ele>27.050000000000001</ele>
        <time>2018-07-05T13:51:34Z</time>
      </trkpt>
      <trkpt lat="48.83517500013113" lon="-3.310129987075925">
        <ele>26.57</ele>
        <time>2018-07-05T13:51:35Z</time>
      </trkpt>
      <trkpt lat="48.835270972922444" lon="-3.310125041753054">
        <ele>26.57</ele>
        <time>2018-07-05T13:51:36Z</time>
      </trkpt>
      <trkpt lat="48.835656959563494" lon="-3.31014096736908">
        <ele>24.649999999999999</ele>
        <time>2018-07-05T13:51:40Z</time>
      </trkpt>
      <trkpt lat="48.83575301617384" lon="-3.310145996510983">
        <ele>23.690000000000001</ele>
        <time>2018-07-05T13:51:41Z</time>
      </trkpt>
      <trkpt lat="48.8358189817518" lon="-3.310194024816155">
        <ele>23.210000000000001</ele>
        <time>2018-07-05T13:51:42Z</time>
      </trkpt>
      <trkpt lat="48.835893999785185" lon="-3.31024800427258">
        <ele>22.73</ele>
        <time>2018-07-05T13:51:43Z</time>
      </trkpt>
      <trkpt lat="48.835964994505048" lon="-3.310297960415483">
        <ele>22.25</ele>
        <time>2018-07-05T13:51:44Z</time>
      </trkpt>
      <trkpt lat="48.836078988388181" lon="-3.310407008975744">
        <ele>21.77</ele>
        <time>2018-07-05T13:51:46Z</time>
      </trkpt>
      <trkpt lat="48.83612098172307" lon="-3.310480015352368">
        <ele>21.289999999999999</ele>
        <time>2018-07-05T13:51:47Z</time>
      </trkpt>
      <trkpt lat="48.836149983108044" lon="-3.310552015900612">
        <ele>21.289999999999999</ele>
        <time>2018-07-05T13:51:48Z</time>
      </trkpt>
      <trkpt lat="48.836174961179495" lon="-3.310641031712294">
        <ele>20.809999999999999</ele>
        <time>2018-07-05T13:51:49Z</time>
      </trkpt>
      <trkpt lat="48.836201028898358" lon="-3.310734992846847">
        <ele>20.32</ele>
        <time>2018-07-05T13:51:50Z</time>
      </trkpt>
      <trkpt lat="48.83622701279819" lon="-3.310828031972051">
        <ele>19.84</ele>
        <time>2018-07-05T13:51:51Z</time>
      </trkpt>
      <trkpt lat="48.836277974769473" lon="-3.311015032231808">
        <ele>18.879999999999999</ele>
        <time>2018-07-05T13:51:53Z</time>
      </trkpt>
      <trkpt lat="48.836303958669305" lon="-3.31110798753798">
        <ele>17.920000000000002</ele>
        <time>2018-07-05T13:51:54Z</time>
      </trkpt>
      <trkpt lat="48.836418036371469" lon="-3.31160101108253">
        <ele>15.039999999999999</ele>
        <time>2018-07-05T13:51:59Z</time>
      </trkpt>
      <trkpt lat="48.836418036371469" lon="-3.311697989702225">
        <ele>14.08</ele>
        <time>2018-07-05T13:52:00Z</time>
      </trkpt>
      <trkpt lat="48.836418036371469" lon="-3.3117959741503">
        <ele>13.6</ele>
        <time>2018-07-05T13:52:01Z</time>
      </trkpt>
      <trkpt lat="48.836395991966128" lon="-3.311897981911898">
        <ele>12.630000000000001</ele>
        <time>2018-07-05T13:52:02Z</time>
      </trkpt>
      <trkpt lat="48.836373025551438" lon="-3.312002001330257">
        <ele>12.15</ele>
        <time>2018-07-05T13:52:03Z</time>
      </trkpt>
      <trkpt lat="48.836350981146097" lon="-3.312105014920235">
        <ele>11.67</ele>
        <time>2018-07-05T13:52:04Z</time>
      </trkpt>
      <trkpt lat="48.836268000304699" lon="-3.312484966591001">
        <ele>9.75</ele>
        <time>2018-07-05T13:52:08Z</time>
      </trkpt>
      <trkpt lat="48.836258025839925" lon="-3.312551015987992">
        <ele>9.27</ele>
        <time>2018-07-05T13:52:09Z</time>
      </trkpt>
      <trkpt lat="48.836216032505035" lon="-3.312820997089148">
        <ele>7.35</ele>
        <time>2018-07-05T13:52:13Z</time>
      </trkpt>
      <trkpt lat="48.83620698004961" lon="-3.312881011515856">
        <ele>6.87</ele>
        <time>2018-07-05T13:52:14Z</time>
      </trkpt>
      <trkpt lat="48.836198011413217" lon="-3.312938008457422">
        <ele>6.87</ele>
        <time>2018-07-05T13:52:15Z</time>
      </trkpt>
      <trkpt lat="48.836188958957791" lon="-3.312995005398989">
        <ele>6.87</ele>
        <time>2018-07-05T13:52:16Z</time>
      </trkpt>
      <trkpt lat="48.836180996149778" lon="-3.313058037310839">
        <ele>6.39</ele>
        <time>2018-07-05T13:52:17Z</time>
      </trkpt>
      <trkpt lat="48.836170015856624" lon="-3.313379986211658">
        <ele>5.42</ele>
        <time>2018-07-05T13:52:23Z</time>
      </trkpt>
      <trkpt lat="48.836164986714721" lon="-3.313502026721835">
        <ele>4.46</ele>
        <time>2018-07-05T13:52:33Z</time>
      </trkpt>
      <trkpt lat="48.836164986714721" lon="-3.313502026721835">
        <ele>4.46</ele>
        <time>2018-07-05T13:52:58Z</time>
      </trkpt>
      <trkpt lat="48.836164986714721" lon="-3.313502026721835">
        <ele>4.46</ele>
        <time>2018-07-05T13:53:23Z</time>
      </trkpt>
    </trkseg>
  </trk>

  <trk>
    <name>Track vom: 2018-07-05 16:29</name>
    <extensions>
      <gpxx:TrackExtension>
        <gpxx:DisplayColor>DarkGray</gpxx:DisplayColor>
      </gpxx:TrackExtension>
    </extensions>
    <trkseg>
      <trkpt lat="48.836132967844605" lon="-3.313585007563233">
        <ele>-0.34</ele>
        <time>2018-07-05T14:29:45Z</time>
      </trkpt>
      <trkpt lat="48.836107989773154" lon="-3.313460033386946">
        <ele>8.310000000000001</ele>
        <time>2018-07-05T14:30:38Z</time>
      </trkpt>
      <trkpt lat="48.836130034178495" lon="-3.313480988144875">
        <ele>9.75</ele>
        <time>2018-07-05T14:31:20Z</time>
      </trkpt>
      <trkpt lat="48.836147971451283" lon="-3.313461039215326">
        <ele>11.19</ele>
        <time>2018-07-05T14:32:03Z</time>
      </trkpt>
      <trkpt lat="48.836147971451283" lon="-3.313461039215326">
        <ele>11.19</ele>
        <time>2018-07-05T14:32:04Z</time>
      </trkpt>
      <trkpt lat="48.836165992543101" lon="-3.313488028943539">
        <ele>11.19</ele>
        <time>2018-07-05T14:32:06Z</time>
      </trkpt>
      <trkpt lat="48.83616398088634" lon="-3.313543014228344">
        <ele>11.19</ele>
        <time>2018-07-05T14:32:07Z</time>
      </trkpt>
      <trkpt lat="48.836160963401198" lon="-3.313625995069742">
        <ele>10.710000000000001</ele>
        <time>2018-07-05T14:32:08Z</time>
      </trkpt>
      <trkpt lat="48.836157023906708" lon="-3.313725991174579">
        <ele>10.23</ele>
        <time>2018-07-05T14:32:09Z</time>
      </trkpt>
      <trkpt lat="48.836154006421566" lon="-3.313833028078079">
        <ele>9.75</ele>
        <time>2018-07-05T14:32:10Z</time>
      </trkpt>
      <trkpt lat="48.836145037785172" lon="-3.314062021672726">
        <ele>9.27</ele>
        <time>2018-07-05T14:32:12Z</time>
      </trkpt>
      <trkpt lat="48.836211003363132" lon="-3.315076986327767">
        <ele>7.83</ele>
        <time>2018-07-05T14:32:23Z</time>
      </trkpt>
      <trkpt lat="48.836217960342765" lon="-3.315156027674675">
        <ele>7.83</ele>
        <time>2018-07-05T14:32:24Z</time>
      </trkpt>
      <trkpt lat="48.836252996698022" lon="-3.315560035407543">
        <ele>7.83</ele>
        <time>2018-07-05T14:32:29Z</time>
      </trkpt>
      <trkpt lat="48.836260037496686" lon="-3.315636981278658">
        <ele>8.310000000000001</ele>
        <time>2018-07-05T14:32:30Z</time>
      </trkpt>
      <trkpt lat="48.83624997921288" lon="-3.315738989040256">
        <ele>7.83</ele>
        <time>2018-07-05T14:32:31Z</time>
      </trkpt>
      <trkpt lat="48.836207985877991" lon="-3.315772013738751">
        <ele>7.83</ele>
        <time>2018-07-05T14:32:32Z</time>
      </trkpt>
      <trkpt lat="48.836158029735088" lon="-3.31581199541688">
        <ele>7.83</ele>
        <time>2018-07-05T14:32:33Z</time>
      </trkpt>
      <trkpt lat="48.836093991994858" lon="-3.315863041207194">
        <ele>7.35</ele>
        <time>2018-07-05T14:32:34Z</time>
      </trkpt>
      <trkpt lat="48.83523995988071" lon="-3.316539041697979">
        <ele>4.94</ele>
        <time>2018-07-05T14:32:44Z</time>
      </trkpt>
      <trkpt lat="48.834303030744195" lon="-3.317253012210131">
        <ele>6.39</ele>
        <time>2018-07-05T14:32:55Z</time>
      </trkpt>
      <trkpt lat="48.83352099917829" lon="-3.317736983299255">
        <ele>4.94</ele>
        <time>2018-07-05T14:33:04Z</time>
      </trkpt>
      <trkpt lat="48.833438018336892" lon="-3.31776699051261">
        <ele>4.94</ele>
        <time>2018-07-05T14:33:05Z</time>
      </trkpt>
      <trkpt lat="48.832310987636447" lon="-3.318028002977371">
        <ele>3.5</ele>
        <time>2018-07-05T14:33:17Z</time>
      </trkpt>
      <trkpt lat="48.831551000475883" lon="-3.318582968786359">
        <ele>6.39</ele>
        <time>2018-07-05T14:33:26Z</time>
      </trkpt>
      <trkpt lat="48.831462990492582" lon="-3.318599984049797">
        <ele>6.87</ele>
        <time>2018-07-05T14:33:27Z</time>
      </trkpt>
      <trkpt lat="48.831376992166042" lon="-3.318616999313235">
        <ele>6.87</ele>
        <time>2018-07-05T14:33:28Z</time>
      </trkpt>
      <trkpt lat="48.831298034638166" lon="-3.318600989878178">
        <ele>7.35</ele>
        <time>2018-07-05T14:33:29Z</time>
      </trkpt>
      <trkpt lat="48.831215975806117" lon="-3.318570982664824">
        <ele>7.35</ele>
        <time>2018-07-05T14:33:30Z</time>
      </trkpt>
      <trkpt lat="48.831138024106622" lon="-3.318526977673173">
        <ele>7.83</ele>
        <time>2018-07-05T14:33:31Z</time>
      </trkpt>
      <trkpt lat="48.830880029127002" lon="-3.318402003496885">
        <ele>10.710000000000001</ele>
        <time>2018-07-05T14:33:37Z</time>
      </trkpt>
      <trkpt lat="48.830849016085267" lon="-3.318450031802058">
        <ele>11.19</ele>
        <time>2018-07-05T14:33:38Z</time>
      </trkpt>
      <trkpt lat="48.830805011093616" lon="-3.31851901486516">
        <ele>11.19</ele>
        <time>2018-07-05T14:33:39Z</time>
      </trkpt>
      <trkpt lat="48.830273011699319" lon="-3.319362988695502">
        <ele>12.15</ele>
        <time>2018-07-05T14:33:46Z</time>
      </trkpt>
      <trkpt lat="48.829777976498008" lon="-3.320175027474761">
        <ele>14.08</ele>
        <time>2018-07-05T14:33:53Z</time>
      </trkpt>
      <trkpt lat="48.829731037840247" lon="-3.320220960304141">
        <ele>14.56</ele>
        <time>2018-07-05T14:33:54Z</time>
      </trkpt>
      <trkpt lat="48.829682003706694" lon="-3.320182990282774">
        <ele>14.56</ele>
        <time>2018-07-05T14:33:55Z</time>
      </trkpt>
      <trkpt lat="48.829626012593508" lon="-3.320138985291123">
        <ele>15.039999999999999</ele>
        <time>2018-07-05T14:33:56Z</time>
      </trkpt>
      <trkpt lat="48.829563986510038" lon="-3.320090034976602">
        <ele>15.039999999999999</ele>
        <time>2018-07-05T14:33:57Z</time>
      </trkpt>
      <trkpt lat="48.829492991790175" lon="-3.320034965872765">
        <ele>15.52</ele>
        <time>2018-07-05T14:33:58Z</time>
      </trkpt>
      <trkpt lat="48.828840963542461" lon="-3.319317977875471">
        <ele>19.84</ele>
        <time>2018-07-05T14:34:06Z</time>
      </trkpt>
      <trkpt lat="48.82874901406467" lon="-3.319251006469131">
        <ele>20.32</ele>
        <time>2018-07-05T14:34:07Z</time>
      </trkpt>
      <trkpt lat="48.828659998252988" lon="-3.319224016740918">
        <ele>21.289999999999999</ele>
        <time>2018-07-05T14:34:08Z</time>
      </trkpt>
      <trkpt lat="48.828561007976532" lon="-3.319217981770635">
        <ele>21.77</ele>
        <time>2018-07-05T14:34:09Z</time>
      </trkpt>
      <trkpt lat="48.828479032963514" lon="-3.319271039217711">
        <ele>22.73</ele>
        <time>2018-07-05T14:34:10Z</time>
      </trkpt>
      <trkpt lat="48.828393034636974" lon="-3.319327030330896">
        <ele>23.690000000000001</ele>
        <time>2018-07-05T14:34:11Z</time>
      </trkpt>
      <trkpt lat="48.828114001080394" lon="-3.319489974528551">
        <ele>27.050000000000001</ele>
        <time>2018-07-05T14:34:14Z</time>
      </trkpt>
      <trkpt lat="48.828012999147177" lon="-3.319514030590653">
        <ele>28.02</ele>
        <time>2018-07-05T14:34:15Z</time>
      </trkpt>
      <trkpt lat="48.827910991385579" lon="-3.319538002833724">
        <ele>28.5</ele>
        <time>2018-07-05T14:34:16Z</time>
      </trkpt>
      <trkpt lat="48.827791968360543" lon="-3.319565998390317">
        <ele>29.460000000000001</ele>
        <time>2018-07-05T14:34:17Z</time>
      </trkpt>
      <trkpt lat="48.827710999175906" lon="-3.319554012268782">
        <ele>29.940000000000001</ele>
        <time>2018-07-05T14:34:18Z</time>
      </trkpt>
      <trkpt lat="48.827609997242689" lon="-3.319538002833724">
        <ele>29.940000000000001</ele>
        <time>2018-07-05T14:34:19Z</time>
      </trkpt>
      <trkpt lat="48.827506983652711" lon="-3.319521993398666">
        <ele>30.420000000000002</ele>
        <time>2018-07-05T14:34:20Z</time>
      </trkpt>
      <trkpt lat="48.82673199288547" lon="-3.319003991782665">
        <ele>31.379999999999999</ele>
        <time>2018-07-05T14:34:28Z</time>
      </trkpt>
      <trkpt lat="48.826647000387311" lon="-3.318923022598028">
        <ele>31.859999999999999</ele>
        <time>2018-07-05T14:34:29Z</time>
      </trkpt>
      <trkpt lat="48.82660198956728" lon="-3.318807017058134">
        <ele>32.340000000000003</ele>
        <time>2018-07-05T14:34:30Z</time>
      </trkpt>
      <trkpt lat="48.826557984575629" lon="-3.31869101151824">
        <ele>32.82</ele>
        <time>2018-07-05T14:34:31Z</time>
      </trkpt>
      <trkpt lat="48.826512973755598" lon="-3.318572994321585">
        <ele>33.780000000000001</ele>
        <time>2018-07-05T14:34:32Z</time>
      </trkpt>
      <trkpt lat="48.826075019314885" lon="-3.317276984453201">
        <ele>36.670000000000002</ele>
        <time>2018-07-05T14:34:41Z</time>
      </trkpt>
      <trkpt lat="48.825873015448451" lon="-3.316845986992121">
        <ele>37.149999999999999</ele>
        <time>2018-07-05T14:34:44Z</time>
      </trkpt>
      <trkpt lat="48.825717028230429" lon="-3.316573994234204">
        <ele>37.630000000000003</ele>
        <time>2018-07-05T14:34:46Z</time>
      </trkpt>
      <trkpt lat="48.825562968850136" lon="-3.316304013133049">
        <ele>38.590000000000003</ele>
        <time>2018-07-05T14:34:48Z</time>
      </trkpt>
      <trkpt lat="48.825476970523596" lon="-3.316208040341735">
        <ele>39.07</ele>
        <time>2018-07-05T14:34:49Z</time>
      </trkpt>
      <trkpt lat="48.825393989682198" lon="-3.31613402813673">
        <ele>39.549999999999997</ele>
        <time>2018-07-05T14:34:50Z</time>
      </trkpt>
      <trkpt lat="48.825179999694228" lon="-3.315945016220212">
        <ele>40.030000000000001</ele>
        <time>2018-07-05T14:34:53Z</time>
      </trkpt>
      <trkpt lat="48.825154015794396" lon="-3.315791040658951">
        <ele>40.509999999999998</ele>
        <time>2018-07-05T14:34:54Z</time>
      </trkpt>
      <trkpt lat="48.825135994702578" lon="-3.31566003151238">
        <ele>40.509999999999998</ele>
        <time>2018-07-05T14:34:55Z</time>
      </trkpt>
      <trkpt lat="48.825115961953998" lon="-3.315513012930751">
        <ele>40.990000000000002</ele>
        <time>2018-07-05T14:34:56Z</time>
      </trkpt>
      <trkpt lat="48.825145969167352" lon="-3.315353002399206">
        <ele>41.469999999999999</ele>
        <time>2018-07-05T14:34:57Z</time>
      </trkpt>
      <trkpt lat="48.825198020786047" lon="-3.315186034888029">
        <ele>41.469999999999999</ele>
        <time>2018-07-05T14:34:58Z</time>
      </trkpt>
      <trkpt lat="48.825255017727613" lon="-3.315006997436285">
        <ele>41.469999999999999</ele>
        <time>2018-07-05T14:34:59Z</time>
      </trkpt>
      <trkpt lat="48.825313020497561" lon="-3.314821003004909">
        <ele>41.469999999999999</ele>
        <time>2018-07-05T14:35:00Z</time>
      </trkpt>
      <trkpt lat="48.825357025489211" lon="-3.314626039937139">
        <ele>41.950000000000003</ele>
        <time>2018-07-05T14:35:01Z</time>
      </trkpt>
      <trkpt lat="48.825383009389043" lon="-3.314420012757182">
        <ele>42.439999999999998</ele>
        <time>2018-07-05T14:35:02Z</time>
      </trkpt>
      <trkpt lat="48.825521981343627" lon="-3.313571009784937">
        <ele>44.359999999999999</ele>
        <time>2018-07-05T14:35:06Z</time>
      </trkpt>
      <trkpt lat="48.825566992163658" lon="-3.313379986211658">
        <ele>44.840000000000003</ele>
        <time>2018-07-05T14:35:07Z</time>
      </trkpt>
      <trkpt lat="48.825608985498548" lon="-3.313207989558578">
        <ele>44.840000000000003</ele>
        <time>2018-07-05T14:35:08Z</time>
      </trkpt>
      <trkpt lat="48.82567897439003" lon="-3.312914036214352">
        <ele>45.32</ele>
        <time>2018-07-05T14:35:10Z</time>
      </trkpt>
      <trkpt lat="48.825681991875172" lon="-3.312774980440736">
        <ele>45.799999999999997</ele>
        <time>2018-07-05T14:35:11Z</time>
      </trkpt>
      <trkpt lat="48.825673023238778" lon="-3.312647994607687">
        <ele>45.799999999999997</ele>
        <time>2018-07-05T14:35:12Z</time>
      </trkpt>
      <trkpt lat="48.825646033510566" lon="-3.312520002946258">
        <ele>46.280000000000001</ele>
        <time>2018-07-05T14:35:13Z</time>
      </trkpt>
      <trkpt lat="48.825599011033773" lon="-3.312411960214376">
        <ele>46.759999999999998</ele>
        <time>2018-07-05T14:35:14Z</time>
      </trkpt>
      <trkpt lat="48.825497003272176" lon="-3.312172992154956">
        <ele>47.719999999999999</ele>
        <time>2018-07-05T14:35:16Z</time>
      </trkpt>
      <trkpt lat="48.825414022430778" lon="-3.312068972736597">
        <ele>48.68</ele>
        <time>2018-07-05T14:35:17Z</time>
      </trkpt>
      <trkpt lat="48.825324000790715" lon="-3.311992026865482">
        <ele>49.159999999999997</ele>
        <time>2018-07-05T14:35:18Z</time>
      </trkpt>
      <trkpt lat="48.825217969715595" lon="-3.311941986903548">
        <ele>49.649999999999999</ele>
        <time>2018-07-05T14:35:19Z</time>
      </trkpt>
      <trkpt lat="48.825104981660843" lon="-3.311890019103885">
        <ele>49.649999999999999</ele>
        <time>2018-07-05T14:35:20Z</time>
      </trkpt>
      <trkpt lat="48.824985958635807" lon="-3.311834027990699">
        <ele>49.649999999999999</ele>
        <time>2018-07-05T14:35:21Z</time>
      </trkpt>
      <trkpt lat="48.824188001453876" lon="-3.311389032751322">
        <ele>49.649999999999999</ele>
        <time>2018-07-05T14:35:28Z</time>
      </trkpt>
      <trkpt lat="48.823720039799809" lon="-3.311014026403427">
        <ele>49.649999999999999</ele>
        <time>2018-07-05T14:35:33Z</time>
      </trkpt>
      <trkpt lat="48.823646027594805" lon="-3.310997011139989">
        <ele>49.649999999999999</ele>
        <time>2018-07-05T14:35:34Z</time>
      </trkpt>
      <trkpt lat="48.823574027046561" lon="-3.311037998646498">
        <ele>49.649999999999999</ele>
        <time>2018-07-05T14:35:35Z</time>
      </trkpt>
      <trkpt lat="48.823494985699654" lon="-3.311082003638148">
        <ele>49.649999999999999</ele>
        <time>2018-07-05T14:35:36Z</time>
      </trkpt>
      <trkpt lat="48.823407981544733" lon="-3.311131959781051">
        <ele>50.130000000000003</ele>
        <time>2018-07-05T14:35:37Z</time>
      </trkpt>
      <trkpt lat="48.823329024016857" lon="-3.311175964772701">
        <ele>50.130000000000003</ele>
        <time>2018-07-05T14:35:38Z</time>
      </trkpt>
      <trkpt lat="48.823219975456595" lon="-3.311166996136308">
        <ele>50.130000000000003</ele>
        <time>2018-07-05T14:35:39Z</time>
      </trkpt>
      <trkpt lat="48.823131965473294" lon="-3.311160039156675">
        <ele>50.130000000000003</ele>
        <time>2018-07-05T14:35:40Z</time>
      </trkpt>
      <trkpt lat="48.823045967146754" lon="-3.311130031943321">
        <ele>50.130000000000003</ele>
        <time>2018-07-05T14:35:41Z</time>
      </trkpt>
      <trkpt lat="48.822966003790498" lon="-3.311051996424794">
        <ele>50.130000000000003</ele>
        <time>2018-07-05T14:35:42Z</time>
      </trkpt>
      <trkpt lat="48.822877993807197" lon="-3.310964992269874">
        <ele>49.649999999999999</ele>
        <time>2018-07-05T14:35:43Z</time>
      </trkpt>
      <trkpt lat="48.82277699187398" lon="-3.310867007821798">
        <ele>49.649999999999999</ele>
        <time>2018-07-05T14:35:44Z</time>
      </trkpt>
      <trkpt lat="48.82256300188601" lon="-3.310657041147351">
        <ele>49.159999999999997</ele>
        <time>2018-07-05T14:35:46Z</time>
      </trkpt>
      <trkpt lat="48.82245403714478" lon="-3.310550004243851">
        <ele>49.159999999999997</ele>
        <time>2018-07-05T14:35:47Z</time>
      </trkpt>
      <trkpt lat="48.821824975311756" lon="-3.309898981824517">
        <ele>49.649999999999999</ele>
        <time>2018-07-05T14:35:53Z</time>
      </trkpt>
      <trkpt lat="48.821649961173534" lon="-3.309681974351406">
        <ele>49.649999999999999</ele>
        <time>2018-07-05T14:35:55Z</time>
      </trkpt>
      <trkpt lat="48.821564968675375" lon="-3.309576027095318">
        <ele>49.649999999999999</ele>
        <time>2018-07-05T14:35:56Z</time>
      </trkpt>
      <trkpt lat="48.821404036134481" lon="-3.309377040714026">
        <ele>49.649999999999999</ele>
        <time>2018-07-05T14:35:58Z</time>
      </trkpt>
      <trkpt lat="48.821309991180897" lon="-3.309276960790157">
        <ele>49.649999999999999</ele>
        <time>2018-07-05T14:35:59Z</time>
      </trkpt>
      <trkpt lat="48.821193985641003" lon="-3.309220969676971">
        <ele>49.649999999999999</ele>
        <time>2018-07-05T14:36:00Z</time>
      </trkpt>
      <trkpt lat="48.82058403454721" lon="-3.308900026604533">
        <ele>52.530000000000001</ele>
        <time>2018-07-05T14:36:05Z</time>
      </trkpt>
      <trkpt lat="48.820484038442373" lon="-3.308835988864303">
        <ele>53.009999999999998</ele>
        <time>2018-07-05T14:36:06Z</time>
      </trkpt>
      <trkpt lat="48.820374989882112" lon="-3.308833977207542">
        <ele>53.969999999999999</ele>
        <time>2018-07-05T14:36:07Z</time>
      </trkpt>
      <trkpt lat="48.820273987948895" lon="-3.308857027441263">
        <ele>53.969999999999999</ele>
        <time>2018-07-05T14:36:08Z</time>
      </trkpt>
      <trkpt lat="48.820173991844058" lon="-3.308878988027573">
        <ele>54.93</ele>
        <time>2018-07-05T14:36:09Z</time>
      </trkpt>
      <trkpt lat="48.820073995739222" lon="-3.308902038261294">
        <ele>55.409999999999997</ele>
        <time>2018-07-05T14:36:10Z</time>
      </trkpt>
      <trkpt lat="48.819970982149243" lon="-3.308920981362462">
        <ele>55.890000000000001</ele>
        <time>2018-07-05T14:36:11Z</time>
      </trkpt>
      <trkpt lat="48.819867968559265" lon="-3.30889499746263">
        <ele>56.859999999999999</ele>
        <time>2018-07-05T14:36:12Z</time>
      </trkpt>
      <trkpt lat="48.819762021303177" lon="-3.308853004127741">
        <ele>57.340000000000003</ele>
        <time>2018-07-05T14:36:13Z</time>
      </trkpt>
      <trkpt lat="48.819659007713199" lon="-3.308795001357794">
        <ele>58.299999999999997</ele>
        <time>2018-07-05T14:36:14Z</time>
      </trkpt>
      <trkpt lat="48.818904971703887" lon="-3.308397028595209">
        <ele>63.579999999999998</ele>
        <time>2018-07-05T14:36:22Z</time>
      </trkpt>
      <trkpt lat="48.818651000037789" lon="-3.308280017226934">
        <ele>66.469999999999999</ele>
        <time>2018-07-05T14:36:26Z</time>
      </trkpt>
      <trkpt lat="48.818573970347643" lon="-3.308282028883696">
        <ele>66.950000000000003</ele>
        <time>2018-07-05T14:36:27Z</time>
      </trkpt>
      <trkpt lat="48.818486966192722" lon="-3.308284040540457">
        <ele>67.909999999999997</ele>
        <time>2018-07-05T14:36:28Z</time>
      </trkpt>
      <trkpt lat="48.817573003470898" lon="-3.308285968378186">
        <ele>73.200000000000003</ele>
        <time>2018-07-05T14:36:36Z</time>
      </trkpt>
      <trkpt lat="48.817436965182424" lon="-3.30827297642827">
        <ele>73.200000000000003</ele>
        <time>2018-07-05T14:36:37Z</time>
      </trkpt>
      <trkpt lat="48.816304989159107" lon="-3.307553976774216">
        <ele>73.200000000000003</ele>
        <time>2018-07-05T14:36:45Z</time>
      </trkpt>
      <trkpt lat="48.81560099311173" lon="-3.307257005944848">
        <ele>72.239999999999995</ele>
        <time>2018-07-05T14:36:52Z</time>
      </trkpt>
      <trkpt lat="48.815345009788871" lon="-3.307165978476405">
        <ele>71.760000000000005</ele>
        <time>2018-07-05T14:36:58Z</time>
      </trkpt>
      <trkpt lat="48.814676972106099" lon="-3.306931033730507">
        <ele>71.269999999999996</ele>
        <time>2018-07-05T14:37:05Z</time>
      </trkpt>
      <trkpt lat="48.813399989157915" lon="-3.306298032402992">
        <ele>70.790000000000006</ele>
        <time>2018-07-05T14:37:15Z</time>
      </trkpt>
      <trkpt lat="48.813294041901827" lon="-3.306195018813014">
        <ele>70.790000000000006</ele>
        <time>2018-07-05T14:37:16Z</time>
      </trkpt>
      <trkpt lat="48.813197985291481" lon="-3.306069038808346">
        <ele>70.790000000000006</ele>
        <time>2018-07-05T14:37:17Z</time>
      </trkpt>
      <trkpt lat="48.812139015644789" lon="-3.305190028622747">
        <ele>70.790000000000006</ele>
        <time>2018-07-05T14:37:26Z</time>
      </trkpt>
      <trkpt lat="48.812019992619753" lon="-3.305117022246122">
        <ele>70.790000000000006</ele>
        <time>2018-07-05T14:37:27Z</time>
      </trkpt>
      <trkpt lat="48.811896024271846" lon="-3.30509003251791">
        <ele>70.310000000000002</ele>
        <time>2018-07-05T14:37:28Z</time>
      </trkpt>
      <trkpt lat="48.811769038438797" lon="-3.305073017254472">
        <ele>70.790000000000006</ele>
        <time>2018-07-05T14:37:29Z</time>
      </trkpt>
      <trkpt lat="48.811027994379401" lon="-3.304973021149635">
        <ele>72.239999999999995</ele>
        <time>2018-07-05T14:37:35Z</time>
      </trkpt>
      <trkpt lat="48.810914000496268" lon="-3.304958017542958">
        <ele>72.719999999999999</ele>
        <time>2018-07-05T14:37:36Z</time>
      </trkpt>
      <trkpt lat="48.810804029926658" lon="-3.30487696453929">
        <ele>72.719999999999999</ele>
        <time>2018-07-05T14:37:37Z</time>
      </trkpt>
      <trkpt lat="48.810700010508299" lon="-3.304776968434453">
        <ele>73.200000000000003</ele>
        <time>2018-07-05T14:37:38Z</time>
      </trkpt>
      <trkpt lat="48.810596996918321" lon="-3.304676972329617">
        <ele>73.200000000000003</ele>
        <time>2018-07-05T14:37:39Z</time>
      </trkpt>
      <trkpt lat="48.810413014143705" lon="-3.304500030353665">
        <ele>73.680000000000007</ele>
        <time>2018-07-05T14:37:41Z</time>
      </trkpt>
      <trkpt lat="48.81033699028194" lon="-3.304426018148661">
        <ele>73.680000000000007</ele>
        <time>2018-07-05T14:37:42Z</time>
      </trkpt>
      <trkpt lat="48.810260966420174" lon="-3.30427497625351">
        <ele>73.680000000000007</ele>
        <time>2018-07-05T14:37:43Z</time>
      </trkpt>
      <trkpt lat="48.810260966420174" lon="-3.304142039269209">
        <ele>73.680000000000007</ele>
        <time>2018-07-05T14:37:44Z</time>
      </trkpt>
      <trkpt lat="48.810260966420174" lon="-3.304011030122638">
        <ele>74.159999999999997</ele>
        <time>2018-07-05T14:37:45Z</time>
      </trkpt>
      <trkpt lat="48.810260966420174" lon="-3.303886977955699">
        <ele>74.159999999999997</ele>
        <time>2018-07-05T14:37:46Z</time>
      </trkpt>
      <trkpt lat="48.810260966420174" lon="-3.303776001557708">
        <ele>74.159999999999997</ele>
        <time>2018-07-05T14:37:47Z</time>
      </trkpt>
      <trkpt lat="48.810204975306988" lon="-3.303688997402787">
        <ele>73.680000000000007</ele>
        <time>2018-07-05T14:37:48Z</time>
      </trkpt>
      <trkpt lat="48.810150995850563" lon="-3.303627977147698">
        <ele>73.680000000000007</ele>
        <time>2018-07-05T14:37:49Z</time>
      </trkpt>
      <trkpt lat="48.810088969767094" lon="-3.303558994084597">
        <ele>74.159999999999997</ele>
        <time>2018-07-05T14:37:50Z</time>
      </trkpt>
      <trkpt lat="48.81001403555274" lon="-3.303526975214481">
        <ele>74.159999999999997</ele>
        <time>2018-07-05T14:37:51Z</time>
      </trkpt>
      <trkpt lat="48.80992703139782" lon="-3.303489005193114">
        <ele>74.159999999999997</ele>
        <time>2018-07-05T14:37:52Z</time>
      </trkpt>
      <trkpt lat="48.809834998100996" lon="-3.303450029343367">
        <ele>74.159999999999997</ele>
        <time>2018-07-05T14:37:53Z</time>
      </trkpt>
      <trkpt lat="48.809741036966443" lon="-3.303428990766406">
        <ele>74.640000000000001</ele>
        <time>2018-07-05T14:37:54Z</time>
      </trkpt>
      <trkpt lat="48.808732023462653" lon="-3.30339596606791">
        <ele>75.599999999999994</ele>
        <time>2018-07-05T14:38:04Z</time>
      </trkpt>
      <trkpt lat="48.807833986356854" lon="-3.303321031853557">
        <ele>77.040000000000006</ele>
        <time>2018-07-05T14:38:13Z</time>
      </trkpt>
      <trkpt lat="48.807612033560872" lon="-3.303270991891623">
        <ele>77.040000000000006</ele>
        <time>2018-07-05T14:38:19Z</time>
      </trkpt>
      <trkpt lat="48.807575991377234" lon="-3.30326302908361">
        <ele>76.560000000000002</ele>
        <time>2018-07-05T14:38:21Z</time>
      </trkpt>
      <trkpt lat="48.807546989992261" lon="-3.303289012983441">
        <ele>76.560000000000002</ele>
        <time>2018-07-05T14:38:22Z</time>
      </trkpt>
      <trkpt lat="48.807525029405951" lon="-3.303354978561401">
        <ele>76.560000000000002</ele>
        <time>2018-07-05T14:38:23Z</time>
      </trkpt>
      <trkpt lat="48.807494016364217" lon="-3.303449023514986">
        <ele>76.079999999999998</ele>
        <time>2018-07-05T14:38:24Z</time>
      </trkpt>
      <trkpt lat="48.807456968352199" lon="-3.303561005741358">
        <ele>76.079999999999998</ele>
        <time>2018-07-05T14:38:25Z</time>
      </trkpt>
      <trkpt lat="48.807038962841034" lon="-3.305108975619078">
        <ele>75.120000000000005</ele>
        <time>2018-07-05T14:38:36Z</time>
      </trkpt>
      <trkpt lat="48.806999986991286" lon="-3.305251970887184">
        <ele>75.599999999999994</ele>
        <time>2018-07-05T14:38:37Z</time>
      </trkpt>
      <trkpt lat="48.806247962638736" lon="-3.306591985747218">
        <ele>79.450000000000003</ele>
        <time>2018-07-05T14:38:47Z</time>
      </trkpt>
      <trkpt lat="48.805144988000393" lon="-3.307768972590566">
        <ele>81.849999999999994</ele>
        <time>2018-07-05T14:38:56Z</time>
      </trkpt>
      <trkpt lat="48.803299041464925" lon="-3.308736998587847">
        <ele>83.290000000000006</ele>
        <time>2018-07-05T14:39:07Z</time>
      </trkpt>
      <trkpt lat="48.801564993336797" lon="-3.309841984882951">
        <ele>83.290000000000006</ele>
        <time>2018-07-05T14:39:18Z</time>
      </trkpt>
      <trkpt lat="48.800365040078759" lon="-3.310786038637161">
        <ele>83.290000000000006</ele>
        <time>2018-07-05T14:39:26Z</time>
      </trkpt>
      <trkpt lat="48.798626968637109" lon="-3.311959002166987">
        <ele>87.140000000000001</ele>
        <time>2018-07-05T14:39:37Z</time>
      </trkpt>
      <trkpt lat="48.797678975388408" lon="-3.312769029289484">
        <ele>83.769999999999996</ele>
        <time>2018-07-05T14:39:45Z</time>
      </trkpt>
      <trkpt lat="48.797238003462553" lon="-3.313063988462091">
        <ele>82.329999999999998</ele>
        <time>2018-07-05T14:39:52Z</time>
      </trkpt>
      <trkpt lat="48.797238003462553" lon="-3.313063988462091">
        <ele>82.329999999999998</ele>
        <time>2018-07-05T14:40:04Z</time>
      </trkpt>
      <trkpt lat="48.797214031219482" lon="-3.313078992068768">
        <ele>82.329999999999998</ele>
        <time>2018-07-05T14:40:07Z</time>
      </trkpt>
      <trkpt lat="48.797159967944026" lon="-3.313035992905498">
        <ele>81.849999999999994</ele>
        <time>2018-07-05T14:40:08Z</time>
      </trkpt>
      <trkpt lat="48.797143958508968" lon="-3.312943037599325">
        <ele>81.849999999999994</ele>
        <time>2018-07-05T14:40:09Z</time>
      </trkpt>
      <trkpt lat="48.79712400957942" lon="-3.312823008745909">
        <ele>81.849999999999994</ele>
        <time>2018-07-05T14:40:10Z</time>
      </trkpt>
      <trkpt lat="48.797100959345698" lon="-3.312681019306183">
        <ele>81.849999999999994</ele>
        <time>2018-07-05T14:40:11Z</time>
      </trkpt>
      <trkpt lat="48.797074975445867" lon="-3.31252695992589">
        <ele>81.849999999999994</ele>
        <time>2018-07-05T14:40:12Z</time>
      </trkpt>
      <trkpt lat="48.796835001558065" lon="-3.311087032780051">
        <ele>82.810000000000002</ele>
        <time>2018-07-05T14:40:19Z</time>
      </trkpt>
      <trkpt lat="48.796572983264923" lon="-3.309072023257613">
        <ele>82.329999999999998</ele>
        <time>2018-07-05T14:40:26Z</time>
      </trkpt>
      <trkpt lat="48.796418001875281" lon="-3.308211034163833">
        <ele>81.849999999999994</ele>
        <time>2018-07-05T14:40:29Z</time>
      </trkpt>
      <trkpt lat="48.796390006318688" lon="-3.307918002828956">
        <ele>82.329999999999998</ele>
        <time>2018-07-05T14:40:30Z</time>
      </trkpt>
      <trkpt lat="48.796354969963431" lon="-3.306753002107143">
        <ele>81.370000000000005</ele>
        <time>2018-07-05T14:40:34Z</time>
      </trkpt>
      <trkpt lat="48.79639201797545" lon="-3.306472040712833">
        <ele>81.370000000000005</ele>
        <time>2018-07-05T14:40:35Z</time>
      </trkpt>
      <trkpt lat="48.79645798355341" lon="-3.305890001356602">
        <ele>81.370000000000005</ele>
        <time>2018-07-05T14:40:37Z</time>
      </trkpt>
      <trkpt lat="48.796480027958751" lon="-3.305595964193344">
        <ele>80.890000000000001</ele>
        <time>2018-07-05T14:40:38Z</time>
      </trkpt>
      <trkpt lat="48.796429987996817" lon="-3.304203981533647">
        <ele>79.930000000000007</ele>
        <time>2018-07-05T14:40:43Z</time>
      </trkpt>
      <trkpt lat="48.796396041288972" lon="-3.303960990160704">
        <ele>79.930000000000007</ele>
        <time>2018-07-05T14:40:44Z</time>
      </trkpt>
      <trkpt lat="48.796146009117365" lon="-3.301606010645628">
        <ele>80.890000000000001</ele>
        <time>2018-07-05T14:40:54Z</time>
      </trkpt>
      <trkpt lat="48.795933024957776" lon="-3.298548962920904">
        <ele>79.930000000000007</ele>
        <time>2018-07-05T14:41:08Z</time>
      </trkpt>
      <trkpt lat="48.795907963067293" lon="-3.297878997400403">
        <ele>80.409999999999997</ele>
        <time>2018-07-05T14:41:11Z</time>
      </trkpt>
      <trkpt lat="48.795576961711049" lon="-3.29565703868866">
        <ele>78.480000000000004</ele>
        <time>2018-07-05T14:41:20Z</time>
      </trkpt>
      <trkpt lat="48.795096008107066" lon="-3.293471960350871">
        <ele>73.680000000000007</ele>
        <time>2018-07-05T14:41:29Z</time>
      </trkpt>
      <trkpt lat="48.795047979801893" lon="-3.293247995898128">
        <ele>73.680000000000007</ele>
        <time>2018-07-05T14:41:30Z</time>
      </trkpt>
      <trkpt lat="48.79506298340857" lon="-3.293013973161578">
        <ele>72.719999999999999</ele>
        <time>2018-07-05T14:41:31Z</time>
      </trkpt>
      <trkpt lat="48.795090978965163" lon="-3.29277902841568">
        <ele>72.719999999999999</ele>
        <time>2018-07-05T14:41:32Z</time>
      </trkpt>
      <trkpt lat="48.795130960643291" lon="-3.292536037042737">
        <ele>72.239999999999995</ele>
        <time>2018-07-05T14:41:33Z</time>
      </trkpt>
      <trkpt lat="48.795266998931766" lon="-3.291083034127951">
        <ele>70.790000000000006</ele>
        <time>2018-07-05T14:41:39Z</time>
      </trkpt>
      <trkpt lat="48.795235985890031" lon="-3.290859991684556">
        <ele>70.790000000000006</ele>
        <time>2018-07-05T14:41:40Z</time>
      </trkpt>
      <trkpt lat="48.795204972848296" lon="-3.290629992261529">
        <ele>70.790000000000006</ele>
        <time>2018-07-05T14:41:41Z</time>
      </trkpt>
      <trkpt lat="48.795087039470673" lon="-3.289689961820841">
        <ele>71.760000000000005</ele>
        <time>2018-07-05T14:41:45Z</time>
      </trkpt>
      <trkpt lat="48.795079998672009" lon="-3.289464991539717">
        <ele>72.239999999999995</ele>
        <time>2018-07-05T14:41:46Z</time>
      </trkpt>
      <trkpt lat="48.795053008943796" lon="-3.288616994395852">
        <ele>74.159999999999997</ele>
        <time>2018-07-05T14:41:51Z</time>
      </trkpt>
      <trkpt lat="48.795049991458654" lon="-3.288524961099029">
        <ele>74.159999999999997</ele>
        <time>2018-07-05T14:41:52Z</time>
      </trkpt>
      <trkpt lat="48.794990982860327" lon="-3.288425970822573">
        <ele>74.640000000000001</ele>
        <time>2018-07-05T14:41:53Z</time>
      </trkpt>
      <trkpt lat="48.794934991747141" lon="-3.288420019671321">
        <ele>74.640000000000001</ele>
        <time>2018-07-05T14:41:54Z</time>
      </trkpt>
      <trkpt lat="48.794831978157163" lon="-3.288409039378166">
        <ele>74.640000000000001</ele>
        <time>2018-07-05T14:41:55Z</time>
      </trkpt>
      <trkpt lat="48.794780010357499" lon="-3.288318011909723">
        <ele>74.640000000000001</ele>
        <time>2018-07-05T14:41:56Z</time>
      </trkpt>
      <trkpt lat="48.794746985659003" lon="-3.288260009139776">
        <ele>75.120000000000005</ele>
        <time>2018-07-05T14:41:57Z</time>
      </trkpt>
      <trkpt lat="48.794660987332463" lon="-3.288077032193542">
        <ele>75.120000000000005</ele>
        <time>2018-07-05T14:41:58Z</time>
      </trkpt>
      <trkpt lat="48.794574989005923" lon="-3.288044007495046">
        <ele>75.120000000000005</ele>
        <time>2018-07-05T14:41:59Z</time>
      </trkpt>
      <trkpt lat="48.79435496404767" lon="-3.287842003628612">
        <ele>75.599999999999994</ele>
        <time>2018-07-05T14:42:05Z</time>
      </trkpt>
      <trkpt lat="48.794337026774883" lon="-3.287825994193554">
        <ele>75.599999999999994</ele>
        <time>2018-07-05T14:42:15Z</time>
      </trkpt>
    </trkseg>
  </trk>

  <trk>
    <name>Track vom: 2018-07-05 16:43</name>
    <extensions>
      <gpxx:TrackExtension>
        <gpxx:DisplayColor>DarkGray</gpxx:DisplayColor>
      </gpxx:TrackExtension>
    </extensions>
    <trkseg>
      <trkpt lat="48.794337026774883" lon="-3.287825994193554">
        <ele>75.599999999999994</ele>
        <time>2018-07-05T14:43:08Z</time>
      </trkpt>
      <trkpt lat="48.794259997084737" lon="-3.287767991423607">
        <ele>76.079999999999998</ele>
        <time>2018-07-05T14:43:23Z</time>
      </trkpt>
      <trkpt lat="48.794197971001267" lon="-3.287734966725111">
        <ele>75.599999999999994</ele>
        <time>2018-07-05T14:43:24Z</time>
      </trkpt>
      <trkpt lat="48.794123036786914" lon="-3.287694985046983">
        <ele>75.599999999999994</ele>
        <time>2018-07-05T14:43:25Z</time>
      </trkpt>
      <trkpt lat="48.793355002999306" lon="-3.287231968715787">
        <ele>73.680000000000007</ele>
        <time>2018-07-05T14:43:32Z</time>
      </trkpt>
      <trkpt lat="48.792550005018711" lon="-3.28670097514987">
        <ele>71.269999999999996</ele>
        <time>2018-07-05T14:43:39Z</time>
      </trkpt>
      <trkpt lat="48.792453026399016" lon="-3.286621011793613">
        <ele>71.269999999999996</ele>
        <time>2018-07-05T14:43:40Z</time>
      </trkpt>
      <trkpt lat="48.792368033900857" lon="-3.286493020132184">
        <ele>71.269999999999996</ele>
        <time>2018-07-05T14:43:41Z</time>
      </trkpt>
      <trkpt lat="48.791564963757992" lon="-3.285278985276818">
        <ele>68.870000000000005</ele>
        <time>2018-07-05T14:43:49Z</time>
      </trkpt>
      <trkpt lat="48.791443007066846" lon="-3.285161973908544">
        <ele>68.870000000000005</ele>
        <time>2018-07-05T14:43:50Z</time>
      </trkpt>
      <trkpt lat="48.791315015405416" lon="-3.285049991682172">
        <ele>68.870000000000005</ele>
        <time>2018-07-05T14:43:51Z</time>
      </trkpt>
      <trkpt lat="48.791180988773704" lon="-3.284943038597703">
        <ele>68.870000000000005</ele>
        <time>2018-07-05T14:43:52Z</time>
      </trkpt>
      <trkpt lat="48.791033970192075" lon="-3.28487497754395">
        <ele>68.870000000000005</ele>
        <time>2018-07-05T14:43:53Z</time>
      </trkpt>
      <trkpt lat="48.790887035429478" lon="-3.284818986430764">
        <ele>68.390000000000001</ele>
        <time>2018-07-05T14:43:54Z</time>
      </trkpt>
      <trkpt lat="48.790733981877565" lon="-3.284789985045791">
        <ele>68.390000000000001</ele>
        <time>2018-07-05T14:43:55Z</time>
      </trkpt>
      <trkpt lat="48.790573971346021" lon="-3.284759977832437">
        <ele>67.909999999999997</ele>
        <time>2018-07-05T14:43:56Z</time>
      </trkpt>
      <trkpt lat="48.789000017568469" lon="-3.284442974254489">
        <ele>66.950000000000003</ele>
        <time>2018-07-05T14:44:06Z</time>
      </trkpt>
      <trkpt lat="48.787824036553502" lon="-3.28401398845017">
        <ele>67.430000000000007</ele>
        <time>2018-07-05T14:44:13Z</time>
      </trkpt>
      <trkpt lat="48.787665031850338" lon="-3.283979035913944">
        <ele>67.909999999999997</ele>
        <time>2018-07-05T14:44:14Z</time>
      </trkpt>
      <trkpt lat="48.787195980548859" lon="-3.283879961818457">
        <ele>68.870000000000005</ele>
        <time>2018-07-05T14:44:17Z</time>
      </trkpt>
      <trkpt lat="48.787038987502456" lon="-3.283847020938993">
        <ele>68.870000000000005</ele>
        <time>2018-07-05T14:44:18Z</time>
      </trkpt>
      <trkpt lat="48.786073978990316" lon="-3.283546026796103">
        <ele>68.390000000000001</ele>
        <time>2018-07-05T14:44:24Z</time>
      </trkpt>
      <trkpt lat="48.785904999822378" lon="-3.2835409976542">
        <ele>68.390000000000001</ele>
        <time>2018-07-05T14:44:25Z</time>
      </trkpt>
      <trkpt lat="48.784800013527274" lon="-3.283595982939005">
        <ele>64.549999999999997</ele>
        <time>2018-07-05T14:44:32Z</time>
      </trkpt>
      <trkpt lat="48.78444897942245" lon="-3.283588020130992">
        <ele>62.619999999999997</ele>
        <time>2018-07-05T14:44:38Z</time>
      </trkpt>
      <trkpt lat="48.784413021057844" lon="-3.283586008474231">
        <ele>61.659999999999997</ele>
        <time>2018-07-05T14:44:47Z</time>
      </trkpt>
      <trkpt lat="48.784413021057844" lon="-3.283586008474231">
        <ele>61.18</ele>
        <time>2018-07-05T14:45:43Z</time>
      </trkpt>
      <trkpt lat="48.784392988309264" lon="-3.28358399681747">
        <ele>61.18</ele>
        <time>2018-07-05T14:46:14Z</time>
      </trkpt>
      <trkpt lat="48.784361975267529" lon="-3.283581985160708">
        <ele>61.18</ele>
        <time>2018-07-05T14:46:15Z</time>
      </trkpt>
      <trkpt lat="48.784339008852839" lon="-3.283571004867554">
        <ele>61.659999999999997</ele>
        <time>2018-07-05T14:46:16Z</time>
      </trkpt>
      <trkpt lat="48.784301960840821" lon="-3.283552983775735">
        <ele>61.659999999999997</ele>
        <time>2018-07-05T14:46:17Z</time>
      </trkpt>
      <trkpt lat="48.784261979162693" lon="-3.283533034846187">
        <ele>61.659999999999997</ele>
        <time>2018-07-05T14:46:18Z</time>
      </trkpt>
      <trkpt lat="48.784207999706268" lon="-3.283506967127323">
        <ele>61.18</ele>
        <time>2018-07-05T14:46:19Z</time>
      </trkpt>
      <trkpt lat="48.783515989780426" lon="-3.283165991306305">
        <ele>61.18</ele>
        <time>2018-07-05T14:46:26Z</time>
      </trkpt>
      <trkpt lat="48.783097984269261" lon="-3.282960969954729">
        <ele>61.18</ele>
        <time>2018-07-05T14:46:29Z</time>
      </trkpt>
      <trkpt lat="48.782953983172774" lon="-3.282938003540039">
        <ele>61.659999999999997</ele>
        <time>2018-07-05T14:46:30Z</time>
      </trkpt>
      <trkpt lat="48.782800007611513" lon="-3.282938003540039">
        <ele>61.659999999999997</ele>
        <time>2018-07-05T14:46:31Z</time>
      </trkpt>
      <trkpt lat="48.782645026221871" lon="-3.282938003540039">
        <ele>61.659999999999997</ele>
        <time>2018-07-05T14:46:32Z</time>
      </trkpt>
      <trkpt lat="48.782502030953765" lon="-3.282971028238535">
        <ele>62.140000000000001</ele>
        <time>2018-07-05T14:46:33Z</time>
      </trkpt>
      <trkpt lat="48.782358029857278" lon="-3.28300497494638">
        <ele>62.140000000000001</ele>
        <time>2018-07-05T14:46:34Z</time>
      </trkpt>
      <trkpt lat="48.782215034589171" lon="-3.283059038221836">
        <ele>61.659999999999997</ele>
        <time>2018-07-05T14:46:35Z</time>
      </trkpt>
      <trkpt lat="48.780856998637319" lon="-3.28339297324419">
        <ele>55.890000000000001</ele>
        <time>2018-07-05T14:46:44Z</time>
      </trkpt>
      <trkpt lat="48.780074967071414" lon="-3.283803015947342">
        <ele>53.490000000000002</ele>
        <time>2018-07-05T14:46:49Z</time>
      </trkpt>
      <trkpt lat="48.779921997338533" lon="-3.283835034817457">
        <ele>53.969999999999999</ele>
        <time>2018-07-05T14:46:50Z</time>
      </trkpt>
      <trkpt lat="48.779770033434033" lon="-3.283825982362032">
        <ele>53.969999999999999</ele>
        <time>2018-07-05T14:46:51Z</time>
      </trkpt>
      <trkpt lat="48.779610022902489" lon="-3.283817013725638">
        <ele>53.969999999999999</ele>
        <time>2018-07-05T14:46:52Z</time>
      </trkpt>
      <trkpt lat="48.77944297157228" lon="-3.283807961270213">
        <ele>53.490000000000002</ele>
        <time>2018-07-05T14:46:53Z</time>
      </trkpt>
      <trkpt lat="48.778189038857818" lon="-3.283357014879584">
        <ele>49.159999999999997</ele>
        <time>2018-07-05T14:47:00Z</time>
      </trkpt>
      <trkpt lat="48.777408013120294" lon="-3.282824009656906">
        <ele>44.840000000000003</ele>
        <time>2018-07-05T14:47:06Z</time>
      </trkpt>
      <trkpt lat="48.776857992634177" lon="-3.282149014994502">
        <ele>40.990000000000002</ele>
        <time>2018-07-05T14:47:15Z</time>
      </trkpt>
      <trkpt lat="48.776809964329004" lon="-3.282061005011201">
        <ele>40.509999999999998</ele>
        <time>2018-07-05T14:47:16Z</time>
      </trkpt>
      <trkpt lat="48.776707034558058" lon="-3.281876016408205">
        <ele>39.549999999999997</ele>
        <time>2018-07-05T14:47:18Z</time>
      </trkpt>
      <trkpt lat="48.776659006252885" lon="-3.281789012253285">
        <ele>39.07</ele>
        <time>2018-07-05T14:47:19Z</time>
      </trkpt>
      <trkpt lat="48.776480974629521" lon="-3.281474020332098">
        <ele>36.189999999999998</ele>
        <time>2018-07-05T14:47:23Z</time>
      </trkpt>
      <trkpt lat="48.776421966031194" lon="-3.281422974541783">
        <ele>35.710000000000001</ele>
        <time>2018-07-05T14:47:24Z</time>
      </trkpt>
      <trkpt lat="48.776361029595137" lon="-3.281368995085359">
        <ele>34.740000000000002</ele>
        <time>2018-07-05T14:47:25Z</time>
      </trkpt>
      <trkpt lat="48.776302020996809" lon="-3.281330019235611">
        <ele>33.780000000000001</ele>
        <time>2018-07-05T14:47:26Z</time>
      </trkpt>
      <trkpt lat="48.776229014620185" lon="-3.281337982043624">
        <ele>33.299999999999997</ele>
        <time>2018-07-05T14:47:27Z</time>
      </trkpt>
      <trkpt lat="48.77615500241518" lon="-3.281346028670669">
        <ele>32.340000000000003</ele>
        <time>2018-07-05T14:47:28Z</time>
      </trkpt>
      <trkpt lat="48.776092976331711" lon="-3.281383998692036">
        <ele>31.379999999999999</ele>
        <time>2018-07-05T14:47:29Z</time>
      </trkpt>
      <trkpt lat="48.776036985218525" lon="-3.281450970098376">
        <ele>30.899999999999999</ele>
        <time>2018-07-05T14:47:30Z</time>
      </trkpt>
      <trkpt lat="48.775979988276958" lon="-3.281518025323749">
        <ele>30.420000000000002</ele>
        <time>2018-07-05T14:47:31Z</time>
      </trkpt>
      <trkpt lat="48.775921985507011" lon="-3.28158700838685">
        <ele>29.460000000000001</ele>
        <time>2018-07-05T14:47:32Z</time>
      </trkpt>
      <trkpt lat="48.775867000222206" lon="-3.281653979793191">
        <ele>28.98</ele>
        <time>2018-07-05T14:47:33Z</time>
      </trkpt>
      <trkpt lat="48.775813020765781" lon="-3.281718017533422">
        <ele>28.02</ele>
        <time>2018-07-05T14:47:34Z</time>
      </trkpt>
      <trkpt lat="48.775713024660945" lon="-3.281837040558457">
        <ele>26.57</ele>
        <time>2018-07-05T14:47:36Z</time>
      </trkpt>
      <trkpt lat="48.775260988622904" lon="-3.282255968078971">
        <ele>20.809999999999999</ele>
        <time>2018-07-05T14:47:44Z</time>
      </trkpt>
      <trkpt lat="48.775170966982841" lon="-3.282267032191157">
        <ele>19.359999999999999</ele>
        <time>2018-07-05T14:47:45Z</time>
      </trkpt>
      <trkpt lat="48.775110030546784" lon="-3.28221196308732">
        <ele>18.399999999999999</ele>
        <time>2018-07-05T14:47:46Z</time>
      </trkpt>
      <trkpt lat="48.775049010291696" lon="-3.282156977802515">
        <ele>17.920000000000002</ele>
        <time>2018-07-05T14:47:47Z</time>
      </trkpt>
      <trkpt lat="48.774963011965156" lon="-3.2820800319314">
        <ele>17.440000000000001</ele>
        <time>2018-07-05T14:47:48Z</time>
      </trkpt>
      <trkpt lat="48.774915989488363" lon="-3.282022029161453">
        <ele>16.960000000000001</ele>
        <time>2018-07-05T14:47:49Z</time>
      </trkpt>
      <trkpt lat="48.774854969233274" lon="-3.281946005299687">
        <ele>16</ele>
        <time>2018-07-05T14:47:50Z</time>
      </trkpt>
      <trkpt lat="48.774795038625598" lon="-3.281871993094683">
        <ele>15.52</ele>
        <time>2018-07-05T14:47:51Z</time>
      </trkpt>
      <trkpt lat="48.774578031152487" lon="-3.281563958153129">
        <ele>13.6</ele>
        <time>2018-07-05T14:47:55Z</time>
      </trkpt>
      <trkpt lat="48.774545006453991" lon="-3.281461028382182">
        <ele>13.6</ele>
        <time>2018-07-05T14:47:56Z</time>
      </trkpt>
      <trkpt lat="48.77447803504765" lon="-3.281247960403562">
        <ele>14.08</ele>
        <time>2018-07-05T14:47:58Z</time>
      </trkpt>
      <trkpt lat="48.774432018399239" lon="-3.281164979562163">
        <ele>14.08</ele>
        <time>2018-07-05T14:47:59Z</time>
      </trkpt>
      <trkpt lat="48.774378960952163" lon="-3.281090967357159">
        <ele>14.56</ele>
        <time>2018-07-05T14:48:00Z</time>
      </trkpt>
      <trkpt lat="48.77430897206068" lon="-3.281062971800566">
        <ele>14.56</ele>
        <time>2018-07-05T14:48:01Z</time>
      </trkpt>
      <trkpt lat="48.774232026189566" lon="-3.281051991507411">
        <ele>15.039999999999999</ele>
        <time>2018-07-05T14:48:02Z</time>
      </trkpt>
      <trkpt lat="48.774147033691406" lon="-3.281057020649314">
        <ele>15.52</ele>
        <time>2018-07-05T14:48:03Z</time>
      </trkpt>
      <trkpt lat="48.774055000394583" lon="-3.281062971800566">
        <ele>16</ele>
        <time>2018-07-05T14:48:04Z</time>
      </trkpt>
      <trkpt lat="48.773858025670052" lon="-3.281075041741133">
        <ele>16.960000000000001</ele>
        <time>2018-07-05T14:48:06Z</time>
      </trkpt>
      <trkpt lat="48.773424010723829" lon="-3.281059032306075">
        <ele>18.879999999999999</ele>
        <time>2018-07-05T14:48:10Z</time>
      </trkpt>
      <trkpt lat="48.772321958094835" lon="-3.280458971858025">
        <ele>25.129999999999999</ele>
        <time>2018-07-05T14:48:19Z</time>
      </trkpt>
      <trkpt lat="48.771659033372998" lon="-3.27999796718359">
        <ele>28.02</ele>
        <time>2018-07-05T14:48:24Z</time>
      </trkpt>
      <trkpt lat="48.771565994247794" lon="-3.279865030199289">
        <ele>28.5</ele>
        <time>2018-07-05T14:48:25Z</time>
      </trkpt>
      <trkpt lat="48.771385028958321" lon="-3.279603011906147">
        <ele>29.940000000000001</ele>
        <time>2018-07-05T14:48:27Z</time>
      </trkpt>
      <trkpt lat="48.771303975954652" lon="-3.279486000537872">
        <ele>30.420000000000002</ele>
        <time>2018-07-05T14:48:28Z</time>
      </trkpt>
      <trkpt lat="48.771209008991718" lon="-3.279417017474771">
        <ele>31.379999999999999</ele>
        <time>2018-07-05T14:48:29Z</time>
      </trkpt>
      <trkpt lat="48.771094009280205" lon="-3.279376029968262">
        <ele>32.340000000000003</ele>
        <time>2018-07-05T14:48:30Z</time>
      </trkpt>
      <trkpt lat="48.770969035103917" lon="-3.279363960027695">
        <ele>33.299999999999997</ele>
        <time>2018-07-05T14:48:31Z</time>
      </trkpt>
      <trkpt lat="48.770839031785727" lon="-3.279351973906159">
        <ele>34.259999999999998</ele>
        <time>2018-07-05T14:48:32Z</time>
      </trkpt>
      <trkpt lat="48.770706010982394" lon="-3.279339987784624">
        <ele>34.740000000000002</ele>
        <time>2018-07-05T14:48:33Z</time>
      </trkpt>
      <trkpt lat="48.770573996007442" lon="-3.279328001663089">
        <ele>35.710000000000001</ele>
        <time>2018-07-05T14:48:34Z</time>
      </trkpt>
      <trkpt lat="48.770451033487916" lon="-3.279317021369934">
        <ele>36.189999999999998</ele>
        <time>2018-07-05T14:48:35Z</time>
      </trkpt>
      <trkpt lat="48.770336033776402" lon="-3.279257006943226">
        <ele>37.149999999999999</ele>
        <time>2018-07-05T14:48:36Z</time>
      </trkpt>
      <trkpt lat="48.77022497355938" lon="-3.279149970039725">
        <ele>37.630000000000003</ele>
        <time>2018-07-05T14:48:37Z</time>
      </trkpt>
      <trkpt lat="48.770109973847866" lon="-3.279039999470115">
        <ele>38.109999999999999</ele>
        <time>2018-07-05T14:48:38Z</time>
      </trkpt>
      <trkpt lat="48.769671013578773" lon="-3.278669016435742">
        <ele>41.469999999999999</ele>
        <time>2018-07-05T14:48:42Z</time>
      </trkpt>
      <trkpt lat="48.769559031352401" lon="-3.278625011444092">
        <ele>42.439999999999998</ele>
        <time>2018-07-05T14:48:43Z</time>
      </trkpt>
      <trkpt lat="48.769441014155746" lon="-3.278625011444092">
        <ele>43.399999999999999</ele>
        <time>2018-07-05T14:48:44Z</time>
      </trkpt>
      <trkpt lat="48.768827961757779" lon="-3.278631968423724">
        <ele>45.799999999999997</ele>
        <time>2018-07-05T14:48:49Z</time>
      </trkpt>
      <trkpt lat="48.768718997016549" lon="-3.278672033920884">
        <ele>45.799999999999997</ele>
        <time>2018-07-05T14:48:50Z</time>
      </trkpt>
      <trkpt lat="48.768603997305036" lon="-3.278716960921884">
        <ele>45.32</ele>
        <time>2018-07-05T14:48:51Z</time>
      </trkpt>
      <trkpt lat="48.76850500702858" lon="-3.278802959248424">
        <ele>45.32</ele>
        <time>2018-07-05T14:48:52Z</time>
      </trkpt>
      <trkpt lat="48.768401993438601" lon="-3.278892980888486">
        <ele>44.840000000000003</ele>
        <time>2018-07-05T14:48:53Z</time>
      </trkpt>
      <trkpt lat="48.76829001121223" lon="-3.278989959508181">
        <ele>44.840000000000003</ele>
        <time>2018-07-05T14:48:54Z</time>
      </trkpt>
      <trkpt lat="48.768151039257646" lon="-3.279023990035057">
        <ele>44.840000000000003</ele>
        <time>2018-07-05T14:48:55Z</time>
      </trkpt>
      <trkpt lat="48.768002009019256" lon="-3.279060032218695">
        <ele>44.840000000000003</ele>
        <time>2018-07-05T14:48:56Z</time>
      </trkpt>
      <trkpt lat="48.767848033457994" lon="-3.279096996411681">
        <ele>44.840000000000003</ele>
        <time>2018-07-05T14:48:57Z</time>
      </trkpt>
      <trkpt lat="48.767696991562843" lon="-3.279133960604668">
        <ele>44.359999999999999</ele>
        <time>2018-07-05T14:48:58Z</time>
      </trkpt>
      <trkpt lat="48.767292983829975" lon="-3.279147958382964">
        <ele>44.840000000000003</ele>
        <time>2018-07-05T14:49:01Z</time>
      </trkpt>
      <trkpt lat="48.76717303879559" lon="-3.279127003625035">
        <ele>45.32</ele>
        <time>2018-07-05T14:49:02Z</time>
      </trkpt>
      <trkpt lat="48.767061978578568" lon="-3.279107976704836">
        <ele>45.32</ele>
        <time>2018-07-05T14:49:03Z</time>
      </trkpt>
      <trkpt lat="48.766952008008957" lon="-3.279070006683469">
        <ele>45.32</ele>
        <time>2018-07-05T14:49:04Z</time>
      </trkpt>
      <trkpt lat="48.766848994418979" lon="-3.279013009741902">
        <ele>45.799999999999997</ele>
        <time>2018-07-05T14:49:05Z</time>
      </trkpt>
      <trkpt lat="48.76665897667408" lon="-3.278907984495163">
        <ele>46.280000000000001</ele>
        <time>2018-07-05T14:49:07Z</time>
      </trkpt>
      <trkpt lat="48.766514975577593" lon="-3.278834978118539">
        <ele>47.240000000000002</ele>
        <time>2018-07-05T14:49:09Z</time>
      </trkpt>
      <trkpt lat="48.76631498336792" lon="-3.278923993930221">
        <ele>49.159999999999997</ele>
        <time>2018-07-05T14:49:14Z</time>
      </trkpt>
      <trkpt lat="48.766276007518172" lon="-3.279013009741902">
        <ele>49.649999999999999</ele>
        <time>2018-07-05T14:49:15Z</time>
      </trkpt>
      <trkpt lat="48.765817014500499" lon="-3.280068961903453">
        <ele>53.009999999999998</ele>
        <time>2018-07-05T14:49:22Z</time>
      </trkpt>
      <trkpt lat="48.76493901014328" lon="-3.281946005299687">
        <ele>53.969999999999999</ele>
        <time>2018-07-05T14:49:31Z</time>
      </trkpt>
      <trkpt lat="48.764029992744327" lon="-3.284599967300892">
        <ele>46.759999999999998</ele>
        <time>2018-07-05T14:49:42Z</time>
      </trkpt>
      <trkpt lat="48.762848982587457" lon="-3.288688994944096">
        <ele>40.030000000000001</ele>
        <time>2018-07-05T14:49:59Z</time>
      </trkpt>
      <trkpt lat="48.762157978489995" lon="-3.290077960118651">
        <ele>40.030000000000001</ele>
        <time>2018-07-05T14:50:06Z</time>
      </trkpt>
      <trkpt lat="48.76133001409471" lon="-3.291402971372008">
        <ele>40.030000000000001</ele>
        <time>2018-07-05T14:50:15Z</time>
      </trkpt>
      <trkpt lat="48.760736994445324" lon="-3.293044986203313">
        <ele>34.740000000000002</ele>
        <time>2018-07-05T14:50:25Z</time>
      </trkpt>
      <trkpt lat="48.760673040524125" lon="-3.293346986174583">
        <ele>33.299999999999997</ele>
        <time>2018-07-05T14:50:27Z</time>
      </trkpt>
      <trkpt lat="48.760656025260687" lon="-3.293476989492774">
        <ele>31.859999999999999</ele>
        <time>2018-07-05T14:50:28Z</time>
      </trkpt>
      <trkpt lat="48.76068402081728" lon="-3.293600035831332">
        <ele>31.379999999999999</ele>
        <time>2018-07-05T14:50:29Z</time>
      </trkpt>
      <trkpt lat="48.760676980018616" lon="-3.293756023049355">
        <ele>30.420000000000002</ele>
        <time>2018-07-05T14:50:30Z</time>
      </trkpt>
      <trkpt lat="48.760656025260687" lon="-3.293889965862036">
        <ele>29.940000000000001</ele>
        <time>2018-07-05T14:50:31Z</time>
      </trkpt>
      <trkpt lat="48.76059802249074" lon="-3.294001026079059">
        <ele>28.98</ele>
        <time>2018-07-05T14:50:32Z</time>
      </trkpt>
      <trkpt lat="48.760529039427638" lon="-3.294101022183895">
        <ele>28.5</ele>
        <time>2018-07-05T14:50:33Z</time>
      </trkpt>
      <trkpt lat="48.760457960888743" lon="-3.294203029945493">
        <ele>28.02</ele>
        <time>2018-07-05T14:50:34Z</time>
      </trkpt>
      <trkpt lat="48.760457960888743" lon="-3.294203029945493">
        <ele>27.530000000000001</ele>
        <time>2018-07-05T14:50:35Z</time>
      </trkpt>
      <trkpt lat="48.760204995051026" lon="-3.294351976364851">
        <ele>26.57</ele>
        <time>2018-07-05T14:50:36Z</time>
      </trkpt>
      <trkpt lat="48.76019200310111" lon="-3.294473011046648">
        <ele>25.609999999999999</ele>
        <time>2018-07-05T14:50:37Z</time>
      </trkpt>
      <trkpt lat="48.760178005322814" lon="-3.294615000486374">
        <ele>24.649999999999999</ele>
        <time>2018-07-05T14:50:38Z</time>
      </trkpt>
      <trkpt lat="48.760145986452699" lon="-3.294782973825932">
        <ele>24.649999999999999</ele>
        <time>2018-07-05T14:50:39Z</time>
      </trkpt>
      <trkpt lat="48.760109022259712" lon="-3.29497299157083">
        <ele>24.170000000000002</ele>
        <time>2018-07-05T14:50:40Z</time>
      </trkpt>
      <trkpt lat="48.760069962590933" lon="-3.295172983780503">
        <ele>24.649999999999999</ele>
        <time>2018-07-05T14:50:41Z</time>
      </trkpt>
      <trkpt lat="48.760002991184592" lon="-3.295378005132079">
        <ele>24.649999999999999</ele>
        <time>2018-07-05T14:50:42Z</time>
      </trkpt>
      <trkpt lat="48.759931996464729" lon="-3.295596018433571">
        <ele>25.129999999999999</ele>
        <time>2018-07-05T14:50:43Z</time>
      </trkpt>
      <trkpt lat="48.759265970438719" lon="-3.297622008249164">
        <ele>28.5</ele>
        <time>2018-07-05T14:50:51Z</time>
      </trkpt>
      <trkpt lat="48.757972978055477" lon="-3.301555970683694">
        <ele>31.859999999999999</ele>
        <time>2018-07-05T14:51:04Z</time>
      </trkpt>
      <trkpt lat="48.756763972342014" lon="-3.305624965578318">
        <ele>31.859999999999999</ele>
        <time>2018-07-05T14:51:17Z</time>
      </trkpt>
      <trkpt lat="48.755596959963441" lon="-3.309525987133384">
        <ele>28.98</ele>
        <time>2018-07-05T14:51:30Z</time>
      </trkpt>
      <trkpt lat="48.754829009994864" lon="-3.31213703379035">
        <ele>31.379999999999999</ele>
        <time>2018-07-05T14:51:39Z</time>
      </trkpt>
      <trkpt lat="48.754426008090377" lon="-3.314491007477045">
        <ele>38.590000000000003</ele>
        <time>2018-07-05T14:51:47Z</time>
      </trkpt>
      <trkpt lat="48.754398012533784" lon="-3.318563019856811">
        <ele>39.07</ele>
        <time>2018-07-05T14:52:00Z</time>
      </trkpt>
      <trkpt lat="48.754357025027275" lon="-3.323665000498295">
        <ele>40.509999999999998</ele>
        <time>2018-07-05T14:52:17Z</time>
      </trkpt>
      <trkpt lat="48.754088971763849" lon="-3.326948024332523">
        <ele>40.030000000000001</ele>
        <time>2018-07-05T14:52:28Z</time>
      </trkpt>
      <trkpt lat="48.753542974591255" lon="-3.331075021997094">
        <ele>37.149999999999999</ele>
        <time>2018-07-05T14:52:42Z</time>
      </trkpt>
      <trkpt lat="48.752917014062405" lon="-3.33454797975719">
        <ele>35.229999999999997</ele>
        <time>2018-07-05T14:52:54Z</time>
      </trkpt>
      <trkpt lat="48.751873970031738" lon="-3.340052962303162">
        <ele>40.990000000000002</ele>
        <time>2018-07-05T14:53:13Z</time>
      </trkpt>
      <trkpt lat="48.751453030854464" lon="-3.343043038621545">
        <ele>40.030000000000001</ele>
        <time>2018-07-05T14:53:24Z</time>
      </trkpt>
      <trkpt lat="48.751200987026095" lon="-3.345103980973363">
        <ele>40.030000000000001</ele>
        <time>2018-07-05T14:53:34Z</time>
      </trkpt>
      <trkpt lat="48.750853976234794" lon="-3.347064005210996">
        <ele>40.990000000000002</ele>
        <time>2018-07-05T14:53:42Z</time>
      </trkpt>
      <trkpt lat="48.750131037086248" lon="-3.350196992978454">
        <ele>44.359999999999999</ele>
        <time>2018-07-05T14:53:53Z</time>
      </trkpt>
      <trkpt lat="48.749216990545392" lon="-3.354171020910144">
        <ele>44.359999999999999</ele>
        <time>2018-07-05T14:54:07Z</time>
      </trkpt>
      <trkpt lat="48.748174030333757" lon="-3.358723986893892">
        <ele>45.799999999999997</ele>
        <time>2018-07-05T14:54:23Z</time>
      </trkpt>
      <trkpt lat="48.747093016281724" lon="-3.362561976537108">
        <ele>50.609999999999999</ele>
        <time>2018-07-05T14:54:37Z</time>
      </trkpt>
      <trkpt lat="48.746114009991288" lon="-3.365800995379686">
        <ele>63.579999999999998</ele>
        <time>2018-07-05T14:54:49Z</time>
      </trkpt>
      <trkpt lat="48.745823996141553" lon="-3.368492005392909">
        <ele>70.310000000000002</ele>
        <time>2018-07-05T14:54:58Z</time>
      </trkpt>
      <trkpt lat="48.745831036940217" lon="-3.371526002883911">
        <ele>74.159999999999997</ele>
        <time>2018-07-05T14:55:08Z</time>
      </trkpt>
      <trkpt lat="48.745532976463437" lon="-3.374821012839675">
        <ele>73.200000000000003</ele>
        <time>2018-07-05T14:55:19Z</time>
      </trkpt>
      <trkpt lat="48.744805008172989" lon="-3.380778031423688">
        <ele>66.950000000000003</ele>
        <time>2018-07-05T14:55:39Z</time>
      </trkpt>
      <trkpt lat="48.744369987398386" lon="-3.385241981595755">
        <ele>57.82</ele>
        <time>2018-07-05T14:55:54Z</time>
      </trkpt>
      <trkpt lat="48.74399296939373" lon="-3.389996029436588">
        <ele>65.030000000000001</ele>
        <time>2018-07-05T14:56:10Z</time>
      </trkpt>
      <trkpt lat="48.743832036852837" lon="-3.393630003556609">
        <ele>68.390000000000001</ele>
        <time>2018-07-05T14:56:22Z</time>
      </trkpt>
      <trkpt lat="48.743806974962354" lon="-3.398109041154385">
        <ele>63.100000000000001</ele>
        <time>2018-07-05T14:56:37Z</time>
      </trkpt>
      <trkpt lat="48.743537999689579" lon="-3.401762964203954">
        <ele>60.219999999999999</ele>
        <time>2018-07-05T14:56:51Z</time>
      </trkpt>
      <trkpt lat="48.743233988061547" lon="-3.405748978257179">
        <ele>65.030000000000001</ele>
        <time>2018-07-05T14:57:06Z</time>
      </trkpt>
      <trkpt lat="48.743013041093946" lon="-3.409710014238954">
        <ele>64.549999999999997</ele>
        <time>2018-07-05T14:57:19Z</time>
      </trkpt>
      <trkpt lat="48.742865016683936" lon="-3.412422984838486">
        <ele>61.18</ele>
        <time>2018-07-05T14:57:28Z</time>
      </trkpt>
      <trkpt lat="48.742427984252572" lon="-3.415348017588258">
        <ele>54.93</ele>
        <time>2018-07-05T14:57:38Z</time>
      </trkpt>
      <trkpt lat="48.741396004334092" lon="-3.419898971915245">
        <ele>49.159999999999997</ele>
        <time>2018-07-05T14:57:54Z</time>
      </trkpt>
      <trkpt lat="48.740869034081697" lon="-3.423008993268013">
        <ele>50.130000000000003</ele>
        <time>2018-07-05T14:58:05Z</time>
      </trkpt>
      <trkpt lat="48.740933993831277" lon="-3.425374031066895">
        <ele>49.159999999999997</ele>
        <time>2018-07-05T14:58:14Z</time>
      </trkpt>
      <trkpt lat="48.740781024098396" lon="-3.426663000136614">
        <ele>47.719999999999999</ele>
        <time>2018-07-05T14:58:19Z</time>
      </trkpt>
      <trkpt lat="48.740731989964843" lon="-3.426915965974331">
        <ele>47.240000000000002</ele>
        <time>2018-07-05T14:58:20Z</time>
      </trkpt>
      <trkpt lat="48.740677004680037" lon="-3.427159963175654">
        <ele>46.759999999999998</ele>
        <time>2018-07-05T14:58:21Z</time>
      </trkpt>
      <trkpt lat="48.740592012181878" lon="-3.427387028932571">
        <ele>46.280000000000001</ele>
        <time>2018-07-05T14:58:22Z</time>
      </trkpt>
      <trkpt lat="48.740507019683719" lon="-3.427614010870457">
        <ele>45.32</ele>
        <time>2018-07-05T14:58:23Z</time>
      </trkpt>
      <trkpt lat="48.739505968987942" lon="-3.429430034011602">
        <ele>42.439999999999998</ele>
        <time>2018-07-05T14:58:32Z</time>
      </trkpt>
      <trkpt lat="48.738187998533249" lon="-3.431888027116656">
        <ele>33.780000000000001</ele>
        <time>2018-07-05T14:58:44Z</time>
      </trkpt>
      <trkpt lat="48.737085023894906" lon="-3.433889960870147">
        <ele>36.670000000000002</ele>
        <time>2018-07-05T14:58:54Z</time>
      </trkpt>
      <trkpt lat="48.735834024846554" lon="-3.436023993417621">
        <ele>45.799999999999997</ele>
        <time>2018-07-05T14:59:06Z</time>
      </trkpt>
      <trkpt lat="48.735479973256588" lon="-3.436536965891719">
        <ele>48.200000000000003</ele>
        <time>2018-07-05T14:59:12Z</time>
      </trkpt>
      <trkpt lat="48.735502017661929" lon="-3.436875008046627">
        <ele>48.200000000000003</ele>
        <time>2018-07-05T14:59:13Z</time>
      </trkpt>
      <trkpt lat="48.735491959378123" lon="-3.43701196834445">
        <ele>48.200000000000003</ele>
        <time>2018-07-05T14:59:15Z</time>
      </trkpt>
      <trkpt lat="48.735453989356756" lon="-3.437185976654291">
        <ele>48.68</ele>
        <time>2018-07-05T14:59:16Z</time>
      </trkpt>
      <trkpt lat="48.735385006293654" lon="-3.437269041314721">
        <ele>48.68</ele>
        <time>2018-07-05T14:59:17Z</time>
      </trkpt>
      <trkpt lat="48.735293978825212" lon="-3.437323020771146">
        <ele>48.68</ele>
        <time>2018-07-05T14:59:18Z</time>
      </trkpt>
      <trkpt lat="48.73524502851069" lon="-3.437346993014216">
        <ele>48.68</ele>
        <time>2018-07-05T14:59:19Z</time>
      </trkpt>
      <trkpt lat="48.73500999994576" lon="-3.43748495914042">
        <ele>48.68</ele>
        <time>2018-07-05T14:59:21Z</time>
      </trkpt>
      <trkpt lat="48.734953003004193" lon="-3.437604987993836">
        <ele>48.68</ele>
        <time>2018-07-05T14:59:22Z</time>
      </trkpt>
      <trkpt lat="48.734897011891007" lon="-3.437720993533731">
        <ele>48.68</ele>
        <time>2018-07-05T14:59:23Z</time>
      </trkpt>
      <trkpt lat="48.73449400998652" lon="-3.438655994832516">
        <ele>48.200000000000003</ele>
        <time>2018-07-05T14:59:33Z</time>
      </trkpt>
      <trkpt lat="48.734424021095037" lon="-3.438922958448529">
        <ele>47.719999999999999</ele>
        <time>2018-07-05T14:59:35Z</time>
      </trkpt>
      <trkpt lat="48.734398037195206" lon="-3.4390539675951">
        <ele>46.759999999999998</ele>
        <time>2018-07-05T14:59:36Z</time>
      </trkpt>
      <trkpt lat="48.734221011400223" lon="-3.440172029659152">
        <ele>41.469999999999999</ele>
        <time>2018-07-05T14:59:46Z</time>
      </trkpt>
      <trkpt lat="48.734300974756479" lon="-3.440289963036776">
        <ele>40.990000000000002</ele>
        <time>2018-07-05T14:59:47Z</time>
      </trkpt>
      <trkpt lat="48.734300974756479" lon="-3.44038300216198">
        <ele>40.509999999999998</ele>
        <time>2018-07-05T14:59:48Z</time>
      </trkpt>
      <trkpt lat="48.734171977266669" lon="-3.440522979944944">
        <ele>40.030000000000001</ele>
        <time>2018-07-05T14:59:49Z</time>
      </trkpt>
      <trkpt lat="48.733921023085713" lon="-3.44175604172051">
        <ele>36.670000000000002</ele>
        <time>2018-07-05T14:59:59Z</time>
      </trkpt>
      <trkpt lat="48.733900990337133" lon="-3.44188503921032">
        <ele>36.670000000000002</ele>
        <time>2018-07-05T15:00:00Z</time>
      </trkpt>
      <trkpt lat="48.733896967023611" lon="-3.442021999508143">
        <ele>36.670000000000002</ele>
        <time>2018-07-05T15:00:01Z</time>
      </trkpt>
      <trkpt lat="48.734024036675692" lon="-3.443678012117744">
        <ele>35.229999999999997</ele>
        <time>2018-07-05T15:00:14Z</time>
      </trkpt>
      <trkpt lat="48.734053038060665" lon="-3.44390700571239">
        <ele>34.740000000000002</ele>
        <time>2018-07-05T15:00:16Z</time>
      </trkpt>
      <trkpt lat="48.734073992818594" lon="-3.444025022909045">
        <ele>34.740000000000002</ele>
        <time>2018-07-05T15:00:17Z</time>
      </trkpt>
      <trkpt lat="48.734105005860329" lon="-3.444113032892346">
        <ele>34.259999999999998</ele>
        <time>2018-07-05T15:00:18Z</time>
      </trkpt>
      <trkpt lat="48.73413098976016" lon="-3.44418503344059">
        <ele>34.259999999999998</ele>
        <time>2018-07-05T15:00:19Z</time>
      </trkpt>
      <trkpt lat="48.734300974756479" lon="-3.444214034825563">
        <ele>34.259999999999998</ele>
        <time>2018-07-05T15:00:20Z</time>
      </trkpt>
      <trkpt lat="48.734300974756479" lon="-3.444214034825563">
        <ele>34.259999999999998</ele>
        <time>2018-07-05T15:00:21Z</time>
      </trkpt>
      <trkpt lat="48.734338022768497" lon="-3.444220991805196">
        <ele>34.259999999999998</ele>
        <time>2018-07-05T15:00:22Z</time>
      </trkpt>
      <trkpt lat="48.734412034973502" lon="-3.444241024553776">
        <ele>34.259999999999998</ele>
        <time>2018-07-05T15:00:23Z</time>
      </trkpt>
      <trkpt lat="48.734462996944785" lon="-3.444315036758781">
        <ele>34.259999999999998</ele>
        <time>2018-07-05T15:00:24Z</time>
      </trkpt>
      <trkpt lat="48.73451697640121" lon="-3.444390976801515">
        <ele>34.259999999999998</ele>
        <time>2018-07-05T15:00:25Z</time>
      </trkpt>
      <trkpt lat="48.734546983614564" lon="-3.444535983726382">
        <ele>34.740000000000002</ele>
        <time>2018-07-05T15:00:26Z</time>
      </trkpt>
      <trkpt lat="48.734531980007887" lon="-3.444646038115025">
        <ele>35.229999999999997</ele>
        <time>2018-07-05T15:00:27Z</time>
      </trkpt>
      <trkpt lat="48.734509013593197" lon="-3.444778975099325">
        <ele>35.229999999999997</ele>
        <time>2018-07-05T15:00:28Z</time>
      </trkpt>
      <trkpt lat="48.734450004994869" lon="-3.44485298730433">
        <ele>35.710000000000001</ele>
        <time>2018-07-05T15:00:29Z</time>
      </trkpt>
      <trkpt lat="48.734428966417909" lon="-3.444878971204162">
        <ele>35.710000000000001</ele>
        <time>2018-07-05T15:00:30Z</time>
      </trkpt>
      <trkpt lat="48.734271973371506" lon="-3.445006962865591">
        <ele>35.710000000000001</ele>
        <time>2018-07-05T15:00:31Z</time>
      </trkpt>
      <trkpt lat="48.734238026663661" lon="-3.445135960355401">
        <ele>35.710000000000001</ele>
        <time>2018-07-05T15:00:32Z</time>
      </trkpt>
      <trkpt lat="48.734210031107068" lon="-3.445297982543707">
        <ele>36.189999999999998</ele>
        <time>2018-07-05T15:00:33Z</time>
      </trkpt>
      <trkpt lat="48.734198966994882" lon="-3.445443995296955">
        <ele>36.189999999999998</ele>
        <time>2018-07-05T15:00:34Z</time>
      </trkpt>
      <trkpt lat="48.734196033328772" lon="-3.445598976686597">
        <ele>36.670000000000002</ele>
        <time>2018-07-05T15:00:35Z</time>
      </trkpt>
      <trkpt lat="48.734199972823262" lon="-3.44575404189527">
        <ele>37.149999999999999</ele>
        <time>2018-07-05T15:00:36Z</time>
      </trkpt>
      <trkpt lat="48.734205001965165" lon="-3.445913968607783">
        <ele>37.149999999999999</ele>
        <time>2018-07-05T15:00:37Z</time>
      </trkpt>
      <trkpt lat="48.734234003350139" lon="-3.446883000433445">
        <ele>38.109999999999999</ele>
        <time>2018-07-05T15:00:43Z</time>
      </trkpt>
      <trkpt lat="48.734221011400223" lon="-3.4471720084548">
        <ele>38.109999999999999</ele>
        <time>2018-07-05T15:00:45Z</time>
      </trkpt>
      <trkpt lat="48.734199972823262" lon="-3.447316009551287">
        <ele>38.590000000000003</ele>
        <time>2018-07-05T15:00:46Z</time>
      </trkpt>
      <trkpt lat="48.734164014458656" lon="-3.44745296984911">
        <ele>38.590000000000003</ele>
        <time>2018-07-05T15:00:47Z</time>
      </trkpt>
      <trkpt lat="48.733955975621939" lon="-3.448150008916855">
        <ele>40.509999999999998</ele>
        <time>2018-07-05T15:00:52Z</time>
      </trkpt>
      <trkpt lat="48.733377959579229" lon="-3.449985980987549">
        <ele>46.280000000000001</ele>
        <time>2018-07-05T15:01:06Z</time>
      </trkpt>
      <trkpt lat="48.733291961252689" lon="-3.450093017891049">
        <ele>46.759999999999998</ele>
        <time>2018-07-05T15:01:07Z</time>
      </trkpt>
      <trkpt lat="48.733291961252689" lon="-3.450243975967169">
        <ele>46.759999999999998</ele>
        <time>2018-07-05T15:01:08Z</time>
      </trkpt>
      <trkpt lat="48.733288021758199" lon="-3.450359981507063">
        <ele>47.719999999999999</ele>
        <time>2018-07-05T15:01:09Z</time>
      </trkpt>
      <trkpt lat="48.733180984854698" lon="-3.451938964426518">
        <ele>49.159999999999997</ele>
        <time>2018-07-05T15:01:18Z</time>
      </trkpt>
      <trkpt lat="48.732983004301786" lon="-3.453486012294889">
        <ele>43.880000000000003</ele>
        <time>2018-07-05T15:01:28Z</time>
      </trkpt>
      <trkpt lat="48.73286297544837" lon="-3.454598961398006">
        <ele>38.590000000000003</ele>
        <time>2018-07-05T15:01:39Z</time>
      </trkpt>
      <trkpt lat="48.732729032635689" lon="-3.455155016854405">
        <ele>35.229999999999997</ele>
        <time>2018-07-05T15:01:45Z</time>
      </trkpt>
      <trkpt lat="48.732703970745206" lon="-3.455248977988958">
        <ele>34.740000000000002</ele>
        <time>2018-07-05T15:01:46Z</time>
      </trkpt>
      <trkpt lat="48.732673963531852" lon="-3.45533799380064">
        <ele>34.259999999999998</ele>
        <time>2018-07-05T15:01:47Z</time>
      </trkpt>
      <trkpt lat="48.732588971033692" lon="-3.455608980730176">
        <ele>33.299999999999997</ele>
        <time>2018-07-05T15:01:50Z</time>
      </trkpt>
      <trkpt lat="48.732480006292462" lon="-3.455977030098438">
        <ele>31.859999999999999</ele>
        <time>2018-07-05T15:01:54Z</time>
      </trkpt>
      <trkpt lat="48.732455028221011" lon="-3.456059005111456">
        <ele>31.859999999999999</ele>
        <time>2018-07-05T15:01:55Z</time>
      </trkpt>
      <trkpt lat="48.732455028221011" lon="-3.456160007044673">
        <ele>31.379999999999999</ele>
        <time>2018-07-05T15:01:56Z</time>
      </trkpt>
      <trkpt lat="48.732455028221011" lon="-3.456256985664368">
        <ele>30.899999999999999</ele>
        <time>2018-07-05T15:01:57Z</time>
      </trkpt>
      <trkpt lat="48.732455028221011" lon="-3.456380032002926">
        <ele>30.899999999999999</ele>
        <time>2018-07-05T15:01:58Z</time>
      </trkpt>
      <trkpt lat="48.732491992413998" lon="-3.456431999802589">
        <ele>30.899999999999999</ele>
        <time>2018-07-05T15:01:59Z</time>
      </trkpt>
      <trkpt lat="48.732535997405648" lon="-3.45649603754282">
        <ele>30.899999999999999</ele>
        <time>2018-07-05T15:02:00Z</time>
      </trkpt>
      <trkpt lat="48.732586037367582" lon="-3.456566026434302">
        <ele>31.379999999999999</ele>
        <time>2018-07-05T15:02:01Z</time>
      </trkpt>
      <trkpt lat="48.732636999338865" lon="-3.456634003669024">
        <ele>31.859999999999999</ele>
        <time>2018-07-05T15:02:02Z</time>
      </trkpt>
      <trkpt lat="48.73269097879529" lon="-3.456701980903745">
        <ele>31.859999999999999</ele>
        <time>2018-07-05T15:02:03Z</time>
      </trkpt>
      <trkpt lat="48.732744036242366" lon="-3.456767024472356">
        <ele>32.340000000000003</ele>
        <time>2018-07-05T15:02:04Z</time>
      </trkpt>
      <trkpt lat="48.732912009581923" lon="-3.456943966448307">
        <ele>32.82</ele>
        <time>2018-07-05T15:02:07Z</time>
      </trkpt>
      <trkpt lat="48.732962971553206" lon="-3.456996018067002">
        <ele>32.82</ele>
        <time>2018-07-05T15:02:08Z</time>
      </trkpt>
      <trkpt lat="48.732997002080083" lon="-3.457102971151471">
        <ele>32.82</ele>
        <time>2018-07-05T15:02:09Z</time>
      </trkpt>
      <trkpt lat="48.733003959059715" lon="-3.457201039418578">
        <ele>32.82</ele>
        <time>2018-07-05T15:02:10Z</time>
      </trkpt>
      <trkpt lat="48.733009994029999" lon="-3.457302963361144">
        <ele>32.340000000000003</ele>
        <time>2018-07-05T15:02:11Z</time>
      </trkpt>
      <trkpt lat="48.733018040657043" lon="-3.457411006093025">
        <ele>32.340000000000003</ele>
        <time>2018-07-05T15:02:12Z</time>
      </trkpt>
      <trkpt lat="48.733023991808295" lon="-3.457516031339765">
        <ele>31.859999999999999</ele>
        <time>2018-07-05T15:02:13Z</time>
      </trkpt>
      <trkpt lat="48.733031032606959" lon="-3.457616027444601">
        <ele>31.859999999999999</ele>
        <time>2018-07-05T15:02:14Z</time>
      </trkpt>
      <trkpt lat="48.73303497210145" lon="-3.457716023549438">
        <ele>31.379999999999999</ele>
        <time>2018-07-05T15:02:15Z</time>
      </trkpt>
      <trkpt lat="48.73303497210145" lon="-3.457823982462287">
        <ele>30.899999999999999</ele>
        <time>2018-07-05T15:02:16Z</time>
      </trkpt>
      <trkpt lat="48.73303497210145" lon="-3.457933031022549">
        <ele>30.899999999999999</ele>
        <time>2018-07-05T15:02:17Z</time>
      </trkpt>
      <trkpt lat="48.73303497210145" lon="-3.458041995763779">
        <ele>30.420000000000002</ele>
        <time>2018-07-05T15:02:18Z</time>
      </trkpt>
      <trkpt lat="48.73294897377491" lon="-3.459402965381742">
        <ele>24.649999999999999</ele>
        <time>2018-07-05T15:02:31Z</time>
      </trkpt>
      <trkpt lat="48.732901029288769" lon="-3.459790963679552">
        <ele>22.73</ele>
        <time>2018-07-05T15:02:35Z</time>
      </trkpt>
      <trkpt lat="48.732888959348202" lon="-3.459887020289898">
        <ele>22.25</ele>
        <time>2018-07-05T15:02:36Z</time>
      </trkpt>
      <trkpt lat="48.732845960184932" lon="-3.460061028599739">
        <ele>20.809999999999999</ele>
        <time>2018-07-05T15:02:38Z</time>
      </trkpt>
      <trkpt lat="48.732643034309149" lon="-3.4607969596982">
        <ele>16.48</ele>
        <time>2018-07-05T15:02:46Z</time>
      </trkpt>
      <trkpt lat="48.732605986297131" lon="-3.460908019915223">
        <ele>15.52</ele>
        <time>2018-07-05T15:02:47Z</time>
      </trkpt>
      <trkpt lat="48.732584025710821" lon="-3.460979014635086">
        <ele>15.039999999999999</ele>
        <time>2018-07-05T15:02:48Z</time>
      </trkpt>
      <trkpt lat="48.732558041810989" lon="-3.461069958284497">
        <ele>14.56</ele>
        <time>2018-07-05T15:02:49Z</time>
      </trkpt>
      <trkpt lat="48.732530968263745" lon="-3.46115997992456">
        <ele>14.08</ele>
        <time>2018-07-05T15:02:50Z</time>
      </trkpt>
      <trkpt lat="48.732503978535533" lon="-3.461251007393003">
        <ele>13.6</ele>
        <time>2018-07-05T15:02:51Z</time>
      </trkpt>
      <trkpt lat="48.732477994635701" lon="-3.461341029033065">
        <ele>13.119999999999999</ele>
        <time>2018-07-05T15:02:52Z</time>
      </trkpt>
      <trkpt lat="48.732327036559582" lon="-3.461851989850402">
        <ele>9.75</ele>
        <time>2018-07-05T15:02:58Z</time>
      </trkpt>
      <trkpt lat="48.732327036559582" lon="-3.461851989850402">
        <ele>7.83</ele>
        <time>2018-07-05T15:03:06Z</time>
      </trkpt>
      <trkpt lat="48.732304992154241" lon="-3.461959026753902">
        <ele>7.83</ele>
        <time>2018-07-05T15:03:09Z</time>
      </trkpt>
      <trkpt lat="48.732313038781285" lon="-3.461975958198309">
        <ele>7.35</ele>
        <time>2018-07-05T15:03:10Z</time>
      </trkpt>
      <trkpt lat="48.732498027384281" lon="-3.462409973144531">
        <ele>6.39</ele>
        <time>2018-07-05T15:03:17Z</time>
      </trkpt>
      <trkpt lat="48.732519987970591" lon="-3.462517010048032">
        <ele>6.39</ele>
        <time>2018-07-05T15:03:19Z</time>
      </trkpt>
      <trkpt lat="48.732519987970591" lon="-3.462517010048032">
        <ele>6.39</ele>
        <time>2018-07-05T15:03:20Z</time>
      </trkpt>
      <trkpt lat="48.732498027384281" lon="-3.462709961459041">
        <ele>6.87</ele>
        <time>2018-07-05T15:03:21Z</time>
      </trkpt>
      <trkpt lat="48.732498027384281" lon="-3.462858991697431">
        <ele>6.87</ele>
        <time>2018-07-05T15:03:23Z</time>
      </trkpt>
      <trkpt lat="48.732480006292462" lon="-3.462958987802267">
        <ele>6.87</ele>
        <time>2018-07-05T15:03:25Z</time>
      </trkpt>
      <trkpt lat="48.732458967715502" lon="-3.463020008057356">
        <ele>6.87</ele>
        <time>2018-07-05T15:03:26Z</time>
      </trkpt>
      <trkpt lat="48.732437007129192" lon="-3.463086979463697">
        <ele>6.87</ele>
        <time>2018-07-05T15:03:27Z</time>
      </trkpt>
      <trkpt lat="48.732414040714502" lon="-3.463156968355179">
        <ele>6.87</ele>
        <time>2018-07-05T15:03:28Z</time>
      </trkpt>
      <trkpt lat="48.732387972995639" lon="-3.463235003873706">
        <ele>6.87</ele>
        <time>2018-07-05T15:03:29Z</time>
      </trkpt>
      <trkpt lat="48.731964016333222" lon="-3.464386006817222">
        <ele>8.310000000000001</ele>
        <time>2018-07-05T15:03:43Z</time>
      </trkpt>
      <trkpt lat="48.731948006898165" lon="-3.464462030678988">
        <ele>8.310000000000001</ele>
        <time>2018-07-05T15:03:44Z</time>
      </trkpt>
      <trkpt lat="48.731898972764611" lon="-3.464700998738408">
        <ele>7.83</ele>
        <time>2018-07-05T15:03:48Z</time>
      </trkpt>
      <trkpt lat="48.731935014948249" lon="-3.46479102037847">
        <ele>7.83</ele>
        <time>2018-07-05T15:03:49Z</time>
      </trkpt>
      <trkpt lat="48.731915988028049" lon="-3.464853968471289">
        <ele>7.83</ele>
        <time>2018-07-05T15:03:50Z</time>
      </trkpt>
      <trkpt lat="48.731811968609691" lon="-3.464835025370121">
        <ele>7.35</ele>
        <time>2018-07-05T15:03:51Z</time>
      </trkpt>
      <trkpt lat="48.731800988316536" lon="-3.464837959036231">
        <ele>7.35</ele>
        <time>2018-07-05T15:03:52Z</time>
      </trkpt>
      <trkpt lat="48.731754971668124" lon="-3.464852962642908">
        <ele>7.35</ele>
        <time>2018-07-05T15:03:53Z</time>
      </trkpt>
      <trkpt lat="48.731709960848093" lon="-3.464868972077966">
        <ele>7.83</ele>
        <time>2018-07-05T15:03:54Z</time>
      </trkpt>
      <trkpt lat="48.731654975563288" lon="-3.464886993169785">
        <ele>8.310000000000001</ele>
        <time>2018-07-05T15:03:55Z</time>
      </trkpt>
      <trkpt lat="48.73148700222373" lon="-3.46494298428297">
        <ele>8.310000000000001</ele>
        <time>2018-07-05T15:03:58Z</time>
      </trkpt>
      <trkpt lat="48.731438973918557" lon="-3.464958993718028">
        <ele>8.310000000000001</ele>
        <time>2018-07-05T15:03:59Z</time>
      </trkpt>
      <trkpt lat="48.730887025594711" lon="-3.46541496925056">
        <ele>7.83</ele>
        <time>2018-07-05T15:04:08Z</time>
      </trkpt>
      <trkpt lat="48.730522999539971" lon="-3.465849990025163">
        <ele>6.87</ele>
        <time>2018-07-05T15:04:13Z</time>
      </trkpt>
      <trkpt lat="48.730456028133631" lon="-3.465941017493606">
        <ele>6.87</ele>
        <time>2018-07-05T15:04:14Z</time>
      </trkpt>
      <trkpt lat="48.730398025363684" lon="-3.466048976406455">
        <ele>6.39</ele>
        <time>2018-07-05T15:04:15Z</time>
      </trkpt>
      <trkpt lat="48.730355026200414" lon="-3.466177973896265">
        <ele>6.87</ele>
        <time>2018-07-05T15:04:16Z</time>
      </trkpt>
      <trkpt lat="48.730310015380383" lon="-3.466313006356359">
        <ele>6.39</ele>
        <time>2018-07-05T15:04:17Z</time>
      </trkpt>
      <trkpt lat="48.730285037308931" lon="-3.466463964432478">
        <ele>6.39</ele>
        <time>2018-07-05T15:04:18Z</time>
      </trkpt>
      <trkpt lat="48.730280008167028" lon="-3.46661701798439">
        <ele>6.87</ele>
        <time>2018-07-05T15:04:19Z</time>
      </trkpt>
      <trkpt lat="48.730274979025126" lon="-3.466774011030793">
        <ele>6.87</ele>
        <time>2018-07-05T15:04:20Z</time>
      </trkpt>
      <trkpt lat="48.730269027873874" lon="-3.466935027390719">
        <ele>7.35</ele>
        <time>2018-07-05T15:04:21Z</time>
      </trkpt>
      <trkpt lat="48.730273973196745" lon="-3.467097971588373">
        <ele>7.35</ele>
        <time>2018-07-05T15:04:22Z</time>
      </trkpt>
      <trkpt lat="48.730463990941644" lon="-3.469498967751861">
        <ele>18.399999999999999</ele>
        <time>2018-07-05T15:04:37Z</time>
      </trkpt>
      <trkpt lat="48.730452004820108" lon="-3.471152968704701">
        <ele>26.09</ele>
        <time>2018-07-05T15:04:45Z</time>
      </trkpt>
      <trkpt lat="48.730113040655851" lon="-3.473075022920966">
        <ele>38.109999999999999</ele>
        <time>2018-07-05T15:04:53Z</time>
      </trkpt>
      <trkpt lat="48.72946604155004" lon="-3.475226992741227">
        <ele>53.490000000000002</ele>
        <time>2018-07-05T15:05:02Z</time>
      </trkpt>
      <trkpt lat="48.728544032201171" lon="-3.476466005668044">
        <ele>67.430000000000007</ele>
        <time>2018-07-05T15:05:09Z</time>
      </trkpt>
      <trkpt lat="48.727397974580526" lon="-3.477174025028944">
        <ele>80.890000000000001</ele>
        <time>2018-07-05T15:05:16Z</time>
      </trkpt>
      <trkpt lat="48.726221993565559" lon="-3.477231021970511">
        <ele>91.939999999999998</ele>
        <time>2018-07-05T15:05:23Z</time>
      </trkpt>
      <trkpt lat="48.725716983899474" lon="-3.477310985326767">
        <ele>96.75</ele>
        <time>2018-07-05T15:05:26Z</time>
      </trkpt>
      <trkpt lat="48.725568037480116" lon="-3.477353984490037">
        <ele>97.709999999999994</ele>
        <time>2018-07-05T15:05:27Z</time>
      </trkpt>
      <trkpt lat="48.725426970049739" lon="-3.477435959503055">
        <ele>99.150000000000006</ele>
        <time>2018-07-05T15:05:28Z</time>
      </trkpt>
      <trkpt lat="48.725291015580297" lon="-3.477535033598542">
        <ele>100.11</ele>
        <time>2018-07-05T15:05:29Z</time>
      </trkpt>
      <trkpt lat="48.725152965635061" lon="-3.477634023874998">
        <ele>101.08</ele>
        <time>2018-07-05T15:05:30Z</time>
      </trkpt>
      <trkpt lat="48.725026985630393" lon="-3.477755980566144">
        <ele>102.52</ele>
        <time>2018-07-05T15:05:31Z</time>
      </trkpt>
      <trkpt lat="48.724898993968964" lon="-3.477885983884335">
        <ele>103</ele>
        <time>2018-07-05T15:05:32Z</time>
      </trkpt>
      <trkpt lat="48.723615976050496" lon="-3.479265980422497">
        <ele>104.92</ele>
        <time>2018-07-05T15:05:42Z</time>
      </trkpt>
      <trkpt lat="48.722672006115317" lon="-3.48026099614799">
        <ele>105.88</ele>
        <time>2018-07-05T15:05:51Z</time>
      </trkpt>
      <trkpt lat="48.722327006980777" lon="-3.480628039687872">
        <ele>104.44</ele>
        <time>2018-07-05T15:05:56Z</time>
      </trkpt>
      <trkpt lat="48.722301023080945" lon="-3.480670033022761">
        <ele>104.44</ele>
        <time>2018-07-05T15:05:57Z</time>
      </trkpt>
      <trkpt lat="48.722263975068927" lon="-3.480729041621089">
        <ele>103.95999999999999</ele>
        <time>2018-07-05T15:05:58Z</time>
      </trkpt>
      <trkpt lat="48.722242014482617" lon="-3.480863990262151">
        <ele>103.95999999999999</ele>
        <time>2018-07-05T15:05:59Z</time>
      </trkpt>
      <trkpt lat="48.722266992554069" lon="-3.480941019952297">
        <ele>103.95999999999999</ele>
        <time>2018-07-05T15:06:00Z</time>
      </trkpt>
      <trkpt lat="48.722305968403816" lon="-3.481057025492191">
        <ele>103.95999999999999</ele>
        <time>2018-07-05T15:06:01Z</time>
      </trkpt>
      <trkpt lat="48.7223120033741" lon="-3.481155009940267">
        <ele>103.95999999999999</ele>
        <time>2018-07-05T15:06:02Z</time>
      </trkpt>
      <trkpt lat="48.722318960353732" lon="-3.481260035187006">
        <ele>103.95999999999999</ele>
        <time>2018-07-05T15:06:03Z</time>
      </trkpt>
      <trkpt lat="48.722326001152396" lon="-3.481357013806701">
        <ele>103.95999999999999</ele>
        <time>2018-07-05T15:06:04Z</time>
      </trkpt>
      <trkpt lat="48.722286019474268" lon="-3.481477964669466">
        <ele>103.48</ele>
        <time>2018-07-05T15:06:05Z</time>
      </trkpt>
      <trkpt lat="48.722247965633869" lon="-3.48156999796629">
        <ele>103.95999999999999</ele>
        <time>2018-07-05T15:06:06Z</time>
      </trkpt>
      <trkpt lat="48.722191974520683" lon="-3.48165599629283">
        <ele>103.95999999999999</ele>
        <time>2018-07-05T15:06:07Z</time>
      </trkpt>
      <trkpt lat="48.722131038084626" lon="-3.4816989954561">
        <ele>103.95999999999999</ele>
        <time>2018-07-05T15:06:08Z</time>
      </trkpt>
      <trkpt lat="48.722070017829537" lon="-3.48174300044775">
        <ele>103.95999999999999</ele>
        <time>2018-07-05T15:06:09Z</time>
      </trkpt>
      <trkpt lat="48.722013020887971" lon="-3.48176596686244">
        <ele>103.48</ele>
        <time>2018-07-05T15:06:10Z</time>
      </trkpt>
      <trkpt lat="48.721961975097656" lon="-3.48178599961102">
        <ele>103.48</ele>
        <time>2018-07-05T15:06:11Z</time>
      </trkpt>
      <trkpt lat="48.721906989812851" lon="-3.481772001832724">
        <ele>103.48</ele>
        <time>2018-07-05T15:06:12Z</time>
      </trkpt>
      <trkpt lat="48.721850998699665" lon="-3.481759009882808">
        <ele>103.48</ele>
        <time>2018-07-05T15:06:13Z</time>
      </trkpt>
      <trkpt lat="48.721759971231222" lon="-3.481794968247414">
        <ele>103.48</ele>
        <time>2018-07-05T15:06:14Z</time>
      </trkpt>
      <trkpt lat="48.721727030351758" lon="-3.4818509593606">
        <ele>103.48</ele>
        <time>2018-07-05T15:06:15Z</time>
      </trkpt>
      <trkpt lat="48.721686964854598" lon="-3.481948021799326">
        <ele>103.48</ele>
        <time>2018-07-05T15:06:16Z</time>
      </trkpt>
      <trkpt lat="48.72164798900485" lon="-3.482045000419021">
        <ele>103.48</ele>
        <time>2018-07-05T15:06:17Z</time>
      </trkpt>
      <trkpt lat="48.721503987908363" lon="-3.482401985675097">
        <ele>103.95999999999999</ele>
        <time>2018-07-05T15:06:20Z</time>
      </trkpt>
      <trkpt lat="48.721447996795177" lon="-3.482539029791951">
        <ele>103.95999999999999</ele>
        <time>2018-07-05T15:06:21Z</time>
      </trkpt>
      <trkpt lat="48.720823964104056" lon="-3.484044000506401">
        <ele>106.36</ele>
        <time>2018-07-05T15:06:30Z</time>
      </trkpt>
      <trkpt lat="48.719721995294094" lon="-3.486615987494588">
        <ele>104.44</ele>
        <time>2018-07-05T15:06:43Z</time>
      </trkpt>
      <trkpt lat="48.718828987330198" lon="-3.488576011732221">
        <ele>104.44</ele>
        <time>2018-07-05T15:06:53Z</time>
      </trkpt>
      <trkpt lat="48.718628995120525" lon="-3.489002985879779">
        <ele>104.44</ele>
        <time>2018-07-05T15:06:56Z</time>
      </trkpt>
      <trkpt lat="48.718584990128875" lon="-3.489142963662744">
        <ele>104.92</ele>
        <time>2018-07-05T15:06:57Z</time>
      </trkpt>
      <trkpt lat="48.718565963208675" lon="-3.489279001951218">
        <ele>104.92</ele>
        <time>2018-07-05T15:06:58Z</time>
      </trkpt>
      <trkpt lat="48.718550959601998" lon="-3.489382015541196">
        <ele>104.44</ele>
        <time>2018-07-05T15:06:59Z</time>
      </trkpt>
      <trkpt lat="48.718565963208675" lon="-3.489535991102457">
        <ele>104.92</ele>
        <time>2018-07-05T15:07:00Z</time>
      </trkpt>
      <trkpt lat="48.718522964045405" lon="-3.489687032997608">
        <ele>104.92</ele>
        <time>2018-07-05T15:07:01Z</time>
      </trkpt>
      <trkpt lat="48.718468984588981" lon="-3.489786023274064">
        <ele>104.92</ele>
        <time>2018-07-05T15:07:02Z</time>
      </trkpt>
      <trkpt lat="48.71838097460568" lon="-3.489843020215631">
        <ele>104.92</ele>
        <time>2018-07-05T15:07:03Z</time>
      </trkpt>
      <trkpt lat="48.718291036784649" lon="-3.48988501355052">
        <ele>104.92</ele>
        <time>2018-07-05T15:07:04Z</time>
      </trkpt>
      <trkpt lat="48.718215012922883" lon="-3.489982997998595">
        <ele>104.44</ele>
        <time>2018-07-05T15:07:05Z</time>
      </trkpt>
      <trkpt lat="48.718132032081485" lon="-3.490091040730476">
        <ele>104.44</ele>
        <time>2018-07-05T15:07:06Z</time>
      </trkpt>
      <trkpt lat="48.718045027926564" lon="-3.490219032391906">
        <ele>103.95999999999999</ele>
        <time>2018-07-05T15:07:07Z</time>
      </trkpt>
      <trkpt lat="48.717211028560996" lon="-3.491630963981152">
        <ele>102.52</ele>
        <time>2018-07-05T15:07:15Z</time>
      </trkpt>
      <trkpt lat="48.71584402397275" lon="-3.4937749709934">
        <ele>102.52</ele>
        <time>2018-07-05T15:07:26Z</time>
      </trkpt>
      <trkpt lat="48.715160982683301" lon="-3.494649035856128">
        <ele>102.04000000000001</ele>
        <time>2018-07-05T15:07:31Z</time>
      </trkpt>
      <trkpt lat="48.715033996850252" lon="-3.494849028065801">
        <ele>102.04000000000001</ele>
        <time>2018-07-05T15:07:32Z</time>
      </trkpt>
      <trkpt lat="48.713734969496727" lon="-3.497222028672695">
        <ele>101.08</ele>
        <time>2018-07-05T15:07:43Z</time>
      </trkpt>
      <trkpt lat="48.712530992925167" lon="-3.499069986864924">
        <ele>97.709999999999994</ele>
        <time>2018-07-05T15:07:53Z</time>
      </trkpt>
      <trkpt lat="48.711191983893514" lon="-3.500708984211087">
        <ele>92.900000000000006</ele>
        <time>2018-07-05T15:08:03Z</time>
      </trkpt>
      <trkpt lat="48.709763959050179" lon="-3.501828974112868">
        <ele>89.060000000000002</ele>
        <time>2018-07-05T15:08:12Z</time>
      </trkpt>
      <trkpt lat="48.7083709705621" lon="-3.502954998984933">
        <ele>86.659999999999997</ele>
        <time>2018-07-05T15:08:20Z</time>
      </trkpt>
      <trkpt lat="48.707066997885704" lon="-3.505131024867296">
        <ele>85.689999999999998</ele>
        <time>2018-07-05T15:08:30Z</time>
      </trkpt>
      <trkpt lat="48.705482985824347" lon="-3.507790016010404">
        <ele>90.980000000000004</ele>
        <time>2018-07-05T15:08:42Z</time>
      </trkpt>
      <trkpt lat="48.703892016783357" lon="-3.510464010760188">
        <ele>94.349999999999994</ele>
        <time>2018-07-05T15:08:54Z</time>
      </trkpt>
      <trkpt lat="48.702987022697926" lon="-3.512792000547051">
        <ele>96.75</ele>
        <time>2018-07-05T15:09:03Z</time>
      </trkpt>
      <trkpt lat="48.702255031093955" lon="-3.515209006145597">
        <ele>100.11</ele>
        <time>2018-07-05T15:09:12Z</time>
      </trkpt>
      <trkpt lat="48.70143000036478" lon="-3.51822598837316">
        <ele>103.48</ele>
        <time>2018-07-05T15:09:23Z</time>
      </trkpt>
      <trkpt lat="48.701291028410196" lon="-3.518781960010529">
        <ele>103.48</ele>
        <time>2018-07-05T15:09:25Z</time>
      </trkpt>
      <trkpt lat="48.701152978464961" lon="-3.519352013245225">
        <ele>103.95999999999999</ele>
        <time>2018-07-05T15:09:27Z</time>
      </trkpt>
      <trkpt lat="48.701082989573479" lon="-3.51964202709496">
        <ele>103.95999999999999</ele>
        <time>2018-07-05T15:09:28Z</time>
      </trkpt>
      <trkpt lat="48.700702032074332" lon="-3.521668016910553">
        <ele>105.40000000000001</ele>
        <time>2018-07-05T15:09:36Z</time>
      </trkpt>
      <trkpt lat="48.700425010174513" lon="-3.523098975419998">
        <ele>106.36</ele>
        <time>2018-07-05T15:09:46Z</time>
      </trkpt>
      <trkpt lat="48.700403971597552" lon="-3.523223027586937">
        <ele>106.36</ele>
        <time>2018-07-05T15:09:47Z</time>
      </trkpt>
      <trkpt lat="48.700378993526101" lon="-3.523338027298451">
        <ele>106.84</ele>
        <time>2018-07-05T15:09:48Z</time>
      </trkpt>
      <trkpt lat="48.700422998517752" lon="-3.523497032001615">
        <ele>106.84</ele>
        <time>2018-07-05T15:09:49Z</time>
      </trkpt>
      <trkpt lat="48.700447976589203" lon="-3.523610020056367">
        <ele>106.84</ele>
        <time>2018-07-05T15:09:50Z</time>
      </trkpt>
      <trkpt lat="48.700433978810906" lon="-3.523755026981235">
        <ele>106.84</ele>
        <time>2018-07-05T15:09:51Z</time>
      </trkpt>
      <trkpt lat="48.700418975204229" lon="-3.523800037801266">
        <ele>107.31999999999999</ele>
        <time>2018-07-05T15:09:52Z</time>
      </trkpt>
      <trkpt lat="48.700267011299729" lon="-3.523929035291076">
        <ele>106.84</ele>
        <time>2018-07-05T15:09:53Z</time>
      </trkpt>
      <trkpt lat="48.700229041278362" lon="-3.52406800724566">
        <ele>106.84</ele>
        <time>2018-07-05T15:09:54Z</time>
      </trkpt>
      <trkpt lat="48.700198028236628" lon="-3.524230029433966">
        <ele>106.84</ele>
        <time>2018-07-05T15:09:55Z</time>
      </trkpt>
      <trkpt lat="48.699855040758848" lon="-3.525999030098319">
        <ele>106.84</ele>
        <time>2018-07-05T15:10:04Z</time>
      </trkpt>
      <trkpt lat="48.699206029996276" lon="-3.529269983991981">
        <ele>108.29000000000001</ele>
        <time>2018-07-05T15:10:19Z</time>
      </trkpt>
      <trkpt lat="48.698715018108487" lon="-3.531745998188853">
        <ele>110.69</ele>
        <time>2018-07-05T15:10:28Z</time>
      </trkpt>
      <trkpt lat="48.698039017617702" lon="-3.535096999257803">
        <ele>113.09</ele>
        <time>2018-07-05T15:10:40Z</time>
      </trkpt>
      <trkpt lat="48.697340972721577" lon="-3.538468033075333">
        <ele>119.34</ele>
        <time>2018-07-05T15:10:52Z</time>
      </trkpt>
      <trkpt lat="48.69687401689589" lon="-3.54054699651897">
        <ele>119.81999999999999</ele>
        <time>2018-07-05T15:11:01Z</time>
      </trkpt>
      <trkpt lat="48.696132972836494" lon="-3.542434014379978">
        <ele>122.70999999999999</ele>
        <time>2018-07-05T15:11:10Z</time>
      </trkpt>
      <trkpt lat="48.695036033168435" lon="-3.545395005494356">
        <ele>118.86</ele>
        <time>2018-07-05T15:11:23Z</time>
      </trkpt>
      <trkpt lat="48.69451199658215" lon="-3.547543035820127">
        <ele>115.98</ele>
        <time>2018-07-05T15:11:32Z</time>
      </trkpt>
      <trkpt lat="48.694474026560783" lon="-3.549370961263776">
        <ele>113.09</ele>
        <time>2018-07-05T15:11:40Z</time>
      </trkpt>
      <trkpt lat="48.694439996033907" lon="-3.551855022087693">
        <ele>105.88</ele>
        <time>2018-07-05T15:11:54Z</time>
      </trkpt>
      <trkpt lat="48.694408982992172" lon="-3.552243020385504">
        <ele>104.44</ele>
        <time>2018-07-05T15:11:56Z</time>
      </trkpt>
      <trkpt lat="48.694372018799186" lon="-3.5524280089885">
        <ele>103.48</ele>
        <time>2018-07-05T15:11:57Z</time>
      </trkpt>
      <trkpt lat="48.69431703351438" lon="-3.552606040611863">
        <ele>103</ele>
        <time>2018-07-05T15:11:58Z</time>
      </trkpt>
      <trkpt lat="48.694238997995853" lon="-3.552747024223208">
        <ele>102.04000000000001</ele>
        <time>2018-07-05T15:11:59Z</time>
      </trkpt>
      <trkpt lat="48.694134978577495" lon="-3.552850959822536">
        <ele>101.56</ele>
        <time>2018-07-05T15:12:00Z</time>
      </trkpt>
      <trkpt lat="48.694045962765813" lon="-3.552939975634217">
        <ele>100.59999999999999</ele>
        <time>2018-07-05T15:12:01Z</time>
      </trkpt>
      <trkpt lat="48.693915037438273" lon="-3.552978029474616">
        <ele>100.11</ele>
        <time>2018-07-05T15:12:02Z</time>
      </trkpt>
      <trkpt lat="48.693791991099715" lon="-3.553013987839222">
        <ele>99.150000000000006</ele>
        <time>2018-07-05T15:12:03Z</time>
      </trkpt>
      <trkpt lat="48.693666011095047" lon="-3.55305103585124">
        <ele>98.189999999999998</ele>
        <time>2018-07-05T15:12:04Z</time>
      </trkpt>
      <trkpt lat="48.693542964756489" lon="-3.553086994215846">
        <ele>97.709999999999994</ele>
        <time>2018-07-05T15:12:05Z</time>
      </trkpt>
      <trkpt lat="48.693426959216595" lon="-3.553046006709337">
        <ele>96.75</ele>
        <time>2018-07-05T15:12:06Z</time>
      </trkpt>
      <trkpt lat="48.693308020010591" lon="-3.552994960919023">
        <ele>96.269999999999996</ele>
        <time>2018-07-05T15:12:07Z</time>
      </trkpt>
      <trkpt lat="48.693191008642316" lon="-3.55294399894774">
        <ele>95.310000000000002</ele>
        <time>2018-07-05T15:12:08Z</time>
      </trkpt>
      <trkpt lat="48.692949023097754" lon="-3.552840985357761">
        <ele>93.390000000000001</ele>
        <time>2018-07-05T15:12:10Z</time>
      </trkpt>
      <trkpt lat="48.692824970930815" lon="-3.552833022549748">
        <ele>92.900000000000006</ele>
        <time>2018-07-05T15:12:11Z</time>
      </trkpt>
      <trkpt lat="48.692707037553191" lon="-3.552833022549748">
        <ele>91.939999999999998</ele>
        <time>2018-07-05T15:12:12Z</time>
      </trkpt>
      <trkpt lat="48.692602012306452" lon="-3.552869986742735">
        <ele>90.980000000000004</ele>
        <time>2018-07-05T15:12:13Z</time>
      </trkpt>
      <trkpt lat="48.692492041736841" lon="-3.552930001169443">
        <ele>90.019999999999996</ele>
        <time>2018-07-05T15:12:14Z</time>
      </trkpt>
      <trkpt lat="48.692376036196947" lon="-3.553003007546067">
        <ele>89.060000000000002</ele>
        <time>2018-07-05T15:12:15Z</time>
      </trkpt>
      <trkpt lat="48.692278973758221" lon="-3.553110966458917">
        <ele>88.099999999999994</ele>
        <time>2018-07-05T15:12:16Z</time>
      </trkpt>
      <trkpt lat="48.692080993205309" lon="-3.553329985588789">
        <ele>87.140000000000001</ele>
        <time>2018-07-05T15:12:18Z</time>
      </trkpt>
      <trkpt lat="48.691984014585614" lon="-3.553451020270586">
        <ele>86.659999999999997</ele>
        <time>2018-07-05T15:12:19Z</time>
      </trkpt>
      <trkpt lat="48.691832972690463" lon="-3.553756959736347">
        <ele>85.689999999999998</ele>
        <time>2018-07-05T15:12:21Z</time>
      </trkpt>
      <trkpt lat="48.691775975748897" lon="-3.553917976096273">
        <ele>85.209999999999994</ele>
        <time>2018-07-05T15:12:22Z</time>
      </trkpt>
      <trkpt lat="48.691741023212671" lon="-3.554103970527649">
        <ele>85.209999999999994</ele>
        <time>2018-07-05T15:12:23Z</time>
      </trkpt>
      <trkpt lat="48.691726019605994" lon="-3.554300023242831">
        <ele>85.209999999999994</ele>
        <time>2018-07-05T15:12:24Z</time>
      </trkpt>
      <trkpt lat="48.691709004342556" lon="-3.554509989917278">
        <ele>84.730000000000004</ele>
        <time>2018-07-05T15:12:25Z</time>
      </trkpt>
      <trkpt lat="48.691692994907498" lon="-3.554722974076867">
        <ele>84.25</ele>
        <time>2018-07-05T15:12:26Z</time>
      </trkpt>
      <trkpt lat="48.69167597964406" lon="-3.554941993206739">
        <ele>83.769999999999996</ele>
        <time>2018-07-05T15:12:27Z</time>
      </trkpt>
      <trkpt lat="48.69165200740099" lon="-3.555168975144625">
        <ele>83.290000000000006</ele>
        <time>2018-07-05T15:12:28Z</time>
      </trkpt>
      <trkpt lat="48.691616971045732" lon="-3.555400986224413">
        <ele>82.810000000000002</ele>
        <time>2018-07-05T15:12:29Z</time>
      </trkpt>
      <trkpt lat="48.691580006852746" lon="-3.555640960112214">
        <ele>82.329999999999998</ele>
        <time>2018-07-05T15:12:30Z</time>
      </trkpt>
      <trkpt lat="48.691515969112515" lon="-3.555894009768963">
        <ele>81.849999999999994</ele>
        <time>2018-07-05T15:12:31Z</time>
      </trkpt>
      <trkpt lat="48.691428964957595" lon="-3.556105988100171">
        <ele>80.890000000000001</ele>
        <time>2018-07-05T15:12:32Z</time>
      </trkpt>
      <trkpt lat="48.691333997994661" lon="-3.556315032765269">
        <ele>80.409999999999997</ele>
        <time>2018-07-05T15:12:33Z</time>
      </trkpt>
      <trkpt lat="48.691225033253431" lon="-3.556489963084459">
        <ele>79.930000000000007</ele>
        <time>2018-07-05T15:12:34Z</time>
      </trkpt>
      <trkpt lat="48.691117996349931" lon="-3.556663971394301">
        <ele>78.969999999999999</ele>
        <time>2018-07-05T15:12:35Z</time>
      </trkpt>
      <trkpt lat="48.690995033830404" lon="-3.556806966662407">
        <ele>78</ele>
        <time>2018-07-05T15:12:36Z</time>
      </trkpt>
      <trkpt lat="48.690871987491846" lon="-3.556929007172585">
        <ele>77.519999999999996</ele>
        <time>2018-07-05T15:12:37Z</time>
      </trkpt>
      <trkpt lat="48.690516008064151" lon="-3.55728498660028">
        <ele>74.640000000000001</ele>
        <time>2018-07-05T15:12:40Z</time>
      </trkpt>
      <trkpt lat="48.690453981980681" lon="-3.557428987696767">
        <ele>74.159999999999997</ele>
        <time>2018-07-05T15:12:41Z</time>
      </trkpt>
      <trkpt lat="48.690397990867496" lon="-3.557578017935157">
        <ele>73.200000000000003</ele>
        <time>2018-07-05T15:12:42Z</time>
      </trkpt>
      <trkpt lat="48.690366977825761" lon="-3.557743979617953">
        <ele>72.719999999999999</ele>
        <time>2018-07-05T15:12:43Z</time>
      </trkpt>
      <trkpt lat="48.690334036946297" lon="-3.557921005412936">
        <ele>71.760000000000005</ele>
        <time>2018-07-05T15:12:44Z</time>
      </trkpt>
      <trkpt lat="48.69029900059104" lon="-3.558109011501074">
        <ele>71.269999999999996</ele>
        <time>2018-07-05T15:12:45Z</time>
      </trkpt>
      <trkpt lat="48.690211996436119" lon="-3.558276984840632">
        <ele>70.790000000000006</ele>
        <time>2018-07-05T15:12:46Z</time>
      </trkpt>
      <trkpt lat="48.690109988674521" lon="-3.558433977887034">
        <ele>70.310000000000002</ele>
        <time>2018-07-05T15:12:47Z</time>
      </trkpt>
      <trkpt lat="48.690017033368349" lon="-3.558625001460314">
        <ele>69.349999999999994</ele>
        <time>2018-07-05T15:12:48Z</time>
      </trkpt>
      <trkpt lat="48.689657030627131" lon="-3.559543993324041">
        <ele>65.030000000000001</ele>
        <time>2018-07-05T15:12:53Z</time>
      </trkpt>
      <trkpt lat="48.689573965966702" lon="-3.559694029390812">
        <ele>64.069999999999993</ele>
        <time>2018-07-05T15:12:54Z</time>
      </trkpt>
      <trkpt lat="48.688824959099293" lon="-3.560630036517978">
        <ele>59.259999999999998</ele>
        <time>2018-07-05T15:13:02Z</time>
      </trkpt>
      <trkpt lat="48.688724962994456" lon="-3.560673035681248">
        <ele>58.780000000000001</ele>
        <time>2018-07-05T15:13:03Z</time>
      </trkpt>
      <trkpt lat="48.688620021566749" lon="-3.560709999874234">
        <ele>57.82</ele>
        <time>2018-07-05T15:13:04Z</time>
      </trkpt>
      <trkpt lat="48.688512984663248" lon="-3.560747969895601">
        <ele>56.859999999999999</ele>
        <time>2018-07-05T15:13:05Z</time>
      </trkpt>
      <trkpt lat="48.688394967466593" lon="-3.560774037614465">
        <ele>56.369999999999997</ele>
        <time>2018-07-05T15:13:06Z</time>
      </trkpt>
      <trkpt lat="48.687633974477649" lon="-3.560912003740668">
        <ele>50.609999999999999</ele>
        <time>2018-07-05T15:13:12Z</time>
      </trkpt>
      <trkpt lat="48.686813972890377" lon="-3.561360016465187">
        <ele>46.280000000000001</ele>
        <time>2018-07-05T15:13:19Z</time>
      </trkpt>
      <trkpt lat="48.685737987980247" lon="-3.561570988968015">
        <ele>39.549999999999997</ele>
        <time>2018-07-05T15:13:28Z</time>
      </trkpt>
      <trkpt lat="48.685635980218649" lon="-3.561534024775028">
        <ele>39.07</ele>
        <time>2018-07-05T15:13:29Z</time>
      </trkpt>
      <trkpt lat="48.685485022142529" lon="-3.561479961499572">
        <ele>38.109999999999999</ele>
        <time>2018-07-05T15:13:30Z</time>
      </trkpt>
      <trkpt lat="48.6852499935776" lon="-3.561297990381718">
        <ele>35.229999999999997</ele>
        <time>2018-07-05T15:13:33Z</time>
      </trkpt>
      <trkpt lat="48.685157960280776" lon="-3.561225989833474">
        <ele>34.740000000000002</ele>
        <time>2018-07-05T15:13:34Z</time>
      </trkpt>
      <trkpt lat="48.685051007196307" lon="-3.561179973185062">
        <ele>34.259999999999998</ele>
        <time>2018-07-05T15:13:35Z</time>
      </trkpt>
      <trkpt lat="48.684940030798316" lon="-3.561207968741655">
        <ele>33.299999999999997</ele>
        <time>2018-07-05T15:13:36Z</time>
      </trkpt>
      <trkpt lat="48.684858977794647" lon="-3.561283992603421">
        <ele>32.340000000000003</ele>
        <time>2018-07-05T15:13:37Z</time>
      </trkpt>
      <trkpt lat="48.684774991124868" lon="-3.561362028121948">
        <ele>31.859999999999999</ele>
        <time>2018-07-05T15:13:38Z</time>
      </trkpt>
      <trkpt lat="48.684693016111851" lon="-3.561438973993063">
        <ele>30.899999999999999</ele>
        <time>2018-07-05T15:13:39Z</time>
      </trkpt>
      <trkpt lat="48.684611963108182" lon="-3.561532013118267">
        <ele>30.420000000000002</ele>
        <time>2018-07-05T15:13:40Z</time>
      </trkpt>
      <trkpt lat="48.684556977823377" lon="-3.561651036143303">
        <ele>29.460000000000001</ele>
        <time>2018-07-05T15:13:41Z</time>
      </trkpt>
      <trkpt lat="48.684496963396668" lon="-3.561780033633113">
        <ele>28.5</ele>
        <time>2018-07-05T15:13:42Z</time>
      </trkpt>
      <trkpt lat="48.684484977275133" lon="-3.561908025294542">
        <ele>28.02</ele>
        <time>2018-07-05T15:13:43Z</time>
      </trkpt>
      <trkpt lat="48.68447600863874" lon="-3.562040040269494">
        <ele>27.530000000000001</ele>
        <time>2018-07-05T15:13:44Z</time>
      </trkpt>
      <trkpt lat="48.684478020295501" lon="-3.562178006395698">
        <ele>27.050000000000001</ele>
        <time>2018-07-05T15:13:45Z</time>
      </trkpt>
      <trkpt lat="48.684495035558939" lon="-3.562297029420734">
        <ele>26.57</ele>
        <time>2018-07-05T15:13:46Z</time>
      </trkpt>
      <trkpt lat="48.684511967003345" lon="-3.562418986111879">
        <ele>26.57</ele>
        <time>2018-07-05T15:13:47Z</time>
      </trkpt>
      <trkpt lat="48.684528982266784" lon="-3.562534991651774">
        <ele>26.09</ele>
        <time>2018-07-05T15:13:48Z</time>
      </trkpt>
      <trkpt lat="48.684545997530222" lon="-3.562657032161951">
        <ele>25.609999999999999</ele>
        <time>2018-07-05T15:13:49Z</time>
      </trkpt>
      <trkpt lat="48.68456200696528" lon="-3.562773959711194">
        <ele>25.129999999999999</ele>
        <time>2018-07-05T15:13:50Z</time>
      </trkpt>
      <trkpt lat="48.684573993086815" lon="-3.562898011878133">
        <ele>24.649999999999999</ele>
        <time>2018-07-05T15:13:51Z</time>
      </trkpt>
      <trkpt lat="48.684630990028381" lon="-3.56349597685039">
        <ele>22.73</ele>
        <time>2018-07-05T15:13:56Z</time>
      </trkpt>
      <trkpt lat="48.684643981978297" lon="-3.563728993758559">
        <ele>22.73</ele>
        <time>2018-07-05T15:13:58Z</time>
      </trkpt>
      <trkpt lat="48.68460500612855" lon="-3.564548995345831">
        <ele>20.809999999999999</ele>
        <time>2018-07-05T15:14:05Z</time>
      </trkpt>
      <trkpt lat="48.684597965329885" lon="-3.564678998664022">
        <ele>20.32</ele>
        <time>2018-07-05T15:14:06Z</time>
      </trkpt>
      <trkpt lat="48.684486988931894" lon="-3.565961010754108">
        <ele>16</ele>
        <time>2018-07-05T15:14:14Z</time>
      </trkpt>
      <trkpt lat="48.684448013082147" lon="-3.56620098464191">
        <ele>15.039999999999999</ele>
        <time>2018-07-05T15:14:16Z</time>
      </trkpt>
      <trkpt lat="48.684428986161947" lon="-3.566303998231888">
        <ele>15.52</ele>
        <time>2018-07-05T15:14:17Z</time>
      </trkpt>
      <trkpt lat="48.684353968128562" lon="-3.566715968772769">
        <ele>16</ele>
        <time>2018-07-05T15:14:22Z</time>
      </trkpt>
      <trkpt lat="48.684340976178646" lon="-3.566785035654903">
        <ele>16</ele>
        <time>2018-07-05T15:14:23Z</time>
      </trkpt>
      <trkpt lat="48.684328990057111" lon="-3.566847983747721">
        <ele>16</ele>
        <time>2018-07-05T15:14:24Z</time>
      </trkpt>
      <trkpt lat="48.684325972571969" lon="-3.56686600483954">
        <ele>15.52</ele>
        <time>2018-07-05T15:14:25Z</time>
      </trkpt>
      <trkpt lat="48.684302000328898" lon="-3.566948985680938">
        <ele>15.52</ele>
        <time>2018-07-05T15:14:26Z</time>
      </trkpt>
      <trkpt lat="48.684286996722221" lon="-3.567001037299633">
        <ele>15.039999999999999</ele>
        <time>2018-07-05T15:14:27Z</time>
      </trkpt>
      <trkpt lat="48.684242991730571" lon="-3.567045964300633">
        <ele>14.56</ele>
        <time>2018-07-05T15:14:29Z</time>
      </trkpt>
      <trkpt lat="48.684196975082159" lon="-3.56708100065589">
        <ele>14.08</ele>
        <time>2018-07-05T15:14:30Z</time>
      </trkpt>
      <trkpt lat="48.684150958433747" lon="-3.567088963463903">
        <ele>14.08</ele>
        <time>2018-07-05T15:14:31Z</time>
      </trkpt>
      <trkpt lat="48.683567997068167" lon="-3.567198012024164">
        <ele>11.67</ele>
        <time>2018-07-05T15:14:40Z</time>
      </trkpt>
      <trkpt lat="48.682549009099603" lon="-3.567594978958368">
        <ele>9.75</ele>
        <time>2018-07-05T15:14:51Z</time>
      </trkpt>
      <trkpt lat="48.681271020323038" lon="-3.568295035511255">
        <ele>9.75</ele>
        <time>2018-07-05T15:15:02Z</time>
      </trkpt>
      <trkpt lat="48.679849030449986" lon="-3.569116964936256">
        <ele>8.789999999999999</ele>
        <time>2018-07-05T15:15:15Z</time>
      </trkpt>
      <trkpt lat="48.678291002288461" lon="-3.57000301592052">
        <ele>6.87</ele>
        <time>2018-07-05T15:15:29Z</time>
      </trkpt>
      <trkpt lat="48.677811976522207" lon="-3.570397971197963">
        <ele>7.35</ele>
        <time>2018-07-05T15:15:34Z</time>
      </trkpt>
      <trkpt lat="48.676837999373674" lon="-3.571210009977222">
        <ele>7.83</ele>
        <time>2018-07-05T15:15:42Z</time>
      </trkpt>
      <trkpt lat="48.675264967605472" lon="-3.572707017883658">
        <ele>8.789999999999999</ele>
        <time>2018-07-05T15:15:53Z</time>
      </trkpt>
      <trkpt lat="48.673981027677655" lon="-3.574777012690902">
        <ele>8.789999999999999</ele>
        <time>2018-07-05T15:16:04Z</time>
      </trkpt>
      <trkpt lat="48.671882031485438" lon="-3.578204037621617">
        <ele>10.23</ele>
        <time>2018-07-05T15:16:22Z</time>
      </trkpt>
      <trkpt lat="48.670474039390683" lon="-3.580781975761056">
        <ele>10.23</ele>
        <time>2018-07-05T15:16:35Z</time>
      </trkpt>
      <trkpt lat="48.670228030532598" lon="-3.582531027495861">
        <ele>10.23</ele>
        <time>2018-07-05T15:16:42Z</time>
      </trkpt>
      <trkpt lat="48.670446965843439" lon="-3.584504965692759">
        <ele>9.75</ele>
        <time>2018-07-05T15:16:50Z</time>
      </trkpt>
      <trkpt lat="48.670638995245099" lon="-3.585826959460974">
        <ele>10.23</ele>
        <time>2018-07-05T15:16:58Z</time>
      </trkpt>
      <trkpt lat="48.671089019626379" lon="-3.587400997057557">
        <ele>9.27</ele>
        <time>2018-07-05T15:17:08Z</time>
      </trkpt>
      <trkpt lat="48.671408034861088" lon="-3.588151009753346">
        <ele>9.75</ele>
        <time>2018-07-05T15:17:13Z</time>
      </trkpt>
      <trkpt lat="48.671450028195977" lon="-3.588317977264524">
        <ele>9.75</ele>
        <time>2018-07-05T15:17:14Z</time>
      </trkpt>
      <trkpt lat="48.67147701792419" lon="-3.588486034423113">
        <ele>9.75</ele>
        <time>2018-07-05T15:17:15Z</time>
      </trkpt>
      <trkpt lat="48.671486992388964" lon="-3.588661970570684">
        <ele>9.75</ele>
        <time>2018-07-05T15:17:16Z</time>
      </trkpt>
      <trkpt lat="48.671486992388964" lon="-3.588836984708905">
        <ele>9.75</ele>
        <time>2018-07-05T15:17:17Z</time>
      </trkpt>
      <trkpt lat="48.671467965468764" lon="-3.589014010503888">
        <ele>9.75</ele>
        <time>2018-07-05T15:17:18Z</time>
      </trkpt>
      <trkpt lat="48.671448016539216" lon="-3.589191036298871">
        <ele>10.23</ele>
        <time>2018-07-05T15:17:19Z</time>
      </trkpt>
      <trkpt lat="48.671423960477114" lon="-3.589374013245106">
        <ele>10.23</ele>
        <time>2018-07-05T15:17:20Z</time>
      </trkpt>
      <trkpt lat="48.67132899351418" lon="-3.589710965752602">
        <ele>10.23</ele>
        <time>2018-07-05T15:17:22Z</time>
      </trkpt>
      <trkpt lat="48.671265039592981" lon="-3.589861001819372">
        <ele>10.23</ele>
        <time>2018-07-05T15:17:23Z</time>
      </trkpt>
      <trkpt lat="48.67119999602437" lon="-3.590011037886143">
        <ele>9.75</ele>
        <time>2018-07-05T15:17:24Z</time>
      </trkpt>
      <trkpt lat="48.671135036274791" lon="-3.590161995962262">
        <ele>9.27</ele>
        <time>2018-07-05T15:17:25Z</time>
      </trkpt>
      <trkpt lat="48.671067981049418" lon="-3.590311026200652">
        <ele>9.27</ele>
        <time>2018-07-05T15:17:26Z</time>
      </trkpt>
      <trkpt lat="48.669785968959332" lon="-3.592675980180502">
        <ele>8.789999999999999</ele>
        <time>2018-07-05T15:17:43Z</time>
      </trkpt>
      <trkpt lat="48.668849039822817" lon="-3.594736000522971">
        <ele>10.710000000000001</ele>
        <time>2018-07-05T15:17:57Z</time>
      </trkpt>
      <trkpt lat="48.668796988204122" lon="-3.594890981912613">
        <ele>10.710000000000001</ele>
        <time>2018-07-05T15:17:58Z</time>
      </trkpt>
      <trkpt lat="48.668530024588108" lon="-3.595870994031429">
        <ele>10.23</ele>
        <time>2018-07-05T15:18:04Z</time>
      </trkpt>
      <trkpt lat="48.668510997667909" lon="-3.596057994291186">
        <ele>10.23</ele>
        <time>2018-07-05T15:18:05Z</time>
      </trkpt>
      <trkpt lat="48.668515020981431" lon="-3.59623703174293">
        <ele>10.710000000000001</ele>
        <time>2018-07-05T15:18:06Z</time>
      </trkpt>
      <trkpt lat="48.66866597905755" lon="-3.598543982952833">
        <ele>11.67</ele>
        <time>2018-07-05T15:18:19Z</time>
      </trkpt>
      <trkpt lat="48.668803023174405" lon="-3.60042697750032">
        <ele>13.6</ele>
        <time>2018-07-05T15:18:30Z</time>
      </trkpt>
      <trkpt lat="48.668907964602113" lon="-3.601958015933633">
        <ele>12.630000000000001</ele>
        <time>2018-07-05T15:18:41Z</time>
      </trkpt>
      <trkpt lat="48.669035034254193" lon="-3.60388501547277">
        <ele>13.119999999999999</ele>
        <time>2018-07-05T15:18:53Z</time>
      </trkpt>
      <trkpt lat="48.669100999832153" lon="-3.60476603731513">
        <ele>12.630000000000001</ele>
        <time>2018-07-05T15:19:02Z</time>
      </trkpt>
      <trkpt lat="48.669188003987074" lon="-3.606008989736438">
        <ele>11.19</ele>
        <time>2018-07-05T15:19:13Z</time>
      </trkpt>
      <trkpt lat="48.669280959293246" lon="-3.607341041788459">
        <ele>9.75</ele>
        <time>2018-07-05T15:19:23Z</time>
      </trkpt>
      <trkpt lat="48.66926503367722" lon="-3.607585960999131">
        <ele>9.75</ele>
        <time>2018-07-05T15:19:25Z</time>
      </trkpt>
      <trkpt lat="48.669253969565034" lon="-3.607711018994451">
        <ele>9.75</ele>
        <time>2018-07-05T15:19:26Z</time>
      </trkpt>
      <trkpt lat="48.669184986501932" lon="-3.608617018908262">
        <ele>10.710000000000001</ele>
        <time>2018-07-05T15:19:32Z</time>
      </trkpt>
      <trkpt lat="48.669199990108609" lon="-3.608927987515926">
        <ele>11.67</ele>
        <time>2018-07-05T15:19:34Z</time>
      </trkpt>
      <trkpt lat="48.66922102868557" lon="-3.609096966683865">
        <ele>12.630000000000001</ele>
        <time>2018-07-05T15:19:35Z</time>
      </trkpt>
      <trkpt lat="48.66930803284049" lon="-3.609828036278486">
        <ele>16</ele>
        <time>2018-07-05T15:19:39Z</time>
      </trkpt>
      <trkpt lat="48.669514982029796" lon="-3.611032012850046">
        <ele>20.32</ele>
        <time>2018-07-05T15:19:45Z</time>
      </trkpt>
      <trkpt lat="48.669593017548323" lon="-3.611194035038352">
        <ele>21.289999999999999</ele>
        <time>2018-07-05T15:19:46Z</time>
      </trkpt>
      <trkpt lat="48.66967398673296" lon="-3.611354967579246">
        <ele>21.77</ele>
        <time>2018-07-05T15:19:47Z</time>
      </trkpt>
      <trkpt lat="48.669754033908248" lon="-3.611515983939171">
        <ele>22.73</ele>
        <time>2018-07-05T15:19:48Z</time>
      </trkpt>
      <trkpt lat="48.669835003092885" lon="-3.611677000299096">
        <ele>23.690000000000001</ele>
        <time>2018-07-05T15:19:49Z</time>
      </trkpt>
      <trkpt lat="48.669884037226439" lon="-3.61185897141695">
        <ele>24.170000000000002</ele>
        <time>2018-07-05T15:19:50Z</time>
      </trkpt>
      <trkpt lat="48.669915972277522" lon="-3.612048989161849">
        <ele>24.170000000000002</ele>
        <time>2018-07-05T15:19:51Z</time>
      </trkpt>
      <trkpt lat="48.669907003641129" lon="-3.61224303022027">
        <ele>24.649999999999999</ele>
        <time>2018-07-05T15:19:52Z</time>
      </trkpt>
      <trkpt lat="48.669874984771013" lon="-3.61243698745966">
        <ele>25.129999999999999</ele>
        <time>2018-07-05T15:19:53Z</time>
      </trkpt>
      <trkpt lat="48.669842965900898" lon="-3.6126300226897">
        <ele>25.609999999999999</ele>
        <time>2018-07-05T15:19:54Z</time>
      </trkpt>
      <trkpt lat="48.669769037514925" lon="-3.612788021564484">
        <ele>26.09</ele>
        <time>2018-07-05T15:19:55Z</time>
      </trkpt>
      <trkpt lat="48.669687984511256" lon="-3.612957000732422">
        <ele>26.57</ele>
        <time>2018-07-05T15:19:56Z</time>
      </trkpt>
      <trkpt lat="48.669606009498239" lon="-3.613128997385502">
        <ele>27.050000000000001</ele>
        <time>2018-07-05T15:19:57Z</time>
      </trkpt>
      <trkpt lat="48.66952596232295" lon="-3.613310968503356">
        <ele>28.02</ele>
        <time>2018-07-05T15:19:58Z</time>
      </trkpt>
      <trkpt lat="48.669448010623455" lon="-3.613492017611861">
        <ele>28.5</ele>
        <time>2018-07-05T15:19:59Z</time>
      </trkpt>
      <trkpt lat="48.669378021731973" lon="-3.613688992336392">
        <ele>29.460000000000001</ele>
        <time>2018-07-05T15:20:00Z</time>
      </trkpt>
      <trkpt lat="48.669336028397083" lon="-3.61389703117311">
        <ele>30.420000000000002</ele>
        <time>2018-07-05T15:20:01Z</time>
      </trkpt>
      <trkpt lat="48.66930702701211" lon="-3.61411496065557">
        <ele>31.379999999999999</ele>
        <time>2018-07-05T15:20:02Z</time>
      </trkpt>
      <trkpt lat="48.669282970950007" lon="-3.614331968128681">
        <ele>32.340000000000003</ele>
        <time>2018-07-05T15:20:03Z</time>
      </trkpt>
      <trkpt lat="48.669117009267211" lon="-3.615791006013751">
        <ele>38.590000000000003</ele>
        <time>2018-07-05T15:20:10Z</time>
      </trkpt>
      <trkpt lat="48.669065041467547" lon="-3.615970965474844">
        <ele>39.549999999999997</ele>
        <time>2018-07-05T15:20:11Z</time>
      </trkpt>
      <trkpt lat="48.669007960706949" lon="-3.616137010976672">
        <ele>40.509999999999998</ele>
        <time>2018-07-05T15:20:12Z</time>
      </trkpt>
      <trkpt lat="48.668863037601113" lon="-3.616553004831076">
        <ele>42.439999999999998</ele>
        <time>2018-07-05T15:20:15Z</time>
      </trkpt>
      <trkpt lat="48.668816015124321" lon="-3.616668004542589">
        <ele>43.399999999999999</ele>
        <time>2018-07-05T15:20:16Z</time>
      </trkpt>
      <trkpt lat="48.66877100430429" lon="-3.616781998425722">
        <ele>44.359999999999999</ele>
        <time>2018-07-05T15:20:17Z</time>
      </trkpt>
      <trkpt lat="48.668682994320989" lon="-3.617033958435059">
        <ele>45.799999999999997</ele>
        <time>2018-07-05T15:20:19Z</time>
      </trkpt>
      <trkpt lat="48.668357022106647" lon="-3.618099968880415">
        <ele>44.840000000000003</ele>
        <time>2018-07-05T15:20:26Z</time>
      </trkpt>
      <trkpt lat="48.667579013854265" lon="-3.619678029790521">
        <ele>41.950000000000003</ele>
        <time>2018-07-05T15:20:37Z</time>
      </trkpt>
      <trkpt lat="48.666547033935785" lon="-3.621550966054201">
        <ele>45.32</ele>
        <time>2018-07-05T15:20:51Z</time>
      </trkpt>
      <trkpt lat="48.665926018729806" lon="-3.622775981202722">
        <ele>48.68</ele>
        <time>2018-07-05T15:21:00Z</time>
      </trkpt>
      <trkpt lat="48.665107022970915" lon="-3.624049024656415">
        <ele>53.009999999999998</ele>
        <time>2018-07-05T15:21:10Z</time>
      </trkpt>
      <trkpt lat="48.663946967571974" lon="-3.625342017039657">
        <ele>57.82</ele>
        <time>2018-07-05T15:21:22Z</time>
      </trkpt>
      <trkpt lat="48.663640022277832" lon="-3.625760022550821">
        <ele>60.219999999999999</ele>
        <time>2018-07-05T15:21:27Z</time>
      </trkpt>
      <trkpt lat="48.663614038378" lon="-3.625798998400569">
        <ele>60.700000000000003</ele>
        <time>2018-07-05T15:21:28Z</time>
      </trkpt>
      <trkpt lat="48.663595011457801" lon="-3.625826993957162">
        <ele>61.18</ele>
        <time>2018-07-05T15:21:29Z</time>
      </trkpt>
      <trkpt lat="48.663582019507885" lon="-3.625846020877361">
        <ele>61.659999999999997</ele>
        <time>2018-07-05T15:21:30Z</time>
      </trkpt>
      <trkpt lat="48.66357296705246" lon="-3.625860018655658">
        <ele>61.659999999999997</ele>
        <time>2018-07-05T15:21:31Z</time>
      </trkpt>
      <trkpt lat="48.663558969274163" lon="-3.625878961756825">
        <ele>62.140000000000001</ele>
        <time>2018-07-05T15:21:32Z</time>
      </trkpt>
      <trkpt lat="48.663538014516234" lon="-3.62590997479856">
        <ele>62.619999999999997</ele>
        <time>2018-07-05T15:21:33Z</time>
      </trkpt>
      <trkpt lat="48.663512030616403" lon="-3.625960014760494">
        <ele>62.619999999999997</ele>
        <time>2018-07-05T15:21:34Z</time>
      </trkpt>
      <trkpt lat="48.663481017574668" lon="-3.626019023358822">
        <ele>63.100000000000001</ele>
        <time>2018-07-05T15:21:35Z</time>
      </trkpt>
      <trkpt lat="48.663445981219411" lon="-3.626087000593543">
        <ele>63.100000000000001</ele>
        <time>2018-07-05T15:21:36Z</time>
      </trkpt>
      <trkpt lat="48.663405999541283" lon="-3.626165958121419">
        <ele>63.579999999999998</ele>
        <time>2018-07-05T15:21:37Z</time>
      </trkpt>
      <trkpt lat="48.662967961281538" lon="-3.626990988850594">
        <ele>63.579999999999998</ele>
        <time>2018-07-05T15:21:46Z</time>
      </trkpt>
      <trkpt lat="48.66245599463582" lon="-3.627919033169746">
        <ele>61.18</ele>
        <time>2018-07-05T15:21:55Z</time>
      </trkpt>
      <trkpt lat="48.66226103156805" lon="-3.628323040902615">
        <ele>59.259999999999998</ele>
        <time>2018-07-05T15:21:59Z</time>
      </trkpt>
      <trkpt lat="48.662160029634833" lon="-3.628551028668881">
        <ele>58.299999999999997</ele>
        <time>2018-07-05T15:22:01Z</time>
      </trkpt>
      <trkpt lat="48.662116024643183" lon="-3.628676002845168">
        <ele>57.82</ele>
        <time>2018-07-05T15:22:02Z</time>
      </trkpt>
      <trkpt lat="48.661863980814815" lon="-3.62951997667551">
        <ele>53.969999999999999</ele>
        <time>2018-07-05T15:22:10Z</time>
      </trkpt>
      <trkpt lat="48.661836991086602" lon="-3.629608992487192">
        <ele>53.490000000000002</ele>
        <time>2018-07-05T15:22:11Z</time>
      </trkpt>
      <trkpt lat="48.661763984709978" lon="-3.629853995516896">
        <ele>53.009999999999998</ele>
        <time>2018-07-05T15:22:14Z</time>
      </trkpt>
      <trkpt lat="48.661739006638527" lon="-3.629934964701533">
        <ele>52.530000000000001</ele>
        <time>2018-07-05T15:22:15Z</time>
      </trkpt>
      <trkpt lat="48.661690978333354" lon="-3.630095981061459">
        <ele>52.049999999999997</ele>
        <time>2018-07-05T15:22:17Z</time>
      </trkpt>
      <trkpt lat="48.661668011918664" lon="-3.630173010751605">
        <ele>52.049999999999997</ele>
        <time>2018-07-05T15:22:18Z</time>
      </trkpt>
      <trkpt lat="48.661644961684942" lon="-3.630250040441752">
        <ele>52.049999999999997</ele>
        <time>2018-07-05T15:22:19Z</time>
      </trkpt>
      <trkpt lat="48.661621995270252" lon="-3.630328997969627">
        <ele>52.049999999999997</ele>
        <time>2018-07-05T15:22:20Z</time>
      </trkpt>
      <trkpt lat="48.661598023027182" lon="-3.630409967154265">
        <ele>52.049999999999997</ele>
        <time>2018-07-05T15:22:21Z</time>
      </trkpt>
      <trkpt lat="48.661535996943712" lon="-3.630567966029048">
        <ele>51.57</ele>
        <time>2018-07-05T15:22:25Z</time>
      </trkpt>
      <trkpt lat="48.66146600805223" lon="-3.630723031237721">
        <ele>52.530000000000001</ele>
        <time>2018-07-05T15:22:34Z</time>
      </trkpt>
      <trkpt lat="48.661428038030863" lon="-3.630809029564261">
        <ele>52.530000000000001</ele>
        <time>2018-07-05T15:22:35Z</time>
      </trkpt>
      <trkpt lat="48.661388978362083" lon="-3.630883963778615">
        <ele>52.530000000000001</ele>
        <time>2018-07-05T15:22:36Z</time>
      </trkpt>
      <trkpt lat="48.660643994808197" lon="-3.632036978378892">
        <ele>49.159999999999997</ele>
        <time>2018-07-05T15:22:48Z</time>
      </trkpt>
      <trkpt lat="48.659843020141125" lon="-3.63276201300323">
        <ele>48.68</ele>
        <time>2018-07-05T15:22:58Z</time>
      </trkpt>
      <trkpt lat="48.658704003319144" lon="-3.633395014330745">
        <ele>47.240000000000002</ele>
        <time>2018-07-05T15:23:10Z</time>
      </trkpt>
      <trkpt lat="48.658105032518506" lon="-3.63372802734375">
        <ele>47.719999999999999</ele>
        <time>2018-07-05T15:23:16Z</time>
      </trkpt>
      <trkpt lat="48.658019034191966" lon="-3.633753005415201">
        <ele>47.719999999999999</ele>
        <time>2018-07-05T15:23:17Z</time>
      </trkpt>
      <trkpt lat="48.657918032258749" lon="-3.633761974051595">
        <ele>47.719999999999999</ele>
        <time>2018-07-05T15:23:18Z</time>
      </trkpt>
      <trkpt lat="48.657809989526868" lon="-3.633734984323382">
        <ele>48.200000000000003</ele>
        <time>2018-07-05T15:23:19Z</time>
      </trkpt>
      <trkpt lat="48.657701024785638" lon="-3.63370799459517">
        <ele>48.200000000000003</ele>
        <time>2018-07-05T15:23:20Z</time>
      </trkpt>
      <trkpt lat="48.657588958740234" lon="-3.633679999038577">
        <ele>48.200000000000003</ele>
        <time>2018-07-05T15:23:21Z</time>
      </trkpt>
      <trkpt lat="48.657482005655766" lon="-3.633639011532068">
        <ele>48.200000000000003</ele>
        <time>2018-07-05T15:23:22Z</time>
      </trkpt>
      <trkpt lat="48.657375974580646" lon="-3.63357899710536">
        <ele>47.719999999999999</ele>
        <time>2018-07-05T15:23:23Z</time>
      </trkpt>
      <trkpt lat="48.657271033152938" lon="-3.633519988507032">
        <ele>47.240000000000002</ele>
        <time>2018-07-05T15:23:24Z</time>
      </trkpt>
      <trkpt lat="48.657170031219721" lon="-3.633462991565466">
        <ele>47.240000000000002</ele>
        <time>2018-07-05T15:23:25Z</time>
      </trkpt>
      <trkpt lat="48.657071040943265" lon="-3.6334059946239">
        <ele>47.240000000000002</ele>
        <time>2018-07-05T15:23:26Z</time>
      </trkpt>
      <trkpt lat="48.656654041260481" lon="-3.63314799964428">
        <ele>43.399999999999999</ele>
        <time>2018-07-05T15:23:33Z</time>
      </trkpt>
      <trkpt lat="48.656619004905224" lon="-3.633134001865983">
        <ele>42.439999999999998</ele>
        <time>2018-07-05T15:23:34Z</time>
      </trkpt>
      <trkpt lat="48.656601989641786" lon="-3.633126961067319">
        <ele>41.950000000000003</ele>
        <time>2018-07-05T15:23:35Z</time>
      </trkpt>
      <trkpt lat="48.656601989641786" lon="-3.633126961067319">
        <ele>40.990000000000002</ele>
        <time>2018-07-05T15:23:36Z</time>
      </trkpt>
      <trkpt lat="48.656452037394047" lon="-3.63302000798285">
        <ele>40.990000000000002</ele>
        <time>2018-07-05T15:23:37Z</time>
      </trkpt>
      <trkpt lat="48.656413983553648" lon="-3.633006010204554">
        <ele>40.509999999999998</ele>
        <time>2018-07-05T15:23:38Z</time>
      </trkpt>
      <trkpt lat="48.656341983005404" lon="-3.632981032133102">
        <ele>40.030000000000001</ele>
        <time>2018-07-05T15:23:39Z</time>
      </trkpt>
      <trkpt lat="48.65626897662878" lon="-3.632954964414239">
        <ele>40.030000000000001</ele>
        <time>2018-07-05T15:23:40Z</time>
      </trkpt>
      <trkpt lat="48.656193958595395" lon="-3.632927974686027">
        <ele>40.030000000000001</ele>
        <time>2018-07-05T15:23:41Z</time>
      </trkpt>
      <trkpt lat="48.656113995239139" lon="-3.632915988564491">
        <ele>40.030000000000001</ele>
        <time>2018-07-05T15:23:42Z</time>
      </trkpt>
      <trkpt lat="48.656036965548992" lon="-3.632923029363155">
        <ele>39.549999999999997</ele>
        <time>2018-07-05T15:23:43Z</time>
      </trkpt>
      <trkpt lat="48.655921965837479" lon="-3.63293400965631">
        <ele>39.07</ele>
        <time>2018-07-05T15:23:45Z</time>
      </trkpt>
      <trkpt lat="48.655470013618469" lon="-3.633172977715731">
        <ele>37.149999999999999</ele>
        <time>2018-07-05T15:23:52Z</time>
      </trkpt>
      <trkpt lat="48.654402997344732" lon="-3.633929025381804">
        <ele>38.590000000000003</ele>
        <time>2018-07-05T15:24:05Z</time>
      </trkpt>
      <trkpt lat="48.654271988198161" lon="-3.634030027315021">
        <ele>39.07</ele>
        <time>2018-07-05T15:24:07Z</time>
      </trkpt>
      <trkpt lat="48.654242986813188" lon="-3.63405198790133">
        <ele>39.07</ele>
        <time>2018-07-05T15:24:08Z</time>
      </trkpt>
      <trkpt lat="48.654223959892988" lon="-3.634066991508007">
        <ele>39.549999999999997</ele>
        <time>2018-07-05T15:24:09Z</time>
      </trkpt>
      <trkpt lat="48.653852976858616" lon="-3.634350970387459">
        <ele>39.549999999999997</ele>
        <time>2018-07-05T15:24:17Z</time>
      </trkpt>
      <trkpt lat="48.653788017109036" lon="-3.634401010349393">
        <ele>39.549999999999997</ele>
        <time>2018-07-05T15:24:18Z</time>
      </trkpt>
      <trkpt lat="48.653733031824231" lon="-3.634493965655565">
        <ele>39.549999999999997</ele>
        <time>2018-07-05T15:24:19Z</time>
      </trkpt>
      <trkpt lat="48.653689026832581" lon="-3.634585998952389">
        <ele>39.549999999999997</ele>
        <time>2018-07-05T15:24:20Z</time>
      </trkpt>
      <trkpt lat="48.653642004355788" lon="-3.634687000885606">
        <ele>39.549999999999997</ele>
        <time>2018-07-05T15:24:21Z</time>
      </trkpt>
      <trkpt lat="48.653594981878996" lon="-3.634785991162062">
        <ele>39.549999999999997</ele>
        <time>2018-07-05T15:24:22Z</time>
      </trkpt>
      <trkpt lat="48.653547959402204" lon="-3.634886993095279">
        <ele>39.07</ele>
        <time>2018-07-05T15:24:23Z</time>
      </trkpt>
      <trkpt lat="48.652968015521765" lon="-3.636215021833777">
        <ele>35.229999999999997</ele>
        <time>2018-07-05T15:24:33Z</time>
      </trkpt>
      <trkpt lat="48.652387987822294" lon="-3.637444982305169">
        <ele>29.460000000000001</ele>
        <time>2018-07-05T15:24:42Z</time>
      </trkpt>
      <trkpt lat="48.651335975155234" lon="-3.638836964964867">
        <ele>33.780000000000001</ele>
        <time>2018-07-05T15:24:54Z</time>
      </trkpt>
      <trkpt lat="48.650240963324904" lon="-3.639472983777523">
        <ele>37.630000000000003</ele>
        <time>2018-07-05T15:25:04Z</time>
      </trkpt>
      <trkpt lat="48.649710975587368" lon="-3.639872968196869">
        <ele>40.030000000000001</ele>
        <time>2018-07-05T15:25:09Z</time>
      </trkpt>
      <trkpt lat="48.649452980607748" lon="-3.640222996473312">
        <ele>41.469999999999999</ele>
        <time>2018-07-05T15:25:12Z</time>
      </trkpt>
      <trkpt lat="48.64939103834331" lon="-3.640364985913038">
        <ele>41.950000000000003</ele>
        <time>2018-07-05T15:25:13Z</time>
      </trkpt>
      <trkpt lat="48.64932800643146" lon="-3.640508987009525">
        <ele>42.439999999999998</ele>
        <time>2018-07-05T15:25:14Z</time>
      </trkpt>
      <trkpt lat="48.648785026744008" lon="-3.642705967649818">
        <ele>49.649999999999999</ele>
        <time>2018-07-05T15:25:27Z</time>
      </trkpt>
      <trkpt lat="48.64874898456037" lon="-3.642890034243465">
        <ele>50.130000000000003</ele>
        <time>2018-07-05T15:25:28Z</time>
      </trkpt>
      <trkpt lat="48.648750996217132" lon="-3.643064964562655">
        <ele>51.090000000000003</ele>
        <time>2018-07-05T15:25:29Z</time>
      </trkpt>
      <trkpt lat="48.648758037015796" lon="-3.643249031156302">
        <ele>52.049999999999997</ele>
        <time>2018-07-05T15:25:30Z</time>
      </trkpt>
      <trkpt lat="48.64881101064384" lon="-3.645220035687089">
        <ele>54.93</ele>
        <time>2018-07-05T15:25:40Z</time>
      </trkpt>
      <trkpt lat="48.648493001237512" lon="-3.646758031100035">
        <ele>53.009999999999998</ele>
        <time>2018-07-05T15:25:46Z</time>
      </trkpt>
      <trkpt lat="48.647617008537054" lon="-3.648713026195765">
        <ele>49.159999999999997</ele>
        <time>2018-07-05T15:25:54Z</time>
      </trkpt>
      <trkpt lat="48.646281016990542" lon="-3.651981968432665">
        <ele>38.590000000000003</ele>
        <time>2018-07-05T15:26:07Z</time>
      </trkpt>
      <trkpt lat="48.645734013989568" lon="-3.654827037826181">
        <ele>30.899999999999999</ele>
        <time>2018-07-05T15:26:17Z</time>
      </trkpt>
      <trkpt lat="48.645259011536837" lon="-3.657799009233713">
        <ele>25.129999999999999</ele>
        <time>2018-07-05T15:26:28Z</time>
      </trkpt>
      <trkpt lat="48.644752996042371" lon="-3.660801993682981">
        <ele>19.84</ele>
        <time>2018-07-05T15:26:40Z</time>
      </trkpt>
      <trkpt lat="48.644253015518188" lon="-3.663729960098863">
        <ele>14.08</ele>
        <time>2018-07-05T15:26:52Z</time>
      </trkpt>
      <trkpt lat="48.64408303052187" lon="-3.664394980296493">
        <ele>13.6</ele>
        <time>2018-07-05T15:26:55Z</time>
      </trkpt>
      <trkpt lat="48.644003989174962" lon="-3.664609976112843">
        <ele>13.6</ele>
        <time>2018-07-05T15:26:56Z</time>
      </trkpt>
      <trkpt lat="48.643829980865121" lon="-3.665028987452388">
        <ele>13.6</ele>
        <time>2018-07-05T15:26:58Z</time>
      </trkpt>
      <trkpt lat="48.643716992810369" lon="-3.665217999368906">
        <ele>13.6</ele>
        <time>2018-07-05T15:26:59Z</time>
      </trkpt>
      <trkpt lat="48.643601993098855" lon="-3.665401982143521">
        <ele>14.08</ele>
        <time>2018-07-05T15:27:00Z</time>
      </trkpt>
      <trkpt lat="48.642143961042166" lon="-3.66726896725595">
        <ele>19.84</ele>
        <time>2018-07-05T15:27:10Z</time>
      </trkpt>
      <trkpt lat="48.641997026279569" lon="-3.667451022192836">
        <ele>20.32</ele>
        <time>2018-07-05T15:27:11Z</time>
      </trkpt>
      <trkpt lat="48.64185101352632" lon="-3.667628969997168">
        <ele>20.809999999999999</ele>
        <time>2018-07-05T15:27:12Z</time>
      </trkpt>
      <trkpt lat="48.641706006601453" lon="-3.667808007448912">
        <ele>21.77</ele>
        <time>2018-07-05T15:27:13Z</time>
      </trkpt>
      <trkpt lat="48.641324965283275" lon="-3.668424999341369">
        <ele>24.170000000000002</ele>
        <time>2018-07-05T15:27:16Z</time>
      </trkpt>
      <trkpt lat="48.641237039119005" lon="-3.668704032897949">
        <ele>25.129999999999999</ele>
        <time>2018-07-05T15:27:17Z</time>
      </trkpt>
      <trkpt lat="48.641142994165421" lon="-3.669279031455517">
        <ele>26.57</ele>
        <time>2018-07-05T15:27:19Z</time>
      </trkpt>
      <trkpt lat="48.640821967273951" lon="-3.671505013480783">
        <ele>31.859999999999999</ele>
        <time>2018-07-05T15:27:27Z</time>
      </trkpt>
      <trkpt lat="48.640634967014194" lon="-3.67285299114883">
        <ele>37.149999999999999</ele>
        <time>2018-07-05T15:27:35Z</time>
      </trkpt>
      <trkpt lat="48.640573024749756" lon="-3.673211988061667">
        <ele>38.590000000000003</ele>
        <time>2018-07-05T15:27:37Z</time>
      </trkpt>
      <trkpt lat="48.640521978959441" lon="-3.673418015241623">
        <ele>39.07</ele>
        <time>2018-07-05T15:27:38Z</time>
      </trkpt>
      <trkpt lat="48.640465987846255" lon="-3.673641979694367">
        <ele>39.549999999999997</ele>
        <time>2018-07-05T15:27:39Z</time>
      </trkpt>
      <trkpt lat="48.639785964041948" lon="-3.675337973982096">
        <ele>44.840000000000003</ele>
        <time>2018-07-05T15:27:46Z</time>
      </trkpt>
      <trkpt lat="48.639128990471363" lon="-3.677114015445113">
        <ele>51.090000000000003</ele>
        <time>2018-07-05T15:27:53Z</time>
      </trkpt>
      <trkpt lat="48.639042992144823" lon="-3.677373016253114">
        <ele>51.57</ele>
        <time>2018-07-05T15:27:54Z</time>
      </trkpt>
      <trkpt lat="48.639010973274708" lon="-3.677669987082481">
        <ele>52.530000000000001</ele>
        <time>2018-07-05T15:27:55Z</time>
      </trkpt>
      <trkpt lat="48.639027988538146" lon="-3.677960000932217">
        <ele>53.490000000000002</ele>
        <time>2018-07-05T15:27:56Z</time>
      </trkpt>
      <trkpt lat="48.639055984094739" lon="-3.67824599146843">
        <ele>54.450000000000003</ele>
        <time>2018-07-05T15:27:57Z</time>
      </trkpt>
      <trkpt lat="48.63910099491477" lon="-3.678529970347881">
        <ele>54.93</ele>
        <time>2018-07-05T15:27:58Z</time>
      </trkpt>
      <trkpt lat="48.639586977660656" lon="-3.681691037490964">
        <ele>64.069999999999993</ele>
        <time>2018-07-05T15:28:09Z</time>
      </trkpt>
      <trkpt lat="48.639580020681024" lon="-3.681979961693287">
        <ele>64.549999999999997</ele>
        <time>2018-07-05T15:28:10Z</time>
      </trkpt>
      <trkpt lat="48.639527969062328" lon="-3.682256983593106">
        <ele>65.510000000000005</ele>
        <time>2018-07-05T15:28:11Z</time>
      </trkpt>
      <trkpt lat="48.639425961300731" lon="-3.682495029643178">
        <ele>66.469999999999999</ele>
        <time>2018-07-05T15:28:12Z</time>
      </trkpt>
      <trkpt lat="48.639318002387881" lon="-3.682729974389076">
        <ele>67.430000000000007</ele>
        <time>2018-07-05T15:28:13Z</time>
      </trkpt>
      <trkpt lat="48.639191016554832" lon="-3.682926027104259">
        <ele>68.390000000000001</ele>
        <time>2018-07-05T15:28:14Z</time>
      </trkpt>
      <trkpt lat="48.639036035165191" lon="-3.683096012100577">
        <ele>68.870000000000005</ele>
        <time>2018-07-05T15:28:15Z</time>
      </trkpt>
      <trkpt lat="48.638878036290407" lon="-3.683269014582038">
        <ele>69.829999999999998</ele>
        <time>2018-07-05T15:28:16Z</time>
      </trkpt>
      <trkpt lat="48.637955021113157" lon="-3.684449018910527">
        <ele>74.640000000000001</ele>
        <time>2018-07-05T15:28:23Z</time>
      </trkpt>
      <trkpt lat="48.636927986517549" lon="-3.686121962964535">
        <ele>78.969999999999999</ele>
        <time>2018-07-05T15:28:32Z</time>
      </trkpt>
      <trkpt lat="48.636074038222432" lon="-3.687534984201193">
        <ele>83.290000000000006</ele>
        <time>2018-07-05T15:28:38Z</time>
      </trkpt>
      <trkpt lat="48.635827023535967" lon="-3.687976039946079">
        <ele>85.209999999999994</ele>
        <time>2018-07-05T15:28:40Z</time>
      </trkpt>
      <trkpt lat="48.635730966925621" lon="-3.688219031319022">
        <ele>86.180000000000007</ele>
        <time>2018-07-05T15:28:41Z</time>
      </trkpt>
      <trkpt lat="48.635651003569365" lon="-3.688478032127023">
        <ele>86.659999999999997</ele>
        <time>2018-07-05T15:28:42Z</time>
      </trkpt>
      <trkpt lat="48.635617978870869" lon="-3.688758993521333">
        <ele>87.620000000000005</ele>
        <time>2018-07-05T15:28:43Z</time>
      </trkpt>
      <trkpt lat="48.635585037991405" lon="-3.689037021249533">
        <ele>88.099999999999994</ele>
        <time>2018-07-05T15:28:44Z</time>
      </trkpt>
      <trkpt lat="48.635601969435811" lon="-3.689319994300604">
        <ele>89.060000000000002</ele>
        <time>2018-07-05T15:28:45Z</time>
      </trkpt>
      <trkpt lat="48.635643040761352" lon="-3.689595004543662">
        <ele>90.019999999999996</ele>
        <time>2018-07-05T15:28:46Z</time>
      </trkpt>
      <trkpt lat="48.635703977197409" lon="-3.689863979816437">
        <ele>90.980000000000004</ele>
        <time>2018-07-05T15:28:47Z</time>
      </trkpt>
      <trkpt lat="48.635782012715936" lon="-3.690129015594721">
        <ele>91.939999999999998</ele>
        <time>2018-07-05T15:28:48Z</time>
      </trkpt>
      <trkpt lat="48.63656697794795" lon="-3.692862018942833">
        <ele>100.11</ele>
        <time>2018-07-05T15:28:58Z</time>
      </trkpt>
      <trkpt lat="48.637284971773624" lon="-3.695316994562745">
        <ele>103.48</ele>
        <time>2018-07-05T15:29:07Z</time>
      </trkpt>
      <trkpt lat="48.637442970648408" lon="-3.695854023098946">
        <ele>103.95999999999999</ele>
        <time>2018-07-05T15:29:09Z</time>
      </trkpt>
      <trkpt lat="48.637979999184608" lon="-3.697419008240104">
        <ele>105.40000000000001</ele>
        <time>2018-07-05T15:29:15Z</time>
      </trkpt>
      <trkpt lat="48.638021992519498" lon="-3.69771396741271">
        <ele>104.92</ele>
        <time>2018-07-05T15:29:16Z</time>
      </trkpt>
      <trkpt lat="48.638029033318162" lon="-3.698009010404348">
        <ele>104.92</ele>
        <time>2018-07-05T15:29:17Z</time>
      </trkpt>
      <trkpt lat="48.638035990297794" lon="-3.698302963748574">
        <ele>104.92</ele>
        <time>2018-07-05T15:29:18Z</time>
      </trkpt>
      <trkpt lat="48.638038001954556" lon="-3.698601024225354">
        <ele>105.40000000000001</ele>
        <time>2018-07-05T15:29:19Z</time>
      </trkpt>
      <trkpt lat="48.637991985306144" lon="-3.700085040181875">
        <ele>105.88</ele>
        <time>2018-07-05T15:29:24Z</time>
      </trkpt>
      <trkpt lat="48.638013023883104" lon="-3.700377987697721">
        <ele>105.88</ele>
        <time>2018-07-05T15:29:25Z</time>
      </trkpt>
      <trkpt lat="48.638049988076091" lon="-3.700670013204217">
        <ele>105.88</ele>
        <time>2018-07-05T15:29:26Z</time>
      </trkpt>
      <trkpt lat="48.638092987239361" lon="-3.700963966548443">
        <ele>105.88</ele>
        <time>2018-07-05T15:29:27Z</time>
      </trkpt>
      <trkpt lat="48.638168005272746" lon="-3.701239982619882">
        <ele>105.88</ele>
        <time>2018-07-05T15:29:28Z</time>
      </trkpt>
      <trkpt lat="48.639031006023288" lon="-3.704255959019065">
        <ele>104.44</ele>
        <time>2018-07-05T15:29:40Z</time>
      </trkpt>
      <trkpt lat="48.639564011245966" lon="-3.706135014072061">
        <ele>103</ele>
        <time>2018-07-05T15:29:51Z</time>
      </trkpt>
      <trkpt lat="48.639603992924094" lon="-3.706264011561871">
        <ele>103</ele>
        <time>2018-07-05T15:29:52Z</time>
      </trkpt>
      <trkpt lat="48.63963701762259" lon="-3.706393009051681">
        <ele>103</ele>
        <time>2018-07-05T15:29:53Z</time>
      </trkpt>
      <trkpt lat="48.639782024547458" lon="-3.706595012918115">
        <ele>103.48</ele>
        <time>2018-07-05T15:29:55Z</time>
      </trkpt>
      <trkpt lat="48.639814965426922" lon="-3.70671303011477">
        <ele>103.48</ele>
        <time>2018-07-05T15:29:56Z</time>
      </trkpt>
      <trkpt lat="48.639800967648625" lon="-3.706813026219606">
        <ele>103.48</ele>
        <time>2018-07-05T15:29:57Z</time>
      </trkpt>
      <trkpt lat="48.639757968485355" lon="-3.706985022872686">
        <ele>103.48</ele>
        <time>2018-07-05T15:29:58Z</time>
      </trkpt>
      <trkpt lat="48.639786969870329" lon="-3.707131035625935">
        <ele>103</ele>
        <time>2018-07-05T15:29:59Z</time>
      </trkpt>
      <trkpt lat="48.639816977083683" lon="-3.707302026450634">
        <ele>103.48</ele>
        <time>2018-07-05T15:30:00Z</time>
      </trkpt>
      <trkpt lat="48.639851007610559" lon="-3.707492966204882">
        <ele>103.48</ele>
        <time>2018-07-05T15:30:01Z</time>
      </trkpt>
      <trkpt lat="48.639994002878666" lon="-3.709151996299624">
        <ele>106.36</ele>
        <time>2018-07-05T15:30:08Z</time>
      </trkpt>
      <trkpt lat="48.639686973765492" lon="-3.711259039118886">
        <ele>113.56999999999999</ele>
        <time>2018-07-05T15:30:16Z</time>
      </trkpt>
      <trkpt lat="48.639124967157841" lon="-3.714422034099698">
        <ele>120.78</ele>
        <time>2018-07-05T15:30:27Z</time>
      </trkpt>
      <trkpt lat="48.639222029596567" lon="-3.716897964477539">
        <ele>123.67</ele>
        <time>2018-07-05T15:30:35Z</time>
      </trkpt>
      <trkpt lat="48.639488993212581" lon="-3.719945959746838">
        <ele>121.73999999999999</ele>
        <time>2018-07-05T15:30:46Z</time>
      </trkpt>
      <trkpt lat="48.639500979334116" lon="-3.720596982166171">
        <ele>120.78</ele>
        <time>2018-07-05T15:30:51Z</time>
      </trkpt>
      <trkpt lat="48.639586977660656" lon="-3.720867969095707">
        <ele>121.26000000000001</ele>
        <time>2018-07-05T15:30:56Z</time>
      </trkpt>
      <trkpt lat="48.639612039551139" lon="-3.720911974087358">
        <ele>121.26000000000001</ele>
        <time>2018-07-05T15:30:57Z</time>
      </trkpt>
      <trkpt lat="48.639671970158815" lon="-3.721018005162478">
        <ele>121.26000000000001</ele>
        <time>2018-07-05T15:30:58Z</time>
      </trkpt>
      <trkpt lat="48.639681022614241" lon="-3.721080031245947">
        <ele>121.73999999999999</ele>
        <time>2018-07-05T15:30:59Z</time>
      </trkpt>
      <trkpt lat="48.639686973765492" lon="-3.721187990158796">
        <ele>121.73999999999999</ele>
        <time>2018-07-05T15:31:00Z</time>
      </trkpt>
      <trkpt lat="48.63965998403728" lon="-3.721268037334085">
        <ele>121.73999999999999</ele>
        <time>2018-07-05T15:31:01Z</time>
      </trkpt>
      <trkpt lat="48.639651015400887" lon="-3.721297038719058">
        <ele>121.73999999999999</ele>
        <time>2018-07-05T15:31:02Z</time>
      </trkpt>
      <trkpt lat="48.639544984325767" lon="-3.721343977376819">
        <ele>121.73999999999999</ele>
        <time>2018-07-05T15:31:03Z</time>
      </trkpt>
      <trkpt lat="48.639437025412917" lon="-3.721466017886996">
        <ele>122.22</ele>
        <time>2018-07-05T15:31:04Z</time>
      </trkpt>
      <trkpt lat="48.639402994886041" lon="-3.721595015376806">
        <ele>122.22</ele>
        <time>2018-07-05T15:31:05Z</time>
      </trkpt>
      <trkpt lat="48.639362007379532" lon="-3.721743039786816">
        <ele>122.70999999999999</ele>
        <time>2018-07-05T15:31:06Z</time>
      </trkpt>
      <trkpt lat="48.639316996559501" lon="-3.72190598398447">
        <ele>123.19</ele>
        <time>2018-07-05T15:31:07Z</time>
      </trkpt>
      <trkpt lat="48.639266034588218" lon="-3.72207697480917">
        <ele>123.67</ele>
        <time>2018-07-05T15:31:08Z</time>
      </trkpt>
      <trkpt lat="48.639212977141142" lon="-3.722250983119011">
        <ele>124.63</ele>
        <time>2018-07-05T15:31:09Z</time>
      </trkpt>
      <trkpt lat="48.639108035713434" lon="-3.722595982253552">
        <ele>125.11</ele>
        <time>2018-07-05T15:31:11Z</time>
      </trkpt>
      <trkpt lat="48.638917012140155" lon="-3.723161006346345">
        <ele>124.15000000000001</ele>
        <time>2018-07-05T15:31:17Z</time>
      </trkpt>
      <trkpt lat="48.638557009398937" lon="-3.723803982138634">
        <ele>124.15000000000001</ele>
        <time>2018-07-05T15:31:23Z</time>
      </trkpt>
      <trkpt lat="48.637676993384957" lon="-3.724922966212034">
        <ele>122.22</ele>
        <time>2018-07-05T15:31:30Z</time>
      </trkpt>
      <trkpt lat="48.63615601323545" lon="-3.726920038461685">
        <ele>116.94</ele>
        <time>2018-07-05T15:31:42Z</time>
      </trkpt>
      <trkpt lat="48.635278008878231" lon="-3.7288430146873">
        <ele>115.01000000000001</ele>
        <time>2018-07-05T15:31:51Z</time>
      </trkpt>
      <trkpt lat="48.634526990354061" lon="-3.730595000088215">
        <ele>111.65000000000001</ele>
        <time>2018-07-05T15:31:58Z</time>
      </trkpt>
      <trkpt lat="48.633557958528399" lon="-3.733220966532826">
        <ele>116.45999999999999</ele>
        <time>2018-07-05T15:32:08Z</time>
      </trkpt>
      <trkpt lat="48.632575012743473" lon="-3.736522011458874">
        <ele>122.70999999999999</ele>
        <time>2018-07-05T15:32:20Z</time>
      </trkpt>
      <trkpt lat="48.631614027544856" lon="-3.738856036216021">
        <ele>125.11</ele>
        <time>2018-07-05T15:32:29Z</time>
      </trkpt>
      <trkpt lat="48.630689000710845" lon="-3.740463014692068">
        <ele>124.63</ele>
        <time>2018-07-05T15:32:36Z</time>
      </trkpt>
      <trkpt lat="48.629760034382343" lon="-3.742078961804509">
        <ele>124.15000000000001</ele>
        <time>2018-07-05T15:32:43Z</time>
      </trkpt>
      <trkpt lat="48.628601990640163" lon="-3.744094977155328">
        <ele>124.15000000000001</ele>
        <time>2018-07-05T15:32:52Z</time>
      </trkpt>
      <trkpt lat="48.628370985388756" lon="-3.74450501985848">
        <ele>123.67</ele>
        <time>2018-07-05T15:32:54Z</time>
      </trkpt>
      <trkpt lat="48.627250995486975" lon="-3.746557999402285">
        <ele>121.73999999999999</ele>
        <time>2018-07-05T15:33:04Z</time>
      </trkpt>
      <trkpt lat="48.627187963575125" lon="-3.746801996603608">
        <ele>121.73999999999999</ele>
        <time>2018-07-05T15:33:05Z</time>
      </trkpt>
      <trkpt lat="48.627129960805178" lon="-3.747044987976551">
        <ele>121.73999999999999</ele>
        <time>2018-07-05T15:33:06Z</time>
      </trkpt>
      <trkpt lat="48.627084027975798" lon="-3.747555026784539">
        <ele>122.22</ele>
        <time>2018-07-05T15:33:08Z</time>
      </trkpt>
      <trkpt lat="48.627062989398837" lon="-3.747819978743792">
        <ele>122.70999999999999</ele>
        <time>2018-07-05T15:33:09Z</time>
      </trkpt>
      <trkpt lat="48.627033988013864" lon="-3.750442005693913">
        <ele>122.22</ele>
        <time>2018-07-05T15:33:18Z</time>
      </trkpt>
      <trkpt lat="48.626990988850594" lon="-3.754418967291713">
        <ele>119.34</ele>
        <time>2018-07-05T15:33:31Z</time>
      </trkpt>
      <trkpt lat="48.626971961930394" lon="-3.757486995309591">
        <ele>114.05</ele>
        <time>2018-07-05T15:33:41Z</time>
      </trkpt>
      <trkpt lat="48.626787979155779" lon="-3.759586997330189">
        <ele>108.29000000000001</ele>
        <time>2018-07-05T15:33:48Z</time>
      </trkpt>
      <trkpt lat="48.626303002238274" lon="-3.761583985760808">
        <ele>101.08</ele>
        <time>2018-07-05T15:33:55Z</time>
      </trkpt>
      <trkpt lat="48.626280035823584" lon="-3.761881962418556">
        <ele>100.11</ele>
        <time>2018-07-05T15:33:56Z</time>
      </trkpt>
      <trkpt lat="48.626261008903384" lon="-3.762182034552097">
        <ele>99.150000000000006</ele>
        <time>2018-07-05T15:33:57Z</time>
      </trkpt>
      <trkpt lat="48.626270983368158" lon="-3.762483028694987">
        <ele>98.670000000000002</ele>
        <time>2018-07-05T15:33:58Z</time>
      </trkpt>
      <trkpt lat="48.626293027773499" lon="-3.762782011181116">
        <ele>97.709999999999994</ele>
        <time>2018-07-05T15:33:59Z</time>
      </trkpt>
      <trkpt lat="48.626314988359809" lon="-3.763078982010484">
        <ele>97.230000000000004</ele>
        <time>2018-07-05T15:34:00Z</time>
      </trkpt>
      <trkpt lat="48.626620005816221" lon="-3.7657789606601">
        <ele>88.579999999999998</ele>
        <time>2018-07-05T15:34:09Z</time>
      </trkpt>
      <trkpt lat="48.626613970845938" lon="-3.766078026965261">
        <ele>87.620000000000005</ele>
        <time>2018-07-05T15:34:10Z</time>
      </trkpt>
      <trkpt lat="48.626588992774487" lon="-3.766364017501473">
        <ele>86.659999999999997</ele>
        <time>2018-07-05T15:34:11Z</time>
      </trkpt>
      <trkpt lat="48.626544987782836" lon="-3.766639027744532">
        <ele>86.180000000000007</ele>
        <time>2018-07-05T15:34:12Z</time>
      </trkpt>
      <trkpt lat="48.626499976962805" lon="-3.766902973875403">
        <ele>85.209999999999994</ele>
        <time>2018-07-05T15:34:13Z</time>
      </trkpt>
      <trkpt lat="48.626411966979504" lon="-3.767138002440333">
        <ele>84.25</ele>
        <time>2018-07-05T15:34:14Z</time>
      </trkpt>
      <trkpt lat="48.626323034986854" lon="-3.76736800186336">
        <ele>83.290000000000006</ele>
        <time>2018-07-05T15:34:15Z</time>
      </trkpt>
      <trkpt lat="48.626233013346791" lon="-3.767600012943149">
        <ele>82.329999999999998</ele>
        <time>2018-07-05T15:34:16Z</time>
      </trkpt>
      <trkpt lat="48.62614399753511" lon="-3.767830012366176">
        <ele>81.849999999999994</ele>
        <time>2018-07-05T15:34:17Z</time>
      </trkpt>
      <trkpt lat="48.626022962853312" lon="-3.768019024282694">
        <ele>80.890000000000001</ele>
        <time>2018-07-05T15:34:18Z</time>
      </trkpt>
      <trkpt lat="48.625895977020264" lon="-3.768203007057309">
        <ele>79.930000000000007</ele>
        <time>2018-07-05T15:34:19Z</time>
      </trkpt>
      <trkpt lat="48.625769997015595" lon="-3.768385984003544">
        <ele>78.480000000000004</ele>
        <time>2018-07-05T15:34:20Z</time>
      </trkpt>
      <trkpt lat="48.625633958727121" lon="-3.768539037555456">
        <ele>78</ele>
        <time>2018-07-05T15:34:21Z</time>
      </trkpt>
      <trkpt lat="48.625471014529467" lon="-3.768671974539757">
        <ele>77.040000000000006</ele>
        <time>2018-07-05T15:34:22Z</time>
      </trkpt>
      <trkpt lat="48.625297006219625" lon="-3.768812958151102">
        <ele>76.560000000000002</ele>
        <time>2018-07-05T15:34:23Z</time>
      </trkpt>
      <trkpt lat="48.625117968767881" lon="-3.76895897090435">
        <ele>76.079999999999998</ele>
        <time>2018-07-05T15:34:24Z</time>
      </trkpt>
      <trkpt lat="48.624028991907835" lon="-3.769719963893294">
        <ele>71.760000000000005</ele>
        <time>2018-07-05T15:34:30Z</time>
      </trkpt>
      <trkpt lat="48.623836040496826" lon="-3.769784001633525">
        <ele>70.790000000000006</ele>
        <time>2018-07-05T15:34:31Z</time>
      </trkpt>
      <trkpt lat="48.623639987781644" lon="-3.769814008846879">
        <ele>69.349999999999994</ele>
        <time>2018-07-05T15:34:32Z</time>
      </trkpt>
      <trkpt lat="48.621859000995755" lon="-3.770150039345026">
        <ele>63.100000000000001</ele>
        <time>2018-07-05T15:34:41Z</time>
      </trkpt>
      <trkpt lat="48.621498998254538" lon="-3.770398981869221">
        <ele>62.140000000000001</ele>
        <time>2018-07-05T15:34:43Z</time>
      </trkpt>
      <trkpt lat="48.621323984116316" lon="-3.770533008500934">
        <ele>61.18</ele>
        <time>2018-07-05T15:34:44Z</time>
      </trkpt>
      <trkpt lat="48.621173026040196" lon="-3.770702993497253">
        <ele>60.219999999999999</ele>
        <time>2018-07-05T15:34:45Z</time>
      </trkpt>
      <trkpt lat="48.621025001630187" lon="-3.77088999375701">
        <ele>59.259999999999998</ele>
        <time>2018-07-05T15:34:46Z</time>
      </trkpt>
      <trkpt lat="48.620878988876939" lon="-3.771073976531625">
        <ele>57.82</ele>
        <time>2018-07-05T15:34:47Z</time>
      </trkpt>
      <trkpt lat="48.620764994993806" lon="-3.771299030631781">
        <ele>56.859999999999999</ele>
        <time>2018-07-05T15:34:48Z</time>
      </trkpt>
      <trkpt lat="48.620648989453912" lon="-3.771531041711569">
        <ele>55.890000000000001</ele>
        <time>2018-07-05T15:34:49Z</time>
      </trkpt>
      <trkpt lat="48.619493963196874" lon="-3.773884009569883">
        <ele>50.130000000000003</ele>
        <time>2018-07-05T15:34:59Z</time>
      </trkpt>
      <trkpt lat="48.618457959964871" lon="-3.776034973561764">
        <ele>48.68</ele>
        <time>2018-07-05T15:35:08Z</time>
      </trkpt>
      <trkpt lat="48.617974994704127" lon="-3.776940973475575">
        <ele>48.68</ele>
        <time>2018-07-05T15:35:12Z</time>
      </trkpt>
      <trkpt lat="48.61785002052784" lon="-3.777151023969054">
        <ele>48.68</ele>
        <time>2018-07-05T15:35:13Z</time>
      </trkpt>
      <trkpt lat="48.61767802387476" lon="-3.777283038944006">
        <ele>48.200000000000003</ele>
        <time>2018-07-05T15:35:14Z</time>
      </trkpt>
      <trkpt lat="48.617505021393299" lon="-3.777414970099926">
        <ele>48.200000000000003</ele>
        <time>2018-07-05T15:35:15Z</time>
      </trkpt>
      <trkpt lat="48.617322966456413" lon="-3.777482025325298">
        <ele>48.200000000000003</ele>
        <time>2018-07-05T15:35:16Z</time>
      </trkpt>
      <trkpt lat="48.617131020873785" lon="-3.777542961761355">
        <ele>48.200000000000003</ele>
        <time>2018-07-05T15:35:17Z</time>
      </trkpt>
      <trkpt lat="48.616935973986983" lon="-3.777604987844825">
        <ele>47.719999999999999</ele>
        <time>2018-07-05T15:35:18Z</time>
      </trkpt>
      <trkpt lat="48.61615695990622" lon="-3.777918973937631">
        <ele>46.280000000000001</ele>
        <time>2018-07-05T15:35:22Z</time>
      </trkpt>
      <trkpt lat="48.615971971303225" lon="-3.778018970042467">
        <ele>45.799999999999997</ele>
        <time>2018-07-05T15:35:23Z</time>
      </trkpt>
      <trkpt lat="48.615801986306906" lon="-3.778168000280857">
        <ele>44.840000000000003</ele>
        <time>2018-07-05T15:35:24Z</time>
      </trkpt>
      <trkpt lat="48.614579988643527" lon="-3.779326966032386">
        <ele>40.030000000000001</ele>
        <time>2018-07-05T15:35:32Z</time>
      </trkpt>
      <trkpt lat="48.613572986796498" lon="-3.780521973967552">
        <ele>34.740000000000002</ele>
        <time>2018-07-05T15:35:42Z</time>
      </trkpt>
      <trkpt lat="48.6134900059551" lon="-3.780680978670716">
        <ele>34.259999999999998</ele>
        <time>2018-07-05T15:35:43Z</time>
      </trkpt>
      <trkpt lat="48.613436026498675" lon="-3.780867978930473">
        <ele>33.780000000000001</ele>
        <time>2018-07-05T15:35:44Z</time>
      </trkpt>
      <trkpt lat="48.613391015678644" lon="-3.781060008332133">
        <ele>33.780000000000001</ele>
        <time>2018-07-05T15:35:45Z</time>
      </trkpt>
      <trkpt lat="48.613344999030232" lon="-3.781254971399903">
        <ele>33.299999999999997</ele>
        <time>2018-07-05T15:35:46Z</time>
      </trkpt>
      <trkpt lat="48.613300994038582" lon="-3.781470973044634">
        <ele>33.299999999999997</ele>
        <time>2018-07-05T15:35:47Z</time>
      </trkpt>
      <trkpt lat="48.613300994038582" lon="-3.78169602714479">
        <ele>32.82</ele>
        <time>2018-07-05T15:35:48Z</time>
      </trkpt>
      <trkpt lat="48.613300994038582" lon="-3.781925020739436">
        <ele>32.82</ele>
        <time>2018-07-05T15:35:49Z</time>
      </trkpt>
      <trkpt lat="48.613306023180485" lon="-3.782158959656954">
        <ele>32.82</ele>
        <time>2018-07-05T15:35:50Z</time>
      </trkpt>
      <trkpt lat="48.613327983766794" lon="-3.782402034848929">
        <ele>32.82</ele>
        <time>2018-07-05T15:35:51Z</time>
      </trkpt>
      <trkpt lat="48.613358996808529" lon="-3.783390009775758">
        <ele>33.299999999999997</ele>
        <time>2018-07-05T15:35:55Z</time>
      </trkpt>
      <trkpt lat="48.61333996988833" lon="-3.783634006977081">
        <ele>33.299999999999997</ele>
        <time>2018-07-05T15:35:56Z</time>
      </trkpt>
      <trkpt lat="48.613322032615542" lon="-3.783868029713631">
        <ele>33.299999999999997</ele>
        <time>2018-07-05T15:35:57Z</time>
      </trkpt>
      <trkpt lat="48.613261012360454" lon="-3.784089982509613">
        <ele>33.299999999999997</ele>
        <time>2018-07-05T15:35:58Z</time>
      </trkpt>
      <trkpt lat="48.613193035125732" lon="-3.784302966669202">
        <ele>33.299999999999997</ele>
        <time>2018-07-05T15:35:59Z</time>
      </trkpt>
      <trkpt lat="48.613105025142431" lon="-3.784502036869526">
        <ele>33.780000000000001</ele>
        <time>2018-07-05T15:36:00Z</time>
      </trkpt>
      <trkpt lat="48.613002011552453" lon="-3.784688031300902">
        <ele>34.259999999999998</ele>
        <time>2018-07-05T15:36:01Z</time>
      </trkpt>
      <trkpt lat="48.612875025719404" lon="-3.784836977720261">
        <ele>34.259999999999998</ele>
        <time>2018-07-05T15:36:02Z</time>
      </trkpt>
      <trkpt lat="48.612745022401214" lon="-3.784990031272173">
        <ele>34.740000000000002</ele>
        <time>2018-07-05T15:36:03Z</time>
      </trkpt>
      <trkpt lat="48.611507015302777" lon="-3.78642400726676">
        <ele>34.259999999999998</ele>
        <time>2018-07-05T15:36:12Z</time>
      </trkpt>
      <trkpt lat="48.611368965357542" lon="-3.786584017798305">
        <ele>34.259999999999998</ele>
        <time>2018-07-05T15:36:13Z</time>
      </trkpt>
      <trkpt lat="48.611240973696113" lon="-3.786752996966243">
        <ele>34.259999999999998</ele>
        <time>2018-07-05T15:36:14Z</time>
      </trkpt>
      <trkpt lat="48.611139971762896" lon="-3.78696002997458">
        <ele>33.780000000000001</ele>
        <time>2018-07-05T15:36:15Z</time>
      </trkpt>
      <trkpt lat="48.611063025891781" lon="-3.787192041054368">
        <ele>33.780000000000001</ele>
        <time>2018-07-05T15:36:16Z</time>
      </trkpt>
      <trkpt lat="48.611006028950214" lon="-3.787426985800266">
        <ele>33.780000000000001</ele>
        <time>2018-07-05T15:36:17Z</time>
      </trkpt>
      <trkpt lat="48.610965963453054" lon="-3.787679029628635">
        <ele>33.299999999999997</ele>
        <time>2018-07-05T15:36:18Z</time>
      </trkpt>
      <trkpt lat="48.61093201674521" lon="-3.787927972152829">
        <ele>33.299999999999997</ele>
        <time>2018-07-05T15:36:19Z</time>
      </trkpt>
      <trkpt lat="48.610919024795294" lon="-3.788183033466339">
        <ele>33.299999999999997</ele>
        <time>2018-07-05T15:36:20Z</time>
      </trkpt>
      <trkpt lat="48.610938973724842" lon="-3.788438010960817">
        <ele>33.299999999999997</ele>
        <time>2018-07-05T15:36:21Z</time>
      </trkpt>
      <trkpt lat="48.610931010916829" lon="-3.789975000545383">
        <ele>31.379999999999999</ele>
        <time>2018-07-05T15:36:27Z</time>
      </trkpt>
      <trkpt lat="48.610865967348218" lon="-3.790209023281932">
        <ele>30.899999999999999</ele>
        <time>2018-07-05T15:36:28Z</time>
      </trkpt>
      <trkpt lat="48.610800001770258" lon="-3.790448997169733">
        <ele>30.420000000000002</ele>
        <time>2018-07-05T15:36:29Z</time>
      </trkpt>
      <trkpt lat="48.610347965732217" lon="-3.792665004730225">
        <ele>27.530000000000001</ele>
        <time>2018-07-05T15:36:38Z</time>
      </trkpt>
      <trkpt lat="48.610013024881482" lon="-3.794716978445649">
        <ele>27.530000000000001</ele>
        <time>2018-07-05T15:36:46Z</time>
      </trkpt>
      <trkpt lat="48.609915962442756" lon="-3.794928034767509">
        <ele>27.530000000000001</ele>
        <time>2018-07-05T15:36:47Z</time>
      </trkpt>
      <trkpt lat="48.609782019630075" lon="-3.795077987015247">
        <ele>27.050000000000001</ele>
        <time>2018-07-05T15:36:48Z</time>
      </trkpt>
      <trkpt lat="48.609646987169981" lon="-3.795222993940115">
        <ele>27.050000000000001</ele>
        <time>2018-07-05T15:36:49Z</time>
      </trkpt>
      <trkpt lat="48.609497034922242" lon="-3.7953170388937">
        <ele>27.050000000000001</ele>
        <time>2018-07-05T15:36:50Z</time>
      </trkpt>
      <trkpt lat="48.609338030219078" lon="-3.795407982543111">
        <ele>27.530000000000001</ele>
        <time>2018-07-05T15:36:51Z</time>
      </trkpt>
      <trkpt lat="48.609173996374011" lon="-3.795501021668315">
        <ele>27.530000000000001</ele>
        <time>2018-07-05T15:36:52Z</time>
      </trkpt>
      <trkpt lat="48.608290040865541" lon="-3.796067973598838">
        <ele>30.420000000000002</ele>
        <time>2018-07-05T15:36:57Z</time>
      </trkpt>
      <trkpt lat="48.606923958286643" lon="-3.797310004010797">
        <ele>36.189999999999998</ele>
        <time>2018-07-05T15:37:05Z</time>
      </trkpt>
      <trkpt lat="48.605532981455326" lon="-3.798421025276184">
        <ele>43.399999999999999</ele>
        <time>2018-07-05T15:37:13Z</time>
      </trkpt>
      <trkpt lat="48.605330977588892" lon="-3.79854298196733">
        <ele>43.880000000000003</ele>
        <time>2018-07-05T15:37:14Z</time>
      </trkpt>
      <trkpt lat="48.605145988985896" lon="-3.798655970022082">
        <ele>44.359999999999999</ele>
        <time>2018-07-05T15:37:15Z</time>
      </trkpt>
      <trkpt lat="48.603758029639721" lon="-3.799669006839395">
        <ele>48.200000000000003</ele>
        <time>2018-07-05T15:37:23Z</time>
      </trkpt>
      <trkpt lat="48.603622997179627" lon="-3.79976799711585">
        <ele>48.68</ele>
        <time>2018-07-05T15:37:24Z</time>
      </trkpt>
      <trkpt lat="48.603425016626716" lon="-3.799965977668762">
        <ele>49.159999999999997</ele>
        <time>2018-07-05T15:37:25Z</time>
      </trkpt>
      <trkpt lat="48.60326400026679" lon="-3.800126994028688">
        <ele>50.130000000000003</ele>
        <time>2018-07-05T15:37:26Z</time>
      </trkpt>
      <trkpt lat="48.603116981685162" lon="-3.800302008166909">
        <ele>50.609999999999999</ele>
        <time>2018-07-05T15:37:27Z</time>
      </trkpt>
      <trkpt lat="48.602981027215719" lon="-3.800505017861724">
        <ele>51.57</ele>
        <time>2018-07-05T15:37:28Z</time>
      </trkpt>
      <trkpt lat="48.602843983098865" lon="-3.800710961222649">
        <ele>52.049999999999997</ele>
        <time>2018-07-05T15:37:29Z</time>
      </trkpt>
      <trkpt lat="48.602610966190696" lon="-3.801189986988902">
        <ele>53.490000000000002</ele>
        <time>2018-07-05T15:37:31Z</time>
      </trkpt>
      <trkpt lat="48.60240301117301" lon="-3.801688039675355">
        <ele>55.890000000000001</ele>
        <time>2018-07-05T15:37:33Z</time>
      </trkpt>
      <trkpt lat="48.602299997583032" lon="-3.80193698219955">
        <ele>57.340000000000003</ele>
        <time>2018-07-05T15:37:34Z</time>
      </trkpt>
      <trkpt lat="48.601383017376065" lon="-3.804187020286918">
        <ele>64.069999999999993</ele>
        <time>2018-07-05T15:37:43Z</time>
      </trkpt>
      <trkpt lat="48.600279036909342" lon="-3.806488020345569">
        <ele>71.269999999999996</ele>
        <time>2018-07-05T15:37:54Z</time>
      </trkpt>
      <trkpt lat="48.599139014258981" lon="-3.80840202793479">
        <ele>79.450000000000003</ele>
        <time>2018-07-05T15:38:04Z</time>
      </trkpt>
      <trkpt lat="48.597389040514827" lon="-3.811407024040818">
        <ele>87.620000000000005</ele>
        <time>2018-07-05T15:38:20Z</time>
      </trkpt>
      <trkpt lat="48.596227979287505" lon="-3.813928971067071">
        <ele>90.5</ele>
        <time>2018-07-05T15:38:33Z</time>
      </trkpt>
      <trkpt lat="48.595075970515609" lon="-3.816486038267613">
        <ele>90.5</ele>
        <time>2018-07-05T15:38:45Z</time>
      </trkpt>
      <trkpt lat="48.593668984249234" lon="-3.819422973319888">
        <ele>87.140000000000001</ele>
        <time>2018-07-05T15:38:59Z</time>
      </trkpt>
      <trkpt lat="48.592667011544108" lon="-3.821086026728153">
        <ele>79.450000000000003</ele>
        <time>2018-07-05T15:39:08Z</time>
      </trkpt>
      <trkpt lat="48.592400969937444" lon="-3.821525992825627">
        <ele>78</ele>
        <time>2018-07-05T15:39:11Z</time>
      </trkpt>
      <trkpt lat="48.592358976602554" lon="-3.821689020842314">
        <ele>78</ele>
        <time>2018-07-05T15:39:12Z</time>
      </trkpt>
      <trkpt lat="48.592317989096045" lon="-3.821844002231956">
        <ele>77.519999999999996</ele>
        <time>2018-07-05T15:39:13Z</time>
      </trkpt>
      <trkpt lat="48.592279013246298" lon="-3.821993032470346">
        <ele>77.519999999999996</ele>
        <time>2018-07-05T15:39:14Z</time>
      </trkpt>
      <trkpt lat="48.592271972447634" lon="-3.822143990546465">
        <ele>77.519999999999996</ele>
        <time>2018-07-05T15:39:15Z</time>
      </trkpt>
      <trkpt lat="48.59224297106266" lon="-3.822329984977841">
        <ele>77.040000000000006</ele>
        <time>2018-07-05T15:39:16Z</time>
      </trkpt>
      <trkpt lat="48.59217599965632" lon="-3.822451019659638">
        <ele>77.040000000000006</ele>
        <time>2018-07-05T15:39:17Z</time>
      </trkpt>
      <trkpt lat="48.592165019363165" lon="-3.822469962760806">
        <ele>77.040000000000006</ele>
        <time>2018-07-05T15:39:18Z</time>
      </trkpt>
      <trkpt lat="48.591967960819602" lon="-3.822641959413886">
        <ele>76.560000000000002</ele>
        <time>2018-07-05T15:39:19Z</time>
      </trkpt>
      <trkpt lat="48.59194197691977" lon="-3.82280096411705">
        <ele>76.079999999999998</ele>
        <time>2018-07-05T15:39:20Z</time>
      </trkpt>
      <trkpt lat="48.591912975534797" lon="-3.822973966598511">
        <ele>75.599999999999994</ele>
        <time>2018-07-05T15:39:21Z</time>
      </trkpt>
      <trkpt lat="48.591779032722116" lon="-3.824666021391749">
        <ele>72.239999999999995</ele>
        <time>2018-07-05T15:39:29Z</time>
      </trkpt>
      <trkpt lat="48.591969972476363" lon="-3.825888019055128">
        <ele>68.390000000000001</ele>
        <time>2018-07-05T15:39:34Z</time>
      </trkpt>
      <trkpt lat="48.592038033530116" lon="-3.826113995164633">
        <ele>67.430000000000007</ele>
        <time>2018-07-05T15:39:35Z</time>
      </trkpt>
      <trkpt lat="48.592870021238923" lon="-3.828051974996924">
        <ele>60.219999999999999</ele>
        <time>2018-07-05T15:39:45Z</time>
      </trkpt>
      <trkpt lat="48.592959959059954" lon="-3.828438967466354">
        <ele>59.259999999999998</ele>
        <time>2018-07-05T15:39:47Z</time>
      </trkpt>
      <trkpt lat="48.592991977930069" lon="-3.828629991039634">
        <ele>58.780000000000001</ele>
        <time>2018-07-05T15:39:48Z</time>
      </trkpt>
      <trkpt lat="48.593005975708365" lon="-3.828820008784533">
        <ele>58.299999999999997</ele>
        <time>2018-07-05T15:39:49Z</time>
      </trkpt>
      <trkpt lat="48.593011004850268" lon="-3.828990999609232">
        <ele>57.82</ele>
        <time>2018-07-05T15:39:50Z</time>
      </trkpt>
      <trkpt lat="48.593015028163791" lon="-3.829140029847622">
        <ele>57.340000000000003</ele>
        <time>2018-07-05T15:39:51Z</time>
      </trkpt>
      <trkpt lat="48.593018967658281" lon="-3.829279001802206">
        <ele>56.859999999999999</ele>
        <time>2018-07-05T15:39:52Z</time>
      </trkpt>
      <trkpt lat="48.593022990971804" lon="-3.829421997070313">
        <ele>56.369999999999997</ele>
        <time>2018-07-05T15:39:53Z</time>
      </trkpt>
      <trkpt lat="48.593062972649932" lon="-3.829542025923729">
        <ele>55.890000000000001</ele>
        <time>2018-07-05T15:39:54Z</time>
      </trkpt>
      <trkpt lat="48.59310002066195" lon="-3.829650990664959">
        <ele>55.409999999999997</ele>
        <time>2018-07-05T15:39:55Z</time>
      </trkpt>
      <trkpt lat="48.593065990135074" lon="-3.829799015074968">
        <ele>55.409999999999997</ele>
        <time>2018-07-05T15:39:56Z</time>
      </trkpt>
      <trkpt lat="48.593028020113707" lon="-3.829902028664947">
        <ele>54.93</ele>
        <time>2018-07-05T15:39:57Z</time>
      </trkpt>
      <trkpt lat="48.592931041494012" lon="-3.829955002292991">
        <ele>54.93</ele>
        <time>2018-07-05T15:39:58Z</time>
      </trkpt>
      <trkpt lat="48.592830961570144" lon="-3.830029014497995">
        <ele>54.450000000000003</ele>
        <time>2018-07-05T15:39:59Z</time>
      </trkpt>
      <trkpt lat="48.59273599460721" lon="-3.830139990895987">
        <ele>53.969999999999999</ele>
        <time>2018-07-05T15:40:00Z</time>
      </trkpt>
      <trkpt lat="48.59262996353209" lon="-3.830263959243894">
        <ele>53.490000000000002</ele>
        <time>2018-07-05T15:40:01Z</time>
      </trkpt>
      <trkpt lat="48.592419996857643" lon="-3.830573000013828">
        <ele>53.009999999999998</ele>
        <time>2018-07-05T15:40:03Z</time>
      </trkpt>
      <trkpt lat="48.59232603572309" lon="-3.830714989453554">
        <ele>53.009999999999998</ele>
        <time>2018-07-05T15:40:04Z</time>
      </trkpt>
      <trkpt lat="48.592238025739789" lon="-3.830824038013816">
        <ele>52.530000000000001</ele>
        <time>2018-07-05T15:40:05Z</time>
      </trkpt>
      <trkpt lat="48.592117996886373" lon="-3.830922022461891">
        <ele>52.049999999999997</ele>
        <time>2018-07-05T15:40:06Z</time>
      </trkpt>
      <trkpt lat="48.592001991346478" lon="-3.831005003303289">
        <ele>51.57</ele>
        <time>2018-07-05T15:40:07Z</time>
      </trkpt>
      <trkpt lat="48.59187601134181" lon="-3.831063006073237">
        <ele>51.090000000000003</ele>
        <time>2018-07-05T15:40:08Z</time>
      </trkpt>
      <trkpt lat="48.591752965003252" lon="-3.831120003014803">
        <ele>50.609999999999999</ele>
        <time>2018-07-05T15:40:09Z</time>
      </trkpt>
      <trkpt lat="48.590613026171923" lon="-3.831337010487914">
        <ele>43.399999999999999</ele>
        <time>2018-07-05T15:40:18Z</time>
      </trkpt>
      <trkpt lat="48.590241959318519" lon="-3.831440024077892">
        <ele>40.030000000000001</ele>
        <time>2018-07-05T15:40:21Z</time>
      </trkpt>
      <trkpt lat="48.590125031769276" lon="-3.831526022404432">
        <ele>39.07</ele>
        <time>2018-07-05T15:40:22Z</time>
      </trkpt>
      <trkpt lat="48.590019000694156" lon="-3.831631969660521">
        <ele>37.630000000000003</ele>
        <time>2018-07-05T15:40:23Z</time>
      </trkpt>
      <trkpt lat="48.589930990710855" lon="-3.831771025434136">
        <ele>36.670000000000002</ele>
        <time>2018-07-05T15:40:24Z</time>
      </trkpt>
      <trkpt lat="48.589853961020708" lon="-3.831913014873862">
        <ele>35.710000000000001</ele>
        <time>2018-07-05T15:40:25Z</time>
      </trkpt>
      <trkpt lat="48.589798975735903" lon="-3.832079982385039">
        <ele>35.229999999999997</ele>
        <time>2018-07-05T15:40:26Z</time>
      </trkpt>
      <trkpt lat="48.589777015149593" lon="-3.832264970988035">
        <ele>34.259999999999998</ele>
        <time>2018-07-05T15:40:27Z</time>
      </trkpt>
      <trkpt lat="48.589767962694168" lon="-3.832453982904553">
        <ele>33.780000000000001</ele>
        <time>2018-07-05T15:40:28Z</time>
      </trkpt>
      <trkpt lat="48.58977098017931" lon="-3.832640983164311">
        <ele>33.299999999999997</ele>
        <time>2018-07-05T15:40:29Z</time>
      </trkpt>
      <trkpt lat="48.589795958250761" lon="-3.832826977595687">
        <ele>33.299999999999997</ele>
        <time>2018-07-05T15:40:30Z</time>
      </trkpt>
      <trkpt lat="48.589821020141244" lon="-3.833010960370302">
        <ele>32.82</ele>
        <time>2018-07-05T15:40:31Z</time>
      </trkpt>
      <trkpt lat="48.59000600874424" lon="-3.834532024338841">
        <ele>28.02</ele>
        <time>2018-07-05T15:40:39Z</time>
      </trkpt>
      <trkpt lat="48.590000979602337" lon="-3.835112974047661">
        <ele>26.09</ele>
        <time>2018-07-05T15:40:42Z</time>
      </trkpt>
      <trkpt lat="48.589969966560602" lon="-3.835301985964179">
        <ele>25.609999999999999</ele>
        <time>2018-07-05T15:40:43Z</time>
      </trkpt>
      <trkpt lat="48.589923027902842" lon="-3.835480017587543">
        <ele>25.129999999999999</ele>
        <time>2018-07-05T15:40:44Z</time>
      </trkpt>
      <trkpt lat="48.589876005426049" lon="-3.835659977048636">
        <ele>24.170000000000002</ele>
        <time>2018-07-05T15:40:45Z</time>
      </trkpt>
      <trkpt lat="48.589829988777637" lon="-3.83583901450038">
        <ele>24.170000000000002</ele>
        <time>2018-07-05T15:40:46Z</time>
      </trkpt>
      <trkpt lat="48.5894709918648" lon="-3.837077021598816">
        <ele>18.879999999999999</ele>
        <time>2018-07-05T15:40:53Z</time>
      </trkpt>
      <trkpt lat="48.589388011023402" lon="-3.837225968018174">
        <ele>17.920000000000002</ele>
        <time>2018-07-05T15:40:54Z</time>
      </trkpt>
      <trkpt lat="48.589288014918566" lon="-3.837343985214829">
        <ele>16.960000000000001</ele>
        <time>2018-07-05T15:40:55Z</time>
      </trkpt>
      <trkpt lat="48.589181983843446" lon="-3.837403999641538">
        <ele>16.48</ele>
        <time>2018-07-05T15:40:56Z</time>
      </trkpt>
      <trkpt lat="48.589065978303552" lon="-3.837394025176764">
        <ele>15.52</ele>
        <time>2018-07-05T15:40:57Z</time>
      </trkpt>
      <trkpt lat="48.58895399607718" lon="-3.837383966892958">
        <ele>15.52</ele>
        <time>2018-07-05T15:40:58Z</time>
      </trkpt>
      <trkpt lat="48.588846959173679" lon="-3.837349014356732">
        <ele>14.56</ele>
        <time>2018-07-05T15:40:59Z</time>
      </trkpt>
      <trkpt lat="48.588742017745972" lon="-3.837311966344714">
        <ele>13.6</ele>
        <time>2018-07-05T15:41:00Z</time>
      </trkpt>
      <trkpt lat="48.588640009984374" lon="-3.837277013808489">
        <ele>13.119999999999999</ele>
        <time>2018-07-05T15:41:01Z</time>
      </trkpt>
      <trkpt lat="48.587713977321982" lon="-3.83695799857378">
        <ele>4.46</ele>
        <time>2018-07-05T15:41:11Z</time>
      </trkpt>
      <trkpt lat="48.586723990738392" lon="-3.836462963372469">
        <ele>-0.34</ele>
        <time>2018-07-05T15:41:21Z</time>
      </trkpt>
      <trkpt lat="48.586005996912718" lon="-3.835934987291694">
        <ele>-0.34</ele>
        <time>2018-07-05T15:41:29Z</time>
      </trkpt>
      <trkpt lat="48.585925027728081" lon="-3.835849994793534">
        <ele>-0.34</ele>
        <time>2018-07-05T15:41:30Z</time>
      </trkpt>
      <trkpt lat="48.585841041058302" lon="-3.835762990638614">
        <ele>-0.34</ele>
        <time>2018-07-05T15:41:31Z</time>
      </trkpt>
      <trkpt lat="48.584948033094406" lon="-3.834620034322143">
        <ele>1.1</ele>
        <time>2018-07-05T15:41:43Z</time>
      </trkpt>
      <trkpt lat="48.584384014829993" lon="-3.834058027714491">
        <ele>1.58</ele>
        <time>2018-07-05T15:41:51Z</time>
      </trkpt>
      <trkpt lat="48.584126019850373" lon="-3.833921989426017">
        <ele>3.02</ele>
        <time>2018-07-05T15:41:54Z</time>
      </trkpt>
      <trkpt lat="48.58360500074923" lon="-3.833655025810003">
        <ele>5.42</ele>
        <time>2018-07-05T15:42:00Z</time>
      </trkpt>
      <trkpt lat="48.583524031564593" lon="-3.83358595892787">
        <ele>5.42</ele>
        <time>2018-07-05T15:42:01Z</time>
      </trkpt>
      <trkpt lat="48.582610990852118" lon="-3.832808034494519">
        <ele>7.83</ele>
        <time>2018-07-05T15:42:12Z</time>
      </trkpt>
      <trkpt lat="48.582463972270489" lon="-3.8326829764992">
        <ele>8.310000000000001</ele>
        <time>2018-07-05T15:42:14Z</time>
      </trkpt>
      <trkpt lat="48.582394989207387" lon="-3.832623967900872">
        <ele>8.310000000000001</ele>
        <time>2018-07-05T15:42:15Z</time>
      </trkpt>
      <trkpt lat="48.582266997545958" lon="-3.832515003159642">
        <ele>8.789999999999999</ele>
        <time>2018-07-05T15:42:17Z</time>
      </trkpt>
      <trkpt lat="48.581952005624771" lon="-3.832210991531611">
        <ele>8.789999999999999</ele>
        <time>2018-07-05T15:42:23Z</time>
      </trkpt>
      <trkpt lat="48.581868018954992" lon="-3.832104038447142">
        <ele>8.789999999999999</ele>
        <time>2018-07-05T15:42:25Z</time>
      </trkpt>
      <trkpt lat="48.581831976771355" lon="-3.83205802179873">
        <ele>8.789999999999999</ele>
        <time>2018-07-05T15:42:26Z</time>
      </trkpt>
      <trkpt lat="48.58180096372962" lon="-3.832018040120602">
        <ele>8.789999999999999</ele>
        <time>2018-07-05T15:42:27Z</time>
      </trkpt>
      <trkpt lat="48.58180096372962" lon="-3.832018040120602">
        <ele>8.310000000000001</ele>
        <time>2018-07-05T15:42:28Z</time>
      </trkpt>
      <trkpt lat="48.58180096372962" lon="-3.832018040120602">
        <ele>7.83</ele>
        <time>2018-07-05T15:42:38Z</time>
      </trkpt>
      <trkpt lat="48.58177799731493" lon="-3.832001024857163">
        <ele>7.35</ele>
        <time>2018-07-05T15:42:51Z</time>
      </trkpt>
      <trkpt lat="48.581744972616434" lon="-3.831976968795061">
        <ele>7.35</ele>
        <time>2018-07-05T15:43:03Z</time>
      </trkpt>
      <trkpt lat="48.581612035632133" lon="-3.831934975460172">
        <ele>7.35</ele>
        <time>2018-07-05T15:43:04Z</time>
      </trkpt>
      <trkpt lat="48.581595020368695" lon="-3.831980992108584">
        <ele>7.35</ele>
        <time>2018-07-05T15:43:05Z</time>
      </trkpt>
      <trkpt lat="48.581569958478212" lon="-3.832048969343305">
        <ele>7.35</ele>
        <time>2018-07-05T15:43:06Z</time>
      </trkpt>
      <trkpt lat="48.581565013155341" lon="-3.832061039283872">
        <ele>6.87</ele>
        <time>2018-07-05T15:43:07Z</time>
      </trkpt>
      <trkpt lat="48.581569036468863" lon="-3.832324985414743">
        <ele>6.87</ele>
        <time>2018-07-05T15:43:08Z</time>
      </trkpt>
      <trkpt lat="48.581608012318611" lon="-3.832448031753302">
        <ele>6.87</ele>
        <time>2018-07-05T15:43:09Z</time>
      </trkpt>
      <trkpt lat="48.581641959026456" lon="-3.832507040351629">
        <ele>6.39</ele>
        <time>2018-07-05T15:43:10Z</time>
      </trkpt>
      <trkpt lat="48.581684958189726" lon="-3.832582980394363">
        <ele>6.39</ele>
        <time>2018-07-05T15:43:11Z</time>
      </trkpt>
      <trkpt lat="48.581986958160996" lon="-3.832998974248767">
        <ele>5.91</ele>
        <time>2018-07-05T15:43:17Z</time>
      </trkpt>
      <trkpt lat="48.582046972587705" lon="-3.83307097479701">
        <ele>5.91</ele>
        <time>2018-07-05T15:43:18Z</time>
      </trkpt>
      <trkpt lat="48.582105981186032" lon="-3.833143981173635">
        <ele>5.42</ele>
        <time>2018-07-05T15:43:19Z</time>
      </trkpt>
      <trkpt lat="48.582567991688848" lon="-3.833573972806335">
        <ele>3.98</ele>
        <time>2018-07-05T15:43:29Z</time>
      </trkpt>
      <trkpt lat="48.58287300914526" lon="-3.833840014412999">
        <ele>3.02</ele>
        <time>2018-07-05T15:43:35Z</time>
      </trkpt>
      <trkpt lat="48.583792001008987" lon="-3.834650041535497">
        <ele>5.91</ele>
        <time>2018-07-05T15:43:47Z</time>
      </trkpt>
      <trkpt lat="48.58418402262032" lon="-3.835026975721121">
        <ele>6.87</ele>
        <time>2018-07-05T15:43:52Z</time>
      </trkpt>
      <trkpt lat="48.584271026775241" lon="-3.835115991532803">
        <ele>7.35</ele>
        <time>2018-07-05T15:43:53Z</time>
      </trkpt>
      <trkpt lat="48.584302961826324" lon="-3.835247000679374">
        <ele>7.83</ele>
        <time>2018-07-05T15:43:54Z</time>
      </trkpt>
      <trkpt lat="48.58431201428175" lon="-3.835400976240635">
        <ele>8.310000000000001</ele>
        <time>2018-07-05T15:43:55Z</time>
      </trkpt>
      <trkpt lat="48.58431201428175" lon="-3.835545983165503">
        <ele>8.789999999999999</ele>
        <time>2018-07-05T15:43:56Z</time>
      </trkpt>
      <trkpt lat="48.58431201428175" lon="-3.835959965363145">
        <ele>9.27</ele>
        <time>2018-07-05T15:43:59Z</time>
      </trkpt>
      <trkpt lat="48.584348978474736" lon="-3.836053004488349">
        <ele>9.27</ele>
        <time>2018-07-05T15:44:00Z</time>
      </trkpt>
      <trkpt lat="48.584400024265051" lon="-3.83614000864327">
        <ele>9.75</ele>
        <time>2018-07-05T15:44:01Z</time>
      </trkpt>
      <trkpt lat="48.584474036470056" lon="-3.836193988099694">
        <ele>10.23</ele>
        <time>2018-07-05T15:44:02Z</time>
      </trkpt>
      <trkpt lat="48.584551988169551" lon="-3.83624997921288">
        <ele>10.710000000000001</ele>
        <time>2018-07-05T15:44:03Z</time>
      </trkpt>
      <trkpt lat="48.58476497232914" lon="-3.836405966430903">
        <ele>11.19</ele>
        <time>2018-07-05T15:44:06Z</time>
      </trkpt>
      <trkpt lat="48.584830015897751" lon="-3.836452988907695">
        <ele>11.19</ele>
        <time>2018-07-05T15:44:07Z</time>
      </trkpt>
      <trkpt lat="48.584868991747499" lon="-3.836481990292668">
        <ele>11.19</ele>
        <time>2018-07-05T15:44:08Z</time>
      </trkpt>
      <trkpt lat="48.585498975589871" lon="-3.836990017443895">
        <ele>8.789999999999999</ele>
        <time>2018-07-05T15:44:15Z</time>
      </trkpt>
      <trkpt lat="48.58562202192843" lon="-3.837034022435546">
        <ele>8.310000000000001</ele>
        <time>2018-07-05T15:44:16Z</time>
      </trkpt>
      <trkpt lat="48.585749007761478" lon="-3.837059000506997">
        <ele>8.310000000000001</ele>
        <time>2018-07-05T15:44:17Z</time>
      </trkpt>
      <trkpt lat="48.586141029372811" lon="-3.837133012712002">
        <ele>7.35</ele>
        <time>2018-07-05T15:44:20Z</time>
      </trkpt>
      <trkpt lat="48.586264997720718" lon="-3.837155979126692">
        <ele>7.35</ele>
        <time>2018-07-05T15:44:21Z</time>
      </trkpt>
      <trkpt lat="48.587306030094624" lon="-3.837997019290924">
        <ele>6.87</ele>
        <time>2018-07-05T15:44:31Z</time>
      </trkpt>
      <trkpt lat="48.588582007214427" lon="-3.838679976761341">
        <ele>7.35</ele>
        <time>2018-07-05T15:44:42Z</time>
      </trkpt>
      <trkpt lat="48.589690010994673" lon="-3.839369975030422">
        <ele>9.27</ele>
        <time>2018-07-05T15:44:52Z</time>
      </trkpt>
      <trkpt lat="48.591084005311131" lon="-3.84033003821969">
        <ele>8.789999999999999</ele>
        <time>2018-07-05T15:45:03Z</time>
      </trkpt>
      <trkpt lat="48.591217026114464" lon="-3.84041503071785">
        <ele>8.310000000000001</ele>
        <time>2018-07-05T15:45:04Z</time>
      </trkpt>
      <trkpt lat="48.592631975188851" lon="-3.84134097956121">
        <ele>7.83</ele>
        <time>2018-07-05T15:45:15Z</time>
      </trkpt>
      <trkpt lat="48.592772036790848" lon="-3.841366041451693">
        <ele>7.83</ele>
        <time>2018-07-05T15:45:16Z</time>
      </trkpt>
      <trkpt lat="48.592915032058954" lon="-3.841391019523144">
        <ele>7.83</ele>
        <time>2018-07-05T15:45:17Z</time>
      </trkpt>
      <trkpt lat="48.594118002802134" lon="-3.841464025899768">
        <ele>7.83</ele>
        <time>2018-07-05T15:45:26Z</time>
      </trkpt>
      <trkpt lat="48.595366990193725" lon="-3.841504007577896">
        <ele>5.42</ele>
        <time>2018-07-05T15:45:36Z</time>
      </trkpt>
      <trkpt lat="48.595490958541632" lon="-3.841508030891419">
        <ele>4.94</ele>
        <time>2018-07-05T15:45:37Z</time>
      </trkpt>
      <trkpt lat="48.596896016970277" lon="-3.841601992025971">
        <ele>4.46</ele>
        <time>2018-07-05T15:45:48Z</time>
      </trkpt>
      <trkpt lat="48.597136996686459" lon="-3.84168203920126">
        <ele>4.94</ele>
        <time>2018-07-05T15:45:50Z</time>
      </trkpt>
      <trkpt lat="48.59724797308445" lon="-3.841768959537149">
        <ele>5.42</ele>
        <time>2018-07-05T15:45:51Z</time>
      </trkpt>
      <trkpt lat="48.597357021644711" lon="-3.84185403585434">
        <ele>5.91</ele>
        <time>2018-07-05T15:45:52Z</time>
      </trkpt>
      <trkpt lat="48.598474999889731" lon="-3.843108974397183">
        <ele>6.87</ele>
        <time>2018-07-05T15:46:03Z</time>
      </trkpt>
      <trkpt lat="48.599780984222889" lon="-3.844607993960381">
        <ele>4.94</ele>
        <time>2018-07-05T15:46:16Z</time>
      </trkpt>
      <trkpt lat="48.600741969421506" lon="-3.846083963289857">
        <ele>5.42</ele>
        <time>2018-07-05T15:46:27Z</time>
      </trkpt>
      <trkpt lat="48.601582003757358" lon="-3.848442966118455">
        <ele>7.83</ele>
        <time>2018-07-05T15:46:41Z</time>
      </trkpt>
      <trkpt lat="48.602035967633128" lon="-3.849693965166807">
        <ele>7.83</ele>
        <time>2018-07-05T15:46:48Z</time>
      </trkpt>
      <trkpt lat="48.602507030591369" lon="-3.850312968716025">
        <ele>7.35</ele>
        <time>2018-07-05T15:46:52Z</time>
      </trkpt>
      <trkpt lat="48.602655977010727" lon="-3.850431991741061">
        <ele>6.87</ele>
        <time>2018-07-05T15:46:53Z</time>
      </trkpt>
      <trkpt lat="48.602816993370652" lon="-3.850552020594478">
        <ele>6.87</ele>
        <time>2018-07-05T15:46:54Z</time>
      </trkpt>
      <trkpt lat="48.603990040719509" lon="-3.851151997223496">
        <ele>6.87</ele>
        <time>2018-07-05T15:47:01Z</time>
      </trkpt>
      <trkpt lat="48.604502007365227" lon="-3.851423989981413">
        <ele>6.39</ele>
        <time>2018-07-05T15:47:04Z</time>
      </trkpt>
      <trkpt lat="48.605458969250321" lon="-3.852232005447149">
        <ele>5.42</ele>
        <time>2018-07-05T15:47:10Z</time>
      </trkpt>
      <trkpt lat="48.605607999488711" lon="-3.852412970736623">
        <ele>5.91</ele>
        <time>2018-07-05T15:47:11Z</time>
      </trkpt>
      <trkpt lat="48.606573008000851" lon="-3.853948032483459">
        <ele>5.91</ele>
        <time>2018-07-05T15:47:18Z</time>
      </trkpt>
      <trkpt lat="48.606668980792165" lon="-3.85420803911984">
        <ele>6.39</ele>
        <time>2018-07-05T15:47:19Z</time>
      </trkpt>
      <trkpt lat="48.60676595941186" lon="-3.854472991079092">
        <ele>6.39</ele>
        <time>2018-07-05T15:47:20Z</time>
      </trkpt>
      <trkpt lat="48.606967963278294" lon="-3.854988981038332">
        <ele>6.39</ele>
        <time>2018-07-05T15:47:22Z</time>
      </trkpt>
      <trkpt lat="48.607096038758755" lon="-3.855227027088404">
        <ele>6.39</ele>
        <time>2018-07-05T15:47:23Z</time>
      </trkpt>
      <trkpt lat="48.607220007106662" lon="-3.855458032339811">
        <ele>5.91</ele>
        <time>2018-07-05T15:47:24Z</time>
      </trkpt>
      <trkpt lat="48.607374988496304" lon="-3.855633968487382">
        <ele>5.91</ele>
        <time>2018-07-05T15:47:25Z</time>
      </trkpt>
      <trkpt lat="48.607542039826512" lon="-3.855792973190546">
        <ele>5.91</ele>
        <time>2018-07-05T15:47:26Z</time>
      </trkpt>
      <trkpt lat="48.607709007337689" lon="-3.85595197789371">
        <ele>5.91</ele>
        <time>2018-07-05T15:47:27Z</time>
      </trkpt>
      <trkpt lat="48.608197001740336" lon="-3.856448018923402">
        <ele>5.91</ele>
        <time>2018-07-05T15:47:30Z</time>
      </trkpt>
      <trkpt lat="48.608319964259863" lon="-3.856650022789836">
        <ele>5.91</ele>
        <time>2018-07-05T15:47:31Z</time>
      </trkpt>
      <trkpt lat="48.608427001163363" lon="-3.856857977807522">
        <ele>5.91</ele>
        <time>2018-07-05T15:47:32Z</time>
      </trkpt>
      <trkpt lat="48.608760014176369" lon="-3.857689965516329">
        <ele>5.91</ele>
        <time>2018-07-05T15:47:36Z</time>
      </trkpt>
      <trkpt lat="48.608890017494559" lon="-3.857832960784435">
        <ele>5.91</ele>
        <time>2018-07-05T15:47:37Z</time>
      </trkpt>
      <trkpt lat="48.60902396030724" lon="-3.857956007122994">
        <ele>5.91</ele>
        <time>2018-07-05T15:47:38Z</time>
      </trkpt>
      <trkpt lat="48.610400017350912" lon="-3.859245982021093">
        <ele>3.02</ele>
        <time>2018-07-05T15:47:48Z</time>
      </trkpt>
      <trkpt lat="48.611587984487414" lon="-3.860589014366269">
        <ele>2.54</ele>
        <time>2018-07-05T15:47:57Z</time>
      </trkpt>
      <trkpt lat="48.612288041040301" lon="-3.861145991832018">
        <ele>2.06</ele>
        <time>2018-07-05T15:48:02Z</time>
      </trkpt>
      <trkpt lat="48.612368004396558" lon="-3.861287981271744">
        <ele>2.06</ele>
        <time>2018-07-05T15:48:03Z</time>
      </trkpt>
      <trkpt lat="48.612463977187872" lon="-3.861457966268063">
        <ele>2.54</ele>
        <time>2018-07-05T15:48:04Z</time>
      </trkpt>
      <trkpt lat="48.61256699077785" lon="-3.86172803118825">
        <ele>2.54</ele>
        <time>2018-07-05T15:48:06Z</time>
      </trkpt>
      <trkpt lat="48.612635973840952" lon="-3.861908996477723">
        <ele>2.54</ele>
        <time>2018-07-05T15:48:07Z</time>
      </trkpt>
      <trkpt lat="48.612717026844621" lon="-3.861990971490741">
        <ele>2.54</ele>
        <time>2018-07-05T15:48:08Z</time>
      </trkpt>
      <trkpt lat="48.612817022949457" lon="-3.862089961767197">
        <ele>2.54</ele>
        <time>2018-07-05T15:48:09Z</time>
      </trkpt>
      <trkpt lat="48.612937973812222" lon="-3.86215802282095">
        <ele>2.54</ele>
        <time>2018-07-05T15:48:10Z</time>
      </trkpt>
      <trkpt lat="48.613065965473652" lon="-3.862185012549162">
        <ele>2.54</ele>
        <time>2018-07-05T15:48:11Z</time>
      </trkpt>
      <trkpt lat="48.613204015418887" lon="-3.862213008105755">
        <ele>2.54</ele>
        <time>2018-07-05T15:48:12Z</time>
      </trkpt>
      <trkpt lat="48.613646999001503" lon="-3.862285008653998">
        <ele>3.5</ele>
        <time>2018-07-05T15:48:15Z</time>
      </trkpt>
      <trkpt lat="48.613798040896654" lon="-3.862248966470361">
        <ele>3.98</ele>
        <time>2018-07-05T15:48:16Z</time>
      </trkpt>
      <trkpt lat="48.613955033943057" lon="-3.862212002277374">
        <ele>4.46</ele>
        <time>2018-07-05T15:48:17Z</time>
      </trkpt>
      <trkpt lat="48.614104986190796" lon="-3.862111000344157">
        <ele>4.94</ele>
        <time>2018-07-05T15:48:18Z</time>
      </trkpt>
      <trkpt lat="48.614247981458902" lon="-3.86200999841094">
        <ele>4.94</ele>
        <time>2018-07-05T15:48:19Z</time>
      </trkpt>
      <trkpt lat="48.614378990605474" lon="-3.86190002784133">
        <ele>5.42</ele>
        <time>2018-07-05T15:48:20Z</time>
      </trkpt>
      <trkpt lat="48.614490972831845" lon="-3.861775975674391">
        <ele>5.42</ele>
        <time>2018-07-05T15:48:21Z</time>
      </trkpt>
      <trkpt lat="48.614694988355041" lon="-3.861553017050028">
        <ele>5.42</ele>
        <time>2018-07-05T15:48:23Z</time>
      </trkpt>
      <trkpt lat="48.614795990288258" lon="-3.861454026773572">
        <ele>5.42</ele>
        <time>2018-07-05T15:48:24Z</time>
      </trkpt>
      <trkpt lat="48.614913001656532" lon="-3.861418990418315">
        <ele>5.42</ele>
        <time>2018-07-05T15:48:25Z</time>
      </trkpt>
      <trkpt lat="48.615034958347678" lon="-3.861383032053709">
        <ele>5.42</ele>
        <time>2018-07-05T15:48:26Z</time>
      </trkpt>
      <trkpt lat="48.61516697332263" lon="-3.86134397238493">
        <ele>5.42</ele>
        <time>2018-07-05T15:48:27Z</time>
      </trkpt>
      <trkpt lat="48.615308962762356" lon="-3.86130197905004">
        <ele>5.42</ele>
        <time>2018-07-05T15:48:28Z</time>
      </trkpt>
      <trkpt lat="48.615453969687223" lon="-3.861226039007306">
        <ele>5.42</ele>
        <time>2018-07-05T15:48:29Z</time>
      </trkpt>
      <trkpt lat="48.615610040724277" lon="-3.861125037074089">
        <ele>5.91</ele>
        <time>2018-07-05T15:48:30Z</time>
      </trkpt>
      <trkpt lat="48.616382014006376" lon="-3.860389022156596">
        <ele>5.42</ele>
        <time>2018-07-05T15:48:35Z</time>
      </trkpt>
      <trkpt lat="48.616513023152947" lon="-3.860213002189994">
        <ele>5.42</ele>
        <time>2018-07-05T15:48:36Z</time>
      </trkpt>
      <trkpt lat="48.616642020642757" lon="-3.860038993880153">
        <ele>5.42</ele>
        <time>2018-07-05T15:48:37Z</time>
      </trkpt>
      <trkpt lat="48.616769006475806" lon="-3.859866997227073">
        <ele>5.42</ele>
        <time>2018-07-05T15:48:38Z</time>
      </trkpt>
      <trkpt lat="48.616917030885816" lon="-3.85975400917232">
        <ele>5.42</ele>
        <time>2018-07-05T15:48:39Z</time>
      </trkpt>
      <trkpt lat="48.617071006447077" lon="-3.859658958390355">
        <ele>5.42</ele>
        <time>2018-07-05T15:48:40Z</time>
      </trkpt>
      <trkpt lat="48.617216013371944" lon="-3.859570026397705">
        <ele>5.42</ele>
        <time>2018-07-05T15:48:41Z</time>
      </trkpt>
      <trkpt lat="48.617352973669767" lon="-3.859485033899546">
        <ele>5.42</ele>
        <time>2018-07-05T15:48:42Z</time>
      </trkpt>
      <trkpt lat="48.617490017786622" lon="-3.859400963410735">
        <ele>5.42</ele>
        <time>2018-07-05T15:48:43Z</time>
      </trkpt>
      <trkpt lat="48.61761599779129" lon="-3.859262997284532">
        <ele>5.91</ele>
        <time>2018-07-05T15:48:44Z</time>
      </trkpt>
      <trkpt lat="48.617734014987946" lon="-3.859110027551651">
        <ele>5.91</ele>
        <time>2018-07-05T15:48:45Z</time>
      </trkpt>
      <trkpt lat="48.61849601380527" lon="-3.858124986290932">
        <ele>6.87</ele>
        <time>2018-07-05T15:48:53Z</time>
      </trkpt>
      <trkpt lat="48.61899096518755" lon="-3.857615031301975">
        <ele>6.87</ele>
        <time>2018-07-05T15:49:00Z</time>
      </trkpt>
      <trkpt lat="48.619317021220922" lon="-3.857314037159085">
        <ele>6.87</ele>
        <time>2018-07-05T15:49:04Z</time>
      </trkpt>
      <trkpt lat="48.619372006505728" lon="-3.857269026339054">
        <ele>6.87</ele>
        <time>2018-07-05T15:49:05Z</time>
      </trkpt>
      <trkpt lat="48.619405031204224" lon="-3.857242036610842">
        <ele>6.87</ele>
        <time>2018-07-05T15:49:06Z</time>
      </trkpt>
      <trkpt lat="48.619420034810901" lon="-3.857229966670275">
        <ele>7.35</ele>
        <time>2018-07-05T15:49:07Z</time>
      </trkpt>
      <trkpt lat="48.619420034810901" lon="-3.857229966670275">
        <ele>7.35</ele>
        <time>2018-07-05T15:49:19Z</time>
      </trkpt>
      <trkpt lat="48.619438977912068" lon="-3.857214041054249">
        <ele>7.83</ele>
        <time>2018-07-05T15:50:06Z</time>
      </trkpt>
      <trkpt lat="48.619466973468661" lon="-3.857190990820527">
        <ele>7.83</ele>
        <time>2018-07-05T15:50:07Z</time>
      </trkpt>
      <trkpt lat="48.619497986510396" lon="-3.857166012749076">
        <ele>7.83</ele>
        <time>2018-07-05T15:50:08Z</time>
      </trkpt>
      <trkpt lat="48.61952799372375" lon="-3.857142040506005">
        <ele>7.83</ele>
        <time>2018-07-05T15:50:09Z</time>
      </trkpt>
      <trkpt lat="48.61957099288702" lon="-3.857107004150748">
        <ele>8.310000000000001</ele>
        <time>2018-07-05T15:50:10Z</time>
      </trkpt>
      <trkpt lat="48.619626984000206" lon="-3.857060987502337">
        <ele>8.310000000000001</ele>
        <time>2018-07-05T15:50:11Z</time>
      </trkpt>
      <trkpt lat="48.619690015912056" lon="-3.857009019702673">
        <ele>7.83</ele>
        <time>2018-07-05T15:50:12Z</time>
      </trkpt>
      <trkpt lat="48.619765033945441" lon="-3.856950011104345">
        <ele>7.35</ele>
        <time>2018-07-05T15:50:13Z</time>
      </trkpt>
      <trkpt lat="48.620027974247932" lon="-3.856826964765787">
        <ele>6.87</ele>
        <time>2018-07-05T15:50:16Z</time>
      </trkpt>
      <trkpt lat="48.620124030858278" lon="-3.856796035543084">
        <ele>6.39</ele>
        <time>2018-07-05T15:50:17Z</time>
      </trkpt>
      <trkpt lat="48.620225032791495" lon="-3.856782037764788">
        <ele>6.39</ele>
        <time>2018-07-05T15:50:18Z</time>
      </trkpt>
      <trkpt lat="48.621031036600471" lon="-3.856813972815871">
        <ele>6.87</ele>
        <time>2018-07-05T15:50:26Z</time>
      </trkpt>
      <trkpt lat="48.622395023703575" lon="-3.857161989435554">
        <ele>8.310000000000001</ele>
        <time>2018-07-05T15:50:37Z</time>
      </trkpt>
      <trkpt lat="48.624132005497813" lon="-3.857410009950399">
        <ele>8.310000000000001</ele>
        <time>2018-07-05T15:50:49Z</time>
      </trkpt>
      <trkpt lat="48.62446703016758" lon="-3.857407998293638">
        <ele>8.310000000000001</ele>
        <time>2018-07-05T15:50:51Z</time>
      </trkpt>
      <trkpt lat="48.625705037266016" lon="-3.857230972498655">
        <ele>7.83</ele>
        <time>2018-07-05T15:50:59Z</time>
      </trkpt>
      <trkpt lat="48.626180039718747" lon="-3.857198031619191">
        <ele>7.35</ele>
        <time>2018-07-05T15:51:03Z</time>
      </trkpt>
      <trkpt lat="48.626318005844951" lon="-3.857205994427204">
        <ele>7.83</ele>
        <time>2018-07-05T15:51:04Z</time>
      </trkpt>
      <trkpt lat="48.627497004345059" lon="-3.857666999101639">
        <ele>7.35</ele>
        <time>2018-07-05T15:51:11Z</time>
      </trkpt>
      <trkpt lat="48.629311015829444" lon="-3.858570987358689">
        <ele>7.35</ele>
        <time>2018-07-05T15:51:22Z</time>
      </trkpt>
      <trkpt lat="48.630280969664454" lon="-3.859227038919926">
        <ele>6.39</ele>
        <time>2018-07-05T15:51:31Z</time>
      </trkpt>
      <trkpt lat="48.631186969578266" lon="-3.859900021925569">
        <ele>6.39</ele>
        <time>2018-07-05T15:51:39Z</time>
      </trkpt>
      <trkpt lat="48.632180979475379" lon="-3.860639976337552">
        <ele>6.39</ele>
        <time>2018-07-05T15:51:46Z</time>
      </trkpt>
      <trkpt lat="48.632324980571866" lon="-3.86078498326242">
        <ele>6.39</ele>
        <time>2018-07-05T15:51:47Z</time>
      </trkpt>
      <trkpt lat="48.632449032738805" lon="-3.860983969643712">
        <ele>6.39</ele>
        <time>2018-07-05T15:51:48Z</time>
      </trkpt>
      <trkpt lat="48.632573001086712" lon="-3.861186979338527">
        <ele>6.39</ele>
        <time>2018-07-05T15:51:49Z</time>
      </trkpt>
      <trkpt lat="48.63269898109138" lon="-3.861394012346864">
        <ele>5.91</ele>
        <time>2018-07-05T15:51:50Z</time>
      </trkpt>
      <trkpt lat="48.632803000509739" lon="-3.861625017598271">
        <ele>5.91</ele>
        <time>2018-07-05T15:51:51Z</time>
      </trkpt>
      <trkpt lat="48.634077971801162" lon="-3.864457011222839">
        <ele>9.75</ele>
        <time>2018-07-05T15:52:03Z</time>
      </trkpt>
      <trkpt lat="48.635116992518306" lon="-3.866924978792667">
        <ele>14.08</ele>
        <time>2018-07-05T15:52:13Z</time>
      </trkpt>
      <trkpt lat="48.635188993066549" lon="-3.867196971550584">
        <ele>14.56</ele>
        <time>2018-07-05T15:52:14Z</time>
      </trkpt>
      <trkpt lat="48.635226041078568" lon="-3.86748899705708">
        <ele>15.039999999999999</ele>
        <time>2018-07-05T15:52:15Z</time>
      </trkpt>
      <trkpt lat="48.635250013321638" lon="-3.867782028391957">
        <ele>15.52</ele>
        <time>2018-07-05T15:52:16Z</time>
      </trkpt>
      <trkpt lat="48.635240960866213" lon="-3.868071036413312">
        <ele>16</ele>
        <time>2018-07-05T15:52:17Z</time>
      </trkpt>
      <trkpt lat="48.635222017765045" lon="-3.868358032777906">
        <ele>16.48</ele>
        <time>2018-07-05T15:52:18Z</time>
      </trkpt>
      <trkpt lat="48.635176001116633" lon="-3.868641005828977">
        <ele>16.960000000000001</ele>
        <time>2018-07-05T15:52:19Z</time>
      </trkpt>
      <trkpt lat="48.635129984468222" lon="-3.868922973051667">
        <ele>17.440000000000001</ele>
        <time>2018-07-05T15:52:20Z</time>
      </trkpt>
      <trkpt lat="48.634952958673239" lon="-3.870373964309692">
        <ele>20.809999999999999</ele>
        <time>2018-07-05T15:52:25Z</time>
      </trkpt>
      <trkpt lat="48.634968968108296" lon="-3.870669007301331">
        <ele>20.809999999999999</ele>
        <time>2018-07-05T15:52:26Z</time>
      </trkpt>
      <trkpt lat="48.634989000856876" lon="-3.870966983959079">
        <ele>21.289999999999999</ele>
        <time>2018-07-05T15:52:27Z</time>
      </trkpt>
      <trkpt lat="48.635009033605456" lon="-3.871265966445208">
        <ele>21.289999999999999</ele>
        <time>2018-07-05T15:52:28Z</time>
      </trkpt>
      <trkpt lat="48.6350620072335" lon="-3.871566038578749">
        <ele>21.77</ele>
        <time>2018-07-05T15:52:29Z</time>
      </trkpt>
      <trkpt lat="48.635128978639841" lon="-3.871851023286581">
        <ele>21.77</ele>
        <time>2018-07-05T15:52:30Z</time>
      </trkpt>
      <trkpt lat="48.635205002501607" lon="-3.872142964974046">
        <ele>21.289999999999999</ele>
        <time>2018-07-05T15:52:31Z</time>
      </trkpt>
      <trkpt lat="48.635312039405107" lon="-3.872397020459175">
        <ele>20.809999999999999</ele>
        <time>2018-07-05T15:52:32Z</time>
      </trkpt>
      <trkpt lat="48.635416980832815" lon="-3.872648980468512">
        <ele>20.809999999999999</ele>
        <time>2018-07-05T15:52:33Z</time>
      </trkpt>
      <trkpt lat="48.635544972494245" lon="-3.872878979891539">
        <ele>20.32</ele>
        <time>2018-07-05T15:52:34Z</time>
      </trkpt>
      <trkpt lat="48.635685034096241" lon="-3.873079977929592">
        <ele>19.84</ele>
        <time>2018-07-05T15:52:35Z</time>
      </trkpt>
      <trkpt lat="48.635826017707586" lon="-3.873280975967646">
        <ele>19.84</ele>
        <time>2018-07-05T15:52:36Z</time>
      </trkpt>
      <trkpt lat="48.636938966810703" lon="-3.874458968639374">
        <ele>17.920000000000002</ele>
        <time>2018-07-05T15:52:43Z</time>
      </trkpt>
      <trkpt lat="48.637978993356228" lon="-3.875254997983575">
        <ele>16.960000000000001</ele>
        <time>2018-07-05T15:52:49Z</time>
      </trkpt>
      <trkpt lat="48.63813397474587" lon="-3.875430012121797">
        <ele>16.960000000000001</ele>
        <time>2018-07-05T15:52:50Z</time>
      </trkpt>
      <trkpt lat="48.63826397806406" lon="-3.875649031251669">
        <ele>16.960000000000001</ele>
        <time>2018-07-05T15:52:51Z</time>
      </trkpt>
      <trkpt lat="48.638385012745857" lon="-3.875878024846315">
        <ele>16.48</ele>
        <time>2018-07-05T15:52:52Z</time>
      </trkpt>
      <trkpt lat="48.638490960001945" lon="-3.876137025654316">
        <ele>16.48</ele>
        <time>2018-07-05T15:52:53Z</time>
      </trkpt>
      <trkpt lat="48.638590034097433" lon="-3.876400971785188">
        <ele>15.52</ele>
        <time>2018-07-05T15:52:54Z</time>
      </trkpt>
      <trkpt lat="48.638655999675393" lon="-3.876684028655291">
        <ele>14.56</ele>
        <time>2018-07-05T15:52:55Z</time>
      </trkpt>
      <trkpt lat="48.638721965253353" lon="-3.876969013363123">
        <ele>14.08</ele>
        <time>2018-07-05T15:52:56Z</time>
      </trkpt>
      <trkpt lat="48.638763958588243" lon="-3.877258021384478">
        <ele>13.119999999999999</ele>
        <time>2018-07-05T15:52:57Z</time>
      </trkpt>
      <trkpt lat="48.639253964647651" lon="-3.880426967516542">
        <ele>11.19</ele>
        <time>2018-07-05T15:53:08Z</time>
      </trkpt>
      <trkpt lat="48.640232970938087" lon="-3.884610962122679">
        <ele>10.710000000000001</ele>
        <time>2018-07-05T15:53:23Z</time>
      </trkpt>
      <trkpt lat="48.641212983056903" lon="-3.887501964345574">
        <ele>10.710000000000001</ele>
        <time>2018-07-05T15:53:34Z</time>
      </trkpt>
      <trkpt lat="48.642203975468874" lon="-3.890376035124064">
        <ele>13.6</ele>
        <time>2018-07-05T15:53:45Z</time>
      </trkpt>
      <trkpt lat="48.643124978989363" lon="-3.893021028488874">
        <ele>10.23</ele>
        <time>2018-07-05T15:53:55Z</time>
      </trkpt>
      <trkpt lat="48.643185999244452" lon="-3.893277011811733">
        <ele>10.23</ele>
        <time>2018-07-05T15:53:56Z</time>
      </trkpt>
      <trkpt lat="48.643219023942947" lon="-3.893525032326579">
        <ele>9.75</ele>
        <time>2018-07-05T15:53:57Z</time>
      </trkpt>
      <trkpt lat="48.643228998407722" lon="-3.893777998164296">
        <ele>9.75</ele>
        <time>2018-07-05T15:53:58Z</time>
      </trkpt>
      <trkpt lat="48.643218018114567" lon="-3.894044039770961">
        <ele>9.75</ele>
        <time>2018-07-05T15:53:59Z</time>
      </trkpt>
      <trkpt lat="48.643191028386354" lon="-3.894315026700497">
        <ele>9.75</ele>
        <time>2018-07-05T15:54:00Z</time>
      </trkpt>
      <trkpt lat="48.643151968717575" lon="-3.894595988094807">
        <ele>9.75</ele>
        <time>2018-07-05T15:54:01Z</time>
      </trkpt>
      <trkpt lat="48.643105030059814" lon="-3.896632036194205">
        <ele>14.56</ele>
        <time>2018-07-05T15:54:08Z</time>
      </trkpt>
      <trkpt lat="48.64365697838366" lon="-3.899045018479228">
        <ele>25.609999999999999</ele>
        <time>2018-07-05T15:54:17Z</time>
      </trkpt>
      <trkpt lat="48.64393500611186" lon="-3.900030981749296">
        <ele>31.379999999999999</ele>
        <time>2018-07-05T15:54:21Z</time>
      </trkpt>
      <trkpt lat="48.644038019701838" lon="-3.900246983394027">
        <ele>32.340000000000003</ele>
        <time>2018-07-05T15:54:22Z</time>
      </trkpt>
      <trkpt lat="48.644156958907843" lon="-3.900445969775319">
        <ele>33.780000000000001</ele>
        <time>2018-07-05T15:54:23Z</time>
      </trkpt>
      <trkpt lat="48.644291991367936" lon="-3.900622995570302">
        <ele>35.229999999999997</ele>
        <time>2018-07-05T15:54:24Z</time>
      </trkpt>
      <trkpt lat="48.644426017999649" lon="-3.900800021365285">
        <ele>36.670000000000002</ele>
        <time>2018-07-05T15:54:25Z</time>
      </trkpt>
      <trkpt lat="48.644571024924517" lon="-3.900948967784643">
        <ele>37.630000000000003</ele>
        <time>2018-07-05T15:54:26Z</time>
      </trkpt>
      <trkpt lat="48.6447290237993" lon="-3.901064973324537">
        <ele>38.590000000000003</ele>
        <time>2018-07-05T15:54:27Z</time>
      </trkpt>
      <trkpt lat="48.644884005188942" lon="-3.90117796137929">
        <ele>39.549999999999997</ele>
        <time>2018-07-05T15:54:28Z</time>
      </trkpt>
      <trkpt lat="48.645036974921823" lon="-3.901290027424693">
        <ele>40.509999999999998</ele>
        <time>2018-07-05T15:54:29Z</time>
      </trkpt>
      <trkpt lat="48.645205032080412" lon="-3.901344006881118">
        <ele>41.469999999999999</ele>
        <time>2018-07-05T15:54:30Z</time>
      </trkpt>
      <trkpt lat="48.645371999591589" lon="-3.901388011872768">
        <ele>42.439999999999998</ele>
        <time>2018-07-05T15:54:31Z</time>
      </trkpt>
      <trkpt lat="48.645533015951514" lon="-3.90141298994422">
        <ele>43.399999999999999</ele>
        <time>2018-07-05T15:54:32Z</time>
      </trkpt>
      <trkpt lat="48.645682968199253" lon="-3.90141298994422">
        <ele>44.359999999999999</ele>
        <time>2018-07-05T15:54:33Z</time>
      </trkpt>
      <trkpt lat="48.646822990849614" lon="-3.901516003534198">
        <ele>53.009999999999998</ele>
        <time>2018-07-05T15:54:42Z</time>
      </trkpt>
      <trkpt lat="48.647817000746727" lon="-3.902197033166885">
        <ele>59.259999999999998</ele>
        <time>2018-07-05T15:54:51Z</time>
      </trkpt>
      <trkpt lat="48.648892985656857" lon="-3.903596978634596">
        <ele>56.859999999999999</ele>
        <time>2018-07-05T15:55:02Z</time>
      </trkpt>
      <trkpt lat="48.649955978617072" lon="-3.905071020126343">
        <ele>59.259999999999998</ele>
        <time>2018-07-05T15:55:14Z</time>
      </trkpt>
      <trkpt lat="48.650021022185683" lon="-3.905161963775754">
        <ele>59.740000000000002</ele>
        <time>2018-07-05T15:55:15Z</time>
      </trkpt>
      <trkpt lat="48.650073995813727" lon="-3.905236981809139">
        <ele>59.740000000000002</ele>
        <time>2018-07-05T15:55:16Z</time>
      </trkpt>
      <trkpt lat="48.650238029658794" lon="-3.905250979587436">
        <ele>60.700000000000003</ele>
        <time>2018-07-05T15:55:18Z</time>
      </trkpt>
      <trkpt lat="48.650271976366639" lon="-3.90534502454102">
        <ele>61.18</ele>
        <time>2018-07-05T15:55:19Z</time>
      </trkpt>
      <trkpt lat="48.650271976366639" lon="-3.905404033139348">
        <ele>61.659999999999997</ele>
        <time>2018-07-05T15:55:20Z</time>
      </trkpt>
      <trkpt lat="48.650231994688511" lon="-3.905504029244185">
        <ele>61.659999999999997</ele>
        <time>2018-07-05T15:55:21Z</time>
      </trkpt>
      <trkpt lat="48.65022998303175" lon="-3.905510986223817">
        <ele>61.659999999999997</ele>
        <time>2018-07-05T15:55:22Z</time>
      </trkpt>
      <trkpt lat="48.65010199137032" lon="-3.905664039775729">
        <ele>62.140000000000001</ele>
        <time>2018-07-05T15:55:23Z</time>
      </trkpt>
      <trkpt lat="48.650082964450121" lon="-3.905791025608778">
        <ele>62.140000000000001</ele>
        <time>2018-07-05T15:55:24Z</time>
      </trkpt>
      <trkpt lat="48.650069972500205" lon="-3.905941983684897">
        <ele>62.619999999999997</ele>
        <time>2018-07-05T15:55:25Z</time>
      </trkpt>
      <trkpt lat="48.65005798637867" lon="-3.906104005873203">
        <ele>62.619999999999997</ele>
        <time>2018-07-05T15:55:26Z</time>
      </trkpt>
      <trkpt lat="48.650046000257134" lon="-3.906274996697903">
        <ele>62.619999999999997</ele>
        <time>2018-07-05T15:55:27Z</time>
      </trkpt>
      <trkpt lat="48.650043988600373" lon="-3.906460991129279">
        <ele>62.619999999999997</ele>
        <time>2018-07-05T15:55:28Z</time>
      </trkpt>
      <trkpt lat="48.650072989985347" lon="-3.906638016924262">
        <ele>62.619999999999997</ele>
        <time>2018-07-05T15:55:29Z</time>
      </trkpt>
      <trkpt lat="48.65010098554194" lon="-3.906815964728594">
        <ele>62.619999999999997</ele>
        <time>2018-07-05T15:55:30Z</time>
      </trkpt>
      <trkpt lat="48.650139039382339" lon="-3.906992990523577">
        <ele>62.619999999999997</ele>
        <time>2018-07-05T15:55:31Z</time>
      </trkpt>
      <trkpt lat="48.650253033265471" lon="-3.907292978838086">
        <ele>63.579999999999998</ele>
        <time>2018-07-05T15:55:33Z</time>
      </trkpt>
      <trkpt lat="48.65093800239265" lon="-3.90871798619628">
        <ele>63.100000000000001</ele>
        <time>2018-07-05T15:55:43Z</time>
      </trkpt>
      <trkpt lat="48.651718022301793" lon="-3.910637022927404">
        <ele>60.700000000000003</ele>
        <time>2018-07-05T15:55:54Z</time>
      </trkpt>
      <trkpt lat="48.651910973712802" lon="-3.912462014704943">
        <ele>56.859999999999999</ele>
        <time>2018-07-05T15:56:02Z</time>
      </trkpt>
      <trkpt lat="48.651867974549532" lon="-3.91553096473217">
        <ele>50.130000000000003</ele>
        <time>2018-07-05T15:56:14Z</time>
      </trkpt>
      <trkpt lat="48.651787005364895" lon="-3.918352983891964">
        <ele>47.719999999999999</ele>
        <time>2018-07-05T15:56:25Z</time>
      </trkpt>
      <trkpt lat="48.651976017281413" lon="-3.921386981382966">
        <ele>40.030000000000001</ele>
        <time>2018-07-05T15:56:37Z</time>
      </trkpt>
      <trkpt lat="48.651913991197944" lon="-3.92251200042665">
        <ele>36.189999999999998</ele>
        <time>2018-07-05T15:56:44Z</time>
      </trkpt>
      <trkpt lat="48.652010969817638" lon="-3.922720039263368">
        <ele>35.710000000000001</ele>
        <time>2018-07-05T15:56:45Z</time>
      </trkpt>
      <trkpt lat="48.652024967595935" lon="-3.922853982076049">
        <ele>34.740000000000002</ele>
        <time>2018-07-05T15:56:47Z</time>
      </trkpt>
      <trkpt lat="48.652010969817638" lon="-3.922912990674377">
        <ele>34.740000000000002</ele>
        <time>2018-07-05T15:56:48Z</time>
      </trkpt>
      <trkpt lat="48.651892030611634" lon="-3.923046011477709">
        <ele>34.740000000000002</ele>
        <time>2018-07-05T15:56:49Z</time>
      </trkpt>
      <trkpt lat="48.651871997863054" lon="-3.92317702062428">
        <ele>34.259999999999998</ele>
        <time>2018-07-05T15:56:50Z</time>
      </trkpt>
      <trkpt lat="48.651849031448364" lon="-3.923324039205909">
        <ele>34.259999999999998</ele>
        <time>2018-07-05T15:56:51Z</time>
      </trkpt>
      <trkpt lat="48.651835033670068" lon="-3.923492012545466">
        <ele>33.780000000000001</ele>
        <time>2018-07-05T15:56:52Z</time>
      </trkpt>
      <trkpt lat="48.651826987043023" lon="-3.923674989491701">
        <ele>33.780000000000001</ele>
        <time>2018-07-05T15:56:53Z</time>
      </trkpt>
      <trkpt lat="48.65181902423501" lon="-3.923871964216232">
        <ele>33.299999999999997</ele>
        <time>2018-07-05T15:56:54Z</time>
      </trkpt>
      <trkpt lat="48.651850959286094" lon="-3.925784965977073">
        <ele>30.899999999999999</ele>
        <time>2018-07-05T15:57:02Z</time>
      </trkpt>
      <trkpt lat="48.651978028938174" lon="-3.929545003920794">
        <ele>24.649999999999999</ele>
        <time>2018-07-05T15:57:15Z</time>
      </trkpt>
      <trkpt lat="48.651622971519828" lon="-3.931484995409846">
        <ele>26.09</ele>
        <time>2018-07-05T15:57:22Z</time>
      </trkpt>
      <trkpt lat="48.650536006316543" lon="-3.934269966557622">
        <ele>38.109999999999999</ele>
        <time>2018-07-05T15:57:33Z</time>
      </trkpt>
      <trkpt lat="48.649626988917589" lon="-3.937581991776824">
        <ele>45.799999999999997</ele>
        <time>2018-07-05T15:57:45Z</time>
      </trkpt>
      <trkpt lat="48.648637002333999" lon="-3.941186964511871">
        <ele>46.280000000000001</ele>
        <time>2018-07-05T15:57:58Z</time>
      </trkpt>
      <trkpt lat="48.647798979654908" lon="-3.942842977121472">
        <ele>40.509999999999998</ele>
        <time>2018-07-05T15:58:06Z</time>
      </trkpt>
      <trkpt lat="48.646582011133432" lon="-3.945227963849902">
        <ele>29.940000000000001</ele>
        <time>2018-07-05T15:58:19Z</time>
      </trkpt>
      <trkpt lat="48.646093010902405" lon="-3.946180986240506">
        <ele>25.129999999999999</ele>
        <time>2018-07-05T15:58:25Z</time>
      </trkpt>
      <trkpt lat="48.646021010354161" lon="-3.94631995819509">
        <ele>24.170000000000002</ele>
        <time>2018-07-05T15:58:26Z</time>
      </trkpt>
      <trkpt lat="48.645698977634311" lon="-3.946905015036464">
        <ele>21.289999999999999</ele>
        <time>2018-07-05T15:58:31Z</time>
      </trkpt>
      <trkpt lat="48.645648015663028" lon="-3.946952037513256">
        <ele>20.809999999999999</ele>
        <time>2018-07-05T15:58:32Z</time>
      </trkpt>
      <trkpt lat="48.645534021779895" lon="-3.947056978940964">
        <ele>19.359999999999999</ele>
        <time>2018-07-05T15:58:39Z</time>
      </trkpt>
      <trkpt lat="48.645444000139832" lon="-3.947139037773013">
        <ele>19.359999999999999</ele>
        <time>2018-07-05T15:58:42Z</time>
      </trkpt>
      <trkpt lat="48.645425979048014" lon="-3.947174996137619">
        <ele>19.359999999999999</ele>
        <time>2018-07-05T15:58:43Z</time>
      </trkpt>
      <trkpt lat="48.645165972411633" lon="-3.947568023577333">
        <ele>18.879999999999999</ele>
        <time>2018-07-05T15:58:48Z</time>
      </trkpt>
      <trkpt lat="48.645131019875407" lon="-3.947710013017058">
        <ele>18.399999999999999</ele>
        <time>2018-07-05T15:58:49Z</time>
      </trkpt>
      <trkpt lat="48.64509598352015" lon="-3.947853008285165">
        <ele>18.399999999999999</ele>
        <time>2018-07-05T15:58:50Z</time>
      </trkpt>
      <trkpt lat="48.645060025155544" lon="-3.948002960532904">
        <ele>18.399999999999999</ele>
        <time>2018-07-05T15:58:51Z</time>
      </trkpt>
      <trkpt lat="48.645022977143526" lon="-3.948157019913197">
        <ele>18.399999999999999</ele>
        <time>2018-07-05T15:58:52Z</time>
      </trkpt>
      <trkpt lat="48.64494401961565" lon="-3.948921030387282">
        <ele>17.920000000000002</ele>
        <time>2018-07-05T15:58:56Z</time>
      </trkpt>
      <trkpt lat="48.644778979942203" lon="-3.951558982953429">
        <ele>20.32</ele>
        <time>2018-07-05T15:59:08Z</time>
      </trkpt>
      <trkpt lat="48.644675966352224" lon="-3.953758981078863">
        <ele>20.809999999999999</ele>
        <time>2018-07-05T15:59:19Z</time>
      </trkpt>
      <trkpt lat="48.644801024347544" lon="-3.954691970720887">
        <ele>20.32</ele>
        <time>2018-07-05T15:59:23Z</time>
      </trkpt>
      <trkpt lat="48.644851986318827" lon="-3.95493496209383">
        <ele>19.84</ele>
        <time>2018-07-05T15:59:24Z</time>
      </trkpt>
      <trkpt lat="48.644919963553548" lon="-3.955170996487141">
        <ele>20.32</ele>
        <time>2018-07-05T15:59:25Z</time>
      </trkpt>
      <trkpt lat="48.645022977143526" lon="-3.955388003960252">
        <ele>20.32</ele>
        <time>2018-07-05T15:59:26Z</time>
      </trkpt>
      <trkpt lat="48.645129008218646" lon="-3.955611968412995">
        <ele>20.32</ele>
        <time>2018-07-05T15:59:27Z</time>
      </trkpt>
      <trkpt lat="48.645235961303115" lon="-3.955839034169912">
        <ele>20.32</ele>
        <time>2018-07-05T15:59:28Z</time>
      </trkpt>
      <trkpt lat="48.645379040390253" lon="-3.956018993631005">
        <ele>20.32</ele>
        <time>2018-07-05T15:59:29Z</time>
      </trkpt>
      <trkpt lat="48.645526980981231" lon="-3.956188978627324">
        <ele>19.84</ele>
        <time>2018-07-05T15:59:30Z</time>
      </trkpt>
      <trkpt lat="48.645681040361524" lon="-3.956366004422307">
        <ele>19.84</ele>
        <time>2018-07-05T15:59:31Z</time>
      </trkpt>
      <trkpt lat="48.645836021751165" lon="-3.956476980820298">
        <ele>19.359999999999999</ele>
        <time>2018-07-05T15:59:32Z</time>
      </trkpt>
      <trkpt lat="48.646006006747484" lon="-3.956598015502095">
        <ele>19.359999999999999</ele>
        <time>2018-07-05T15:59:33Z</time>
      </trkpt>
      <trkpt lat="48.648369032889605" lon="-3.958103992044926">
        <ele>15.52</ele>
        <time>2018-07-05T15:59:46Z</time>
      </trkpt>
      <trkpt lat="48.650054968893528" lon="-3.959511984139681">
        <ele>24.170000000000002</ele>
        <time>2018-07-05T15:59:56Z</time>
      </trkpt>
      <trkpt lat="48.651342010125518" lon="-3.96146203391254">
        <ele>36.189999999999998</ele>
        <time>2018-07-05T16:00:05Z</time>
      </trkpt>
      <trkpt lat="48.65242000669241" lon="-3.962318999692798">
        <ele>43.399999999999999</ele>
        <time>2018-07-05T16:00:11Z</time>
      </trkpt>
      <trkpt lat="48.654670966789126" lon="-3.963768985122442">
        <ele>50.609999999999999</ele>
        <time>2018-07-05T16:00:23Z</time>
      </trkpt>
      <trkpt lat="48.65721495822072" lon="-3.966358993202448">
        <ele>54.93</ele>
        <time>2018-07-05T16:00:38Z</time>
      </trkpt>
      <trkpt lat="48.658379036933184" lon="-3.966884035617113">
        <ele>52.530000000000001</ele>
        <time>2018-07-05T16:00:44Z</time>
      </trkpt>
      <trkpt lat="48.660522038117051" lon="-3.967857006937265">
        <ele>47.719999999999999</ele>
        <time>2018-07-05T16:00:55Z</time>
      </trkpt>
      <trkpt lat="48.663242971524596" lon="-3.970609959214926">
        <ele>35.229999999999997</ele>
        <time>2018-07-05T16:01:11Z</time>
      </trkpt>
      <trkpt lat="48.664563959464431" lon="-3.972680037841201">
        <ele>25.609999999999999</ele>
        <time>2018-07-05T16:01:21Z</time>
      </trkpt>
      <trkpt lat="48.664964027702808" lon="-3.973377998918295">
        <ele>23.210000000000001</ele>
        <time>2018-07-05T16:01:25Z</time>
      </trkpt>
      <trkpt lat="48.665077015757561" lon="-3.973533986136317">
        <ele>22.73</ele>
        <time>2018-07-05T16:01:26Z</time>
      </trkpt>
      <trkpt lat="48.665200984105468" lon="-3.973681004717946">
        <ele>21.77</ele>
        <time>2018-07-05T16:01:27Z</time>
      </trkpt>
      <trkpt lat="48.666271017864347" lon="-3.975155968219042">
        <ele>16.48</ele>
        <time>2018-07-05T16:01:35Z</time>
      </trkpt>
      <trkpt lat="48.667371980845928" lon="-3.976705027744174">
        <ele>16.960000000000001</ele>
        <time>2018-07-05T16:01:43Z</time>
      </trkpt>
      <trkpt lat="48.667509024962783" lon="-3.976841988041997">
        <ele>17.440000000000001</ele>
        <time>2018-07-05T16:01:44Z</time>
      </trkpt>
      <trkpt lat="48.667649002745748" lon="-3.976972997188568">
        <ele>17.920000000000002</ele>
        <time>2018-07-05T16:01:45Z</time>
      </trkpt>
      <trkpt lat="48.667814964428544" lon="-3.977052960544825">
        <ele>18.399999999999999</ele>
        <time>2018-07-05T16:01:46Z</time>
      </trkpt>
      <trkpt lat="48.667986039072275" lon="-3.977136025205255">
        <ele>18.879999999999999</ele>
        <time>2018-07-05T16:01:47Z</time>
      </trkpt>
      <trkpt lat="48.669217005372047" lon="-3.978129029273987">
        <ele>23.690000000000001</ele>
        <time>2018-07-05T16:01:54Z</time>
      </trkpt>
      <trkpt lat="48.670879974961281" lon="-3.979359995573759">
        <ele>22.73</ele>
        <time>2018-07-05T16:02:03Z</time>
      </trkpt>
      <trkpt lat="48.672400033101439" lon="-3.979957960546017">
        <ele>21.77</ele>
        <time>2018-07-05T16:02:11Z</time>
      </trkpt>
      <trkpt lat="48.673567967489362" lon="-3.980475962162018">
        <ele>21.77</ele>
        <time>2018-07-05T16:02:20Z</time>
      </trkpt>
      <trkpt lat="48.674482014030218" lon="-3.980956999585033">
        <ele>21.289999999999999</ele>
        <time>2018-07-05T16:02:28Z</time>
      </trkpt>
      <trkpt lat="48.674605982378125" lon="-3.980988012626767">
        <ele>21.289999999999999</ele>
        <time>2018-07-05T16:02:29Z</time>
      </trkpt>
      <trkpt lat="48.674731040373445" lon="-3.980998992919922">
        <ele>20.809999999999999</ele>
        <time>2018-07-05T16:02:30Z</time>
      </trkpt>
      <trkpt lat="48.675852958112955" lon="-3.980749966576695">
        <ele>17.920000000000002</ele>
        <time>2018-07-05T16:02:39Z</time>
      </trkpt>
      <trkpt lat="48.676105001941323" lon="-3.980723982676864">
        <ele>17.440000000000001</ele>
        <time>2018-07-05T16:02:41Z</time>
      </trkpt>
      <trkpt lat="48.67622897028923" lon="-3.980734962970018">
        <ele>17.440000000000001</ele>
        <time>2018-07-05T16:02:42Z</time>
      </trkpt>
      <trkpt lat="48.676350004971027" lon="-3.98075801320374">
        <ele>16.960000000000001</ele>
        <time>2018-07-05T16:02:43Z</time>
      </trkpt>
      <trkpt lat="48.676428962498903" lon="-3.980783997103572">
        <ele>16.960000000000001</ele>
        <time>2018-07-05T16:02:44Z</time>
      </trkpt>
      <trkpt lat="48.676586039364338" lon="-3.980833031237125">
        <ele>16.48</ele>
        <time>2018-07-05T16:02:45Z</time>
      </trkpt>
      <trkpt lat="48.676704978570342" lon="-3.980868989601731">
        <ele>16</ele>
        <time>2018-07-05T16:02:46Z</time>
      </trkpt>
      <trkpt lat="48.678172985091805" lon="-3.981220023706555">
        <ele>15.52</ele>
        <time>2018-07-05T16:02:58Z</time>
      </trkpt>
      <trkpt lat="48.678297037258744" lon="-3.981247013434768">
        <ele>15.52</ele>
        <time>2018-07-05T16:02:59Z</time>
      </trkpt>
      <trkpt lat="48.678412958979607" lon="-3.981300992891192">
        <ele>16</ele>
        <time>2018-07-05T16:03:00Z</time>
      </trkpt>
      <trkpt lat="48.678530976176262" lon="-3.981370981782675">
        <ele>16</ele>
        <time>2018-07-05T16:03:01Z</time>
      </trkpt>
      <trkpt lat="48.678763993084431" lon="-3.98150903172791">
        <ele>16.48</ele>
        <time>2018-07-05T16:03:03Z</time>
      </trkpt>
      <trkpt lat="48.678874969482422" lon="-3.981576003134251">
        <ele>16.48</ele>
        <time>2018-07-05T16:03:04Z</time>
      </trkpt>
      <trkpt lat="48.679776024073362" lon="-3.982207998633385">
        <ele>16</ele>
        <time>2018-07-05T16:03:12Z</time>
      </trkpt>
      <trkpt lat="48.681218968704343" lon="-3.983639962971211">
        <ele>22.25</ele>
        <time>2018-07-05T16:03:26Z</time>
      </trkpt>
      <trkpt lat="48.681331034749746" lon="-3.983690002933145">
        <ele>22.25</ele>
        <time>2018-07-05T16:03:27Z</time>
      </trkpt>
      <trkpt lat="48.681432958692312" lon="-3.983724033460021">
        <ele>22.25</ele>
        <time>2018-07-05T16:03:28Z</time>
      </trkpt>
      <trkpt lat="48.681522980332375" lon="-3.983724033460021">
        <ele>22.73</ele>
        <time>2018-07-05T16:03:29Z</time>
      </trkpt>
      <trkpt lat="48.681601015850902" lon="-3.983724033460021">
        <ele>22.73</ele>
        <time>2018-07-05T16:03:30Z</time>
      </trkpt>
      <trkpt lat="48.681657006964087" lon="-3.983710035681725">
        <ele>23.210000000000001</ele>
        <time>2018-07-05T16:03:31Z</time>
      </trkpt>
      <trkpt lat="48.681703023612499" lon="-3.983698971569538">
        <ele>23.210000000000001</ele>
        <time>2018-07-05T16:03:32Z</time>
      </trkpt>
      <trkpt lat="48.681796984747052" lon="-3.983616996556521">
        <ele>24.170000000000002</ele>
        <time>2018-07-05T16:03:39Z</time>
      </trkpt>
      <trkpt lat="48.68183696642518" lon="-3.983616996556521">
        <ele>24.649999999999999</ele>
        <time>2018-07-05T16:03:40Z</time>
      </trkpt>
      <trkpt lat="48.681875020265579" lon="-3.983711963519454">
        <ele>24.649999999999999</ele>
        <time>2018-07-05T16:03:41Z</time>
      </trkpt>
      <trkpt lat="48.681906033307314" lon="-3.983795028179884">
        <ele>24.649999999999999</ele>
        <time>2018-07-05T16:03:42Z</time>
      </trkpt>
      <trkpt lat="48.681940985843539" lon="-3.983888989314437">
        <ele>24.649999999999999</ele>
        <time>2018-07-05T16:03:43Z</time>
      </trkpt>
      <trkpt lat="48.681974010542035" lon="-3.983978005126119">
        <ele>24.649999999999999</ele>
        <time>2018-07-05T16:03:44Z</time>
      </trkpt>
      <trkpt lat="48.682232005521655" lon="-3.984671020880342">
        <ele>25.609999999999999</ele>
        <time>2018-07-05T16:03:54Z</time>
      </trkpt>
      <trkpt lat="48.682339964434505" lon="-3.984973020851612">
        <ele>26.09</ele>
        <time>2018-07-05T16:03:58Z</time>
      </trkpt>
      <trkpt lat="48.682642970234156" lon="-3.985822023823857">
        <ele>28.98</ele>
        <time>2018-07-05T16:04:09Z</time>
      </trkpt>
      <trkpt lat="48.682943964377046" lon="-3.986661974340677">
        <ele>33.299999999999997</ele>
        <time>2018-07-05T16:04:20Z</time>
      </trkpt>
      <trkpt lat="48.682967014610767" lon="-3.986728023737669">
        <ele>33.780000000000001</ele>
        <time>2018-07-05T16:04:21Z</time>
      </trkpt>
      <trkpt lat="48.682989981025457" lon="-3.986789966002107">
        <ele>34.259999999999998</ele>
        <time>2018-07-05T16:04:22Z</time>
      </trkpt>
      <trkpt lat="48.683010013774037" lon="-3.986846040934324">
        <ele>34.740000000000002</ele>
        <time>2018-07-05T16:04:23Z</time>
      </trkpt>
      <trkpt lat="48.683026023209095" lon="-3.986890967935324">
        <ele>35.229999999999997</ele>
        <time>2018-07-05T16:04:24Z</time>
      </trkpt>
      <trkpt lat="48.683095006272197" lon="-3.986974032595754">
        <ele>36.189999999999998</ele>
        <time>2018-07-05T16:04:26Z</time>
      </trkpt>
      <trkpt lat="48.683132976293564" lon="-3.986961040645838">
        <ele>36.670000000000002</ele>
        <time>2018-07-05T16:04:27Z</time>
      </trkpt>
      <trkpt lat="48.683283012360334" lon="-3.986908989027143">
        <ele>38.590000000000003</ele>
        <time>2018-07-05T16:04:31Z</time>
      </trkpt>
      <trkpt lat="48.683323999866843" lon="-3.986894991248846">
        <ele>39.07</ele>
        <time>2018-07-05T16:04:32Z</time>
      </trkpt>
      <trkpt lat="48.683590963482857" lon="-3.986803041771054">
        <ele>40.509999999999998</ele>
        <time>2018-07-05T16:04:38Z</time>
      </trkpt>
      <trkpt lat="48.683635974302888" lon="-3.986788038164377">
        <ele>40.509999999999998</ele>
        <time>2018-07-05T16:04:39Z</time>
      </trkpt>
      <trkpt lat="48.683678973466158" lon="-3.9867730345577">
        <ele>40.509999999999998</ele>
        <time>2018-07-05T16:04:40Z</time>
      </trkpt>
      <trkpt lat="48.683774024248123" lon="-3.986740009859204">
        <ele>40.990000000000002</ele>
        <time>2018-07-05T16:04:42Z</time>
      </trkpt>
      <trkpt lat="48.683817023411393" lon="-3.986725006252527">
        <ele>40.990000000000002</ele>
        <time>2018-07-05T16:04:43Z</time>
      </trkpt>
      <trkpt lat="48.683860022574663" lon="-3.98670899681747">
        <ele>41.469999999999999</ele>
        <time>2018-07-05T16:04:44Z</time>
      </trkpt>
      <trkpt lat="48.684113994240761" lon="-3.986619981005788">
        <ele>42.920000000000002</ele>
        <time>2018-07-05T16:04:49Z</time>
      </trkpt>
      <trkpt lat="48.684161016717553" lon="-3.986604977399111">
        <ele>42.920000000000002</ele>
        <time>2018-07-05T16:04:50Z</time>
      </trkpt>
      <trkpt lat="48.684210972860456" lon="-3.986587962135673">
        <ele>43.399999999999999</ele>
        <time>2018-07-05T16:04:51Z</time>
      </trkpt>
      <trkpt lat="48.68426101282239" lon="-3.986571030691266">
        <ele>43.880000000000003</ele>
        <time>2018-07-05T16:04:52Z</time>
      </trkpt>
      <trkpt lat="48.68432697840035" lon="-3.986548986285925">
        <ele>43.880000000000003</ele>
        <time>2018-07-05T16:04:53Z</time>
      </trkpt>
      <trkpt lat="48.684387998655438" lon="-3.986534988507628">
        <ele>43.880000000000003</ele>
        <time>2018-07-05T16:04:54Z</time>
      </trkpt>
      <trkpt lat="48.684447007253766" lon="-3.986534988507628">
        <ele>44.359999999999999</ele>
        <time>2018-07-05T16:04:55Z</time>
      </trkpt>
      <trkpt lat="48.684501992538571" lon="-3.986534988507628">
        <ele>44.359999999999999</ele>
        <time>2018-07-05T16:04:56Z</time>
      </trkpt>
      <trkpt lat="48.684539962559938" lon="-3.986534988507628">
        <ele>44.840000000000003</ele>
        <time>2018-07-05T16:04:57Z</time>
      </trkpt>
      <trkpt lat="48.684586985036731" lon="-3.986582010984421">
        <ele>45.32</ele>
        <time>2018-07-05T16:04:58Z</time>
      </trkpt>
      <trkpt lat="48.68464800529182" lon="-3.986642025411129">
        <ele>45.32</ele>
        <time>2018-07-05T16:04:59Z</time>
      </trkpt>
      <trkpt lat="48.684737021103501" lon="-3.986809998750687">
        <ele>45.799999999999997</ele>
        <time>2018-07-05T16:05:02Z</time>
      </trkpt>
      <trkpt lat="48.684770967811346" lon="-3.986874958500266">
        <ele>45.32</ele>
        <time>2018-07-05T16:05:03Z</time>
      </trkpt>
      <trkpt lat="48.684804998338223" lon="-3.986937990412116">
        <ele>45.799999999999997</ele>
        <time>2018-07-05T16:05:04Z</time>
      </trkpt>
      <trkpt lat="48.684878004714847" lon="-3.987109987065196">
        <ele>45.799999999999997</ele>
        <time>2018-07-05T16:05:07Z</time>
      </trkpt>
      <trkpt lat="48.685007002204657" lon="-3.987325988709927">
        <ele>46.280000000000001</ele>
        <time>2018-07-05T16:05:11Z</time>
      </trkpt>
      <trkpt lat="48.68501203134656" lon="-3.987329006195068">
        <ele>46.280000000000001</ele>
        <time>2018-07-05T16:05:12Z</time>
      </trkpt>
      <trkpt lat="48.685090988874435" lon="-3.987407963722944">
        <ele>46.280000000000001</ele>
        <time>2018-07-05T16:05:13Z</time>
      </trkpt>
      <trkpt lat="48.685139017179608" lon="-3.98741701617837">
        <ele>46.759999999999998</ele>
        <time>2018-07-05T16:05:14Z</time>
      </trkpt>
      <trkpt lat="48.685188973322511" lon="-3.987425984814763">
        <ele>46.759999999999998</ele>
        <time>2018-07-05T16:05:15Z</time>
      </trkpt>
      <trkpt lat="48.685237001627684" lon="-3.987435037270188">
        <ele>46.759999999999998</ele>
        <time>2018-07-05T16:05:16Z</time>
      </trkpt>
      <trkpt lat="48.685284024104476" lon="-3.987444005906582">
        <ele>46.759999999999998</ele>
        <time>2018-07-05T16:05:17Z</time>
      </trkpt>
      <trkpt lat="48.685331968590617" lon="-3.987452974542975">
        <ele>46.759999999999998</ele>
        <time>2018-07-05T16:05:18Z</time>
      </trkpt>
      <trkpt lat="48.685375973582268" lon="-3.987421961501241">
        <ele>46.759999999999998</ele>
        <time>2018-07-05T16:05:19Z</time>
      </trkpt>
      <trkpt lat="48.685406986624002" lon="-3.987368987873197">
        <ele>46.280000000000001</ele>
        <time>2018-07-05T16:05:20Z</time>
      </trkpt>
      <trkpt lat="48.685439005494118" lon="-3.98731199093163">
        <ele>46.280000000000001</ele>
        <time>2018-07-05T16:05:21Z</time>
      </trkpt>
      <trkpt lat="48.685458032414317" lon="-3.987250970676541">
        <ele>46.280000000000001</ele>
        <time>2018-07-05T16:05:22Z</time>
      </trkpt>
      <trkpt lat="48.685477981343865" lon="-3.987185005098581">
        <ele>46.280000000000001</ele>
        <time>2018-07-05T16:05:23Z</time>
      </trkpt>
      <trkpt lat="48.685499019920826" lon="-3.987115016207099">
        <ele>46.280000000000001</ele>
        <time>2018-07-05T16:05:24Z</time>
      </trkpt>
      <trkpt lat="48.685540007427335" lon="-3.986979983747006">
        <ele>46.280000000000001</ele>
        <time>2018-07-05T16:05:26Z</time>
      </trkpt>
      <trkpt lat="48.685617037117481" lon="-3.986721988767386">
        <ele>46.759999999999998</ele>
        <time>2018-07-05T16:05:30Z</time>
      </trkpt>
      <trkpt lat="48.685634974390268" lon="-3.986663985997438">
        <ele>46.759999999999998</ele>
        <time>2018-07-05T16:05:31Z</time>
      </trkpt>
      <trkpt lat="48.685679985210299" lon="-3.986648982390761">
        <ele>46.759999999999998</ele>
        <time>2018-07-05T16:05:32Z</time>
      </trkpt>
      <trkpt lat="48.685727007687092" lon="-3.986632972955704">
        <ele>46.759999999999998</ele>
        <time>2018-07-05T16:05:33Z</time>
      </trkpt>
      <trkpt lat="48.685782998800278" lon="-3.986615035682917">
        <ele>46.759999999999998</ele>
        <time>2018-07-05T16:05:34Z</time>
      </trkpt>
      <trkpt lat="48.685834966599941" lon="-3.98660296574235">
        <ele>47.240000000000002</ele>
        <time>2018-07-05T16:05:35Z</time>
      </trkpt>
      <trkpt lat="48.685897998511791" lon="-3.986620986834168">
        <ele>47.719999999999999</ele>
        <time>2018-07-05T16:05:36Z</time>
      </trkpt>
      <trkpt lat="48.686096984893084" lon="-3.986640013754368">
        <ele>49.159999999999997</ele>
        <time>2018-07-05T16:05:39Z</time>
      </trkpt>
      <trkpt lat="48.686957973986864" lon="-3.986757025122643">
        <ele>52.049999999999997</ele>
        <time>2018-07-05T16:05:50Z</time>
      </trkpt>
      <trkpt lat="48.687212029471993" lon="-3.986788960173726">
        <ele>52.049999999999997</ele>
        <time>2018-07-05T16:05:53Z</time>
      </trkpt>
      <trkpt lat="48.687299033626914" lon="-3.986770017072558">
        <ele>52.530000000000001</ele>
        <time>2018-07-05T16:05:54Z</time>
      </trkpt>
      <trkpt lat="48.687801025807858" lon="-3.98658100515604">
        <ele>52.530000000000001</ele>
        <time>2018-07-05T16:05:59Z</time>
      </trkpt>
      <trkpt lat="48.687916025519371" lon="-3.986587962135673">
        <ele>53.009999999999998</ele>
        <time>2018-07-05T16:06:00Z</time>
      </trkpt>
      <trkpt lat="48.688030019402504" lon="-3.986595002934337">
        <ele>53.490000000000002</ele>
        <time>2018-07-05T16:06:01Z</time>
      </trkpt>
      <trkpt lat="48.688247026875615" lon="-3.986659962683916">
        <ele>53.969999999999999</ele>
        <time>2018-07-05T16:06:03Z</time>
      </trkpt>
      <trkpt lat="48.688360014930367" lon="-3.986706985160708">
        <ele>53.969999999999999</ele>
        <time>2018-07-05T16:06:04Z</time>
      </trkpt>
      <trkpt lat="48.68845297023654" lon="-3.986783009022474">
        <ele>54.450000000000003</ele>
        <time>2018-07-05T16:06:05Z</time>
      </trkpt>
      <trkpt lat="48.689523003995419" lon="-3.987953960895538">
        <ele>55.890000000000001</ele>
        <time>2018-07-05T16:06:16Z</time>
      </trkpt>
      <trkpt lat="48.689868003129959" lon="-3.988539017736912">
        <ele>55.890000000000001</ele>
        <time>2018-07-05T16:06:21Z</time>
      </trkpt>
      <trkpt lat="48.689922988414764" lon="-3.988635996356607">
        <ele>56.859999999999999</ele>
        <time>2018-07-05T16:06:22Z</time>
      </trkpt>
      <trkpt lat="48.689972022548318" lon="-3.988721994683147">
        <ele>57.340000000000003</ele>
        <time>2018-07-05T16:06:23Z</time>
      </trkpt>
      <trkpt lat="48.690035976469517" lon="-3.988831965252757">
        <ele>58.299999999999997</ele>
        <time>2018-07-05T16:06:24Z</time>
      </trkpt>
      <trkpt lat="48.690095990896225" lon="-3.988861972466111">
        <ele>58.780000000000001</ele>
        <time>2018-07-05T16:06:25Z</time>
      </trkpt>
      <trkpt lat="48.690227000042796" lon="-3.988810004666448">
        <ele>59.259999999999998</ele>
        <time>2018-07-05T16:06:26Z</time>
      </trkpt>
      <trkpt lat="48.690265975892544" lon="-3.988810004666448">
        <ele>59.259999999999998</ele>
        <time>2018-07-05T16:06:27Z</time>
      </trkpt>
      <trkpt lat="48.69034199975431" lon="-3.988839006051421">
        <ele>59.740000000000002</ele>
        <time>2018-07-05T16:06:28Z</time>
      </trkpt>
      <trkpt lat="48.690354991704226" lon="-3.988853003829718">
        <ele>59.740000000000002</ele>
        <time>2018-07-05T16:06:29Z</time>
      </trkpt>
      <trkpt lat="48.690464962273836" lon="-3.989057019352913">
        <ele>59.740000000000002</ele>
        <time>2018-07-05T16:06:30Z</time>
      </trkpt>
      <trkpt lat="48.69055699557066" lon="-3.989104041829705">
        <ele>59.259999999999998</ele>
        <time>2018-07-05T16:06:31Z</time>
      </trkpt>
      <trkpt lat="48.690656991675496" lon="-3.989132037386298">
        <ele>59.259999999999998</ele>
        <time>2018-07-05T16:06:32Z</time>
      </trkpt>
      <trkpt lat="48.690741984173656" lon="-3.989152992144227">
        <ele>58.780000000000001</ele>
        <time>2018-07-05T16:06:33Z</time>
      </trkpt>
      <trkpt lat="48.690851032733917" lon="-3.989138994365931">
        <ele>58.299999999999997</ele>
        <time>2018-07-05T16:06:34Z</time>
      </trkpt>
      <trkpt lat="48.690951028838754" lon="-3.989126002416015">
        <ele>58.299999999999997</ele>
        <time>2018-07-05T16:06:35Z</time>
      </trkpt>
      <trkpt lat="48.692267993465066" lon="-3.988919975236058">
        <ele>56.369999999999997</ele>
        <time>2018-07-05T16:06:46Z</time>
      </trkpt>
      <trkpt lat="48.693727031350136" lon="-3.988637002184987">
        <ele>53.490000000000002</ele>
        <time>2018-07-05T16:06:56Z</time>
      </trkpt>
      <trkpt lat="48.695181040093303" lon="-3.988053034991026">
        <ele>49.649999999999999</ele>
        <time>2018-07-05T16:07:07Z</time>
      </trkpt>
      <trkpt lat="48.696640999987721" lon="-3.987443000078201">
        <ele>45.799999999999997</ele>
        <time>2018-07-05T16:07:17Z</time>
      </trkpt>
      <trkpt lat="48.697749003767967" lon="-3.986898008733988">
        <ele>45.32</ele>
        <time>2018-07-05T16:07:26Z</time>
      </trkpt>
      <trkpt lat="48.698778972029686" lon="-3.986892979592085">
        <ele>44.840000000000003</ele>
        <time>2018-07-05T16:07:35Z</time>
      </trkpt>
      <trkpt lat="48.699677009135485" lon="-3.987094983458519">
        <ele>42.920000000000002</ele>
        <time>2018-07-05T16:07:45Z</time>
      </trkpt>
      <trkpt lat="48.700931025668979" lon="-3.987329006195068">
        <ele>42.439999999999998</ele>
        <time>2018-07-05T16:07:56Z</time>
      </trkpt>
      <trkpt lat="48.701942972838879" lon="-3.987183999270201">
        <ele>43.880000000000003</ele>
        <time>2018-07-05T16:08:05Z</time>
      </trkpt>
      <trkpt lat="48.702056966722012" lon="-3.987195985391736">
        <ele>43.880000000000003</ele>
        <time>2018-07-05T16:08:06Z</time>
      </trkpt>
      <trkpt lat="48.702166015282273" lon="-3.987240996211767">
        <ele>44.359999999999999</ele>
        <time>2018-07-05T16:08:07Z</time>
      </trkpt>
      <trkpt lat="48.702620984986424" lon="-3.987462026998401">
        <ele>44.840000000000003</ele>
        <time>2018-07-05T16:08:12Z</time>
      </trkpt>
      <trkpt lat="48.702702959999442" lon="-3.987489016726613">
        <ele>44.840000000000003</ele>
        <time>2018-07-05T16:08:13Z</time>
      </trkpt>
      <trkpt lat="48.702789964154363" lon="-3.987456997856498">
        <ele>44.840000000000003</ele>
        <time>2018-07-05T16:08:14Z</time>
      </trkpt>
      <trkpt lat="48.702870011329651" lon="-3.987391032278538">
        <ele>44.359999999999999</ele>
        <time>2018-07-05T16:08:15Z</time>
      </trkpt>
      <trkpt lat="48.702957015484571" lon="-3.987320959568024">
        <ele>44.359999999999999</ele>
        <time>2018-07-05T16:08:16Z</time>
      </trkpt>
      <trkpt lat="48.703037984669209" lon="-3.987226998433471">
        <ele>43.880000000000003</ele>
        <time>2018-07-05T16:08:17Z</time>
      </trkpt>
      <trkpt lat="48.703120965510607" lon="-3.987123984843493">
        <ele>43.880000000000003</ele>
        <time>2018-07-05T16:08:18Z</time>
      </trkpt>
      <trkpt lat="48.703205035999417" lon="-3.987019965425134">
        <ele>43.880000000000003</ele>
        <time>2018-07-05T16:08:19Z</time>
      </trkpt>
      <trkpt lat="48.703444004058838" lon="-3.986737998202443">
        <ele>43.399999999999999</ele>
        <time>2018-07-05T16:08:22Z</time>
      </trkpt>
      <trkpt lat="48.703524973243475" lon="-3.986692987382412">
        <ele>43.399999999999999</ele>
        <time>2018-07-05T16:08:23Z</time>
      </trkpt>
      <trkpt lat="48.703593034297228" lon="-3.986654011532664">
        <ele>43.399999999999999</ele>
        <time>2018-07-05T16:08:24Z</time>
      </trkpt>
      <trkpt lat="48.703905008733273" lon="-3.986448990181088">
        <ele>43.880000000000003</ele>
        <time>2018-07-05T16:08:29Z</time>
      </trkpt>
      <trkpt lat="48.704647980630398" lon="-3.986183032393456">
        <ele>42.439999999999998</ele>
        <time>2018-07-05T16:08:36Z</time>
      </trkpt>
      <trkpt lat="48.705722037702799" lon="-3.985692020505667">
        <ele>40.030000000000001</ele>
        <time>2018-07-05T16:08:44Z</time>
      </trkpt>
      <trkpt lat="48.705856986343861" lon="-3.985588001087308">
        <ele>40.030000000000001</ele>
        <time>2018-07-05T16:08:45Z</time>
      </trkpt>
      <trkpt lat="48.707621963694692" lon="-3.984188977628946">
        <ele>40.509999999999998</ele>
        <time>2018-07-05T16:08:58Z</time>
      </trkpt>
      <trkpt lat="48.708790987730026" lon="-3.983625965192914">
        <ele>39.07</ele>
        <time>2018-07-05T16:09:07Z</time>
      </trkpt>
      <trkpt lat="48.708944963291287" lon="-3.983549019321799">
        <ele>38.590000000000003</ele>
        <time>2018-07-05T16:09:09Z</time>
      </trkpt>
      <trkpt lat="48.709030039608479" lon="-3.983419016003609">
        <ele>38.590000000000003</ele>
        <time>2018-07-05T16:09:10Z</time>
      </trkpt>
      <trkpt lat="48.709061974659562" lon="-3.983190022408962">
        <ele>38.590000000000003</ele>
        <time>2018-07-05T16:09:12Z</time>
      </trkpt>
      <trkpt lat="48.709125006571412" lon="-3.983117016032338">
        <ele>38.590000000000003</ele>
        <time>2018-07-05T16:09:13Z</time>
      </trkpt>
      <trkpt lat="48.70922701433301" lon="-3.983047027140856">
        <ele>38.590000000000003</ele>
        <time>2018-07-05T16:09:14Z</time>
      </trkpt>
      <trkpt lat="48.709308989346027" lon="-3.983069993555546">
        <ele>38.590000000000003</ele>
        <time>2018-07-05T16:09:15Z</time>
      </trkpt>
      <trkpt lat="48.709390964359045" lon="-3.983148029074073">
        <ele>38.590000000000003</ele>
        <time>2018-07-05T16:09:16Z</time>
      </trkpt>
      <trkpt lat="48.709431029856205" lon="-3.98320896551013">
        <ele>38.109999999999999</ele>
        <time>2018-07-05T16:09:17Z</time>
      </trkpt>
      <trkpt lat="48.709448967128992" lon="-3.983383979648352">
        <ele>38.109999999999999</ele>
        <time>2018-07-05T16:09:18Z</time>
      </trkpt>
      <trkpt lat="48.709452990442514" lon="-3.98342396132648">
        <ele>38.109999999999999</ele>
        <time>2018-07-05T16:09:19Z</time>
      </trkpt>
      <trkpt lat="48.709554998204112" lon="-3.983645997941494">
        <ele>38.109999999999999</ele>
        <time>2018-07-05T16:09:20Z</time>
      </trkpt>
      <trkpt lat="48.709646025672555" lon="-3.983698971569538">
        <ele>38.109999999999999</ele>
        <time>2018-07-05T16:09:21Z</time>
      </trkpt>
      <trkpt lat="48.709749039262533" lon="-3.983758985996246">
        <ele>38.109999999999999</ele>
        <time>2018-07-05T16:09:22Z</time>
      </trkpt>
      <trkpt lat="48.709862027317286" lon="-3.983825035393238">
        <ele>38.109999999999999</ele>
        <time>2018-07-05T16:09:23Z</time>
      </trkpt>
      <trkpt lat="48.711012024432421" lon="-3.984458958730102">
        <ele>37.149999999999999</ele>
        <time>2018-07-05T16:09:31Z</time>
      </trkpt>
      <trkpt lat="48.712236033752561" lon="-3.984745033085346">
        <ele>34.259999999999998</ele>
        <time>2018-07-05T16:09:39Z</time>
      </trkpt>
      <trkpt lat="48.713517040014267" lon="-3.984639002010226">
        <ele>27.530000000000001</ele>
        <time>2018-07-05T16:09:48Z</time>
      </trkpt>
      <trkpt lat="48.714929977431893" lon="-3.984504975378513">
        <ele>22.73</ele>
        <time>2018-07-05T16:09:59Z</time>
      </trkpt>
      <trkpt lat="48.715944020077586" lon="-3.984314035624266">
        <ele>23.210000000000001</ele>
        <time>2018-07-05T16:10:09Z</time>
      </trkpt>
      <trkpt lat="48.71621198952198" lon="-3.98426097817719">
        <ele>22.73</ele>
        <time>2018-07-05T16:10:12Z</time>
      </trkpt>
      <trkpt lat="48.716288013383746" lon="-3.984300959855318">
        <ele>22.73</ele>
        <time>2018-07-05T16:10:13Z</time>
      </trkpt>
      <trkpt lat="48.716364959254861" lon="-3.984341025352478">
        <ele>22.73</ele>
        <time>2018-07-05T16:10:14Z</time>
      </trkpt>
      <trkpt lat="48.716438971459866" lon="-3.984381007030606">
        <ele>22.25</ele>
        <time>2018-07-05T16:10:15Z</time>
      </trkpt>
      <trkpt lat="48.716508960351348" lon="-3.984417971223593">
        <ele>21.77</ele>
        <time>2018-07-05T16:10:16Z</time>
      </trkpt>
      <trkpt lat="48.7173489946872" lon="-3.98490403778851">
        <ele>20.809999999999999</ele>
        <time>2018-07-05T16:10:27Z</time>
      </trkpt>
      <trkpt lat="48.717613024637103" lon="-3.98501300252974">
        <ele>21.289999999999999</ele>
        <time>2018-07-05T16:10:30Z</time>
      </trkpt>
      <trkpt lat="48.717704974114895" lon="-3.985015014186502">
        <ele>21.289999999999999</ele>
        <time>2018-07-05T16:10:31Z</time>
      </trkpt>
      <trkpt lat="48.717801030725241" lon="-3.985018031671643">
        <ele>21.77</ele>
        <time>2018-07-05T16:10:32Z</time>
      </trkpt>
      <trkpt lat="48.718647016212344" lon="-3.985069999471307">
        <ele>20.32</ele>
        <time>2018-07-05T16:10:41Z</time>
      </trkpt>
      <trkpt lat="48.719707997515798" lon="-3.985494039952755">
        <ele>16.48</ele>
        <time>2018-07-05T16:10:51Z</time>
      </trkpt>
      <trkpt lat="48.719812016934156" lon="-3.985507031902671">
        <ele>16.48</ele>
        <time>2018-07-05T16:10:52Z</time>
      </trkpt>
      <trkpt lat="48.719914024695754" lon="-3.985520023852587">
        <ele>16</ele>
        <time>2018-07-05T16:10:53Z</time>
      </trkpt>
      <trkpt lat="48.720999984070659" lon="-3.985665030777454">
        <ele>15.52</ele>
        <time>2018-07-05T16:11:04Z</time>
      </trkpt>
      <trkpt lat="48.721091011539102" lon="-3.985711969435215">
        <ele>15.52</ele>
        <time>2018-07-05T16:11:05Z</time>
      </trkpt>
      <trkpt lat="48.721180027350783" lon="-3.985773995518684">
        <ele>15.039999999999999</ele>
        <time>2018-07-05T16:11:06Z</time>
      </trkpt>
      <trkpt lat="48.721421007066965" lon="-3.985971976071596">
        <ele>15.039999999999999</ele>
        <time>2018-07-05T16:11:09Z</time>
      </trkpt>
      <trkpt lat="48.721936997026205" lon="-3.986487966030836">
        <ele>15.52</ele>
        <time>2018-07-05T16:11:16Z</time>
      </trkpt>
      <trkpt lat="48.722371011972427" lon="-3.98688199929893">
        <ele>15.039999999999999</ele>
        <time>2018-07-05T16:11:22Z</time>
      </trkpt>
      <trkpt lat="48.722457010298967" lon="-3.986915023997426">
        <ele>14.56</ele>
        <time>2018-07-05T16:11:23Z</time>
      </trkpt>
      <trkpt lat="48.722639987245202" lon="-3.98696799762547">
        <ele>14.56</ele>
        <time>2018-07-05T16:11:25Z</time>
      </trkpt>
      <trkpt lat="48.722735960036516" lon="-3.986975038424134">
        <ele>14.08</ele>
        <time>2018-07-05T16:11:26Z</time>
      </trkpt>
      <trkpt lat="48.723135022446513" lon="-3.986956011503935">
        <ele>12.630000000000001</ele>
        <time>2018-07-05T16:11:30Z</time>
      </trkpt>
      <trkpt lat="48.723237030208111" lon="-3.9869440253824">
        <ele>12.15</ele>
        <time>2018-07-05T16:11:31Z</time>
      </trkpt>
      <trkpt lat="48.723949994891882" lon="-3.98686096072197">
        <ele>5.42</ele>
        <time>2018-07-05T16:11:39Z</time>
      </trkpt>
      <trkpt lat="48.724011015146971" lon="-3.986841011792421">
        <ele>4.94</ele>
        <time>2018-07-05T16:11:40Z</time>
      </trkpt>
      <trkpt lat="48.724060971289873" lon="-3.986817039549351">
        <ele>4.94</ele>
        <time>2018-07-05T16:11:41Z</time>
      </trkpt>
      <trkpt lat="48.724076980724931" lon="-3.986722994595766">
        <ele>4.94</ele>
        <time>2018-07-05T16:11:42Z</time>
      </trkpt>
      <trkpt lat="48.724087039008737" lon="-3.986633978784084">
        <ele>4.46</ele>
        <time>2018-07-05T16:11:43Z</time>
      </trkpt>
      <trkpt lat="48.724100030958652" lon="-3.986528031527996">
        <ele>4.46</ele>
        <time>2018-07-05T16:11:44Z</time>
      </trkpt>
      <trkpt lat="48.72411503456533" lon="-3.986411020159721">
        <ele>3.98</ele>
        <time>2018-07-05T16:11:45Z</time>
      </trkpt>
      <trkpt lat="48.724190974608064" lon="-3.985790004953742">
        <ele>3.5</ele>
        <time>2018-07-05T16:11:51Z</time>
      </trkpt>
      <trkpt lat="48.724228022620082" lon="-3.985741976648569">
        <ele>3.5</ele>
        <time>2018-07-05T16:11:52Z</time>
      </trkpt>
      <trkpt lat="48.724278984591365" lon="-3.985711969435215">
        <ele>3.5</ele>
        <time>2018-07-05T16:11:53Z</time>
      </trkpt>
      <trkpt lat="48.724340004846454" lon="-3.985709035769105">
        <ele>3.5</ele>
        <time>2018-07-05T16:11:54Z</time>
      </trkpt>
      <trkpt lat="48.724403958767653" lon="-3.985727978870273">
        <ele>3.5</ele>
        <time>2018-07-05T16:11:55Z</time>
      </trkpt>
      <trkpt lat="48.724472019821405" lon="-3.985748011618853">
        <ele>3.5</ele>
        <time>2018-07-05T16:11:56Z</time>
      </trkpt>
      <trkpt lat="48.72454896569252" lon="-3.985769972205162">
        <ele>3.5</ele>
        <time>2018-07-05T16:11:57Z</time>
      </trkpt>
      <trkpt lat="48.724816013127565" lon="-3.985848007723689">
        <ele>3.98</ele>
        <time>2018-07-05T16:12:01Z</time>
      </trkpt>
      <trkpt lat="48.724891031160951" lon="-3.985810959711671">
        <ele>3.98</ele>
        <time>2018-07-05T16:12:02Z</time>
      </trkpt>
      <trkpt lat="48.724909974262118" lon="-3.985757986083627">
        <ele>3.98</ele>
        <time>2018-07-05T16:12:03Z</time>
      </trkpt>
      <trkpt lat="48.724921038374305" lon="-3.985683973878622">
        <ele>3.98</ele>
        <time>2018-07-05T16:12:04Z</time>
      </trkpt>
      <trkpt lat="48.724934030324221" lon="-3.985600993037224">
        <ele>3.98</ele>
        <time>2018-07-05T16:12:05Z</time>
      </trkpt>
      <trkpt lat="48.724948028102517" lon="-3.985512983053923">
        <ele>3.5</ele>
        <time>2018-07-05T16:12:06Z</time>
      </trkpt>
      <trkpt lat="48.725002007558942" lon="-3.985166978091002">
        <ele>3.98</ele>
        <time>2018-07-05T16:12:10Z</time>
      </trkpt>
      <trkpt lat="48.725016005337238" lon="-3.985090032219887">
        <ele>3.5</ele>
        <time>2018-07-05T16:12:11Z</time>
      </trkpt>
      <trkpt lat="48.725036038085818" lon="-3.985007973387837">
        <ele>3.5</ele>
        <time>2018-07-05T16:12:12Z</time>
      </trkpt>
      <trkpt lat="48.725055987015367" lon="-3.984920969232917">
        <ele>3.5</ele>
        <time>2018-07-05T16:12:13Z</time>
      </trkpt>
      <trkpt lat="48.725077025592327" lon="-3.984834970906377">
        <ele>3.02</ele>
        <time>2018-07-05T16:12:14Z</time>
      </trkpt>
      <trkpt lat="48.725096974521875" lon="-3.984747966751456">
        <ele>3.02</ele>
        <time>2018-07-05T16:12:15Z</time>
      </trkpt>
      <trkpt lat="48.725118013098836" lon="-3.984661968424916">
        <ele>2.54</ele>
        <time>2018-07-05T16:12:16Z</time>
      </trkpt>
      <trkpt lat="48.725138967856765" lon="-3.984573036432266">
        <ele>2.06</ele>
        <time>2018-07-05T16:12:17Z</time>
      </trkpt>
      <trkpt lat="48.725159000605345" lon="-3.984487960115075">
        <ele>2.06</ele>
        <time>2018-07-05T16:12:18Z</time>
      </trkpt>
      <trkpt lat="48.725179033353925" lon="-3.984401961788535">
        <ele>1.58</ele>
        <time>2018-07-05T16:12:19Z</time>
      </trkpt>
      <trkpt lat="48.725203005596995" lon="-3.98430397734046">
        <ele>1.58</ele>
        <time>2018-07-05T16:12:20Z</time>
      </trkpt>
      <trkpt lat="48.725205017253757" lon="-3.984214039519429">
        <ele>1.58</ele>
        <time>2018-07-05T16:12:21Z</time>
      </trkpt>
      <trkpt lat="48.725215997546911" lon="-3.983752029016614">
        <ele>1.1</ele>
        <time>2018-07-05T16:12:26Z</time>
      </trkpt>
      <trkpt lat="48.725221026688814" lon="-3.983535021543503">
        <ele>1.58</ele>
        <time>2018-07-05T16:12:29Z</time>
      </trkpt>
      <trkpt lat="48.725223038345575" lon="-3.983478024601936">
        <ele>1.58</ele>
        <time>2018-07-05T16:12:30Z</time>
      </trkpt>
      <trkpt lat="48.725255979225039" lon="-3.98340099491179">
        <ele>1.58</ele>
        <time>2018-07-05T16:12:31Z</time>
      </trkpt>
      <trkpt lat="48.725294033065438" lon="-3.983374005183578">
        <ele>1.58</ele>
        <time>2018-07-05T16:12:32Z</time>
      </trkpt>
      <trkpt lat="48.725333008915186" lon="-3.983346009626985">
        <ele>1.1</ele>
        <time>2018-07-05T16:12:33Z</time>
      </trkpt>
      <trkpt lat="48.725367039442062" lon="-3.983322037383914">
        <ele>1.1</ele>
        <time>2018-07-05T16:12:34Z</time>
      </trkpt>
      <trkpt lat="48.725394029170275" lon="-3.983302004635334">
        <ele>0.62</ele>
        <time>2018-07-05T16:12:35Z</time>
      </trkpt>
      <trkpt lat="48.725415989756584" lon="-3.983287001028657">
        <ele>0.14</ele>
        <time>2018-07-05T16:12:36Z</time>
      </trkpt>
      <trkpt lat="48.725436022505164" lon="-3.983273003250361">
        <ele>-0.34</ele>
        <time>2018-07-05T16:12:37Z</time>
      </trkpt>
      <trkpt lat="48.725450020283461" lon="-3.983263028785586">
        <ele>-0.34</ele>
        <time>2018-07-05T16:12:38Z</time>
      </trkpt>
      <trkpt lat="48.725531995296478" lon="-3.98318599909544">
        <ele>-1.79</ele>
        <time>2018-07-05T16:12:48Z</time>
      </trkpt>
      <trkpt lat="48.725655963644385" lon="-3.982816021889448">
        <ele>-0.34</ele>
        <time>2018-07-05T16:12:57Z</time>
      </trkpt>
      <trkpt lat="48.725714972242713" lon="-3.982775034382939">
        <ele>0.14</ele>
        <time>2018-07-05T16:12:58Z</time>
      </trkpt>
      <trkpt lat="48.725740034133196" lon="-3.982786014676094">
        <ele>0.14</ele>
        <time>2018-07-05T16:12:59Z</time>
      </trkpt>
      <trkpt lat="48.725768029689789" lon="-3.982798000797629">
        <ele>0.14</ele>
        <time>2018-07-05T16:13:00Z</time>
      </trkpt>
      <trkpt lat="48.725799964740872" lon="-3.982810992747545">
        <ele>0.62</ele>
        <time>2018-07-05T16:13:01Z</time>
      </trkpt>
      <trkpt lat="48.726232973858714" lon="-3.983076028525829">
        <ele>5.91</ele>
        <time>2018-07-05T16:13:18Z</time>
      </trkpt>
      <trkpt lat="48.726090984418988" lon="-3.983563017100096">
        <ele>7.35</ele>
        <time>2018-07-05T16:13:29Z</time>
      </trkpt>
      <trkpt lat="48.726057959720492" lon="-3.983838027343154">
        <ele>8.310000000000001</ele>
        <time>2018-07-05T16:13:38Z</time>
      </trkpt>
      <trkpt lat="48.726067012175918" lon="-3.983859987929463">
        <ele>8.789999999999999</ele>
        <time>2018-07-05T16:13:39Z</time>
      </trkpt>
      <trkpt lat="48.726078998297453" lon="-3.983887983486056">
        <ele>8.789999999999999</ele>
        <time>2018-07-05T16:13:40Z</time>
      </trkpt>
      <trkpt lat="48.726090984418988" lon="-3.98391698487103">
        <ele>8.789999999999999</ele>
        <time>2018-07-05T16:13:41Z</time>
      </trkpt>
      <trkpt lat="48.726104982197285" lon="-3.983946992084384">
        <ele>8.789999999999999</ele>
        <time>2018-07-05T16:13:42Z</time>
      </trkpt>
    </trkseg>
  </trk>

</gpx>